<?xml version="1.0" encoding="UTF-8"?>
<gpx version="1.1" creator="2bulu-scraper" xmlns="http://www.topografix.com/GPX/1/1">
  <metadata><name>20251122箭竹乡汆洞沟</name><desc>source: 2bulu.com trackId=74955995; exported 2026-09-01T14:52:04.340Z</desc>
    <bounds minlat="28.01036" minlon="105.61412" maxlat="28.023043" maxlon="105.626859"/>
    <link href="https://www.2bulu.com/track/t-Fl%252FO5sQ8MUzp%252FR2KBg5Tzw%253D%253D.htm"><text>2bulu 源页面</text></link>
  </metadata>
  <wpt lat="28.017558" lon="105.622645"><ele>1078</ele><name></name></wpt>
  <wpt lat="28.022158" lon="105.625663"><ele>1042</ele><name></name></wpt>
  <wpt lat="28.022753" lon="105.625855"><ele>978</ele><name></name></wpt>
  <wpt lat="28.022717" lon="105.622122"><ele>1070</ele><name></name></wpt>
  <trk><name>20251122箭竹乡汆洞沟</name>
      <trkseg>
        <trkpt lat="28.019228" lon="105.61412"><ele>1236</ele><time>2025-11-21T22:29:13.000Z</time></trkpt>
        <trkpt lat="28.019221" lon="105.61413"><ele>1236</ele><time>2025-11-21T22:29:14.000Z</time></trkpt>
        <trkpt lat="28.019215" lon="105.614141"><ele>1236</ele><time>2025-11-21T22:29:15.000Z</time></trkpt>
        <trkpt lat="28.019209" lon="105.614152"><ele>1236</ele><time>2025-11-21T22:29:16.000Z</time></trkpt>
        <trkpt lat="28.019204" lon="105.614164"><ele>1236</ele><time>2025-11-21T22:29:17.000Z</time></trkpt>
        <trkpt lat="28.0192" lon="105.614177"><ele>1236</ele><time>2025-11-21T22:29:18.000Z</time></trkpt>
        <trkpt lat="28.019196" lon="105.61419"><ele>1236</ele><time>2025-11-21T22:29:19.000Z</time></trkpt>
        <trkpt lat="28.019191" lon="105.614204"><ele>1236</ele><time>2025-11-21T22:29:20.000Z</time></trkpt>
        <trkpt lat="28.019187" lon="105.614217"><ele>1236</ele><time>2025-11-21T22:29:21.000Z</time></trkpt>
        <trkpt lat="28.019183" lon="105.61423"><ele>1236</ele><time>2025-11-21T22:29:22.000Z</time></trkpt>
        <trkpt lat="28.01918" lon="105.614242"><ele>1236</ele><time>2025-11-21T22:29:23.000Z</time></trkpt>
        <trkpt lat="28.019176" lon="105.614252"><ele>1236</ele><time>2025-11-21T22:29:24.000Z</time></trkpt>
        <trkpt lat="28.019172" lon="105.614263"><ele>1236</ele><time>2025-11-21T22:29:25.000Z</time></trkpt>
        <trkpt lat="28.019168" lon="105.614273"><ele>1235.8</ele><time>2025-11-21T22:29:26.000Z</time></trkpt>
        <trkpt lat="28.019163" lon="105.614282"><ele>1235.8</ele><time>2025-11-21T22:29:27.000Z</time></trkpt>
        <trkpt lat="28.019159" lon="105.614288"><ele>1235.8</ele><time>2025-11-21T22:29:28.000Z</time></trkpt>
        <trkpt lat="28.019156" lon="105.614293"><ele>1235.8</ele><time>2025-11-21T22:29:29.000Z</time></trkpt>
        <trkpt lat="28.019154" lon="105.614296"><ele>1235.8</ele><time>2025-11-21T22:29:30.000Z</time></trkpt>
        <trkpt lat="28.019153" lon="105.614298"><ele>1235</ele><time>2025-11-21T22:29:31.000Z</time></trkpt>
        <trkpt lat="28.019154" lon="105.614299"><ele>1235</ele><time>2025-11-21T22:29:32.000Z</time></trkpt>
        <trkpt lat="28.019154" lon="105.6143"><ele>1235</ele><time>2025-11-21T22:29:33.000Z</time></trkpt>
        <trkpt lat="28.019155" lon="105.614301"><ele>1235</ele><time>2025-11-21T22:29:34.000Z</time></trkpt>
        <trkpt lat="28.019156" lon="105.614303"><ele>1235</ele><time>2025-11-21T22:29:35.000Z</time></trkpt>
        <trkpt lat="28.019157" lon="105.614305"><ele>1234.4</ele><time>2025-11-21T22:29:36.000Z</time></trkpt>
        <trkpt lat="28.019159" lon="105.614307"><ele>1234.4</ele><time>2025-11-21T22:29:37.000Z</time></trkpt>
        <trkpt lat="28.019161" lon="105.61431"><ele>1234.4</ele><time>2025-11-21T22:29:38.000Z</time></trkpt>
        <trkpt lat="28.019162" lon="105.614312"><ele>1234.4</ele><time>2025-11-21T22:29:39.000Z</time></trkpt>
        <trkpt lat="28.019163" lon="105.614317"><ele>1234.4</ele><time>2025-11-21T22:29:40.000Z</time></trkpt>
        <trkpt lat="28.019163" lon="105.614323"><ele>1233.9</ele><time>2025-11-21T22:29:41.000Z</time></trkpt>
        <trkpt lat="28.019163" lon="105.614331"><ele>1233.9</ele><time>2025-11-21T22:29:42.000Z</time></trkpt>
        <trkpt lat="28.019162" lon="105.61434"><ele>1233.9</ele><time>2025-11-21T22:29:43.000Z</time></trkpt>
        <trkpt lat="28.01916" lon="105.614349"><ele>1233.9</ele><time>2025-11-21T22:29:44.000Z</time></trkpt>
        <trkpt lat="28.019157" lon="105.614358"><ele>1233.9</ele><time>2025-11-21T22:29:45.000Z</time></trkpt>
        <trkpt lat="28.019155" lon="105.614365"><ele>1233.7</ele><time>2025-11-21T22:29:46.000Z</time></trkpt>
        <trkpt lat="28.019152" lon="105.614371"><ele>1233.7</ele><time>2025-11-21T22:29:47.000Z</time></trkpt>
        <trkpt lat="28.01915" lon="105.614379"><ele>1233.7</ele><time>2025-11-21T22:29:48.000Z</time></trkpt>
        <trkpt lat="28.019146" lon="105.614387"><ele>1233.7</ele><time>2025-11-21T22:29:49.000Z</time></trkpt>
        <trkpt lat="28.019144" lon="105.614396"><ele>1233.7</ele><time>2025-11-21T22:29:50.000Z</time></trkpt>
        <trkpt lat="28.019142" lon="105.614405"><ele>1233.5</ele><time>2025-11-21T22:29:51.000Z</time></trkpt>
        <trkpt lat="28.01914" lon="105.614414"><ele>1233.5</ele><time>2025-11-21T22:29:52.000Z</time></trkpt>
        <trkpt lat="28.019138" lon="105.614422"><ele>1233.5</ele><time>2025-11-21T22:29:53.000Z</time></trkpt>
        <trkpt lat="28.019136" lon="105.614429"><ele>1233.5</ele><time>2025-11-21T22:29:54.000Z</time></trkpt>
        <trkpt lat="28.019134" lon="105.614434"><ele>1233.5</ele><time>2025-11-21T22:29:55.000Z</time></trkpt>
        <trkpt lat="28.019132" lon="105.614438"><ele>1233.3</ele><time>2025-11-21T22:29:56.000Z</time></trkpt>
        <trkpt lat="28.019131" lon="105.61444"><ele>1233.3</ele><time>2025-11-21T22:29:57.000Z</time></trkpt>
        <trkpt lat="28.01913" lon="105.614444"><ele>1233.3</ele><time>2025-11-21T22:29:58.000Z</time></trkpt>
        <trkpt lat="28.01913" lon="105.614446"><ele>1233.3</ele><time>2025-11-21T22:29:59.000Z</time></trkpt>
        <trkpt lat="28.01913" lon="105.614449"><ele>1233.3</ele><time>2025-11-21T22:30:00.000Z</time></trkpt>
        <trkpt lat="28.019131" lon="105.614454"><ele>1233</ele><time>2025-11-21T22:30:01.000Z</time></trkpt>
        <trkpt lat="28.019131" lon="105.614462"><ele>1233</ele><time>2025-11-21T22:30:02.000Z</time></trkpt>
        <trkpt lat="28.019131" lon="105.61447"><ele>1233</ele><time>2025-11-21T22:30:03.000Z</time></trkpt>
        <trkpt lat="28.01913" lon="105.61448"><ele>1233</ele><time>2025-11-21T22:30:04.000Z</time></trkpt>
        <trkpt lat="28.01913" lon="105.614491"><ele>1233</ele><time>2025-11-21T22:30:05.000Z</time></trkpt>
        <trkpt lat="28.019128" lon="105.614499"><ele>1233</ele><time>2025-11-21T22:30:06.000Z</time></trkpt>
        <trkpt lat="28.019127" lon="105.614506"><ele>1233</ele><time>2025-11-21T22:30:07.000Z</time></trkpt>
        <trkpt lat="28.019127" lon="105.61451"><ele>1233</ele><time>2025-11-21T22:30:08.000Z</time></trkpt>
        <trkpt lat="28.019127" lon="105.614513"><ele>1233</ele><time>2025-11-21T22:30:09.000Z</time></trkpt>
        <trkpt lat="28.019127" lon="105.614513"><ele>1233</ele><time>2025-11-21T22:30:10.000Z</time></trkpt>
        <trkpt lat="28.019127" lon="105.614514"><ele>1232.8</ele><time>2025-11-21T22:30:11.000Z</time></trkpt>
        <trkpt lat="28.019128" lon="105.614514"><ele>1232.8</ele><time>2025-11-21T22:30:12.000Z</time></trkpt>
        <trkpt lat="28.019129" lon="105.614514"><ele>1232.8</ele><time>2025-11-21T22:30:13.000Z</time></trkpt>
        <trkpt lat="28.01913" lon="105.614514"><ele>1232.8</ele><time>2025-11-21T22:30:14.000Z</time></trkpt>
        <trkpt lat="28.019131" lon="105.614514"><ele>1232.8</ele><time>2025-11-21T22:30:15.000Z</time></trkpt>
        <trkpt lat="28.019131" lon="105.614514"><ele>1232.8</ele><time>2025-11-21T22:30:16.000Z</time></trkpt>
        <trkpt lat="28.019131" lon="105.614513"><ele>1232.8</ele><time>2025-11-21T22:30:17.000Z</time></trkpt>
        <trkpt lat="28.019131" lon="105.614513"><ele>1232.8</ele><time>2025-11-21T22:30:18.000Z</time></trkpt>
        <trkpt lat="28.019131" lon="105.614513"><ele>1232.8</ele><time>2025-11-21T22:30:19.000Z</time></trkpt>
        <trkpt lat="28.019131" lon="105.614513"><ele>1232.8</ele><time>2025-11-21T22:30:20.000Z</time></trkpt>
        <trkpt lat="28.019131" lon="105.614513"><ele>1232.6</ele><time>2025-11-21T22:30:21.000Z</time></trkpt>
        <trkpt lat="28.019131" lon="105.614513"><ele>1232.6</ele><time>2025-11-21T22:30:22.000Z</time></trkpt>
        <trkpt lat="28.01913" lon="105.614513"><ele>1232.6</ele><time>2025-11-21T22:30:23.000Z</time></trkpt>
        <trkpt lat="28.019129" lon="105.614514"><ele>1232.6</ele><time>2025-11-21T22:30:24.000Z</time></trkpt>
        <trkpt lat="28.019128" lon="105.614516"><ele>1232.6</ele><time>2025-11-21T22:30:25.000Z</time></trkpt>
        <trkpt lat="28.019126" lon="105.614521"><ele>1232.6</ele><time>2025-11-21T22:30:26.000Z</time></trkpt>
        <trkpt lat="28.019126" lon="105.614528"><ele>1232.6</ele><time>2025-11-21T22:30:27.000Z</time></trkpt>
        <trkpt lat="28.019126" lon="105.614536"><ele>1232.6</ele><time>2025-11-21T22:30:28.000Z</time></trkpt>
        <trkpt lat="28.019127" lon="105.614546"><ele>1232.6</ele><time>2025-11-21T22:30:29.000Z</time></trkpt>
        <trkpt lat="28.019127" lon="105.614556"><ele>1232.6</ele><time>2025-11-21T22:30:30.000Z</time></trkpt>
        <trkpt lat="28.019127" lon="105.614565"><ele>1232.6</ele><time>2025-11-21T22:30:31.000Z</time></trkpt>
        <trkpt lat="28.019126" lon="105.614574"><ele>1232.6</ele><time>2025-11-21T22:30:32.000Z</time></trkpt>
        <trkpt lat="28.019123" lon="105.614583"><ele>1232.6</ele><time>2025-11-21T22:30:33.000Z</time></trkpt>
        <trkpt lat="28.01912" lon="105.614592"><ele>1232.6</ele><time>2025-11-21T22:30:34.000Z</time></trkpt>
        <trkpt lat="28.019116" lon="105.614601"><ele>1232.6</ele><time>2025-11-21T22:30:35.000Z</time></trkpt>
        <trkpt lat="28.019113" lon="105.61461"><ele>1232.6</ele><time>2025-11-21T22:30:36.000Z</time></trkpt>
        <trkpt lat="28.019112" lon="105.61462"><ele>1232.6</ele><time>2025-11-21T22:30:37.000Z</time></trkpt>
        <trkpt lat="28.019112" lon="105.614629"><ele>1232.6</ele><time>2025-11-21T22:30:38.000Z</time></trkpt>
        <trkpt lat="28.019113" lon="105.614638"><ele>1232.6</ele><time>2025-11-21T22:30:39.000Z</time></trkpt>
        <trkpt lat="28.019114" lon="105.614647"><ele>1232.6</ele><time>2025-11-21T22:30:40.000Z</time></trkpt>
        <trkpt lat="28.019115" lon="105.614656"><ele>1232.2</ele><time>2025-11-21T22:30:41.000Z</time></trkpt>
        <trkpt lat="28.019115" lon="105.614664"><ele>1232.2</ele><time>2025-11-21T22:30:42.000Z</time></trkpt>
        <trkpt lat="28.019115" lon="105.614673"><ele>1232.2</ele><time>2025-11-21T22:30:43.000Z</time></trkpt>
        <trkpt lat="28.019116" lon="105.614682"><ele>1232.2</ele><time>2025-11-21T22:30:44.000Z</time></trkpt>
        <trkpt lat="28.019117" lon="105.614689"><ele>1232.2</ele><time>2025-11-21T22:30:45.000Z</time></trkpt>
        <trkpt lat="28.019119" lon="105.614693"><ele>1231.7</ele><time>2025-11-21T22:30:46.000Z</time></trkpt>
        <trkpt lat="28.019121" lon="105.614695"><ele>1231.7</ele><time>2025-11-21T22:30:47.000Z</time></trkpt>
        <trkpt lat="28.019123" lon="105.614695"><ele>1231.7</ele><time>2025-11-21T22:30:48.000Z</time></trkpt>
        <trkpt lat="28.019125" lon="105.614695"><ele>1231.7</ele><time>2025-11-21T22:30:49.000Z</time></trkpt>
        <trkpt lat="28.019126" lon="105.614698"><ele>1231.7</ele><time>2025-11-21T22:30:50.000Z</time></trkpt>
        <trkpt lat="28.019126" lon="105.614704"><ele>1231.2</ele><time>2025-11-21T22:30:51.000Z</time></trkpt>
        <trkpt lat="28.019126" lon="105.614713"><ele>1231.2</ele><time>2025-11-21T22:30:52.000Z</time></trkpt>
        <trkpt lat="28.019125" lon="105.614722"><ele>1231.2</ele><time>2025-11-21T22:30:53.000Z</time></trkpt>
        <trkpt lat="28.019123" lon="105.614731"><ele>1231.2</ele><time>2025-11-21T22:30:54.000Z</time></trkpt>
        <trkpt lat="28.019121" lon="105.614738"><ele>1231.2</ele><time>2025-11-21T22:30:55.000Z</time></trkpt>
        <trkpt lat="28.01912" lon="105.614743"><ele>1230.7</ele><time>2025-11-21T22:30:56.000Z</time></trkpt>
        <trkpt lat="28.019118" lon="105.614746"><ele>1230.7</ele><time>2025-11-21T22:30:57.000Z</time></trkpt>
        <trkpt lat="28.019118" lon="105.614749"><ele>1230.7</ele><time>2025-11-21T22:30:58.000Z</time></trkpt>
        <trkpt lat="28.019117" lon="105.614752"><ele>1230.7</ele><time>2025-11-21T22:30:59.000Z</time></trkpt>
        <trkpt lat="28.019117" lon="105.614757"><ele>1230.7</ele><time>2025-11-21T22:31:00.000Z</time></trkpt>
        <trkpt lat="28.019117" lon="105.614764"><ele>1230.5</ele><time>2025-11-21T22:31:01.000Z</time></trkpt>
        <trkpt lat="28.019117" lon="105.614775"><ele>1230.5</ele><time>2025-11-21T22:31:02.000Z</time></trkpt>
        <trkpt lat="28.019118" lon="105.614789"><ele>1230.5</ele><time>2025-11-21T22:31:03.000Z</time></trkpt>
        <trkpt lat="28.019119" lon="105.614803"><ele>1230.5</ele><time>2025-11-21T22:31:04.000Z</time></trkpt>
        <trkpt lat="28.019121" lon="105.614818"><ele>1230.5</ele><time>2025-11-21T22:31:05.000Z</time></trkpt>
        <trkpt lat="28.019122" lon="105.614833"><ele>1230.3</ele><time>2025-11-21T22:31:06.000Z</time></trkpt>
        <trkpt lat="28.019123" lon="105.614847"><ele>1230.3</ele><time>2025-11-21T22:31:07.000Z</time></trkpt>
        <trkpt lat="28.019123" lon="105.614858"><ele>1230.3</ele><time>2025-11-21T22:31:08.000Z</time></trkpt>
        <trkpt lat="28.019123" lon="105.614866"><ele>1230.3</ele><time>2025-11-21T22:31:09.000Z</time></trkpt>
        <trkpt lat="28.019123" lon="105.614872"><ele>1230.3</ele><time>2025-11-21T22:31:10.000Z</time></trkpt>
        <trkpt lat="28.019122" lon="105.614879"><ele>1230</ele><time>2025-11-21T22:31:11.000Z</time></trkpt>
        <trkpt lat="28.019122" lon="105.614884"><ele>1230</ele><time>2025-11-21T22:31:12.000Z</time></trkpt>
        <trkpt lat="28.019124" lon="105.61489"><ele>1230</ele><time>2025-11-21T22:31:13.000Z</time></trkpt>
        <trkpt lat="28.019127" lon="105.614899"><ele>1230</ele><time>2025-11-21T22:31:14.000Z</time></trkpt>
        <trkpt lat="28.01913" lon="105.614909"><ele>1230</ele><time>2025-11-21T22:31:15.000Z</time></trkpt>
        <trkpt lat="28.019135" lon="105.614918"><ele>1229.8</ele><time>2025-11-21T22:31:16.000Z</time></trkpt>
        <trkpt lat="28.019139" lon="105.614928"><ele>1229.8</ele><time>2025-11-21T22:31:17.000Z</time></trkpt>
        <trkpt lat="28.019143" lon="105.614938"><ele>1229.8</ele><time>2025-11-21T22:31:18.000Z</time></trkpt>
        <trkpt lat="28.019147" lon="105.614949"><ele>1229.8</ele><time>2025-11-21T22:31:19.000Z</time></trkpt>
        <trkpt lat="28.019152" lon="105.61496"><ele>1229.8</ele><time>2025-11-21T22:31:20.000Z</time></trkpt>
        <trkpt lat="28.019156" lon="105.614972"><ele>1229.6</ele><time>2025-11-21T22:31:21.000Z</time></trkpt>
        <trkpt lat="28.019161" lon="105.614984"><ele>1229.6</ele><time>2025-11-21T22:31:22.000Z</time></trkpt>
        <trkpt lat="28.019166" lon="105.614995"><ele>1229.6</ele><time>2025-11-21T22:31:23.000Z</time></trkpt>
        <trkpt lat="28.01917" lon="105.615007"><ele>1229.6</ele><time>2025-11-21T22:31:24.000Z</time></trkpt>
        <trkpt lat="28.019174" lon="105.615019"><ele>1229.6</ele><time>2025-11-21T22:31:25.000Z</time></trkpt>
        <trkpt lat="28.019179" lon="105.615031"><ele>1229.1</ele><time>2025-11-21T22:31:26.000Z</time></trkpt>
        <trkpt lat="28.019184" lon="105.615043"><ele>1229.1</ele><time>2025-11-21T22:31:27.000Z</time></trkpt>
        <trkpt lat="28.019189" lon="105.615056"><ele>1229.1</ele><time>2025-11-21T22:31:28.000Z</time></trkpt>
        <trkpt lat="28.019193" lon="105.615069"><ele>1229.1</ele><time>2025-11-21T22:31:29.000Z</time></trkpt>
        <trkpt lat="28.019196" lon="105.615081"><ele>1229.1</ele><time>2025-11-21T22:31:30.000Z</time></trkpt>
        <trkpt lat="28.019199" lon="105.615094"><ele>1228.5</ele><time>2025-11-21T22:31:31.000Z</time></trkpt>
        <trkpt lat="28.019201" lon="105.615106"><ele>1228.5</ele><time>2025-11-21T22:31:32.000Z</time></trkpt>
        <trkpt lat="28.019204" lon="105.615118"><ele>1228.5</ele><time>2025-11-21T22:31:33.000Z</time></trkpt>
        <trkpt lat="28.019205" lon="105.615131"><ele>1228.5</ele><time>2025-11-21T22:31:34.000Z</time></trkpt>
        <trkpt lat="28.019207" lon="105.615143"><ele>1228.5</ele><time>2025-11-21T22:31:35.000Z</time></trkpt>
        <trkpt lat="28.019207" lon="105.615157"><ele>1227.7</ele><time>2025-11-21T22:31:36.000Z</time></trkpt>
        <trkpt lat="28.019208" lon="105.61517"><ele>1227.7</ele><time>2025-11-21T22:31:37.000Z</time></trkpt>
        <trkpt lat="28.019209" lon="105.615182"><ele>1227.7</ele><time>2025-11-21T22:31:38.000Z</time></trkpt>
        <trkpt lat="28.019209" lon="105.615194"><ele>1227.7</ele><time>2025-11-21T22:31:39.000Z</time></trkpt>
        <trkpt lat="28.01921" lon="105.615206"><ele>1227.7</ele><time>2025-11-21T22:31:40.000Z</time></trkpt>
        <trkpt lat="28.019211" lon="105.615218"><ele>1227</ele><time>2025-11-21T22:31:41.000Z</time></trkpt>
        <trkpt lat="28.019213" lon="105.61523"><ele>1227</ele><time>2025-11-21T22:31:42.000Z</time></trkpt>
        <trkpt lat="28.019215" lon="105.615243"><ele>1227</ele><time>2025-11-21T22:31:43.000Z</time></trkpt>
        <trkpt lat="28.019218" lon="105.615256"><ele>1227</ele><time>2025-11-21T22:31:44.000Z</time></trkpt>
        <trkpt lat="28.01922" lon="105.615269"><ele>1227</ele><time>2025-11-21T22:31:45.000Z</time></trkpt>
        <trkpt lat="28.019222" lon="105.615282"><ele>1226.1</ele><time>2025-11-21T22:31:46.000Z</time></trkpt>
        <trkpt lat="28.019224" lon="105.615295"><ele>1226.1</ele><time>2025-11-21T22:31:47.000Z</time></trkpt>
        <trkpt lat="28.019224" lon="105.615308"><ele>1226.1</ele><time>2025-11-21T22:31:48.000Z</time></trkpt>
        <trkpt lat="28.019223" lon="105.615321"><ele>1226.1</ele><time>2025-11-21T22:31:49.000Z</time></trkpt>
        <trkpt lat="28.019221" lon="105.615334"><ele>1226.1</ele><time>2025-11-21T22:31:50.000Z</time></trkpt>
        <trkpt lat="28.019218" lon="105.615347"><ele>1225.4</ele><time>2025-11-21T22:31:51.000Z</time></trkpt>
        <trkpt lat="28.019216" lon="105.615361"><ele>1225.4</ele><time>2025-11-21T22:31:52.000Z</time></trkpt>
        <trkpt lat="28.019213" lon="105.615375"><ele>1225.4</ele><time>2025-11-21T22:31:53.000Z</time></trkpt>
        <trkpt lat="28.019211" lon="105.61539"><ele>1225.4</ele><time>2025-11-21T22:31:54.000Z</time></trkpt>
        <trkpt lat="28.019208" lon="105.615405"><ele>1225.4</ele><time>2025-11-21T22:31:55.000Z</time></trkpt>
        <trkpt lat="28.019206" lon="105.61542"><ele>1224.3</ele><time>2025-11-21T22:31:56.000Z</time></trkpt>
        <trkpt lat="28.019205" lon="105.615436"><ele>1224.3</ele><time>2025-11-21T22:31:57.000Z</time></trkpt>
        <trkpt lat="28.019203" lon="105.615451"><ele>1224.3</ele><time>2025-11-21T22:31:58.000Z</time></trkpt>
        <trkpt lat="28.019201" lon="105.615466"><ele>1224.3</ele><time>2025-11-21T22:31:59.000Z</time></trkpt>
        <trkpt lat="28.0192" lon="105.615479"><ele>1224.3</ele><time>2025-11-21T22:32:00.000Z</time></trkpt>
        <trkpt lat="28.019199" lon="105.615492"><ele>1223.6</ele><time>2025-11-21T22:32:01.000Z</time></trkpt>
        <trkpt lat="28.019199" lon="105.615504"><ele>1223.6</ele><time>2025-11-21T22:32:02.000Z</time></trkpt>
        <trkpt lat="28.019199" lon="105.615516"><ele>1223.6</ele><time>2025-11-21T22:32:03.000Z</time></trkpt>
        <trkpt lat="28.0192" lon="105.615527"><ele>1223.6</ele><time>2025-11-21T22:32:04.000Z</time></trkpt>
        <trkpt lat="28.019201" lon="105.615538"><ele>1223.6</ele><time>2025-11-21T22:32:05.000Z</time></trkpt>
        <trkpt lat="28.019202" lon="105.615549"><ele>1222.6</ele><time>2025-11-21T22:32:06.000Z</time></trkpt>
        <trkpt lat="28.019203" lon="105.61556"><ele>1222.6</ele><time>2025-11-21T22:32:07.000Z</time></trkpt>
        <trkpt lat="28.019204" lon="105.615572"><ele>1222.6</ele><time>2025-11-21T22:32:08.000Z</time></trkpt>
        <trkpt lat="28.019204" lon="105.615584"><ele>1222.6</ele><time>2025-11-21T22:32:09.000Z</time></trkpt>
        <trkpt lat="28.019206" lon="105.615598"><ele>1222.6</ele><time>2025-11-21T22:32:10.000Z</time></trkpt>
        <trkpt lat="28.019207" lon="105.615612"><ele>1222.1</ele><time>2025-11-21T22:32:11.000Z</time></trkpt>
        <trkpt lat="28.019208" lon="105.615626"><ele>1222.1</ele><time>2025-11-21T22:32:12.000Z</time></trkpt>
        <trkpt lat="28.019207" lon="105.615641"><ele>1222.1</ele><time>2025-11-21T22:32:13.000Z</time></trkpt>
        <trkpt lat="28.019206" lon="105.615657"><ele>1222.1</ele><time>2025-11-21T22:32:14.000Z</time></trkpt>
        <trkpt lat="28.019204" lon="105.615671"><ele>1222.1</ele><time>2025-11-21T22:32:15.000Z</time></trkpt>
        <trkpt lat="28.019203" lon="105.615686"><ele>1221.4</ele><time>2025-11-21T22:32:16.000Z</time></trkpt>
        <trkpt lat="28.019201" lon="105.6157"><ele>1221.4</ele><time>2025-11-21T22:32:17.000Z</time></trkpt>
        <trkpt lat="28.019201" lon="105.615713"><ele>1221.4</ele><time>2025-11-21T22:32:18.000Z</time></trkpt>
        <trkpt lat="28.019201" lon="105.615727"><ele>1221.4</ele><time>2025-11-21T22:32:19.000Z</time></trkpt>
        <trkpt lat="28.0192" lon="105.615742"><ele>1221.4</ele><time>2025-11-21T22:32:20.000Z</time></trkpt>
        <trkpt lat="28.0192" lon="105.615757"><ele>1221</ele><time>2025-11-21T22:32:21.000Z</time></trkpt>
        <trkpt lat="28.019199" lon="105.615773"><ele>1221</ele><time>2025-11-21T22:32:22.000Z</time></trkpt>
        <trkpt lat="28.019198" lon="105.615788"><ele>1221</ele><time>2025-11-21T22:32:23.000Z</time></trkpt>
        <trkpt lat="28.019196" lon="105.615803"><ele>1221</ele><time>2025-11-21T22:32:24.000Z</time></trkpt>
        <trkpt lat="28.019195" lon="105.615816"><ele>1221</ele><time>2025-11-21T22:32:25.000Z</time></trkpt>
        <trkpt lat="28.019195" lon="105.61583"><ele>1220.4</ele><time>2025-11-21T22:32:26.000Z</time></trkpt>
        <trkpt lat="28.019194" lon="105.615844"><ele>1220.4</ele><time>2025-11-21T22:32:27.000Z</time></trkpt>
        <trkpt lat="28.019193" lon="105.615858"><ele>1220.4</ele><time>2025-11-21T22:32:28.000Z</time></trkpt>
        <trkpt lat="28.019192" lon="105.615873"><ele>1220.4</ele><time>2025-11-21T22:32:29.000Z</time></trkpt>
        <trkpt lat="28.01919" lon="105.615887"><ele>1220.4</ele><time>2025-11-21T22:32:30.000Z</time></trkpt>
        <trkpt lat="28.019187" lon="105.615901"><ele>1220.2</ele><time>2025-11-21T22:32:31.000Z</time></trkpt>
        <trkpt lat="28.019184" lon="105.615914"><ele>1220.2</ele><time>2025-11-21T22:32:32.000Z</time></trkpt>
        <trkpt lat="28.019181" lon="105.615926"><ele>1220.2</ele><time>2025-11-21T22:32:33.000Z</time></trkpt>
        <trkpt lat="28.019177" lon="105.615939"><ele>1220.2</ele><time>2025-11-21T22:32:34.000Z</time></trkpt>
        <trkpt lat="28.019173" lon="105.615951"><ele>1220.2</ele><time>2025-11-21T22:32:35.000Z</time></trkpt>
        <trkpt lat="28.019168" lon="105.615964"><ele>1219.7</ele><time>2025-11-21T22:32:36.000Z</time></trkpt>
        <trkpt lat="28.019163" lon="105.615976"><ele>1219.7</ele><time>2025-11-21T22:32:37.000Z</time></trkpt>
        <trkpt lat="28.019159" lon="105.61599"><ele>1219.7</ele><time>2025-11-21T22:32:38.000Z</time></trkpt>
        <trkpt lat="28.019154" lon="105.616003"><ele>1219.7</ele><time>2025-11-21T22:32:39.000Z</time></trkpt>
        <trkpt lat="28.01915" lon="105.616017"><ele>1219.7</ele><time>2025-11-21T22:32:40.000Z</time></trkpt>
        <trkpt lat="28.019147" lon="105.616031"><ele>1219.2</ele><time>2025-11-21T22:32:41.000Z</time></trkpt>
        <trkpt lat="28.019144" lon="105.616045"><ele>1219.2</ele><time>2025-11-21T22:32:42.000Z</time></trkpt>
        <trkpt lat="28.019141" lon="105.616059"><ele>1219.2</ele><time>2025-11-21T22:32:43.000Z</time></trkpt>
        <trkpt lat="28.019139" lon="105.616073"><ele>1219.2</ele><time>2025-11-21T22:32:44.000Z</time></trkpt>
        <trkpt lat="28.019137" lon="105.616086"><ele>1219.2</ele><time>2025-11-21T22:32:45.000Z</time></trkpt>
        <trkpt lat="28.019136" lon="105.6161"><ele>1218.5</ele><time>2025-11-21T22:32:46.000Z</time></trkpt>
        <trkpt lat="28.019135" lon="105.616113"><ele>1218.5</ele><time>2025-11-21T22:32:47.000Z</time></trkpt>
        <trkpt lat="28.019136" lon="105.616127"><ele>1218.5</ele><time>2025-11-21T22:32:48.000Z</time></trkpt>
        <trkpt lat="28.019136" lon="105.616139"><ele>1218.5</ele><time>2025-11-21T22:32:49.000Z</time></trkpt>
        <trkpt lat="28.019138" lon="105.616152"><ele>1218.5</ele><time>2025-11-21T22:32:50.000Z</time></trkpt>
        <trkpt lat="28.01914" lon="105.616165"><ele>1218</ele><time>2025-11-21T22:32:51.000Z</time></trkpt>
        <trkpt lat="28.019145" lon="105.616177"><ele>1218</ele><time>2025-11-21T22:32:52.000Z</time></trkpt>
        <trkpt lat="28.019152" lon="105.616189"><ele>1218</ele><time>2025-11-21T22:32:53.000Z</time></trkpt>
        <trkpt lat="28.01916" lon="105.616201"><ele>1218</ele><time>2025-11-21T22:32:54.000Z</time></trkpt>
        <trkpt lat="28.019171" lon="105.616213"><ele>1218</ele><time>2025-11-21T22:32:55.000Z</time></trkpt>
        <trkpt lat="28.019182" lon="105.616223"><ele>1217.2</ele><time>2025-11-21T22:32:56.000Z</time></trkpt>
        <trkpt lat="28.019194" lon="105.616232"><ele>1217.2</ele><time>2025-11-21T22:32:57.000Z</time></trkpt>
        <trkpt lat="28.019205" lon="105.61624"><ele>1217.2</ele><time>2025-11-21T22:32:58.000Z</time></trkpt>
        <trkpt lat="28.019217" lon="105.616247"><ele>1217.2</ele><time>2025-11-21T22:32:59.000Z</time></trkpt>
        <trkpt lat="28.019228" lon="105.616252"><ele>1217.2</ele><time>2025-11-21T22:33:00.000Z</time></trkpt>
        <trkpt lat="28.019239" lon="105.616258"><ele>1216.6</ele><time>2025-11-21T22:33:01.000Z</time></trkpt>
        <trkpt lat="28.01925" lon="105.616262"><ele>1216.6</ele><time>2025-11-21T22:33:02.000Z</time></trkpt>
        <trkpt lat="28.01926" lon="105.616267"><ele>1216.6</ele><time>2025-11-21T22:33:03.000Z</time></trkpt>
        <trkpt lat="28.01927" lon="105.616273"><ele>1216.6</ele><time>2025-11-21T22:33:04.000Z</time></trkpt>
        <trkpt lat="28.01928" lon="105.616279"><ele>1216.6</ele><time>2025-11-21T22:33:05.000Z</time></trkpt>
        <trkpt lat="28.019288" lon="105.616287"><ele>1215.8</ele><time>2025-11-21T22:33:06.000Z</time></trkpt>
        <trkpt lat="28.019296" lon="105.616296"><ele>1215.8</ele><time>2025-11-21T22:33:07.000Z</time></trkpt>
        <trkpt lat="28.019304" lon="105.616305"><ele>1215.8</ele><time>2025-11-21T22:33:08.000Z</time></trkpt>
        <trkpt lat="28.01931" lon="105.616316"><ele>1215.8</ele><time>2025-11-21T22:33:09.000Z</time></trkpt>
        <trkpt lat="28.019315" lon="105.616329"><ele>1215.8</ele><time>2025-11-21T22:33:10.000Z</time></trkpt>
        <trkpt lat="28.019319" lon="105.616341"><ele>1215.2</ele><time>2025-11-21T22:33:11.000Z</time></trkpt>
        <trkpt lat="28.019322" lon="105.616354"><ele>1215.2</ele><time>2025-11-21T22:33:12.000Z</time></trkpt>
        <trkpt lat="28.019326" lon="105.616368"><ele>1215.2</ele><time>2025-11-21T22:33:13.000Z</time></trkpt>
        <trkpt lat="28.019329" lon="105.616381"><ele>1215.2</ele><time>2025-11-21T22:33:14.000Z</time></trkpt>
        <trkpt lat="28.019332" lon="105.616393"><ele>1215.2</ele><time>2025-11-21T22:33:15.000Z</time></trkpt>
        <trkpt lat="28.019334" lon="105.616404"><ele>1214.5</ele><time>2025-11-21T22:33:16.000Z</time></trkpt>
        <trkpt lat="28.019336" lon="105.616416"><ele>1214.5</ele><time>2025-11-21T22:33:17.000Z</time></trkpt>
        <trkpt lat="28.019338" lon="105.616429"><ele>1214.5</ele><time>2025-11-21T22:33:18.000Z</time></trkpt>
        <trkpt lat="28.019339" lon="105.616442"><ele>1214.5</ele><time>2025-11-21T22:33:19.000Z</time></trkpt>
        <trkpt lat="28.019341" lon="105.616456"><ele>1214.5</ele><time>2025-11-21T22:33:20.000Z</time></trkpt>
        <trkpt lat="28.019342" lon="105.616471"><ele>1214.1</ele><time>2025-11-21T22:33:21.000Z</time></trkpt>
        <trkpt lat="28.019343" lon="105.616485"><ele>1214.1</ele><time>2025-11-21T22:33:22.000Z</time></trkpt>
        <trkpt lat="28.019344" lon="105.616498"><ele>1214.1</ele><time>2025-11-21T22:33:23.000Z</time></trkpt>
        <trkpt lat="28.019345" lon="105.616511"><ele>1214.1</ele><time>2025-11-21T22:33:24.000Z</time></trkpt>
        <trkpt lat="28.019346" lon="105.616524"><ele>1214.1</ele><time>2025-11-21T22:33:25.000Z</time></trkpt>
        <trkpt lat="28.019346" lon="105.616537"><ele>1213.3</ele><time>2025-11-21T22:33:26.000Z</time></trkpt>
        <trkpt lat="28.019346" lon="105.61655"><ele>1213.3</ele><time>2025-11-21T22:33:27.000Z</time></trkpt>
        <trkpt lat="28.019346" lon="105.616563"><ele>1213.3</ele><time>2025-11-21T22:33:28.000Z</time></trkpt>
        <trkpt lat="28.019347" lon="105.616576"><ele>1213.3</ele><time>2025-11-21T22:33:29.000Z</time></trkpt>
        <trkpt lat="28.019348" lon="105.616588"><ele>1213.3</ele><time>2025-11-21T22:33:30.000Z</time></trkpt>
        <trkpt lat="28.019348" lon="105.6166"><ele>1212.8</ele><time>2025-11-21T22:33:31.000Z</time></trkpt>
        <trkpt lat="28.019351" lon="105.616613"><ele>1212.8</ele><time>2025-11-21T22:33:32.000Z</time></trkpt>
        <trkpt lat="28.019353" lon="105.616625"><ele>1212.8</ele><time>2025-11-21T22:33:33.000Z</time></trkpt>
        <trkpt lat="28.019357" lon="105.616638"><ele>1212.8</ele><time>2025-11-21T22:33:34.000Z</time></trkpt>
        <trkpt lat="28.01936" lon="105.61665"><ele>1212.8</ele><time>2025-11-21T22:33:35.000Z</time></trkpt>
        <trkpt lat="28.019363" lon="105.616662"><ele>1212.1</ele><time>2025-11-21T22:33:36.000Z</time></trkpt>
        <trkpt lat="28.019366" lon="105.616673"><ele>1212.1</ele><time>2025-11-21T22:33:37.000Z</time></trkpt>
        <trkpt lat="28.019368" lon="105.616684"><ele>1212.1</ele><time>2025-11-21T22:33:38.000Z</time></trkpt>
        <trkpt lat="28.019371" lon="105.616696"><ele>1212.1</ele><time>2025-11-21T22:33:39.000Z</time></trkpt>
        <trkpt lat="28.019373" lon="105.616708"><ele>1212.1</ele><time>2025-11-21T22:33:40.000Z</time></trkpt>
        <trkpt lat="28.019375" lon="105.616721"><ele>1211.8</ele><time>2025-11-21T22:33:41.000Z</time></trkpt>
        <trkpt lat="28.019378" lon="105.616735"><ele>1211.8</ele><time>2025-11-21T22:33:42.000Z</time></trkpt>
        <trkpt lat="28.01938" lon="105.616749"><ele>1211.8</ele><time>2025-11-21T22:33:43.000Z</time></trkpt>
        <trkpt lat="28.019382" lon="105.616763"><ele>1211.8</ele><time>2025-11-21T22:33:44.000Z</time></trkpt>
        <trkpt lat="28.019385" lon="105.616777"><ele>1211.8</ele><time>2025-11-21T22:33:45.000Z</time></trkpt>
        <trkpt lat="28.019388" lon="105.616791"><ele>1211.3</ele><time>2025-11-21T22:33:46.000Z</time></trkpt>
        <trkpt lat="28.019392" lon="105.616806"><ele>1211.3</ele><time>2025-11-21T22:33:47.000Z</time></trkpt>
        <trkpt lat="28.019396" lon="105.616821"><ele>1211.3</ele><time>2025-11-21T22:33:48.000Z</time></trkpt>
        <trkpt lat="28.019399" lon="105.616836"><ele>1211.3</ele><time>2025-11-21T22:33:49.000Z</time></trkpt>
        <trkpt lat="28.019402" lon="105.61685"><ele>1211.3</ele><time>2025-11-21T22:33:50.000Z</time></trkpt>
        <trkpt lat="28.019405" lon="105.616864"><ele>1210.8</ele><time>2025-11-21T22:33:51.000Z</time></trkpt>
        <trkpt lat="28.019407" lon="105.616878"><ele>1210.8</ele><time>2025-11-21T22:33:52.000Z</time></trkpt>
        <trkpt lat="28.019409" lon="105.616892"><ele>1210.8</ele><time>2025-11-21T22:33:53.000Z</time></trkpt>
        <trkpt lat="28.019412" lon="105.616906"><ele>1210.8</ele><time>2025-11-21T22:33:54.000Z</time></trkpt>
        <trkpt lat="28.019414" lon="105.61692"><ele>1210.8</ele><time>2025-11-21T22:33:55.000Z</time></trkpt>
        <trkpt lat="28.019417" lon="105.616934"><ele>1210.6</ele><time>2025-11-21T22:33:56.000Z</time></trkpt>
        <trkpt lat="28.019419" lon="105.616948"><ele>1210.6</ele><time>2025-11-21T22:33:57.000Z</time></trkpt>
        <trkpt lat="28.019421" lon="105.616961"><ele>1210.6</ele><time>2025-11-21T22:33:58.000Z</time></trkpt>
        <trkpt lat="28.019422" lon="105.616974"><ele>1210.6</ele><time>2025-11-21T22:33:59.000Z</time></trkpt>
        <trkpt lat="28.019424" lon="105.616987"><ele>1210.6</ele><time>2025-11-21T22:34:00.000Z</time></trkpt>
        <trkpt lat="28.019425" lon="105.616999"><ele>1210</ele><time>2025-11-21T22:34:01.000Z</time></trkpt>
        <trkpt lat="28.019426" lon="105.617011"><ele>1210</ele><time>2025-11-21T22:34:02.000Z</time></trkpt>
        <trkpt lat="28.019427" lon="105.617023"><ele>1210</ele><time>2025-11-21T22:34:03.000Z</time></trkpt>
        <trkpt lat="28.019428" lon="105.617036"><ele>1210</ele><time>2025-11-21T22:34:04.000Z</time></trkpt>
        <trkpt lat="28.019429" lon="105.617048"><ele>1210</ele><time>2025-11-21T22:34:05.000Z</time></trkpt>
        <trkpt lat="28.019429" lon="105.617062"><ele>1209.4</ele><time>2025-11-21T22:34:06.000Z</time></trkpt>
        <trkpt lat="28.01943" lon="105.617075"><ele>1209.4</ele><time>2025-11-21T22:34:07.000Z</time></trkpt>
        <trkpt lat="28.019431" lon="105.617087"><ele>1209.4</ele><time>2025-11-21T22:34:08.000Z</time></trkpt>
        <trkpt lat="28.019433" lon="105.617099"><ele>1209.4</ele><time>2025-11-21T22:34:09.000Z</time></trkpt>
        <trkpt lat="28.019436" lon="105.61711"><ele>1209.4</ele><time>2025-11-21T22:34:10.000Z</time></trkpt>
        <trkpt lat="28.01944" lon="105.617121"><ele>1209.1</ele><time>2025-11-21T22:34:11.000Z</time></trkpt>
        <trkpt lat="28.019444" lon="105.617132"><ele>1209.1</ele><time>2025-11-21T22:34:12.000Z</time></trkpt>
        <trkpt lat="28.019447" lon="105.617142"><ele>1209.1</ele><time>2025-11-21T22:34:13.000Z</time></trkpt>
        <trkpt lat="28.01945" lon="105.617152"><ele>1209.1</ele><time>2025-11-21T22:34:14.000Z</time></trkpt>
        <trkpt lat="28.019452" lon="105.617162"><ele>1209.1</ele><time>2025-11-21T22:34:15.000Z</time></trkpt>
        <trkpt lat="28.019455" lon="105.617173"><ele>1208.9</ele><time>2025-11-21T22:34:16.000Z</time></trkpt>
        <trkpt lat="28.019457" lon="105.617185"><ele>1208.9</ele><time>2025-11-21T22:34:17.000Z</time></trkpt>
        <trkpt lat="28.019461" lon="105.617198"><ele>1208.9</ele><time>2025-11-21T22:34:18.000Z</time></trkpt>
        <trkpt lat="28.019466" lon="105.61721"><ele>1208.9</ele><time>2025-11-21T22:34:19.000Z</time></trkpt>
        <trkpt lat="28.019471" lon="105.617222"><ele>1208.9</ele><time>2025-11-21T22:34:20.000Z</time></trkpt>
        <trkpt lat="28.019476" lon="105.617235"><ele>1208.9</ele><time>2025-11-21T22:34:21.000Z</time></trkpt>
        <trkpt lat="28.019481" lon="105.617248"><ele>1208.9</ele><time>2025-11-21T22:34:22.000Z</time></trkpt>
        <trkpt lat="28.019486" lon="105.617259"><ele>1208.9</ele><time>2025-11-21T22:34:23.000Z</time></trkpt>
        <trkpt lat="28.019491" lon="105.617271"><ele>1208.9</ele><time>2025-11-21T22:34:24.000Z</time></trkpt>
        <trkpt lat="28.019496" lon="105.617284"><ele>1208.9</ele><time>2025-11-21T22:34:25.000Z</time></trkpt>
        <trkpt lat="28.0195" lon="105.617296"><ele>1208.7</ele><time>2025-11-21T22:34:26.000Z</time></trkpt>
        <trkpt lat="28.019504" lon="105.617309"><ele>1208.7</ele><time>2025-11-21T22:34:27.000Z</time></trkpt>
        <trkpt lat="28.019508" lon="105.617322"><ele>1208.7</ele><time>2025-11-21T22:34:28.000Z</time></trkpt>
        <trkpt lat="28.019511" lon="105.617335"><ele>1208.7</ele><time>2025-11-21T22:34:29.000Z</time></trkpt>
        <trkpt lat="28.019514" lon="105.617348"><ele>1208.7</ele><time>2025-11-21T22:34:30.000Z</time></trkpt>
        <trkpt lat="28.019518" lon="105.617361"><ele>1208.7</ele><time>2025-11-21T22:34:31.000Z</time></trkpt>
        <trkpt lat="28.019522" lon="105.617374"><ele>1208.7</ele><time>2025-11-21T22:34:32.000Z</time></trkpt>
        <trkpt lat="28.019527" lon="105.617386"><ele>1208.7</ele><time>2025-11-21T22:34:33.000Z</time></trkpt>
        <trkpt lat="28.019532" lon="105.617398"><ele>1208.7</ele><time>2025-11-21T22:34:34.000Z</time></trkpt>
        <trkpt lat="28.019537" lon="105.617409"><ele>1208.7</ele><time>2025-11-21T22:34:35.000Z</time></trkpt>
        <trkpt lat="28.019542" lon="105.61742"><ele>1208.7</ele><time>2025-11-21T22:34:36.000Z</time></trkpt>
        <trkpt lat="28.019547" lon="105.61743"><ele>1208.7</ele><time>2025-11-21T22:34:37.000Z</time></trkpt>
        <trkpt lat="28.019554" lon="105.617439"><ele>1208.7</ele><time>2025-11-21T22:34:38.000Z</time></trkpt>
        <trkpt lat="28.019561" lon="105.617449"><ele>1208.7</ele><time>2025-11-21T22:34:39.000Z</time></trkpt>
        <trkpt lat="28.01957" lon="105.617459"><ele>1208.7</ele><time>2025-11-21T22:34:40.000Z</time></trkpt>
        <trkpt lat="28.019579" lon="105.61747"><ele>1208.7</ele><time>2025-11-21T22:34:41.000Z</time></trkpt>
        <trkpt lat="28.019588" lon="105.617481"><ele>1208.7</ele><time>2025-11-21T22:34:42.000Z</time></trkpt>
        <trkpt lat="28.019597" lon="105.617491"><ele>1208.7</ele><time>2025-11-21T22:34:43.000Z</time></trkpt>
        <trkpt lat="28.019605" lon="105.617501"><ele>1208.7</ele><time>2025-11-21T22:34:44.000Z</time></trkpt>
        <trkpt lat="28.019613" lon="105.61751"><ele>1208.7</ele><time>2025-11-21T22:34:45.000Z</time></trkpt>
        <trkpt lat="28.019621" lon="105.617519"><ele>1208.7</ele><time>2025-11-21T22:34:46.000Z</time></trkpt>
        <trkpt lat="28.019628" lon="105.61753"><ele>1208.7</ele><time>2025-11-21T22:34:47.000Z</time></trkpt>
        <trkpt lat="28.019635" lon="105.61754"><ele>1208.7</ele><time>2025-11-21T22:34:48.000Z</time></trkpt>
        <trkpt lat="28.019641" lon="105.617551"><ele>1208.7</ele><time>2025-11-21T22:34:49.000Z</time></trkpt>
        <trkpt lat="28.019647" lon="105.617563"><ele>1208.7</ele><time>2025-11-21T22:34:50.000Z</time></trkpt>
        <trkpt lat="28.019653" lon="105.617574"><ele>1208.7</ele><time>2025-11-21T22:34:51.000Z</time></trkpt>
        <trkpt lat="28.019658" lon="105.617584"><ele>1208.7</ele><time>2025-11-21T22:34:52.000Z</time></trkpt>
        <trkpt lat="28.019664" lon="105.617594"><ele>1208.7</ele><time>2025-11-21T22:34:53.000Z</time></trkpt>
        <trkpt lat="28.01967" lon="105.617603"><ele>1208.7</ele><time>2025-11-21T22:34:54.000Z</time></trkpt>
        <trkpt lat="28.019675" lon="105.617613"><ele>1208.7</ele><time>2025-11-21T22:34:55.000Z</time></trkpt>
        <trkpt lat="28.01968" lon="105.617624"><ele>1208.7</ele><time>2025-11-21T22:34:56.000Z</time></trkpt>
        <trkpt lat="28.019684" lon="105.617636"><ele>1208.7</ele><time>2025-11-21T22:34:57.000Z</time></trkpt>
        <trkpt lat="28.019687" lon="105.617648"><ele>1208.7</ele><time>2025-11-21T22:34:58.000Z</time></trkpt>
        <trkpt lat="28.019688" lon="105.617661"><ele>1208.7</ele><time>2025-11-21T22:34:59.000Z</time></trkpt>
        <trkpt lat="28.019687" lon="105.617674"><ele>1208.7</ele><time>2025-11-21T22:35:00.000Z</time></trkpt>
        <trkpt lat="28.019684" lon="105.617688"><ele>1208.2</ele><time>2025-11-21T22:35:01.000Z</time></trkpt>
        <trkpt lat="28.01968" lon="105.617701"><ele>1208.2</ele><time>2025-11-21T22:35:02.000Z</time></trkpt>
        <trkpt lat="28.019674" lon="105.617715"><ele>1208.2</ele><time>2025-11-21T22:35:03.000Z</time></trkpt>
        <trkpt lat="28.019668" lon="105.617728"><ele>1208.2</ele><time>2025-11-21T22:35:04.000Z</time></trkpt>
        <trkpt lat="28.019663" lon="105.617741"><ele>1208.2</ele><time>2025-11-21T22:35:05.000Z</time></trkpt>
        <trkpt lat="28.019657" lon="105.617751"><ele>1207.7</ele><time>2025-11-21T22:35:06.000Z</time></trkpt>
        <trkpt lat="28.019651" lon="105.617761"><ele>1207.7</ele><time>2025-11-21T22:35:07.000Z</time></trkpt>
        <trkpt lat="28.019644" lon="105.617768"><ele>1207.7</ele><time>2025-11-21T22:35:08.000Z</time></trkpt>
        <trkpt lat="28.019636" lon="105.617775"><ele>1207.7</ele><time>2025-11-21T22:35:09.000Z</time></trkpt>
        <trkpt lat="28.019627" lon="105.617781"><ele>1207.7</ele><time>2025-11-21T22:35:10.000Z</time></trkpt>
        <trkpt lat="28.019617" lon="105.617786"><ele>1207.1</ele><time>2025-11-21T22:35:11.000Z</time></trkpt>
        <trkpt lat="28.019608" lon="105.617791"><ele>1207.1</ele><time>2025-11-21T22:35:12.000Z</time></trkpt>
        <trkpt lat="28.019599" lon="105.617796"><ele>1207.1</ele><time>2025-11-21T22:35:13.000Z</time></trkpt>
        <trkpt lat="28.01959" lon="105.6178"><ele>1207.1</ele><time>2025-11-21T22:35:14.000Z</time></trkpt>
        <trkpt lat="28.019581" lon="105.617803"><ele>1207.1</ele><time>2025-11-21T22:35:15.000Z</time></trkpt>
        <trkpt lat="28.019572" lon="105.617803"><ele>1206.2</ele><time>2025-11-21T22:35:16.000Z</time></trkpt>
        <trkpt lat="28.019562" lon="105.617803"><ele>1206.2</ele><time>2025-11-21T22:35:17.000Z</time></trkpt>
        <trkpt lat="28.019552" lon="105.617801"><ele>1206.2</ele><time>2025-11-21T22:35:18.000Z</time></trkpt>
        <trkpt lat="28.019542" lon="105.6178"><ele>1206.2</ele><time>2025-11-21T22:35:19.000Z</time></trkpt>
        <trkpt lat="28.019531" lon="105.617798"><ele>1206.2</ele><time>2025-11-21T22:35:20.000Z</time></trkpt>
        <trkpt lat="28.019521" lon="105.617796"><ele>1205.6</ele><time>2025-11-21T22:35:21.000Z</time></trkpt>
        <trkpt lat="28.019511" lon="105.617795"><ele>1205.6</ele><time>2025-11-21T22:35:22.000Z</time></trkpt>
        <trkpt lat="28.019499" lon="105.617793"><ele>1205.6</ele><time>2025-11-21T22:35:23.000Z</time></trkpt>
        <trkpt lat="28.019488" lon="105.617791"><ele>1205.6</ele><time>2025-11-21T22:35:24.000Z</time></trkpt>
        <trkpt lat="28.019477" lon="105.61779"><ele>1205.6</ele><time>2025-11-21T22:35:25.000Z</time></trkpt>
        <trkpt lat="28.019465" lon="105.617791"><ele>1204.8</ele><time>2025-11-21T22:35:26.000Z</time></trkpt>
        <trkpt lat="28.019453" lon="105.617792"><ele>1204.8</ele><time>2025-11-21T22:35:27.000Z</time></trkpt>
        <trkpt lat="28.019442" lon="105.617792"><ele>1204.8</ele><time>2025-11-21T22:35:28.000Z</time></trkpt>
        <trkpt lat="28.019431" lon="105.617792"><ele>1204.8</ele><time>2025-11-21T22:35:29.000Z</time></trkpt>
        <trkpt lat="28.01942" lon="105.617792"><ele>1204.8</ele><time>2025-11-21T22:35:30.000Z</time></trkpt>
        <trkpt lat="28.019407" lon="105.617794"><ele>1204.3</ele><time>2025-11-21T22:35:31.000Z</time></trkpt>
        <trkpt lat="28.019395" lon="105.617795"><ele>1204.3</ele><time>2025-11-21T22:35:32.000Z</time></trkpt>
        <trkpt lat="28.019382" lon="105.617798"><ele>1204.3</ele><time>2025-11-21T22:35:33.000Z</time></trkpt>
        <trkpt lat="28.019369" lon="105.617801"><ele>1204.3</ele><time>2025-11-21T22:35:34.000Z</time></trkpt>
        <trkpt lat="28.019355" lon="105.617805"><ele>1204.3</ele><time>2025-11-21T22:35:35.000Z</time></trkpt>
        <trkpt lat="28.019341" lon="105.617807"><ele>1203.6</ele><time>2025-11-21T22:35:36.000Z</time></trkpt>
        <trkpt lat="28.019326" lon="105.617809"><ele>1203.6</ele><time>2025-11-21T22:35:37.000Z</time></trkpt>
        <trkpt lat="28.019312" lon="105.617811"><ele>1203.6</ele><time>2025-11-21T22:35:38.000Z</time></trkpt>
        <trkpt lat="28.019299" lon="105.617814"><ele>1203.6</ele><time>2025-11-21T22:35:39.000Z</time></trkpt>
        <trkpt lat="28.019285" lon="105.617817"><ele>1203.6</ele><time>2025-11-21T22:35:40.000Z</time></trkpt>
        <trkpt lat="28.019273" lon="105.617821"><ele>1203.2</ele><time>2025-11-21T22:35:41.000Z</time></trkpt>
        <trkpt lat="28.019261" lon="105.617825"><ele>1203.2</ele><time>2025-11-21T22:35:42.000Z</time></trkpt>
        <trkpt lat="28.019249" lon="105.617829"><ele>1203.2</ele><time>2025-11-21T22:35:43.000Z</time></trkpt>
        <trkpt lat="28.019238" lon="105.617833"><ele>1203.2</ele><time>2025-11-21T22:35:44.000Z</time></trkpt>
        <trkpt lat="28.019228" lon="105.617838"><ele>1203.2</ele><time>2025-11-21T22:35:45.000Z</time></trkpt>
        <trkpt lat="28.019218" lon="105.617843"><ele>1202.9</ele><time>2025-11-21T22:35:46.000Z</time></trkpt>
        <trkpt lat="28.019209" lon="105.617848"><ele>1202.9</ele><time>2025-11-21T22:35:47.000Z</time></trkpt>
        <trkpt lat="28.019199" lon="105.617853"><ele>1202.9</ele><time>2025-11-21T22:35:48.000Z</time></trkpt>
        <trkpt lat="28.019189" lon="105.617858"><ele>1202.9</ele><time>2025-11-21T22:35:49.000Z</time></trkpt>
        <trkpt lat="28.019178" lon="105.617863"><ele>1202.9</ele><time>2025-11-21T22:35:50.000Z</time></trkpt>
        <trkpt lat="28.019167" lon="105.617867"><ele>1202.7</ele><time>2025-11-21T22:35:51.000Z</time></trkpt>
        <trkpt lat="28.019157" lon="105.617872"><ele>1202.7</ele><time>2025-11-21T22:35:52.000Z</time></trkpt>
        <trkpt lat="28.019146" lon="105.617876"><ele>1202.7</ele><time>2025-11-21T22:35:53.000Z</time></trkpt>
        <trkpt lat="28.019135" lon="105.617881"><ele>1202.7</ele><time>2025-11-21T22:35:54.000Z</time></trkpt>
        <trkpt lat="28.019124" lon="105.617887"><ele>1202.7</ele><time>2025-11-21T22:35:55.000Z</time></trkpt>
        <trkpt lat="28.019113" lon="105.617893"><ele>1202.5</ele><time>2025-11-21T22:35:56.000Z</time></trkpt>
        <trkpt lat="28.019102" lon="105.6179"><ele>1202.5</ele><time>2025-11-21T22:35:57.000Z</time></trkpt>
        <trkpt lat="28.019092" lon="105.617908"><ele>1202.5</ele><time>2025-11-21T22:35:58.000Z</time></trkpt>
        <trkpt lat="28.019082" lon="105.617915"><ele>1202.5</ele><time>2025-11-21T22:35:59.000Z</time></trkpt>
        <trkpt lat="28.019074" lon="105.617922"><ele>1202.5</ele><time>2025-11-21T22:36:00.000Z</time></trkpt>
        <trkpt lat="28.019066" lon="105.61793"><ele>1202.2</ele><time>2025-11-21T22:36:01.000Z</time></trkpt>
        <trkpt lat="28.019058" lon="105.617938"><ele>1202.2</ele><time>2025-11-21T22:36:02.000Z</time></trkpt>
        <trkpt lat="28.01905" lon="105.617946"><ele>1202.2</ele><time>2025-11-21T22:36:03.000Z</time></trkpt>
        <trkpt lat="28.019042" lon="105.617953"><ele>1202.2</ele><time>2025-11-21T22:36:04.000Z</time></trkpt>
        <trkpt lat="28.019034" lon="105.617961"><ele>1202.2</ele><time>2025-11-21T22:36:05.000Z</time></trkpt>
        <trkpt lat="28.019026" lon="105.617968"><ele>1201.7</ele><time>2025-11-21T22:36:06.000Z</time></trkpt>
        <trkpt lat="28.019018" lon="105.617975"><ele>1201.7</ele><time>2025-11-21T22:36:07.000Z</time></trkpt>
        <trkpt lat="28.019009" lon="105.617981"><ele>1201.7</ele><time>2025-11-21T22:36:08.000Z</time></trkpt>
        <trkpt lat="28.018999" lon="105.617988"><ele>1201.7</ele><time>2025-11-21T22:36:09.000Z</time></trkpt>
        <trkpt lat="28.01899" lon="105.617995"><ele>1201.7</ele><time>2025-11-21T22:36:10.000Z</time></trkpt>
        <trkpt lat="28.018979" lon="105.618"><ele>1200.9</ele><time>2025-11-21T22:36:11.000Z</time></trkpt>
        <trkpt lat="28.018968" lon="105.618004"><ele>1200.9</ele><time>2025-11-21T22:36:12.000Z</time></trkpt>
        <trkpt lat="28.018957" lon="105.618008"><ele>1200.9</ele><time>2025-11-21T22:36:13.000Z</time></trkpt>
        <trkpt lat="28.018945" lon="105.61801"><ele>1200.9</ele><time>2025-11-21T22:36:14.000Z</time></trkpt>
        <trkpt lat="28.018934" lon="105.618011"><ele>1200.9</ele><time>2025-11-21T22:36:15.000Z</time></trkpt>
        <trkpt lat="28.018921" lon="105.61801"><ele>1200.4</ele><time>2025-11-21T22:36:16.000Z</time></trkpt>
        <trkpt lat="28.018909" lon="105.618009"><ele>1200.4</ele><time>2025-11-21T22:36:17.000Z</time></trkpt>
        <trkpt lat="28.018895" lon="105.618008"><ele>1200.4</ele><time>2025-11-21T22:36:18.000Z</time></trkpt>
        <trkpt lat="28.018882" lon="105.618006"><ele>1200.4</ele><time>2025-11-21T22:36:19.000Z</time></trkpt>
        <trkpt lat="28.018868" lon="105.618006"><ele>1200.4</ele><time>2025-11-21T22:36:20.000Z</time></trkpt>
        <trkpt lat="28.018855" lon="105.618007"><ele>1199.4</ele><time>2025-11-21T22:36:21.000Z</time></trkpt>
        <trkpt lat="28.018843" lon="105.618009"><ele>1199.4</ele><time>2025-11-21T22:36:22.000Z</time></trkpt>
        <trkpt lat="28.018832" lon="105.618014"><ele>1199.4</ele><time>2025-11-21T22:36:23.000Z</time></trkpt>
        <trkpt lat="28.018821" lon="105.618022"><ele>1199.4</ele><time>2025-11-21T22:36:24.000Z</time></trkpt>
        <trkpt lat="28.018811" lon="105.618031"><ele>1199.4</ele><time>2025-11-21T22:36:25.000Z</time></trkpt>
        <trkpt lat="28.018802" lon="105.618042"><ele>1198.9</ele><time>2025-11-21T22:36:26.000Z</time></trkpt>
        <trkpt lat="28.018795" lon="105.618054"><ele>1198.9</ele><time>2025-11-21T22:36:27.000Z</time></trkpt>
        <trkpt lat="28.01879" lon="105.618066"><ele>1198.9</ele><time>2025-11-21T22:36:28.000Z</time></trkpt>
        <trkpt lat="28.018788" lon="105.618078"><ele>1198.9</ele><time>2025-11-21T22:36:29.000Z</time></trkpt>
        <trkpt lat="28.018788" lon="105.618091"><ele>1198.9</ele><time>2025-11-21T22:36:30.000Z</time></trkpt>
        <trkpt lat="28.01879" lon="105.618102"><ele>1198.6</ele><time>2025-11-21T22:36:31.000Z</time></trkpt>
        <trkpt lat="28.018794" lon="105.618114"><ele>1198.6</ele><time>2025-11-21T22:36:32.000Z</time></trkpt>
        <trkpt lat="28.018799" lon="105.618126"><ele>1198.6</ele><time>2025-11-21T22:36:33.000Z</time></trkpt>
        <trkpt lat="28.018805" lon="105.618138"><ele>1198.6</ele><time>2025-11-21T22:36:34.000Z</time></trkpt>
        <trkpt lat="28.01881" lon="105.618149"><ele>1198.6</ele><time>2025-11-21T22:36:35.000Z</time></trkpt>
        <trkpt lat="28.018817" lon="105.61816"><ele>1198.6</ele><time>2025-11-21T22:36:36.000Z</time></trkpt>
        <trkpt lat="28.018823" lon="105.61817"><ele>1198.6</ele><time>2025-11-21T22:36:37.000Z</time></trkpt>
        <trkpt lat="28.018829" lon="105.61818"><ele>1198.6</ele><time>2025-11-21T22:36:38.000Z</time></trkpt>
        <trkpt lat="28.018837" lon="105.61819"><ele>1198.6</ele><time>2025-11-21T22:36:39.000Z</time></trkpt>
        <trkpt lat="28.018846" lon="105.6182"><ele>1198.6</ele><time>2025-11-21T22:36:40.000Z</time></trkpt>
        <trkpt lat="28.018854" lon="105.618209"><ele>1198.6</ele><time>2025-11-21T22:36:41.000Z</time></trkpt>
        <trkpt lat="28.018862" lon="105.618218"><ele>1198.6</ele><time>2025-11-21T22:36:42.000Z</time></trkpt>
        <trkpt lat="28.01887" lon="105.618227"><ele>1198.6</ele><time>2025-11-21T22:36:43.000Z</time></trkpt>
        <trkpt lat="28.018877" lon="105.618236"><ele>1198.6</ele><time>2025-11-21T22:36:44.000Z</time></trkpt>
        <trkpt lat="28.018882" lon="105.618245"><ele>1198.6</ele><time>2025-11-21T22:36:45.000Z</time></trkpt>
        <trkpt lat="28.018889" lon="105.618254"><ele>1198.6</ele><time>2025-11-21T22:36:46.000Z</time></trkpt>
        <trkpt lat="28.018897" lon="105.618264"><ele>1198.6</ele><time>2025-11-21T22:36:47.000Z</time></trkpt>
        <trkpt lat="28.018905" lon="105.618275"><ele>1198.6</ele><time>2025-11-21T22:36:48.000Z</time></trkpt>
        <trkpt lat="28.018913" lon="105.618284"><ele>1198.6</ele><time>2025-11-21T22:36:49.000Z</time></trkpt>
        <trkpt lat="28.018923" lon="105.618293"><ele>1198.6</ele><time>2025-11-21T22:36:50.000Z</time></trkpt>
        <trkpt lat="28.018933" lon="105.618302"><ele>1198.6</ele><time>2025-11-21T22:36:51.000Z</time></trkpt>
        <trkpt lat="28.018942" lon="105.61831"><ele>1198.6</ele><time>2025-11-21T22:36:52.000Z</time></trkpt>
        <trkpt lat="28.018953" lon="105.618316"><ele>1198.6</ele><time>2025-11-21T22:36:53.000Z</time></trkpt>
        <trkpt lat="28.018963" lon="105.618322"><ele>1198.6</ele><time>2025-11-21T22:36:54.000Z</time></trkpt>
        <trkpt lat="28.018974" lon="105.618327"><ele>1198.6</ele><time>2025-11-21T22:36:55.000Z</time></trkpt>
        <trkpt lat="28.018985" lon="105.618331"><ele>1198.6</ele><time>2025-11-21T22:36:56.000Z</time></trkpt>
        <trkpt lat="28.018996" lon="105.618335"><ele>1198.6</ele><time>2025-11-21T22:36:57.000Z</time></trkpt>
        <trkpt lat="28.019007" lon="105.618339"><ele>1198.6</ele><time>2025-11-21T22:36:58.000Z</time></trkpt>
        <trkpt lat="28.019019" lon="105.618344"><ele>1198.6</ele><time>2025-11-21T22:36:59.000Z</time></trkpt>
        <trkpt lat="28.01903" lon="105.618348"><ele>1198.6</ele><time>2025-11-21T22:37:00.000Z</time></trkpt>
        <trkpt lat="28.019041" lon="105.618351"><ele>1198.6</ele><time>2025-11-21T22:37:01.000Z</time></trkpt>
        <trkpt lat="28.019052" lon="105.618353"><ele>1198.6</ele><time>2025-11-21T22:37:02.000Z</time></trkpt>
        <trkpt lat="28.019063" lon="105.618355"><ele>1198.6</ele><time>2025-11-21T22:37:03.000Z</time></trkpt>
        <trkpt lat="28.019075" lon="105.618357"><ele>1198.6</ele><time>2025-11-21T22:37:04.000Z</time></trkpt>
        <trkpt lat="28.019086" lon="105.618358"><ele>1198.6</ele><time>2025-11-21T22:37:05.000Z</time></trkpt>
        <trkpt lat="28.019098" lon="105.61836"><ele>1198.6</ele><time>2025-11-21T22:37:06.000Z</time></trkpt>
        <trkpt lat="28.01911" lon="105.618363"><ele>1198.6</ele><time>2025-11-21T22:37:07.000Z</time></trkpt>
        <trkpt lat="28.019121" lon="105.618367"><ele>1198.6</ele><time>2025-11-21T22:37:08.000Z</time></trkpt>
        <trkpt lat="28.019133" lon="105.618372"><ele>1198.6</ele><time>2025-11-21T22:37:09.000Z</time></trkpt>
        <trkpt lat="28.019145" lon="105.618378"><ele>1198.6</ele><time>2025-11-21T22:37:10.000Z</time></trkpt>
        <trkpt lat="28.019157" lon="105.618386"><ele>1198.6</ele><time>2025-11-21T22:37:11.000Z</time></trkpt>
        <trkpt lat="28.019168" lon="105.618395"><ele>1198.6</ele><time>2025-11-21T22:37:12.000Z</time></trkpt>
        <trkpt lat="28.019178" lon="105.618404"><ele>1198.6</ele><time>2025-11-21T22:37:13.000Z</time></trkpt>
        <trkpt lat="28.019186" lon="105.618415"><ele>1198.6</ele><time>2025-11-21T22:37:14.000Z</time></trkpt>
        <trkpt lat="28.019193" lon="105.618425"><ele>1198.6</ele><time>2025-11-21T22:37:15.000Z</time></trkpt>
        <trkpt lat="28.0192" lon="105.618436"><ele>1198.6</ele><time>2025-11-21T22:37:16.000Z</time></trkpt>
        <trkpt lat="28.019205" lon="105.618446"><ele>1198.6</ele><time>2025-11-21T22:37:17.000Z</time></trkpt>
        <trkpt lat="28.01921" lon="105.618456"><ele>1198.6</ele><time>2025-11-21T22:37:18.000Z</time></trkpt>
        <trkpt lat="28.019215" lon="105.618466"><ele>1198.6</ele><time>2025-11-21T22:37:19.000Z</time></trkpt>
        <trkpt lat="28.019219" lon="105.618477"><ele>1198.6</ele><time>2025-11-21T22:37:20.000Z</time></trkpt>
        <trkpt lat="28.019223" lon="105.618488"><ele>1198.6</ele><time>2025-11-21T22:37:21.000Z</time></trkpt>
        <trkpt lat="28.019225" lon="105.6185"><ele>1198.6</ele><time>2025-11-21T22:37:22.000Z</time></trkpt>
        <trkpt lat="28.019227" lon="105.618511"><ele>1198.6</ele><time>2025-11-21T22:37:23.000Z</time></trkpt>
        <trkpt lat="28.019229" lon="105.618522"><ele>1198.6</ele><time>2025-11-21T22:37:24.000Z</time></trkpt>
        <trkpt lat="28.019232" lon="105.618534"><ele>1198.6</ele><time>2025-11-21T22:37:25.000Z</time></trkpt>
        <trkpt lat="28.019235" lon="105.618545"><ele>1199</ele><time>2025-11-21T22:37:26.000Z</time></trkpt>
        <trkpt lat="28.019237" lon="105.618557"><ele>1199</ele><time>2025-11-21T22:37:27.000Z</time></trkpt>
        <trkpt lat="28.01924" lon="105.61857"><ele>1199</ele><time>2025-11-21T22:37:28.000Z</time></trkpt>
        <trkpt lat="28.019242" lon="105.618582"><ele>1199</ele><time>2025-11-21T22:37:29.000Z</time></trkpt>
        <trkpt lat="28.019244" lon="105.618594"><ele>1199</ele><time>2025-11-21T22:37:30.000Z</time></trkpt>
        <trkpt lat="28.019245" lon="105.618607"><ele>1199.9</ele><time>2025-11-21T22:37:31.000Z</time></trkpt>
        <trkpt lat="28.019247" lon="105.61862"><ele>1199.9</ele><time>2025-11-21T22:37:32.000Z</time></trkpt>
        <trkpt lat="28.019249" lon="105.618632"><ele>1199.9</ele><time>2025-11-21T22:37:33.000Z</time></trkpt>
        <trkpt lat="28.019251" lon="105.618644"><ele>1199.9</ele><time>2025-11-21T22:37:34.000Z</time></trkpt>
        <trkpt lat="28.019254" lon="105.618656"><ele>1199.9</ele><time>2025-11-21T22:37:35.000Z</time></trkpt>
        <trkpt lat="28.019258" lon="105.618668"><ele>1200.9</ele><time>2025-11-21T22:37:36.000Z</time></trkpt>
        <trkpt lat="28.019261" lon="105.618679"><ele>1200.9</ele><time>2025-11-21T22:37:37.000Z</time></trkpt>
        <trkpt lat="28.019264" lon="105.61869"><ele>1200.9</ele><time>2025-11-21T22:37:38.000Z</time></trkpt>
        <trkpt lat="28.019267" lon="105.618701"><ele>1200.9</ele><time>2025-11-21T22:37:39.000Z</time></trkpt>
        <trkpt lat="28.01927" lon="105.618711"><ele>1200.9</ele><time>2025-11-21T22:37:40.000Z</time></trkpt>
        <trkpt lat="28.019272" lon="105.618722"><ele>1201.7</ele><time>2025-11-21T22:37:41.000Z</time></trkpt>
        <trkpt lat="28.019274" lon="105.618734"><ele>1201.7</ele><time>2025-11-21T22:37:42.000Z</time></trkpt>
        <trkpt lat="28.019275" lon="105.618746"><ele>1201.7</ele><time>2025-11-21T22:37:43.000Z</time></trkpt>
        <trkpt lat="28.019276" lon="105.618758"><ele>1201.7</ele><time>2025-11-21T22:37:44.000Z</time></trkpt>
        <trkpt lat="28.019276" lon="105.618771"><ele>1201.7</ele><time>2025-11-21T22:37:45.000Z</time></trkpt>
        <trkpt lat="28.019275" lon="105.618785"><ele>1202.8</ele><time>2025-11-21T22:37:46.000Z</time></trkpt>
        <trkpt lat="28.019274" lon="105.618798"><ele>1202.8</ele><time>2025-11-21T22:37:47.000Z</time></trkpt>
        <trkpt lat="28.019274" lon="105.618811"><ele>1202.8</ele><time>2025-11-21T22:37:48.000Z</time></trkpt>
        <trkpt lat="28.019276" lon="105.618824"><ele>1202.8</ele><time>2025-11-21T22:37:49.000Z</time></trkpt>
        <trkpt lat="28.019279" lon="105.618836"><ele>1202.8</ele><time>2025-11-21T22:37:50.000Z</time></trkpt>
        <trkpt lat="28.019284" lon="105.618847"><ele>1203.4</ele><time>2025-11-21T22:37:51.000Z</time></trkpt>
        <trkpt lat="28.01929" lon="105.618858"><ele>1203.4</ele><time>2025-11-21T22:37:52.000Z</time></trkpt>
        <trkpt lat="28.019296" lon="105.61887"><ele>1203.4</ele><time>2025-11-21T22:37:53.000Z</time></trkpt>
        <trkpt lat="28.019302" lon="105.618882"><ele>1203.4</ele><time>2025-11-21T22:37:54.000Z</time></trkpt>
        <trkpt lat="28.019307" lon="105.618894"><ele>1203.4</ele><time>2025-11-21T22:37:55.000Z</time></trkpt>
        <trkpt lat="28.019313" lon="105.618907"><ele>1203.9</ele><time>2025-11-21T22:37:56.000Z</time></trkpt>
        <trkpt lat="28.019319" lon="105.61892"><ele>1203.9</ele><time>2025-11-21T22:37:57.000Z</time></trkpt>
        <trkpt lat="28.019323" lon="105.618931"><ele>1203.9</ele><time>2025-11-21T22:37:58.000Z</time></trkpt>
        <trkpt lat="28.019328" lon="105.618942"><ele>1203.9</ele><time>2025-11-21T22:37:59.000Z</time></trkpt>
        <trkpt lat="28.01933" lon="105.61895"><ele>1203.9</ele><time>2025-11-21T22:38:00.000Z</time></trkpt>
        <trkpt lat="28.019331" lon="105.618956"><ele>1204.1</ele><time>2025-11-21T22:38:01.000Z</time></trkpt>
        <trkpt lat="28.019332" lon="105.61896"><ele>1204.1</ele><time>2025-11-21T22:38:02.000Z</time></trkpt>
        <trkpt lat="28.019333" lon="105.618962"><ele>1204.1</ele><time>2025-11-21T22:38:03.000Z</time></trkpt>
        <trkpt lat="28.019334" lon="105.618961"><ele>1204.1</ele><time>2025-11-21T22:38:04.000Z</time></trkpt>
        <trkpt lat="28.019335" lon="105.61896"><ele>1204.1</ele><time>2025-11-21T22:38:05.000Z</time></trkpt>
        <trkpt lat="28.019335" lon="105.61896"><ele>1204.4</ele><time>2025-11-21T22:38:06.000Z</time></trkpt>
        <trkpt lat="28.019336" lon="105.61896"><ele>1204.4</ele><time>2025-11-21T22:38:07.000Z</time></trkpt>
        <trkpt lat="28.019337" lon="105.618961"><ele>1204.4</ele><time>2025-11-21T22:38:08.000Z</time></trkpt>
        <trkpt lat="28.019338" lon="105.618965"><ele>1204.4</ele><time>2025-11-21T22:38:09.000Z</time></trkpt>
        <trkpt lat="28.01934" lon="105.618971"><ele>1204.4</ele><time>2025-11-21T22:38:10.000Z</time></trkpt>
        <trkpt lat="28.019341" lon="105.618981"><ele>1204.4</ele><time>2025-11-21T22:38:11.000Z</time></trkpt>
        <trkpt lat="28.019344" lon="105.618992"><ele>1204.4</ele><time>2025-11-21T22:38:12.000Z</time></trkpt>
        <trkpt lat="28.019345" lon="105.619003"><ele>1204.4</ele><time>2025-11-21T22:38:13.000Z</time></trkpt>
        <trkpt lat="28.019345" lon="105.619014"><ele>1204.4</ele><time>2025-11-21T22:38:14.000Z</time></trkpt>
        <trkpt lat="28.019345" lon="105.619026"><ele>1204.4</ele><time>2025-11-21T22:38:15.000Z</time></trkpt>
        <trkpt lat="28.019345" lon="105.619038"><ele>1204.4</ele><time>2025-11-21T22:38:16.000Z</time></trkpt>
        <trkpt lat="28.019345" lon="105.61905"><ele>1204.4</ele><time>2025-11-21T22:38:17.000Z</time></trkpt>
        <trkpt lat="28.019344" lon="105.619063"><ele>1204.4</ele><time>2025-11-21T22:38:18.000Z</time></trkpt>
        <trkpt lat="28.019344" lon="105.619075"><ele>1204.4</ele><time>2025-11-21T22:38:19.000Z</time></trkpt>
        <trkpt lat="28.019343" lon="105.619087"><ele>1204.4</ele><time>2025-11-21T22:38:20.000Z</time></trkpt>
        <trkpt lat="28.019341" lon="105.619099"><ele>1204.4</ele><time>2025-11-21T22:38:21.000Z</time></trkpt>
        <trkpt lat="28.01934" lon="105.61911"><ele>1204.4</ele><time>2025-11-21T22:38:22.000Z</time></trkpt>
        <trkpt lat="28.019339" lon="105.619122"><ele>1204.4</ele><time>2025-11-21T22:38:23.000Z</time></trkpt>
        <trkpt lat="28.019337" lon="105.619135"><ele>1204.4</ele><time>2025-11-21T22:38:24.000Z</time></trkpt>
        <trkpt lat="28.019336" lon="105.619147"><ele>1204.4</ele><time>2025-11-21T22:38:25.000Z</time></trkpt>
        <trkpt lat="28.019335" lon="105.61916"><ele>1204.2</ele><time>2025-11-21T22:38:26.000Z</time></trkpt>
        <trkpt lat="28.019335" lon="105.619173"><ele>1204.2</ele><time>2025-11-21T22:38:27.000Z</time></trkpt>
        <trkpt lat="28.019334" lon="105.619185"><ele>1204.2</ele><time>2025-11-21T22:38:28.000Z</time></trkpt>
        <trkpt lat="28.019334" lon="105.619197"><ele>1204.2</ele><time>2025-11-21T22:38:29.000Z</time></trkpt>
        <trkpt lat="28.019334" lon="105.619209"><ele>1204.2</ele><time>2025-11-21T22:38:30.000Z</time></trkpt>
        <trkpt lat="28.019335" lon="105.619222"><ele>1204.2</ele><time>2025-11-21T22:38:31.000Z</time></trkpt>
        <trkpt lat="28.019335" lon="105.619234"><ele>1204.2</ele><time>2025-11-21T22:38:32.000Z</time></trkpt>
        <trkpt lat="28.019336" lon="105.619247"><ele>1204.2</ele><time>2025-11-21T22:38:33.000Z</time></trkpt>
        <trkpt lat="28.019337" lon="105.619259"><ele>1204.2</ele><time>2025-11-21T22:38:34.000Z</time></trkpt>
        <trkpt lat="28.019337" lon="105.619272"><ele>1204.2</ele><time>2025-11-21T22:38:35.000Z</time></trkpt>
        <trkpt lat="28.019338" lon="105.619285"><ele>1204.4</ele><time>2025-11-21T22:38:36.000Z</time></trkpt>
        <trkpt lat="28.019339" lon="105.619298"><ele>1204.4</ele><time>2025-11-21T22:38:37.000Z</time></trkpt>
        <trkpt lat="28.019339" lon="105.61931"><ele>1204.4</ele><time>2025-11-21T22:38:38.000Z</time></trkpt>
        <trkpt lat="28.019339" lon="105.619322"><ele>1204.4</ele><time>2025-11-21T22:38:39.000Z</time></trkpt>
        <trkpt lat="28.019338" lon="105.619334"><ele>1204.4</ele><time>2025-11-21T22:38:40.000Z</time></trkpt>
        <trkpt lat="28.019337" lon="105.619345"><ele>1204.6</ele><time>2025-11-21T22:38:41.000Z</time></trkpt>
        <trkpt lat="28.019335" lon="105.619356"><ele>1204.6</ele><time>2025-11-21T22:38:42.000Z</time></trkpt>
        <trkpt lat="28.019334" lon="105.619368"><ele>1204.6</ele><time>2025-11-21T22:38:43.000Z</time></trkpt>
        <trkpt lat="28.019332" lon="105.61938"><ele>1204.6</ele><time>2025-11-21T22:38:44.000Z</time></trkpt>
        <trkpt lat="28.01933" lon="105.619392"><ele>1204.6</ele><time>2025-11-21T22:38:45.000Z</time></trkpt>
        <trkpt lat="28.019328" lon="105.619406"><ele>1204.6</ele><time>2025-11-21T22:38:46.000Z</time></trkpt>
        <trkpt lat="28.019325" lon="105.61942"><ele>1204.6</ele><time>2025-11-21T22:38:47.000Z</time></trkpt>
        <trkpt lat="28.019321" lon="105.619432"><ele>1204.6</ele><time>2025-11-21T22:38:48.000Z</time></trkpt>
        <trkpt lat="28.019317" lon="105.619443"><ele>1204.6</ele><time>2025-11-21T22:38:49.000Z</time></trkpt>
        <trkpt lat="28.019313" lon="105.619454"><ele>1204.6</ele><time>2025-11-21T22:38:50.000Z</time></trkpt>
        <trkpt lat="28.019309" lon="105.619464"><ele>1204.6</ele><time>2025-11-21T22:38:51.000Z</time></trkpt>
        <trkpt lat="28.019306" lon="105.619474"><ele>1204.6</ele><time>2025-11-21T22:38:52.000Z</time></trkpt>
        <trkpt lat="28.019302" lon="105.619485"><ele>1204.6</ele><time>2025-11-21T22:38:53.000Z</time></trkpt>
        <trkpt lat="28.019298" lon="105.619497"><ele>1204.6</ele><time>2025-11-21T22:38:54.000Z</time></trkpt>
        <trkpt lat="28.019293" lon="105.619507"><ele>1204.6</ele><time>2025-11-21T22:38:55.000Z</time></trkpt>
        <trkpt lat="28.019286" lon="105.619516"><ele>1204.9</ele><time>2025-11-21T22:38:56.000Z</time></trkpt>
        <trkpt lat="28.019277" lon="105.619524"><ele>1204.9</ele><time>2025-11-21T22:38:57.000Z</time></trkpt>
        <trkpt lat="28.019267" lon="105.619531"><ele>1204.9</ele><time>2025-11-21T22:38:58.000Z</time></trkpt>
        <trkpt lat="28.019256" lon="105.619537"><ele>1204.9</ele><time>2025-11-21T22:38:59.000Z</time></trkpt>
        <trkpt lat="28.019245" lon="105.619542"><ele>1204.9</ele><time>2025-11-21T22:39:00.000Z</time></trkpt>
        <trkpt lat="28.019234" lon="105.619548"><ele>1205.5</ele><time>2025-11-21T22:39:01.000Z</time></trkpt>
        <trkpt lat="28.019224" lon="105.619552"><ele>1205.5</ele><time>2025-11-21T22:39:02.000Z</time></trkpt>
        <trkpt lat="28.019213" lon="105.619556"><ele>1205.5</ele><time>2025-11-21T22:39:03.000Z</time></trkpt>
        <trkpt lat="28.019202" lon="105.619561"><ele>1205.5</ele><time>2025-11-21T22:39:04.000Z</time></trkpt>
        <trkpt lat="28.019192" lon="105.619567"><ele>1205.5</ele><time>2025-11-21T22:39:05.000Z</time></trkpt>
        <trkpt lat="28.019182" lon="105.619575"><ele>1206</ele><time>2025-11-21T22:39:06.000Z</time></trkpt>
        <trkpt lat="28.019171" lon="105.619585"><ele>1206</ele><time>2025-11-21T22:39:07.000Z</time></trkpt>
        <trkpt lat="28.019162" lon="105.619595"><ele>1206</ele><time>2025-11-21T22:39:08.000Z</time></trkpt>
        <trkpt lat="28.019153" lon="105.619606"><ele>1206</ele><time>2025-11-21T22:39:09.000Z</time></trkpt>
        <trkpt lat="28.019145" lon="105.619616"><ele>1206</ele><time>2025-11-21T22:39:10.000Z</time></trkpt>
        <trkpt lat="28.019137" lon="105.619625"><ele>1206.8</ele><time>2025-11-21T22:39:11.000Z</time></trkpt>
        <trkpt lat="28.019131" lon="105.619634"><ele>1206.8</ele><time>2025-11-21T22:39:12.000Z</time></trkpt>
        <trkpt lat="28.019123" lon="105.619642"><ele>1206.8</ele><time>2025-11-21T22:39:13.000Z</time></trkpt>
        <trkpt lat="28.019115" lon="105.61965"><ele>1206.8</ele><time>2025-11-21T22:39:14.000Z</time></trkpt>
        <trkpt lat="28.019106" lon="105.619658"><ele>1206.8</ele><time>2025-11-21T22:39:15.000Z</time></trkpt>
        <trkpt lat="28.019096" lon="105.619665"><ele>1207.1</ele><time>2025-11-21T22:39:16.000Z</time></trkpt>
        <trkpt lat="28.019085" lon="105.619673"><ele>1207.1</ele><time>2025-11-21T22:39:17.000Z</time></trkpt>
        <trkpt lat="28.019074" lon="105.61968"><ele>1207.1</ele><time>2025-11-21T22:39:18.000Z</time></trkpt>
        <trkpt lat="28.019064" lon="105.619688"><ele>1207.1</ele><time>2025-11-21T22:39:19.000Z</time></trkpt>
        <trkpt lat="28.019054" lon="105.619696"><ele>1207.1</ele><time>2025-11-21T22:39:20.000Z</time></trkpt>
        <trkpt lat="28.019044" lon="105.619703"><ele>1207.1</ele><time>2025-11-21T22:39:21.000Z</time></trkpt>
        <trkpt lat="28.019034" lon="105.61971"><ele>1207.1</ele><time>2025-11-21T22:39:22.000Z</time></trkpt>
        <trkpt lat="28.019025" lon="105.619716"><ele>1207.1</ele><time>2025-11-21T22:39:23.000Z</time></trkpt>
        <trkpt lat="28.019014" lon="105.619722"><ele>1207.1</ele><time>2025-11-21T22:39:24.000Z</time></trkpt>
        <trkpt lat="28.019005" lon="105.619726"><ele>1207.1</ele><time>2025-11-21T22:39:25.000Z</time></trkpt>
        <trkpt lat="28.018994" lon="105.619729"><ele>1206.9</ele><time>2025-11-21T22:39:26.000Z</time></trkpt>
        <trkpt lat="28.018984" lon="105.619732"><ele>1206.9</ele><time>2025-11-21T22:39:27.000Z</time></trkpt>
        <trkpt lat="28.018973" lon="105.619732"><ele>1206.9</ele><time>2025-11-21T22:39:28.000Z</time></trkpt>
        <trkpt lat="28.018963" lon="105.619732"><ele>1206.9</ele><time>2025-11-21T22:39:29.000Z</time></trkpt>
        <trkpt lat="28.018952" lon="105.61973"><ele>1206.9</ele><time>2025-11-21T22:39:30.000Z</time></trkpt>
        <trkpt lat="28.018941" lon="105.619727"><ele>1206.7</ele><time>2025-11-21T22:39:31.000Z</time></trkpt>
        <trkpt lat="28.018931" lon="105.619724"><ele>1206.7</ele><time>2025-11-21T22:39:32.000Z</time></trkpt>
        <trkpt lat="28.018921" lon="105.619721"><ele>1206.7</ele><time>2025-11-21T22:39:33.000Z</time></trkpt>
        <trkpt lat="28.018911" lon="105.619717"><ele>1206.7</ele><time>2025-11-21T22:39:34.000Z</time></trkpt>
        <trkpt lat="28.018901" lon="105.619712"><ele>1206.7</ele><time>2025-11-21T22:39:35.000Z</time></trkpt>
        <trkpt lat="28.018891" lon="105.619707"><ele>1206.5</ele><time>2025-11-21T22:39:36.000Z</time></trkpt>
        <trkpt lat="28.018882" lon="105.619701"><ele>1206.5</ele><time>2025-11-21T22:39:37.000Z</time></trkpt>
        <trkpt lat="28.018872" lon="105.619693"><ele>1206.5</ele><time>2025-11-21T22:39:38.000Z</time></trkpt>
        <trkpt lat="28.018862" lon="105.619685"><ele>1206.5</ele><time>2025-11-21T22:39:39.000Z</time></trkpt>
        <trkpt lat="28.018853" lon="105.619676"><ele>1206.5</ele><time>2025-11-21T22:39:40.000Z</time></trkpt>
        <trkpt lat="28.018844" lon="105.619667"><ele>1206.5</ele><time>2025-11-21T22:39:41.000Z</time></trkpt>
        <trkpt lat="28.018835" lon="105.619657"><ele>1206.5</ele><time>2025-11-21T22:39:42.000Z</time></trkpt>
        <trkpt lat="28.018825" lon="105.619647"><ele>1206.5</ele><time>2025-11-21T22:39:43.000Z</time></trkpt>
        <trkpt lat="28.018816" lon="105.619637"><ele>1206.5</ele><time>2025-11-21T22:39:44.000Z</time></trkpt>
        <trkpt lat="28.018806" lon="105.619628"><ele>1206.5</ele><time>2025-11-21T22:39:45.000Z</time></trkpt>
        <trkpt lat="28.018795" lon="105.619619"><ele>1206.5</ele><time>2025-11-21T22:39:46.000Z</time></trkpt>
        <trkpt lat="28.018783" lon="105.61961"><ele>1206.5</ele><time>2025-11-21T22:39:47.000Z</time></trkpt>
        <trkpt lat="28.018773" lon="105.619601"><ele>1206.5</ele><time>2025-11-21T22:39:48.000Z</time></trkpt>
        <trkpt lat="28.018761" lon="105.619593"><ele>1206.5</ele><time>2025-11-21T22:39:49.000Z</time></trkpt>
        <trkpt lat="28.01875" lon="105.619584"><ele>1206.5</ele><time>2025-11-21T22:39:50.000Z</time></trkpt>
        <trkpt lat="28.018738" lon="105.619575"><ele>1206.5</ele><time>2025-11-21T22:39:51.000Z</time></trkpt>
        <trkpt lat="28.018727" lon="105.619567"><ele>1206.5</ele><time>2025-11-21T22:39:52.000Z</time></trkpt>
        <trkpt lat="28.018716" lon="105.619558"><ele>1206.5</ele><time>2025-11-21T22:39:53.000Z</time></trkpt>
        <trkpt lat="28.018706" lon="105.61955"><ele>1206.5</ele><time>2025-11-21T22:39:54.000Z</time></trkpt>
        <trkpt lat="28.018696" lon="105.619542"><ele>1206.5</ele><time>2025-11-21T22:39:55.000Z</time></trkpt>
        <trkpt lat="28.018686" lon="105.619534"><ele>1206.5</ele><time>2025-11-21T22:39:56.000Z</time></trkpt>
        <trkpt lat="28.018677" lon="105.619526"><ele>1206.5</ele><time>2025-11-21T22:39:57.000Z</time></trkpt>
        <trkpt lat="28.018668" lon="105.619519"><ele>1206.5</ele><time>2025-11-21T22:39:58.000Z</time></trkpt>
        <trkpt lat="28.018658" lon="105.619511"><ele>1206.5</ele><time>2025-11-21T22:39:59.000Z</time></trkpt>
        <trkpt lat="28.018649" lon="105.619504"><ele>1206.5</ele><time>2025-11-21T22:40:00.000Z</time></trkpt>
        <trkpt lat="28.018638" lon="105.619497"><ele>1206.3</ele><time>2025-11-21T22:40:01.000Z</time></trkpt>
        <trkpt lat="28.018628" lon="105.619491"><ele>1206.3</ele><time>2025-11-21T22:40:02.000Z</time></trkpt>
        <trkpt lat="28.018618" lon="105.619483"><ele>1206.3</ele><time>2025-11-21T22:40:03.000Z</time></trkpt>
        <trkpt lat="28.018608" lon="105.619476"><ele>1206.3</ele><time>2025-11-21T22:40:04.000Z</time></trkpt>
        <trkpt lat="28.018598" lon="105.61947"><ele>1206.3</ele><time>2025-11-21T22:40:05.000Z</time></trkpt>
        <trkpt lat="28.018588" lon="105.619462"><ele>1206.3</ele><time>2025-11-21T22:40:06.000Z</time></trkpt>
        <trkpt lat="28.018579" lon="105.619454"><ele>1206.3</ele><time>2025-11-21T22:40:07.000Z</time></trkpt>
        <trkpt lat="28.018571" lon="105.619447"><ele>1206.3</ele><time>2025-11-21T22:40:08.000Z</time></trkpt>
        <trkpt lat="28.018563" lon="105.61944"><ele>1206.3</ele><time>2025-11-21T22:40:09.000Z</time></trkpt>
        <trkpt lat="28.018557" lon="105.619433"><ele>1206.3</ele><time>2025-11-21T22:40:10.000Z</time></trkpt>
        <trkpt lat="28.01855" lon="105.619427"><ele>1206.1</ele><time>2025-11-21T22:40:11.000Z</time></trkpt>
        <trkpt lat="28.018544" lon="105.619421"><ele>1206.1</ele><time>2025-11-21T22:40:12.000Z</time></trkpt>
        <trkpt lat="28.018537" lon="105.619415"><ele>1206.1</ele><time>2025-11-21T22:40:13.000Z</time></trkpt>
        <trkpt lat="28.01853" lon="105.61941"><ele>1206.1</ele><time>2025-11-21T22:40:14.000Z</time></trkpt>
        <trkpt lat="28.018522" lon="105.619404"><ele>1206.1</ele><time>2025-11-21T22:40:15.000Z</time></trkpt>
        <trkpt lat="28.018514" lon="105.619397"><ele>1206.1</ele><time>2025-11-21T22:40:16.000Z</time></trkpt>
        <trkpt lat="28.018506" lon="105.619391"><ele>1206.1</ele><time>2025-11-21T22:40:17.000Z</time></trkpt>
        <trkpt lat="28.018498" lon="105.619386"><ele>1206.1</ele><time>2025-11-21T22:40:18.000Z</time></trkpt>
        <trkpt lat="28.018491" lon="105.619381"><ele>1206.1</ele><time>2025-11-21T22:40:19.000Z</time></trkpt>
        <trkpt lat="28.018483" lon="105.619376"><ele>1206.1</ele><time>2025-11-21T22:40:20.000Z</time></trkpt>
        <trkpt lat="28.018475" lon="105.619372"><ele>1206.1</ele><time>2025-11-21T22:40:21.000Z</time></trkpt>
        <trkpt lat="28.018467" lon="105.619367"><ele>1206.1</ele><time>2025-11-21T22:40:22.000Z</time></trkpt>
        <trkpt lat="28.018459" lon="105.619363"><ele>1206.1</ele><time>2025-11-21T22:40:23.000Z</time></trkpt>
        <trkpt lat="28.01845" lon="105.619359"><ele>1206.1</ele><time>2025-11-21T22:40:24.000Z</time></trkpt>
        <trkpt lat="28.018441" lon="105.619356"><ele>1206.1</ele><time>2025-11-21T22:40:25.000Z</time></trkpt>
        <trkpt lat="28.018431" lon="105.619355"><ele>1205.8</ele><time>2025-11-21T22:40:26.000Z</time></trkpt>
        <trkpt lat="28.018422" lon="105.619354"><ele>1205.8</ele><time>2025-11-21T22:40:27.000Z</time></trkpt>
        <trkpt lat="28.018414" lon="105.619354"><ele>1205.8</ele><time>2025-11-21T22:40:28.000Z</time></trkpt>
        <trkpt lat="28.018406" lon="105.619354"><ele>1205.8</ele><time>2025-11-21T22:40:29.000Z</time></trkpt>
        <trkpt lat="28.018399" lon="105.619354"><ele>1205.8</ele><time>2025-11-21T22:40:30.000Z</time></trkpt>
        <trkpt lat="28.018391" lon="105.619353"><ele>1205</ele><time>2025-11-21T22:40:31.000Z</time></trkpt>
        <trkpt lat="28.018383" lon="105.619352"><ele>1205</ele><time>2025-11-21T22:40:32.000Z</time></trkpt>
        <trkpt lat="28.018373" lon="105.61935"><ele>1205</ele><time>2025-11-21T22:40:33.000Z</time></trkpt>
        <trkpt lat="28.018361" lon="105.619349"><ele>1205</ele><time>2025-11-21T22:40:34.000Z</time></trkpt>
        <trkpt lat="28.018348" lon="105.619347"><ele>1205</ele><time>2025-11-21T22:40:35.000Z</time></trkpt>
        <trkpt lat="28.018336" lon="105.619346"><ele>1204.3</ele><time>2025-11-21T22:40:36.000Z</time></trkpt>
        <trkpt lat="28.018322" lon="105.619344"><ele>1204.3</ele><time>2025-11-21T22:40:37.000Z</time></trkpt>
        <trkpt lat="28.018307" lon="105.619341"><ele>1204.3</ele><time>2025-11-21T22:40:38.000Z</time></trkpt>
        <trkpt lat="28.018294" lon="105.619336"><ele>1204.3</ele><time>2025-11-21T22:40:39.000Z</time></trkpt>
        <trkpt lat="28.018281" lon="105.619331"><ele>1204.3</ele><time>2025-11-21T22:40:40.000Z</time></trkpt>
        <trkpt lat="28.018269" lon="105.619325"><ele>1203.2</ele><time>2025-11-21T22:40:41.000Z</time></trkpt>
        <trkpt lat="28.018258" lon="105.619318"><ele>1203.2</ele><time>2025-11-21T22:40:42.000Z</time></trkpt>
        <trkpt lat="28.018249" lon="105.619311"><ele>1203.2</ele><time>2025-11-21T22:40:43.000Z</time></trkpt>
        <trkpt lat="28.018239" lon="105.619305"><ele>1203.2</ele><time>2025-11-21T22:40:44.000Z</time></trkpt>
        <trkpt lat="28.01823" lon="105.619298"><ele>1203.2</ele><time>2025-11-21T22:40:45.000Z</time></trkpt>
        <trkpt lat="28.018221" lon="105.61929"><ele>1202.5</ele><time>2025-11-21T22:40:46.000Z</time></trkpt>
        <trkpt lat="28.018212" lon="105.619283"><ele>1202.5</ele><time>2025-11-21T22:40:47.000Z</time></trkpt>
        <trkpt lat="28.018203" lon="105.619272"><ele>1202.5</ele><time>2025-11-21T22:40:48.000Z</time></trkpt>
        <trkpt lat="28.018194" lon="105.619261"><ele>1202.5</ele><time>2025-11-21T22:40:49.000Z</time></trkpt>
        <trkpt lat="28.018186" lon="105.619248"><ele>1202.5</ele><time>2025-11-21T22:40:50.000Z</time></trkpt>
        <trkpt lat="28.018179" lon="105.619235"><ele>1201.7</ele><time>2025-11-21T22:40:51.000Z</time></trkpt>
        <trkpt lat="28.018171" lon="105.619223"><ele>1201.7</ele><time>2025-11-21T22:40:52.000Z</time></trkpt>
        <trkpt lat="28.018163" lon="105.619212"><ele>1201.7</ele><time>2025-11-21T22:40:53.000Z</time></trkpt>
        <trkpt lat="28.018155" lon="105.619201"><ele>1201.7</ele><time>2025-11-21T22:40:54.000Z</time></trkpt>
        <trkpt lat="28.018147" lon="105.619191"><ele>1201.7</ele><time>2025-11-21T22:40:55.000Z</time></trkpt>
        <trkpt lat="28.018138" lon="105.619183"><ele>1201.6</ele><time>2025-11-21T22:40:56.000Z</time></trkpt>
        <trkpt lat="28.018129" lon="105.619175"><ele>1201.6</ele><time>2025-11-21T22:40:57.000Z</time></trkpt>
        <trkpt lat="28.018119" lon="105.619168"><ele>1201.6</ele><time>2025-11-21T22:40:58.000Z</time></trkpt>
        <trkpt lat="28.018108" lon="105.619162"><ele>1201.6</ele><time>2025-11-21T22:40:59.000Z</time></trkpt>
        <trkpt lat="28.018096" lon="105.619156"><ele>1201.6</ele><time>2025-11-21T22:41:00.000Z</time></trkpt>
        <trkpt lat="28.018084" lon="105.61915"><ele>1201.6</ele><time>2025-11-21T22:41:01.000Z</time></trkpt>
        <trkpt lat="28.018072" lon="105.619144"><ele>1201.6</ele><time>2025-11-21T22:41:02.000Z</time></trkpt>
        <trkpt lat="28.018059" lon="105.619138"><ele>1201.6</ele><time>2025-11-21T22:41:03.000Z</time></trkpt>
        <trkpt lat="28.018047" lon="105.619132"><ele>1201.6</ele><time>2025-11-21T22:41:04.000Z</time></trkpt>
        <trkpt lat="28.018035" lon="105.619124"><ele>1201.6</ele><time>2025-11-21T22:41:05.000Z</time></trkpt>
        <trkpt lat="28.018024" lon="105.619117"><ele>1201.6</ele><time>2025-11-21T22:41:06.000Z</time></trkpt>
        <trkpt lat="28.018013" lon="105.61911"><ele>1201.6</ele><time>2025-11-21T22:41:07.000Z</time></trkpt>
        <trkpt lat="28.018003" lon="105.619103"><ele>1201.6</ele><time>2025-11-21T22:41:08.000Z</time></trkpt>
        <trkpt lat="28.017993" lon="105.619097"><ele>1201.6</ele><time>2025-11-21T22:41:09.000Z</time></trkpt>
        <trkpt lat="28.017984" lon="105.619091"><ele>1201.6</ele><time>2025-11-21T22:41:10.000Z</time></trkpt>
        <trkpt lat="28.017974" lon="105.619086"><ele>1201.6</ele><time>2025-11-21T22:41:11.000Z</time></trkpt>
        <trkpt lat="28.017965" lon="105.619081"><ele>1201.6</ele><time>2025-11-21T22:41:12.000Z</time></trkpt>
        <trkpt lat="28.017955" lon="105.619075"><ele>1201.6</ele><time>2025-11-21T22:41:13.000Z</time></trkpt>
        <trkpt lat="28.017946" lon="105.619069"><ele>1201.6</ele><time>2025-11-21T22:41:14.000Z</time></trkpt>
        <trkpt lat="28.017938" lon="105.619062"><ele>1201.6</ele><time>2025-11-21T22:41:15.000Z</time></trkpt>
        <trkpt lat="28.017929" lon="105.619054"><ele>1201.6</ele><time>2025-11-21T22:41:16.000Z</time></trkpt>
        <trkpt lat="28.017921" lon="105.619046"><ele>1201.6</ele><time>2025-11-21T22:41:17.000Z</time></trkpt>
        <trkpt lat="28.017913" lon="105.619037"><ele>1201.6</ele><time>2025-11-21T22:41:18.000Z</time></trkpt>
        <trkpt lat="28.017903" lon="105.619029"><ele>1201.6</ele><time>2025-11-21T22:41:19.000Z</time></trkpt>
        <trkpt lat="28.017894" lon="105.619021"><ele>1201.6</ele><time>2025-11-21T22:41:20.000Z</time></trkpt>
        <trkpt lat="28.017884" lon="105.619013"><ele>1202</ele><time>2025-11-21T22:41:21.000Z</time></trkpt>
        <trkpt lat="28.017874" lon="105.619005"><ele>1202</ele><time>2025-11-21T22:41:22.000Z</time></trkpt>
        <trkpt lat="28.017864" lon="105.618997"><ele>1202</ele><time>2025-11-21T22:41:23.000Z</time></trkpt>
        <trkpt lat="28.017854" lon="105.618989"><ele>1202</ele><time>2025-11-21T22:41:24.000Z</time></trkpt>
        <trkpt lat="28.017844" lon="105.618981"><ele>1202</ele><time>2025-11-21T22:41:25.000Z</time></trkpt>
        <trkpt lat="28.017833" lon="105.618974"><ele>1202.2</ele><time>2025-11-21T22:41:26.000Z</time></trkpt>
        <trkpt lat="28.017822" lon="105.618968"><ele>1202.2</ele><time>2025-11-21T22:41:27.000Z</time></trkpt>
        <trkpt lat="28.017811" lon="105.618961"><ele>1202.2</ele><time>2025-11-21T22:41:28.000Z</time></trkpt>
        <trkpt lat="28.0178" lon="105.618955"><ele>1202.2</ele><time>2025-11-21T22:41:29.000Z</time></trkpt>
        <trkpt lat="28.017789" lon="105.618949"><ele>1202.2</ele><time>2025-11-21T22:41:30.000Z</time></trkpt>
        <trkpt lat="28.017777" lon="105.618942"><ele>1202.5</ele><time>2025-11-21T22:41:31.000Z</time></trkpt>
        <trkpt lat="28.017765" lon="105.618936"><ele>1202.5</ele><time>2025-11-21T22:41:32.000Z</time></trkpt>
        <trkpt lat="28.017753" lon="105.618931"><ele>1202.5</ele><time>2025-11-21T22:41:33.000Z</time></trkpt>
        <trkpt lat="28.017741" lon="105.618926"><ele>1202.5</ele><time>2025-11-21T22:41:34.000Z</time></trkpt>
        <trkpt lat="28.017729" lon="105.618924"><ele>1202.5</ele><time>2025-11-21T22:41:35.000Z</time></trkpt>
        <trkpt lat="28.017718" lon="105.618923"><ele>1202.5</ele><time>2025-11-21T22:41:36.000Z</time></trkpt>
        <trkpt lat="28.017707" lon="105.618924"><ele>1202.5</ele><time>2025-11-21T22:41:37.000Z</time></trkpt>
        <trkpt lat="28.017697" lon="105.618928"><ele>1202.5</ele><time>2025-11-21T22:41:38.000Z</time></trkpt>
        <trkpt lat="28.017686" lon="105.618933"><ele>1202.5</ele><time>2025-11-21T22:41:39.000Z</time></trkpt>
        <trkpt lat="28.017678" lon="105.61894"><ele>1202.5</ele><time>2025-11-21T22:41:40.000Z</time></trkpt>
        <trkpt lat="28.01767" lon="105.618948"><ele>1202.3</ele><time>2025-11-21T22:41:41.000Z</time></trkpt>
        <trkpt lat="28.017665" lon="105.618959"><ele>1202.3</ele><time>2025-11-21T22:41:42.000Z</time></trkpt>
        <trkpt lat="28.017661" lon="105.61897"><ele>1202.3</ele><time>2025-11-21T22:41:43.000Z</time></trkpt>
        <trkpt lat="28.01766" lon="105.618983"><ele>1202.3</ele><time>2025-11-21T22:41:44.000Z</time></trkpt>
        <trkpt lat="28.01766" lon="105.618995"><ele>1202.3</ele><time>2025-11-21T22:41:45.000Z</time></trkpt>
        <trkpt lat="28.017663" lon="105.619008"><ele>1202.3</ele><time>2025-11-21T22:41:46.000Z</time></trkpt>
        <trkpt lat="28.017668" lon="105.61902"><ele>1202.3</ele><time>2025-11-21T22:41:47.000Z</time></trkpt>
        <trkpt lat="28.017673" lon="105.619031"><ele>1202.3</ele><time>2025-11-21T22:41:48.000Z</time></trkpt>
        <trkpt lat="28.017679" lon="105.619041"><ele>1202.3</ele><time>2025-11-21T22:41:49.000Z</time></trkpt>
        <trkpt lat="28.017684" lon="105.619051"><ele>1202.3</ele><time>2025-11-21T22:41:50.000Z</time></trkpt>
        <trkpt lat="28.01769" lon="105.619059"><ele>1202.3</ele><time>2025-11-21T22:41:51.000Z</time></trkpt>
        <trkpt lat="28.017695" lon="105.619068"><ele>1202.3</ele><time>2025-11-21T22:41:52.000Z</time></trkpt>
        <trkpt lat="28.017701" lon="105.619076"><ele>1202.3</ele><time>2025-11-21T22:41:53.000Z</time></trkpt>
        <trkpt lat="28.017708" lon="105.619084"><ele>1202.3</ele><time>2025-11-21T22:41:54.000Z</time></trkpt>
        <trkpt lat="28.017715" lon="105.619092"><ele>1202.3</ele><time>2025-11-21T22:41:55.000Z</time></trkpt>
        <trkpt lat="28.017722" lon="105.619101"><ele>1202.3</ele><time>2025-11-21T22:41:56.000Z</time></trkpt>
        <trkpt lat="28.01773" lon="105.619111"><ele>1202.3</ele><time>2025-11-21T22:41:57.000Z</time></trkpt>
        <trkpt lat="28.017737" lon="105.619121"><ele>1202.3</ele><time>2025-11-21T22:41:58.000Z</time></trkpt>
        <trkpt lat="28.017743" lon="105.619131"><ele>1202.3</ele><time>2025-11-21T22:41:59.000Z</time></trkpt>
        <trkpt lat="28.017748" lon="105.619141"><ele>1202.3</ele><time>2025-11-21T22:42:00.000Z</time></trkpt>
        <trkpt lat="28.017753" lon="105.619151"><ele>1202.3</ele><time>2025-11-21T22:42:01.000Z</time></trkpt>
        <trkpt lat="28.017757" lon="105.619161"><ele>1202.3</ele><time>2025-11-21T22:42:02.000Z</time></trkpt>
        <trkpt lat="28.017761" lon="105.619172"><ele>1202.3</ele><time>2025-11-21T22:42:03.000Z</time></trkpt>
        <trkpt lat="28.017766" lon="105.619182"><ele>1202.3</ele><time>2025-11-21T22:42:04.000Z</time></trkpt>
        <trkpt lat="28.01777" lon="105.619193"><ele>1202.3</ele><time>2025-11-21T22:42:05.000Z</time></trkpt>
        <trkpt lat="28.017774" lon="105.619204"><ele>1202.3</ele><time>2025-11-21T22:42:06.000Z</time></trkpt>
        <trkpt lat="28.017778" lon="105.619215"><ele>1202.3</ele><time>2025-11-21T22:42:07.000Z</time></trkpt>
        <trkpt lat="28.017782" lon="105.619225"><ele>1202.3</ele><time>2025-11-21T22:42:08.000Z</time></trkpt>
        <trkpt lat="28.017786" lon="105.619237"><ele>1202.3</ele><time>2025-11-21T22:42:09.000Z</time></trkpt>
        <trkpt lat="28.017789" lon="105.619249"><ele>1202.3</ele><time>2025-11-21T22:42:10.000Z</time></trkpt>
        <trkpt lat="28.017793" lon="105.619261"><ele>1202.3</ele><time>2025-11-21T22:42:11.000Z</time></trkpt>
        <trkpt lat="28.017796" lon="105.619272"><ele>1202.3</ele><time>2025-11-21T22:42:12.000Z</time></trkpt>
        <trkpt lat="28.017799" lon="105.619284"><ele>1202.3</ele><time>2025-11-21T22:42:13.000Z</time></trkpt>
        <trkpt lat="28.017802" lon="105.619296"><ele>1202.3</ele><time>2025-11-21T22:42:14.000Z</time></trkpt>
        <trkpt lat="28.017807" lon="105.619305"><ele>1202.3</ele><time>2025-11-21T22:42:15.000Z</time></trkpt>
        <trkpt lat="28.017811" lon="105.619316"><ele>1202.3</ele><time>2025-11-21T22:42:16.000Z</time></trkpt>
        <trkpt lat="28.017816" lon="105.619327"><ele>1202.3</ele><time>2025-11-21T22:42:17.000Z</time></trkpt>
        <trkpt lat="28.017822" lon="105.619338"><ele>1202.3</ele><time>2025-11-21T22:42:18.000Z</time></trkpt>
        <trkpt lat="28.017828" lon="105.61935"><ele>1202.3</ele><time>2025-11-21T22:42:19.000Z</time></trkpt>
        <trkpt lat="28.017833" lon="105.619362"><ele>1202.3</ele><time>2025-11-21T22:42:20.000Z</time></trkpt>
        <trkpt lat="28.017839" lon="105.619375"><ele>1202.3</ele><time>2025-11-21T22:42:21.000Z</time></trkpt>
        <trkpt lat="28.017844" lon="105.619387"><ele>1202.3</ele><time>2025-11-21T22:42:22.000Z</time></trkpt>
        <trkpt lat="28.01785" lon="105.619399"><ele>1202.3</ele><time>2025-11-21T22:42:23.000Z</time></trkpt>
        <trkpt lat="28.017856" lon="105.619411"><ele>1202.3</ele><time>2025-11-21T22:42:24.000Z</time></trkpt>
        <trkpt lat="28.017862" lon="105.619423"><ele>1202.3</ele><time>2025-11-21T22:42:25.000Z</time></trkpt>
        <trkpt lat="28.017868" lon="105.619433"><ele>1202.3</ele><time>2025-11-21T22:42:26.000Z</time></trkpt>
        <trkpt lat="28.017873" lon="105.619444"><ele>1202.3</ele><time>2025-11-21T22:42:27.000Z</time></trkpt>
        <trkpt lat="28.017879" lon="105.619454"><ele>1202.3</ele><time>2025-11-21T22:42:28.000Z</time></trkpt>
        <trkpt lat="28.017885" lon="105.619463"><ele>1202.3</ele><time>2025-11-21T22:42:29.000Z</time></trkpt>
        <trkpt lat="28.01789" lon="105.619473"><ele>1202.3</ele><time>2025-11-21T22:42:30.000Z</time></trkpt>
        <trkpt lat="28.017896" lon="105.619482"><ele>1202.3</ele><time>2025-11-21T22:42:31.000Z</time></trkpt>
        <trkpt lat="28.0179" lon="105.619493"><ele>1202.3</ele><time>2025-11-21T22:42:32.000Z</time></trkpt>
        <trkpt lat="28.017904" lon="105.619503"><ele>1202.3</ele><time>2025-11-21T22:42:33.000Z</time></trkpt>
        <trkpt lat="28.017906" lon="105.619515"><ele>1202.3</ele><time>2025-11-21T22:42:34.000Z</time></trkpt>
        <trkpt lat="28.017909" lon="105.619527"><ele>1202.3</ele><time>2025-11-21T22:42:35.000Z</time></trkpt>
        <trkpt lat="28.017911" lon="105.61954"><ele>1202.5</ele><time>2025-11-21T22:42:36.000Z</time></trkpt>
        <trkpt lat="28.017912" lon="105.619553"><ele>1202.5</ele><time>2025-11-21T22:42:37.000Z</time></trkpt>
        <trkpt lat="28.017914" lon="105.619566"><ele>1202.5</ele><time>2025-11-21T22:42:38.000Z</time></trkpt>
        <trkpt lat="28.017915" lon="105.619579"><ele>1202.5</ele><time>2025-11-21T22:42:39.000Z</time></trkpt>
        <trkpt lat="28.017916" lon="105.619592"><ele>1202.5</ele><time>2025-11-21T22:42:40.000Z</time></trkpt>
        <trkpt lat="28.017917" lon="105.619605"><ele>1202.5</ele><time>2025-11-21T22:42:41.000Z</time></trkpt>
        <trkpt lat="28.017916" lon="105.619617"><ele>1202.5</ele><time>2025-11-21T22:42:42.000Z</time></trkpt>
        <trkpt lat="28.017917" lon="105.619629"><ele>1202.5</ele><time>2025-11-21T22:42:43.000Z</time></trkpt>
        <trkpt lat="28.017916" lon="105.619642"><ele>1202.5</ele><time>2025-11-21T22:42:44.000Z</time></trkpt>
        <trkpt lat="28.017915" lon="105.619655"><ele>1202.5</ele><time>2025-11-21T22:42:45.000Z</time></trkpt>
        <trkpt lat="28.017914" lon="105.619669"><ele>1202.7</ele><time>2025-11-21T22:42:46.000Z</time></trkpt>
        <trkpt lat="28.017912" lon="105.619683"><ele>1202.7</ele><time>2025-11-21T22:42:47.000Z</time></trkpt>
        <trkpt lat="28.01791" lon="105.619697"><ele>1202.7</ele><time>2025-11-21T22:42:48.000Z</time></trkpt>
        <trkpt lat="28.017908" lon="105.619712"><ele>1202.7</ele><time>2025-11-21T22:42:49.000Z</time></trkpt>
        <trkpt lat="28.017907" lon="105.619726"><ele>1202.7</ele><time>2025-11-21T22:42:50.000Z</time></trkpt>
        <trkpt lat="28.017906" lon="105.61974"><ele>1202.7</ele><time>2025-11-21T22:42:51.000Z</time></trkpt>
        <trkpt lat="28.017905" lon="105.619753"><ele>1202.7</ele><time>2025-11-21T22:42:52.000Z</time></trkpt>
        <trkpt lat="28.017903" lon="105.619767"><ele>1202.7</ele><time>2025-11-21T22:42:53.000Z</time></trkpt>
        <trkpt lat="28.017903" lon="105.61978"><ele>1202.7</ele><time>2025-11-21T22:42:54.000Z</time></trkpt>
        <trkpt lat="28.017902" lon="105.619792"><ele>1202.7</ele><time>2025-11-21T22:42:55.000Z</time></trkpt>
        <trkpt lat="28.017902" lon="105.619804"><ele>1202.7</ele><time>2025-11-21T22:42:56.000Z</time></trkpt>
        <trkpt lat="28.017902" lon="105.619816"><ele>1202.7</ele><time>2025-11-21T22:42:57.000Z</time></trkpt>
        <trkpt lat="28.017902" lon="105.619828"><ele>1202.7</ele><time>2025-11-21T22:42:58.000Z</time></trkpt>
        <trkpt lat="28.017903" lon="105.61984"><ele>1202.7</ele><time>2025-11-21T22:42:59.000Z</time></trkpt>
        <trkpt lat="28.017903" lon="105.619852"><ele>1202.7</ele><time>2025-11-21T22:43:00.000Z</time></trkpt>
        <trkpt lat="28.017904" lon="105.619864"><ele>1202.7</ele><time>2025-11-21T22:43:01.000Z</time></trkpt>
        <trkpt lat="28.017905" lon="105.619876"><ele>1202.7</ele><time>2025-11-21T22:43:02.000Z</time></trkpt>
        <trkpt lat="28.017906" lon="105.61989"><ele>1202.7</ele><time>2025-11-21T22:43:03.000Z</time></trkpt>
        <trkpt lat="28.017907" lon="105.619902"><ele>1202.7</ele><time>2025-11-21T22:43:04.000Z</time></trkpt>
        <trkpt lat="28.017907" lon="105.619916"><ele>1202.7</ele><time>2025-11-21T22:43:05.000Z</time></trkpt>
        <trkpt lat="28.017906" lon="105.619931"><ele>1202.7</ele><time>2025-11-21T22:43:06.000Z</time></trkpt>
        <trkpt lat="28.017904" lon="105.619945"><ele>1202.7</ele><time>2025-11-21T22:43:07.000Z</time></trkpt>
        <trkpt lat="28.017902" lon="105.619959"><ele>1202.7</ele><time>2025-11-21T22:43:08.000Z</time></trkpt>
        <trkpt lat="28.0179" lon="105.619973"><ele>1202.7</ele><time>2025-11-21T22:43:09.000Z</time></trkpt>
        <trkpt lat="28.017899" lon="105.619986"><ele>1202.7</ele><time>2025-11-21T22:43:10.000Z</time></trkpt>
        <trkpt lat="28.017898" lon="105.619999"><ele>1202.7</ele><time>2025-11-21T22:43:11.000Z</time></trkpt>
        <trkpt lat="28.017897" lon="105.620012"><ele>1202.7</ele><time>2025-11-21T22:43:12.000Z</time></trkpt>
        <trkpt lat="28.017897" lon="105.620025"><ele>1202.7</ele><time>2025-11-21T22:43:13.000Z</time></trkpt>
        <trkpt lat="28.017897" lon="105.620039"><ele>1202.7</ele><time>2025-11-21T22:43:14.000Z</time></trkpt>
        <trkpt lat="28.017897" lon="105.620052"><ele>1202.7</ele><time>2025-11-21T22:43:15.000Z</time></trkpt>
        <trkpt lat="28.017897" lon="105.620066"><ele>1202.7</ele><time>2025-11-21T22:43:16.000Z</time></trkpt>
        <trkpt lat="28.017896" lon="105.620079"><ele>1202.7</ele><time>2025-11-21T22:43:17.000Z</time></trkpt>
        <trkpt lat="28.017895" lon="105.620092"><ele>1202.7</ele><time>2025-11-21T22:43:18.000Z</time></trkpt>
        <trkpt lat="28.017895" lon="105.620104"><ele>1202.7</ele><time>2025-11-21T22:43:19.000Z</time></trkpt>
        <trkpt lat="28.017894" lon="105.620116"><ele>1202.7</ele><time>2025-11-21T22:43:20.000Z</time></trkpt>
        <trkpt lat="28.017893" lon="105.620129"><ele>1202.9</ele><time>2025-11-21T22:43:21.000Z</time></trkpt>
        <trkpt lat="28.017892" lon="105.620141"><ele>1202.9</ele><time>2025-11-21T22:43:22.000Z</time></trkpt>
        <trkpt lat="28.017891" lon="105.620154"><ele>1202.9</ele><time>2025-11-21T22:43:23.000Z</time></trkpt>
        <trkpt lat="28.017889" lon="105.620167"><ele>1202.9</ele><time>2025-11-21T22:43:24.000Z</time></trkpt>
        <trkpt lat="28.017887" lon="105.620181"><ele>1202.9</ele><time>2025-11-21T22:43:25.000Z</time></trkpt>
        <trkpt lat="28.017884" lon="105.620195"><ele>1202.9</ele><time>2025-11-21T22:43:26.000Z</time></trkpt>
        <trkpt lat="28.01788" lon="105.620209"><ele>1202.9</ele><time>2025-11-21T22:43:27.000Z</time></trkpt>
        <trkpt lat="28.017875" lon="105.620222"><ele>1202.9</ele><time>2025-11-21T22:43:28.000Z</time></trkpt>
        <trkpt lat="28.017871" lon="105.620235"><ele>1202.9</ele><time>2025-11-21T22:43:29.000Z</time></trkpt>
        <trkpt lat="28.017867" lon="105.620248"><ele>1202.9</ele><time>2025-11-21T22:43:30.000Z</time></trkpt>
        <trkpt lat="28.017862" lon="105.62026"><ele>1202.9</ele><time>2025-11-21T22:43:31.000Z</time></trkpt>
        <trkpt lat="28.017857" lon="105.620272"><ele>1202.9</ele><time>2025-11-21T22:43:32.000Z</time></trkpt>
        <trkpt lat="28.017852" lon="105.620283"><ele>1202.9</ele><time>2025-11-21T22:43:33.000Z</time></trkpt>
        <trkpt lat="28.017847" lon="105.620294"><ele>1202.9</ele><time>2025-11-21T22:43:34.000Z</time></trkpt>
        <trkpt lat="28.017842" lon="105.620304"><ele>1202.9</ele><time>2025-11-21T22:43:35.000Z</time></trkpt>
        <trkpt lat="28.017837" lon="105.620312"><ele>1202.9</ele><time>2025-11-21T22:43:36.000Z</time></trkpt>
        <trkpt lat="28.017832" lon="105.620321"><ele>1202.9</ele><time>2025-11-21T22:43:37.000Z</time></trkpt>
        <trkpt lat="28.017827" lon="105.62033"><ele>1202.9</ele><time>2025-11-21T22:43:38.000Z</time></trkpt>
        <trkpt lat="28.017821" lon="105.62034"><ele>1202.9</ele><time>2025-11-21T22:43:39.000Z</time></trkpt>
        <trkpt lat="28.017815" lon="105.62035"><ele>1202.9</ele><time>2025-11-21T22:43:40.000Z</time></trkpt>
        <trkpt lat="28.017809" lon="105.620361"><ele>1202.9</ele><time>2025-11-21T22:43:41.000Z</time></trkpt>
        <trkpt lat="28.017803" lon="105.620373"><ele>1202.9</ele><time>2025-11-21T22:43:42.000Z</time></trkpt>
        <trkpt lat="28.017795" lon="105.620384"><ele>1202.9</ele><time>2025-11-21T22:43:43.000Z</time></trkpt>
        <trkpt lat="28.017788" lon="105.620394"><ele>1202.9</ele><time>2025-11-21T22:43:44.000Z</time></trkpt>
        <trkpt lat="28.017781" lon="105.620403"><ele>1202.9</ele><time>2025-11-21T22:43:45.000Z</time></trkpt>
        <trkpt lat="28.017773" lon="105.620411"><ele>1202.9</ele><time>2025-11-21T22:43:46.000Z</time></trkpt>
        <trkpt lat="28.017766" lon="105.620418"><ele>1202.9</ele><time>2025-11-21T22:43:47.000Z</time></trkpt>
        <trkpt lat="28.017758" lon="105.620425"><ele>1202.9</ele><time>2025-11-21T22:43:48.000Z</time></trkpt>
        <trkpt lat="28.017749" lon="105.620432"><ele>1202.9</ele><time>2025-11-21T22:43:49.000Z</time></trkpt>
        <trkpt lat="28.017739" lon="105.62044"><ele>1202.9</ele><time>2025-11-21T22:43:50.000Z</time></trkpt>
        <trkpt lat="28.017729" lon="105.620448"><ele>1202.9</ele><time>2025-11-21T22:43:51.000Z</time></trkpt>
        <trkpt lat="28.017719" lon="105.620457"><ele>1202.9</ele><time>2025-11-21T22:43:52.000Z</time></trkpt>
        <trkpt lat="28.017708" lon="105.620466"><ele>1202.9</ele><time>2025-11-21T22:43:53.000Z</time></trkpt>
        <trkpt lat="28.017698" lon="105.620475"><ele>1202.9</ele><time>2025-11-21T22:43:54.000Z</time></trkpt>
        <trkpt lat="28.017688" lon="105.620484"><ele>1202.9</ele><time>2025-11-21T22:43:55.000Z</time></trkpt>
        <trkpt lat="28.017678" lon="105.620491"><ele>1202.9</ele><time>2025-11-21T22:43:56.000Z</time></trkpt>
        <trkpt lat="28.017668" lon="105.620499"><ele>1202.9</ele><time>2025-11-21T22:43:57.000Z</time></trkpt>
        <trkpt lat="28.017658" lon="105.620506"><ele>1202.9</ele><time>2025-11-21T22:43:58.000Z</time></trkpt>
        <trkpt lat="28.017648" lon="105.620513"><ele>1202.9</ele><time>2025-11-21T22:43:59.000Z</time></trkpt>
        <trkpt lat="28.017638" lon="105.620518"><ele>1202.9</ele><time>2025-11-21T22:44:00.000Z</time></trkpt>
        <trkpt lat="28.017628" lon="105.620524"><ele>1203.1</ele><time>2025-11-21T22:44:01.000Z</time></trkpt>
        <trkpt lat="28.017619" lon="105.62053"><ele>1203.1</ele><time>2025-11-21T22:44:02.000Z</time></trkpt>
        <trkpt lat="28.017609" lon="105.620538"><ele>1203.1</ele><time>2025-11-21T22:44:03.000Z</time></trkpt>
        <trkpt lat="28.017601" lon="105.620545"><ele>1203.1</ele><time>2025-11-21T22:44:04.000Z</time></trkpt>
        <trkpt lat="28.017592" lon="105.620553"><ele>1203.1</ele><time>2025-11-21T22:44:05.000Z</time></trkpt>
        <trkpt lat="28.017583" lon="105.620561"><ele>1203.3</ele><time>2025-11-21T22:44:06.000Z</time></trkpt>
        <trkpt lat="28.017574" lon="105.620568"><ele>1203.3</ele><time>2025-11-21T22:44:07.000Z</time></trkpt>
        <trkpt lat="28.017566" lon="105.620574"><ele>1203.3</ele><time>2025-11-21T22:44:08.000Z</time></trkpt>
        <trkpt lat="28.017559" lon="105.620582"><ele>1203.3</ele><time>2025-11-21T22:44:09.000Z</time></trkpt>
        <trkpt lat="28.017552" lon="105.620591"><ele>1203.3</ele><time>2025-11-21T22:44:10.000Z</time></trkpt>
        <trkpt lat="28.017545" lon="105.620601"><ele>1203.3</ele><time>2025-11-21T22:44:11.000Z</time></trkpt>
        <trkpt lat="28.017537" lon="105.620611"><ele>1203.3</ele><time>2025-11-21T22:44:12.000Z</time></trkpt>
        <trkpt lat="28.017528" lon="105.620621"><ele>1203.3</ele><time>2025-11-21T22:44:13.000Z</time></trkpt>
        <trkpt lat="28.017519" lon="105.62063"><ele>1203.3</ele><time>2025-11-21T22:44:14.000Z</time></trkpt>
        <trkpt lat="28.01751" lon="105.620638"><ele>1203.3</ele><time>2025-11-21T22:44:15.000Z</time></trkpt>
        <trkpt lat="28.017501" lon="105.620644"><ele>1203.5</ele><time>2025-11-21T22:44:16.000Z</time></trkpt>
        <trkpt lat="28.017492" lon="105.620651"><ele>1203.5</ele><time>2025-11-21T22:44:17.000Z</time></trkpt>
        <trkpt lat="28.017485" lon="105.620657"><ele>1203.5</ele><time>2025-11-21T22:44:18.000Z</time></trkpt>
        <trkpt lat="28.017477" lon="105.620664"><ele>1203.5</ele><time>2025-11-21T22:44:19.000Z</time></trkpt>
        <trkpt lat="28.017469" lon="105.62067"><ele>1203.5</ele><time>2025-11-21T22:44:20.000Z</time></trkpt>
        <trkpt lat="28.01746" lon="105.620677"><ele>1203.5</ele><time>2025-11-21T22:44:21.000Z</time></trkpt>
        <trkpt lat="28.01745" lon="105.620684"><ele>1203.5</ele><time>2025-11-21T22:44:22.000Z</time></trkpt>
        <trkpt lat="28.017441" lon="105.620691"><ele>1203.5</ele><time>2025-11-21T22:44:23.000Z</time></trkpt>
        <trkpt lat="28.017431" lon="105.620699"><ele>1203.5</ele><time>2025-11-21T22:44:24.000Z</time></trkpt>
        <trkpt lat="28.017423" lon="105.620707"><ele>1203.5</ele><time>2025-11-21T22:44:25.000Z</time></trkpt>
        <trkpt lat="28.017416" lon="105.620717"><ele>1203.5</ele><time>2025-11-21T22:44:26.000Z</time></trkpt>
        <trkpt lat="28.01741" lon="105.620728"><ele>1203.5</ele><time>2025-11-21T22:44:27.000Z</time></trkpt>
        <trkpt lat="28.017404" lon="105.620739"><ele>1203.5</ele><time>2025-11-21T22:44:28.000Z</time></trkpt>
        <trkpt lat="28.017397" lon="105.62075"><ele>1203.5</ele><time>2025-11-21T22:44:29.000Z</time></trkpt>
        <trkpt lat="28.017392" lon="105.62076"><ele>1203.5</ele><time>2025-11-21T22:44:30.000Z</time></trkpt>
        <trkpt lat="28.017386" lon="105.620769"><ele>1203.5</ele><time>2025-11-21T22:44:31.000Z</time></trkpt>
        <trkpt lat="28.017379" lon="105.620779"><ele>1203.5</ele><time>2025-11-21T22:44:32.000Z</time></trkpt>
        <trkpt lat="28.017373" lon="105.620788"><ele>1203.5</ele><time>2025-11-21T22:44:33.000Z</time></trkpt>
        <trkpt lat="28.017366" lon="105.620797"><ele>1203.5</ele><time>2025-11-21T22:44:34.000Z</time></trkpt>
        <trkpt lat="28.017359" lon="105.620806"><ele>1203.5</ele><time>2025-11-21T22:44:35.000Z</time></trkpt>
        <trkpt lat="28.017351" lon="105.620814"><ele>1203.7</ele><time>2025-11-21T22:44:36.000Z</time></trkpt>
        <trkpt lat="28.017343" lon="105.620821"><ele>1203.7</ele><time>2025-11-21T22:44:37.000Z</time></trkpt>
        <trkpt lat="28.017333" lon="105.620828"><ele>1203.7</ele><time>2025-11-21T22:44:38.000Z</time></trkpt>
        <trkpt lat="28.017324" lon="105.620834"><ele>1203.7</ele><time>2025-11-21T22:44:39.000Z</time></trkpt>
        <trkpt lat="28.017315" lon="105.620839"><ele>1203.7</ele><time>2025-11-21T22:44:40.000Z</time></trkpt>
        <trkpt lat="28.017305" lon="105.620845"><ele>1203.7</ele><time>2025-11-21T22:44:41.000Z</time></trkpt>
        <trkpt lat="28.017294" lon="105.620851"><ele>1203.7</ele><time>2025-11-21T22:44:42.000Z</time></trkpt>
        <trkpt lat="28.017283" lon="105.620856"><ele>1203.7</ele><time>2025-11-21T22:44:43.000Z</time></trkpt>
        <trkpt lat="28.017272" lon="105.620862"><ele>1203.7</ele><time>2025-11-21T22:44:44.000Z</time></trkpt>
        <trkpt lat="28.01726" lon="105.620867"><ele>1203.7</ele><time>2025-11-21T22:44:45.000Z</time></trkpt>
        <trkpt lat="28.017248" lon="105.620872"><ele>1203.7</ele><time>2025-11-21T22:44:46.000Z</time></trkpt>
        <trkpt lat="28.017236" lon="105.620879"><ele>1203.7</ele><time>2025-11-21T22:44:47.000Z</time></trkpt>
        <trkpt lat="28.017224" lon="105.620885"><ele>1203.7</ele><time>2025-11-21T22:44:48.000Z</time></trkpt>
        <trkpt lat="28.017213" lon="105.620891"><ele>1203.7</ele><time>2025-11-21T22:44:49.000Z</time></trkpt>
        <trkpt lat="28.017201" lon="105.620898"><ele>1203.7</ele><time>2025-11-21T22:44:50.000Z</time></trkpt>
        <trkpt lat="28.01719" lon="105.620904"><ele>1203.7</ele><time>2025-11-21T22:44:51.000Z</time></trkpt>
        <trkpt lat="28.01718" lon="105.620911"><ele>1203.7</ele><time>2025-11-21T22:44:52.000Z</time></trkpt>
        <trkpt lat="28.01717" lon="105.620917"><ele>1203.7</ele><time>2025-11-21T22:44:53.000Z</time></trkpt>
        <trkpt lat="28.017159" lon="105.620924"><ele>1203.7</ele><time>2025-11-21T22:44:54.000Z</time></trkpt>
        <trkpt lat="28.017149" lon="105.62093"><ele>1203.7</ele><time>2025-11-21T22:44:55.000Z</time></trkpt>
        <trkpt lat="28.01714" lon="105.620937"><ele>1203.7</ele><time>2025-11-21T22:44:56.000Z</time></trkpt>
        <trkpt lat="28.01713" lon="105.620944"><ele>1203.7</ele><time>2025-11-21T22:44:57.000Z</time></trkpt>
        <trkpt lat="28.017121" lon="105.620952"><ele>1203.7</ele><time>2025-11-21T22:44:58.000Z</time></trkpt>
        <trkpt lat="28.017113" lon="105.62096"><ele>1203.7</ele><time>2025-11-21T22:44:59.000Z</time></trkpt>
        <trkpt lat="28.017106" lon="105.620966"><ele>1203.7</ele><time>2025-11-21T22:45:00.000Z</time></trkpt>
        <trkpt lat="28.017098" lon="105.62097"><ele>1203.7</ele><time>2025-11-21T22:45:01.000Z</time></trkpt>
        <trkpt lat="28.017089" lon="105.620971"><ele>1203.7</ele><time>2025-11-21T22:45:02.000Z</time></trkpt>
        <trkpt lat="28.01708" lon="105.62097"><ele>1203.7</ele><time>2025-11-21T22:45:03.000Z</time></trkpt>
        <trkpt lat="28.017071" lon="105.620968"><ele>1203.7</ele><time>2025-11-21T22:45:04.000Z</time></trkpt>
        <trkpt lat="28.01706" lon="105.620966"><ele>1203.7</ele><time>2025-11-21T22:45:05.000Z</time></trkpt>
        <trkpt lat="28.01705" lon="105.620963"><ele>1203.7</ele><time>2025-11-21T22:45:06.000Z</time></trkpt>
        <trkpt lat="28.01704" lon="105.62096"><ele>1203.7</ele><time>2025-11-21T22:45:07.000Z</time></trkpt>
        <trkpt lat="28.01703" lon="105.620956"><ele>1203.7</ele><time>2025-11-21T22:45:08.000Z</time></trkpt>
        <trkpt lat="28.017022" lon="105.620953"><ele>1203.7</ele><time>2025-11-21T22:45:09.000Z</time></trkpt>
        <trkpt lat="28.017014" lon="105.620948"><ele>1203.7</ele><time>2025-11-21T22:45:10.000Z</time></trkpt>
        <trkpt lat="28.017006" lon="105.620943"><ele>1203.7</ele><time>2025-11-21T22:45:11.000Z</time></trkpt>
        <trkpt lat="28.016999" lon="105.620938"><ele>1203.7</ele><time>2025-11-21T22:45:12.000Z</time></trkpt>
        <trkpt lat="28.016991" lon="105.620933"><ele>1203.7</ele><time>2025-11-21T22:45:13.000Z</time></trkpt>
        <trkpt lat="28.016982" lon="105.620929"><ele>1203.7</ele><time>2025-11-21T22:45:14.000Z</time></trkpt>
        <trkpt lat="28.016973" lon="105.620927"><ele>1203.7</ele><time>2025-11-21T22:45:15.000Z</time></trkpt>
        <trkpt lat="28.016963" lon="105.620926"><ele>1203.7</ele><time>2025-11-21T22:45:16.000Z</time></trkpt>
        <trkpt lat="28.016952" lon="105.620927"><ele>1203.7</ele><time>2025-11-21T22:45:17.000Z</time></trkpt>
        <trkpt lat="28.016941" lon="105.620927"><ele>1203.7</ele><time>2025-11-21T22:45:18.000Z</time></trkpt>
        <trkpt lat="28.01693" lon="105.620929"><ele>1203.7</ele><time>2025-11-21T22:45:19.000Z</time></trkpt>
        <trkpt lat="28.01692" lon="105.620929"><ele>1203.7</ele><time>2025-11-21T22:45:20.000Z</time></trkpt>
        <trkpt lat="28.016909" lon="105.620928"><ele>1203.7</ele><time>2025-11-21T22:45:21.000Z</time></trkpt>
        <trkpt lat="28.016899" lon="105.620927"><ele>1203.7</ele><time>2025-11-21T22:45:22.000Z</time></trkpt>
        <trkpt lat="28.016889" lon="105.620926"><ele>1203.7</ele><time>2025-11-21T22:45:23.000Z</time></trkpt>
        <trkpt lat="28.016879" lon="105.620924"><ele>1203.7</ele><time>2025-11-21T22:45:24.000Z</time></trkpt>
        <trkpt lat="28.016869" lon="105.620922"><ele>1203.7</ele><time>2025-11-21T22:45:25.000Z</time></trkpt>
        <trkpt lat="28.016859" lon="105.620921"><ele>1203.7</ele><time>2025-11-21T22:45:26.000Z</time></trkpt>
        <trkpt lat="28.016848" lon="105.62092"><ele>1203.7</ele><time>2025-11-21T22:45:27.000Z</time></trkpt>
        <trkpt lat="28.016837" lon="105.62092"><ele>1203.7</ele><time>2025-11-21T22:45:28.000Z</time></trkpt>
        <trkpt lat="28.016826" lon="105.62092"><ele>1203.7</ele><time>2025-11-21T22:45:29.000Z</time></trkpt>
        <trkpt lat="28.016815" lon="105.620921"><ele>1203.7</ele><time>2025-11-21T22:45:30.000Z</time></trkpt>
        <trkpt lat="28.016805" lon="105.620922"><ele>1203.7</ele><time>2025-11-21T22:45:31.000Z</time></trkpt>
        <trkpt lat="28.016796" lon="105.620922"><ele>1203.7</ele><time>2025-11-21T22:45:32.000Z</time></trkpt>
        <trkpt lat="28.016787" lon="105.620922"><ele>1203.7</ele><time>2025-11-21T22:45:33.000Z</time></trkpt>
        <trkpt lat="28.016778" lon="105.620922"><ele>1203.7</ele><time>2025-11-21T22:45:34.000Z</time></trkpt>
        <trkpt lat="28.016772" lon="105.620922"><ele>1203.7</ele><time>2025-11-21T22:45:35.000Z</time></trkpt>
        <trkpt lat="28.016767" lon="105.620921"><ele>1203.7</ele><time>2025-11-21T22:45:36.000Z</time></trkpt>
        <trkpt lat="28.016763" lon="105.620922"><ele>1203.7</ele><time>2025-11-21T22:45:37.000Z</time></trkpt>
        <trkpt lat="28.016762" lon="105.620922"><ele>1203.7</ele><time>2025-11-21T22:45:38.000Z</time></trkpt>
        <trkpt lat="28.016761" lon="105.620922"><ele>1203.7</ele><time>2025-11-21T22:45:39.000Z</time></trkpt>
        <trkpt lat="28.016761" lon="105.620922"><ele>1203.7</ele><time>2025-11-21T22:45:40.000Z</time></trkpt>
        <trkpt lat="28.01676" lon="105.620923"><ele>1203.7</ele><time>2025-11-21T22:45:41.000Z</time></trkpt>
        <trkpt lat="28.01676" lon="105.620923"><ele>1203.7</ele><time>2025-11-21T22:45:42.000Z</time></trkpt>
        <trkpt lat="28.01676" lon="105.620923"><ele>1203.7</ele><time>2025-11-21T22:45:43.000Z</time></trkpt>
        <trkpt lat="28.01676" lon="105.620924"><ele>1203.7</ele><time>2025-11-21T22:45:44.000Z</time></trkpt>
        <trkpt lat="28.01676" lon="105.620924"><ele>1203.7</ele><time>2025-11-21T22:45:45.000Z</time></trkpt>
        <trkpt lat="28.016759" lon="105.620924"><ele>1203.7</ele><time>2025-11-21T22:45:46.000Z</time></trkpt>
        <trkpt lat="28.016759" lon="105.620924"><ele>1203.7</ele><time>2025-11-21T22:45:47.000Z</time></trkpt>
        <trkpt lat="28.016758" lon="105.620924"><ele>1203.7</ele><time>2025-11-21T22:45:48.000Z</time></trkpt>
        <trkpt lat="28.016757" lon="105.620923"><ele>1203.7</ele><time>2025-11-21T22:45:49.000Z</time></trkpt>
        <trkpt lat="28.016754" lon="105.620919"><ele>1203.7</ele><time>2025-11-21T22:45:50.000Z</time></trkpt>
        <trkpt lat="28.01675" lon="105.620914"><ele>1203.7</ele><time>2025-11-21T22:45:51.000Z</time></trkpt>
        <trkpt lat="28.016745" lon="105.620906"><ele>1203.7</ele><time>2025-11-21T22:45:52.000Z</time></trkpt>
        <trkpt lat="28.016739" lon="105.620896"><ele>1203.7</ele><time>2025-11-21T22:45:53.000Z</time></trkpt>
        <trkpt lat="28.016732" lon="105.620886"><ele>1203.7</ele><time>2025-11-21T22:45:54.000Z</time></trkpt>
        <trkpt lat="28.016726" lon="105.620876"><ele>1203.7</ele><time>2025-11-21T22:45:55.000Z</time></trkpt>
        <trkpt lat="28.01672" lon="105.620866"><ele>1203.7</ele><time>2025-11-21T22:45:56.000Z</time></trkpt>
        <trkpt lat="28.016714" lon="105.620855"><ele>1203.7</ele><time>2025-11-21T22:45:57.000Z</time></trkpt>
        <trkpt lat="28.016708" lon="105.620845"><ele>1203.7</ele><time>2025-11-21T22:45:58.000Z</time></trkpt>
        <trkpt lat="28.016701" lon="105.620835"><ele>1203.7</ele><time>2025-11-21T22:45:59.000Z</time></trkpt>
        <trkpt lat="28.016694" lon="105.620824"><ele>1203.7</ele><time>2025-11-21T22:46:00.000Z</time></trkpt>
        <trkpt lat="28.016687" lon="105.620813"><ele>1203.7</ele><time>2025-11-21T22:46:01.000Z</time></trkpt>
        <trkpt lat="28.01668" lon="105.620803"><ele>1203.7</ele><time>2025-11-21T22:46:02.000Z</time></trkpt>
        <trkpt lat="28.016673" lon="105.620794"><ele>1203.7</ele><time>2025-11-21T22:46:03.000Z</time></trkpt>
        <trkpt lat="28.016666" lon="105.620785"><ele>1203.7</ele><time>2025-11-21T22:46:04.000Z</time></trkpt>
        <trkpt lat="28.016659" lon="105.620777"><ele>1203.7</ele><time>2025-11-21T22:46:05.000Z</time></trkpt>
        <trkpt lat="28.016653" lon="105.620769"><ele>1203.7</ele><time>2025-11-21T22:46:06.000Z</time></trkpt>
        <trkpt lat="28.016648" lon="105.620761"><ele>1203.7</ele><time>2025-11-21T22:46:07.000Z</time></trkpt>
        <trkpt lat="28.016643" lon="105.620752"><ele>1203.7</ele><time>2025-11-21T22:46:08.000Z</time></trkpt>
        <trkpt lat="28.016638" lon="105.620742"><ele>1203.7</ele><time>2025-11-21T22:46:09.000Z</time></trkpt>
        <trkpt lat="28.016634" lon="105.620731"><ele>1203.7</ele><time>2025-11-21T22:46:10.000Z</time></trkpt>
        <trkpt lat="28.016629" lon="105.62072"><ele>1203.7</ele><time>2025-11-21T22:46:11.000Z</time></trkpt>
        <trkpt lat="28.016624" lon="105.62071"><ele>1203.7</ele><time>2025-11-21T22:46:12.000Z</time></trkpt>
        <trkpt lat="28.01662" lon="105.6207"><ele>1203.7</ele><time>2025-11-21T22:46:13.000Z</time></trkpt>
        <trkpt lat="28.016616" lon="105.62069"><ele>1203.7</ele><time>2025-11-21T22:46:14.000Z</time></trkpt>
        <trkpt lat="28.016612" lon="105.620682"><ele>1203.7</ele><time>2025-11-21T22:46:15.000Z</time></trkpt>
        <trkpt lat="28.016609" lon="105.620674"><ele>1203.7</ele><time>2025-11-21T22:46:16.000Z</time></trkpt>
        <trkpt lat="28.016606" lon="105.620667"><ele>1203.7</ele><time>2025-11-21T22:46:17.000Z</time></trkpt>
        <trkpt lat="28.016602" lon="105.62066"><ele>1203.7</ele><time>2025-11-21T22:46:18.000Z</time></trkpt>
        <trkpt lat="28.016599" lon="105.620652"><ele>1203.7</ele><time>2025-11-21T22:46:19.000Z</time></trkpt>
        <trkpt lat="28.016595" lon="105.620644"><ele>1203.7</ele><time>2025-11-21T22:46:20.000Z</time></trkpt>
        <trkpt lat="28.016592" lon="105.620636"><ele>1203.7</ele><time>2025-11-21T22:46:21.000Z</time></trkpt>
        <trkpt lat="28.016589" lon="105.620627"><ele>1203.7</ele><time>2025-11-21T22:46:22.000Z</time></trkpt>
        <trkpt lat="28.016588" lon="105.620616"><ele>1203.7</ele><time>2025-11-21T22:46:23.000Z</time></trkpt>
        <trkpt lat="28.016587" lon="105.620605"><ele>1203.7</ele><time>2025-11-21T22:46:24.000Z</time></trkpt>
        <trkpt lat="28.016586" lon="105.620593"><ele>1203.7</ele><time>2025-11-21T22:46:25.000Z</time></trkpt>
        <trkpt lat="28.016585" lon="105.62058"><ele>1203.7</ele><time>2025-11-21T22:46:26.000Z</time></trkpt>
        <trkpt lat="28.016584" lon="105.620567"><ele>1203.7</ele><time>2025-11-21T22:46:27.000Z</time></trkpt>
        <trkpt lat="28.016581" lon="105.620555"><ele>1203.7</ele><time>2025-11-21T22:46:28.000Z</time></trkpt>
        <trkpt lat="28.016578" lon="105.620544"><ele>1203.7</ele><time>2025-11-21T22:46:29.000Z</time></trkpt>
        <trkpt lat="28.016574" lon="105.620534"><ele>1203.7</ele><time>2025-11-21T22:46:30.000Z</time></trkpt>
        <trkpt lat="28.016569" lon="105.620525"><ele>1203.7</ele><time>2025-11-21T22:46:31.000Z</time></trkpt>
        <trkpt lat="28.016565" lon="105.620516"><ele>1203.7</ele><time>2025-11-21T22:46:32.000Z</time></trkpt>
        <trkpt lat="28.016561" lon="105.620506"><ele>1203.7</ele><time>2025-11-21T22:46:33.000Z</time></trkpt>
        <trkpt lat="28.016557" lon="105.620496"><ele>1203.7</ele><time>2025-11-21T22:46:34.000Z</time></trkpt>
        <trkpt lat="28.016555" lon="105.620486"><ele>1203.7</ele><time>2025-11-21T22:46:35.000Z</time></trkpt>
        <trkpt lat="28.016554" lon="105.620475"><ele>1203.7</ele><time>2025-11-21T22:46:36.000Z</time></trkpt>
        <trkpt lat="28.016554" lon="105.620463"><ele>1203.7</ele><time>2025-11-21T22:46:37.000Z</time></trkpt>
        <trkpt lat="28.016555" lon="105.620453"><ele>1203.7</ele><time>2025-11-21T22:46:38.000Z</time></trkpt>
        <trkpt lat="28.016557" lon="105.620443"><ele>1203.7</ele><time>2025-11-21T22:46:39.000Z</time></trkpt>
        <trkpt lat="28.016558" lon="105.620437"><ele>1203.7</ele><time>2025-11-21T22:46:40.000Z</time></trkpt>
        <trkpt lat="28.01656" lon="105.620433"><ele>1203.7</ele><time>2025-11-21T22:46:41.000Z</time></trkpt>
        <trkpt lat="28.016561" lon="105.620432"><ele>1203.7</ele><time>2025-11-21T22:46:42.000Z</time></trkpt>
        <trkpt lat="28.016561" lon="105.620431"><ele>1203.7</ele><time>2025-11-21T22:46:43.000Z</time></trkpt>
        <trkpt lat="28.016561" lon="105.620432"><ele>1203.7</ele><time>2025-11-21T22:46:44.000Z</time></trkpt>
        <trkpt lat="28.01656" lon="105.620431"><ele>1203.7</ele><time>2025-11-21T22:46:45.000Z</time></trkpt>
        <trkpt lat="28.016559" lon="105.620428"><ele>1203.7</ele><time>2025-11-21T22:46:46.000Z</time></trkpt>
        <trkpt lat="28.016558" lon="105.620422"><ele>1203.7</ele><time>2025-11-21T22:46:47.000Z</time></trkpt>
        <trkpt lat="28.016555" lon="105.620415"><ele>1203.7</ele><time>2025-11-21T22:46:48.000Z</time></trkpt>
        <trkpt lat="28.016552" lon="105.620404"><ele>1203.7</ele><time>2025-11-21T22:46:49.000Z</time></trkpt>
        <trkpt lat="28.016549" lon="105.620393"><ele>1203.7</ele><time>2025-11-21T22:46:50.000Z</time></trkpt>
        <trkpt lat="28.016546" lon="105.620382"><ele>1203.7</ele><time>2025-11-21T22:46:51.000Z</time></trkpt>
        <trkpt lat="28.016544" lon="105.620371"><ele>1203.7</ele><time>2025-11-21T22:46:52.000Z</time></trkpt>
        <trkpt lat="28.016542" lon="105.620359"><ele>1203.7</ele><time>2025-11-21T22:46:53.000Z</time></trkpt>
        <trkpt lat="28.016541" lon="105.620347"><ele>1203.7</ele><time>2025-11-21T22:46:54.000Z</time></trkpt>
        <trkpt lat="28.016541" lon="105.620335"><ele>1203.7</ele><time>2025-11-21T22:46:55.000Z</time></trkpt>
        <trkpt lat="28.016541" lon="105.620323"><ele>1203.7</ele><time>2025-11-21T22:46:56.000Z</time></trkpt>
        <trkpt lat="28.01654" lon="105.620311"><ele>1203.7</ele><time>2025-11-21T22:46:57.000Z</time></trkpt>
        <trkpt lat="28.016537" lon="105.620299"><ele>1203.7</ele><time>2025-11-21T22:46:58.000Z</time></trkpt>
        <trkpt lat="28.016532" lon="105.620289"><ele>1203.7</ele><time>2025-11-21T22:46:59.000Z</time></trkpt>
        <trkpt lat="28.016525" lon="105.620278"><ele>1203.7</ele><time>2025-11-21T22:47:00.000Z</time></trkpt>
        <trkpt lat="28.016517" lon="105.620268"><ele>1203.7</ele><time>2025-11-21T22:47:01.000Z</time></trkpt>
        <trkpt lat="28.01651" lon="105.620258"><ele>1203.7</ele><time>2025-11-21T22:47:02.000Z</time></trkpt>
        <trkpt lat="28.016502" lon="105.620248"><ele>1203.7</ele><time>2025-11-21T22:47:03.000Z</time></trkpt>
        <trkpt lat="28.016496" lon="105.620238"><ele>1203.7</ele><time>2025-11-21T22:47:04.000Z</time></trkpt>
        <trkpt lat="28.016489" lon="105.620229"><ele>1203.7</ele><time>2025-11-21T22:47:05.000Z</time></trkpt>
        <trkpt lat="28.016483" lon="105.620219"><ele>1203.7</ele><time>2025-11-21T22:47:06.000Z</time></trkpt>
        <trkpt lat="28.016475" lon="105.620209"><ele>1203.7</ele><time>2025-11-21T22:47:07.000Z</time></trkpt>
        <trkpt lat="28.016467" lon="105.6202"><ele>1203.7</ele><time>2025-11-21T22:47:08.000Z</time></trkpt>
        <trkpt lat="28.016459" lon="105.620189"><ele>1203.7</ele><time>2025-11-21T22:47:09.000Z</time></trkpt>
        <trkpt lat="28.016451" lon="105.620179"><ele>1203.7</ele><time>2025-11-21T22:47:10.000Z</time></trkpt>
        <trkpt lat="28.016444" lon="105.620168"><ele>1203.7</ele><time>2025-11-21T22:47:11.000Z</time></trkpt>
        <trkpt lat="28.016437" lon="105.620157"><ele>1203.7</ele><time>2025-11-21T22:47:12.000Z</time></trkpt>
        <trkpt lat="28.016432" lon="105.620146"><ele>1203.7</ele><time>2025-11-21T22:47:13.000Z</time></trkpt>
        <trkpt lat="28.016426" lon="105.620135"><ele>1203.7</ele><time>2025-11-21T22:47:14.000Z</time></trkpt>
        <trkpt lat="28.016421" lon="105.620124"><ele>1203.7</ele><time>2025-11-21T22:47:15.000Z</time></trkpt>
        <trkpt lat="28.016414" lon="105.620115"><ele>1203.7</ele><time>2025-11-21T22:47:16.000Z</time></trkpt>
        <trkpt lat="28.016406" lon="105.620106"><ele>1203.7</ele><time>2025-11-21T22:47:17.000Z</time></trkpt>
        <trkpt lat="28.016398" lon="105.620098"><ele>1203.7</ele><time>2025-11-21T22:47:18.000Z</time></trkpt>
        <trkpt lat="28.016389" lon="105.620089"><ele>1203.7</ele><time>2025-11-21T22:47:19.000Z</time></trkpt>
        <trkpt lat="28.01638" lon="105.62008"><ele>1203.7</ele><time>2025-11-21T22:47:20.000Z</time></trkpt>
        <trkpt lat="28.016372" lon="105.62007"><ele>1203.7</ele><time>2025-11-21T22:47:21.000Z</time></trkpt>
        <trkpt lat="28.016365" lon="105.620059"><ele>1203.7</ele><time>2025-11-21T22:47:22.000Z</time></trkpt>
        <trkpt lat="28.016358" lon="105.620047"><ele>1203.7</ele><time>2025-11-21T22:47:23.000Z</time></trkpt>
        <trkpt lat="28.016352" lon="105.620036"><ele>1203.7</ele><time>2025-11-21T22:47:24.000Z</time></trkpt>
        <trkpt lat="28.016344" lon="105.620025"><ele>1203.7</ele><time>2025-11-21T22:47:25.000Z</time></trkpt>
        <trkpt lat="28.016336" lon="105.620014"><ele>1203.7</ele><time>2025-11-21T22:47:26.000Z</time></trkpt>
        <trkpt lat="28.016327" lon="105.620004"><ele>1203.7</ele><time>2025-11-21T22:47:27.000Z</time></trkpt>
        <trkpt lat="28.016318" lon="105.619994"><ele>1203.7</ele><time>2025-11-21T22:47:28.000Z</time></trkpt>
        <trkpt lat="28.016309" lon="105.619984"><ele>1203.7</ele><time>2025-11-21T22:47:29.000Z</time></trkpt>
        <trkpt lat="28.016301" lon="105.619974"><ele>1203.7</ele><time>2025-11-21T22:47:30.000Z</time></trkpt>
        <trkpt lat="28.016294" lon="105.619964"><ele>1203.7</ele><time>2025-11-21T22:47:31.000Z</time></trkpt>
        <trkpt lat="28.016287" lon="105.619954"><ele>1203.7</ele><time>2025-11-21T22:47:32.000Z</time></trkpt>
        <trkpt lat="28.01628" lon="105.619945"><ele>1203.7</ele><time>2025-11-21T22:47:33.000Z</time></trkpt>
        <trkpt lat="28.016273" lon="105.619937"><ele>1203.7</ele><time>2025-11-21T22:47:34.000Z</time></trkpt>
        <trkpt lat="28.016267" lon="105.619929"><ele>1203.7</ele><time>2025-11-21T22:47:35.000Z</time></trkpt>
        <trkpt lat="28.016259" lon="105.619921"><ele>1203.7</ele><time>2025-11-21T22:47:36.000Z</time></trkpt>
        <trkpt lat="28.016252" lon="105.619913"><ele>1203.7</ele><time>2025-11-21T22:47:37.000Z</time></trkpt>
        <trkpt lat="28.016244" lon="105.619905"><ele>1203.7</ele><time>2025-11-21T22:47:38.000Z</time></trkpt>
        <trkpt lat="28.016235" lon="105.619897"><ele>1203.7</ele><time>2025-11-21T22:47:39.000Z</time></trkpt>
        <trkpt lat="28.016226" lon="105.619889"><ele>1203.7</ele><time>2025-11-21T22:47:40.000Z</time></trkpt>
        <trkpt lat="28.016217" lon="105.619881"><ele>1203.7</ele><time>2025-11-21T22:47:41.000Z</time></trkpt>
        <trkpt lat="28.016208" lon="105.619873"><ele>1203.7</ele><time>2025-11-21T22:47:42.000Z</time></trkpt>
        <trkpt lat="28.016199" lon="105.619863"><ele>1203.7</ele><time>2025-11-21T22:47:43.000Z</time></trkpt>
        <trkpt lat="28.016191" lon="105.619853"><ele>1203.7</ele><time>2025-11-21T22:47:44.000Z</time></trkpt>
        <trkpt lat="28.016184" lon="105.619843"><ele>1203.7</ele><time>2025-11-21T22:47:45.000Z</time></trkpt>
        <trkpt lat="28.016176" lon="105.619832"><ele>1203.7</ele><time>2025-11-21T22:47:46.000Z</time></trkpt>
        <trkpt lat="28.016169" lon="105.619822"><ele>1203.7</ele><time>2025-11-21T22:47:47.000Z</time></trkpt>
        <trkpt lat="28.016162" lon="105.619812"><ele>1203.7</ele><time>2025-11-21T22:47:48.000Z</time></trkpt>
        <trkpt lat="28.016156" lon="105.619802"><ele>1203.7</ele><time>2025-11-21T22:47:49.000Z</time></trkpt>
        <trkpt lat="28.016149" lon="105.619792"><ele>1203.7</ele><time>2025-11-21T22:47:50.000Z</time></trkpt>
        <trkpt lat="28.016141" lon="105.619782"><ele>1203.7</ele><time>2025-11-21T22:47:51.000Z</time></trkpt>
        <trkpt lat="28.016134" lon="105.619771"><ele>1203.7</ele><time>2025-11-21T22:47:52.000Z</time></trkpt>
        <trkpt lat="28.016126" lon="105.61976"><ele>1203.7</ele><time>2025-11-21T22:47:53.000Z</time></trkpt>
        <trkpt lat="28.016118" lon="105.619748"><ele>1203.7</ele><time>2025-11-21T22:47:54.000Z</time></trkpt>
        <trkpt lat="28.01611" lon="105.619736"><ele>1203.7</ele><time>2025-11-21T22:47:55.000Z</time></trkpt>
        <trkpt lat="28.016102" lon="105.619725"><ele>1203.9</ele><time>2025-11-21T22:47:56.000Z</time></trkpt>
        <trkpt lat="28.016095" lon="105.619716"><ele>1203.9</ele><time>2025-11-21T22:47:57.000Z</time></trkpt>
        <trkpt lat="28.016087" lon="105.619707"><ele>1203.9</ele><time>2025-11-21T22:47:58.000Z</time></trkpt>
        <trkpt lat="28.01608" lon="105.619699"><ele>1203.9</ele><time>2025-11-21T22:47:59.000Z</time></trkpt>
        <trkpt lat="28.016073" lon="105.619691"><ele>1203.9</ele><time>2025-11-21T22:48:00.000Z</time></trkpt>
        <trkpt lat="28.016065" lon="105.619684"><ele>1203.9</ele><time>2025-11-21T22:48:01.000Z</time></trkpt>
        <trkpt lat="28.016057" lon="105.619676"><ele>1203.9</ele><time>2025-11-21T22:48:02.000Z</time></trkpt>
        <trkpt lat="28.016048" lon="105.619669"><ele>1203.9</ele><time>2025-11-21T22:48:03.000Z</time></trkpt>
        <trkpt lat="28.016038" lon="105.619662"><ele>1203.9</ele><time>2025-11-21T22:48:04.000Z</time></trkpt>
        <trkpt lat="28.016028" lon="105.619656"><ele>1203.9</ele><time>2025-11-21T22:48:05.000Z</time></trkpt>
        <trkpt lat="28.016019" lon="105.61965"><ele>1203.9</ele><time>2025-11-21T22:48:06.000Z</time></trkpt>
        <trkpt lat="28.016009" lon="105.619644"><ele>1203.9</ele><time>2025-11-21T22:48:07.000Z</time></trkpt>
        <trkpt lat="28.016001" lon="105.619637"><ele>1203.9</ele><time>2025-11-21T22:48:08.000Z</time></trkpt>
        <trkpt lat="28.015993" lon="105.619629"><ele>1203.9</ele><time>2025-11-21T22:48:09.000Z</time></trkpt>
        <trkpt lat="28.015985" lon="105.619621"><ele>1203.9</ele><time>2025-11-21T22:48:10.000Z</time></trkpt>
        <trkpt lat="28.015976" lon="105.619612"><ele>1203.9</ele><time>2025-11-21T22:48:11.000Z</time></trkpt>
        <trkpt lat="28.015968" lon="105.619603"><ele>1203.9</ele><time>2025-11-21T22:48:12.000Z</time></trkpt>
        <trkpt lat="28.015959" lon="105.619594"><ele>1203.9</ele><time>2025-11-21T22:48:13.000Z</time></trkpt>
        <trkpt lat="28.015951" lon="105.619585"><ele>1203.9</ele><time>2025-11-21T22:48:14.000Z</time></trkpt>
        <trkpt lat="28.015943" lon="105.619576"><ele>1203.9</ele><time>2025-11-21T22:48:15.000Z</time></trkpt>
        <trkpt lat="28.015935" lon="105.619567"><ele>1203.9</ele><time>2025-11-21T22:48:16.000Z</time></trkpt>
        <trkpt lat="28.015926" lon="105.619558"><ele>1203.9</ele><time>2025-11-21T22:48:17.000Z</time></trkpt>
        <trkpt lat="28.015917" lon="105.619551"><ele>1203.9</ele><time>2025-11-21T22:48:18.000Z</time></trkpt>
        <trkpt lat="28.015908" lon="105.619543"><ele>1203.9</ele><time>2025-11-21T22:48:19.000Z</time></trkpt>
        <trkpt lat="28.015898" lon="105.619536"><ele>1203.9</ele><time>2025-11-21T22:48:20.000Z</time></trkpt>
        <trkpt lat="28.015889" lon="105.619527"><ele>1203.9</ele><time>2025-11-21T22:48:21.000Z</time></trkpt>
        <trkpt lat="28.015881" lon="105.619518"><ele>1203.9</ele><time>2025-11-21T22:48:22.000Z</time></trkpt>
        <trkpt lat="28.015874" lon="105.619507"><ele>1203.9</ele><time>2025-11-21T22:48:23.000Z</time></trkpt>
        <trkpt lat="28.015868" lon="105.619496"><ele>1203.9</ele><time>2025-11-21T22:48:24.000Z</time></trkpt>
        <trkpt lat="28.015862" lon="105.619486"><ele>1203.9</ele><time>2025-11-21T22:48:25.000Z</time></trkpt>
        <trkpt lat="28.015856" lon="105.619476"><ele>1203.9</ele><time>2025-11-21T22:48:26.000Z</time></trkpt>
        <trkpt lat="28.01585" lon="105.619466"><ele>1203.9</ele><time>2025-11-21T22:48:27.000Z</time></trkpt>
        <trkpt lat="28.015843" lon="105.619456"><ele>1203.9</ele><time>2025-11-21T22:48:28.000Z</time></trkpt>
        <trkpt lat="28.015836" lon="105.619447"><ele>1203.9</ele><time>2025-11-21T22:48:29.000Z</time></trkpt>
        <trkpt lat="28.015828" lon="105.619438"><ele>1203.9</ele><time>2025-11-21T22:48:30.000Z</time></trkpt>
        <trkpt lat="28.015819" lon="105.61943"><ele>1203.9</ele><time>2025-11-21T22:48:31.000Z</time></trkpt>
        <trkpt lat="28.01581" lon="105.619422"><ele>1203.9</ele><time>2025-11-21T22:48:32.000Z</time></trkpt>
        <trkpt lat="28.0158" lon="105.619415"><ele>1203.9</ele><time>2025-11-21T22:48:33.000Z</time></trkpt>
        <trkpt lat="28.01579" lon="105.619408"><ele>1203.9</ele><time>2025-11-21T22:48:34.000Z</time></trkpt>
        <trkpt lat="28.01578" lon="105.619401"><ele>1203.9</ele><time>2025-11-21T22:48:35.000Z</time></trkpt>
        <trkpt lat="28.015769" lon="105.619395"><ele>1204.1</ele><time>2025-11-21T22:48:36.000Z</time></trkpt>
        <trkpt lat="28.01576" lon="105.619389"><ele>1204.1</ele><time>2025-11-21T22:48:37.000Z</time></trkpt>
        <trkpt lat="28.01575" lon="105.619382"><ele>1204.1</ele><time>2025-11-21T22:48:38.000Z</time></trkpt>
        <trkpt lat="28.015741" lon="105.619376"><ele>1204.1</ele><time>2025-11-21T22:48:39.000Z</time></trkpt>
        <trkpt lat="28.015732" lon="105.619369"><ele>1204.1</ele><time>2025-11-21T22:48:40.000Z</time></trkpt>
        <trkpt lat="28.015723" lon="105.619363"><ele>1204.1</ele><time>2025-11-21T22:48:41.000Z</time></trkpt>
        <trkpt lat="28.015714" lon="105.619355"><ele>1204.1</ele><time>2025-11-21T22:48:42.000Z</time></trkpt>
        <trkpt lat="28.015705" lon="105.619348"><ele>1204.1</ele><time>2025-11-21T22:48:43.000Z</time></trkpt>
        <trkpt lat="28.015696" lon="105.61934"><ele>1204.1</ele><time>2025-11-21T22:48:44.000Z</time></trkpt>
        <trkpt lat="28.015686" lon="105.619333"><ele>1204.1</ele><time>2025-11-21T22:48:45.000Z</time></trkpt>
        <trkpt lat="28.015677" lon="105.619325"><ele>1204.1</ele><time>2025-11-21T22:48:46.000Z</time></trkpt>
        <trkpt lat="28.015668" lon="105.619317"><ele>1204.1</ele><time>2025-11-21T22:48:47.000Z</time></trkpt>
        <trkpt lat="28.015659" lon="105.619309"><ele>1204.1</ele><time>2025-11-21T22:48:48.000Z</time></trkpt>
        <trkpt lat="28.015649" lon="105.6193"><ele>1204.1</ele><time>2025-11-21T22:48:49.000Z</time></trkpt>
        <trkpt lat="28.015639" lon="105.619292"><ele>1204.1</ele><time>2025-11-21T22:48:50.000Z</time></trkpt>
        <trkpt lat="28.015629" lon="105.619285"><ele>1204.1</ele><time>2025-11-21T22:48:51.000Z</time></trkpt>
        <trkpt lat="28.015618" lon="105.619279"><ele>1204.1</ele><time>2025-11-21T22:48:52.000Z</time></trkpt>
        <trkpt lat="28.015607" lon="105.619273"><ele>1204.1</ele><time>2025-11-21T22:48:53.000Z</time></trkpt>
        <trkpt lat="28.015595" lon="105.619268"><ele>1204.1</ele><time>2025-11-21T22:48:54.000Z</time></trkpt>
        <trkpt lat="28.015584" lon="105.619264"><ele>1204.1</ele><time>2025-11-21T22:48:55.000Z</time></trkpt>
        <trkpt lat="28.015573" lon="105.61926"><ele>1204.1</ele><time>2025-11-21T22:48:56.000Z</time></trkpt>
        <trkpt lat="28.015562" lon="105.619257"><ele>1204.1</ele><time>2025-11-21T22:48:57.000Z</time></trkpt>
        <trkpt lat="28.015551" lon="105.619254"><ele>1204.1</ele><time>2025-11-21T22:48:58.000Z</time></trkpt>
        <trkpt lat="28.015539" lon="105.619251"><ele>1204.1</ele><time>2025-11-21T22:48:59.000Z</time></trkpt>
        <trkpt lat="28.015527" lon="105.619248"><ele>1204.1</ele><time>2025-11-21T22:49:00.000Z</time></trkpt>
        <trkpt lat="28.015515" lon="105.619244"><ele>1204.1</ele><time>2025-11-21T22:49:01.000Z</time></trkpt>
        <trkpt lat="28.015504" lon="105.61924"><ele>1204.1</ele><time>2025-11-21T22:49:02.000Z</time></trkpt>
        <trkpt lat="28.015492" lon="105.619234"><ele>1204.1</ele><time>2025-11-21T22:49:03.000Z</time></trkpt>
        <trkpt lat="28.015482" lon="105.619228"><ele>1204.1</ele><time>2025-11-21T22:49:04.000Z</time></trkpt>
        <trkpt lat="28.015474" lon="105.619221"><ele>1204.1</ele><time>2025-11-21T22:49:05.000Z</time></trkpt>
        <trkpt lat="28.015465" lon="105.619213"><ele>1204.1</ele><time>2025-11-21T22:49:06.000Z</time></trkpt>
        <trkpt lat="28.015456" lon="105.619204"><ele>1204.1</ele><time>2025-11-21T22:49:07.000Z</time></trkpt>
        <trkpt lat="28.015448" lon="105.619195"><ele>1204.1</ele><time>2025-11-21T22:49:08.000Z</time></trkpt>
        <trkpt lat="28.015439" lon="105.619185"><ele>1204.1</ele><time>2025-11-21T22:49:09.000Z</time></trkpt>
        <trkpt lat="28.015431" lon="105.619176"><ele>1204.1</ele><time>2025-11-21T22:49:10.000Z</time></trkpt>
        <trkpt lat="28.015424" lon="105.619165"><ele>1204.1</ele><time>2025-11-21T22:49:11.000Z</time></trkpt>
        <trkpt lat="28.015416" lon="105.619154"><ele>1204.1</ele><time>2025-11-21T22:49:12.000Z</time></trkpt>
        <trkpt lat="28.015409" lon="105.619143"><ele>1204.1</ele><time>2025-11-21T22:49:13.000Z</time></trkpt>
        <trkpt lat="28.015402" lon="105.619132"><ele>1204.1</ele><time>2025-11-21T22:49:14.000Z</time></trkpt>
        <trkpt lat="28.015396" lon="105.619121"><ele>1204.1</ele><time>2025-11-21T22:49:15.000Z</time></trkpt>
        <trkpt lat="28.01539" lon="105.619111"><ele>1204.1</ele><time>2025-11-21T22:49:16.000Z</time></trkpt>
        <trkpt lat="28.015385" lon="105.6191"><ele>1204.1</ele><time>2025-11-21T22:49:17.000Z</time></trkpt>
        <trkpt lat="28.015379" lon="105.619091"><ele>1204.1</ele><time>2025-11-21T22:49:18.000Z</time></trkpt>
        <trkpt lat="28.015373" lon="105.619082"><ele>1204.1</ele><time>2025-11-21T22:49:19.000Z</time></trkpt>
        <trkpt lat="28.015367" lon="105.619073"><ele>1204.1</ele><time>2025-11-21T22:49:20.000Z</time></trkpt>
        <trkpt lat="28.015361" lon="105.619065"><ele>1204.3</ele><time>2025-11-21T22:49:21.000Z</time></trkpt>
        <trkpt lat="28.015353" lon="105.619057"><ele>1204.3</ele><time>2025-11-21T22:49:22.000Z</time></trkpt>
        <trkpt lat="28.015346" lon="105.619049"><ele>1204.3</ele><time>2025-11-21T22:49:23.000Z</time></trkpt>
        <trkpt lat="28.015338" lon="105.61904"><ele>1204.3</ele><time>2025-11-21T22:49:24.000Z</time></trkpt>
        <trkpt lat="28.015329" lon="105.619031"><ele>1204.3</ele><time>2025-11-21T22:49:25.000Z</time></trkpt>
        <trkpt lat="28.01532" lon="105.619021"><ele>1204.3</ele><time>2025-11-21T22:49:26.000Z</time></trkpt>
        <trkpt lat="28.015312" lon="105.619012"><ele>1204.3</ele><time>2025-11-21T22:49:27.000Z</time></trkpt>
        <trkpt lat="28.015304" lon="105.619003"><ele>1204.3</ele><time>2025-11-21T22:49:28.000Z</time></trkpt>
        <trkpt lat="28.015297" lon="105.618995"><ele>1204.3</ele><time>2025-11-21T22:49:29.000Z</time></trkpt>
        <trkpt lat="28.01529" lon="105.618986"><ele>1204.3</ele><time>2025-11-21T22:49:30.000Z</time></trkpt>
        <trkpt lat="28.015284" lon="105.618978"><ele>1204.3</ele><time>2025-11-21T22:49:31.000Z</time></trkpt>
        <trkpt lat="28.015278" lon="105.61897"><ele>1204.3</ele><time>2025-11-21T22:49:32.000Z</time></trkpt>
        <trkpt lat="28.015273" lon="105.618962"><ele>1204.3</ele><time>2025-11-21T22:49:33.000Z</time></trkpt>
        <trkpt lat="28.015267" lon="105.618953"><ele>1204.3</ele><time>2025-11-21T22:49:34.000Z</time></trkpt>
        <trkpt lat="28.015262" lon="105.618944"><ele>1204.3</ele><time>2025-11-21T22:49:35.000Z</time></trkpt>
        <trkpt lat="28.015256" lon="105.618935"><ele>1204.3</ele><time>2025-11-21T22:49:36.000Z</time></trkpt>
        <trkpt lat="28.01525" lon="105.618925"><ele>1204.3</ele><time>2025-11-21T22:49:37.000Z</time></trkpt>
        <trkpt lat="28.015245" lon="105.618913"><ele>1204.3</ele><time>2025-11-21T22:49:38.000Z</time></trkpt>
        <trkpt lat="28.015242" lon="105.618902"><ele>1204.3</ele><time>2025-11-21T22:49:39.000Z</time></trkpt>
        <trkpt lat="28.015239" lon="105.618891"><ele>1204.3</ele><time>2025-11-21T22:49:40.000Z</time></trkpt>
        <trkpt lat="28.015236" lon="105.618884"><ele>1204.3</ele><time>2025-11-21T22:49:41.000Z</time></trkpt>
        <trkpt lat="28.015234" lon="105.618875"><ele>1204.3</ele><time>2025-11-21T22:49:42.000Z</time></trkpt>
        <trkpt lat="28.015234" lon="105.618868"><ele>1204.3</ele><time>2025-11-21T22:49:43.000Z</time></trkpt>
        <trkpt lat="28.015234" lon="105.61886"><ele>1204.3</ele><time>2025-11-21T22:49:44.000Z</time></trkpt>
        <trkpt lat="28.015236" lon="105.618852"><ele>1204.3</ele><time>2025-11-21T22:49:45.000Z</time></trkpt>
        <trkpt lat="28.015239" lon="105.61884"><ele>1204.8</ele><time>2025-11-21T22:49:46.000Z</time></trkpt>
        <trkpt lat="28.015242" lon="105.61883"><ele>1204.8</ele><time>2025-11-21T22:49:47.000Z</time></trkpt>
        <trkpt lat="28.015244" lon="105.618819"><ele>1204.8</ele><time>2025-11-21T22:49:48.000Z</time></trkpt>
        <trkpt lat="28.015245" lon="105.618808"><ele>1204.8</ele><time>2025-11-21T22:49:49.000Z</time></trkpt>
        <trkpt lat="28.015246" lon="105.618796"><ele>1204.8</ele><time>2025-11-21T22:49:50.000Z</time></trkpt>
        <trkpt lat="28.015246" lon="105.618785"><ele>1205.1</ele><time>2025-11-21T22:49:51.000Z</time></trkpt>
        <trkpt lat="28.015245" lon="105.618773"><ele>1205.1</ele><time>2025-11-21T22:49:52.000Z</time></trkpt>
        <trkpt lat="28.015245" lon="105.618759"><ele>1205.1</ele><time>2025-11-21T22:49:53.000Z</time></trkpt>
        <trkpt lat="28.015244" lon="105.618745"><ele>1205.1</ele><time>2025-11-21T22:49:54.000Z</time></trkpt>
        <trkpt lat="28.015242" lon="105.618731"><ele>1205.1</ele><time>2025-11-21T22:49:55.000Z</time></trkpt>
        <trkpt lat="28.01524" lon="105.618717"><ele>1205.3</ele><time>2025-11-21T22:49:56.000Z</time></trkpt>
        <trkpt lat="28.015238" lon="105.618703"><ele>1205.3</ele><time>2025-11-21T22:49:57.000Z</time></trkpt>
        <trkpt lat="28.015236" lon="105.61869"><ele>1205.3</ele><time>2025-11-21T22:49:58.000Z</time></trkpt>
        <trkpt lat="28.015234" lon="105.618678"><ele>1205.3</ele><time>2025-11-21T22:49:59.000Z</time></trkpt>
        <trkpt lat="28.015232" lon="105.618666"><ele>1205.3</ele><time>2025-11-21T22:50:00.000Z</time></trkpt>
        <trkpt lat="28.015231" lon="105.618654"><ele>1205.3</ele><time>2025-11-21T22:50:01.000Z</time></trkpt>
        <trkpt lat="28.015228" lon="105.618643"><ele>1205.3</ele><time>2025-11-21T22:50:02.000Z</time></trkpt>
        <trkpt lat="28.015224" lon="105.618633"><ele>1205.3</ele><time>2025-11-21T22:50:03.000Z</time></trkpt>
        <trkpt lat="28.015221" lon="105.618623"><ele>1205.3</ele><time>2025-11-21T22:50:04.000Z</time></trkpt>
        <trkpt lat="28.015217" lon="105.618613"><ele>1205.3</ele><time>2025-11-21T22:50:05.000Z</time></trkpt>
        <trkpt lat="28.01521" lon="105.618603"><ele>1205.3</ele><time>2025-11-21T22:50:06.000Z</time></trkpt>
        <trkpt lat="28.015202" lon="105.618595"><ele>1205.3</ele><time>2025-11-21T22:50:07.000Z</time></trkpt>
        <trkpt lat="28.015191" lon="105.618589"><ele>1205.3</ele><time>2025-11-21T22:50:08.000Z</time></trkpt>
        <trkpt lat="28.015177" lon="105.618585"><ele>1205.3</ele><time>2025-11-21T22:50:09.000Z</time></trkpt>
        <trkpt lat="28.015163" lon="105.618582"><ele>1205.3</ele><time>2025-11-21T22:50:10.000Z</time></trkpt>
        <trkpt lat="28.015149" lon="105.61858"><ele>1205.3</ele><time>2025-11-21T22:50:11.000Z</time></trkpt>
        <trkpt lat="28.015135" lon="105.618577"><ele>1205.3</ele><time>2025-11-21T22:50:12.000Z</time></trkpt>
        <trkpt lat="28.015124" lon="105.618575"><ele>1205.3</ele><time>2025-11-21T22:50:13.000Z</time></trkpt>
        <trkpt lat="28.015113" lon="105.618572"><ele>1205.3</ele><time>2025-11-21T22:50:14.000Z</time></trkpt>
        <trkpt lat="28.0151" lon="105.618569"><ele>1205.3</ele><time>2025-11-21T22:50:15.000Z</time></trkpt>
        <trkpt lat="28.015088" lon="105.618565"><ele>1205.3</ele><time>2025-11-21T22:50:16.000Z</time></trkpt>
        <trkpt lat="28.015076" lon="105.618561"><ele>1205.3</ele><time>2025-11-21T22:50:17.000Z</time></trkpt>
        <trkpt lat="28.015064" lon="105.618555"><ele>1205.3</ele><time>2025-11-21T22:50:18.000Z</time></trkpt>
        <trkpt lat="28.015051" lon="105.618551"><ele>1205.3</ele><time>2025-11-21T22:50:19.000Z</time></trkpt>
        <trkpt lat="28.01504" lon="105.618548"><ele>1205.3</ele><time>2025-11-21T22:50:20.000Z</time></trkpt>
        <trkpt lat="28.015029" lon="105.618546"><ele>1205.3</ele><time>2025-11-21T22:50:21.000Z</time></trkpt>
        <trkpt lat="28.015018" lon="105.618545"><ele>1205.3</ele><time>2025-11-21T22:50:22.000Z</time></trkpt>
        <trkpt lat="28.015006" lon="105.618544"><ele>1205.3</ele><time>2025-11-21T22:50:23.000Z</time></trkpt>
        <trkpt lat="28.014996" lon="105.618542"><ele>1205.3</ele><time>2025-11-21T22:50:24.000Z</time></trkpt>
        <trkpt lat="28.014985" lon="105.61854"><ele>1205.3</ele><time>2025-11-21T22:50:25.000Z</time></trkpt>
        <trkpt lat="28.014975" lon="105.618537"><ele>1205.3</ele><time>2025-11-21T22:50:26.000Z</time></trkpt>
        <trkpt lat="28.014965" lon="105.618534"><ele>1205.3</ele><time>2025-11-21T22:50:27.000Z</time></trkpt>
        <trkpt lat="28.014956" lon="105.618531"><ele>1205.3</ele><time>2025-11-21T22:50:28.000Z</time></trkpt>
        <trkpt lat="28.014946" lon="105.618527"><ele>1205.3</ele><time>2025-11-21T22:50:29.000Z</time></trkpt>
        <trkpt lat="28.014938" lon="105.618523"><ele>1205.3</ele><time>2025-11-21T22:50:30.000Z</time></trkpt>
        <trkpt lat="28.014929" lon="105.618517"><ele>1205.3</ele><time>2025-11-21T22:50:31.000Z</time></trkpt>
        <trkpt lat="28.014921" lon="105.618511"><ele>1205.3</ele><time>2025-11-21T22:50:32.000Z</time></trkpt>
        <trkpt lat="28.014912" lon="105.618505"><ele>1205.3</ele><time>2025-11-21T22:50:33.000Z</time></trkpt>
        <trkpt lat="28.014903" lon="105.618498"><ele>1205.3</ele><time>2025-11-21T22:50:34.000Z</time></trkpt>
        <trkpt lat="28.014893" lon="105.618492"><ele>1205.3</ele><time>2025-11-21T22:50:35.000Z</time></trkpt>
        <trkpt lat="28.014883" lon="105.618487"><ele>1205.3</ele><time>2025-11-21T22:50:36.000Z</time></trkpt>
        <trkpt lat="28.014872" lon="105.618482"><ele>1205.3</ele><time>2025-11-21T22:50:37.000Z</time></trkpt>
        <trkpt lat="28.014861" lon="105.618477"><ele>1205.3</ele><time>2025-11-21T22:50:38.000Z</time></trkpt>
        <trkpt lat="28.014851" lon="105.61847"><ele>1205.3</ele><time>2025-11-21T22:50:39.000Z</time></trkpt>
        <trkpt lat="28.014842" lon="105.618463"><ele>1205.3</ele><time>2025-11-21T22:50:40.000Z</time></trkpt>
        <trkpt lat="28.014832" lon="105.618457"><ele>1205.3</ele><time>2025-11-21T22:50:41.000Z</time></trkpt>
        <trkpt lat="28.014823" lon="105.618452"><ele>1205.3</ele><time>2025-11-21T22:50:42.000Z</time></trkpt>
        <trkpt lat="28.014814" lon="105.618448"><ele>1205.3</ele><time>2025-11-21T22:50:43.000Z</time></trkpt>
        <trkpt lat="28.014804" lon="105.618444"><ele>1205.3</ele><time>2025-11-21T22:50:44.000Z</time></trkpt>
        <trkpt lat="28.014793" lon="105.61844"><ele>1205.3</ele><time>2025-11-21T22:50:45.000Z</time></trkpt>
        <trkpt lat="28.014783" lon="105.618435"><ele>1205.3</ele><time>2025-11-21T22:50:46.000Z</time></trkpt>
        <trkpt lat="28.014774" lon="105.61843"><ele>1205.3</ele><time>2025-11-21T22:50:47.000Z</time></trkpt>
        <trkpt lat="28.014764" lon="105.618425"><ele>1205.3</ele><time>2025-11-21T22:50:48.000Z</time></trkpt>
        <trkpt lat="28.014754" lon="105.61842"><ele>1205.3</ele><time>2025-11-21T22:50:49.000Z</time></trkpt>
        <trkpt lat="28.014744" lon="105.618417"><ele>1205.3</ele><time>2025-11-21T22:50:50.000Z</time></trkpt>
        <trkpt lat="28.014734" lon="105.618414"><ele>1205.3</ele><time>2025-11-21T22:50:51.000Z</time></trkpt>
        <trkpt lat="28.014724" lon="105.618411"><ele>1205.3</ele><time>2025-11-21T22:50:52.000Z</time></trkpt>
        <trkpt lat="28.014714" lon="105.618408"><ele>1205.3</ele><time>2025-11-21T22:50:53.000Z</time></trkpt>
        <trkpt lat="28.014704" lon="105.618405"><ele>1205.3</ele><time>2025-11-21T22:50:54.000Z</time></trkpt>
        <trkpt lat="28.014693" lon="105.618401"><ele>1205.3</ele><time>2025-11-21T22:50:55.000Z</time></trkpt>
        <trkpt lat="28.014684" lon="105.618396"><ele>1205.3</ele><time>2025-11-21T22:50:56.000Z</time></trkpt>
        <trkpt lat="28.014674" lon="105.61839"><ele>1205.3</ele><time>2025-11-21T22:50:57.000Z</time></trkpt>
        <trkpt lat="28.014664" lon="105.618385"><ele>1205.3</ele><time>2025-11-21T22:50:58.000Z</time></trkpt>
        <trkpt lat="28.014655" lon="105.61838"><ele>1205.3</ele><time>2025-11-21T22:50:59.000Z</time></trkpt>
        <trkpt lat="28.014646" lon="105.618375"><ele>1205.3</ele><time>2025-11-21T22:51:00.000Z</time></trkpt>
        <trkpt lat="28.014636" lon="105.61837"><ele>1205.5</ele><time>2025-11-21T22:51:01.000Z</time></trkpt>
        <trkpt lat="28.014625" lon="105.618366"><ele>1205.5</ele><time>2025-11-21T22:51:02.000Z</time></trkpt>
        <trkpt lat="28.014615" lon="105.618361"><ele>1205.5</ele><time>2025-11-21T22:51:03.000Z</time></trkpt>
        <trkpt lat="28.014605" lon="105.618356"><ele>1205.5</ele><time>2025-11-21T22:51:04.000Z</time></trkpt>
        <trkpt lat="28.014596" lon="105.618351"><ele>1205.5</ele><time>2025-11-21T22:51:05.000Z</time></trkpt>
        <trkpt lat="28.014588" lon="105.618346"><ele>1205.7</ele><time>2025-11-21T22:51:06.000Z</time></trkpt>
        <trkpt lat="28.014582" lon="105.618342"><ele>1205.7</ele><time>2025-11-21T22:51:07.000Z</time></trkpt>
        <trkpt lat="28.014576" lon="105.618337"><ele>1205.7</ele><time>2025-11-21T22:51:08.000Z</time></trkpt>
        <trkpt lat="28.014572" lon="105.618332"><ele>1205.7</ele><time>2025-11-21T22:51:09.000Z</time></trkpt>
        <trkpt lat="28.014567" lon="105.618329"><ele>1205.7</ele><time>2025-11-21T22:51:10.000Z</time></trkpt>
        <trkpt lat="28.014561" lon="105.618326"><ele>1206</ele><time>2025-11-21T22:51:11.000Z</time></trkpt>
        <trkpt lat="28.014554" lon="105.618323"><ele>1206</ele><time>2025-11-21T22:51:12.000Z</time></trkpt>
        <trkpt lat="28.014547" lon="105.618321"><ele>1206</ele><time>2025-11-21T22:51:13.000Z</time></trkpt>
        <trkpt lat="28.014537" lon="105.618319"><ele>1206</ele><time>2025-11-21T22:51:14.000Z</time></trkpt>
        <trkpt lat="28.014527" lon="105.618317"><ele>1206</ele><time>2025-11-21T22:51:15.000Z</time></trkpt>
        <trkpt lat="28.014516" lon="105.618314"><ele>1206</ele><time>2025-11-21T22:51:16.000Z</time></trkpt>
        <trkpt lat="28.014506" lon="105.618311"><ele>1206</ele><time>2025-11-21T22:51:17.000Z</time></trkpt>
        <trkpt lat="28.014496" lon="105.618307"><ele>1206</ele><time>2025-11-21T22:51:18.000Z</time></trkpt>
        <trkpt lat="28.014485" lon="105.618302"><ele>1206</ele><time>2025-11-21T22:51:19.000Z</time></trkpt>
        <trkpt lat="28.014475" lon="105.618296"><ele>1206</ele><time>2025-11-21T22:51:20.000Z</time></trkpt>
        <trkpt lat="28.014467" lon="105.61829"><ele>1206.2</ele><time>2025-11-21T22:51:21.000Z</time></trkpt>
        <trkpt lat="28.014458" lon="105.618284"><ele>1206.2</ele><time>2025-11-21T22:51:22.000Z</time></trkpt>
        <trkpt lat="28.014452" lon="105.618276"><ele>1206.2</ele><time>2025-11-21T22:51:23.000Z</time></trkpt>
        <trkpt lat="28.014447" lon="105.618269"><ele>1206.2</ele><time>2025-11-21T22:51:24.000Z</time></trkpt>
        <trkpt lat="28.014442" lon="105.618262"><ele>1206.2</ele><time>2025-11-21T22:51:25.000Z</time></trkpt>
        <trkpt lat="28.014438" lon="105.618255"><ele>1206.2</ele><time>2025-11-21T22:51:26.000Z</time></trkpt>
        <trkpt lat="28.014433" lon="105.61825"><ele>1206.2</ele><time>2025-11-21T22:51:27.000Z</time></trkpt>
        <trkpt lat="28.014428" lon="105.618244"><ele>1206.2</ele><time>2025-11-21T22:51:28.000Z</time></trkpt>
        <trkpt lat="28.014421" lon="105.618239"><ele>1206.2</ele><time>2025-11-21T22:51:29.000Z</time></trkpt>
        <trkpt lat="28.014414" lon="105.618234"><ele>1206.2</ele><time>2025-11-21T22:51:30.000Z</time></trkpt>
        <trkpt lat="28.014405" lon="105.618229"><ele>1206.4</ele><time>2025-11-21T22:51:31.000Z</time></trkpt>
        <trkpt lat="28.014396" lon="105.618223"><ele>1206.4</ele><time>2025-11-21T22:51:32.000Z</time></trkpt>
        <trkpt lat="28.014386" lon="105.618219"><ele>1206.4</ele><time>2025-11-21T22:51:33.000Z</time></trkpt>
        <trkpt lat="28.014376" lon="105.618213"><ele>1206.4</ele><time>2025-11-21T22:51:34.000Z</time></trkpt>
        <trkpt lat="28.014366" lon="105.618208"><ele>1206.4</ele><time>2025-11-21T22:51:35.000Z</time></trkpt>
        <trkpt lat="28.014357" lon="105.618204"><ele>1206.4</ele><time>2025-11-21T22:51:36.000Z</time></trkpt>
        <trkpt lat="28.014348" lon="105.618201"><ele>1206.4</ele><time>2025-11-21T22:51:37.000Z</time></trkpt>
        <trkpt lat="28.014338" lon="105.618199"><ele>1206.4</ele><time>2025-11-21T22:51:38.000Z</time></trkpt>
        <trkpt lat="28.014327" lon="105.618199"><ele>1206.4</ele><time>2025-11-21T22:51:39.000Z</time></trkpt>
        <trkpt lat="28.014317" lon="105.618198"><ele>1206.4</ele><time>2025-11-21T22:51:40.000Z</time></trkpt>
        <trkpt lat="28.014308" lon="105.618198"><ele>1206.6</ele><time>2025-11-21T22:51:41.000Z</time></trkpt>
        <trkpt lat="28.014298" lon="105.618197"><ele>1206.6</ele><time>2025-11-21T22:51:42.000Z</time></trkpt>
        <trkpt lat="28.014289" lon="105.618196"><ele>1206.6</ele><time>2025-11-21T22:51:43.000Z</time></trkpt>
        <trkpt lat="28.01428" lon="105.618194"><ele>1206.6</ele><time>2025-11-21T22:51:44.000Z</time></trkpt>
        <trkpt lat="28.01427" lon="105.618193"><ele>1206.6</ele><time>2025-11-21T22:51:45.000Z</time></trkpt>
        <trkpt lat="28.01426" lon="105.618191"><ele>1206.6</ele><time>2025-11-21T22:51:46.000Z</time></trkpt>
        <trkpt lat="28.014251" lon="105.618189"><ele>1206.6</ele><time>2025-11-21T22:51:47.000Z</time></trkpt>
        <trkpt lat="28.014242" lon="105.618186"><ele>1206.6</ele><time>2025-11-21T22:51:48.000Z</time></trkpt>
        <trkpt lat="28.014234" lon="105.618185"><ele>1206.6</ele><time>2025-11-21T22:51:49.000Z</time></trkpt>
        <trkpt lat="28.014225" lon="105.618183"><ele>1206.6</ele><time>2025-11-21T22:51:50.000Z</time></trkpt>
        <trkpt lat="28.014217" lon="105.618181"><ele>1206.6</ele><time>2025-11-21T22:51:51.000Z</time></trkpt>
        <trkpt lat="28.014209" lon="105.618178"><ele>1206.6</ele><time>2025-11-21T22:51:52.000Z</time></trkpt>
        <trkpt lat="28.0142" lon="105.618174"><ele>1206.6</ele><time>2025-11-21T22:51:53.000Z</time></trkpt>
        <trkpt lat="28.014191" lon="105.618169"><ele>1206.6</ele><time>2025-11-21T22:51:54.000Z</time></trkpt>
        <trkpt lat="28.014182" lon="105.618163"><ele>1206.6</ele><time>2025-11-21T22:51:55.000Z</time></trkpt>
        <trkpt lat="28.014172" lon="105.618157"><ele>1206.6</ele><time>2025-11-21T22:51:56.000Z</time></trkpt>
        <trkpt lat="28.014161" lon="105.618151"><ele>1206.6</ele><time>2025-11-21T22:51:57.000Z</time></trkpt>
        <trkpt lat="28.01415" lon="105.618146"><ele>1206.6</ele><time>2025-11-21T22:51:58.000Z</time></trkpt>
        <trkpt lat="28.014139" lon="105.618141"><ele>1206.6</ele><time>2025-11-21T22:51:59.000Z</time></trkpt>
        <trkpt lat="28.014129" lon="105.618136"><ele>1206.6</ele><time>2025-11-21T22:52:00.000Z</time></trkpt>
        <trkpt lat="28.014118" lon="105.618132"><ele>1206.6</ele><time>2025-11-21T22:52:01.000Z</time></trkpt>
        <trkpt lat="28.014107" lon="105.618128"><ele>1206.6</ele><time>2025-11-21T22:52:02.000Z</time></trkpt>
        <trkpt lat="28.014097" lon="105.618123"><ele>1206.6</ele><time>2025-11-21T22:52:03.000Z</time></trkpt>
        <trkpt lat="28.014087" lon="105.618119"><ele>1206.6</ele><time>2025-11-21T22:52:04.000Z</time></trkpt>
        <trkpt lat="28.014076" lon="105.618115"><ele>1206.6</ele><time>2025-11-21T22:52:05.000Z</time></trkpt>
        <trkpt lat="28.014066" lon="105.61811"><ele>1206.6</ele><time>2025-11-21T22:52:06.000Z</time></trkpt>
        <trkpt lat="28.014057" lon="105.618104"><ele>1206.6</ele><time>2025-11-21T22:52:07.000Z</time></trkpt>
        <trkpt lat="28.014048" lon="105.618097"><ele>1206.6</ele><time>2025-11-21T22:52:08.000Z</time></trkpt>
        <trkpt lat="28.01404" lon="105.61809"><ele>1206.6</ele><time>2025-11-21T22:52:09.000Z</time></trkpt>
        <trkpt lat="28.014034" lon="105.618083"><ele>1206.6</ele><time>2025-11-21T22:52:10.000Z</time></trkpt>
        <trkpt lat="28.014029" lon="105.618076"><ele>1206.6</ele><time>2025-11-21T22:52:11.000Z</time></trkpt>
        <trkpt lat="28.014026" lon="105.618067"><ele>1206.6</ele><time>2025-11-21T22:52:12.000Z</time></trkpt>
        <trkpt lat="28.014022" lon="105.618059"><ele>1206.6</ele><time>2025-11-21T22:52:13.000Z</time></trkpt>
        <trkpt lat="28.01402" lon="105.618051"><ele>1206.6</ele><time>2025-11-21T22:52:14.000Z</time></trkpt>
        <trkpt lat="28.014018" lon="105.618044"><ele>1206.6</ele><time>2025-11-21T22:52:15.000Z</time></trkpt>
        <trkpt lat="28.014015" lon="105.618039"><ele>1206.8</ele><time>2025-11-21T22:52:16.000Z</time></trkpt>
        <trkpt lat="28.014012" lon="105.618034"><ele>1206.8</ele><time>2025-11-21T22:52:17.000Z</time></trkpt>
        <trkpt lat="28.01401" lon="105.618029"><ele>1206.8</ele><time>2025-11-21T22:52:18.000Z</time></trkpt>
        <trkpt lat="28.014008" lon="105.618024"><ele>1206.8</ele><time>2025-11-21T22:52:19.000Z</time></trkpt>
        <trkpt lat="28.014005" lon="105.618018"><ele>1206.8</ele><time>2025-11-21T22:52:20.000Z</time></trkpt>
        <trkpt lat="28.014004" lon="105.618011"><ele>1206.8</ele><time>2025-11-21T22:52:21.000Z</time></trkpt>
        <trkpt lat="28.014001" lon="105.618004"><ele>1206.8</ele><time>2025-11-21T22:52:22.000Z</time></trkpt>
        <trkpt lat="28.013998" lon="105.617998"><ele>1206.8</ele><time>2025-11-21T22:52:23.000Z</time></trkpt>
        <trkpt lat="28.013995" lon="105.617994"><ele>1206.8</ele><time>2025-11-21T22:52:24.000Z</time></trkpt>
        <trkpt lat="28.013991" lon="105.617991"><ele>1206.8</ele><time>2025-11-21T22:52:25.000Z</time></trkpt>
        <trkpt lat="28.013987" lon="105.617989"><ele>1206.8</ele><time>2025-11-21T22:52:26.000Z</time></trkpt>
        <trkpt lat="28.013985" lon="105.617986"><ele>1206.8</ele><time>2025-11-21T22:52:27.000Z</time></trkpt>
        <trkpt lat="28.013981" lon="105.617983"><ele>1206.8</ele><time>2025-11-21T22:52:28.000Z</time></trkpt>
        <trkpt lat="28.013979" lon="105.617979"><ele>1206.8</ele><time>2025-11-21T22:52:29.000Z</time></trkpt>
        <trkpt lat="28.013976" lon="105.617974"><ele>1206.8</ele><time>2025-11-21T22:52:30.000Z</time></trkpt>
        <trkpt lat="28.013973" lon="105.617969"><ele>1206.8</ele><time>2025-11-21T22:52:31.000Z</time></trkpt>
        <trkpt lat="28.013969" lon="105.617967"><ele>1206.8</ele><time>2025-11-21T22:52:32.000Z</time></trkpt>
        <trkpt lat="28.013965" lon="105.617964"><ele>1206.8</ele><time>2025-11-21T22:52:33.000Z</time></trkpt>
        <trkpt lat="28.013961" lon="105.617962"><ele>1206.8</ele><time>2025-11-21T22:52:34.000Z</time></trkpt>
        <trkpt lat="28.013957" lon="105.617961"><ele>1206.8</ele><time>2025-11-21T22:52:35.000Z</time></trkpt>
        <trkpt lat="28.013952" lon="105.617961"><ele>1206.8</ele><time>2025-11-21T22:52:36.000Z</time></trkpt>
        <trkpt lat="28.013949" lon="105.617962"><ele>1206.8</ele><time>2025-11-21T22:52:37.000Z</time></trkpt>
        <trkpt lat="28.013947" lon="105.617964"><ele>1206.8</ele><time>2025-11-21T22:52:38.000Z</time></trkpt>
        <trkpt lat="28.013945" lon="105.617965"><ele>1206.8</ele><time>2025-11-21T22:52:39.000Z</time></trkpt>
        <trkpt lat="28.013943" lon="105.617966"><ele>1206.8</ele><time>2025-11-21T22:52:40.000Z</time></trkpt>
        <trkpt lat="28.013944" lon="105.617964"><ele>1206.8</ele><time>2025-11-21T22:52:41.000Z</time></trkpt>
        <trkpt lat="28.013945" lon="105.617963"><ele>1206.8</ele><time>2025-11-21T22:52:42.000Z</time></trkpt>
        <trkpt lat="28.013946" lon="105.617962"><ele>1206.8</ele><time>2025-11-21T22:52:43.000Z</time></trkpt>
        <trkpt lat="28.013947" lon="105.617961"><ele>1206.8</ele><time>2025-11-21T22:52:44.000Z</time></trkpt>
        <trkpt lat="28.013949" lon="105.617961"><ele>1206.8</ele><time>2025-11-21T22:52:45.000Z</time></trkpt>
        <trkpt lat="28.013949" lon="105.617961"><ele>1206.8</ele><time>2025-11-21T22:52:46.000Z</time></trkpt>
        <trkpt lat="28.013946" lon="105.617959"><ele>1206.8</ele><time>2025-11-21T22:52:47.000Z</time></trkpt>
        <trkpt lat="28.013943" lon="105.617957"><ele>1206.8</ele><time>2025-11-21T22:52:48.000Z</time></trkpt>
        <trkpt lat="28.013939" lon="105.617953"><ele>1206.8</ele><time>2025-11-21T22:52:49.000Z</time></trkpt>
        <trkpt lat="28.013935" lon="105.617946"><ele>1206.8</ele><time>2025-11-21T22:52:50.000Z</time></trkpt>
        <trkpt lat="28.01393" lon="105.617941"><ele>1206.8</ele><time>2025-11-21T22:52:51.000Z</time></trkpt>
        <trkpt lat="28.013924" lon="105.617936"><ele>1206.8</ele><time>2025-11-21T22:52:52.000Z</time></trkpt>
        <trkpt lat="28.013916" lon="105.617932"><ele>1206.8</ele><time>2025-11-21T22:52:53.000Z</time></trkpt>
        <trkpt lat="28.013907" lon="105.617932"><ele>1206.8</ele><time>2025-11-21T22:52:54.000Z</time></trkpt>
        <trkpt lat="28.013896" lon="105.617934"><ele>1206.8</ele><time>2025-11-21T22:52:55.000Z</time></trkpt>
        <trkpt lat="28.013886" lon="105.617935"><ele>1206.8</ele><time>2025-11-21T22:52:56.000Z</time></trkpt>
        <trkpt lat="28.013874" lon="105.617937"><ele>1206.8</ele><time>2025-11-21T22:52:57.000Z</time></trkpt>
        <trkpt lat="28.013864" lon="105.61794"><ele>1206.8</ele><time>2025-11-21T22:52:58.000Z</time></trkpt>
        <trkpt lat="28.013854" lon="105.61794"><ele>1206.8</ele><time>2025-11-21T22:52:59.000Z</time></trkpt>
        <trkpt lat="28.013846" lon="105.617937"><ele>1206.8</ele><time>2025-11-21T22:53:00.000Z</time></trkpt>
        <trkpt lat="28.013836" lon="105.617935"><ele>1206.8</ele><time>2025-11-21T22:53:01.000Z</time></trkpt>
        <trkpt lat="28.013826" lon="105.617932"><ele>1206.8</ele><time>2025-11-21T22:53:02.000Z</time></trkpt>
        <trkpt lat="28.013816" lon="105.617928"><ele>1206.8</ele><time>2025-11-21T22:53:03.000Z</time></trkpt>
        <trkpt lat="28.013804" lon="105.617925"><ele>1206.8</ele><time>2025-11-21T22:53:04.000Z</time></trkpt>
        <trkpt lat="28.013792" lon="105.617925"><ele>1206.8</ele><time>2025-11-21T22:53:05.000Z</time></trkpt>
        <trkpt lat="28.013783" lon="105.617927"><ele>1206.8</ele><time>2025-11-21T22:53:06.000Z</time></trkpt>
        <trkpt lat="28.013775" lon="105.617929"><ele>1206.8</ele><time>2025-11-21T22:53:07.000Z</time></trkpt>
        <trkpt lat="28.01377" lon="105.617932"><ele>1206.8</ele><time>2025-11-21T22:53:08.000Z</time></trkpt>
        <trkpt lat="28.013767" lon="105.617935"><ele>1206.8</ele><time>2025-11-21T22:53:09.000Z</time></trkpt>
        <trkpt lat="28.013767" lon="105.617938"><ele>1206.8</ele><time>2025-11-21T22:53:10.000Z</time></trkpt>
        <trkpt lat="28.013767" lon="105.61794"><ele>1206.8</ele><time>2025-11-21T22:53:11.000Z</time></trkpt>
        <trkpt lat="28.013768" lon="105.617942"><ele>1206.8</ele><time>2025-11-21T22:53:12.000Z</time></trkpt>
        <trkpt lat="28.013768" lon="105.617942"><ele>1206.8</ele><time>2025-11-21T22:53:13.000Z</time></trkpt>
        <trkpt lat="28.013769" lon="105.617943"><ele>1206.8</ele><time>2025-11-21T22:53:14.000Z</time></trkpt>
        <trkpt lat="28.013769" lon="105.617944"><ele>1206.8</ele><time>2025-11-21T22:53:15.000Z</time></trkpt>
        <trkpt lat="28.013769" lon="105.617945"><ele>1206.8</ele><time>2025-11-21T22:53:16.000Z</time></trkpt>
        <trkpt lat="28.013769" lon="105.617946"><ele>1206.8</ele><time>2025-11-21T22:53:17.000Z</time></trkpt>
        <trkpt lat="28.013769" lon="105.617947"><ele>1206.8</ele><time>2025-11-21T22:53:18.000Z</time></trkpt>
        <trkpt lat="28.013769" lon="105.617948"><ele>1206.8</ele><time>2025-11-21T22:53:19.000Z</time></trkpt>
        <trkpt lat="28.013769" lon="105.617948"><ele>1206.8</ele><time>2025-11-21T22:53:20.000Z</time></trkpt>
        <trkpt lat="28.013769" lon="105.617949"><ele>1206.8</ele><time>2025-11-21T22:53:21.000Z</time></trkpt>
        <trkpt lat="28.013769" lon="105.61795"><ele>1206.8</ele><time>2025-11-21T22:53:22.000Z</time></trkpt>
        <trkpt lat="28.013769" lon="105.61795"><ele>1206.8</ele><time>2025-11-21T22:53:23.000Z</time></trkpt>
        <trkpt lat="28.01377" lon="105.617951"><ele>1206.8</ele><time>2025-11-21T22:53:24.000Z</time></trkpt>
        <trkpt lat="28.01377" lon="105.617951"><ele>1206.8</ele><time>2025-11-21T22:53:25.000Z</time></trkpt>
        <trkpt lat="28.01377" lon="105.617952"><ele>1206.8</ele><time>2025-11-21T22:53:26.000Z</time></trkpt>
        <trkpt lat="28.01377" lon="105.617952"><ele>1206.8</ele><time>2025-11-21T22:53:27.000Z</time></trkpt>
        <trkpt lat="28.01377" lon="105.617952"><ele>1206.8</ele><time>2025-11-21T22:53:28.000Z</time></trkpt>
        <trkpt lat="28.013771" lon="105.617951"><ele>1206.8</ele><time>2025-11-21T22:53:29.000Z</time></trkpt>
        <trkpt lat="28.013771" lon="105.617951"><ele>1206.8</ele><time>2025-11-21T22:53:30.000Z</time></trkpt>
        <trkpt lat="28.013772" lon="105.617951"><ele>1206.8</ele><time>2025-11-21T22:53:31.000Z</time></trkpt>
        <trkpt lat="28.013772" lon="105.61795"><ele>1206.8</ele><time>2025-11-21T22:53:32.000Z</time></trkpt>
        <trkpt lat="28.013773" lon="105.61795"><ele>1206.8</ele><time>2025-11-21T22:53:33.000Z</time></trkpt>
        <trkpt lat="28.013772" lon="105.61795"><ele>1206.8</ele><time>2025-11-21T22:53:34.000Z</time></trkpt>
        <trkpt lat="28.013772" lon="105.61795"><ele>1206.8</ele><time>2025-11-21T22:53:35.000Z</time></trkpt>
        <trkpt lat="28.013772" lon="105.61795"><ele>1206.8</ele><time>2025-11-21T22:53:36.000Z</time></trkpt>
        <trkpt lat="28.013772" lon="105.61795"><ele>1206.8</ele><time>2025-11-21T22:53:37.000Z</time></trkpt>
        <trkpt lat="28.013772" lon="105.61795"><ele>1206.8</ele><time>2025-11-21T22:53:38.000Z</time></trkpt>
        <trkpt lat="28.013772" lon="105.61795"><ele>1206.8</ele><time>2025-11-21T22:53:39.000Z</time></trkpt>
        <trkpt lat="28.013772" lon="105.617951"><ele>1206.8</ele><time>2025-11-21T22:53:40.000Z</time></trkpt>
        <trkpt lat="28.013771" lon="105.617951"><ele>1206.8</ele><time>2025-11-21T22:53:41.000Z</time></trkpt>
        <trkpt lat="28.013771" lon="105.617951"><ele>1206.8</ele><time>2025-11-21T22:53:42.000Z</time></trkpt>
        <trkpt lat="28.01377" lon="105.617951"><ele>1206.8</ele><time>2025-11-21T22:53:43.000Z</time></trkpt>
        <trkpt lat="28.01377" lon="105.617952"><ele>1206.8</ele><time>2025-11-21T22:53:44.000Z</time></trkpt>
        <trkpt lat="28.013769" lon="105.617951"><ele>1206.8</ele><time>2025-11-21T22:53:45.000Z</time></trkpt>
        <trkpt lat="28.013769" lon="105.617951"><ele>1206.8</ele><time>2025-11-21T22:53:46.000Z</time></trkpt>
        <trkpt lat="28.013769" lon="105.61795"><ele>1206.8</ele><time>2025-11-21T22:53:47.000Z</time></trkpt>
        <trkpt lat="28.013769" lon="105.617949"><ele>1206.8</ele><time>2025-11-21T22:53:48.000Z</time></trkpt>
        <trkpt lat="28.01377" lon="105.617946"><ele>1206.8</ele><time>2025-11-21T22:53:49.000Z</time></trkpt>
        <trkpt lat="28.01377" lon="105.617944"><ele>1206.8</ele><time>2025-11-21T22:53:50.000Z</time></trkpt>
        <trkpt lat="28.013769" lon="105.617942"><ele>1206.8</ele><time>2025-11-21T22:53:51.000Z</time></trkpt>
        <trkpt lat="28.013768" lon="105.61794"><ele>1206.8</ele><time>2025-11-21T22:53:52.000Z</time></trkpt>
        <trkpt lat="28.013766" lon="105.617938"><ele>1206.8</ele><time>2025-11-21T22:53:53.000Z</time></trkpt>
        <trkpt lat="28.013762" lon="105.617935"><ele>1206.8</ele><time>2025-11-21T22:53:54.000Z</time></trkpt>
        <trkpt lat="28.013757" lon="105.617932"><ele>1206.8</ele><time>2025-11-21T22:53:55.000Z</time></trkpt>
        <trkpt lat="28.013751" lon="105.617928"><ele>1206.8</ele><time>2025-11-21T22:53:56.000Z</time></trkpt>
        <trkpt lat="28.013743" lon="105.617925"><ele>1206.8</ele><time>2025-11-21T22:53:57.000Z</time></trkpt>
        <trkpt lat="28.013736" lon="105.617924"><ele>1206.8</ele><time>2025-11-21T22:53:58.000Z</time></trkpt>
        <trkpt lat="28.013729" lon="105.617924"><ele>1206.8</ele><time>2025-11-21T22:53:59.000Z</time></trkpt>
        <trkpt lat="28.013722" lon="105.617923"><ele>1206.8</ele><time>2025-11-21T22:54:00.000Z</time></trkpt>
        <trkpt lat="28.013714" lon="105.617921"><ele>1206.8</ele><time>2025-11-21T22:54:01.000Z</time></trkpt>
        <trkpt lat="28.013707" lon="105.61792"><ele>1206.8</ele><time>2025-11-21T22:54:02.000Z</time></trkpt>
        <trkpt lat="28.013699" lon="105.617915"><ele>1206.8</ele><time>2025-11-21T22:54:03.000Z</time></trkpt>
        <trkpt lat="28.013692" lon="105.617908"><ele>1206.8</ele><time>2025-11-21T22:54:04.000Z</time></trkpt>
        <trkpt lat="28.013687" lon="105.617901"><ele>1206.8</ele><time>2025-11-21T22:54:05.000Z</time></trkpt>
        <trkpt lat="28.01368" lon="105.617897"><ele>1206.8</ele><time>2025-11-21T22:54:06.000Z</time></trkpt>
        <trkpt lat="28.013675" lon="105.61789"><ele>1206.8</ele><time>2025-11-21T22:54:07.000Z</time></trkpt>
        <trkpt lat="28.01367" lon="105.617883"><ele>1206.8</ele><time>2025-11-21T22:54:08.000Z</time></trkpt>
        <trkpt lat="28.013666" lon="105.617878"><ele>1206.8</ele><time>2025-11-21T22:54:09.000Z</time></trkpt>
        <trkpt lat="28.01366" lon="105.617875"><ele>1206.8</ele><time>2025-11-21T22:54:10.000Z</time></trkpt>
        <trkpt lat="28.013654" lon="105.617871"><ele>1206.8</ele><time>2025-11-21T22:54:11.000Z</time></trkpt>
        <trkpt lat="28.013647" lon="105.617869"><ele>1206.8</ele><time>2025-11-21T22:54:12.000Z</time></trkpt>
        <trkpt lat="28.01364" lon="105.617868"><ele>1206.8</ele><time>2025-11-21T22:54:13.000Z</time></trkpt>
        <trkpt lat="28.013628" lon="105.617872"><ele>1206.8</ele><time>2025-11-21T22:54:14.000Z</time></trkpt>
        <trkpt lat="28.013612" lon="105.617868"><ele>1207.1</ele><time>2025-11-21T22:54:16.000Z</time></trkpt>
        <trkpt lat="28.013601" lon="105.61787"><ele>1207.1</ele><time>2025-11-21T22:54:17.000Z</time></trkpt>
        <trkpt lat="28.013593" lon="105.617869"><ele>1207.1</ele><time>2025-11-21T22:54:18.000Z</time></trkpt>
        <trkpt lat="28.013584" lon="105.61787"><ele>1207.1</ele><time>2025-11-21T22:54:19.000Z</time></trkpt>
        <trkpt lat="28.013575" lon="105.617869"><ele>1207.1</ele><time>2025-11-21T22:54:20.000Z</time></trkpt>
        <trkpt lat="28.013566" lon="105.61787"><ele>1207.1</ele><time>2025-11-21T22:54:21.000Z</time></trkpt>
        <trkpt lat="28.013557" lon="105.61787"><ele>1207.1</ele><time>2025-11-21T22:54:22.000Z</time></trkpt>
        <trkpt lat="28.013546" lon="105.617871"><ele>1207.1</ele><time>2025-11-21T22:54:23.000Z</time></trkpt>
        <trkpt lat="28.013536" lon="105.617871"><ele>1207.1</ele><time>2025-11-21T22:54:24.000Z</time></trkpt>
        <trkpt lat="28.013527" lon="105.617872"><ele>1207.1</ele><time>2025-11-21T22:54:25.000Z</time></trkpt>
        <trkpt lat="28.01352" lon="105.617872"><ele>1207.1</ele><time>2025-11-21T22:54:26.000Z</time></trkpt>
        <trkpt lat="28.013515" lon="105.617873"><ele>1207.1</ele><time>2025-11-21T22:54:27.000Z</time></trkpt>
        <trkpt lat="28.013511" lon="105.617874"><ele>1207.1</ele><time>2025-11-21T22:54:28.000Z</time></trkpt>
        <trkpt lat="28.013508" lon="105.617875"><ele>1207.1</ele><time>2025-11-21T22:54:29.000Z</time></trkpt>
        <trkpt lat="28.013506" lon="105.617877"><ele>1207.1</ele><time>2025-11-21T22:54:30.000Z</time></trkpt>
        <trkpt lat="28.013505" lon="105.617879"><ele>1206.9</ele><time>2025-11-21T22:54:31.000Z</time></trkpt>
        <trkpt lat="28.013504" lon="105.617881"><ele>1206.9</ele><time>2025-11-21T22:54:32.000Z</time></trkpt>
        <trkpt lat="28.013503" lon="105.617883"><ele>1206.9</ele><time>2025-11-21T22:54:33.000Z</time></trkpt>
        <trkpt lat="28.013503" lon="105.617884"><ele>1206.9</ele><time>2025-11-21T22:54:34.000Z</time></trkpt>
        <trkpt lat="28.013503" lon="105.617884"><ele>1206.9</ele><time>2025-11-21T22:54:35.000Z</time></trkpt>
        <trkpt lat="28.013503" lon="105.617884"><ele>1206.6</ele><time>2025-11-21T22:54:36.000Z</time></trkpt>
        <trkpt lat="28.013504" lon="105.617884"><ele>1206.6</ele><time>2025-11-21T22:54:37.000Z</time></trkpt>
        <trkpt lat="28.013505" lon="105.617884"><ele>1206.6</ele><time>2025-11-21T22:54:38.000Z</time></trkpt>
        <trkpt lat="28.013506" lon="105.617883"><ele>1206.6</ele><time>2025-11-21T22:54:39.000Z</time></trkpt>
        <trkpt lat="28.013507" lon="105.617883"><ele>1206.6</ele><time>2025-11-21T22:54:40.000Z</time></trkpt>
        <trkpt lat="28.013507" lon="105.617883"><ele>1206.5</ele><time>2025-11-21T22:54:41.000Z</time></trkpt>
        <trkpt lat="28.013507" lon="105.617883"><ele>1206.5</ele><time>2025-11-21T22:54:42.000Z</time></trkpt>
        <trkpt lat="28.013508" lon="105.617884"><ele>1206.5</ele><time>2025-11-21T22:54:43.000Z</time></trkpt>
        <trkpt lat="28.013508" lon="105.617884"><ele>1206.5</ele><time>2025-11-21T22:54:44.000Z</time></trkpt>
        <trkpt lat="28.013509" lon="105.617884"><ele>1206.5</ele><time>2025-11-21T22:54:45.000Z</time></trkpt>
        <trkpt lat="28.013512" lon="105.617884"><ele>1206.5</ele><time>2025-11-21T22:54:46.000Z</time></trkpt>
        <trkpt lat="28.013516" lon="105.617884"><ele>1206.5</ele><time>2025-11-21T22:54:47.000Z</time></trkpt>
        <trkpt lat="28.01352" lon="105.617884"><ele>1206.5</ele><time>2025-11-21T22:54:48.000Z</time></trkpt>
        <trkpt lat="28.013523" lon="105.617883"><ele>1206.5</ele><time>2025-11-21T22:54:49.000Z</time></trkpt>
        <trkpt lat="28.013527" lon="105.617883"><ele>1206.5</ele><time>2025-11-21T22:54:50.000Z</time></trkpt>
        <trkpt lat="28.013529" lon="105.617882"><ele>1206.5</ele><time>2025-11-21T22:54:51.000Z</time></trkpt>
        <trkpt lat="28.01353" lon="105.617881"><ele>1206.5</ele><time>2025-11-21T22:54:52.000Z</time></trkpt>
        <trkpt lat="28.01353" lon="105.617881"><ele>1206.5</ele><time>2025-11-21T22:54:53.000Z</time></trkpt>
        <trkpt lat="28.013531" lon="105.61788"><ele>1206.5</ele><time>2025-11-21T22:54:54.000Z</time></trkpt>
        <trkpt lat="28.013531" lon="105.61788"><ele>1206.5</ele><time>2025-11-21T22:54:55.000Z</time></trkpt>
        <trkpt lat="28.013531" lon="105.617881"><ele>1206.5</ele><time>2025-11-21T22:54:56.000Z</time></trkpt>
        <trkpt lat="28.013531" lon="105.617882"><ele>1206.5</ele><time>2025-11-21T22:54:57.000Z</time></trkpt>
        <trkpt lat="28.013531" lon="105.617884"><ele>1206.5</ele><time>2025-11-21T22:54:58.000Z</time></trkpt>
        <trkpt lat="28.01353" lon="105.617885"><ele>1206.5</ele><time>2025-11-21T22:54:59.000Z</time></trkpt>
        <trkpt lat="28.013529" lon="105.617887"><ele>1206.5</ele><time>2025-11-21T22:55:00.000Z</time></trkpt>
        <trkpt lat="28.013529" lon="105.617887"><ele>1206.5</ele><time>2025-11-21T22:55:01.000Z</time></trkpt>
        <trkpt lat="28.013528" lon="105.617888"><ele>1206.5</ele><time>2025-11-21T22:55:02.000Z</time></trkpt>
        <trkpt lat="28.013528" lon="105.617888"><ele>1206.5</ele><time>2025-11-21T22:55:03.000Z</time></trkpt>
        <trkpt lat="28.013527" lon="105.617888"><ele>1206.5</ele><time>2025-11-21T22:55:04.000Z</time></trkpt>
        <trkpt lat="28.013527" lon="105.617888"><ele>1206.5</ele><time>2025-11-21T22:55:05.000Z</time></trkpt>
        <trkpt lat="28.013527" lon="105.617889"><ele>1206.5</ele><time>2025-11-21T22:55:06.000Z</time></trkpt>
        <trkpt lat="28.013527" lon="105.617888"><ele>1206.5</ele><time>2025-11-21T22:55:07.000Z</time></trkpt>
        <trkpt lat="28.013527" lon="105.617888"><ele>1206.5</ele><time>2025-11-21T22:55:08.000Z</time></trkpt>
        <trkpt lat="28.013527" lon="105.617888"><ele>1206.5</ele><time>2025-11-21T22:55:09.000Z</time></trkpt>
        <trkpt lat="28.013526" lon="105.617889"><ele>1206.5</ele><time>2025-11-21T22:55:10.000Z</time></trkpt>
        <trkpt lat="28.013525" lon="105.61789"><ele>1206.5</ele><time>2025-11-21T22:55:11.000Z</time></trkpt>
        <trkpt lat="28.013524" lon="105.617891"><ele>1206.5</ele><time>2025-11-21T22:55:12.000Z</time></trkpt>
        <trkpt lat="28.013522" lon="105.617892"><ele>1206.5</ele><time>2025-11-21T22:55:13.000Z</time></trkpt>
        <trkpt lat="28.013519" lon="105.617893"><ele>1206.5</ele><time>2025-11-21T22:55:14.000Z</time></trkpt>
        <trkpt lat="28.013515" lon="105.617894"><ele>1206.5</ele><time>2025-11-21T22:55:15.000Z</time></trkpt>
        <trkpt lat="28.013509" lon="105.617896"><ele>1206.5</ele><time>2025-11-21T22:55:16.000Z</time></trkpt>
        <trkpt lat="28.013502" lon="105.617899"><ele>1206.5</ele><time>2025-11-21T22:55:17.000Z</time></trkpt>
        <trkpt lat="28.013493" lon="105.617903"><ele>1206.5</ele><time>2025-11-21T22:55:18.000Z</time></trkpt>
        <trkpt lat="28.013483" lon="105.617906"><ele>1206.5</ele><time>2025-11-21T22:55:19.000Z</time></trkpt>
        <trkpt lat="28.013472" lon="105.61791"><ele>1206.5</ele><time>2025-11-21T22:55:20.000Z</time></trkpt>
        <trkpt lat="28.013462" lon="105.617912"><ele>1206.5</ele><time>2025-11-21T22:55:21.000Z</time></trkpt>
        <trkpt lat="28.013451" lon="105.617914"><ele>1206.5</ele><time>2025-11-21T22:55:22.000Z</time></trkpt>
        <trkpt lat="28.013441" lon="105.617916"><ele>1206.5</ele><time>2025-11-21T22:55:23.000Z</time></trkpt>
        <trkpt lat="28.013432" lon="105.617917"><ele>1206.5</ele><time>2025-11-21T22:55:24.000Z</time></trkpt>
        <trkpt lat="28.013425" lon="105.617918"><ele>1206.5</ele><time>2025-11-21T22:55:25.000Z</time></trkpt>
        <trkpt lat="28.01342" lon="105.617922"><ele>1206.5</ele><time>2025-11-21T22:55:26.000Z</time></trkpt>
        <trkpt lat="28.013414" lon="105.617923"><ele>1206.5</ele><time>2025-11-21T22:55:27.000Z</time></trkpt>
        <trkpt lat="28.013408" lon="105.617925"><ele>1206.5</ele><time>2025-11-21T22:55:28.000Z</time></trkpt>
        <trkpt lat="28.013402" lon="105.617926"><ele>1206.5</ele><time>2025-11-21T22:55:29.000Z</time></trkpt>
        <trkpt lat="28.013395" lon="105.617928"><ele>1206.5</ele><time>2025-11-21T22:55:30.000Z</time></trkpt>
        <trkpt lat="28.013388" lon="105.617927"><ele>1206.5</ele><time>2025-11-21T22:55:31.000Z</time></trkpt>
        <trkpt lat="28.013381" lon="105.617925"><ele>1206.5</ele><time>2025-11-21T22:55:32.000Z</time></trkpt>
        <trkpt lat="28.013373" lon="105.617921"><ele>1206.5</ele><time>2025-11-21T22:55:33.000Z</time></trkpt>
        <trkpt lat="28.013366" lon="105.617916"><ele>1206.5</ele><time>2025-11-21T22:55:34.000Z</time></trkpt>
        <trkpt lat="28.013358" lon="105.617909"><ele>1206.5</ele><time>2025-11-21T22:55:35.000Z</time></trkpt>
        <trkpt lat="28.013349" lon="105.617902"><ele>1206.5</ele><time>2025-11-21T22:55:36.000Z</time></trkpt>
        <trkpt lat="28.01334" lon="105.617896"><ele>1206.5</ele><time>2025-11-21T22:55:37.000Z</time></trkpt>
        <trkpt lat="28.013331" lon="105.617893"><ele>1206.5</ele><time>2025-11-21T22:55:38.000Z</time></trkpt>
        <trkpt lat="28.013321" lon="105.617891"><ele>1206.5</ele><time>2025-11-21T22:55:39.000Z</time></trkpt>
        <trkpt lat="28.013311" lon="105.617889"><ele>1206.5</ele><time>2025-11-21T22:55:40.000Z</time></trkpt>
        <trkpt lat="28.013301" lon="105.61789"><ele>1206.5</ele><time>2025-11-21T22:55:41.000Z</time></trkpt>
        <trkpt lat="28.013291" lon="105.61789"><ele>1206.5</ele><time>2025-11-21T22:55:42.000Z</time></trkpt>
        <trkpt lat="28.013281" lon="105.617891"><ele>1206.5</ele><time>2025-11-21T22:55:43.000Z</time></trkpt>
        <trkpt lat="28.01327" lon="105.617892"><ele>1206.5</ele><time>2025-11-21T22:55:44.000Z</time></trkpt>
        <trkpt lat="28.013259" lon="105.617895"><ele>1206.5</ele><time>2025-11-21T22:55:45.000Z</time></trkpt>
        <trkpt lat="28.013248" lon="105.617895"><ele>1206.5</ele><time>2025-11-21T22:55:46.000Z</time></trkpt>
        <trkpt lat="28.013236" lon="105.617896"><ele>1206.5</ele><time>2025-11-21T22:55:47.000Z</time></trkpt>
        <trkpt lat="28.013225" lon="105.617896"><ele>1206.5</ele><time>2025-11-21T22:55:48.000Z</time></trkpt>
        <trkpt lat="28.013217" lon="105.617895"><ele>1206.5</ele><time>2025-11-21T22:55:49.000Z</time></trkpt>
        <trkpt lat="28.013211" lon="105.617893"><ele>1206.5</ele><time>2025-11-21T22:55:50.000Z</time></trkpt>
        <trkpt lat="28.013208" lon="105.617892"><ele>1206.5</ele><time>2025-11-21T22:55:51.000Z</time></trkpt>
        <trkpt lat="28.013206" lon="105.617893"><ele>1206.5</ele><time>2025-11-21T22:55:52.000Z</time></trkpt>
        <trkpt lat="28.013206" lon="105.617892"><ele>1206.5</ele><time>2025-11-21T22:55:53.000Z</time></trkpt>
        <trkpt lat="28.013206" lon="105.617893"><ele>1206.5</ele><time>2025-11-21T22:55:54.000Z</time></trkpt>
        <trkpt lat="28.013206" lon="105.617893"><ele>1206.5</ele><time>2025-11-21T22:55:55.000Z</time></trkpt>
        <trkpt lat="28.013206" lon="105.617894"><ele>1206.5</ele><time>2025-11-21T22:55:56.000Z</time></trkpt>
        <trkpt lat="28.013206" lon="105.617894"><ele>1206.5</ele><time>2025-11-21T22:55:57.000Z</time></trkpt>
        <trkpt lat="28.013205" lon="105.617894"><ele>1206.5</ele><time>2025-11-21T22:55:58.000Z</time></trkpt>
        <trkpt lat="28.013205" lon="105.617895"><ele>1206.5</ele><time>2025-11-21T22:55:59.000Z</time></trkpt>
        <trkpt lat="28.013205" lon="105.617895"><ele>1206.5</ele><time>2025-11-21T22:56:00.000Z</time></trkpt>
        <trkpt lat="28.013205" lon="105.617895"><ele>1206.5</ele><time>2025-11-21T22:56:01.000Z</time></trkpt>
        <trkpt lat="28.013205" lon="105.617895"><ele>1206.5</ele><time>2025-11-21T22:56:02.000Z</time></trkpt>
        <trkpt lat="28.013205" lon="105.617896"><ele>1206.5</ele><time>2025-11-21T22:56:03.000Z</time></trkpt>
        <trkpt lat="28.013205" lon="105.617896"><ele>1206.5</ele><time>2025-11-21T22:56:04.000Z</time></trkpt>
        <trkpt lat="28.013205" lon="105.617896"><ele>1206.5</ele><time>2025-11-21T22:56:05.000Z</time></trkpt>
        <trkpt lat="28.013206" lon="105.617895"><ele>1206.5</ele><time>2025-11-21T22:56:06.000Z</time></trkpt>
        <trkpt lat="28.013206" lon="105.617895"><ele>1206.5</ele><time>2025-11-21T22:56:07.000Z</time></trkpt>
        <trkpt lat="28.013206" lon="105.617896"><ele>1206.5</ele><time>2025-11-21T22:56:08.000Z</time></trkpt>
        <trkpt lat="28.013204" lon="105.617897"><ele>1206.5</ele><time>2025-11-21T22:56:09.000Z</time></trkpt>
        <trkpt lat="28.013201" lon="105.6179"><ele>1206.5</ele><time>2025-11-21T22:56:10.000Z</time></trkpt>
        <trkpt lat="28.013196" lon="105.617901"><ele>1206.5</ele><time>2025-11-21T22:56:11.000Z</time></trkpt>
        <trkpt lat="28.013191" lon="105.617903"><ele>1206.5</ele><time>2025-11-21T22:56:12.000Z</time></trkpt>
        <trkpt lat="28.013185" lon="105.617903"><ele>1206.5</ele><time>2025-11-21T22:56:13.000Z</time></trkpt>
        <trkpt lat="28.01318" lon="105.617904"><ele>1206.5</ele><time>2025-11-21T22:56:14.000Z</time></trkpt>
        <trkpt lat="28.013175" lon="105.617903"><ele>1206.5</ele><time>2025-11-21T22:56:15.000Z</time></trkpt>
        <trkpt lat="28.013171" lon="105.617901"><ele>1206.5</ele><time>2025-11-21T22:56:16.000Z</time></trkpt>
        <trkpt lat="28.013167" lon="105.617898"><ele>1206.5</ele><time>2025-11-21T22:56:17.000Z</time></trkpt>
        <trkpt lat="28.013164" lon="105.617892"><ele>1206.5</ele><time>2025-11-21T22:56:18.000Z</time></trkpt>
        <trkpt lat="28.013163" lon="105.617883"><ele>1206.5</ele><time>2025-11-21T22:56:19.000Z</time></trkpt>
        <trkpt lat="28.013163" lon="105.617876"><ele>1206.5</ele><time>2025-11-21T22:56:20.000Z</time></trkpt>
        <trkpt lat="28.013163" lon="105.617871"><ele>1206.5</ele><time>2025-11-21T22:56:21.000Z</time></trkpt>
        <trkpt lat="28.013163" lon="105.617865"><ele>1206.5</ele><time>2025-11-21T22:56:22.000Z</time></trkpt>
        <trkpt lat="28.013164" lon="105.617862"><ele>1206.5</ele><time>2025-11-21T22:56:23.000Z</time></trkpt>
        <trkpt lat="28.013162" lon="105.617857"><ele>1206.5</ele><time>2025-11-21T22:56:24.000Z</time></trkpt>
        <trkpt lat="28.013162" lon="105.617851"><ele>1206.5</ele><time>2025-11-21T22:56:25.000Z</time></trkpt>
        <trkpt lat="28.013161" lon="105.617845"><ele>1206.5</ele><time>2025-11-21T22:56:26.000Z</time></trkpt>
        <trkpt lat="28.01316" lon="105.617838"><ele>1206.5</ele><time>2025-11-21T22:56:27.000Z</time></trkpt>
        <trkpt lat="28.013159" lon="105.617827"><ele>1206.5</ele><time>2025-11-21T22:56:28.000Z</time></trkpt>
        <trkpt lat="28.013159" lon="105.617821"><ele>1206.5</ele><time>2025-11-21T22:56:29.000Z</time></trkpt>
        <trkpt lat="28.01316" lon="105.617816"><ele>1206.5</ele><time>2025-11-21T22:56:30.000Z</time></trkpt>
        <trkpt lat="28.013161" lon="105.617815"><ele>1206.5</ele><time>2025-11-21T22:56:31.000Z</time></trkpt>
        <trkpt lat="28.013162" lon="105.617813"><ele>1206.5</ele><time>2025-11-21T22:56:32.000Z</time></trkpt>
        <trkpt lat="28.01316" lon="105.617818"><ele>1206.5</ele><time>2025-11-21T22:56:33.000Z</time></trkpt>
        <trkpt lat="28.013163" lon="105.617819"><ele>1206.5</ele><time>2025-11-21T22:56:34.000Z</time></trkpt>
        <trkpt lat="28.013165" lon="105.617818"><ele>1206.5</ele><time>2025-11-21T22:56:35.000Z</time></trkpt>
        <trkpt lat="28.013169" lon="105.617816"><ele>1206.5</ele><time>2025-11-21T22:56:36.000Z</time></trkpt>
        <trkpt lat="28.013172" lon="105.617815"><ele>1206.5</ele><time>2025-11-21T22:56:37.000Z</time></trkpt>
        <trkpt lat="28.013175" lon="105.617819"><ele>1206.5</ele><time>2025-11-21T22:56:38.000Z</time></trkpt>
        <trkpt lat="28.013176" lon="105.617829"><ele>1206.5</ele><time>2025-11-21T22:56:39.000Z</time></trkpt>
        <trkpt lat="28.013177" lon="105.617845"><ele>1206.5</ele><time>2025-11-21T22:56:40.000Z</time></trkpt>
        <trkpt lat="28.013177" lon="105.617862"><ele>1206.7</ele><time>2025-11-21T22:56:41.000Z</time></trkpt>
        <trkpt lat="28.013176" lon="105.617879"><ele>1206.7</ele><time>2025-11-21T22:56:42.000Z</time></trkpt>
        <trkpt lat="28.013175" lon="105.617892"><ele>1206.7</ele><time>2025-11-21T22:56:43.000Z</time></trkpt>
        <trkpt lat="28.013174" lon="105.617901"><ele>1206.7</ele><time>2025-11-21T22:56:44.000Z</time></trkpt>
        <trkpt lat="28.013173" lon="105.617908"><ele>1206.7</ele><time>2025-11-21T22:56:45.000Z</time></trkpt>
        <trkpt lat="28.013172" lon="105.617915"><ele>1206.7</ele><time>2025-11-21T22:56:46.000Z</time></trkpt>
        <trkpt lat="28.013171" lon="105.617921"><ele>1206.7</ele><time>2025-11-21T22:56:47.000Z</time></trkpt>
        <trkpt lat="28.013171" lon="105.617925"><ele>1206.7</ele><time>2025-11-21T22:56:48.000Z</time></trkpt>
        <trkpt lat="28.01317" lon="105.617928"><ele>1206.7</ele><time>2025-11-21T22:56:49.000Z</time></trkpt>
        <trkpt lat="28.013169" lon="105.61793"><ele>1206.7</ele><time>2025-11-21T22:56:50.000Z</time></trkpt>
        <trkpt lat="28.013169" lon="105.617932"><ele>1206.7</ele><time>2025-11-21T22:56:51.000Z</time></trkpt>
        <trkpt lat="28.013168" lon="105.617934"><ele>1206.7</ele><time>2025-11-21T22:56:52.000Z</time></trkpt>
        <trkpt lat="28.013167" lon="105.617938"><ele>1206.7</ele><time>2025-11-21T22:56:53.000Z</time></trkpt>
        <trkpt lat="28.013166" lon="105.617942"><ele>1206.7</ele><time>2025-11-21T22:56:54.000Z</time></trkpt>
        <trkpt lat="28.013164" lon="105.617943"><ele>1206.7</ele><time>2025-11-21T22:56:55.000Z</time></trkpt>
        <trkpt lat="28.013162" lon="105.617941"><ele>1206.5</ele><time>2025-11-21T22:56:56.000Z</time></trkpt>
        <trkpt lat="28.01316" lon="105.617938"><ele>1206.5</ele><time>2025-11-21T22:56:57.000Z</time></trkpt>
        <trkpt lat="28.013159" lon="105.617934"><ele>1206.5</ele><time>2025-11-21T22:56:58.000Z</time></trkpt>
        <trkpt lat="28.013158" lon="105.617925"><ele>1206.5</ele><time>2025-11-21T22:56:59.000Z</time></trkpt>
        <trkpt lat="28.013157" lon="105.617919"><ele>1206.5</ele><time>2025-11-21T22:57:00.000Z</time></trkpt>
        <trkpt lat="28.013157" lon="105.617916"><ele>1206.3</ele><time>2025-11-21T22:57:01.000Z</time></trkpt>
        <trkpt lat="28.013156" lon="105.617913"><ele>1206.3</ele><time>2025-11-21T22:57:02.000Z</time></trkpt>
        <trkpt lat="28.013156" lon="105.61791"><ele>1206.3</ele><time>2025-11-21T22:57:03.000Z</time></trkpt>
        <trkpt lat="28.013156" lon="105.61791"><ele>1206.3</ele><time>2025-11-21T22:57:04.000Z</time></trkpt>
        <trkpt lat="28.013156" lon="105.617912"><ele>1206.3</ele><time>2025-11-21T22:57:05.000Z</time></trkpt>
        <trkpt lat="28.013156" lon="105.617917"><ele>1206.3</ele><time>2025-11-21T22:57:06.000Z</time></trkpt>
        <trkpt lat="28.013156" lon="105.617921"><ele>1206.3</ele><time>2025-11-21T22:57:07.000Z</time></trkpt>
        <trkpt lat="28.013157" lon="105.617927"><ele>1206.3</ele><time>2025-11-21T22:57:08.000Z</time></trkpt>
        <trkpt lat="28.013158" lon="105.617932"><ele>1206.3</ele><time>2025-11-21T22:57:09.000Z</time></trkpt>
        <trkpt lat="28.013159" lon="105.617936"><ele>1206.3</ele><time>2025-11-21T22:57:10.000Z</time></trkpt>
        <trkpt lat="28.01316" lon="105.617939"><ele>1206.7</ele><time>2025-11-21T22:57:11.000Z</time></trkpt>
        <trkpt lat="28.01316" lon="105.617942"><ele>1206.7</ele><time>2025-11-21T22:57:12.000Z</time></trkpt>
        <trkpt lat="28.01316" lon="105.617944"><ele>1206.7</ele><time>2025-11-21T22:57:13.000Z</time></trkpt>
        <trkpt lat="28.01316" lon="105.617946"><ele>1206.7</ele><time>2025-11-21T22:57:14.000Z</time></trkpt>
        <trkpt lat="28.01316" lon="105.617947"><ele>1206.7</ele><time>2025-11-21T22:57:15.000Z</time></trkpt>
        <trkpt lat="28.01316" lon="105.617948"><ele>1207</ele><time>2025-11-21T22:57:16.000Z</time></trkpt>
        <trkpt lat="28.01316" lon="105.617948"><ele>1207</ele><time>2025-11-21T22:57:17.000Z</time></trkpt>
        <trkpt lat="28.01316" lon="105.617948"><ele>1207</ele><time>2025-11-21T22:57:18.000Z</time></trkpt>
        <trkpt lat="28.01316" lon="105.617948"><ele>1207</ele><time>2025-11-21T22:57:19.000Z</time></trkpt>
        <trkpt lat="28.01316" lon="105.617948"><ele>1207</ele><time>2025-11-21T22:57:20.000Z</time></trkpt>
        <trkpt lat="28.01316" lon="105.617948"><ele>1207</ele><time>2025-11-21T22:57:21.000Z</time></trkpt>
        <trkpt lat="28.013159" lon="105.617948"><ele>1207</ele><time>2025-11-21T22:57:22.000Z</time></trkpt>
        <trkpt lat="28.013157" lon="105.617949"><ele>1207</ele><time>2025-11-21T22:57:23.000Z</time></trkpt>
        <trkpt lat="28.013155" lon="105.61795"><ele>1207</ele><time>2025-11-21T22:57:24.000Z</time></trkpt>
        <trkpt lat="28.013151" lon="105.617951"><ele>1207</ele><time>2025-11-21T22:57:25.000Z</time></trkpt>
        <trkpt lat="28.013147" lon="105.617954"><ele>1207</ele><time>2025-11-21T22:57:26.000Z</time></trkpt>
        <trkpt lat="28.013144" lon="105.617954"><ele>1207</ele><time>2025-11-21T22:57:27.000Z</time></trkpt>
        <trkpt lat="28.013142" lon="105.617954"><ele>1207</ele><time>2025-11-21T22:57:28.000Z</time></trkpt>
        <trkpt lat="28.013141" lon="105.617955"><ele>1207</ele><time>2025-11-21T22:57:29.000Z</time></trkpt>
        <trkpt lat="28.013141" lon="105.617955"><ele>1207</ele><time>2025-11-21T22:57:30.000Z</time></trkpt>
        <trkpt lat="28.013141" lon="105.617954"><ele>1206.8</ele><time>2025-11-21T22:57:31.000Z</time></trkpt>
        <trkpt lat="28.013141" lon="105.617954"><ele>1206.8</ele><time>2025-11-21T22:57:32.000Z</time></trkpt>
        <trkpt lat="28.013141" lon="105.617953"><ele>1206.8</ele><time>2025-11-21T22:57:33.000Z</time></trkpt>
        <trkpt lat="28.01314" lon="105.617954"><ele>1206.8</ele><time>2025-11-21T22:57:34.000Z</time></trkpt>
        <trkpt lat="28.013138" lon="105.617955"><ele>1206.8</ele><time>2025-11-21T22:57:35.000Z</time></trkpt>
        <trkpt lat="28.013137" lon="105.617954"><ele>1206.6</ele><time>2025-11-21T22:57:36.000Z</time></trkpt>
        <trkpt lat="28.013135" lon="105.617951"><ele>1206.6</ele><time>2025-11-21T22:57:37.000Z</time></trkpt>
        <trkpt lat="28.013134" lon="105.617949"><ele>1206.6</ele><time>2025-11-21T22:57:38.000Z</time></trkpt>
        <trkpt lat="28.013134" lon="105.617946"><ele>1206.6</ele><time>2025-11-21T22:57:39.000Z</time></trkpt>
        <trkpt lat="28.013134" lon="105.617945"><ele>1206.6</ele><time>2025-11-21T22:57:40.000Z</time></trkpt>
        <trkpt lat="28.013134" lon="105.617946"><ele>1206.6</ele><time>2025-11-21T22:57:41.000Z</time></trkpt>
        <trkpt lat="28.013134" lon="105.61795"><ele>1206.6</ele><time>2025-11-21T22:57:42.000Z</time></trkpt>
        <trkpt lat="28.013134" lon="105.617953"><ele>1206.6</ele><time>2025-11-21T22:57:43.000Z</time></trkpt>
        <trkpt lat="28.013134" lon="105.617956"><ele>1206.6</ele><time>2025-11-21T22:57:44.000Z</time></trkpt>
        <trkpt lat="28.013134" lon="105.617958"><ele>1206.6</ele><time>2025-11-21T22:57:45.000Z</time></trkpt>
        <trkpt lat="28.013134" lon="105.617959"><ele>1206.6</ele><time>2025-11-21T22:57:46.000Z</time></trkpt>
        <trkpt lat="28.013134" lon="105.617959"><ele>1206.6</ele><time>2025-11-21T22:57:47.000Z</time></trkpt>
        <trkpt lat="28.013134" lon="105.617961"><ele>1206.6</ele><time>2025-11-21T22:57:48.000Z</time></trkpt>
        <trkpt lat="28.013133" lon="105.617963"><ele>1206.6</ele><time>2025-11-21T22:57:49.000Z</time></trkpt>
        <trkpt lat="28.013132" lon="105.617965"><ele>1206.6</ele><time>2025-11-21T22:57:50.000Z</time></trkpt>
        <trkpt lat="28.013131" lon="105.617968"><ele>1206.8</ele><time>2025-11-21T22:57:51.000Z</time></trkpt>
        <trkpt lat="28.013129" lon="105.61797"><ele>1206.8</ele><time>2025-11-21T22:57:52.000Z</time></trkpt>
        <trkpt lat="28.013128" lon="105.61797"><ele>1206.8</ele><time>2025-11-21T22:57:53.000Z</time></trkpt>
        <trkpt lat="28.013128" lon="105.617969"><ele>1206.8</ele><time>2025-11-21T22:57:54.000Z</time></trkpt>
        <trkpt lat="28.013128" lon="105.617968"><ele>1206.8</ele><time>2025-11-21T22:57:55.000Z</time></trkpt>
        <trkpt lat="28.013128" lon="105.617967"><ele>1206.8</ele><time>2025-11-21T22:57:56.000Z</time></trkpt>
        <trkpt lat="28.013128" lon="105.617965"><ele>1206.8</ele><time>2025-11-21T22:57:57.000Z</time></trkpt>
        <trkpt lat="28.013128" lon="105.617963"><ele>1206.8</ele><time>2025-11-21T22:57:58.000Z</time></trkpt>
        <trkpt lat="28.013127" lon="105.617962"><ele>1206.8</ele><time>2025-11-21T22:57:59.000Z</time></trkpt>
        <trkpt lat="28.013126" lon="105.617961"><ele>1206.8</ele><time>2025-11-21T22:58:00.000Z</time></trkpt>
        <trkpt lat="28.013125" lon="105.617961"><ele>1206.8</ele><time>2025-11-21T22:58:01.000Z</time></trkpt>
        <trkpt lat="28.013124" lon="105.617959"><ele>1206.6</ele><time>2025-11-21T22:58:02.000Z</time></trkpt>
        <trkpt lat="28.013123" lon="105.617958"><ele>1206.6</ele><time>2025-11-21T22:58:03.000Z</time></trkpt>
        <trkpt lat="28.013122" lon="105.617956"><ele>1206.6</ele><time>2025-11-21T22:58:04.000Z</time></trkpt>
        <trkpt lat="28.013121" lon="105.617955"><ele>1206.6</ele><time>2025-11-21T22:58:05.000Z</time></trkpt>
        <trkpt lat="28.013119" lon="105.617952"><ele>1206.6</ele><time>2025-11-21T22:58:06.000Z</time></trkpt>
        <trkpt lat="28.013118" lon="105.617949"><ele>1206.6</ele><time>2025-11-21T22:58:07.000Z</time></trkpt>
        <trkpt lat="28.013117" lon="105.617947"><ele>1206.6</ele><time>2025-11-21T22:58:08.000Z</time></trkpt>
        <trkpt lat="28.013116" lon="105.617944"><ele>1206.6</ele><time>2025-11-21T22:58:09.000Z</time></trkpt>
        <trkpt lat="28.013116" lon="105.617938"><ele>1206.6</ele><time>2025-11-21T22:58:10.000Z</time></trkpt>
        <trkpt lat="28.013115" lon="105.617934"><ele>1206.6</ele><time>2025-11-21T22:58:11.000Z</time></trkpt>
        <trkpt lat="28.013116" lon="105.617929"><ele>1206.4</ele><time>2025-11-21T22:58:12.000Z</time></trkpt>
        <trkpt lat="28.013116" lon="105.617923"><ele>1206.4</ele><time>2025-11-21T22:58:13.000Z</time></trkpt>
        <trkpt lat="28.013116" lon="105.617919"><ele>1206.4</ele><time>2025-11-21T22:58:14.000Z</time></trkpt>
        <trkpt lat="28.013116" lon="105.617916"><ele>1206.4</ele><time>2025-11-21T22:58:15.000Z</time></trkpt>
        <trkpt lat="28.013116" lon="105.617912"><ele>1206.4</ele><time>2025-11-21T22:58:16.000Z</time></trkpt>
        <trkpt lat="28.013116" lon="105.61791"><ele>1206.4</ele><time>2025-11-21T22:58:17.000Z</time></trkpt>
        <trkpt lat="28.013116" lon="105.61791"><ele>1206.4</ele><time>2025-11-21T22:58:18.000Z</time></trkpt>
        <trkpt lat="28.013116" lon="105.617909"><ele>1206.4</ele><time>2025-11-21T22:58:19.000Z</time></trkpt>
        <trkpt lat="28.013117" lon="105.617909"><ele>1206.4</ele><time>2025-11-21T22:58:20.000Z</time></trkpt>
        <trkpt lat="28.013118" lon="105.617908"><ele>1206.4</ele><time>2025-11-21T22:58:21.000Z</time></trkpt>
        <trkpt lat="28.013118" lon="105.617907"><ele>1206.6</ele><time>2025-11-21T22:58:22.000Z</time></trkpt>
        <trkpt lat="28.013119" lon="105.617905"><ele>1206.6</ele><time>2025-11-21T22:58:23.000Z</time></trkpt>
        <trkpt lat="28.01312" lon="105.617904"><ele>1206.6</ele><time>2025-11-21T22:58:24.000Z</time></trkpt>
        <trkpt lat="28.01312" lon="105.617903"><ele>1206.6</ele><time>2025-11-21T22:58:25.000Z</time></trkpt>
        <trkpt lat="28.01312" lon="105.617904"><ele>1206.6</ele><time>2025-11-21T22:58:26.000Z</time></trkpt>
        <trkpt lat="28.013119" lon="105.617905"><ele>1206.6</ele><time>2025-11-21T22:58:27.000Z</time></trkpt>
        <trkpt lat="28.013118" lon="105.617905"><ele>1206.6</ele><time>2025-11-21T22:58:28.000Z</time></trkpt>
        <trkpt lat="28.013117" lon="105.617905"><ele>1206.6</ele><time>2025-11-21T22:58:29.000Z</time></trkpt>
        <trkpt lat="28.013117" lon="105.617905"><ele>1206.6</ele><time>2025-11-21T22:58:30.000Z</time></trkpt>
        <trkpt lat="28.013117" lon="105.617905"><ele>1206.6</ele><time>2025-11-21T22:58:31.000Z</time></trkpt>
        <trkpt lat="28.013117" lon="105.617905"><ele>1206.6</ele><time>2025-11-21T22:58:32.000Z</time></trkpt>
        <trkpt lat="28.013117" lon="105.617905"><ele>1206.6</ele><time>2025-11-21T22:58:33.000Z</time></trkpt>
        <trkpt lat="28.013117" lon="105.617905"><ele>1206.6</ele><time>2025-11-21T22:58:34.000Z</time></trkpt>
        <trkpt lat="28.013117" lon="105.617905"><ele>1206.6</ele><time>2025-11-21T22:58:35.000Z</time></trkpt>
        <trkpt lat="28.013117" lon="105.617905"><ele>1206.6</ele><time>2025-11-21T22:58:36.000Z</time></trkpt>
        <trkpt lat="28.013117" lon="105.617905"><ele>1206.6</ele><time>2025-11-21T22:58:37.000Z</time></trkpt>
        <trkpt lat="28.013118" lon="105.617904"><ele>1206.6</ele><time>2025-11-21T22:58:38.000Z</time></trkpt>
        <trkpt lat="28.013118" lon="105.617903"><ele>1206.6</ele><time>2025-11-21T22:58:39.000Z</time></trkpt>
        <trkpt lat="28.013118" lon="105.617901"><ele>1206.6</ele><time>2025-11-21T22:58:40.000Z</time></trkpt>
        <trkpt lat="28.013119" lon="105.6179"><ele>1206.6</ele><time>2025-11-21T22:58:41.000Z</time></trkpt>
        <trkpt lat="28.013119" lon="105.617898"><ele>1206.6</ele><time>2025-11-21T22:58:42.000Z</time></trkpt>
        <trkpt lat="28.013119" lon="105.617898"><ele>1206.6</ele><time>2025-11-21T22:58:43.000Z</time></trkpt>
        <trkpt lat="28.013119" lon="105.617898"><ele>1206.6</ele><time>2025-11-21T22:58:44.000Z</time></trkpt>
        <trkpt lat="28.013119" lon="105.617898"><ele>1206.6</ele><time>2025-11-21T22:58:45.000Z</time></trkpt>
        <trkpt lat="28.013119" lon="105.617898"><ele>1206.6</ele><time>2025-11-21T22:58:46.000Z</time></trkpt>
        <trkpt lat="28.013119" lon="105.617898"><ele>1206.6</ele><time>2025-11-21T22:58:47.000Z</time></trkpt>
        <trkpt lat="28.013119" lon="105.617898"><ele>1206.6</ele><time>2025-11-21T22:58:48.000Z</time></trkpt>
        <trkpt lat="28.013119" lon="105.617898"><ele>1206.6</ele><time>2025-11-21T22:58:49.000Z</time></trkpt>
        <trkpt lat="28.013119" lon="105.617898"><ele>1206.6</ele><time>2025-11-21T22:58:50.000Z</time></trkpt>
        <trkpt lat="28.013119" lon="105.617898"><ele>1206.6</ele><time>2025-11-21T22:58:51.000Z</time></trkpt>
        <trkpt lat="28.013119" lon="105.617898"><ele>1206.6</ele><time>2025-11-21T22:58:52.000Z</time></trkpt>
        <trkpt lat="28.013119" lon="105.617898"><ele>1206.6</ele><time>2025-11-21T22:58:53.000Z</time></trkpt>
        <trkpt lat="28.013119" lon="105.617898"><ele>1206.6</ele><time>2025-11-21T22:58:54.000Z</time></trkpt>
        <trkpt lat="28.01312" lon="105.617897"><ele>1206.6</ele><time>2025-11-21T22:58:55.000Z</time></trkpt>
        <trkpt lat="28.01312" lon="105.617897"><ele>1206.6</ele><time>2025-11-21T22:58:56.000Z</time></trkpt>
        <trkpt lat="28.01312" lon="105.617897"><ele>1206.6</ele><time>2025-11-21T22:58:57.000Z</time></trkpt>
        <trkpt lat="28.013121" lon="105.617896"><ele>1206.6</ele><time>2025-11-21T22:58:58.000Z</time></trkpt>
        <trkpt lat="28.013122" lon="105.617897"><ele>1206.6</ele><time>2025-11-21T22:58:59.000Z</time></trkpt>
        <trkpt lat="28.013122" lon="105.617897"><ele>1206.6</ele><time>2025-11-21T22:59:00.000Z</time></trkpt>
        <trkpt lat="28.013122" lon="105.617896"><ele>1206.6</ele><time>2025-11-21T22:59:01.000Z</time></trkpt>
        <trkpt lat="28.013123" lon="105.617896"><ele>1206.6</ele><time>2025-11-21T22:59:02.000Z</time></trkpt>
        <trkpt lat="28.013123" lon="105.617894"><ele>1206.6</ele><time>2025-11-21T22:59:03.000Z</time></trkpt>
        <trkpt lat="28.013122" lon="105.617892"><ele>1206.6</ele><time>2025-11-21T22:59:04.000Z</time></trkpt>
        <trkpt lat="28.013121" lon="105.61789"><ele>1206.6</ele><time>2025-11-21T22:59:05.000Z</time></trkpt>
        <trkpt lat="28.01312" lon="105.617888"><ele>1206.6</ele><time>2025-11-21T22:59:06.000Z</time></trkpt>
        <trkpt lat="28.013119" lon="105.617887"><ele>1206.6</ele><time>2025-11-21T22:59:07.000Z</time></trkpt>
        <trkpt lat="28.013118" lon="105.617886"><ele>1206.6</ele><time>2025-11-21T22:59:08.000Z</time></trkpt>
        <trkpt lat="28.013117" lon="105.617885"><ele>1206.6</ele><time>2025-11-21T22:59:09.000Z</time></trkpt>
        <trkpt lat="28.013117" lon="105.617885"><ele>1206.6</ele><time>2025-11-21T22:59:10.000Z</time></trkpt>
        <trkpt lat="28.013116" lon="105.617883"><ele>1206.6</ele><time>2025-11-21T22:59:11.000Z</time></trkpt>
        <trkpt lat="28.013116" lon="105.617882"><ele>1206.6</ele><time>2025-11-21T22:59:12.000Z</time></trkpt>
        <trkpt lat="28.013116" lon="105.617881"><ele>1206.6</ele><time>2025-11-21T22:59:13.000Z</time></trkpt>
        <trkpt lat="28.013115" lon="105.617879"><ele>1206.6</ele><time>2025-11-21T22:59:14.000Z</time></trkpt>
        <trkpt lat="28.013114" lon="105.617877"><ele>1206.6</ele><time>2025-11-21T22:59:15.000Z</time></trkpt>
        <trkpt lat="28.013113" lon="105.617875"><ele>1206.6</ele><time>2025-11-21T22:59:16.000Z</time></trkpt>
        <trkpt lat="28.013113" lon="105.617874"><ele>1206.6</ele><time>2025-11-21T22:59:17.000Z</time></trkpt>
        <trkpt lat="28.013111" lon="105.617872"><ele>1206.6</ele><time>2025-11-21T22:59:18.000Z</time></trkpt>
        <trkpt lat="28.013109" lon="105.61787"><ele>1206.6</ele><time>2025-11-21T22:59:19.000Z</time></trkpt>
        <trkpt lat="28.013107" lon="105.617867"><ele>1206.6</ele><time>2025-11-21T22:59:20.000Z</time></trkpt>
        <trkpt lat="28.013104" lon="105.617864"><ele>1206.6</ele><time>2025-11-21T22:59:21.000Z</time></trkpt>
        <trkpt lat="28.013102" lon="105.617861"><ele>1206.6</ele><time>2025-11-21T22:59:22.000Z</time></trkpt>
        <trkpt lat="28.013099" lon="105.617857"><ele>1206.6</ele><time>2025-11-21T22:59:23.000Z</time></trkpt>
        <trkpt lat="28.013096" lon="105.617854"><ele>1206.6</ele><time>2025-11-21T22:59:24.000Z</time></trkpt>
        <trkpt lat="28.013091" lon="105.617853"><ele>1206.6</ele><time>2025-11-21T22:59:25.000Z</time></trkpt>
        <trkpt lat="28.013085" lon="105.617851"><ele>1206.6</ele><time>2025-11-21T22:59:26.000Z</time></trkpt>
        <trkpt lat="28.013078" lon="105.617849"><ele>1206.6</ele><time>2025-11-21T22:59:27.000Z</time></trkpt>
        <trkpt lat="28.013069" lon="105.617849"><ele>1206.6</ele><time>2025-11-21T22:59:28.000Z</time></trkpt>
        <trkpt lat="28.013061" lon="105.617849"><ele>1206.6</ele><time>2025-11-21T22:59:29.000Z</time></trkpt>
        <trkpt lat="28.013053" lon="105.617848"><ele>1206.6</ele><time>2025-11-21T22:59:30.000Z</time></trkpt>
        <trkpt lat="28.013045" lon="105.617848"><ele>1206.6</ele><time>2025-11-21T22:59:31.000Z</time></trkpt>
        <trkpt lat="28.013037" lon="105.617847"><ele>1206.6</ele><time>2025-11-21T22:59:32.000Z</time></trkpt>
        <trkpt lat="28.013029" lon="105.617846"><ele>1206.6</ele><time>2025-11-21T22:59:33.000Z</time></trkpt>
        <trkpt lat="28.013022" lon="105.617845"><ele>1206.6</ele><time>2025-11-21T22:59:34.000Z</time></trkpt>
        <trkpt lat="28.013016" lon="105.617844"><ele>1206.6</ele><time>2025-11-21T22:59:35.000Z</time></trkpt>
        <trkpt lat="28.013009" lon="105.617843"><ele>1206.6</ele><time>2025-11-21T22:59:36.000Z</time></trkpt>
        <trkpt lat="28.013002" lon="105.617841"><ele>1206.6</ele><time>2025-11-21T22:59:37.000Z</time></trkpt>
        <trkpt lat="28.012994" lon="105.617839"><ele>1206.6</ele><time>2025-11-21T22:59:38.000Z</time></trkpt>
        <trkpt lat="28.012985" lon="105.617836"><ele>1206.6</ele><time>2025-11-21T22:59:39.000Z</time></trkpt>
        <trkpt lat="28.012976" lon="105.617832"><ele>1206.6</ele><time>2025-11-21T22:59:40.000Z</time></trkpt>
        <trkpt lat="28.012968" lon="105.617827"><ele>1206.6</ele><time>2025-11-21T22:59:41.000Z</time></trkpt>
        <trkpt lat="28.012961" lon="105.617821"><ele>1206.6</ele><time>2025-11-21T22:59:42.000Z</time></trkpt>
        <trkpt lat="28.012953" lon="105.617816"><ele>1206.6</ele><time>2025-11-21T22:59:43.000Z</time></trkpt>
        <trkpt lat="28.012946" lon="105.61781"><ele>1206.6</ele><time>2025-11-21T22:59:44.000Z</time></trkpt>
        <trkpt lat="28.012939" lon="105.617804"><ele>1206.6</ele><time>2025-11-21T22:59:45.000Z</time></trkpt>
        <trkpt lat="28.012932" lon="105.617797"><ele>1206.6</ele><time>2025-11-21T22:59:46.000Z</time></trkpt>
        <trkpt lat="28.012924" lon="105.617792"><ele>1206.6</ele><time>2025-11-21T22:59:47.000Z</time></trkpt>
        <trkpt lat="28.012917" lon="105.617786"><ele>1206.6</ele><time>2025-11-21T22:59:48.000Z</time></trkpt>
        <trkpt lat="28.01291" lon="105.61778"><ele>1206.6</ele><time>2025-11-21T22:59:49.000Z</time></trkpt>
        <trkpt lat="28.012904" lon="105.617775"><ele>1206.6</ele><time>2025-11-21T22:59:50.000Z</time></trkpt>
        <trkpt lat="28.012896" lon="105.617771"><ele>1206.6</ele><time>2025-11-21T22:59:51.000Z</time></trkpt>
        <trkpt lat="28.012889" lon="105.617767"><ele>1206.4</ele><time>2025-11-21T22:59:52.000Z</time></trkpt>
        <trkpt lat="28.012882" lon="105.617761"><ele>1206.4</ele><time>2025-11-21T22:59:53.000Z</time></trkpt>
        <trkpt lat="28.012875" lon="105.617753"><ele>1206.4</ele><time>2025-11-21T22:59:54.000Z</time></trkpt>
        <trkpt lat="28.012868" lon="105.617744"><ele>1206.4</ele><time>2025-11-21T22:59:55.000Z</time></trkpt>
        <trkpt lat="28.012862" lon="105.617735"><ele>1206.4</ele><time>2025-11-21T22:59:56.000Z</time></trkpt>
        <trkpt lat="28.012857" lon="105.617724"><ele>1206.2</ele><time>2025-11-21T22:59:57.000Z</time></trkpt>
        <trkpt lat="28.012852" lon="105.617713"><ele>1206.2</ele><time>2025-11-21T22:59:58.000Z</time></trkpt>
        <trkpt lat="28.012847" lon="105.617703"><ele>1206.2</ele><time>2025-11-21T22:59:59.000Z</time></trkpt>
        <trkpt lat="28.012841" lon="105.617693"><ele>1206.2</ele><time>2025-11-21T23:00:00.000Z</time></trkpt>
        <trkpt lat="28.012837" lon="105.617682"><ele>1206.2</ele><time>2025-11-21T23:00:01.000Z</time></trkpt>
        <trkpt lat="28.012831" lon="105.617671"><ele>1206.2</ele><time>2025-11-21T23:00:02.000Z</time></trkpt>
        <trkpt lat="28.012825" lon="105.61766"><ele>1206.2</ele><time>2025-11-21T23:00:03.000Z</time></trkpt>
        <trkpt lat="28.01282" lon="105.61765"><ele>1206.2</ele><time>2025-11-21T23:00:04.000Z</time></trkpt>
        <trkpt lat="28.012815" lon="105.61764"><ele>1206.2</ele><time>2025-11-21T23:00:05.000Z</time></trkpt>
        <trkpt lat="28.012809" lon="105.61763"><ele>1206.2</ele><time>2025-11-21T23:00:06.000Z</time></trkpt>
        <trkpt lat="28.012804" lon="105.617622"><ele>1206.2</ele><time>2025-11-21T23:00:07.000Z</time></trkpt>
        <trkpt lat="28.012798" lon="105.617615"><ele>1206.2</ele><time>2025-11-21T23:00:08.000Z</time></trkpt>
        <trkpt lat="28.012792" lon="105.61761"><ele>1206.2</ele><time>2025-11-21T23:00:09.000Z</time></trkpt>
        <trkpt lat="28.012785" lon="105.617605"><ele>1206.2</ele><time>2025-11-21T23:00:10.000Z</time></trkpt>
        <trkpt lat="28.012778" lon="105.617601"><ele>1206.2</ele><time>2025-11-21T23:00:11.000Z</time></trkpt>
        <trkpt lat="28.01277" lon="105.617599"><ele>1206.2</ele><time>2025-11-21T23:00:12.000Z</time></trkpt>
        <trkpt lat="28.012761" lon="105.617598"><ele>1206.2</ele><time>2025-11-21T23:00:13.000Z</time></trkpt>
        <trkpt lat="28.012751" lon="105.617598"><ele>1206.2</ele><time>2025-11-21T23:00:14.000Z</time></trkpt>
        <trkpt lat="28.01274" lon="105.617598"><ele>1206.2</ele><time>2025-11-21T23:00:15.000Z</time></trkpt>
        <trkpt lat="28.012729" lon="105.6176"><ele>1206.2</ele><time>2025-11-21T23:00:16.000Z</time></trkpt>
        <trkpt lat="28.012717" lon="105.6176"><ele>1206.2</ele><time>2025-11-21T23:00:17.000Z</time></trkpt>
        <trkpt lat="28.012706" lon="105.617601"><ele>1206.2</ele><time>2025-11-21T23:00:18.000Z</time></trkpt>
        <trkpt lat="28.012695" lon="105.6176"><ele>1206.2</ele><time>2025-11-21T23:00:19.000Z</time></trkpt>
        <trkpt lat="28.012685" lon="105.617601"><ele>1206.2</ele><time>2025-11-21T23:00:20.000Z</time></trkpt>
        <trkpt lat="28.012674" lon="105.6176"><ele>1206.2</ele><time>2025-11-21T23:00:21.000Z</time></trkpt>
        <trkpt lat="28.012664" lon="105.617599"><ele>1206.2</ele><time>2025-11-21T23:00:22.000Z</time></trkpt>
        <trkpt lat="28.012654" lon="105.6176"><ele>1206.2</ele><time>2025-11-21T23:00:23.000Z</time></trkpt>
        <trkpt lat="28.012643" lon="105.6176"><ele>1206.2</ele><time>2025-11-21T23:00:24.000Z</time></trkpt>
        <trkpt lat="28.012633" lon="105.617601"><ele>1206.2</ele><time>2025-11-21T23:00:25.000Z</time></trkpt>
        <trkpt lat="28.012623" lon="105.617602"><ele>1206.2</ele><time>2025-11-21T23:00:26.000Z</time></trkpt>
        <trkpt lat="28.012613" lon="105.617604"><ele>1206.4</ele><time>2025-11-21T23:00:27.000Z</time></trkpt>
        <trkpt lat="28.012604" lon="105.617605"><ele>1206.4</ele><time>2025-11-21T23:00:28.000Z</time></trkpt>
        <trkpt lat="28.012596" lon="105.617607"><ele>1206.4</ele><time>2025-11-21T23:00:29.000Z</time></trkpt>
        <trkpt lat="28.012587" lon="105.617609"><ele>1206.4</ele><time>2025-11-21T23:00:30.000Z</time></trkpt>
        <trkpt lat="28.012578" lon="105.617611"><ele>1206.4</ele><time>2025-11-21T23:00:31.000Z</time></trkpt>
        <trkpt lat="28.012568" lon="105.617614"><ele>1206.6</ele><time>2025-11-21T23:00:32.000Z</time></trkpt>
        <trkpt lat="28.012558" lon="105.617617"><ele>1206.6</ele><time>2025-11-21T23:00:33.000Z</time></trkpt>
        <trkpt lat="28.012547" lon="105.617621"><ele>1206.6</ele><time>2025-11-21T23:00:34.000Z</time></trkpt>
        <trkpt lat="28.012537" lon="105.617624"><ele>1206.6</ele><time>2025-11-21T23:00:35.000Z</time></trkpt>
        <trkpt lat="28.012528" lon="105.617628"><ele>1206.6</ele><time>2025-11-21T23:00:36.000Z</time></trkpt>
        <trkpt lat="28.012519" lon="105.617632"><ele>1206.6</ele><time>2025-11-21T23:00:37.000Z</time></trkpt>
        <trkpt lat="28.01251" lon="105.617637"><ele>1206.6</ele><time>2025-11-21T23:00:38.000Z</time></trkpt>
        <trkpt lat="28.012501" lon="105.617642"><ele>1206.6</ele><time>2025-11-21T23:00:39.000Z</time></trkpt>
        <trkpt lat="28.012492" lon="105.617647"><ele>1206.6</ele><time>2025-11-21T23:00:40.000Z</time></trkpt>
        <trkpt lat="28.012483" lon="105.617653"><ele>1206.6</ele><time>2025-11-21T23:00:41.000Z</time></trkpt>
        <trkpt lat="28.012474" lon="105.617659"><ele>1206.6</ele><time>2025-11-21T23:00:42.000Z</time></trkpt>
        <trkpt lat="28.012465" lon="105.617664"><ele>1206.6</ele><time>2025-11-21T23:00:43.000Z</time></trkpt>
        <trkpt lat="28.012456" lon="105.61767"><ele>1206.6</ele><time>2025-11-21T23:00:44.000Z</time></trkpt>
        <trkpt lat="28.012448" lon="105.617675"><ele>1206.6</ele><time>2025-11-21T23:00:45.000Z</time></trkpt>
        <trkpt lat="28.01244" lon="105.617681"><ele>1206.6</ele><time>2025-11-21T23:00:46.000Z</time></trkpt>
        <trkpt lat="28.012432" lon="105.617686"><ele>1206.6</ele><time>2025-11-21T23:00:47.000Z</time></trkpt>
        <trkpt lat="28.012423" lon="105.617692"><ele>1206.6</ele><time>2025-11-21T23:00:48.000Z</time></trkpt>
        <trkpt lat="28.012416" lon="105.617698"><ele>1206.6</ele><time>2025-11-21T23:00:49.000Z</time></trkpt>
        <trkpt lat="28.012407" lon="105.617706"><ele>1206.6</ele><time>2025-11-21T23:00:50.000Z</time></trkpt>
        <trkpt lat="28.012399" lon="105.617712"><ele>1206.6</ele><time>2025-11-21T23:00:51.000Z</time></trkpt>
        <trkpt lat="28.01239" lon="105.617717"><ele>1206.6</ele><time>2025-11-21T23:00:52.000Z</time></trkpt>
        <trkpt lat="28.012379" lon="105.617722"><ele>1206.6</ele><time>2025-11-21T23:00:53.000Z</time></trkpt>
        <trkpt lat="28.012369" lon="105.617726"><ele>1206.6</ele><time>2025-11-21T23:00:54.000Z</time></trkpt>
        <trkpt lat="28.012358" lon="105.617728"><ele>1206.6</ele><time>2025-11-21T23:00:55.000Z</time></trkpt>
        <trkpt lat="28.012348" lon="105.61773"><ele>1206.6</ele><time>2025-11-21T23:00:56.000Z</time></trkpt>
        <trkpt lat="28.012337" lon="105.617731"><ele>1206.6</ele><time>2025-11-21T23:00:57.000Z</time></trkpt>
        <trkpt lat="28.012327" lon="105.617733"><ele>1206.6</ele><time>2025-11-21T23:00:58.000Z</time></trkpt>
        <trkpt lat="28.012317" lon="105.617734"><ele>1206.6</ele><time>2025-11-21T23:00:59.000Z</time></trkpt>
        <trkpt lat="28.012307" lon="105.617735"><ele>1206.6</ele><time>2025-11-21T23:01:00.000Z</time></trkpt>
        <trkpt lat="28.012297" lon="105.617736"><ele>1206.6</ele><time>2025-11-21T23:01:01.000Z</time></trkpt>
        <trkpt lat="28.012287" lon="105.617738"><ele>1206.6</ele><time>2025-11-21T23:01:02.000Z</time></trkpt>
        <trkpt lat="28.012277" lon="105.617739"><ele>1206.6</ele><time>2025-11-21T23:01:03.000Z</time></trkpt>
        <trkpt lat="28.012267" lon="105.617741"><ele>1206.6</ele><time>2025-11-21T23:01:04.000Z</time></trkpt>
        <trkpt lat="28.012257" lon="105.617744"><ele>1206.6</ele><time>2025-11-21T23:01:05.000Z</time></trkpt>
        <trkpt lat="28.012246" lon="105.617747"><ele>1206.6</ele><time>2025-11-21T23:01:06.000Z</time></trkpt>
        <trkpt lat="28.012236" lon="105.617751"><ele>1206.6</ele><time>2025-11-21T23:01:07.000Z</time></trkpt>
        <trkpt lat="28.012226" lon="105.617754"><ele>1206.6</ele><time>2025-11-21T23:01:08.000Z</time></trkpt>
        <trkpt lat="28.012216" lon="105.617757"><ele>1206.6</ele><time>2025-11-21T23:01:09.000Z</time></trkpt>
        <trkpt lat="28.012205" lon="105.617759"><ele>1206.6</ele><time>2025-11-21T23:01:10.000Z</time></trkpt>
        <trkpt lat="28.012193" lon="105.617762"><ele>1206.6</ele><time>2025-11-21T23:01:11.000Z</time></trkpt>
        <trkpt lat="28.012181" lon="105.617764"><ele>1206.6</ele><time>2025-11-21T23:01:12.000Z</time></trkpt>
        <trkpt lat="28.012169" lon="105.617767"><ele>1206.6</ele><time>2025-11-21T23:01:13.000Z</time></trkpt>
        <trkpt lat="28.012157" lon="105.617771"><ele>1206.6</ele><time>2025-11-21T23:01:14.000Z</time></trkpt>
        <trkpt lat="28.012146" lon="105.617775"><ele>1206.6</ele><time>2025-11-21T23:01:15.000Z</time></trkpt>
        <trkpt lat="28.012136" lon="105.617779"><ele>1206.6</ele><time>2025-11-21T23:01:16.000Z</time></trkpt>
        <trkpt lat="28.012126" lon="105.617782"><ele>1206.6</ele><time>2025-11-21T23:01:17.000Z</time></trkpt>
        <trkpt lat="28.012116" lon="105.617786"><ele>1206.6</ele><time>2025-11-21T23:01:18.000Z</time></trkpt>
        <trkpt lat="28.012106" lon="105.617788"><ele>1206.6</ele><time>2025-11-21T23:01:19.000Z</time></trkpt>
        <trkpt lat="28.012096" lon="105.61779"><ele>1206.6</ele><time>2025-11-21T23:01:20.000Z</time></trkpt>
        <trkpt lat="28.012086" lon="105.617794"><ele>1206.6</ele><time>2025-11-21T23:01:21.000Z</time></trkpt>
        <trkpt lat="28.012076" lon="105.617797"><ele>1206.6</ele><time>2025-11-21T23:01:22.000Z</time></trkpt>
        <trkpt lat="28.012066" lon="105.617801"><ele>1206.6</ele><time>2025-11-21T23:01:23.000Z</time></trkpt>
        <trkpt lat="28.012056" lon="105.617805"><ele>1206.6</ele><time>2025-11-21T23:01:24.000Z</time></trkpt>
        <trkpt lat="28.012048" lon="105.61781"><ele>1206.6</ele><time>2025-11-21T23:01:25.000Z</time></trkpt>
        <trkpt lat="28.012039" lon="105.617815"><ele>1206.6</ele><time>2025-11-21T23:01:26.000Z</time></trkpt>
        <trkpt lat="28.012029" lon="105.617819"><ele>1206.6</ele><time>2025-11-21T23:01:27.000Z</time></trkpt>
        <trkpt lat="28.012019" lon="105.617822"><ele>1206.6</ele><time>2025-11-21T23:01:28.000Z</time></trkpt>
        <trkpt lat="28.012009" lon="105.617826"><ele>1206.6</ele><time>2025-11-21T23:01:29.000Z</time></trkpt>
        <trkpt lat="28.011998" lon="105.61783"><ele>1206.6</ele><time>2025-11-21T23:01:30.000Z</time></trkpt>
        <trkpt lat="28.011986" lon="105.617833"><ele>1206.6</ele><time>2025-11-21T23:01:31.000Z</time></trkpt>
        <trkpt lat="28.011976" lon="105.617838"><ele>1206.6</ele><time>2025-11-21T23:01:32.000Z</time></trkpt>
        <trkpt lat="28.011965" lon="105.617842"><ele>1206.6</ele><time>2025-11-21T23:01:33.000Z</time></trkpt>
        <trkpt lat="28.011955" lon="105.617846"><ele>1206.6</ele><time>2025-11-21T23:01:34.000Z</time></trkpt>
        <trkpt lat="28.011944" lon="105.617849"><ele>1206.6</ele><time>2025-11-21T23:01:35.000Z</time></trkpt>
        <trkpt lat="28.011934" lon="105.617852"><ele>1206.6</ele><time>2025-11-21T23:01:36.000Z</time></trkpt>
        <trkpt lat="28.011924" lon="105.617853"><ele>1206.6</ele><time>2025-11-21T23:01:37.000Z</time></trkpt>
        <trkpt lat="28.011913" lon="105.617853"><ele>1206.6</ele><time>2025-11-21T23:01:38.000Z</time></trkpt>
        <trkpt lat="28.011903" lon="105.617853"><ele>1206.6</ele><time>2025-11-21T23:01:39.000Z</time></trkpt>
        <trkpt lat="28.011893" lon="105.617852"><ele>1206.6</ele><time>2025-11-21T23:01:40.000Z</time></trkpt>
        <trkpt lat="28.011884" lon="105.617852"><ele>1206.6</ele><time>2025-11-21T23:01:41.000Z</time></trkpt>
        <trkpt lat="28.011874" lon="105.617851"><ele>1206.6</ele><time>2025-11-21T23:01:42.000Z</time></trkpt>
        <trkpt lat="28.011864" lon="105.61785"><ele>1206.6</ele><time>2025-11-21T23:01:43.000Z</time></trkpt>
        <trkpt lat="28.011854" lon="105.617849"><ele>1206.6</ele><time>2025-11-21T23:01:44.000Z</time></trkpt>
        <trkpt lat="28.011843" lon="105.617848"><ele>1206.6</ele><time>2025-11-21T23:01:45.000Z</time></trkpt>
        <trkpt lat="28.011832" lon="105.617847"><ele>1206.6</ele><time>2025-11-21T23:01:46.000Z</time></trkpt>
        <trkpt lat="28.011821" lon="105.617846"><ele>1206.6</ele><time>2025-11-21T23:01:47.000Z</time></trkpt>
        <trkpt lat="28.01181" lon="105.617845"><ele>1206.6</ele><time>2025-11-21T23:01:48.000Z</time></trkpt>
        <trkpt lat="28.011799" lon="105.617844"><ele>1206.6</ele><time>2025-11-21T23:01:49.000Z</time></trkpt>
        <trkpt lat="28.011789" lon="105.617844"><ele>1206.6</ele><time>2025-11-21T23:01:50.000Z</time></trkpt>
        <trkpt lat="28.011779" lon="105.617843"><ele>1206.6</ele><time>2025-11-21T23:01:51.000Z</time></trkpt>
        <trkpt lat="28.011769" lon="105.617842"><ele>1206.6</ele><time>2025-11-21T23:01:52.000Z</time></trkpt>
        <trkpt lat="28.011759" lon="105.617841"><ele>1206.6</ele><time>2025-11-21T23:01:53.000Z</time></trkpt>
        <trkpt lat="28.011749" lon="105.61784"><ele>1206.6</ele><time>2025-11-21T23:01:54.000Z</time></trkpt>
        <trkpt lat="28.011738" lon="105.61784"><ele>1206.6</ele><time>2025-11-21T23:01:55.000Z</time></trkpt>
        <trkpt lat="28.011727" lon="105.617839"><ele>1206.6</ele><time>2025-11-21T23:01:56.000Z</time></trkpt>
        <trkpt lat="28.011716" lon="105.617839"><ele>1206.6</ele><time>2025-11-21T23:01:57.000Z</time></trkpt>
        <trkpt lat="28.011704" lon="105.61784"><ele>1206.6</ele><time>2025-11-21T23:01:58.000Z</time></trkpt>
        <trkpt lat="28.011693" lon="105.61784"><ele>1206.6</ele><time>2025-11-21T23:01:59.000Z</time></trkpt>
        <trkpt lat="28.011681" lon="105.61784"><ele>1206.6</ele><time>2025-11-21T23:02:00.000Z</time></trkpt>
        <trkpt lat="28.01167" lon="105.617841"><ele>1206.6</ele><time>2025-11-21T23:02:01.000Z</time></trkpt>
        <trkpt lat="28.011659" lon="105.617841"><ele>1206.6</ele><time>2025-11-21T23:02:02.000Z</time></trkpt>
        <trkpt lat="28.011647" lon="105.617842"><ele>1206.6</ele><time>2025-11-21T23:02:03.000Z</time></trkpt>
        <trkpt lat="28.011636" lon="105.617842"><ele>1206.6</ele><time>2025-11-21T23:02:04.000Z</time></trkpt>
        <trkpt lat="28.011624" lon="105.617843"><ele>1206.6</ele><time>2025-11-21T23:02:05.000Z</time></trkpt>
        <trkpt lat="28.011612" lon="105.617843"><ele>1206.6</ele><time>2025-11-21T23:02:06.000Z</time></trkpt>
        <trkpt lat="28.0116" lon="105.617843"><ele>1206.6</ele><time>2025-11-21T23:02:07.000Z</time></trkpt>
        <trkpt lat="28.011589" lon="105.617843"><ele>1206.6</ele><time>2025-11-21T23:02:08.000Z</time></trkpt>
        <trkpt lat="28.011578" lon="105.617844"><ele>1206.6</ele><time>2025-11-21T23:02:09.000Z</time></trkpt>
        <trkpt lat="28.011567" lon="105.617845"><ele>1206.6</ele><time>2025-11-21T23:02:10.000Z</time></trkpt>
        <trkpt lat="28.011556" lon="105.617848"><ele>1206.6</ele><time>2025-11-21T23:02:11.000Z</time></trkpt>
        <trkpt lat="28.011545" lon="105.617851"><ele>1206.6</ele><time>2025-11-21T23:02:12.000Z</time></trkpt>
        <trkpt lat="28.011533" lon="105.617854"><ele>1206.6</ele><time>2025-11-21T23:02:13.000Z</time></trkpt>
        <trkpt lat="28.011522" lon="105.617857"><ele>1206.6</ele><time>2025-11-21T23:02:14.000Z</time></trkpt>
        <trkpt lat="28.011511" lon="105.617859"><ele>1206.6</ele><time>2025-11-21T23:02:15.000Z</time></trkpt>
        <trkpt lat="28.0115" lon="105.617861"><ele>1206.6</ele><time>2025-11-21T23:02:16.000Z</time></trkpt>
        <trkpt lat="28.011491" lon="105.617864"><ele>1206.6</ele><time>2025-11-21T23:02:17.000Z</time></trkpt>
        <trkpt lat="28.011481" lon="105.617866"><ele>1206.6</ele><time>2025-11-21T23:02:18.000Z</time></trkpt>
        <trkpt lat="28.011472" lon="105.617868"><ele>1206.6</ele><time>2025-11-21T23:02:19.000Z</time></trkpt>
        <trkpt lat="28.011464" lon="105.61787"><ele>1206.6</ele><time>2025-11-21T23:02:20.000Z</time></trkpt>
        <trkpt lat="28.011454" lon="105.617872"><ele>1206.6</ele><time>2025-11-21T23:02:21.000Z</time></trkpt>
        <trkpt lat="28.011445" lon="105.617874"><ele>1206.6</ele><time>2025-11-21T23:02:22.000Z</time></trkpt>
        <trkpt lat="28.011436" lon="105.617876"><ele>1206.6</ele><time>2025-11-21T23:02:23.000Z</time></trkpt>
        <trkpt lat="28.011425" lon="105.617877"><ele>1206.6</ele><time>2025-11-21T23:02:24.000Z</time></trkpt>
        <trkpt lat="28.011415" lon="105.617878"><ele>1206.6</ele><time>2025-11-21T23:02:25.000Z</time></trkpt>
        <trkpt lat="28.011405" lon="105.617879"><ele>1206.6</ele><time>2025-11-21T23:02:26.000Z</time></trkpt>
        <trkpt lat="28.011395" lon="105.61788"><ele>1206.6</ele><time>2025-11-21T23:02:27.000Z</time></trkpt>
        <trkpt lat="28.011384" lon="105.61788"><ele>1206.6</ele><time>2025-11-21T23:02:28.000Z</time></trkpt>
        <trkpt lat="28.011375" lon="105.61788"><ele>1206.6</ele><time>2025-11-21T23:02:29.000Z</time></trkpt>
        <trkpt lat="28.011365" lon="105.617881"><ele>1206.6</ele><time>2025-11-21T23:02:30.000Z</time></trkpt>
        <trkpt lat="28.011356" lon="105.617882"><ele>1206.6</ele><time>2025-11-21T23:02:31.000Z</time></trkpt>
        <trkpt lat="28.011346" lon="105.617885"><ele>1206.6</ele><time>2025-11-21T23:02:32.000Z</time></trkpt>
        <trkpt lat="28.011338" lon="105.617891"><ele>1206.6</ele><time>2025-11-21T23:02:33.000Z</time></trkpt>
        <trkpt lat="28.011329" lon="105.617897"><ele>1206.6</ele><time>2025-11-21T23:02:34.000Z</time></trkpt>
        <trkpt lat="28.011321" lon="105.617905"><ele>1206.6</ele><time>2025-11-21T23:02:35.000Z</time></trkpt>
        <trkpt lat="28.011313" lon="105.617915"><ele>1206.6</ele><time>2025-11-21T23:02:36.000Z</time></trkpt>
        <trkpt lat="28.011304" lon="105.617924"><ele>1206.6</ele><time>2025-11-21T23:02:37.000Z</time></trkpt>
        <trkpt lat="28.011295" lon="105.617933"><ele>1206.6</ele><time>2025-11-21T23:02:38.000Z</time></trkpt>
        <trkpt lat="28.011286" lon="105.617943"><ele>1206.6</ele><time>2025-11-21T23:02:39.000Z</time></trkpt>
        <trkpt lat="28.011278" lon="105.617953"><ele>1206.6</ele><time>2025-11-21T23:02:40.000Z</time></trkpt>
        <trkpt lat="28.011269" lon="105.617962"><ele>1206.6</ele><time>2025-11-21T23:02:41.000Z</time></trkpt>
        <trkpt lat="28.011262" lon="105.617972"><ele>1206.6</ele><time>2025-11-21T23:02:42.000Z</time></trkpt>
        <trkpt lat="28.011254" lon="105.617981"><ele>1206.6</ele><time>2025-11-21T23:02:43.000Z</time></trkpt>
        <trkpt lat="28.011246" lon="105.61799"><ele>1206.6</ele><time>2025-11-21T23:02:44.000Z</time></trkpt>
        <trkpt lat="28.011237" lon="105.617998"><ele>1206.6</ele><time>2025-11-21T23:02:45.000Z</time></trkpt>
        <trkpt lat="28.011228" lon="105.618006"><ele>1206.6</ele><time>2025-11-21T23:02:46.000Z</time></trkpt>
        <trkpt lat="28.011218" lon="105.618013"><ele>1206.6</ele><time>2025-11-21T23:02:47.000Z</time></trkpt>
        <trkpt lat="28.01121" lon="105.618019"><ele>1206.6</ele><time>2025-11-21T23:02:48.000Z</time></trkpt>
        <trkpt lat="28.011201" lon="105.618025"><ele>1206.6</ele><time>2025-11-21T23:02:49.000Z</time></trkpt>
        <trkpt lat="28.011193" lon="105.61803"><ele>1206.6</ele><time>2025-11-21T23:02:50.000Z</time></trkpt>
        <trkpt lat="28.011183" lon="105.618034"><ele>1206.6</ele><time>2025-11-21T23:02:51.000Z</time></trkpt>
        <trkpt lat="28.011174" lon="105.618038"><ele>1206.6</ele><time>2025-11-21T23:02:52.000Z</time></trkpt>
        <trkpt lat="28.011163" lon="105.618041"><ele>1206.6</ele><time>2025-11-21T23:02:53.000Z</time></trkpt>
        <trkpt lat="28.011152" lon="105.618043"><ele>1206.6</ele><time>2025-11-21T23:02:54.000Z</time></trkpt>
        <trkpt lat="28.011141" lon="105.618047"><ele>1206.6</ele><time>2025-11-21T23:02:55.000Z</time></trkpt>
        <trkpt lat="28.01113" lon="105.61805"><ele>1206.6</ele><time>2025-11-21T23:02:56.000Z</time></trkpt>
        <trkpt lat="28.011118" lon="105.618054"><ele>1206.6</ele><time>2025-11-21T23:02:57.000Z</time></trkpt>
        <trkpt lat="28.011106" lon="105.618058"><ele>1206.6</ele><time>2025-11-21T23:02:58.000Z</time></trkpt>
        <trkpt lat="28.011095" lon="105.618061"><ele>1206.6</ele><time>2025-11-21T23:02:59.000Z</time></trkpt>
        <trkpt lat="28.011084" lon="105.618064"><ele>1206.6</ele><time>2025-11-21T23:03:00.000Z</time></trkpt>
        <trkpt lat="28.011074" lon="105.618067"><ele>1206.6</ele><time>2025-11-21T23:03:01.000Z</time></trkpt>
        <trkpt lat="28.011066" lon="105.618071"><ele>1206.6</ele><time>2025-11-21T23:03:02.000Z</time></trkpt>
        <trkpt lat="28.011058" lon="105.618076"><ele>1206.6</ele><time>2025-11-21T23:03:03.000Z</time></trkpt>
        <trkpt lat="28.011051" lon="105.618083"><ele>1206.6</ele><time>2025-11-21T23:03:04.000Z</time></trkpt>
        <trkpt lat="28.011044" lon="105.618091"><ele>1206.6</ele><time>2025-11-21T23:03:05.000Z</time></trkpt>
        <trkpt lat="28.011038" lon="105.618099"><ele>1206.6</ele><time>2025-11-21T23:03:06.000Z</time></trkpt>
        <trkpt lat="28.011032" lon="105.618107"><ele>1206.6</ele><time>2025-11-21T23:03:07.000Z</time></trkpt>
        <trkpt lat="28.011026" lon="105.618114"><ele>1206.6</ele><time>2025-11-21T23:03:08.000Z</time></trkpt>
        <trkpt lat="28.01102" lon="105.618122"><ele>1206.6</ele><time>2025-11-21T23:03:09.000Z</time></trkpt>
        <trkpt lat="28.011014" lon="105.618128"><ele>1206.6</ele><time>2025-11-21T23:03:10.000Z</time></trkpt>
        <trkpt lat="28.011007" lon="105.618134"><ele>1206.6</ele><time>2025-11-21T23:03:11.000Z</time></trkpt>
        <trkpt lat="28.011" lon="105.618142"><ele>1206.8</ele><time>2025-11-21T23:03:12.000Z</time></trkpt>
        <trkpt lat="28.010993" lon="105.618152"><ele>1206.8</ele><time>2025-11-21T23:03:13.000Z</time></trkpt>
        <trkpt lat="28.010985" lon="105.618162"><ele>1206.8</ele><time>2025-11-21T23:03:14.000Z</time></trkpt>
        <trkpt lat="28.010978" lon="105.618174"><ele>1206.8</ele><time>2025-11-21T23:03:15.000Z</time></trkpt>
        <trkpt lat="28.01097" lon="105.618185"><ele>1206.8</ele><time>2025-11-21T23:03:16.000Z</time></trkpt>
        <trkpt lat="28.010962" lon="105.618197"><ele>1206.8</ele><time>2025-11-21T23:03:17.000Z</time></trkpt>
        <trkpt lat="28.010955" lon="105.618208"><ele>1206.8</ele><time>2025-11-21T23:03:18.000Z</time></trkpt>
        <trkpt lat="28.010948" lon="105.618219"><ele>1206.8</ele><time>2025-11-21T23:03:19.000Z</time></trkpt>
        <trkpt lat="28.010941" lon="105.61823"><ele>1206.8</ele><time>2025-11-21T23:03:20.000Z</time></trkpt>
        <trkpt lat="28.010934" lon="105.618241"><ele>1206.8</ele><time>2025-11-21T23:03:21.000Z</time></trkpt>
        <trkpt lat="28.010927" lon="105.618253"><ele>1206.8</ele><time>2025-11-21T23:03:22.000Z</time></trkpt>
        <trkpt lat="28.010919" lon="105.618264"><ele>1206.8</ele><time>2025-11-21T23:03:23.000Z</time></trkpt>
        <trkpt lat="28.010912" lon="105.618276"><ele>1206.8</ele><time>2025-11-21T23:03:24.000Z</time></trkpt>
        <trkpt lat="28.010904" lon="105.618287"><ele>1206.8</ele><time>2025-11-21T23:03:25.000Z</time></trkpt>
        <trkpt lat="28.010897" lon="105.618298"><ele>1206.8</ele><time>2025-11-21T23:03:26.000Z</time></trkpt>
        <trkpt lat="28.010891" lon="105.618308"><ele>1206.6</ele><time>2025-11-21T23:03:27.000Z</time></trkpt>
        <trkpt lat="28.010884" lon="105.618318"><ele>1206.6</ele><time>2025-11-21T23:03:28.000Z</time></trkpt>
        <trkpt lat="28.010878" lon="105.618328"><ele>1206.6</ele><time>2025-11-21T23:03:29.000Z</time></trkpt>
        <trkpt lat="28.010872" lon="105.618338"><ele>1206.6</ele><time>2025-11-21T23:03:30.000Z</time></trkpt>
        <trkpt lat="28.010868" lon="105.618348"><ele>1206.6</ele><time>2025-11-21T23:03:31.000Z</time></trkpt>
        <trkpt lat="28.010864" lon="105.61836"><ele>1206.4</ele><time>2025-11-21T23:03:32.000Z</time></trkpt>
        <trkpt lat="28.010861" lon="105.618371"><ele>1206.4</ele><time>2025-11-21T23:03:33.000Z</time></trkpt>
        <trkpt lat="28.010858" lon="105.618382"><ele>1206.4</ele><time>2025-11-21T23:03:34.000Z</time></trkpt>
        <trkpt lat="28.010856" lon="105.618392"><ele>1206.4</ele><time>2025-11-21T23:03:35.000Z</time></trkpt>
        <trkpt lat="28.010854" lon="105.618402"><ele>1206.4</ele><time>2025-11-21T23:03:36.000Z</time></trkpt>
        <trkpt lat="28.010852" lon="105.618412"><ele>1206.4</ele><time>2025-11-21T23:03:37.000Z</time></trkpt>
        <trkpt lat="28.010851" lon="105.618422"><ele>1206.4</ele><time>2025-11-21T23:03:38.000Z</time></trkpt>
        <trkpt lat="28.010852" lon="105.618433"><ele>1206.4</ele><time>2025-11-21T23:03:39.000Z</time></trkpt>
        <trkpt lat="28.010854" lon="105.618444"><ele>1206.4</ele><time>2025-11-21T23:03:40.000Z</time></trkpt>
        <trkpt lat="28.010855" lon="105.618457"><ele>1206.4</ele><time>2025-11-21T23:03:41.000Z</time></trkpt>
        <trkpt lat="28.010856" lon="105.61847"><ele>1206.4</ele><time>2025-11-21T23:03:42.000Z</time></trkpt>
        <trkpt lat="28.010856" lon="105.618483"><ele>1206.4</ele><time>2025-11-21T23:03:43.000Z</time></trkpt>
        <trkpt lat="28.010855" lon="105.618496"><ele>1206.4</ele><time>2025-11-21T23:03:44.000Z</time></trkpt>
        <trkpt lat="28.010854" lon="105.618509"><ele>1206.4</ele><time>2025-11-21T23:03:45.000Z</time></trkpt>
        <trkpt lat="28.010852" lon="105.618523"><ele>1206.4</ele><time>2025-11-21T23:03:46.000Z</time></trkpt>
        <trkpt lat="28.010849" lon="105.618536"><ele>1206.4</ele><time>2025-11-21T23:03:47.000Z</time></trkpt>
        <trkpt lat="28.010845" lon="105.618549"><ele>1206.4</ele><time>2025-11-21T23:03:48.000Z</time></trkpt>
        <trkpt lat="28.01084" lon="105.618562"><ele>1206.4</ele><time>2025-11-21T23:03:49.000Z</time></trkpt>
        <trkpt lat="28.010834" lon="105.618576"><ele>1206.4</ele><time>2025-11-21T23:03:50.000Z</time></trkpt>
        <trkpt lat="28.010829" lon="105.618588"><ele>1206.4</ele><time>2025-11-21T23:03:51.000Z</time></trkpt>
        <trkpt lat="28.010824" lon="105.6186"><ele>1206.4</ele><time>2025-11-21T23:03:52.000Z</time></trkpt>
        <trkpt lat="28.010819" lon="105.618611"><ele>1206.4</ele><time>2025-11-21T23:03:53.000Z</time></trkpt>
        <trkpt lat="28.010814" lon="105.618621"><ele>1206.4</ele><time>2025-11-21T23:03:54.000Z</time></trkpt>
        <trkpt lat="28.010809" lon="105.61863"><ele>1206.4</ele><time>2025-11-21T23:03:55.000Z</time></trkpt>
        <trkpt lat="28.010804" lon="105.61864"><ele>1206.4</ele><time>2025-11-21T23:03:56.000Z</time></trkpt>
        <trkpt lat="28.010798" lon="105.61865"><ele>1206.4</ele><time>2025-11-21T23:03:57.000Z</time></trkpt>
        <trkpt lat="28.010792" lon="105.61866"><ele>1206.4</ele><time>2025-11-21T23:03:58.000Z</time></trkpt>
        <trkpt lat="28.010786" lon="105.61867"><ele>1206.4</ele><time>2025-11-21T23:03:59.000Z</time></trkpt>
        <trkpt lat="28.010781" lon="105.61868"><ele>1206.4</ele><time>2025-11-21T23:04:00.000Z</time></trkpt>
        <trkpt lat="28.010775" lon="105.61869"><ele>1206.4</ele><time>2025-11-21T23:04:01.000Z</time></trkpt>
        <trkpt lat="28.01077" lon="105.6187"><ele>1206.4</ele><time>2025-11-21T23:04:02.000Z</time></trkpt>
        <trkpt lat="28.010765" lon="105.61871"><ele>1206.4</ele><time>2025-11-21T23:04:03.000Z</time></trkpt>
        <trkpt lat="28.01076" lon="105.618721"><ele>1206.4</ele><time>2025-11-21T23:04:04.000Z</time></trkpt>
        <trkpt lat="28.010754" lon="105.618731"><ele>1206.4</ele><time>2025-11-21T23:04:05.000Z</time></trkpt>
        <trkpt lat="28.010748" lon="105.618741"><ele>1206.4</ele><time>2025-11-21T23:04:06.000Z</time></trkpt>
        <trkpt lat="28.010741" lon="105.618751"><ele>1206.4</ele><time>2025-11-21T23:04:07.000Z</time></trkpt>
        <trkpt lat="28.010734" lon="105.618761"><ele>1206.4</ele><time>2025-11-21T23:04:08.000Z</time></trkpt>
        <trkpt lat="28.010726" lon="105.61877"><ele>1206.4</ele><time>2025-11-21T23:04:09.000Z</time></trkpt>
        <trkpt lat="28.010719" lon="105.61878"><ele>1206.4</ele><time>2025-11-21T23:04:10.000Z</time></trkpt>
        <trkpt lat="28.010712" lon="105.61879"><ele>1206.4</ele><time>2025-11-21T23:04:11.000Z</time></trkpt>
        <trkpt lat="28.010706" lon="105.6188"><ele>1206.4</ele><time>2025-11-21T23:04:12.000Z</time></trkpt>
        <trkpt lat="28.0107" lon="105.618811"><ele>1206.4</ele><time>2025-11-21T23:04:13.000Z</time></trkpt>
        <trkpt lat="28.010695" lon="105.61882"><ele>1206.4</ele><time>2025-11-21T23:04:14.000Z</time></trkpt>
        <trkpt lat="28.01069" lon="105.61883"><ele>1206.4</ele><time>2025-11-21T23:04:15.000Z</time></trkpt>
        <trkpt lat="28.010684" lon="105.618839"><ele>1206.4</ele><time>2025-11-21T23:04:16.000Z</time></trkpt>
        <trkpt lat="28.010678" lon="105.618849"><ele>1206.4</ele><time>2025-11-21T23:04:17.000Z</time></trkpt>
        <trkpt lat="28.01067" lon="105.618858"><ele>1206.4</ele><time>2025-11-21T23:04:18.000Z</time></trkpt>
        <trkpt lat="28.010663" lon="105.618867"><ele>1206.4</ele><time>2025-11-21T23:04:19.000Z</time></trkpt>
        <trkpt lat="28.010655" lon="105.618876"><ele>1206.4</ele><time>2025-11-21T23:04:20.000Z</time></trkpt>
        <trkpt lat="28.010647" lon="105.618884"><ele>1206.4</ele><time>2025-11-21T23:04:21.000Z</time></trkpt>
        <trkpt lat="28.010639" lon="105.618893"><ele>1206.4</ele><time>2025-11-21T23:04:22.000Z</time></trkpt>
        <trkpt lat="28.010632" lon="105.618902"><ele>1206.4</ele><time>2025-11-21T23:04:23.000Z</time></trkpt>
        <trkpt lat="28.010625" lon="105.618913"><ele>1206.4</ele><time>2025-11-21T23:04:24.000Z</time></trkpt>
        <trkpt lat="28.010619" lon="105.618924"><ele>1206.4</ele><time>2025-11-21T23:04:25.000Z</time></trkpt>
        <trkpt lat="28.010613" lon="105.618937"><ele>1206.4</ele><time>2025-11-21T23:04:26.000Z</time></trkpt>
        <trkpt lat="28.010607" lon="105.61895"><ele>1206.4</ele><time>2025-11-21T23:04:27.000Z</time></trkpt>
        <trkpt lat="28.0106" lon="105.618962"><ele>1206.4</ele><time>2025-11-21T23:04:28.000Z</time></trkpt>
        <trkpt lat="28.010594" lon="105.618974"><ele>1206.4</ele><time>2025-11-21T23:04:29.000Z</time></trkpt>
        <trkpt lat="28.010587" lon="105.618984"><ele>1206.4</ele><time>2025-11-21T23:04:30.000Z</time></trkpt>
        <trkpt lat="28.01058" lon="105.618994"><ele>1206.4</ele><time>2025-11-21T23:04:31.000Z</time></trkpt>
        <trkpt lat="28.010573" lon="105.619005"><ele>1206.4</ele><time>2025-11-21T23:04:32.000Z</time></trkpt>
        <trkpt lat="28.010567" lon="105.619015"><ele>1206.4</ele><time>2025-11-21T23:04:33.000Z</time></trkpt>
        <trkpt lat="28.010563" lon="105.619027"><ele>1206.4</ele><time>2025-11-21T23:04:34.000Z</time></trkpt>
        <trkpt lat="28.01056" lon="105.61904"><ele>1206.4</ele><time>2025-11-21T23:04:35.000Z</time></trkpt>
        <trkpt lat="28.010558" lon="105.619052"><ele>1206.4</ele><time>2025-11-21T23:04:36.000Z</time></trkpt>
        <trkpt lat="28.010555" lon="105.619065"><ele>1206.4</ele><time>2025-11-21T23:04:37.000Z</time></trkpt>
        <trkpt lat="28.010554" lon="105.619078"><ele>1206.4</ele><time>2025-11-21T23:04:38.000Z</time></trkpt>
        <trkpt lat="28.010552" lon="105.619089"><ele>1206.4</ele><time>2025-11-21T23:04:39.000Z</time></trkpt>
        <trkpt lat="28.010551" lon="105.619099"><ele>1206.4</ele><time>2025-11-21T23:04:40.000Z</time></trkpt>
        <trkpt lat="28.010549" lon="105.619108"><ele>1206.4</ele><time>2025-11-21T23:04:41.000Z</time></trkpt>
        <trkpt lat="28.010549" lon="105.619117"><ele>1206.4</ele><time>2025-11-21T23:04:42.000Z</time></trkpt>
        <trkpt lat="28.010547" lon="105.619127"><ele>1206.4</ele><time>2025-11-21T23:04:43.000Z</time></trkpt>
        <trkpt lat="28.010546" lon="105.619136"><ele>1206.4</ele><time>2025-11-21T23:04:44.000Z</time></trkpt>
        <trkpt lat="28.010544" lon="105.619147"><ele>1206.4</ele><time>2025-11-21T23:04:45.000Z</time></trkpt>
        <trkpt lat="28.010542" lon="105.619158"><ele>1206.4</ele><time>2025-11-21T23:04:46.000Z</time></trkpt>
        <trkpt lat="28.01054" lon="105.619169"><ele>1206.4</ele><time>2025-11-21T23:04:47.000Z</time></trkpt>
        <trkpt lat="28.01054" lon="105.619181"><ele>1206.4</ele><time>2025-11-21T23:04:48.000Z</time></trkpt>
        <trkpt lat="28.010541" lon="105.619193"><ele>1206.4</ele><time>2025-11-21T23:04:49.000Z</time></trkpt>
        <trkpt lat="28.010543" lon="105.619206"><ele>1206.4</ele><time>2025-11-21T23:04:50.000Z</time></trkpt>
        <trkpt lat="28.010545" lon="105.619219"><ele>1206.4</ele><time>2025-11-21T23:04:51.000Z</time></trkpt>
        <trkpt lat="28.010549" lon="105.619233"><ele>1206.4</ele><time>2025-11-21T23:04:52.000Z</time></trkpt>
        <trkpt lat="28.010552" lon="105.619247"><ele>1206.4</ele><time>2025-11-21T23:04:53.000Z</time></trkpt>
        <trkpt lat="28.010556" lon="105.619261"><ele>1206.4</ele><time>2025-11-21T23:04:54.000Z</time></trkpt>
        <trkpt lat="28.01056" lon="105.619274"><ele>1206.4</ele><time>2025-11-21T23:04:55.000Z</time></trkpt>
        <trkpt lat="28.010565" lon="105.619288"><ele>1206.4</ele><time>2025-11-21T23:04:56.000Z</time></trkpt>
        <trkpt lat="28.010569" lon="105.6193"><ele>1206.4</ele><time>2025-11-21T23:04:57.000Z</time></trkpt>
        <trkpt lat="28.010573" lon="105.619313"><ele>1206.4</ele><time>2025-11-21T23:04:58.000Z</time></trkpt>
        <trkpt lat="28.010576" lon="105.619325"><ele>1206.4</ele><time>2025-11-21T23:04:59.000Z</time></trkpt>
        <trkpt lat="28.01058" lon="105.619337"><ele>1206.4</ele><time>2025-11-21T23:05:00.000Z</time></trkpt>
        <trkpt lat="28.010584" lon="105.619348"><ele>1206.4</ele><time>2025-11-21T23:05:01.000Z</time></trkpt>
        <trkpt lat="28.010589" lon="105.619359"><ele>1206.4</ele><time>2025-11-21T23:05:02.000Z</time></trkpt>
        <trkpt lat="28.010594" lon="105.619369"><ele>1206.4</ele><time>2025-11-21T23:05:03.000Z</time></trkpt>
        <trkpt lat="28.0106" lon="105.619378"><ele>1206.4</ele><time>2025-11-21T23:05:04.000Z</time></trkpt>
        <trkpt lat="28.010607" lon="105.619389"><ele>1206.4</ele><time>2025-11-21T23:05:05.000Z</time></trkpt>
        <trkpt lat="28.010613" lon="105.619399"><ele>1206.4</ele><time>2025-11-21T23:05:06.000Z</time></trkpt>
        <trkpt lat="28.010619" lon="105.61941"><ele>1206.4</ele><time>2025-11-21T23:05:07.000Z</time></trkpt>
        <trkpt lat="28.010624" lon="105.619421"><ele>1206.4</ele><time>2025-11-21T23:05:08.000Z</time></trkpt>
        <trkpt lat="28.010627" lon="105.619433"><ele>1206.4</ele><time>2025-11-21T23:05:09.000Z</time></trkpt>
        <trkpt lat="28.010629" lon="105.619444"><ele>1206.4</ele><time>2025-11-21T23:05:10.000Z</time></trkpt>
        <trkpt lat="28.010632" lon="105.619456"><ele>1206.4</ele><time>2025-11-21T23:05:11.000Z</time></trkpt>
        <trkpt lat="28.010633" lon="105.619468"><ele>1206.4</ele><time>2025-11-21T23:05:12.000Z</time></trkpt>
        <trkpt lat="28.010634" lon="105.619481"><ele>1206.4</ele><time>2025-11-21T23:05:13.000Z</time></trkpt>
        <trkpt lat="28.010633" lon="105.619493"><ele>1206.4</ele><time>2025-11-21T23:05:14.000Z</time></trkpt>
        <trkpt lat="28.010632" lon="105.619506"><ele>1206.4</ele><time>2025-11-21T23:05:15.000Z</time></trkpt>
        <trkpt lat="28.010629" lon="105.619518"><ele>1206.4</ele><time>2025-11-21T23:05:16.000Z</time></trkpt>
        <trkpt lat="28.010626" lon="105.619529"><ele>1206.4</ele><time>2025-11-21T23:05:17.000Z</time></trkpt>
        <trkpt lat="28.010622" lon="105.619541"><ele>1206.4</ele><time>2025-11-21T23:05:18.000Z</time></trkpt>
        <trkpt lat="28.010619" lon="105.619552"><ele>1206.4</ele><time>2025-11-21T23:05:19.000Z</time></trkpt>
        <trkpt lat="28.010615" lon="105.619564"><ele>1206.4</ele><time>2025-11-21T23:05:20.000Z</time></trkpt>
        <trkpt lat="28.01061" lon="105.619575"><ele>1206.4</ele><time>2025-11-21T23:05:21.000Z</time></trkpt>
        <trkpt lat="28.010605" lon="105.619585"><ele>1206.4</ele><time>2025-11-21T23:05:22.000Z</time></trkpt>
        <trkpt lat="28.0106" lon="105.619597"><ele>1206.4</ele><time>2025-11-21T23:05:23.000Z</time></trkpt>
        <trkpt lat="28.010595" lon="105.619608"><ele>1206.4</ele><time>2025-11-21T23:05:24.000Z</time></trkpt>
        <trkpt lat="28.01059" lon="105.61962"><ele>1206.4</ele><time>2025-11-21T23:05:25.000Z</time></trkpt>
        <trkpt lat="28.010584" lon="105.619633"><ele>1206.4</ele><time>2025-11-21T23:05:26.000Z</time></trkpt>
        <trkpt lat="28.010579" lon="105.619646"><ele>1206.4</ele><time>2025-11-21T23:05:27.000Z</time></trkpt>
        <trkpt lat="28.010574" lon="105.619659"><ele>1206.4</ele><time>2025-11-21T23:05:28.000Z</time></trkpt>
        <trkpt lat="28.010568" lon="105.619671"><ele>1206.4</ele><time>2025-11-21T23:05:29.000Z</time></trkpt>
        <trkpt lat="28.010563" lon="105.619683"><ele>1206.4</ele><time>2025-11-21T23:05:30.000Z</time></trkpt>
        <trkpt lat="28.010557" lon="105.619696"><ele>1206.4</ele><time>2025-11-21T23:05:31.000Z</time></trkpt>
        <trkpt lat="28.010552" lon="105.619708"><ele>1206.4</ele><time>2025-11-21T23:05:32.000Z</time></trkpt>
        <trkpt lat="28.010546" lon="105.61972"><ele>1206.4</ele><time>2025-11-21T23:05:33.000Z</time></trkpt>
        <trkpt lat="28.010539" lon="105.619731"><ele>1206.4</ele><time>2025-11-21T23:05:34.000Z</time></trkpt>
        <trkpt lat="28.010532" lon="105.619741"><ele>1206.4</ele><time>2025-11-21T23:05:35.000Z</time></trkpt>
        <trkpt lat="28.010524" lon="105.619751"><ele>1206.4</ele><time>2025-11-21T23:05:36.000Z</time></trkpt>
        <trkpt lat="28.010516" lon="105.61976"><ele>1206.6</ele><time>2025-11-21T23:05:37.000Z</time></trkpt>
        <trkpt lat="28.010507" lon="105.619768"><ele>1206.6</ele><time>2025-11-21T23:05:38.000Z</time></trkpt>
        <trkpt lat="28.010499" lon="105.619777"><ele>1206.6</ele><time>2025-11-21T23:05:39.000Z</time></trkpt>
        <trkpt lat="28.010491" lon="105.619785"><ele>1206.6</ele><time>2025-11-21T23:05:40.000Z</time></trkpt>
        <trkpt lat="28.010483" lon="105.619793"><ele>1206.6</ele><time>2025-11-21T23:05:41.000Z</time></trkpt>
        <trkpt lat="28.010474" lon="105.6198"><ele>1206.6</ele><time>2025-11-21T23:05:42.000Z</time></trkpt>
        <trkpt lat="28.010466" lon="105.619807"><ele>1206.6</ele><time>2025-11-21T23:05:43.000Z</time></trkpt>
        <trkpt lat="28.010457" lon="105.619813"><ele>1206.6</ele><time>2025-11-21T23:05:44.000Z</time></trkpt>
        <trkpt lat="28.010449" lon="105.619819"><ele>1206.6</ele><time>2025-11-21T23:05:45.000Z</time></trkpt>
        <trkpt lat="28.01044" lon="105.619825"><ele>1206.6</ele><time>2025-11-21T23:05:46.000Z</time></trkpt>
        <trkpt lat="28.010431" lon="105.619831"><ele>1206.6</ele><time>2025-11-21T23:05:47.000Z</time></trkpt>
        <trkpt lat="28.010422" lon="105.619837"><ele>1206.6</ele><time>2025-11-21T23:05:48.000Z</time></trkpt>
        <trkpt lat="28.010412" lon="105.619842"><ele>1206.6</ele><time>2025-11-21T23:05:49.000Z</time></trkpt>
        <trkpt lat="28.010403" lon="105.619847"><ele>1206.6</ele><time>2025-11-21T23:05:50.000Z</time></trkpt>
        <trkpt lat="28.010393" lon="105.61985"><ele>1206.6</ele><time>2025-11-21T23:05:51.000Z</time></trkpt>
        <trkpt lat="28.010384" lon="105.619854"><ele>1206.6</ele><time>2025-11-21T23:05:52.000Z</time></trkpt>
        <trkpt lat="28.010376" lon="105.619857"><ele>1206.6</ele><time>2025-11-21T23:05:53.000Z</time></trkpt>
        <trkpt lat="28.010369" lon="105.619861"><ele>1206.6</ele><time>2025-11-21T23:05:54.000Z</time></trkpt>
        <trkpt lat="28.010364" lon="105.619867"><ele>1206.6</ele><time>2025-11-21T23:05:55.000Z</time></trkpt>
        <trkpt lat="28.01036" lon="105.619873"><ele>1206.6</ele><time>2025-11-21T23:05:56.000Z</time></trkpt>
        <trkpt lat="28.010361" lon="105.619879"><ele>1206.6</ele><time>2025-11-21T23:05:57.000Z</time></trkpt>
        <trkpt lat="28.010364" lon="105.619885"><ele>1206.6</ele><time>2025-11-21T23:05:58.000Z</time></trkpt>
        <trkpt lat="28.010369" lon="105.619889"><ele>1206.6</ele><time>2025-11-21T23:05:59.000Z</time></trkpt>
        <trkpt lat="28.010376" lon="105.619891"><ele>1206.6</ele><time>2025-11-21T23:06:00.000Z</time></trkpt>
        <trkpt lat="28.010383" lon="105.619892"><ele>1206.6</ele><time>2025-11-21T23:06:01.000Z</time></trkpt>
        <trkpt lat="28.010389" lon="105.619892"><ele>1206.6</ele><time>2025-11-21T23:06:02.000Z</time></trkpt>
        <trkpt lat="28.010395" lon="105.61989"><ele>1206.6</ele><time>2025-11-21T23:06:03.000Z</time></trkpt>
        <trkpt lat="28.0104" lon="105.619889"><ele>1206.6</ele><time>2025-11-21T23:06:04.000Z</time></trkpt>
        <trkpt lat="28.010406" lon="105.619888"><ele>1206.6</ele><time>2025-11-21T23:06:05.000Z</time></trkpt>
        <trkpt lat="28.010412" lon="105.619887"><ele>1206.6</ele><time>2025-11-21T23:06:06.000Z</time></trkpt>
        <trkpt lat="28.010419" lon="105.619886"><ele>1206.6</ele><time>2025-11-21T23:06:07.000Z</time></trkpt>
        <trkpt lat="28.010427" lon="105.619886"><ele>1206.6</ele><time>2025-11-21T23:06:08.000Z</time></trkpt>
        <trkpt lat="28.010436" lon="105.619887"><ele>1206.6</ele><time>2025-11-21T23:06:09.000Z</time></trkpt>
        <trkpt lat="28.010445" lon="105.619887"><ele>1206.6</ele><time>2025-11-21T23:06:10.000Z</time></trkpt>
        <trkpt lat="28.010454" lon="105.619887"><ele>1206.6</ele><time>2025-11-21T23:06:11.000Z</time></trkpt>
        <trkpt lat="28.010463" lon="105.619888"><ele>1206</ele><time>2025-11-21T23:06:12.000Z</time></trkpt>
        <trkpt lat="28.010471" lon="105.619888"><ele>1206</ele><time>2025-11-21T23:06:13.000Z</time></trkpt>
        <trkpt lat="28.010479" lon="105.619887"><ele>1206</ele><time>2025-11-21T23:06:14.000Z</time></trkpt>
        <trkpt lat="28.010486" lon="105.619886"><ele>1206</ele><time>2025-11-21T23:06:15.000Z</time></trkpt>
        <trkpt lat="28.010493" lon="105.619885"><ele>1206</ele><time>2025-11-21T23:06:16.000Z</time></trkpt>
        <trkpt lat="28.010499" lon="105.619885"><ele>1205.5</ele><time>2025-11-21T23:06:17.000Z</time></trkpt>
        <trkpt lat="28.010505" lon="105.619885"><ele>1205.5</ele><time>2025-11-21T23:06:18.000Z</time></trkpt>
        <trkpt lat="28.010511" lon="105.619886"><ele>1205.5</ele><time>2025-11-21T23:06:19.000Z</time></trkpt>
        <trkpt lat="28.010517" lon="105.619887"><ele>1205.5</ele><time>2025-11-21T23:06:20.000Z</time></trkpt>
        <trkpt lat="28.010525" lon="105.619889"><ele>1205.5</ele><time>2025-11-21T23:06:21.000Z</time></trkpt>
        <trkpt lat="28.010533" lon="105.61989"><ele>1204.3</ele><time>2025-11-21T23:06:22.000Z</time></trkpt>
        <trkpt lat="28.010541" lon="105.619891"><ele>1204.3</ele><time>2025-11-21T23:06:23.000Z</time></trkpt>
        <trkpt lat="28.01055" lon="105.619892"><ele>1204.3</ele><time>2025-11-21T23:06:24.000Z</time></trkpt>
        <trkpt lat="28.010558" lon="105.619893"><ele>1204.3</ele><time>2025-11-21T23:06:25.000Z</time></trkpt>
        <trkpt lat="28.010566" lon="105.619894"><ele>1204.3</ele><time>2025-11-21T23:06:26.000Z</time></trkpt>
        <trkpt lat="28.010575" lon="105.619894"><ele>1203.4</ele><time>2025-11-21T23:06:27.000Z</time></trkpt>
        <trkpt lat="28.010582" lon="105.619895"><ele>1203.4</ele><time>2025-11-21T23:06:28.000Z</time></trkpt>
        <trkpt lat="28.010592" lon="105.619894"><ele>1203.4</ele><time>2025-11-21T23:06:29.000Z</time></trkpt>
        <trkpt lat="28.010601" lon="105.619893"><ele>1203.4</ele><time>2025-11-21T23:06:30.000Z</time></trkpt>
        <trkpt lat="28.010612" lon="105.619892"><ele>1203.4</ele><time>2025-11-21T23:06:31.000Z</time></trkpt>
        <trkpt lat="28.010623" lon="105.619892"><ele>1202.1</ele><time>2025-11-21T23:06:32.000Z</time></trkpt>
        <trkpt lat="28.010635" lon="105.619891"><ele>1202.1</ele><time>2025-11-21T23:06:33.000Z</time></trkpt>
        <trkpt lat="28.010645" lon="105.61989"><ele>1202.1</ele><time>2025-11-21T23:06:34.000Z</time></trkpt>
        <trkpt lat="28.010656" lon="105.619888"><ele>1202.1</ele><time>2025-11-21T23:06:35.000Z</time></trkpt>
        <trkpt lat="28.010665" lon="105.619886"><ele>1202.1</ele><time>2025-11-21T23:06:36.000Z</time></trkpt>
        <trkpt lat="28.010674" lon="105.619883"><ele>1200.9</ele><time>2025-11-21T23:06:37.000Z</time></trkpt>
        <trkpt lat="28.010682" lon="105.61988"><ele>1200.9</ele><time>2025-11-21T23:06:38.000Z</time></trkpt>
        <trkpt lat="28.010691" lon="105.619877"><ele>1200.9</ele><time>2025-11-21T23:06:39.000Z</time></trkpt>
        <trkpt lat="28.0107" lon="105.619874"><ele>1200.9</ele><time>2025-11-21T23:06:40.000Z</time></trkpt>
        <trkpt lat="28.010709" lon="105.61987"><ele>1200.9</ele><time>2025-11-21T23:06:41.000Z</time></trkpt>
        <trkpt lat="28.010719" lon="105.619866"><ele>1199.4</ele><time>2025-11-21T23:06:42.000Z</time></trkpt>
        <trkpt lat="28.01073" lon="105.619862"><ele>1199.4</ele><time>2025-11-21T23:06:43.000Z</time></trkpt>
        <trkpt lat="28.010741" lon="105.619858"><ele>1199.4</ele><time>2025-11-21T23:06:44.000Z</time></trkpt>
        <trkpt lat="28.010751" lon="105.619855"><ele>1199.4</ele><time>2025-11-21T23:06:45.000Z</time></trkpt>
        <trkpt lat="28.010762" lon="105.619851"><ele>1199.4</ele><time>2025-11-21T23:06:46.000Z</time></trkpt>
        <trkpt lat="28.010772" lon="105.619849"><ele>1197.9</ele><time>2025-11-21T23:06:47.000Z</time></trkpt>
        <trkpt lat="28.010782" lon="105.619847"><ele>1197.9</ele><time>2025-11-21T23:06:48.000Z</time></trkpt>
        <trkpt lat="28.010791" lon="105.619847"><ele>1197.9</ele><time>2025-11-21T23:06:49.000Z</time></trkpt>
        <trkpt lat="28.010802" lon="105.619847"><ele>1197.9</ele><time>2025-11-21T23:06:50.000Z</time></trkpt>
        <trkpt lat="28.010812" lon="105.619848"><ele>1197.9</ele><time>2025-11-21T23:06:51.000Z</time></trkpt>
        <trkpt lat="28.010822" lon="105.61985"><ele>1196.5</ele><time>2025-11-21T23:06:52.000Z</time></trkpt>
        <trkpt lat="28.010834" lon="105.619851"><ele>1196.5</ele><time>2025-11-21T23:06:53.000Z</time></trkpt>
        <trkpt lat="28.010845" lon="105.619852"><ele>1196.5</ele><time>2025-11-21T23:06:54.000Z</time></trkpt>
        <trkpt lat="28.010856" lon="105.619851"><ele>1196.5</ele><time>2025-11-21T23:06:55.000Z</time></trkpt>
        <trkpt lat="28.010867" lon="105.61985"><ele>1196.5</ele><time>2025-11-21T23:06:56.000Z</time></trkpt>
        <trkpt lat="28.010879" lon="105.619849"><ele>1195.3</ele><time>2025-11-21T23:06:57.000Z</time></trkpt>
        <trkpt lat="28.010891" lon="105.619847"><ele>1195.3</ele><time>2025-11-21T23:06:58.000Z</time></trkpt>
        <trkpt lat="28.010902" lon="105.619846"><ele>1195.3</ele><time>2025-11-21T23:06:59.000Z</time></trkpt>
        <trkpt lat="28.010913" lon="105.619845"><ele>1195.3</ele><time>2025-11-21T23:07:00.000Z</time></trkpt>
        <trkpt lat="28.010923" lon="105.619845"><ele>1195.3</ele><time>2025-11-21T23:07:01.000Z</time></trkpt>
        <trkpt lat="28.010933" lon="105.619844"><ele>1194.4</ele><time>2025-11-21T23:07:02.000Z</time></trkpt>
        <trkpt lat="28.010944" lon="105.619843"><ele>1194.4</ele><time>2025-11-21T23:07:03.000Z</time></trkpt>
        <trkpt lat="28.010955" lon="105.619842"><ele>1194.4</ele><time>2025-11-21T23:07:04.000Z</time></trkpt>
        <trkpt lat="28.010966" lon="105.61984"><ele>1194.4</ele><time>2025-11-21T23:07:05.000Z</time></trkpt>
        <trkpt lat="28.010977" lon="105.619839"><ele>1194.4</ele><time>2025-11-21T23:07:06.000Z</time></trkpt>
        <trkpt lat="28.010988" lon="105.619837"><ele>1193.5</ele><time>2025-11-21T23:07:07.000Z</time></trkpt>
        <trkpt lat="28.010999" lon="105.619835"><ele>1193.5</ele><time>2025-11-21T23:07:08.000Z</time></trkpt>
        <trkpt lat="28.011008" lon="105.619832"><ele>1193.5</ele><time>2025-11-21T23:07:09.000Z</time></trkpt>
        <trkpt lat="28.011017" lon="105.619829"><ele>1193.5</ele><time>2025-11-21T23:07:10.000Z</time></trkpt>
        <trkpt lat="28.011026" lon="105.619825"><ele>1193.5</ele><time>2025-11-21T23:07:11.000Z</time></trkpt>
        <trkpt lat="28.011034" lon="105.619822"><ele>1193.1</ele><time>2025-11-21T23:07:12.000Z</time></trkpt>
        <trkpt lat="28.011043" lon="105.619819"><ele>1193.1</ele><time>2025-11-21T23:07:13.000Z</time></trkpt>
        <trkpt lat="28.011052" lon="105.619818"><ele>1193.1</ele><time>2025-11-21T23:07:14.000Z</time></trkpt>
        <trkpt lat="28.01106" lon="105.619817"><ele>1193.1</ele><time>2025-11-21T23:07:15.000Z</time></trkpt>
        <trkpt lat="28.011069" lon="105.619816"><ele>1193.1</ele><time>2025-11-21T23:07:16.000Z</time></trkpt>
        <trkpt lat="28.011077" lon="105.619816"><ele>1192.5</ele><time>2025-11-21T23:07:17.000Z</time></trkpt>
        <trkpt lat="28.011085" lon="105.619814"><ele>1192.5</ele><time>2025-11-21T23:07:18.000Z</time></trkpt>
        <trkpt lat="28.011091" lon="105.619811"><ele>1192.5</ele><time>2025-11-21T23:07:19.000Z</time></trkpt>
        <trkpt lat="28.011098" lon="105.619807"><ele>1192.5</ele><time>2025-11-21T23:07:20.000Z</time></trkpt>
        <trkpt lat="28.011104" lon="105.619803"><ele>1192.5</ele><time>2025-11-21T23:07:21.000Z</time></trkpt>
        <trkpt lat="28.011111" lon="105.619798"><ele>1192</ele><time>2025-11-21T23:07:22.000Z</time></trkpt>
        <trkpt lat="28.011118" lon="105.619794"><ele>1192</ele><time>2025-11-21T23:07:23.000Z</time></trkpt>
        <trkpt lat="28.011126" lon="105.61979"><ele>1192</ele><time>2025-11-21T23:07:24.000Z</time></trkpt>
        <trkpt lat="28.011134" lon="105.619785"><ele>1192</ele><time>2025-11-21T23:07:25.000Z</time></trkpt>
        <trkpt lat="28.01114" lon="105.619779"><ele>1192</ele><time>2025-11-21T23:07:26.000Z</time></trkpt>
        <trkpt lat="28.011147" lon="105.619774"><ele>1191</ele><time>2025-11-21T23:07:27.000Z</time></trkpt>
        <trkpt lat="28.011155" lon="105.619767"><ele>1191</ele><time>2025-11-21T23:07:28.000Z</time></trkpt>
        <trkpt lat="28.011161" lon="105.61976"><ele>1191</ele><time>2025-11-21T23:07:29.000Z</time></trkpt>
        <trkpt lat="28.011168" lon="105.619753"><ele>1191</ele><time>2025-11-21T23:07:30.000Z</time></trkpt>
        <trkpt lat="28.011175" lon="105.619746"><ele>1191</ele><time>2025-11-21T23:07:31.000Z</time></trkpt>
        <trkpt lat="28.011182" lon="105.619737"><ele>1189.8</ele><time>2025-11-21T23:07:32.000Z</time></trkpt>
        <trkpt lat="28.011188" lon="105.619729"><ele>1189.8</ele><time>2025-11-21T23:07:33.000Z</time></trkpt>
        <trkpt lat="28.011195" lon="105.61972"><ele>1189.8</ele><time>2025-11-21T23:07:34.000Z</time></trkpt>
        <trkpt lat="28.011203" lon="105.619711"><ele>1189.8</ele><time>2025-11-21T23:07:35.000Z</time></trkpt>
        <trkpt lat="28.01121" lon="105.619702"><ele>1189.8</ele><time>2025-11-21T23:07:36.000Z</time></trkpt>
        <trkpt lat="28.011216" lon="105.619693"><ele>1188.6</ele><time>2025-11-21T23:07:37.000Z</time></trkpt>
        <trkpt lat="28.011222" lon="105.619684"><ele>1188.6</ele><time>2025-11-21T23:07:38.000Z</time></trkpt>
        <trkpt lat="28.011228" lon="105.619676"><ele>1188.6</ele><time>2025-11-21T23:07:39.000Z</time></trkpt>
        <trkpt lat="28.011235" lon="105.619668"><ele>1188.6</ele><time>2025-11-21T23:07:40.000Z</time></trkpt>
        <trkpt lat="28.011241" lon="105.619661"><ele>1188.6</ele><time>2025-11-21T23:07:41.000Z</time></trkpt>
        <trkpt lat="28.011247" lon="105.619654"><ele>1187.4</ele><time>2025-11-21T23:07:42.000Z</time></trkpt>
        <trkpt lat="28.011254" lon="105.619647"><ele>1187.4</ele><time>2025-11-21T23:07:43.000Z</time></trkpt>
        <trkpt lat="28.011259" lon="105.61964"><ele>1187.4</ele><time>2025-11-21T23:07:44.000Z</time></trkpt>
        <trkpt lat="28.011265" lon="105.619632"><ele>1187.4</ele><time>2025-11-21T23:07:45.000Z</time></trkpt>
        <trkpt lat="28.01127" lon="105.619624"><ele>1187.4</ele><time>2025-11-21T23:07:46.000Z</time></trkpt>
        <trkpt lat="28.011276" lon="105.619616"><ele>1186.3</ele><time>2025-11-21T23:07:47.000Z</time></trkpt>
        <trkpt lat="28.011283" lon="105.619608"><ele>1186.3</ele><time>2025-11-21T23:07:48.000Z</time></trkpt>
        <trkpt lat="28.011289" lon="105.6196"><ele>1186.3</ele><time>2025-11-21T23:07:49.000Z</time></trkpt>
        <trkpt lat="28.011295" lon="105.619593"><ele>1186.3</ele><time>2025-11-21T23:07:50.000Z</time></trkpt>
        <trkpt lat="28.011301" lon="105.619588"><ele>1186.3</ele><time>2025-11-21T23:07:51.000Z</time></trkpt>
        <trkpt lat="28.011306" lon="105.619582"><ele>1185.1</ele><time>2025-11-21T23:07:52.000Z</time></trkpt>
        <trkpt lat="28.011311" lon="105.619576"><ele>1185.1</ele><time>2025-11-21T23:07:53.000Z</time></trkpt>
        <trkpt lat="28.011316" lon="105.619571"><ele>1185.1</ele><time>2025-11-21T23:07:54.000Z</time></trkpt>
        <trkpt lat="28.011321" lon="105.619564"><ele>1185.1</ele><time>2025-11-21T23:07:55.000Z</time></trkpt>
        <trkpt lat="28.011326" lon="105.619557"><ele>1185.1</ele><time>2025-11-21T23:07:56.000Z</time></trkpt>
        <trkpt lat="28.011331" lon="105.619549"><ele>1183.8</ele><time>2025-11-21T23:07:57.000Z</time></trkpt>
        <trkpt lat="28.011336" lon="105.61954"><ele>1183.8</ele><time>2025-11-21T23:07:58.000Z</time></trkpt>
        <trkpt lat="28.011339" lon="105.619531"><ele>1183.8</ele><time>2025-11-21T23:07:59.000Z</time></trkpt>
        <trkpt lat="28.011342" lon="105.619522"><ele>1183.8</ele><time>2025-11-21T23:08:00.000Z</time></trkpt>
        <trkpt lat="28.011345" lon="105.619515"><ele>1183.8</ele><time>2025-11-21T23:08:01.000Z</time></trkpt>
        <trkpt lat="28.011347" lon="105.619507"><ele>1182.5</ele><time>2025-11-21T23:08:02.000Z</time></trkpt>
        <trkpt lat="28.011349" lon="105.619501"><ele>1182.5</ele><time>2025-11-21T23:08:03.000Z</time></trkpt>
        <trkpt lat="28.011352" lon="105.619496"><ele>1182.5</ele><time>2025-11-21T23:08:04.000Z</time></trkpt>
        <trkpt lat="28.011355" lon="105.619489"><ele>1182.5</ele><time>2025-11-21T23:08:05.000Z</time></trkpt>
        <trkpt lat="28.011358" lon="105.61948"><ele>1182.5</ele><time>2025-11-21T23:08:06.000Z</time></trkpt>
        <trkpt lat="28.011361" lon="105.619469"><ele>1181.2</ele><time>2025-11-21T23:08:07.000Z</time></trkpt>
        <trkpt lat="28.011363" lon="105.619457"><ele>1181.2</ele><time>2025-11-21T23:08:08.000Z</time></trkpt>
        <trkpt lat="28.011366" lon="105.619445"><ele>1181.2</ele><time>2025-11-21T23:08:09.000Z</time></trkpt>
        <trkpt lat="28.01137" lon="105.619433"><ele>1181.2</ele><time>2025-11-21T23:08:10.000Z</time></trkpt>
        <trkpt lat="28.011375" lon="105.619422"><ele>1181.2</ele><time>2025-11-21T23:08:11.000Z</time></trkpt>
        <trkpt lat="28.011381" lon="105.619412"><ele>1179.9</ele><time>2025-11-21T23:08:12.000Z</time></trkpt>
        <trkpt lat="28.011388" lon="105.619403"><ele>1179.9</ele><time>2025-11-21T23:08:13.000Z</time></trkpt>
        <trkpt lat="28.011395" lon="105.619393"><ele>1179.9</ele><time>2025-11-21T23:08:14.000Z</time></trkpt>
        <trkpt lat="28.011403" lon="105.619383"><ele>1179.9</ele><time>2025-11-21T23:08:15.000Z</time></trkpt>
        <trkpt lat="28.011411" lon="105.619373"><ele>1179.9</ele><time>2025-11-21T23:08:16.000Z</time></trkpt>
        <trkpt lat="28.011419" lon="105.619363"><ele>1178.9</ele><time>2025-11-21T23:08:17.000Z</time></trkpt>
        <trkpt lat="28.011427" lon="105.619354"><ele>1178.9</ele><time>2025-11-21T23:08:18.000Z</time></trkpt>
        <trkpt lat="28.011436" lon="105.619345"><ele>1178.9</ele><time>2025-11-21T23:08:19.000Z</time></trkpt>
        <trkpt lat="28.011445" lon="105.619337"><ele>1178.9</ele><time>2025-11-21T23:08:20.000Z</time></trkpt>
        <trkpt lat="28.011455" lon="105.619329"><ele>1178.9</ele><time>2025-11-21T23:08:21.000Z</time></trkpt>
        <trkpt lat="28.011464" lon="105.619322"><ele>1178.2</ele><time>2025-11-21T23:08:22.000Z</time></trkpt>
        <trkpt lat="28.011473" lon="105.619315"><ele>1178.2</ele><time>2025-11-21T23:08:23.000Z</time></trkpt>
        <trkpt lat="28.011481" lon="105.619307"><ele>1178.2</ele><time>2025-11-21T23:08:24.000Z</time></trkpt>
        <trkpt lat="28.01149" lon="105.6193"><ele>1178.2</ele><time>2025-11-21T23:08:25.000Z</time></trkpt>
        <trkpt lat="28.011499" lon="105.619292"><ele>1178.2</ele><time>2025-11-21T23:08:26.000Z</time></trkpt>
        <trkpt lat="28.011508" lon="105.619284"><ele>1177.3</ele><time>2025-11-21T23:08:27.000Z</time></trkpt>
        <trkpt lat="28.011516" lon="105.619276"><ele>1177.3</ele><time>2025-11-21T23:08:28.000Z</time></trkpt>
        <trkpt lat="28.011525" lon="105.619268"><ele>1177.3</ele><time>2025-11-21T23:08:29.000Z</time></trkpt>
        <trkpt lat="28.011533" lon="105.619261"><ele>1177.3</ele><time>2025-11-21T23:08:30.000Z</time></trkpt>
        <trkpt lat="28.011543" lon="105.619254"><ele>1177.3</ele><time>2025-11-21T23:08:31.000Z</time></trkpt>
        <trkpt lat="28.011552" lon="105.619247"><ele>1176.7</ele><time>2025-11-21T23:08:32.000Z</time></trkpt>
        <trkpt lat="28.011562" lon="105.61924"><ele>1176.7</ele><time>2025-11-21T23:08:33.000Z</time></trkpt>
        <trkpt lat="28.011572" lon="105.619235"><ele>1176.7</ele><time>2025-11-21T23:08:34.000Z</time></trkpt>
        <trkpt lat="28.011582" lon="105.619229"><ele>1176.7</ele><time>2025-11-21T23:08:35.000Z</time></trkpt>
        <trkpt lat="28.011591" lon="105.619224"><ele>1176.7</ele><time>2025-11-21T23:08:36.000Z</time></trkpt>
        <trkpt lat="28.011601" lon="105.61922"><ele>1175.9</ele><time>2025-11-21T23:08:37.000Z</time></trkpt>
        <trkpt lat="28.011611" lon="105.619217"><ele>1175.9</ele><time>2025-11-21T23:08:38.000Z</time></trkpt>
        <trkpt lat="28.011621" lon="105.619213"><ele>1175.9</ele><time>2025-11-21T23:08:39.000Z</time></trkpt>
        <trkpt lat="28.011631" lon="105.61921"><ele>1175.9</ele><time>2025-11-21T23:08:40.000Z</time></trkpt>
        <trkpt lat="28.011641" lon="105.619207"><ele>1175.9</ele><time>2025-11-21T23:08:41.000Z</time></trkpt>
        <trkpt lat="28.011651" lon="105.619202"><ele>1174.9</ele><time>2025-11-21T23:08:42.000Z</time></trkpt>
        <trkpt lat="28.011661" lon="105.619196"><ele>1174.9</ele><time>2025-11-21T23:08:43.000Z</time></trkpt>
        <trkpt lat="28.011671" lon="105.61919"><ele>1174.9</ele><time>2025-11-21T23:08:44.000Z</time></trkpt>
        <trkpt lat="28.011681" lon="105.619184"><ele>1174.9</ele><time>2025-11-21T23:08:45.000Z</time></trkpt>
        <trkpt lat="28.011692" lon="105.619177"><ele>1174.9</ele><time>2025-11-21T23:08:46.000Z</time></trkpt>
        <trkpt lat="28.011702" lon="105.619171"><ele>1173.8</ele><time>2025-11-21T23:08:47.000Z</time></trkpt>
        <trkpt lat="28.011713" lon="105.619166"><ele>1173.8</ele><time>2025-11-21T23:08:48.000Z</time></trkpt>
        <trkpt lat="28.011724" lon="105.619162"><ele>1173.8</ele><time>2025-11-21T23:08:49.000Z</time></trkpt>
        <trkpt lat="28.011736" lon="105.619156"><ele>1173.8</ele><time>2025-11-21T23:08:50.000Z</time></trkpt>
        <trkpt lat="28.011748" lon="105.619151"><ele>1173.8</ele><time>2025-11-21T23:08:51.000Z</time></trkpt>
        <trkpt lat="28.011759" lon="105.619147"><ele>1172.6</ele><time>2025-11-21T23:08:52.000Z</time></trkpt>
        <trkpt lat="28.011771" lon="105.619141"><ele>1172.6</ele><time>2025-11-21T23:08:53.000Z</time></trkpt>
        <trkpt lat="28.011781" lon="105.619136"><ele>1172.6</ele><time>2025-11-21T23:08:54.000Z</time></trkpt>
        <trkpt lat="28.011791" lon="105.61913"><ele>1172.6</ele><time>2025-11-21T23:08:55.000Z</time></trkpt>
        <trkpt lat="28.011799" lon="105.619124"><ele>1172.6</ele><time>2025-11-21T23:08:56.000Z</time></trkpt>
        <trkpt lat="28.011808" lon="105.619117"><ele>1171.6</ele><time>2025-11-21T23:08:57.000Z</time></trkpt>
        <trkpt lat="28.011818" lon="105.619111"><ele>1171.6</ele><time>2025-11-21T23:08:58.000Z</time></trkpt>
        <trkpt lat="28.011827" lon="105.619104"><ele>1171.6</ele><time>2025-11-21T23:08:59.000Z</time></trkpt>
        <trkpt lat="28.011838" lon="105.619098"><ele>1171.6</ele><time>2025-11-21T23:09:00.000Z</time></trkpt>
        <trkpt lat="28.011849" lon="105.619092"><ele>1171.6</ele><time>2025-11-21T23:09:01.000Z</time></trkpt>
        <trkpt lat="28.011859" lon="105.619086"><ele>1171.1</ele><time>2025-11-21T23:09:02.000Z</time></trkpt>
        <trkpt lat="28.011869" lon="105.619079"><ele>1171.1</ele><time>2025-11-21T23:09:03.000Z</time></trkpt>
        <trkpt lat="28.011879" lon="105.619072"><ele>1171.1</ele><time>2025-11-21T23:09:04.000Z</time></trkpt>
        <trkpt lat="28.011889" lon="105.619065"><ele>1171.1</ele><time>2025-11-21T23:09:05.000Z</time></trkpt>
        <trkpt lat="28.011899" lon="105.619058"><ele>1171.1</ele><time>2025-11-21T23:09:06.000Z</time></trkpt>
        <trkpt lat="28.01191" lon="105.619052"><ele>1170.6</ele><time>2025-11-21T23:09:07.000Z</time></trkpt>
        <trkpt lat="28.01192" lon="105.619046"><ele>1170.6</ele><time>2025-11-21T23:09:08.000Z</time></trkpt>
        <trkpt lat="28.011931" lon="105.61904"><ele>1170.6</ele><time>2025-11-21T23:09:09.000Z</time></trkpt>
        <trkpt lat="28.011942" lon="105.619035"><ele>1170.6</ele><time>2025-11-21T23:09:10.000Z</time></trkpt>
        <trkpt lat="28.011953" lon="105.619029"><ele>1170.6</ele><time>2025-11-21T23:09:11.000Z</time></trkpt>
        <trkpt lat="28.011964" lon="105.619023"><ele>1170.1</ele><time>2025-11-21T23:09:12.000Z</time></trkpt>
        <trkpt lat="28.011974" lon="105.619017"><ele>1170.1</ele><time>2025-11-21T23:09:13.000Z</time></trkpt>
        <trkpt lat="28.011984" lon="105.61901"><ele>1170.1</ele><time>2025-11-21T23:09:14.000Z</time></trkpt>
        <trkpt lat="28.011994" lon="105.619002"><ele>1170.1</ele><time>2025-11-21T23:09:15.000Z</time></trkpt>
        <trkpt lat="28.012004" lon="105.618994"><ele>1170.1</ele><time>2025-11-21T23:09:16.000Z</time></trkpt>
        <trkpt lat="28.012014" lon="105.618985"><ele>1169.6</ele><time>2025-11-21T23:09:17.000Z</time></trkpt>
        <trkpt lat="28.012025" lon="105.618977"><ele>1169.6</ele><time>2025-11-21T23:09:18.000Z</time></trkpt>
        <trkpt lat="28.012035" lon="105.618967"><ele>1169.6</ele><time>2025-11-21T23:09:19.000Z</time></trkpt>
        <trkpt lat="28.012046" lon="105.618959"><ele>1169.6</ele><time>2025-11-21T23:09:20.000Z</time></trkpt>
        <trkpt lat="28.012057" lon="105.618951"><ele>1169.6</ele><time>2025-11-21T23:09:21.000Z</time></trkpt>
        <trkpt lat="28.012067" lon="105.618943"><ele>1169.4</ele><time>2025-11-21T23:09:22.000Z</time></trkpt>
        <trkpt lat="28.012077" lon="105.618935"><ele>1169.4</ele><time>2025-11-21T23:09:23.000Z</time></trkpt>
        <trkpt lat="28.012086" lon="105.618928"><ele>1169.4</ele><time>2025-11-21T23:09:24.000Z</time></trkpt>
        <trkpt lat="28.012095" lon="105.61892"><ele>1169.4</ele><time>2025-11-21T23:09:25.000Z</time></trkpt>
        <trkpt lat="28.012104" lon="105.618913"><ele>1169.4</ele><time>2025-11-21T23:09:26.000Z</time></trkpt>
        <trkpt lat="28.012114" lon="105.618905"><ele>1168.8</ele><time>2025-11-21T23:09:27.000Z</time></trkpt>
        <trkpt lat="28.012123" lon="105.618898"><ele>1168.8</ele><time>2025-11-21T23:09:28.000Z</time></trkpt>
        <trkpt lat="28.012133" lon="105.61889"><ele>1168.8</ele><time>2025-11-21T23:09:29.000Z</time></trkpt>
        <trkpt lat="28.012142" lon="105.618883"><ele>1168.8</ele><time>2025-11-21T23:09:30.000Z</time></trkpt>
        <trkpt lat="28.012151" lon="105.618874"><ele>1168.8</ele><time>2025-11-21T23:09:31.000Z</time></trkpt>
        <trkpt lat="28.01216" lon="105.618867"><ele>1168.4</ele><time>2025-11-21T23:09:32.000Z</time></trkpt>
        <trkpt lat="28.012168" lon="105.618858"><ele>1168.4</ele><time>2025-11-21T23:09:33.000Z</time></trkpt>
        <trkpt lat="28.012177" lon="105.618849"><ele>1168.4</ele><time>2025-11-21T23:09:34.000Z</time></trkpt>
        <trkpt lat="28.012185" lon="105.61884"><ele>1168.4</ele><time>2025-11-21T23:09:35.000Z</time></trkpt>
        <trkpt lat="28.012194" lon="105.618832"><ele>1168.4</ele><time>2025-11-21T23:09:36.000Z</time></trkpt>
        <trkpt lat="28.012204" lon="105.618823"><ele>1168.4</ele><time>2025-11-21T23:09:37.000Z</time></trkpt>
        <trkpt lat="28.012214" lon="105.618816"><ele>1168.4</ele><time>2025-11-21T23:09:38.000Z</time></trkpt>
        <trkpt lat="28.012224" lon="105.618811"><ele>1168.4</ele><time>2025-11-21T23:09:39.000Z</time></trkpt>
        <trkpt lat="28.012234" lon="105.618807"><ele>1168.4</ele><time>2025-11-21T23:09:40.000Z</time></trkpt>
        <trkpt lat="28.012243" lon="105.618803"><ele>1168.4</ele><time>2025-11-21T23:09:41.000Z</time></trkpt>
        <trkpt lat="28.012253" lon="105.6188"><ele>1168.4</ele><time>2025-11-21T23:09:42.000Z</time></trkpt>
        <trkpt lat="28.012263" lon="105.618797"><ele>1168.4</ele><time>2025-11-21T23:09:43.000Z</time></trkpt>
        <trkpt lat="28.012272" lon="105.618794"><ele>1168.4</ele><time>2025-11-21T23:09:44.000Z</time></trkpt>
        <trkpt lat="28.012282" lon="105.61879"><ele>1168.4</ele><time>2025-11-21T23:09:45.000Z</time></trkpt>
        <trkpt lat="28.012291" lon="105.618787"><ele>1168.4</ele><time>2025-11-21T23:09:46.000Z</time></trkpt>
        <trkpt lat="28.012301" lon="105.618783"><ele>1168.4</ele><time>2025-11-21T23:09:47.000Z</time></trkpt>
        <trkpt lat="28.012312" lon="105.61878"><ele>1168.4</ele><time>2025-11-21T23:09:48.000Z</time></trkpt>
        <trkpt lat="28.012322" lon="105.618775"><ele>1168.4</ele><time>2025-11-21T23:09:49.000Z</time></trkpt>
        <trkpt lat="28.012333" lon="105.618771"><ele>1168.4</ele><time>2025-11-21T23:09:50.000Z</time></trkpt>
        <trkpt lat="28.012344" lon="105.618767"><ele>1168.4</ele><time>2025-11-21T23:09:51.000Z</time></trkpt>
        <trkpt lat="28.012355" lon="105.618763"><ele>1168.1</ele><time>2025-11-21T23:09:52.000Z</time></trkpt>
        <trkpt lat="28.012366" lon="105.618759"><ele>1168.1</ele><time>2025-11-21T23:09:53.000Z</time></trkpt>
        <trkpt lat="28.012377" lon="105.618755"><ele>1168.1</ele><time>2025-11-21T23:09:54.000Z</time></trkpt>
        <trkpt lat="28.012388" lon="105.618751"><ele>1168.1</ele><time>2025-11-21T23:09:55.000Z</time></trkpt>
        <trkpt lat="28.012399" lon="105.618747"><ele>1168.1</ele><time>2025-11-21T23:09:56.000Z</time></trkpt>
        <trkpt lat="28.012409" lon="105.618743"><ele>1167.1</ele><time>2025-11-21T23:09:57.000Z</time></trkpt>
        <trkpt lat="28.01242" lon="105.61874"><ele>1167.1</ele><time>2025-11-21T23:09:58.000Z</time></trkpt>
        <trkpt lat="28.01243" lon="105.618736"><ele>1167.1</ele><time>2025-11-21T23:09:59.000Z</time></trkpt>
        <trkpt lat="28.01244" lon="105.618732"><ele>1167.1</ele><time>2025-11-21T23:10:00.000Z</time></trkpt>
        <trkpt lat="28.012451" lon="105.618727"><ele>1167.1</ele><time>2025-11-21T23:10:01.000Z</time></trkpt>
        <trkpt lat="28.012461" lon="105.618721"><ele>1166</ele><time>2025-11-21T23:10:02.000Z</time></trkpt>
        <trkpt lat="28.012471" lon="105.618717"><ele>1166</ele><time>2025-11-21T23:10:03.000Z</time></trkpt>
        <trkpt lat="28.012481" lon="105.618711"><ele>1166</ele><time>2025-11-21T23:10:04.000Z</time></trkpt>
        <trkpt lat="28.012492" lon="105.618705"><ele>1166</ele><time>2025-11-21T23:10:05.000Z</time></trkpt>
        <trkpt lat="28.012502" lon="105.6187"><ele>1166</ele><time>2025-11-21T23:10:06.000Z</time></trkpt>
        <trkpt lat="28.012511" lon="105.618694"><ele>1164.8</ele><time>2025-11-21T23:10:07.000Z</time></trkpt>
        <trkpt lat="28.012521" lon="105.618688"><ele>1164.8</ele><time>2025-11-21T23:10:08.000Z</time></trkpt>
        <trkpt lat="28.01253" lon="105.618682"><ele>1164.8</ele><time>2025-11-21T23:10:09.000Z</time></trkpt>
        <trkpt lat="28.01254" lon="105.618677"><ele>1164.8</ele><time>2025-11-21T23:10:10.000Z</time></trkpt>
        <trkpt lat="28.01255" lon="105.618673"><ele>1164.8</ele><time>2025-11-21T23:10:11.000Z</time></trkpt>
        <trkpt lat="28.01256" lon="105.618671"><ele>1164.1</ele><time>2025-11-21T23:10:12.000Z</time></trkpt>
        <trkpt lat="28.01257" lon="105.618668"><ele>1164.1</ele><time>2025-11-21T23:10:13.000Z</time></trkpt>
        <trkpt lat="28.01258" lon="105.618667"><ele>1164.1</ele><time>2025-11-21T23:10:14.000Z</time></trkpt>
        <trkpt lat="28.012592" lon="105.618666"><ele>1164.1</ele><time>2025-11-21T23:10:15.000Z</time></trkpt>
        <trkpt lat="28.012603" lon="105.618665"><ele>1164.1</ele><time>2025-11-21T23:10:16.000Z</time></trkpt>
        <trkpt lat="28.012614" lon="105.618665"><ele>1163.6</ele><time>2025-11-21T23:10:17.000Z</time></trkpt>
        <trkpt lat="28.012624" lon="105.618665"><ele>1163.6</ele><time>2025-11-21T23:10:18.000Z</time></trkpt>
        <trkpt lat="28.012635" lon="105.618665"><ele>1163.6</ele><time>2025-11-21T23:10:19.000Z</time></trkpt>
        <trkpt lat="28.012645" lon="105.618666"><ele>1163.6</ele><time>2025-11-21T23:10:20.000Z</time></trkpt>
        <trkpt lat="28.012655" lon="105.618667"><ele>1163.6</ele><time>2025-11-21T23:10:21.000Z</time></trkpt>
        <trkpt lat="28.012666" lon="105.618667"><ele>1163.1</ele><time>2025-11-21T23:10:22.000Z</time></trkpt>
        <trkpt lat="28.012677" lon="105.618667"><ele>1163.1</ele><time>2025-11-21T23:10:23.000Z</time></trkpt>
        <trkpt lat="28.012687" lon="105.618666"><ele>1163.1</ele><time>2025-11-21T23:10:24.000Z</time></trkpt>
        <trkpt lat="28.012698" lon="105.618663"><ele>1163.1</ele><time>2025-11-21T23:10:25.000Z</time></trkpt>
        <trkpt lat="28.012707" lon="105.618658"><ele>1163.1</ele><time>2025-11-21T23:10:26.000Z</time></trkpt>
        <trkpt lat="28.012716" lon="105.618652"><ele>1162.6</ele><time>2025-11-21T23:10:27.000Z</time></trkpt>
        <trkpt lat="28.012724" lon="105.618644"><ele>1162.6</ele><time>2025-11-21T23:10:28.000Z</time></trkpt>
        <trkpt lat="28.01273" lon="105.618634"><ele>1162.6</ele><time>2025-11-21T23:10:29.000Z</time></trkpt>
        <trkpt lat="28.012736" lon="105.618623"><ele>1162.6</ele><time>2025-11-21T23:10:30.000Z</time></trkpt>
        <trkpt lat="28.012741" lon="105.618611"><ele>1162.6</ele><time>2025-11-21T23:10:31.000Z</time></trkpt>
        <trkpt lat="28.012745" lon="105.6186"><ele>1162.1</ele><time>2025-11-21T23:10:32.000Z</time></trkpt>
        <trkpt lat="28.012749" lon="105.618588"><ele>1162.1</ele><time>2025-11-21T23:10:33.000Z</time></trkpt>
        <trkpt lat="28.012752" lon="105.618578"><ele>1162.1</ele><time>2025-11-21T23:10:34.000Z</time></trkpt>
        <trkpt lat="28.012753" lon="105.618569"><ele>1162.1</ele><time>2025-11-21T23:10:35.000Z</time></trkpt>
        <trkpt lat="28.012755" lon="105.61856"><ele>1162.1</ele><time>2025-11-21T23:10:36.000Z</time></trkpt>
        <trkpt lat="28.012756" lon="105.61855"><ele>1161.6</ele><time>2025-11-21T23:10:37.000Z</time></trkpt>
        <trkpt lat="28.012757" lon="105.61854"><ele>1161.6</ele><time>2025-11-21T23:10:38.000Z</time></trkpt>
        <trkpt lat="28.01276" lon="105.618528"><ele>1161.6</ele><time>2025-11-21T23:10:39.000Z</time></trkpt>
        <trkpt lat="28.012764" lon="105.618516"><ele>1161.6</ele><time>2025-11-21T23:10:40.000Z</time></trkpt>
        <trkpt lat="28.012768" lon="105.618504"><ele>1161.6</ele><time>2025-11-21T23:10:41.000Z</time></trkpt>
        <trkpt lat="28.012772" lon="105.618493"><ele>1160.8</ele><time>2025-11-21T23:10:42.000Z</time></trkpt>
        <trkpt lat="28.012776" lon="105.618482"><ele>1160.8</ele><time>2025-11-21T23:10:43.000Z</time></trkpt>
        <trkpt lat="28.01278" lon="105.618473"><ele>1160.8</ele><time>2025-11-21T23:10:44.000Z</time></trkpt>
        <trkpt lat="28.012783" lon="105.618466"><ele>1160.8</ele><time>2025-11-21T23:10:45.000Z</time></trkpt>
        <trkpt lat="28.012785" lon="105.618458"><ele>1160.8</ele><time>2025-11-21T23:10:46.000Z</time></trkpt>
        <trkpt lat="28.012788" lon="105.618451"><ele>1160.3</ele><time>2025-11-21T23:10:47.000Z</time></trkpt>
        <trkpt lat="28.012791" lon="105.618444"><ele>1160.3</ele><time>2025-11-21T23:10:48.000Z</time></trkpt>
        <trkpt lat="28.012795" lon="105.618436"><ele>1160.3</ele><time>2025-11-21T23:10:49.000Z</time></trkpt>
        <trkpt lat="28.012799" lon="105.618428"><ele>1160.3</ele><time>2025-11-21T23:10:50.000Z</time></trkpt>
        <trkpt lat="28.012804" lon="105.618421"><ele>1160.3</ele><time>2025-11-21T23:10:51.000Z</time></trkpt>
        <trkpt lat="28.012808" lon="105.618414"><ele>1159.6</ele><time>2025-11-21T23:10:52.000Z</time></trkpt>
        <trkpt lat="28.012812" lon="105.618407"><ele>1159.6</ele><time>2025-11-21T23:10:53.000Z</time></trkpt>
        <trkpt lat="28.012816" lon="105.6184"><ele>1159.6</ele><time>2025-11-21T23:10:54.000Z</time></trkpt>
        <trkpt lat="28.01282" lon="105.618393"><ele>1159.6</ele><time>2025-11-21T23:10:55.000Z</time></trkpt>
        <trkpt lat="28.012823" lon="105.618387"><ele>1159.6</ele><time>2025-11-21T23:10:56.000Z</time></trkpt>
        <trkpt lat="28.012827" lon="105.618383"><ele>1159.2</ele><time>2025-11-21T23:10:57.000Z</time></trkpt>
        <trkpt lat="28.012831" lon="105.618381"><ele>1159.2</ele><time>2025-11-21T23:10:58.000Z</time></trkpt>
        <trkpt lat="28.012835" lon="105.61838"><ele>1159.2</ele><time>2025-11-21T23:10:59.000Z</time></trkpt>
        <trkpt lat="28.012837" lon="105.61838"><ele>1159.2</ele><time>2025-11-21T23:11:00.000Z</time></trkpt>
        <trkpt lat="28.012837" lon="105.61838"><ele>1159.2</ele><time>2025-11-21T23:11:01.000Z</time></trkpt>
        <trkpt lat="28.012838" lon="105.618381"><ele>1158.7</ele><time>2025-11-21T23:11:02.000Z</time></trkpt>
        <trkpt lat="28.012838" lon="105.618379"><ele>1158.7</ele><time>2025-11-21T23:11:03.000Z</time></trkpt>
        <trkpt lat="28.012836" lon="105.618378"><ele>1158.7</ele><time>2025-11-21T23:11:04.000Z</time></trkpt>
        <trkpt lat="28.012835" lon="105.618376"><ele>1158.7</ele><time>2025-11-21T23:11:05.000Z</time></trkpt>
        <trkpt lat="28.012835" lon="105.618375"><ele>1158.7</ele><time>2025-11-21T23:11:06.000Z</time></trkpt>
        <trkpt lat="28.012834" lon="105.618373"><ele>1158.3</ele><time>2025-11-21T23:11:07.000Z</time></trkpt>
        <trkpt lat="28.012833" lon="105.618371"><ele>1158.3</ele><time>2025-11-21T23:11:08.000Z</time></trkpt>
        <trkpt lat="28.012832" lon="105.61837"><ele>1158.3</ele><time>2025-11-21T23:11:09.000Z</time></trkpt>
        <trkpt lat="28.012831" lon="105.618369"><ele>1158.3</ele><time>2025-11-21T23:11:10.000Z</time></trkpt>
        <trkpt lat="28.012831" lon="105.618368"><ele>1158.3</ele><time>2025-11-21T23:11:11.000Z</time></trkpt>
        <trkpt lat="28.01283" lon="105.618367"><ele>1158.3</ele><time>2025-11-21T23:11:12.000Z</time></trkpt>
        <trkpt lat="28.01283" lon="105.618367"><ele>1158.3</ele><time>2025-11-21T23:11:13.000Z</time></trkpt>
        <trkpt lat="28.01283" lon="105.618367"><ele>1158.3</ele><time>2025-11-21T23:11:14.000Z</time></trkpt>
        <trkpt lat="28.01283" lon="105.618367"><ele>1158.3</ele><time>2025-11-21T23:11:15.000Z</time></trkpt>
        <trkpt lat="28.01283" lon="105.618367"><ele>1158.3</ele><time>2025-11-21T23:11:16.000Z</time></trkpt>
        <trkpt lat="28.01283" lon="105.618367"><ele>1158.1</ele><time>2025-11-21T23:11:17.000Z</time></trkpt>
        <trkpt lat="28.01283" lon="105.618367"><ele>1158.1</ele><time>2025-11-21T23:11:18.000Z</time></trkpt>
        <trkpt lat="28.01283" lon="105.618367"><ele>1158.1</ele><time>2025-11-21T23:11:19.000Z</time></trkpt>
        <trkpt lat="28.01283" lon="105.618367"><ele>1158.1</ele><time>2025-11-21T23:11:20.000Z</time></trkpt>
        <trkpt lat="28.01283" lon="105.618367"><ele>1158.1</ele><time>2025-11-21T23:11:21.000Z</time></trkpt>
        <trkpt lat="28.01283" lon="105.618367"><ele>1157.8</ele><time>2025-11-21T23:11:22.000Z</time></trkpt>
        <trkpt lat="28.01283" lon="105.618367"><ele>1157.8</ele><time>2025-11-21T23:11:23.000Z</time></trkpt>
        <trkpt lat="28.01283" lon="105.618368"><ele>1157.8</ele><time>2025-11-21T23:11:24.000Z</time></trkpt>
        <trkpt lat="28.01283" lon="105.618368"><ele>1157.8</ele><time>2025-11-21T23:11:25.000Z</time></trkpt>
        <trkpt lat="28.01283" lon="105.618368"><ele>1157.8</ele><time>2025-11-21T23:11:26.000Z</time></trkpt>
        <trkpt lat="28.01283" lon="105.618368"><ele>1157.6</ele><time>2025-11-21T23:11:27.000Z</time></trkpt>
        <trkpt lat="28.01283" lon="105.618368"><ele>1157.6</ele><time>2025-11-21T23:11:28.000Z</time></trkpt>
        <trkpt lat="28.01283" lon="105.618369"><ele>1157.6</ele><time>2025-11-21T23:11:29.000Z</time></trkpt>
        <trkpt lat="28.01283" lon="105.618369"><ele>1157.6</ele><time>2025-11-21T23:11:30.000Z</time></trkpt>
        <trkpt lat="28.01283" lon="105.618369"><ele>1157.6</ele><time>2025-11-21T23:11:31.000Z</time></trkpt>
        <trkpt lat="28.01283" lon="105.61837"><ele>1157.6</ele><time>2025-11-21T23:11:32.000Z</time></trkpt>
        <trkpt lat="28.01283" lon="105.61837"><ele>1157.6</ele><time>2025-11-21T23:11:33.000Z</time></trkpt>
        <trkpt lat="28.01283" lon="105.61837"><ele>1157.6</ele><time>2025-11-21T23:11:34.000Z</time></trkpt>
        <trkpt lat="28.01283" lon="105.61837"><ele>1157.6</ele><time>2025-11-21T23:11:35.000Z</time></trkpt>
        <trkpt lat="28.01283" lon="105.61837"><ele>1157.6</ele><time>2025-11-21T23:11:36.000Z</time></trkpt>
        <trkpt lat="28.01283" lon="105.61837"><ele>1157.6</ele><time>2025-11-21T23:11:37.000Z</time></trkpt>
        <trkpt lat="28.01283" lon="105.61837"><ele>1157.6</ele><time>2025-11-21T23:11:38.000Z</time></trkpt>
        <trkpt lat="28.01283" lon="105.61837"><ele>1157.6</ele><time>2025-11-21T23:11:39.000Z</time></trkpt>
        <trkpt lat="28.01283" lon="105.61837"><ele>1157.6</ele><time>2025-11-21T23:11:40.000Z</time></trkpt>
        <trkpt lat="28.01283" lon="105.61837"><ele>1157.6</ele><time>2025-11-21T23:11:41.000Z</time></trkpt>
        <trkpt lat="28.01283" lon="105.61837"><ele>1157.6</ele><time>2025-11-21T23:11:42.000Z</time></trkpt>
        <trkpt lat="28.01283" lon="105.61837"><ele>1157.6</ele><time>2025-11-21T23:11:43.000Z</time></trkpt>
        <trkpt lat="28.01283" lon="105.61837"><ele>1157.6</ele><time>2025-11-21T23:11:44.000Z</time></trkpt>
        <trkpt lat="28.012829" lon="105.61837"><ele>1157.6</ele><time>2025-11-21T23:11:45.000Z</time></trkpt>
        <trkpt lat="28.012829" lon="105.61837"><ele>1157.6</ele><time>2025-11-21T23:11:46.000Z</time></trkpt>
        <trkpt lat="28.012828" lon="105.61837"><ele>1157.6</ele><time>2025-11-21T23:11:47.000Z</time></trkpt>
        <trkpt lat="28.012828" lon="105.61837"><ele>1157.6</ele><time>2025-11-21T23:11:48.000Z</time></trkpt>
        <trkpt lat="28.012827" lon="105.618371"><ele>1157.6</ele><time>2025-11-21T23:11:49.000Z</time></trkpt>
        <trkpt lat="28.012827" lon="105.618371"><ele>1157.6</ele><time>2025-11-21T23:11:50.000Z</time></trkpt>
        <trkpt lat="28.012827" lon="105.618372"><ele>1157.6</ele><time>2025-11-21T23:11:51.000Z</time></trkpt>
        <trkpt lat="28.012827" lon="105.618372"><ele>1157.6</ele><time>2025-11-21T23:11:52.000Z</time></trkpt>
        <trkpt lat="28.012826" lon="105.618373"><ele>1157.6</ele><time>2025-11-21T23:11:53.000Z</time></trkpt>
        <trkpt lat="28.012826" lon="105.618373"><ele>1157.6</ele><time>2025-11-21T23:11:54.000Z</time></trkpt>
        <trkpt lat="28.012825" lon="105.618373"><ele>1157.6</ele><time>2025-11-21T23:11:55.000Z</time></trkpt>
        <trkpt lat="28.012825" lon="105.618372"><ele>1157.6</ele><time>2025-11-21T23:11:56.000Z</time></trkpt>
        <trkpt lat="28.012825" lon="105.618372"><ele>1157.6</ele><time>2025-11-21T23:11:57.000Z</time></trkpt>
        <trkpt lat="28.012825" lon="105.618372"><ele>1157.6</ele><time>2025-11-21T23:11:58.000Z</time></trkpt>
        <trkpt lat="28.012825" lon="105.618372"><ele>1157.6</ele><time>2025-11-21T23:11:59.000Z</time></trkpt>
        <trkpt lat="28.012825" lon="105.618372"><ele>1157.6</ele><time>2025-11-21T23:12:00.000Z</time></trkpt>
        <trkpt lat="28.012825" lon="105.618372"><ele>1157.6</ele><time>2025-11-21T23:12:01.000Z</time></trkpt>
        <trkpt lat="28.012825" lon="105.618372"><ele>1157.6</ele><time>2025-11-21T23:12:02.000Z</time></trkpt>
        <trkpt lat="28.012825" lon="105.618372"><ele>1157.6</ele><time>2025-11-21T23:12:03.000Z</time></trkpt>
        <trkpt lat="28.012825" lon="105.618372"><ele>1157.6</ele><time>2025-11-21T23:12:04.000Z</time></trkpt>
        <trkpt lat="28.012825" lon="105.618372"><ele>1157.6</ele><time>2025-11-21T23:12:05.000Z</time></trkpt>
        <trkpt lat="28.012825" lon="105.618372"><ele>1157.6</ele><time>2025-11-21T23:12:06.000Z</time></trkpt>
        <trkpt lat="28.012825" lon="105.618372"><ele>1157.6</ele><time>2025-11-21T23:12:07.000Z</time></trkpt>
        <trkpt lat="28.012825" lon="105.618372"><ele>1157.6</ele><time>2025-11-21T23:12:08.000Z</time></trkpt>
        <trkpt lat="28.012825" lon="105.618372"><ele>1157.6</ele><time>2025-11-21T23:12:09.000Z</time></trkpt>
        <trkpt lat="28.012825" lon="105.618372"><ele>1157.6</ele><time>2025-11-21T23:12:10.000Z</time></trkpt>
        <trkpt lat="28.012825" lon="105.618372"><ele>1157.6</ele><time>2025-11-21T23:12:11.000Z</time></trkpt>
        <trkpt lat="28.012825" lon="105.618372"><ele>1157.6</ele><time>2025-11-21T23:12:12.000Z</time></trkpt>
        <trkpt lat="28.012825" lon="105.618372"><ele>1157.6</ele><time>2025-11-21T23:12:13.000Z</time></trkpt>
        <trkpt lat="28.012825" lon="105.618372"><ele>1157.6</ele><time>2025-11-21T23:12:14.000Z</time></trkpt>
        <trkpt lat="28.012825" lon="105.618372"><ele>1157.6</ele><time>2025-11-21T23:12:15.000Z</time></trkpt>
        <trkpt lat="28.012825" lon="105.618372"><ele>1157.6</ele><time>2025-11-21T23:12:16.000Z</time></trkpt>
        <trkpt lat="28.012825" lon="105.618372"><ele>1157.6</ele><time>2025-11-21T23:12:17.000Z</time></trkpt>
        <trkpt lat="28.012825" lon="105.618372"><ele>1157.6</ele><time>2025-11-21T23:12:18.000Z</time></trkpt>
        <trkpt lat="28.012825" lon="105.618372"><ele>1157.6</ele><time>2025-11-21T23:12:19.000Z</time></trkpt>
        <trkpt lat="28.012825" lon="105.618372"><ele>1157.6</ele><time>2025-11-21T23:12:20.000Z</time></trkpt>
        <trkpt lat="28.012825" lon="105.618372"><ele>1157.6</ele><time>2025-11-21T23:12:21.000Z</time></trkpt>
        <trkpt lat="28.012825" lon="105.618372"><ele>1157.6</ele><time>2025-11-21T23:12:22.000Z</time></trkpt>
        <trkpt lat="28.012825" lon="105.618373"><ele>1157.6</ele><time>2025-11-21T23:12:23.000Z</time></trkpt>
        <trkpt lat="28.012826" lon="105.618374"><ele>1157.6</ele><time>2025-11-21T23:12:24.000Z</time></trkpt>
        <trkpt lat="28.012826" lon="105.618375"><ele>1157.6</ele><time>2025-11-21T23:12:25.000Z</time></trkpt>
        <trkpt lat="28.012826" lon="105.618375"><ele>1157.6</ele><time>2025-11-21T23:12:26.000Z</time></trkpt>
        <trkpt lat="28.012827" lon="105.618376"><ele>1157.6</ele><time>2025-11-21T23:12:27.000Z</time></trkpt>
        <trkpt lat="28.012827" lon="105.618376"><ele>1157.6</ele><time>2025-11-21T23:12:28.000Z</time></trkpt>
        <trkpt lat="28.012827" lon="105.618376"><ele>1157.6</ele><time>2025-11-21T23:12:29.000Z</time></trkpt>
        <trkpt lat="28.012827" lon="105.618376"><ele>1157.6</ele><time>2025-11-21T23:12:30.000Z</time></trkpt>
        <trkpt lat="28.012827" lon="105.618375"><ele>1157.6</ele><time>2025-11-21T23:12:31.000Z</time></trkpt>
        <trkpt lat="28.012829" lon="105.618374"><ele>1157.6</ele><time>2025-11-21T23:12:32.000Z</time></trkpt>
        <trkpt lat="28.012829" lon="105.618373"><ele>1157.6</ele><time>2025-11-21T23:12:33.000Z</time></trkpt>
        <trkpt lat="28.01283" lon="105.618372"><ele>1157.6</ele><time>2025-11-21T23:12:34.000Z</time></trkpt>
        <trkpt lat="28.012832" lon="105.61837"><ele>1157.6</ele><time>2025-11-21T23:12:35.000Z</time></trkpt>
        <trkpt lat="28.012832" lon="105.618366"><ele>1157.6</ele><time>2025-11-21T23:12:36.000Z</time></trkpt>
        <trkpt lat="28.012834" lon="105.61836"><ele>1157.6</ele><time>2025-11-21T23:12:37.000Z</time></trkpt>
        <trkpt lat="28.012836" lon="105.618353"><ele>1157.6</ele><time>2025-11-21T23:12:38.000Z</time></trkpt>
        <trkpt lat="28.01284" lon="105.618343"><ele>1157.6</ele><time>2025-11-21T23:12:39.000Z</time></trkpt>
        <trkpt lat="28.012842" lon="105.618334"><ele>1157.6</ele><time>2025-11-21T23:12:40.000Z</time></trkpt>
        <trkpt lat="28.012845" lon="105.618327"><ele>1157.6</ele><time>2025-11-21T23:12:41.000Z</time></trkpt>
        <trkpt lat="28.012846" lon="105.618324"><ele>1157.6</ele><time>2025-11-21T23:12:42.000Z</time></trkpt>
        <trkpt lat="28.012847" lon="105.618322"><ele>1157.6</ele><time>2025-11-21T23:12:43.000Z</time></trkpt>
        <trkpt lat="28.012848" lon="105.618321"><ele>1157.6</ele><time>2025-11-21T23:12:44.000Z</time></trkpt>
        <trkpt lat="28.012849" lon="105.61832"><ele>1157.6</ele><time>2025-11-21T23:12:45.000Z</time></trkpt>
        <trkpt lat="28.012851" lon="105.618318"><ele>1157.6</ele><time>2025-11-21T23:12:46.000Z</time></trkpt>
        <trkpt lat="28.012853" lon="105.618318"><ele>1157.6</ele><time>2025-11-21T23:12:47.000Z</time></trkpt>
        <trkpt lat="28.012854" lon="105.618319"><ele>1157.6</ele><time>2025-11-21T23:12:48.000Z</time></trkpt>
        <trkpt lat="28.012855" lon="105.618319"><ele>1157.6</ele><time>2025-11-21T23:12:49.000Z</time></trkpt>
        <trkpt lat="28.012856" lon="105.618321"><ele>1157.6</ele><time>2025-11-21T23:12:50.000Z</time></trkpt>
        <trkpt lat="28.012857" lon="105.618321"><ele>1157.6</ele><time>2025-11-21T23:12:51.000Z</time></trkpt>
        <trkpt lat="28.012857" lon="105.61832"><ele>1157.2</ele><time>2025-11-21T23:12:52.000Z</time></trkpt>
        <trkpt lat="28.012857" lon="105.618318"><ele>1157.2</ele><time>2025-11-21T23:12:53.000Z</time></trkpt>
        <trkpt lat="28.012856" lon="105.618316"><ele>1157.2</ele><time>2025-11-21T23:12:54.000Z</time></trkpt>
        <trkpt lat="28.012855" lon="105.618316"><ele>1157.2</ele><time>2025-11-21T23:12:55.000Z</time></trkpt>
        <trkpt lat="28.012853" lon="105.618317"><ele>1157.2</ele><time>2025-11-21T23:12:56.000Z</time></trkpt>
        <trkpt lat="28.012852" lon="105.61832"><ele>1157</ele><time>2025-11-21T23:12:57.000Z</time></trkpt>
        <trkpt lat="28.01285" lon="105.618325"><ele>1157</ele><time>2025-11-21T23:12:58.000Z</time></trkpt>
        <trkpt lat="28.01285" lon="105.618329"><ele>1157</ele><time>2025-11-21T23:12:59.000Z</time></trkpt>
        <trkpt lat="28.012849" lon="105.618332"><ele>1157</ele><time>2025-11-21T23:13:00.000Z</time></trkpt>
        <trkpt lat="28.012849" lon="105.618334"><ele>1157</ele><time>2025-11-21T23:13:01.000Z</time></trkpt>
        <trkpt lat="28.01285" lon="105.618334"><ele>1156.8</ele><time>2025-11-21T23:13:02.000Z</time></trkpt>
        <trkpt lat="28.01285" lon="105.618334"><ele>1156.8</ele><time>2025-11-21T23:13:03.000Z</time></trkpt>
        <trkpt lat="28.01285" lon="105.618336"><ele>1156.8</ele><time>2025-11-21T23:13:04.000Z</time></trkpt>
        <trkpt lat="28.012849" lon="105.618341"><ele>1156.8</ele><time>2025-11-21T23:13:05.000Z</time></trkpt>
        <trkpt lat="28.012847" lon="105.618345"><ele>1156.8</ele><time>2025-11-21T23:13:06.000Z</time></trkpt>
        <trkpt lat="28.012845" lon="105.61835"><ele>1156.8</ele><time>2025-11-21T23:13:07.000Z</time></trkpt>
        <trkpt lat="28.012843" lon="105.618354"><ele>1156.8</ele><time>2025-11-21T23:13:08.000Z</time></trkpt>
        <trkpt lat="28.012842" lon="105.618357"><ele>1156.8</ele><time>2025-11-21T23:13:09.000Z</time></trkpt>
        <trkpt lat="28.012843" lon="105.618357"><ele>1156.8</ele><time>2025-11-21T23:13:10.000Z</time></trkpt>
        <trkpt lat="28.012844" lon="105.618357"><ele>1156.8</ele><time>2025-11-21T23:13:11.000Z</time></trkpt>
        <trkpt lat="28.012846" lon="105.618355"><ele>1156.8</ele><time>2025-11-21T23:13:12.000Z</time></trkpt>
        <trkpt lat="28.012848" lon="105.618353"><ele>1156.8</ele><time>2025-11-21T23:13:13.000Z</time></trkpt>
        <trkpt lat="28.012849" lon="105.618351"><ele>1156.8</ele><time>2025-11-21T23:13:14.000Z</time></trkpt>
        <trkpt lat="28.01285" lon="105.618349"><ele>1156.8</ele><time>2025-11-21T23:13:15.000Z</time></trkpt>
        <trkpt lat="28.012852" lon="105.618346"><ele>1156.8</ele><time>2025-11-21T23:13:16.000Z</time></trkpt>
        <trkpt lat="28.012854" lon="105.618342"><ele>1156.8</ele><time>2025-11-21T23:13:17.000Z</time></trkpt>
        <trkpt lat="28.012857" lon="105.618336"><ele>1156.8</ele><time>2025-11-21T23:13:18.000Z</time></trkpt>
        <trkpt lat="28.01286" lon="105.61833"><ele>1156.8</ele><time>2025-11-21T23:13:19.000Z</time></trkpt>
        <trkpt lat="28.012864" lon="105.618323"><ele>1156.8</ele><time>2025-11-21T23:13:20.000Z</time></trkpt>
        <trkpt lat="28.012869" lon="105.618316"><ele>1156.8</ele><time>2025-11-21T23:13:21.000Z</time></trkpt>
        <trkpt lat="28.012873" lon="105.618308"><ele>1156.8</ele><time>2025-11-21T23:13:22.000Z</time></trkpt>
        <trkpt lat="28.012878" lon="105.618299"><ele>1156.8</ele><time>2025-11-21T23:13:23.000Z</time></trkpt>
        <trkpt lat="28.012881" lon="105.618289"><ele>1156.8</ele><time>2025-11-21T23:13:24.000Z</time></trkpt>
        <trkpt lat="28.012884" lon="105.618277"><ele>1156.8</ele><time>2025-11-21T23:13:25.000Z</time></trkpt>
        <trkpt lat="28.012886" lon="105.618264"><ele>1156.8</ele><time>2025-11-21T23:13:26.000Z</time></trkpt>
        <trkpt lat="28.012888" lon="105.618251"><ele>1156.8</ele><time>2025-11-21T23:13:27.000Z</time></trkpt>
        <trkpt lat="28.012892" lon="105.618239"><ele>1156.8</ele><time>2025-11-21T23:13:28.000Z</time></trkpt>
        <trkpt lat="28.012895" lon="105.618229"><ele>1156.8</ele><time>2025-11-21T23:13:29.000Z</time></trkpt>
        <trkpt lat="28.0129" lon="105.618219"><ele>1156.8</ele><time>2025-11-21T23:13:30.000Z</time></trkpt>
        <trkpt lat="28.012906" lon="105.618211"><ele>1156.8</ele><time>2025-11-21T23:13:31.000Z</time></trkpt>
        <trkpt lat="28.012912" lon="105.618202"><ele>1156.5</ele><time>2025-11-21T23:13:32.000Z</time></trkpt>
        <trkpt lat="28.012918" lon="105.618194"><ele>1156.5</ele><time>2025-11-21T23:13:33.000Z</time></trkpt>
        <trkpt lat="28.012924" lon="105.618186"><ele>1156.5</ele><time>2025-11-21T23:13:34.000Z</time></trkpt>
        <trkpt lat="28.012931" lon="105.618179"><ele>1156.5</ele><time>2025-11-21T23:13:35.000Z</time></trkpt>
        <trkpt lat="28.012937" lon="105.618172"><ele>1156.5</ele><time>2025-11-21T23:13:36.000Z</time></trkpt>
        <trkpt lat="28.012943" lon="105.618167"><ele>1155.8</ele><time>2025-11-21T23:13:37.000Z</time></trkpt>
        <trkpt lat="28.012949" lon="105.618161"><ele>1155.8</ele><time>2025-11-21T23:13:38.000Z</time></trkpt>
        <trkpt lat="28.012955" lon="105.618156"><ele>1155.8</ele><time>2025-11-21T23:13:39.000Z</time></trkpt>
        <trkpt lat="28.012962" lon="105.61815"><ele>1155.8</ele><time>2025-11-21T23:13:40.000Z</time></trkpt>
        <trkpt lat="28.01297" lon="105.618143"><ele>1155.8</ele><time>2025-11-21T23:13:41.000Z</time></trkpt>
        <trkpt lat="28.01298" lon="105.618137"><ele>1155.4</ele><time>2025-11-21T23:13:42.000Z</time></trkpt>
        <trkpt lat="28.01299" lon="105.618133"><ele>1155.4</ele><time>2025-11-21T23:13:43.000Z</time></trkpt>
        <trkpt lat="28.012999" lon="105.618128"><ele>1155.4</ele><time>2025-11-21T23:13:44.000Z</time></trkpt>
        <trkpt lat="28.013009" lon="105.618125"><ele>1155.4</ele><time>2025-11-21T23:13:45.000Z</time></trkpt>
        <trkpt lat="28.013018" lon="105.618123"><ele>1155.4</ele><time>2025-11-21T23:13:46.000Z</time></trkpt>
        <trkpt lat="28.013026" lon="105.61812"><ele>1155.1</ele><time>2025-11-21T23:13:47.000Z</time></trkpt>
        <trkpt lat="28.013034" lon="105.618118"><ele>1155.1</ele><time>2025-11-21T23:13:48.000Z</time></trkpt>
        <trkpt lat="28.013043" lon="105.618116"><ele>1155.1</ele><time>2025-11-21T23:13:49.000Z</time></trkpt>
        <trkpt lat="28.013052" lon="105.618115"><ele>1155.1</ele><time>2025-11-21T23:13:50.000Z</time></trkpt>
        <trkpt lat="28.01306" lon="105.618115"><ele>1155.1</ele><time>2025-11-21T23:13:51.000Z</time></trkpt>
        <trkpt lat="28.013068" lon="105.618114"><ele>1154.9</ele><time>2025-11-21T23:13:52.000Z</time></trkpt>
        <trkpt lat="28.013076" lon="105.618113"><ele>1154.9</ele><time>2025-11-21T23:13:53.000Z</time></trkpt>
        <trkpt lat="28.013083" lon="105.618112"><ele>1154.9</ele><time>2025-11-21T23:13:54.000Z</time></trkpt>
        <trkpt lat="28.01309" lon="105.61811"><ele>1154.9</ele><time>2025-11-21T23:13:55.000Z</time></trkpt>
        <trkpt lat="28.013098" lon="105.61811"><ele>1154.9</ele><time>2025-11-21T23:13:56.000Z</time></trkpt>
        <trkpt lat="28.013105" lon="105.618112"><ele>1154.7</ele><time>2025-11-21T23:13:57.000Z</time></trkpt>
        <trkpt lat="28.013113" lon="105.618117"><ele>1154.7</ele><time>2025-11-21T23:13:58.000Z</time></trkpt>
        <trkpt lat="28.01312" lon="105.618123"><ele>1154.7</ele><time>2025-11-21T23:13:59.000Z</time></trkpt>
        <trkpt lat="28.013126" lon="105.618131"><ele>1154.7</ele><time>2025-11-21T23:14:00.000Z</time></trkpt>
        <trkpt lat="28.013129" lon="105.618137"><ele>1154.7</ele><time>2025-11-21T23:14:01.000Z</time></trkpt>
        <trkpt lat="28.013132" lon="105.618142"><ele>1154.4</ele><time>2025-11-21T23:14:02.000Z</time></trkpt>
        <trkpt lat="28.013133" lon="105.618145"><ele>1154.4</ele><time>2025-11-21T23:14:03.000Z</time></trkpt>
        <trkpt lat="28.013133" lon="105.618147"><ele>1154.4</ele><time>2025-11-21T23:14:04.000Z</time></trkpt>
        <trkpt lat="28.013132" lon="105.618149"><ele>1154.4</ele><time>2025-11-21T23:14:05.000Z</time></trkpt>
        <trkpt lat="28.013129" lon="105.618153"><ele>1154.4</ele><time>2025-11-21T23:14:06.000Z</time></trkpt>
        <trkpt lat="28.013124" lon="105.618159"><ele>1153.9</ele><time>2025-11-21T23:14:07.000Z</time></trkpt>
        <trkpt lat="28.013118" lon="105.618167"><ele>1153.9</ele><time>2025-11-21T23:14:08.000Z</time></trkpt>
        <trkpt lat="28.01311" lon="105.618176"><ele>1153.9</ele><time>2025-11-21T23:14:09.000Z</time></trkpt>
        <trkpt lat="28.013102" lon="105.618187"><ele>1153.9</ele><time>2025-11-21T23:14:10.000Z</time></trkpt>
        <trkpt lat="28.013096" lon="105.618198"><ele>1153.9</ele><time>2025-11-21T23:14:11.000Z</time></trkpt>
        <trkpt lat="28.01309" lon="105.618208"><ele>1153.5</ele><time>2025-11-21T23:14:12.000Z</time></trkpt>
        <trkpt lat="28.013086" lon="105.618218"><ele>1153.5</ele><time>2025-11-21T23:14:13.000Z</time></trkpt>
        <trkpt lat="28.013082" lon="105.618228"><ele>1153.5</ele><time>2025-11-21T23:14:14.000Z</time></trkpt>
        <trkpt lat="28.013078" lon="105.618236"><ele>1153.5</ele><time>2025-11-21T23:14:15.000Z</time></trkpt>
        <trkpt lat="28.013076" lon="105.618246"><ele>1153.5</ele><time>2025-11-21T23:14:16.000Z</time></trkpt>
        <trkpt lat="28.013072" lon="105.618258"><ele>1153</ele><time>2025-11-21T23:14:17.000Z</time></trkpt>
        <trkpt lat="28.013069" lon="105.61827"><ele>1153</ele><time>2025-11-21T23:14:18.000Z</time></trkpt>
        <trkpt lat="28.013067" lon="105.618282"><ele>1153</ele><time>2025-11-21T23:14:19.000Z</time></trkpt>
        <trkpt lat="28.013064" lon="105.618293"><ele>1153</ele><time>2025-11-21T23:14:20.000Z</time></trkpt>
        <trkpt lat="28.01306" lon="105.618305"><ele>1153</ele><time>2025-11-21T23:14:21.000Z</time></trkpt>
        <trkpt lat="28.013057" lon="105.618316"><ele>1151.9</ele><time>2025-11-21T23:14:22.000Z</time></trkpt>
        <trkpt lat="28.013054" lon="105.618326"><ele>1151.9</ele><time>2025-11-21T23:14:23.000Z</time></trkpt>
        <trkpt lat="28.013051" lon="105.618337"><ele>1151.9</ele><time>2025-11-21T23:14:24.000Z</time></trkpt>
        <trkpt lat="28.013049" lon="105.618348"><ele>1151.9</ele><time>2025-11-21T23:14:25.000Z</time></trkpt>
        <trkpt lat="28.013047" lon="105.618358"><ele>1151.9</ele><time>2025-11-21T23:14:26.000Z</time></trkpt>
        <trkpt lat="28.013045" lon="105.618368"><ele>1150.8</ele><time>2025-11-21T23:14:27.000Z</time></trkpt>
        <trkpt lat="28.013044" lon="105.618378"><ele>1150.8</ele><time>2025-11-21T23:14:28.000Z</time></trkpt>
        <trkpt lat="28.013042" lon="105.618388"><ele>1150.8</ele><time>2025-11-21T23:14:29.000Z</time></trkpt>
        <trkpt lat="28.013039" lon="105.618399"><ele>1150.8</ele><time>2025-11-21T23:14:30.000Z</time></trkpt>
        <trkpt lat="28.013036" lon="105.61841"><ele>1150.8</ele><time>2025-11-21T23:14:31.000Z</time></trkpt>
        <trkpt lat="28.013035" lon="105.618421"><ele>1150.2</ele><time>2025-11-21T23:14:32.000Z</time></trkpt>
        <trkpt lat="28.013033" lon="105.618434"><ele>1150.2</ele><time>2025-11-21T23:14:33.000Z</time></trkpt>
        <trkpt lat="28.013032" lon="105.618446"><ele>1150.2</ele><time>2025-11-21T23:14:34.000Z</time></trkpt>
        <trkpt lat="28.013032" lon="105.618458"><ele>1150.2</ele><time>2025-11-21T23:14:35.000Z</time></trkpt>
        <trkpt lat="28.013033" lon="105.61847"><ele>1150.2</ele><time>2025-11-21T23:14:36.000Z</time></trkpt>
        <trkpt lat="28.013034" lon="105.618482"><ele>1149.7</ele><time>2025-11-21T23:14:37.000Z</time></trkpt>
        <trkpt lat="28.013036" lon="105.618492"><ele>1149.7</ele><time>2025-11-21T23:14:38.000Z</time></trkpt>
        <trkpt lat="28.013038" lon="105.618502"><ele>1149.7</ele><time>2025-11-21T23:14:39.000Z</time></trkpt>
        <trkpt lat="28.01304" lon="105.61851"><ele>1149.7</ele><time>2025-11-21T23:14:40.000Z</time></trkpt>
        <trkpt lat="28.013041" lon="105.618519"><ele>1149.7</ele><time>2025-11-21T23:14:41.000Z</time></trkpt>
        <trkpt lat="28.013044" lon="105.618528"><ele>1149.3</ele><time>2025-11-21T23:14:42.000Z</time></trkpt>
        <trkpt lat="28.013046" lon="105.618536"><ele>1149.3</ele><time>2025-11-21T23:14:43.000Z</time></trkpt>
        <trkpt lat="28.013049" lon="105.618544"><ele>1149.3</ele><time>2025-11-21T23:14:44.000Z</time></trkpt>
        <trkpt lat="28.013053" lon="105.618554"><ele>1149.3</ele><time>2025-11-21T23:14:45.000Z</time></trkpt>
        <trkpt lat="28.013058" lon="105.618564"><ele>1149.3</ele><time>2025-11-21T23:14:46.000Z</time></trkpt>
        <trkpt lat="28.013062" lon="105.618575"><ele>1148.8</ele><time>2025-11-21T23:14:47.000Z</time></trkpt>
        <trkpt lat="28.013066" lon="105.618585"><ele>1148.8</ele><time>2025-11-21T23:14:48.000Z</time></trkpt>
        <trkpt lat="28.013071" lon="105.618595"><ele>1148.8</ele><time>2025-11-21T23:14:49.000Z</time></trkpt>
        <trkpt lat="28.013077" lon="105.618601"><ele>1148.8</ele><time>2025-11-21T23:14:50.000Z</time></trkpt>
        <trkpt lat="28.013083" lon="105.618605"><ele>1148.8</ele><time>2025-11-21T23:14:51.000Z</time></trkpt>
        <trkpt lat="28.01309" lon="105.618606"><ele>1148.4</ele><time>2025-11-21T23:14:52.000Z</time></trkpt>
        <trkpt lat="28.013098" lon="105.618604"><ele>1148.4</ele><time>2025-11-21T23:14:53.000Z</time></trkpt>
        <trkpt lat="28.013105" lon="105.6186"><ele>1148.4</ele><time>2025-11-21T23:14:54.000Z</time></trkpt>
        <trkpt lat="28.013112" lon="105.618595"><ele>1148.4</ele><time>2025-11-21T23:14:55.000Z</time></trkpt>
        <trkpt lat="28.013119" lon="105.618589"><ele>1148.4</ele><time>2025-11-21T23:14:56.000Z</time></trkpt>
        <trkpt lat="28.013125" lon="105.618582"><ele>1147.9</ele><time>2025-11-21T23:14:57.000Z</time></trkpt>
        <trkpt lat="28.013131" lon="105.618575"><ele>1147.9</ele><time>2025-11-21T23:14:58.000Z</time></trkpt>
        <trkpt lat="28.013136" lon="105.618567"><ele>1147.9</ele><time>2025-11-21T23:14:59.000Z</time></trkpt>
        <trkpt lat="28.01314" lon="105.618559"><ele>1147.9</ele><time>2025-11-21T23:15:00.000Z</time></trkpt>
        <trkpt lat="28.013144" lon="105.618552"><ele>1147.9</ele><time>2025-11-21T23:15:01.000Z</time></trkpt>
        <trkpt lat="28.013147" lon="105.618545"><ele>1146.9</ele><time>2025-11-21T23:15:02.000Z</time></trkpt>
        <trkpt lat="28.013151" lon="105.618538"><ele>1146.9</ele><time>2025-11-21T23:15:03.000Z</time></trkpt>
        <trkpt lat="28.013154" lon="105.618531"><ele>1146.9</ele><time>2025-11-21T23:15:04.000Z</time></trkpt>
        <trkpt lat="28.013158" lon="105.618524"><ele>1146.9</ele><time>2025-11-21T23:15:05.000Z</time></trkpt>
        <trkpt lat="28.013162" lon="105.618518"><ele>1146.9</ele><time>2025-11-21T23:15:06.000Z</time></trkpt>
        <trkpt lat="28.013166" lon="105.618512"><ele>1146.1</ele><time>2025-11-21T23:15:07.000Z</time></trkpt>
        <trkpt lat="28.01317" lon="105.618506"><ele>1146.1</ele><time>2025-11-21T23:15:08.000Z</time></trkpt>
        <trkpt lat="28.013173" lon="105.6185"><ele>1146.1</ele><time>2025-11-21T23:15:09.000Z</time></trkpt>
        <trkpt lat="28.013176" lon="105.618493"><ele>1146.1</ele><time>2025-11-21T23:15:10.000Z</time></trkpt>
        <trkpt lat="28.01318" lon="105.618486"><ele>1146.1</ele><time>2025-11-21T23:15:11.000Z</time></trkpt>
        <trkpt lat="28.013185" lon="105.618478"><ele>1145</ele><time>2025-11-21T23:15:12.000Z</time></trkpt>
        <trkpt lat="28.01319" lon="105.618471"><ele>1145</ele><time>2025-11-21T23:15:13.000Z</time></trkpt>
        <trkpt lat="28.013196" lon="105.618463"><ele>1145</ele><time>2025-11-21T23:15:14.000Z</time></trkpt>
        <trkpt lat="28.013202" lon="105.618456"><ele>1145</ele><time>2025-11-21T23:15:15.000Z</time></trkpt>
        <trkpt lat="28.013208" lon="105.61845"><ele>1145</ele><time>2025-11-21T23:15:16.000Z</time></trkpt>
        <trkpt lat="28.013215" lon="105.618444"><ele>1144.4</ele><time>2025-11-21T23:15:17.000Z</time></trkpt>
        <trkpt lat="28.01322" lon="105.61844"><ele>1144.4</ele><time>2025-11-21T23:15:18.000Z</time></trkpt>
        <trkpt lat="28.013226" lon="105.618435"><ele>1144.4</ele><time>2025-11-21T23:15:19.000Z</time></trkpt>
        <trkpt lat="28.013233" lon="105.618428"><ele>1144.4</ele><time>2025-11-21T23:15:20.000Z</time></trkpt>
        <trkpt lat="28.01324" lon="105.618421"><ele>1144.4</ele><time>2025-11-21T23:15:21.000Z</time></trkpt>
        <trkpt lat="28.013247" lon="105.618414"><ele>1143.3</ele><time>2025-11-21T23:15:22.000Z</time></trkpt>
        <trkpt lat="28.013255" lon="105.618406"><ele>1143.3</ele><time>2025-11-21T23:15:23.000Z</time></trkpt>
        <trkpt lat="28.013263" lon="105.618398"><ele>1143.3</ele><time>2025-11-21T23:15:24.000Z</time></trkpt>
        <trkpt lat="28.013271" lon="105.618391"><ele>1143.3</ele><time>2025-11-21T23:15:25.000Z</time></trkpt>
        <trkpt lat="28.013278" lon="105.618385"><ele>1143.3</ele><time>2025-11-21T23:15:26.000Z</time></trkpt>
        <trkpt lat="28.013287" lon="105.61838"><ele>1142.2</ele><time>2025-11-21T23:15:27.000Z</time></trkpt>
        <trkpt lat="28.013296" lon="105.618375"><ele>1142.2</ele><time>2025-11-21T23:15:28.000Z</time></trkpt>
        <trkpt lat="28.013306" lon="105.618372"><ele>1142.2</ele><time>2025-11-21T23:15:29.000Z</time></trkpt>
        <trkpt lat="28.013316" lon="105.618369"><ele>1142.2</ele><time>2025-11-21T23:15:30.000Z</time></trkpt>
        <trkpt lat="28.013325" lon="105.618368"><ele>1142.2</ele><time>2025-11-21T23:15:31.000Z</time></trkpt>
        <trkpt lat="28.013333" lon="105.618367"><ele>1141.1</ele><time>2025-11-21T23:15:32.000Z</time></trkpt>
        <trkpt lat="28.01334" lon="105.618367"><ele>1141.1</ele><time>2025-11-21T23:15:33.000Z</time></trkpt>
        <trkpt lat="28.013347" lon="105.618369"><ele>1141.1</ele><time>2025-11-21T23:15:34.000Z</time></trkpt>
        <trkpt lat="28.013353" lon="105.618372"><ele>1141.1</ele><time>2025-11-21T23:15:35.000Z</time></trkpt>
        <trkpt lat="28.01336" lon="105.618375"><ele>1141.1</ele><time>2025-11-21T23:15:36.000Z</time></trkpt>
        <trkpt lat="28.013367" lon="105.618379"><ele>1140.1</ele><time>2025-11-21T23:15:37.000Z</time></trkpt>
        <trkpt lat="28.013373" lon="105.618385"><ele>1140.1</ele><time>2025-11-21T23:15:38.000Z</time></trkpt>
        <trkpt lat="28.013378" lon="105.618392"><ele>1140.1</ele><time>2025-11-21T23:15:39.000Z</time></trkpt>
        <trkpt lat="28.013381" lon="105.618401"><ele>1140.1</ele><time>2025-11-21T23:15:40.000Z</time></trkpt>
        <trkpt lat="28.013384" lon="105.618412"><ele>1140.1</ele><time>2025-11-21T23:15:41.000Z</time></trkpt>
        <trkpt lat="28.013385" lon="105.618424"><ele>1139.1</ele><time>2025-11-21T23:15:42.000Z</time></trkpt>
        <trkpt lat="28.013386" lon="105.618436"><ele>1139.1</ele><time>2025-11-21T23:15:43.000Z</time></trkpt>
        <trkpt lat="28.013387" lon="105.618449"><ele>1139.1</ele><time>2025-11-21T23:15:44.000Z</time></trkpt>
        <trkpt lat="28.013387" lon="105.618461"><ele>1139.1</ele><time>2025-11-21T23:15:45.000Z</time></trkpt>
        <trkpt lat="28.013386" lon="105.618471"><ele>1139.1</ele><time>2025-11-21T23:15:46.000Z</time></trkpt>
        <trkpt lat="28.013386" lon="105.618481"><ele>1138</ele><time>2025-11-21T23:15:47.000Z</time></trkpt>
        <trkpt lat="28.013385" lon="105.618491"><ele>1138</ele><time>2025-11-21T23:15:48.000Z</time></trkpt>
        <trkpt lat="28.013383" lon="105.6185"><ele>1138</ele><time>2025-11-21T23:15:49.000Z</time></trkpt>
        <trkpt lat="28.013381" lon="105.618509"><ele>1138</ele><time>2025-11-21T23:15:50.000Z</time></trkpt>
        <trkpt lat="28.013379" lon="105.618517"><ele>1138</ele><time>2025-11-21T23:15:51.000Z</time></trkpt>
        <trkpt lat="28.013377" lon="105.618526"><ele>1137</ele><time>2025-11-21T23:15:52.000Z</time></trkpt>
        <trkpt lat="28.013376" lon="105.618535"><ele>1137</ele><time>2025-11-21T23:15:53.000Z</time></trkpt>
        <trkpt lat="28.013374" lon="105.618545"><ele>1137</ele><time>2025-11-21T23:15:54.000Z</time></trkpt>
        <trkpt lat="28.013373" lon="105.618555"><ele>1137</ele><time>2025-11-21T23:15:55.000Z</time></trkpt>
        <trkpt lat="28.013371" lon="105.618566"><ele>1137</ele><time>2025-11-21T23:15:56.000Z</time></trkpt>
        <trkpt lat="28.013368" lon="105.618576"><ele>1136.2</ele><time>2025-11-21T23:15:57.000Z</time></trkpt>
        <trkpt lat="28.013364" lon="105.618585"><ele>1136.2</ele><time>2025-11-21T23:15:58.000Z</time></trkpt>
        <trkpt lat="28.01336" lon="105.618595"><ele>1136.2</ele><time>2025-11-21T23:15:59.000Z</time></trkpt>
        <trkpt lat="28.013354" lon="105.618605"><ele>1136.2</ele><time>2025-11-21T23:16:00.000Z</time></trkpt>
        <trkpt lat="28.013349" lon="105.618615"><ele>1136.2</ele><time>2025-11-21T23:16:01.000Z</time></trkpt>
        <trkpt lat="28.013345" lon="105.618627"><ele>1135.1</ele><time>2025-11-21T23:16:02.000Z</time></trkpt>
        <trkpt lat="28.01334" lon="105.618638"><ele>1135.1</ele><time>2025-11-21T23:16:03.000Z</time></trkpt>
        <trkpt lat="28.013336" lon="105.618649"><ele>1135.1</ele><time>2025-11-21T23:16:04.000Z</time></trkpt>
        <trkpt lat="28.013333" lon="105.61866"><ele>1135.1</ele><time>2025-11-21T23:16:05.000Z</time></trkpt>
        <trkpt lat="28.013329" lon="105.61867"><ele>1135.1</ele><time>2025-11-21T23:16:06.000Z</time></trkpt>
        <trkpt lat="28.013326" lon="105.61868"><ele>1134.4</ele><time>2025-11-21T23:16:07.000Z</time></trkpt>
        <trkpt lat="28.013323" lon="105.618689"><ele>1134.4</ele><time>2025-11-21T23:16:08.000Z</time></trkpt>
        <trkpt lat="28.01332" lon="105.618697"><ele>1134.4</ele><time>2025-11-21T23:16:09.000Z</time></trkpt>
        <trkpt lat="28.013317" lon="105.618705"><ele>1134.4</ele><time>2025-11-21T23:16:10.000Z</time></trkpt>
        <trkpt lat="28.013313" lon="105.618713"><ele>1134.4</ele><time>2025-11-21T23:16:11.000Z</time></trkpt>
        <trkpt lat="28.013312" lon="105.618722"><ele>1133.3</ele><time>2025-11-21T23:16:12.000Z</time></trkpt>
        <trkpt lat="28.013311" lon="105.618732"><ele>1133.3</ele><time>2025-11-21T23:16:13.000Z</time></trkpt>
        <trkpt lat="28.013312" lon="105.618742"><ele>1133.3</ele><time>2025-11-21T23:16:14.000Z</time></trkpt>
        <trkpt lat="28.013315" lon="105.618751"><ele>1133.3</ele><time>2025-11-21T23:16:15.000Z</time></trkpt>
        <trkpt lat="28.013321" lon="105.618759"><ele>1133.3</ele><time>2025-11-21T23:16:16.000Z</time></trkpt>
        <trkpt lat="28.013327" lon="105.618766"><ele>1132.7</ele><time>2025-11-21T23:16:17.000Z</time></trkpt>
        <trkpt lat="28.013334" lon="105.618771"><ele>1132.7</ele><time>2025-11-21T23:16:18.000Z</time></trkpt>
        <trkpt lat="28.013341" lon="105.618775"><ele>1132.7</ele><time>2025-11-21T23:16:19.000Z</time></trkpt>
        <trkpt lat="28.013347" lon="105.618779"><ele>1132.7</ele><time>2025-11-21T23:16:20.000Z</time></trkpt>
        <trkpt lat="28.013353" lon="105.61878"><ele>1132.7</ele><time>2025-11-21T23:16:21.000Z</time></trkpt>
        <trkpt lat="28.013358" lon="105.618782"><ele>1132</ele><time>2025-11-21T23:16:22.000Z</time></trkpt>
        <trkpt lat="28.013364" lon="105.618783"><ele>1132</ele><time>2025-11-21T23:16:23.000Z</time></trkpt>
        <trkpt lat="28.013369" lon="105.618784"><ele>1132</ele><time>2025-11-21T23:16:24.000Z</time></trkpt>
        <trkpt lat="28.013373" lon="105.618786"><ele>1132</ele><time>2025-11-21T23:16:25.000Z</time></trkpt>
        <trkpt lat="28.013378" lon="105.618789"><ele>1132</ele><time>2025-11-21T23:16:26.000Z</time></trkpt>
        <trkpt lat="28.013382" lon="105.618793"><ele>1131.5</ele><time>2025-11-21T23:16:27.000Z</time></trkpt>
        <trkpt lat="28.013386" lon="105.618797"><ele>1131.5</ele><time>2025-11-21T23:16:28.000Z</time></trkpt>
        <trkpt lat="28.013388" lon="105.618801"><ele>1131.5</ele><time>2025-11-21T23:16:29.000Z</time></trkpt>
        <trkpt lat="28.013389" lon="105.618804"><ele>1131.5</ele><time>2025-11-21T23:16:30.000Z</time></trkpt>
        <trkpt lat="28.013389" lon="105.618806"><ele>1131.5</ele><time>2025-11-21T23:16:31.000Z</time></trkpt>
        <trkpt lat="28.013388" lon="105.618808"><ele>1130.6</ele><time>2025-11-21T23:16:32.000Z</time></trkpt>
        <trkpt lat="28.013387" lon="105.618809"><ele>1130.6</ele><time>2025-11-21T23:16:33.000Z</time></trkpt>
        <trkpt lat="28.013386" lon="105.61881"><ele>1130.6</ele><time>2025-11-21T23:16:34.000Z</time></trkpt>
        <trkpt lat="28.013385" lon="105.618811"><ele>1130.6</ele><time>2025-11-21T23:16:35.000Z</time></trkpt>
        <trkpt lat="28.013384" lon="105.618812"><ele>1130.6</ele><time>2025-11-21T23:16:36.000Z</time></trkpt>
        <trkpt lat="28.013384" lon="105.618812"><ele>1130</ele><time>2025-11-21T23:16:37.000Z</time></trkpt>
        <trkpt lat="28.013383" lon="105.618812"><ele>1130</ele><time>2025-11-21T23:16:38.000Z</time></trkpt>
        <trkpt lat="28.013384" lon="105.618812"><ele>1130</ele><time>2025-11-21T23:16:39.000Z</time></trkpt>
        <trkpt lat="28.013385" lon="105.618811"><ele>1130</ele><time>2025-11-21T23:16:40.000Z</time></trkpt>
        <trkpt lat="28.013386" lon="105.61881"><ele>1130</ele><time>2025-11-21T23:16:41.000Z</time></trkpt>
        <trkpt lat="28.013387" lon="105.61881"><ele>1129.5</ele><time>2025-11-21T23:16:42.000Z</time></trkpt>
        <trkpt lat="28.013388" lon="105.61881"><ele>1129.5</ele><time>2025-11-21T23:16:43.000Z</time></trkpt>
        <trkpt lat="28.013389" lon="105.61881"><ele>1129.5</ele><time>2025-11-21T23:16:44.000Z</time></trkpt>
        <trkpt lat="28.013389" lon="105.618811"><ele>1129.5</ele><time>2025-11-21T23:16:45.000Z</time></trkpt>
        <trkpt lat="28.01339" lon="105.618811"><ele>1129.5</ele><time>2025-11-21T23:16:46.000Z</time></trkpt>
        <trkpt lat="28.013391" lon="105.618812"><ele>1129.5</ele><time>2025-11-21T23:16:47.000Z</time></trkpt>
        <trkpt lat="28.013393" lon="105.618812"><ele>1129.5</ele><time>2025-11-21T23:16:48.000Z</time></trkpt>
        <trkpt lat="28.013394" lon="105.618812"><ele>1129.5</ele><time>2025-11-21T23:16:49.000Z</time></trkpt>
        <trkpt lat="28.013394" lon="105.618812"><ele>1129.5</ele><time>2025-11-21T23:16:50.000Z</time></trkpt>
        <trkpt lat="28.013395" lon="105.618812"><ele>1129.5</ele><time>2025-11-21T23:16:51.000Z</time></trkpt>
        <trkpt lat="28.013398" lon="105.618812"><ele>1129.5</ele><time>2025-11-21T23:16:52.000Z</time></trkpt>
        <trkpt lat="28.013401" lon="105.618812"><ele>1129.5</ele><time>2025-11-21T23:16:53.000Z</time></trkpt>
        <trkpt lat="28.013405" lon="105.618814"><ele>1129.5</ele><time>2025-11-21T23:16:54.000Z</time></trkpt>
        <trkpt lat="28.013411" lon="105.618815"><ele>1129.5</ele><time>2025-11-21T23:16:55.000Z</time></trkpt>
        <trkpt lat="28.013417" lon="105.618817"><ele>1129.5</ele><time>2025-11-21T23:16:56.000Z</time></trkpt>
        <trkpt lat="28.013423" lon="105.618819"><ele>1129.5</ele><time>2025-11-21T23:16:57.000Z</time></trkpt>
        <trkpt lat="28.013428" lon="105.618822"><ele>1129.5</ele><time>2025-11-21T23:16:58.000Z</time></trkpt>
        <trkpt lat="28.013433" lon="105.618825"><ele>1129.5</ele><time>2025-11-21T23:16:59.000Z</time></trkpt>
        <trkpt lat="28.013439" lon="105.618828"><ele>1129.5</ele><time>2025-11-21T23:17:00.000Z</time></trkpt>
        <trkpt lat="28.013446" lon="105.61883"><ele>1129.5</ele><time>2025-11-21T23:17:01.000Z</time></trkpt>
        <trkpt lat="28.013453" lon="105.618833"><ele>1129.5</ele><time>2025-11-21T23:17:02.000Z</time></trkpt>
        <trkpt lat="28.013461" lon="105.618834"><ele>1129.5</ele><time>2025-11-21T23:17:03.000Z</time></trkpt>
        <trkpt lat="28.013469" lon="105.618835"><ele>1129.5</ele><time>2025-11-21T23:17:04.000Z</time></trkpt>
        <trkpt lat="28.013478" lon="105.618834"><ele>1129.5</ele><time>2025-11-21T23:17:05.000Z</time></trkpt>
        <trkpt lat="28.013486" lon="105.618834"><ele>1129.5</ele><time>2025-11-21T23:17:06.000Z</time></trkpt>
        <trkpt lat="28.013496" lon="105.618834"><ele>1129.2</ele><time>2025-11-21T23:17:07.000Z</time></trkpt>
        <trkpt lat="28.013505" lon="105.618837"><ele>1129.2</ele><time>2025-11-21T23:17:08.000Z</time></trkpt>
        <trkpt lat="28.013515" lon="105.618839"><ele>1129.2</ele><time>2025-11-21T23:17:09.000Z</time></trkpt>
        <trkpt lat="28.013525" lon="105.618842"><ele>1129.2</ele><time>2025-11-21T23:17:10.000Z</time></trkpt>
        <trkpt lat="28.013535" lon="105.618846"><ele>1129.2</ele><time>2025-11-21T23:17:11.000Z</time></trkpt>
        <trkpt lat="28.013545" lon="105.618848"><ele>1128.4</ele><time>2025-11-21T23:17:12.000Z</time></trkpt>
        <trkpt lat="28.013555" lon="105.618849"><ele>1128.4</ele><time>2025-11-21T23:17:13.000Z</time></trkpt>
        <trkpt lat="28.013566" lon="105.61885"><ele>1128.4</ele><time>2025-11-21T23:17:14.000Z</time></trkpt>
        <trkpt lat="28.013577" lon="105.61885"><ele>1128.4</ele><time>2025-11-21T23:17:15.000Z</time></trkpt>
        <trkpt lat="28.013588" lon="105.618849"><ele>1128.4</ele><time>2025-11-21T23:17:16.000Z</time></trkpt>
        <trkpt lat="28.0136" lon="105.618849"><ele>1127.8</ele><time>2025-11-21T23:17:17.000Z</time></trkpt>
        <trkpt lat="28.013611" lon="105.618849"><ele>1127.8</ele><time>2025-11-21T23:17:18.000Z</time></trkpt>
        <trkpt lat="28.013622" lon="105.618849"><ele>1127.8</ele><time>2025-11-21T23:17:19.000Z</time></trkpt>
        <trkpt lat="28.013633" lon="105.618849"><ele>1127.8</ele><time>2025-11-21T23:17:20.000Z</time></trkpt>
        <trkpt lat="28.013644" lon="105.618849"><ele>1127.8</ele><time>2025-11-21T23:17:21.000Z</time></trkpt>
        <trkpt lat="28.013654" lon="105.618849"><ele>1127</ele><time>2025-11-21T23:17:22.000Z</time></trkpt>
        <trkpt lat="28.013664" lon="105.61885"><ele>1127</ele><time>2025-11-21T23:17:23.000Z</time></trkpt>
        <trkpt lat="28.013674" lon="105.618851"><ele>1127</ele><time>2025-11-21T23:17:24.000Z</time></trkpt>
        <trkpt lat="28.013685" lon="105.618853"><ele>1127</ele><time>2025-11-21T23:17:25.000Z</time></trkpt>
        <trkpt lat="28.013695" lon="105.618856"><ele>1127</ele><time>2025-11-21T23:17:26.000Z</time></trkpt>
        <trkpt lat="28.013706" lon="105.618859"><ele>1126.8</ele><time>2025-11-21T23:17:27.000Z</time></trkpt>
        <trkpt lat="28.013718" lon="105.618862"><ele>1126.8</ele><time>2025-11-21T23:17:28.000Z</time></trkpt>
        <trkpt lat="28.013729" lon="105.618866"><ele>1126.8</ele><time>2025-11-21T23:17:29.000Z</time></trkpt>
        <trkpt lat="28.01374" lon="105.61887"><ele>1126.8</ele><time>2025-11-21T23:17:30.000Z</time></trkpt>
        <trkpt lat="28.013751" lon="105.618873"><ele>1126.8</ele><time>2025-11-21T23:17:31.000Z</time></trkpt>
        <trkpt lat="28.013761" lon="105.618876"><ele>1126.3</ele><time>2025-11-21T23:17:32.000Z</time></trkpt>
        <trkpt lat="28.013772" lon="105.618879"><ele>1126.3</ele><time>2025-11-21T23:17:33.000Z</time></trkpt>
        <trkpt lat="28.013782" lon="105.618881"><ele>1126.3</ele><time>2025-11-21T23:17:34.000Z</time></trkpt>
        <trkpt lat="28.013792" lon="105.618884"><ele>1126.3</ele><time>2025-11-21T23:17:35.000Z</time></trkpt>
        <trkpt lat="28.013801" lon="105.618888"><ele>1126.3</ele><time>2025-11-21T23:17:36.000Z</time></trkpt>
        <trkpt lat="28.013809" lon="105.61889"><ele>1125.8</ele><time>2025-11-21T23:17:37.000Z</time></trkpt>
        <trkpt lat="28.013816" lon="105.618894"><ele>1125.8</ele><time>2025-11-21T23:17:38.000Z</time></trkpt>
        <trkpt lat="28.013822" lon="105.618898"><ele>1125.8</ele><time>2025-11-21T23:17:39.000Z</time></trkpt>
        <trkpt lat="28.013826" lon="105.618903"><ele>1125.8</ele><time>2025-11-21T23:17:40.000Z</time></trkpt>
        <trkpt lat="28.013829" lon="105.618907"><ele>1125.8</ele><time>2025-11-21T23:17:41.000Z</time></trkpt>
        <trkpt lat="28.013832" lon="105.618912"><ele>1125.4</ele><time>2025-11-21T23:17:42.000Z</time></trkpt>
        <trkpt lat="28.013837" lon="105.618918"><ele>1125.4</ele><time>2025-11-21T23:17:43.000Z</time></trkpt>
        <trkpt lat="28.013844" lon="105.618924"><ele>1125.4</ele><time>2025-11-21T23:17:44.000Z</time></trkpt>
        <trkpt lat="28.013852" lon="105.61893"><ele>1125.4</ele><time>2025-11-21T23:17:45.000Z</time></trkpt>
        <trkpt lat="28.013861" lon="105.618935"><ele>1125.4</ele><time>2025-11-21T23:17:46.000Z</time></trkpt>
        <trkpt lat="28.01387" lon="105.618939"><ele>1124.6</ele><time>2025-11-21T23:17:47.000Z</time></trkpt>
        <trkpt lat="28.013878" lon="105.618941"><ele>1124.6</ele><time>2025-11-21T23:17:48.000Z</time></trkpt>
        <trkpt lat="28.013884" lon="105.618942"><ele>1124.6</ele><time>2025-11-21T23:17:49.000Z</time></trkpt>
        <trkpt lat="28.013888" lon="105.618942"><ele>1124.6</ele><time>2025-11-21T23:17:50.000Z</time></trkpt>
        <trkpt lat="28.013891" lon="105.618941"><ele>1124.6</ele><time>2025-11-21T23:17:51.000Z</time></trkpt>
        <trkpt lat="28.013894" lon="105.61894"><ele>1124</ele><time>2025-11-21T23:17:52.000Z</time></trkpt>
        <trkpt lat="28.013895" lon="105.618939"><ele>1124</ele><time>2025-11-21T23:17:53.000Z</time></trkpt>
        <trkpt lat="28.013899" lon="105.618937"><ele>1124</ele><time>2025-11-21T23:17:54.000Z</time></trkpt>
        <trkpt lat="28.013904" lon="105.618934"><ele>1124</ele><time>2025-11-21T23:17:55.000Z</time></trkpt>
        <trkpt lat="28.013911" lon="105.618933"><ele>1124</ele><time>2025-11-21T23:17:56.000Z</time></trkpt>
        <trkpt lat="28.013918" lon="105.618934"><ele>1123.3</ele><time>2025-11-21T23:17:57.000Z</time></trkpt>
        <trkpt lat="28.013925" lon="105.618935"><ele>1123.3</ele><time>2025-11-21T23:17:58.000Z</time></trkpt>
        <trkpt lat="28.01393" lon="105.618935"><ele>1123.3</ele><time>2025-11-21T23:17:59.000Z</time></trkpt>
        <trkpt lat="28.013936" lon="105.618936"><ele>1123.3</ele><time>2025-11-21T23:18:00.000Z</time></trkpt>
        <trkpt lat="28.013942" lon="105.618936"><ele>1123.3</ele><time>2025-11-21T23:18:01.000Z</time></trkpt>
        <trkpt lat="28.01395" lon="105.618936"><ele>1123</ele><time>2025-11-21T23:18:02.000Z</time></trkpt>
        <trkpt lat="28.013959" lon="105.618935"><ele>1123</ele><time>2025-11-21T23:18:03.000Z</time></trkpt>
        <trkpt lat="28.013968" lon="105.618937"><ele>1123</ele><time>2025-11-21T23:18:04.000Z</time></trkpt>
        <trkpt lat="28.013976" lon="105.61894"><ele>1123</ele><time>2025-11-21T23:18:05.000Z</time></trkpt>
        <trkpt lat="28.013983" lon="105.618944"><ele>1123</ele><time>2025-11-21T23:18:06.000Z</time></trkpt>
        <trkpt lat="28.013989" lon="105.618948"><ele>1122.8</ele><time>2025-11-21T23:18:07.000Z</time></trkpt>
        <trkpt lat="28.013995" lon="105.618952"><ele>1122.8</ele><time>2025-11-21T23:18:08.000Z</time></trkpt>
        <trkpt lat="28.014002" lon="105.618957"><ele>1122.8</ele><time>2025-11-21T23:18:09.000Z</time></trkpt>
        <trkpt lat="28.014009" lon="105.61896"><ele>1122.8</ele><time>2025-11-21T23:18:10.000Z</time></trkpt>
        <trkpt lat="28.014017" lon="105.618963"><ele>1122.8</ele><time>2025-11-21T23:18:11.000Z</time></trkpt>
        <trkpt lat="28.014026" lon="105.618965"><ele>1122.8</ele><time>2025-11-21T23:18:12.000Z</time></trkpt>
        <trkpt lat="28.014034" lon="105.618966"><ele>1122.8</ele><time>2025-11-21T23:18:13.000Z</time></trkpt>
        <trkpt lat="28.014043" lon="105.618966"><ele>1122.8</ele><time>2025-11-21T23:18:14.000Z</time></trkpt>
        <trkpt lat="28.014052" lon="105.618966"><ele>1122.8</ele><time>2025-11-21T23:18:15.000Z</time></trkpt>
        <trkpt lat="28.014062" lon="105.618964"><ele>1122.8</ele><time>2025-11-21T23:18:16.000Z</time></trkpt>
        <trkpt lat="28.014071" lon="105.618962"><ele>1122.8</ele><time>2025-11-21T23:18:17.000Z</time></trkpt>
        <trkpt lat="28.014081" lon="105.618959"><ele>1122.8</ele><time>2025-11-21T23:18:18.000Z</time></trkpt>
        <trkpt lat="28.01409" lon="105.618956"><ele>1122.8</ele><time>2025-11-21T23:18:19.000Z</time></trkpt>
        <trkpt lat="28.014099" lon="105.618952"><ele>1122.8</ele><time>2025-11-21T23:18:20.000Z</time></trkpt>
        <trkpt lat="28.014108" lon="105.618949"><ele>1122.8</ele><time>2025-11-21T23:18:21.000Z</time></trkpt>
        <trkpt lat="28.014116" lon="105.618946"><ele>1122.8</ele><time>2025-11-21T23:18:22.000Z</time></trkpt>
        <trkpt lat="28.014124" lon="105.618945"><ele>1122.8</ele><time>2025-11-21T23:18:23.000Z</time></trkpt>
        <trkpt lat="28.014132" lon="105.618944"><ele>1122.8</ele><time>2025-11-21T23:18:24.000Z</time></trkpt>
        <trkpt lat="28.014141" lon="105.618943"><ele>1122.8</ele><time>2025-11-21T23:18:25.000Z</time></trkpt>
        <trkpt lat="28.01415" lon="105.618941"><ele>1122.8</ele><time>2025-11-21T23:18:26.000Z</time></trkpt>
        <trkpt lat="28.014159" lon="105.61894"><ele>1123</ele><time>2025-11-21T23:18:27.000Z</time></trkpt>
        <trkpt lat="28.014169" lon="105.618938"><ele>1123</ele><time>2025-11-21T23:18:28.000Z</time></trkpt>
        <trkpt lat="28.014179" lon="105.618937"><ele>1123</ele><time>2025-11-21T23:18:29.000Z</time></trkpt>
        <trkpt lat="28.014189" lon="105.618936"><ele>1123</ele><time>2025-11-21T23:18:30.000Z</time></trkpt>
        <trkpt lat="28.014199" lon="105.618935"><ele>1123</ele><time>2025-11-21T23:18:31.000Z</time></trkpt>
        <trkpt lat="28.014209" lon="105.618935"><ele>1123.2</ele><time>2025-11-21T23:18:32.000Z</time></trkpt>
        <trkpt lat="28.014219" lon="105.618935"><ele>1123.2</ele><time>2025-11-21T23:18:33.000Z</time></trkpt>
        <trkpt lat="28.014228" lon="105.618937"><ele>1123.2</ele><time>2025-11-21T23:18:34.000Z</time></trkpt>
        <trkpt lat="28.014237" lon="105.618939"><ele>1123.2</ele><time>2025-11-21T23:18:35.000Z</time></trkpt>
        <trkpt lat="28.014245" lon="105.618943"><ele>1123.2</ele><time>2025-11-21T23:18:36.000Z</time></trkpt>
        <trkpt lat="28.014252" lon="105.618948"><ele>1123.2</ele><time>2025-11-21T23:18:37.000Z</time></trkpt>
        <trkpt lat="28.014259" lon="105.618956"><ele>1123.2</ele><time>2025-11-21T23:18:38.000Z</time></trkpt>
        <trkpt lat="28.014266" lon="105.618964"><ele>1123.2</ele><time>2025-11-21T23:18:39.000Z</time></trkpt>
        <trkpt lat="28.014273" lon="105.618972"><ele>1123.2</ele><time>2025-11-21T23:18:40.000Z</time></trkpt>
        <trkpt lat="28.014279" lon="105.618979"><ele>1123.2</ele><time>2025-11-21T23:18:41.000Z</time></trkpt>
        <trkpt lat="28.014284" lon="105.618987"><ele>1123.2</ele><time>2025-11-21T23:18:42.000Z</time></trkpt>
        <trkpt lat="28.014287" lon="105.618995"><ele>1123.2</ele><time>2025-11-21T23:18:43.000Z</time></trkpt>
        <trkpt lat="28.01429" lon="105.619003"><ele>1123.2</ele><time>2025-11-21T23:18:44.000Z</time></trkpt>
        <trkpt lat="28.014291" lon="105.619011"><ele>1123.2</ele><time>2025-11-21T23:18:45.000Z</time></trkpt>
        <trkpt lat="28.014292" lon="105.619018"><ele>1123.2</ele><time>2025-11-21T23:18:46.000Z</time></trkpt>
        <trkpt lat="28.014293" lon="105.619024"><ele>1122.7</ele><time>2025-11-21T23:18:47.000Z</time></trkpt>
        <trkpt lat="28.014294" lon="105.61903"><ele>1122.7</ele><time>2025-11-21T23:18:48.000Z</time></trkpt>
        <trkpt lat="28.014294" lon="105.619035"><ele>1122.7</ele><time>2025-11-21T23:18:49.000Z</time></trkpt>
        <trkpt lat="28.014296" lon="105.619038"><ele>1122.7</ele><time>2025-11-21T23:18:50.000Z</time></trkpt>
        <trkpt lat="28.014297" lon="105.61904"><ele>1122.7</ele><time>2025-11-21T23:18:51.000Z</time></trkpt>
        <trkpt lat="28.014297" lon="105.619042"><ele>1122.5</ele><time>2025-11-21T23:18:52.000Z</time></trkpt>
        <trkpt lat="28.014296" lon="105.619045"><ele>1122.5</ele><time>2025-11-21T23:18:53.000Z</time></trkpt>
        <trkpt lat="28.014295" lon="105.619048"><ele>1122.5</ele><time>2025-11-21T23:18:54.000Z</time></trkpt>
        <trkpt lat="28.014295" lon="105.619053"><ele>1122.5</ele><time>2025-11-21T23:18:55.000Z</time></trkpt>
        <trkpt lat="28.014294" lon="105.619059"><ele>1122.5</ele><time>2025-11-21T23:18:56.000Z</time></trkpt>
        <trkpt lat="28.014295" lon="105.619064"><ele>1121.9</ele><time>2025-11-21T23:18:57.000Z</time></trkpt>
        <trkpt lat="28.014296" lon="105.619068"><ele>1121.9</ele><time>2025-11-21T23:18:58.000Z</time></trkpt>
        <trkpt lat="28.014298" lon="105.619073"><ele>1121.9</ele><time>2025-11-21T23:18:59.000Z</time></trkpt>
        <trkpt lat="28.014299" lon="105.619078"><ele>1121.9</ele><time>2025-11-21T23:19:00.000Z</time></trkpt>
        <trkpt lat="28.0143" lon="105.619085"><ele>1121.9</ele><time>2025-11-21T23:19:01.000Z</time></trkpt>
        <trkpt lat="28.014301" lon="105.619093"><ele>1121.3</ele><time>2025-11-21T23:19:02.000Z</time></trkpt>
        <trkpt lat="28.014304" lon="105.619101"><ele>1121.3</ele><time>2025-11-21T23:19:03.000Z</time></trkpt>
        <trkpt lat="28.014308" lon="105.619109"><ele>1121.3</ele><time>2025-11-21T23:19:04.000Z</time></trkpt>
        <trkpt lat="28.014313" lon="105.619116"><ele>1121.3</ele><time>2025-11-21T23:19:05.000Z</time></trkpt>
        <trkpt lat="28.014319" lon="105.619124"><ele>1121.3</ele><time>2025-11-21T23:19:06.000Z</time></trkpt>
        <trkpt lat="28.014327" lon="105.619131"><ele>1121</ele><time>2025-11-21T23:19:07.000Z</time></trkpt>
        <trkpt lat="28.014333" lon="105.61914"><ele>1121</ele><time>2025-11-21T23:19:08.000Z</time></trkpt>
        <trkpt lat="28.014338" lon="105.619149"><ele>1121</ele><time>2025-11-21T23:19:09.000Z</time></trkpt>
        <trkpt lat="28.014342" lon="105.619158"><ele>1121</ele><time>2025-11-21T23:19:10.000Z</time></trkpt>
        <trkpt lat="28.014346" lon="105.619168"><ele>1121</ele><time>2025-11-21T23:19:11.000Z</time></trkpt>
        <trkpt lat="28.014349" lon="105.619179"><ele>1120.8</ele><time>2025-11-21T23:19:12.000Z</time></trkpt>
        <trkpt lat="28.014352" lon="105.619189"><ele>1120.8</ele><time>2025-11-21T23:19:13.000Z</time></trkpt>
        <trkpt lat="28.014356" lon="105.619198"><ele>1120.8</ele><time>2025-11-21T23:19:14.000Z</time></trkpt>
        <trkpt lat="28.01436" lon="105.619207"><ele>1120.8</ele><time>2025-11-21T23:19:15.000Z</time></trkpt>
        <trkpt lat="28.014367" lon="105.619215"><ele>1120.8</ele><time>2025-11-21T23:19:16.000Z</time></trkpt>
        <trkpt lat="28.014375" lon="105.619221"><ele>1120.6</ele><time>2025-11-21T23:19:17.000Z</time></trkpt>
        <trkpt lat="28.014383" lon="105.619227"><ele>1120.6</ele><time>2025-11-21T23:19:18.000Z</time></trkpt>
        <trkpt lat="28.014392" lon="105.619231"><ele>1120.6</ele><time>2025-11-21T23:19:19.000Z</time></trkpt>
        <trkpt lat="28.014401" lon="105.619236"><ele>1120.6</ele><time>2025-11-21T23:19:20.000Z</time></trkpt>
        <trkpt lat="28.01441" lon="105.619241"><ele>1120.6</ele><time>2025-11-21T23:19:21.000Z</time></trkpt>
        <trkpt lat="28.014417" lon="105.619247"><ele>1120.8</ele><time>2025-11-21T23:19:22.000Z</time></trkpt>
        <trkpt lat="28.014424" lon="105.619252"><ele>1120.8</ele><time>2025-11-21T23:19:23.000Z</time></trkpt>
        <trkpt lat="28.014432" lon="105.619258"><ele>1120.8</ele><time>2025-11-21T23:19:24.000Z</time></trkpt>
        <trkpt lat="28.014442" lon="105.619265"><ele>1120.8</ele><time>2025-11-21T23:19:25.000Z</time></trkpt>
        <trkpt lat="28.014453" lon="105.619272"><ele>1120.8</ele><time>2025-11-21T23:19:26.000Z</time></trkpt>
        <trkpt lat="28.014465" lon="105.61928"><ele>1121</ele><time>2025-11-21T23:19:27.000Z</time></trkpt>
        <trkpt lat="28.014476" lon="105.619289"><ele>1121</ele><time>2025-11-21T23:19:28.000Z</time></trkpt>
        <trkpt lat="28.014487" lon="105.619297"><ele>1121</ele><time>2025-11-21T23:19:29.000Z</time></trkpt>
        <trkpt lat="28.014497" lon="105.619304"><ele>1121</ele><time>2025-11-21T23:19:30.000Z</time></trkpt>
        <trkpt lat="28.014506" lon="105.61931"><ele>1121</ele><time>2025-11-21T23:19:31.000Z</time></trkpt>
        <trkpt lat="28.014516" lon="105.619314"><ele>1121</ele><time>2025-11-21T23:19:32.000Z</time></trkpt>
        <trkpt lat="28.014526" lon="105.619319"><ele>1121</ele><time>2025-11-21T23:19:33.000Z</time></trkpt>
        <trkpt lat="28.014538" lon="105.619323"><ele>1121</ele><time>2025-11-21T23:19:34.000Z</time></trkpt>
        <trkpt lat="28.014549" lon="105.619328"><ele>1121</ele><time>2025-11-21T23:19:35.000Z</time></trkpt>
        <trkpt lat="28.014559" lon="105.619332"><ele>1121</ele><time>2025-11-21T23:19:36.000Z</time></trkpt>
        <trkpt lat="28.014569" lon="105.619337"><ele>1120.7</ele><time>2025-11-21T23:19:37.000Z</time></trkpt>
        <trkpt lat="28.014577" lon="105.619342"><ele>1120.7</ele><time>2025-11-21T23:19:38.000Z</time></trkpt>
        <trkpt lat="28.014583" lon="105.619347"><ele>1120.7</ele><time>2025-11-21T23:19:39.000Z</time></trkpt>
        <trkpt lat="28.014587" lon="105.619354"><ele>1120.7</ele><time>2025-11-21T23:19:40.000Z</time></trkpt>
        <trkpt lat="28.01459" lon="105.619361"><ele>1120.7</ele><time>2025-11-21T23:19:41.000Z</time></trkpt>
        <trkpt lat="28.014593" lon="105.61937"><ele>1120.4</ele><time>2025-11-21T23:19:42.000Z</time></trkpt>
        <trkpt lat="28.014596" lon="105.619379"><ele>1120.4</ele><time>2025-11-21T23:19:43.000Z</time></trkpt>
        <trkpt lat="28.014598" lon="105.619389"><ele>1120.4</ele><time>2025-11-21T23:19:44.000Z</time></trkpt>
        <trkpt lat="28.0146" lon="105.619399"><ele>1120.4</ele><time>2025-11-21T23:19:45.000Z</time></trkpt>
        <trkpt lat="28.014603" lon="105.619411"><ele>1120.4</ele><time>2025-11-21T23:19:46.000Z</time></trkpt>
        <trkpt lat="28.014606" lon="105.619423"><ele>1120.1</ele><time>2025-11-21T23:19:47.000Z</time></trkpt>
        <trkpt lat="28.01461" lon="105.619435"><ele>1120.1</ele><time>2025-11-21T23:19:48.000Z</time></trkpt>
        <trkpt lat="28.014614" lon="105.619446"><ele>1120.1</ele><time>2025-11-21T23:19:49.000Z</time></trkpt>
        <trkpt lat="28.014619" lon="105.619456"><ele>1120.1</ele><time>2025-11-21T23:19:50.000Z</time></trkpt>
        <trkpt lat="28.014624" lon="105.619466"><ele>1120.1</ele><time>2025-11-21T23:19:51.000Z</time></trkpt>
        <trkpt lat="28.014628" lon="105.619476"><ele>1120.1</ele><time>2025-11-21T23:19:52.000Z</time></trkpt>
        <trkpt lat="28.014633" lon="105.619485"><ele>1120.1</ele><time>2025-11-21T23:19:53.000Z</time></trkpt>
        <trkpt lat="28.014638" lon="105.619493"><ele>1120.1</ele><time>2025-11-21T23:19:54.000Z</time></trkpt>
        <trkpt lat="28.014643" lon="105.619501"><ele>1120.1</ele><time>2025-11-21T23:19:55.000Z</time></trkpt>
        <trkpt lat="28.014648" lon="105.619507"><ele>1120.1</ele><time>2025-11-21T23:19:56.000Z</time></trkpt>
        <trkpt lat="28.014651" lon="105.619511"><ele>1120.6</ele><time>2025-11-21T23:19:57.000Z</time></trkpt>
        <trkpt lat="28.014655" lon="105.619514"><ele>1120.6</ele><time>2025-11-21T23:19:58.000Z</time></trkpt>
        <trkpt lat="28.014659" lon="105.619518"><ele>1120.6</ele><time>2025-11-21T23:19:59.000Z</time></trkpt>
        <trkpt lat="28.014663" lon="105.619522"><ele>1120.6</ele><time>2025-11-21T23:20:00.000Z</time></trkpt>
        <trkpt lat="28.014667" lon="105.619525"><ele>1120.6</ele><time>2025-11-21T23:20:01.000Z</time></trkpt>
        <trkpt lat="28.014671" lon="105.619528"><ele>1120.8</ele><time>2025-11-21T23:20:02.000Z</time></trkpt>
        <trkpt lat="28.014676" lon="105.619533"><ele>1120.8</ele><time>2025-11-21T23:20:03.000Z</time></trkpt>
        <trkpt lat="28.014681" lon="105.619538"><ele>1120.8</ele><time>2025-11-21T23:20:04.000Z</time></trkpt>
        <trkpt lat="28.014686" lon="105.619545"><ele>1120.8</ele><time>2025-11-21T23:20:05.000Z</time></trkpt>
        <trkpt lat="28.014691" lon="105.619553"><ele>1120.8</ele><time>2025-11-21T23:20:06.000Z</time></trkpt>
        <trkpt lat="28.014697" lon="105.61956"><ele>1120.6</ele><time>2025-11-21T23:20:07.000Z</time></trkpt>
        <trkpt lat="28.014703" lon="105.619568"><ele>1120.6</ele><time>2025-11-21T23:20:08.000Z</time></trkpt>
        <trkpt lat="28.014709" lon="105.619576"><ele>1120.6</ele><time>2025-11-21T23:20:09.000Z</time></trkpt>
        <trkpt lat="28.014716" lon="105.619582"><ele>1120.6</ele><time>2025-11-21T23:20:10.000Z</time></trkpt>
        <trkpt lat="28.014723" lon="105.619586"><ele>1120.6</ele><time>2025-11-21T23:20:11.000Z</time></trkpt>
        <trkpt lat="28.014729" lon="105.619591"><ele>1120.1</ele><time>2025-11-21T23:20:12.000Z</time></trkpt>
        <trkpt lat="28.014734" lon="105.619596"><ele>1120.1</ele><time>2025-11-21T23:20:13.000Z</time></trkpt>
        <trkpt lat="28.014739" lon="105.619601"><ele>1120.1</ele><time>2025-11-21T23:20:14.000Z</time></trkpt>
        <trkpt lat="28.014744" lon="105.619606"><ele>1120.1</ele><time>2025-11-21T23:20:15.000Z</time></trkpt>
        <trkpt lat="28.014749" lon="105.619612"><ele>1120.1</ele><time>2025-11-21T23:20:16.000Z</time></trkpt>
        <trkpt lat="28.014753" lon="105.619619"><ele>1119.1</ele><time>2025-11-21T23:20:17.000Z</time></trkpt>
        <trkpt lat="28.014758" lon="105.619625"><ele>1119.1</ele><time>2025-11-21T23:20:18.000Z</time></trkpt>
        <trkpt lat="28.014763" lon="105.619631"><ele>1119.1</ele><time>2025-11-21T23:20:19.000Z</time></trkpt>
        <trkpt lat="28.014767" lon="105.619639"><ele>1119.1</ele><time>2025-11-21T23:20:20.000Z</time></trkpt>
        <trkpt lat="28.014772" lon="105.619647"><ele>1119.1</ele><time>2025-11-21T23:20:21.000Z</time></trkpt>
        <trkpt lat="28.014777" lon="105.619655"><ele>1118.1</ele><time>2025-11-21T23:20:22.000Z</time></trkpt>
        <trkpt lat="28.014784" lon="105.619664"><ele>1118.1</ele><time>2025-11-21T23:20:23.000Z</time></trkpt>
        <trkpt lat="28.014791" lon="105.619674"><ele>1118.1</ele><time>2025-11-21T23:20:24.000Z</time></trkpt>
        <trkpt lat="28.014799" lon="105.619683"><ele>1118.1</ele><time>2025-11-21T23:20:25.000Z</time></trkpt>
        <trkpt lat="28.014808" lon="105.619691"><ele>1118.1</ele><time>2025-11-21T23:20:26.000Z</time></trkpt>
        <trkpt lat="28.014817" lon="105.619698"><ele>1117</ele><time>2025-11-21T23:20:27.000Z</time></trkpt>
        <trkpt lat="28.014825" lon="105.619706"><ele>1117</ele><time>2025-11-21T23:20:28.000Z</time></trkpt>
        <trkpt lat="28.014834" lon="105.619713"><ele>1117</ele><time>2025-11-21T23:20:29.000Z</time></trkpt>
        <trkpt lat="28.014842" lon="105.61972"><ele>1117</ele><time>2025-11-21T23:20:30.000Z</time></trkpt>
        <trkpt lat="28.01485" lon="105.619726"><ele>1117</ele><time>2025-11-21T23:20:31.000Z</time></trkpt>
        <trkpt lat="28.01486" lon="105.619733"><ele>1116.1</ele><time>2025-11-21T23:20:32.000Z</time></trkpt>
        <trkpt lat="28.014869" lon="105.619739"><ele>1116.1</ele><time>2025-11-21T23:20:33.000Z</time></trkpt>
        <trkpt lat="28.014879" lon="105.619744"><ele>1116.1</ele><time>2025-11-21T23:20:34.000Z</time></trkpt>
        <trkpt lat="28.014888" lon="105.619749"><ele>1116.1</ele><time>2025-11-21T23:20:35.000Z</time></trkpt>
        <trkpt lat="28.014897" lon="105.619755"><ele>1116.1</ele><time>2025-11-21T23:20:36.000Z</time></trkpt>
        <trkpt lat="28.014905" lon="105.61976"><ele>1115</ele><time>2025-11-21T23:20:37.000Z</time></trkpt>
        <trkpt lat="28.014911" lon="105.619765"><ele>1115</ele><time>2025-11-21T23:20:38.000Z</time></trkpt>
        <trkpt lat="28.014916" lon="105.619771"><ele>1115</ele><time>2025-11-21T23:20:39.000Z</time></trkpt>
        <trkpt lat="28.01492" lon="105.619777"><ele>1115</ele><time>2025-11-21T23:20:40.000Z</time></trkpt>
        <trkpt lat="28.014922" lon="105.619784"><ele>1115</ele><time>2025-11-21T23:20:41.000Z</time></trkpt>
        <trkpt lat="28.014924" lon="105.619791"><ele>1114.5</ele><time>2025-11-21T23:20:42.000Z</time></trkpt>
        <trkpt lat="28.014926" lon="105.619799"><ele>1114.5</ele><time>2025-11-21T23:20:43.000Z</time></trkpt>
        <trkpt lat="28.014929" lon="105.619807"><ele>1114.5</ele><time>2025-11-21T23:20:44.000Z</time></trkpt>
        <trkpt lat="28.014933" lon="105.619815"><ele>1114.5</ele><time>2025-11-21T23:20:45.000Z</time></trkpt>
        <trkpt lat="28.014937" lon="105.619823"><ele>1114.5</ele><time>2025-11-21T23:20:46.000Z</time></trkpt>
        <trkpt lat="28.014942" lon="105.619832"><ele>1114</ele><time>2025-11-21T23:20:47.000Z</time></trkpt>
        <trkpt lat="28.014947" lon="105.61984"><ele>1114</ele><time>2025-11-21T23:20:48.000Z</time></trkpt>
        <trkpt lat="28.014953" lon="105.619849"><ele>1114</ele><time>2025-11-21T23:20:49.000Z</time></trkpt>
        <trkpt lat="28.014958" lon="105.619857"><ele>1114</ele><time>2025-11-21T23:20:50.000Z</time></trkpt>
        <trkpt lat="28.014963" lon="105.619866"><ele>1114</ele><time>2025-11-21T23:20:51.000Z</time></trkpt>
        <trkpt lat="28.014968" lon="105.619875"><ele>1113.4</ele><time>2025-11-21T23:20:52.000Z</time></trkpt>
        <trkpt lat="28.014972" lon="105.619883"><ele>1113.4</ele><time>2025-11-21T23:20:53.000Z</time></trkpt>
        <trkpt lat="28.014977" lon="105.619891"><ele>1113.4</ele><time>2025-11-21T23:20:54.000Z</time></trkpt>
        <trkpt lat="28.014982" lon="105.619899"><ele>1113.4</ele><time>2025-11-21T23:20:55.000Z</time></trkpt>
        <trkpt lat="28.014988" lon="105.619905"><ele>1113.4</ele><time>2025-11-21T23:20:56.000Z</time></trkpt>
        <trkpt lat="28.014994" lon="105.619913"><ele>1112.4</ele><time>2025-11-21T23:20:57.000Z</time></trkpt>
        <trkpt lat="28.015" lon="105.61992"><ele>1112.4</ele><time>2025-11-21T23:20:58.000Z</time></trkpt>
        <trkpt lat="28.015005" lon="105.619927"><ele>1112.4</ele><time>2025-11-21T23:20:59.000Z</time></trkpt>
        <trkpt lat="28.01501" lon="105.619934"><ele>1112.4</ele><time>2025-11-21T23:21:00.000Z</time></trkpt>
        <trkpt lat="28.015014" lon="105.619943"><ele>1112.4</ele><time>2025-11-21T23:21:01.000Z</time></trkpt>
        <trkpt lat="28.01502" lon="105.619951"><ele>1111.7</ele><time>2025-11-21T23:21:02.000Z</time></trkpt>
        <trkpt lat="28.015026" lon="105.61996"><ele>1111.7</ele><time>2025-11-21T23:21:03.000Z</time></trkpt>
        <trkpt lat="28.015033" lon="105.619969"><ele>1111.7</ele><time>2025-11-21T23:21:04.000Z</time></trkpt>
        <trkpt lat="28.015038" lon="105.619978"><ele>1111.7</ele><time>2025-11-21T23:21:05.000Z</time></trkpt>
        <trkpt lat="28.015043" lon="105.619986"><ele>1111.7</ele><time>2025-11-21T23:21:06.000Z</time></trkpt>
        <trkpt lat="28.015045" lon="105.619995"><ele>1110.4</ele><time>2025-11-21T23:21:07.000Z</time></trkpt>
        <trkpt lat="28.015047" lon="105.620005"><ele>1110.4</ele><time>2025-11-21T23:21:08.000Z</time></trkpt>
        <trkpt lat="28.015048" lon="105.620015"><ele>1110.4</ele><time>2025-11-21T23:21:09.000Z</time></trkpt>
        <trkpt lat="28.015048" lon="105.620025"><ele>1110.4</ele><time>2025-11-21T23:21:10.000Z</time></trkpt>
        <trkpt lat="28.015049" lon="105.620036"><ele>1110.4</ele><time>2025-11-21T23:21:11.000Z</time></trkpt>
        <trkpt lat="28.015051" lon="105.620047"><ele>1109.4</ele><time>2025-11-21T23:21:12.000Z</time></trkpt>
        <trkpt lat="28.015053" lon="105.620056"><ele>1109.4</ele><time>2025-11-21T23:21:13.000Z</time></trkpt>
        <trkpt lat="28.015055" lon="105.620064"><ele>1109.4</ele><time>2025-11-21T23:21:14.000Z</time></trkpt>
        <trkpt lat="28.015058" lon="105.620072"><ele>1109.4</ele><time>2025-11-21T23:21:15.000Z</time></trkpt>
        <trkpt lat="28.01506" lon="105.62008"><ele>1109.4</ele><time>2025-11-21T23:21:16.000Z</time></trkpt>
        <trkpt lat="28.015062" lon="105.620088"><ele>1108.3</ele><time>2025-11-21T23:21:17.000Z</time></trkpt>
        <trkpt lat="28.015064" lon="105.620097"><ele>1108.3</ele><time>2025-11-21T23:21:18.000Z</time></trkpt>
        <trkpt lat="28.015067" lon="105.620107"><ele>1108.3</ele><time>2025-11-21T23:21:19.000Z</time></trkpt>
        <trkpt lat="28.015069" lon="105.620116"><ele>1108.3</ele><time>2025-11-21T23:21:20.000Z</time></trkpt>
        <trkpt lat="28.015073" lon="105.620125"><ele>1108.3</ele><time>2025-11-21T23:21:21.000Z</time></trkpt>
        <trkpt lat="28.015076" lon="105.620132"><ele>1107.2</ele><time>2025-11-21T23:21:22.000Z</time></trkpt>
        <trkpt lat="28.015079" lon="105.62014"><ele>1107.2</ele><time>2025-11-21T23:21:23.000Z</time></trkpt>
        <trkpt lat="28.015081" lon="105.620148"><ele>1107.2</ele><time>2025-11-21T23:21:24.000Z</time></trkpt>
        <trkpt lat="28.015084" lon="105.620156"><ele>1107.2</ele><time>2025-11-21T23:21:25.000Z</time></trkpt>
        <trkpt lat="28.015089" lon="105.620165"><ele>1107.2</ele><time>2025-11-21T23:21:26.000Z</time></trkpt>
        <trkpt lat="28.015093" lon="105.620175"><ele>1106.3</ele><time>2025-11-21T23:21:27.000Z</time></trkpt>
        <trkpt lat="28.015098" lon="105.620185"><ele>1106.3</ele><time>2025-11-21T23:21:28.000Z</time></trkpt>
        <trkpt lat="28.015102" lon="105.620194"><ele>1106.3</ele><time>2025-11-21T23:21:29.000Z</time></trkpt>
        <trkpt lat="28.015106" lon="105.620203"><ele>1106.3</ele><time>2025-11-21T23:21:30.000Z</time></trkpt>
        <trkpt lat="28.01511" lon="105.620211"><ele>1106.3</ele><time>2025-11-21T23:21:31.000Z</time></trkpt>
        <trkpt lat="28.015114" lon="105.620218"><ele>1105.6</ele><time>2025-11-21T23:21:32.000Z</time></trkpt>
        <trkpt lat="28.015117" lon="105.620224"><ele>1105.6</ele><time>2025-11-21T23:21:33.000Z</time></trkpt>
        <trkpt lat="28.015121" lon="105.620229"><ele>1105.6</ele><time>2025-11-21T23:21:34.000Z</time></trkpt>
        <trkpt lat="28.015125" lon="105.620234"><ele>1105.6</ele><time>2025-11-21T23:21:35.000Z</time></trkpt>
        <trkpt lat="28.015128" lon="105.620239"><ele>1105.6</ele><time>2025-11-21T23:21:36.000Z</time></trkpt>
        <trkpt lat="28.015131" lon="105.620244"><ele>1104.6</ele><time>2025-11-21T23:21:37.000Z</time></trkpt>
        <trkpt lat="28.015134" lon="105.62025"><ele>1104.6</ele><time>2025-11-21T23:21:38.000Z</time></trkpt>
        <trkpt lat="28.015137" lon="105.620257"><ele>1104.6</ele><time>2025-11-21T23:21:39.000Z</time></trkpt>
        <trkpt lat="28.01514" lon="105.620265"><ele>1104.6</ele><time>2025-11-21T23:21:40.000Z</time></trkpt>
        <trkpt lat="28.015143" lon="105.620274"><ele>1104.6</ele><time>2025-11-21T23:21:41.000Z</time></trkpt>
        <trkpt lat="28.015146" lon="105.620283"><ele>1103.9</ele><time>2025-11-21T23:21:42.000Z</time></trkpt>
        <trkpt lat="28.015149" lon="105.620292"><ele>1103.9</ele><time>2025-11-21T23:21:43.000Z</time></trkpt>
        <trkpt lat="28.015154" lon="105.620301"><ele>1103.9</ele><time>2025-11-21T23:21:44.000Z</time></trkpt>
        <trkpt lat="28.015158" lon="105.62031"><ele>1103.9</ele><time>2025-11-21T23:21:45.000Z</time></trkpt>
        <trkpt lat="28.015162" lon="105.620317"><ele>1103.9</ele><time>2025-11-21T23:21:46.000Z</time></trkpt>
        <trkpt lat="28.015165" lon="105.620322"><ele>1103.2</ele><time>2025-11-21T23:21:47.000Z</time></trkpt>
        <trkpt lat="28.015167" lon="105.620325"><ele>1103.2</ele><time>2025-11-21T23:21:48.000Z</time></trkpt>
        <trkpt lat="28.015169" lon="105.620325"><ele>1103.2</ele><time>2025-11-21T23:21:49.000Z</time></trkpt>
        <trkpt lat="28.015171" lon="105.620325"><ele>1103.2</ele><time>2025-11-21T23:21:50.000Z</time></trkpt>
        <trkpt lat="28.015172" lon="105.620324"><ele>1103.2</ele><time>2025-11-21T23:21:51.000Z</time></trkpt>
        <trkpt lat="28.015174" lon="105.620324"><ele>1102.7</ele><time>2025-11-21T23:21:52.000Z</time></trkpt>
        <trkpt lat="28.015176" lon="105.620325"><ele>1102.7</ele><time>2025-11-21T23:21:53.000Z</time></trkpt>
        <trkpt lat="28.015177" lon="105.620326"><ele>1102.7</ele><time>2025-11-21T23:21:54.000Z</time></trkpt>
        <trkpt lat="28.015178" lon="105.620328"><ele>1102.7</ele><time>2025-11-21T23:21:55.000Z</time></trkpt>
        <trkpt lat="28.015179" lon="105.620332"><ele>1102.7</ele><time>2025-11-21T23:21:56.000Z</time></trkpt>
        <trkpt lat="28.015179" lon="105.620339"><ele>1102.4</ele><time>2025-11-21T23:21:57.000Z</time></trkpt>
        <trkpt lat="28.015178" lon="105.620347"><ele>1102.4</ele><time>2025-11-21T23:21:58.000Z</time></trkpt>
        <trkpt lat="28.015179" lon="105.620359"><ele>1102.4</ele><time>2025-11-21T23:21:59.000Z</time></trkpt>
        <trkpt lat="28.015178" lon="105.620371"><ele>1102.4</ele><time>2025-11-21T23:22:00.000Z</time></trkpt>
        <trkpt lat="28.01518" lon="105.620382"><ele>1102.4</ele><time>2025-11-21T23:22:01.000Z</time></trkpt>
        <trkpt lat="28.015182" lon="105.620394"><ele>1102.2</ele><time>2025-11-21T23:22:02.000Z</time></trkpt>
        <trkpt lat="28.015186" lon="105.620404"><ele>1102.2</ele><time>2025-11-21T23:22:03.000Z</time></trkpt>
        <trkpt lat="28.01519" lon="105.620413"><ele>1102.2</ele><time>2025-11-21T23:22:04.000Z</time></trkpt>
        <trkpt lat="28.015194" lon="105.620421"><ele>1102.2</ele><time>2025-11-21T23:22:05.000Z</time></trkpt>
        <trkpt lat="28.015197" lon="105.62043"><ele>1102.2</ele><time>2025-11-21T23:22:06.000Z</time></trkpt>
        <trkpt lat="28.015199" lon="105.620439"><ele>1102.2</ele><time>2025-11-21T23:22:07.000Z</time></trkpt>
        <trkpt lat="28.015201" lon="105.62045"><ele>1102.2</ele><time>2025-11-21T23:22:08.000Z</time></trkpt>
        <trkpt lat="28.015202" lon="105.620462"><ele>1102.2</ele><time>2025-11-21T23:22:09.000Z</time></trkpt>
        <trkpt lat="28.015204" lon="105.620474"><ele>1102.2</ele><time>2025-11-21T23:22:10.000Z</time></trkpt>
        <trkpt lat="28.015207" lon="105.620486"><ele>1102.2</ele><time>2025-11-21T23:22:11.000Z</time></trkpt>
        <trkpt lat="28.015209" lon="105.620498"><ele>1102.2</ele><time>2025-11-21T23:22:12.000Z</time></trkpt>
        <trkpt lat="28.015212" lon="105.62051"><ele>1102.2</ele><time>2025-11-21T23:22:13.000Z</time></trkpt>
        <trkpt lat="28.015216" lon="105.62052"><ele>1102.2</ele><time>2025-11-21T23:22:14.000Z</time></trkpt>
        <trkpt lat="28.015221" lon="105.62053"><ele>1102.2</ele><time>2025-11-21T23:22:15.000Z</time></trkpt>
        <trkpt lat="28.015225" lon="105.620539"><ele>1102.2</ele><time>2025-11-21T23:22:16.000Z</time></trkpt>
        <trkpt lat="28.01523" lon="105.620549"><ele>1101.9</ele><time>2025-11-21T23:22:17.000Z</time></trkpt>
        <trkpt lat="28.015236" lon="105.620559"><ele>1101.9</ele><time>2025-11-21T23:22:18.000Z</time></trkpt>
        <trkpt lat="28.015241" lon="105.620568"><ele>1101.9</ele><time>2025-11-21T23:22:19.000Z</time></trkpt>
        <trkpt lat="28.015245" lon="105.620579"><ele>1101.9</ele><time>2025-11-21T23:22:20.000Z</time></trkpt>
        <trkpt lat="28.015249" lon="105.620589"><ele>1101.9</ele><time>2025-11-21T23:22:21.000Z</time></trkpt>
        <trkpt lat="28.015253" lon="105.6206"><ele>1101.7</ele><time>2025-11-21T23:22:22.000Z</time></trkpt>
        <trkpt lat="28.015256" lon="105.620611"><ele>1101.7</ele><time>2025-11-21T23:22:23.000Z</time></trkpt>
        <trkpt lat="28.01526" lon="105.620623"><ele>1101.7</ele><time>2025-11-21T23:22:24.000Z</time></trkpt>
        <trkpt lat="28.015264" lon="105.620635"><ele>1101.7</ele><time>2025-11-21T23:22:25.000Z</time></trkpt>
        <trkpt lat="28.015268" lon="105.620647"><ele>1101.7</ele><time>2025-11-21T23:22:26.000Z</time></trkpt>
        <trkpt lat="28.015273" lon="105.620659"><ele>1101.3</ele><time>2025-11-21T23:22:27.000Z</time></trkpt>
        <trkpt lat="28.015278" lon="105.62067"><ele>1101.3</ele><time>2025-11-21T23:22:28.000Z</time></trkpt>
        <trkpt lat="28.015282" lon="105.620681"><ele>1101.3</ele><time>2025-11-21T23:22:29.000Z</time></trkpt>
        <trkpt lat="28.015286" lon="105.62069"><ele>1101.3</ele><time>2025-11-21T23:22:30.000Z</time></trkpt>
        <trkpt lat="28.015289" lon="105.6207"><ele>1101.3</ele><time>2025-11-21T23:22:31.000Z</time></trkpt>
        <trkpt lat="28.015292" lon="105.62071"><ele>1101</ele><time>2025-11-21T23:22:32.000Z</time></trkpt>
        <trkpt lat="28.015294" lon="105.620721"><ele>1101</ele><time>2025-11-21T23:22:33.000Z</time></trkpt>
        <trkpt lat="28.015296" lon="105.620732"><ele>1101</ele><time>2025-11-21T23:22:34.000Z</time></trkpt>
        <trkpt lat="28.015299" lon="105.620744"><ele>1101</ele><time>2025-11-21T23:22:35.000Z</time></trkpt>
        <trkpt lat="28.015304" lon="105.620755"><ele>1101</ele><time>2025-11-21T23:22:36.000Z</time></trkpt>
        <trkpt lat="28.015308" lon="105.620766"><ele>1100.6</ele><time>2025-11-21T23:22:37.000Z</time></trkpt>
        <trkpt lat="28.015313" lon="105.620777"><ele>1100.6</ele><time>2025-11-21T23:22:38.000Z</time></trkpt>
        <trkpt lat="28.015317" lon="105.620788"><ele>1100.6</ele><time>2025-11-21T23:22:39.000Z</time></trkpt>
        <trkpt lat="28.015321" lon="105.620798"><ele>1100.6</ele><time>2025-11-21T23:22:40.000Z</time></trkpt>
        <trkpt lat="28.015324" lon="105.62081"><ele>1100.6</ele><time>2025-11-21T23:22:41.000Z</time></trkpt>
        <trkpt lat="28.015328" lon="105.620822"><ele>1100.3</ele><time>2025-11-21T23:22:42.000Z</time></trkpt>
        <trkpt lat="28.015331" lon="105.620834"><ele>1100.3</ele><time>2025-11-21T23:22:43.000Z</time></trkpt>
        <trkpt lat="28.015334" lon="105.620846"><ele>1100.3</ele><time>2025-11-21T23:22:44.000Z</time></trkpt>
        <trkpt lat="28.015338" lon="105.620858"><ele>1100.3</ele><time>2025-11-21T23:22:45.000Z</time></trkpt>
        <trkpt lat="28.015343" lon="105.620868"><ele>1100.3</ele><time>2025-11-21T23:22:46.000Z</time></trkpt>
        <trkpt lat="28.015346" lon="105.620879"><ele>1100.1</ele><time>2025-11-21T23:22:47.000Z</time></trkpt>
        <trkpt lat="28.015351" lon="105.620889"><ele>1100.1</ele><time>2025-11-21T23:22:48.000Z</time></trkpt>
        <trkpt lat="28.015354" lon="105.620899"><ele>1100.1</ele><time>2025-11-21T23:22:49.000Z</time></trkpt>
        <trkpt lat="28.015356" lon="105.62091"><ele>1100.1</ele><time>2025-11-21T23:22:50.000Z</time></trkpt>
        <trkpt lat="28.015357" lon="105.620921"><ele>1100.1</ele><time>2025-11-21T23:22:51.000Z</time></trkpt>
        <trkpt lat="28.015358" lon="105.620932"><ele>1099.9</ele><time>2025-11-21T23:22:52.000Z</time></trkpt>
        <trkpt lat="28.01536" lon="105.620944"><ele>1099.9</ele><time>2025-11-21T23:22:53.000Z</time></trkpt>
        <trkpt lat="28.015362" lon="105.620955"><ele>1099.9</ele><time>2025-11-21T23:22:54.000Z</time></trkpt>
        <trkpt lat="28.015364" lon="105.620967"><ele>1099.9</ele><time>2025-11-21T23:22:55.000Z</time></trkpt>
        <trkpt lat="28.015365" lon="105.620979"><ele>1099.9</ele><time>2025-11-21T23:22:56.000Z</time></trkpt>
        <trkpt lat="28.015366" lon="105.620991"><ele>1099.6</ele><time>2025-11-21T23:22:57.000Z</time></trkpt>
        <trkpt lat="28.015366" lon="105.621004"><ele>1099.6</ele><time>2025-11-21T23:22:58.000Z</time></trkpt>
        <trkpt lat="28.015366" lon="105.621016"><ele>1099.6</ele><time>2025-11-21T23:22:59.000Z</time></trkpt>
        <trkpt lat="28.015367" lon="105.621027"><ele>1099.6</ele><time>2025-11-21T23:23:00.000Z</time></trkpt>
        <trkpt lat="28.015369" lon="105.621038"><ele>1099.6</ele><time>2025-11-21T23:23:01.000Z</time></trkpt>
        <trkpt lat="28.015372" lon="105.621049"><ele>1099.6</ele><time>2025-11-21T23:23:02.000Z</time></trkpt>
        <trkpt lat="28.015376" lon="105.621058"><ele>1099.6</ele><time>2025-11-21T23:23:03.000Z</time></trkpt>
        <trkpt lat="28.01538" lon="105.621068"><ele>1099.6</ele><time>2025-11-21T23:23:04.000Z</time></trkpt>
        <trkpt lat="28.015382" lon="105.621077"><ele>1099.6</ele><time>2025-11-21T23:23:05.000Z</time></trkpt>
        <trkpt lat="28.015383" lon="105.621087"><ele>1099.6</ele><time>2025-11-21T23:23:06.000Z</time></trkpt>
        <trkpt lat="28.015384" lon="105.621096"><ele>1099.6</ele><time>2025-11-21T23:23:07.000Z</time></trkpt>
        <trkpt lat="28.015385" lon="105.621105"><ele>1099.6</ele><time>2025-11-21T23:23:08.000Z</time></trkpt>
        <trkpt lat="28.015386" lon="105.621115"><ele>1099.6</ele><time>2025-11-21T23:23:09.000Z</time></trkpt>
        <trkpt lat="28.015387" lon="105.621125"><ele>1099.6</ele><time>2025-11-21T23:23:10.000Z</time></trkpt>
        <trkpt lat="28.015389" lon="105.621136"><ele>1099.6</ele><time>2025-11-21T23:23:11.000Z</time></trkpt>
        <trkpt lat="28.015391" lon="105.621146"><ele>1099.6</ele><time>2025-11-21T23:23:12.000Z</time></trkpt>
        <trkpt lat="28.015392" lon="105.621157"><ele>1099.6</ele><time>2025-11-21T23:23:13.000Z</time></trkpt>
        <trkpt lat="28.015393" lon="105.621168"><ele>1099.6</ele><time>2025-11-21T23:23:14.000Z</time></trkpt>
        <trkpt lat="28.015395" lon="105.62118"><ele>1099.6</ele><time>2025-11-21T23:23:15.000Z</time></trkpt>
        <trkpt lat="28.015397" lon="105.621192"><ele>1099.6</ele><time>2025-11-21T23:23:16.000Z</time></trkpt>
        <trkpt lat="28.015399" lon="105.621205"><ele>1099.4</ele><time>2025-11-21T23:23:17.000Z</time></trkpt>
        <trkpt lat="28.015402" lon="105.621218"><ele>1099.4</ele><time>2025-11-21T23:23:18.000Z</time></trkpt>
        <trkpt lat="28.015405" lon="105.621232"><ele>1099.4</ele><time>2025-11-21T23:23:19.000Z</time></trkpt>
        <trkpt lat="28.015407" lon="105.621245"><ele>1099.4</ele><time>2025-11-21T23:23:20.000Z</time></trkpt>
        <trkpt lat="28.015408" lon="105.621258"><ele>1099.4</ele><time>2025-11-21T23:23:21.000Z</time></trkpt>
        <trkpt lat="28.015409" lon="105.621271"><ele>1098.5</ele><time>2025-11-21T23:23:22.000Z</time></trkpt>
        <trkpt lat="28.01541" lon="105.621284"><ele>1098.5</ele><time>2025-11-21T23:23:23.000Z</time></trkpt>
        <trkpt lat="28.01541" lon="105.621297"><ele>1098.5</ele><time>2025-11-21T23:23:24.000Z</time></trkpt>
        <trkpt lat="28.01541" lon="105.621309"><ele>1098.5</ele><time>2025-11-21T23:23:25.000Z</time></trkpt>
        <trkpt lat="28.015411" lon="105.621322"><ele>1098.5</ele><time>2025-11-21T23:23:26.000Z</time></trkpt>
        <trkpt lat="28.015412" lon="105.621333"><ele>1098</ele><time>2025-11-21T23:23:27.000Z</time></trkpt>
        <trkpt lat="28.015414" lon="105.621344"><ele>1098</ele><time>2025-11-21T23:23:28.000Z</time></trkpt>
        <trkpt lat="28.015416" lon="105.621355"><ele>1098</ele><time>2025-11-21T23:23:29.000Z</time></trkpt>
        <trkpt lat="28.015419" lon="105.621365"><ele>1098</ele><time>2025-11-21T23:23:30.000Z</time></trkpt>
        <trkpt lat="28.015422" lon="105.621374"><ele>1098</ele><time>2025-11-21T23:23:31.000Z</time></trkpt>
        <trkpt lat="28.015426" lon="105.621382"><ele>1097.4</ele><time>2025-11-21T23:23:32.000Z</time></trkpt>
        <trkpt lat="28.015429" lon="105.62139"><ele>1097.4</ele><time>2025-11-21T23:23:33.000Z</time></trkpt>
        <trkpt lat="28.015432" lon="105.621397"><ele>1097.4</ele><time>2025-11-21T23:23:34.000Z</time></trkpt>
        <trkpt lat="28.015436" lon="105.621403"><ele>1097.4</ele><time>2025-11-21T23:23:35.000Z</time></trkpt>
        <trkpt lat="28.015442" lon="105.62141"><ele>1097.4</ele><time>2025-11-21T23:23:36.000Z</time></trkpt>
        <trkpt lat="28.015449" lon="105.621419"><ele>1097.2</ele><time>2025-11-21T23:23:37.000Z</time></trkpt>
        <trkpt lat="28.015459" lon="105.621428"><ele>1097.2</ele><time>2025-11-21T23:23:38.000Z</time></trkpt>
        <trkpt lat="28.015469" lon="105.621439"><ele>1097.2</ele><time>2025-11-21T23:23:39.000Z</time></trkpt>
        <trkpt lat="28.015479" lon="105.621451"><ele>1097.2</ele><time>2025-11-21T23:23:40.000Z</time></trkpt>
        <trkpt lat="28.015487" lon="105.621463"><ele>1097.2</ele><time>2025-11-21T23:23:41.000Z</time></trkpt>
        <trkpt lat="28.015494" lon="105.621475"><ele>1096.7</ele><time>2025-11-21T23:23:42.000Z</time></trkpt>
        <trkpt lat="28.015499" lon="105.621485"><ele>1096.7</ele><time>2025-11-21T23:23:43.000Z</time></trkpt>
        <trkpt lat="28.015504" lon="105.621495"><ele>1096.7</ele><time>2025-11-21T23:23:44.000Z</time></trkpt>
        <trkpt lat="28.01551" lon="105.621503"><ele>1096.7</ele><time>2025-11-21T23:23:45.000Z</time></trkpt>
        <trkpt lat="28.015516" lon="105.62151"><ele>1096.7</ele><time>2025-11-21T23:23:46.000Z</time></trkpt>
        <trkpt lat="28.015522" lon="105.621517"><ele>1096.1</ele><time>2025-11-21T23:23:47.000Z</time></trkpt>
        <trkpt lat="28.015527" lon="105.621523"><ele>1096.1</ele><time>2025-11-21T23:23:48.000Z</time></trkpt>
        <trkpt lat="28.015531" lon="105.621528"><ele>1096.1</ele><time>2025-11-21T23:23:49.000Z</time></trkpt>
        <trkpt lat="28.015534" lon="105.621532"><ele>1096.1</ele><time>2025-11-21T23:23:50.000Z</time></trkpt>
        <trkpt lat="28.015537" lon="105.621534"><ele>1096.1</ele><time>2025-11-21T23:23:51.000Z</time></trkpt>
        <trkpt lat="28.01554" lon="105.621536"><ele>1095.9</ele><time>2025-11-21T23:23:52.000Z</time></trkpt>
        <trkpt lat="28.015543" lon="105.621536"><ele>1095.9</ele><time>2025-11-21T23:23:53.000Z</time></trkpt>
        <trkpt lat="28.015546" lon="105.621537"><ele>1095.9</ele><time>2025-11-21T23:23:54.000Z</time></trkpt>
        <trkpt lat="28.015549" lon="105.621536"><ele>1095.9</ele><time>2025-11-21T23:23:55.000Z</time></trkpt>
        <trkpt lat="28.015549" lon="105.621536"><ele>1095.9</ele><time>2025-11-21T23:23:56.000Z</time></trkpt>
        <trkpt lat="28.01555" lon="105.621535"><ele>1095.6</ele><time>2025-11-21T23:23:57.000Z</time></trkpt>
        <trkpt lat="28.01555" lon="105.621534"><ele>1095.6</ele><time>2025-11-21T23:23:58.000Z</time></trkpt>
        <trkpt lat="28.015551" lon="105.621535"><ele>1095.6</ele><time>2025-11-21T23:23:59.000Z</time></trkpt>
        <trkpt lat="28.015552" lon="105.621539"><ele>1095.6</ele><time>2025-11-21T23:24:00.000Z</time></trkpt>
        <trkpt lat="28.015555" lon="105.621545"><ele>1095.6</ele><time>2025-11-21T23:24:01.000Z</time></trkpt>
        <trkpt lat="28.015557" lon="105.621553"><ele>1095.6</ele><time>2025-11-21T23:24:02.000Z</time></trkpt>
        <trkpt lat="28.015561" lon="105.621563"><ele>1095.6</ele><time>2025-11-21T23:24:03.000Z</time></trkpt>
        <trkpt lat="28.015566" lon="105.621573"><ele>1095.6</ele><time>2025-11-21T23:24:04.000Z</time></trkpt>
        <trkpt lat="28.015571" lon="105.621583"><ele>1095.6</ele><time>2025-11-21T23:24:05.000Z</time></trkpt>
        <trkpt lat="28.015577" lon="105.621594"><ele>1095.6</ele><time>2025-11-21T23:24:06.000Z</time></trkpt>
        <trkpt lat="28.015582" lon="105.621604"><ele>1095.9</ele><time>2025-11-21T23:24:07.000Z</time></trkpt>
        <trkpt lat="28.015588" lon="105.621614"><ele>1095.9</ele><time>2025-11-21T23:24:08.000Z</time></trkpt>
        <trkpt lat="28.015594" lon="105.621624"><ele>1095.9</ele><time>2025-11-21T23:24:09.000Z</time></trkpt>
        <trkpt lat="28.015599" lon="105.621633"><ele>1095.9</ele><time>2025-11-21T23:24:10.000Z</time></trkpt>
        <trkpt lat="28.015605" lon="105.62164"><ele>1095.9</ele><time>2025-11-21T23:24:11.000Z</time></trkpt>
        <trkpt lat="28.015612" lon="105.621647"><ele>1095.9</ele><time>2025-11-21T23:24:12.000Z</time></trkpt>
        <trkpt lat="28.01562" lon="105.621653"><ele>1095.9</ele><time>2025-11-21T23:24:13.000Z</time></trkpt>
        <trkpt lat="28.015626" lon="105.62166"><ele>1095.9</ele><time>2025-11-21T23:24:14.000Z</time></trkpt>
        <trkpt lat="28.015632" lon="105.621667"><ele>1095.9</ele><time>2025-11-21T23:24:15.000Z</time></trkpt>
        <trkpt lat="28.015637" lon="105.621675"><ele>1095.9</ele><time>2025-11-21T23:24:16.000Z</time></trkpt>
        <trkpt lat="28.015642" lon="105.621683"><ele>1095.6</ele><time>2025-11-21T23:24:17.000Z</time></trkpt>
        <trkpt lat="28.015645" lon="105.621693"><ele>1095.6</ele><time>2025-11-21T23:24:18.000Z</time></trkpt>
        <trkpt lat="28.015648" lon="105.621704"><ele>1095.6</ele><time>2025-11-21T23:24:19.000Z</time></trkpt>
        <trkpt lat="28.015652" lon="105.621714"><ele>1095.6</ele><time>2025-11-21T23:24:20.000Z</time></trkpt>
        <trkpt lat="28.015655" lon="105.621724"><ele>1095.6</ele><time>2025-11-21T23:24:21.000Z</time></trkpt>
        <trkpt lat="28.01566" lon="105.621733"><ele>1095.4</ele><time>2025-11-21T23:24:22.000Z</time></trkpt>
        <trkpt lat="28.015667" lon="105.621743"><ele>1095.4</ele><time>2025-11-21T23:24:23.000Z</time></trkpt>
        <trkpt lat="28.015675" lon="105.621753"><ele>1095.4</ele><time>2025-11-21T23:24:24.000Z</time></trkpt>
        <trkpt lat="28.015685" lon="105.621763"><ele>1095.4</ele><time>2025-11-21T23:24:25.000Z</time></trkpt>
        <trkpt lat="28.015696" lon="105.621772"><ele>1095.4</ele><time>2025-11-21T23:24:26.000Z</time></trkpt>
        <trkpt lat="28.015707" lon="105.621781"><ele>1095.1</ele><time>2025-11-21T23:24:27.000Z</time></trkpt>
        <trkpt lat="28.015717" lon="105.621789"><ele>1095.1</ele><time>2025-11-21T23:24:28.000Z</time></trkpt>
        <trkpt lat="28.015726" lon="105.621796"><ele>1095.1</ele><time>2025-11-21T23:24:29.000Z</time></trkpt>
        <trkpt lat="28.015734" lon="105.621804"><ele>1095.1</ele><time>2025-11-21T23:24:30.000Z</time></trkpt>
        <trkpt lat="28.01574" lon="105.621813"><ele>1095.1</ele><time>2025-11-21T23:24:31.000Z</time></trkpt>
        <trkpt lat="28.015746" lon="105.621823"><ele>1094.9</ele><time>2025-11-21T23:24:32.000Z</time></trkpt>
        <trkpt lat="28.015752" lon="105.621834"><ele>1094.9</ele><time>2025-11-21T23:24:33.000Z</time></trkpt>
        <trkpt lat="28.015758" lon="105.621846"><ele>1094.9</ele><time>2025-11-21T23:24:34.000Z</time></trkpt>
        <trkpt lat="28.015764" lon="105.621858"><ele>1094.9</ele><time>2025-11-21T23:24:35.000Z</time></trkpt>
        <trkpt lat="28.015771" lon="105.621868"><ele>1094.9</ele><time>2025-11-21T23:24:36.000Z</time></trkpt>
        <trkpt lat="28.015778" lon="105.621877"><ele>1094.9</ele><time>2025-11-21T23:24:37.000Z</time></trkpt>
        <trkpt lat="28.015785" lon="105.621886"><ele>1094.9</ele><time>2025-11-21T23:24:38.000Z</time></trkpt>
        <trkpt lat="28.015793" lon="105.621895"><ele>1094.9</ele><time>2025-11-21T23:24:39.000Z</time></trkpt>
        <trkpt lat="28.0158" lon="105.621903"><ele>1094.9</ele><time>2025-11-21T23:24:40.000Z</time></trkpt>
        <trkpt lat="28.015808" lon="105.621911"><ele>1094.9</ele><time>2025-11-21T23:24:41.000Z</time></trkpt>
        <trkpt lat="28.015817" lon="105.621918"><ele>1094.7</ele><time>2025-11-21T23:24:42.000Z</time></trkpt>
        <trkpt lat="28.015825" lon="105.621925"><ele>1094.7</ele><time>2025-11-21T23:24:43.000Z</time></trkpt>
        <trkpt lat="28.015832" lon="105.621932"><ele>1094.7</ele><time>2025-11-21T23:24:44.000Z</time></trkpt>
        <trkpt lat="28.015839" lon="105.621939"><ele>1094.7</ele><time>2025-11-21T23:24:45.000Z</time></trkpt>
        <trkpt lat="28.015846" lon="105.621948"><ele>1094.7</ele><time>2025-11-21T23:24:46.000Z</time></trkpt>
        <trkpt lat="28.015853" lon="105.621957"><ele>1094.5</ele><time>2025-11-21T23:24:47.000Z</time></trkpt>
        <trkpt lat="28.015861" lon="105.621966"><ele>1094.5</ele><time>2025-11-21T23:24:48.000Z</time></trkpt>
        <trkpt lat="28.015868" lon="105.621975"><ele>1094.5</ele><time>2025-11-21T23:24:49.000Z</time></trkpt>
        <trkpt lat="28.015876" lon="105.621984"><ele>1094.5</ele><time>2025-11-21T23:24:50.000Z</time></trkpt>
        <trkpt lat="28.015884" lon="105.621992"><ele>1094.5</ele><time>2025-11-21T23:24:51.000Z</time></trkpt>
        <trkpt lat="28.015893" lon="105.621999"><ele>1093.9</ele><time>2025-11-21T23:24:52.000Z</time></trkpt>
        <trkpt lat="28.015901" lon="105.622008"><ele>1093.9</ele><time>2025-11-21T23:24:53.000Z</time></trkpt>
        <trkpt lat="28.015908" lon="105.622016"><ele>1093.9</ele><time>2025-11-21T23:24:54.000Z</time></trkpt>
        <trkpt lat="28.015914" lon="105.622023"><ele>1093.9</ele><time>2025-11-21T23:24:55.000Z</time></trkpt>
        <trkpt lat="28.015918" lon="105.622029"><ele>1093.9</ele><time>2025-11-21T23:24:56.000Z</time></trkpt>
        <trkpt lat="28.015923" lon="105.622033"><ele>1093.1</ele><time>2025-11-21T23:24:57.000Z</time></trkpt>
        <trkpt lat="28.015927" lon="105.622036"><ele>1093.1</ele><time>2025-11-21T23:24:58.000Z</time></trkpt>
        <trkpt lat="28.015932" lon="105.622038"><ele>1093.1</ele><time>2025-11-21T23:24:59.000Z</time></trkpt>
        <trkpt lat="28.015938" lon="105.622042"><ele>1093.1</ele><time>2025-11-21T23:25:00.000Z</time></trkpt>
        <trkpt lat="28.015944" lon="105.622047"><ele>1093.1</ele><time>2025-11-21T23:25:01.000Z</time></trkpt>
        <trkpt lat="28.015949" lon="105.622052"><ele>1092.4</ele><time>2025-11-21T23:25:02.000Z</time></trkpt>
        <trkpt lat="28.015954" lon="105.622056"><ele>1092.4</ele><time>2025-11-21T23:25:03.000Z</time></trkpt>
        <trkpt lat="28.015959" lon="105.62206"><ele>1092.4</ele><time>2025-11-21T23:25:04.000Z</time></trkpt>
        <trkpt lat="28.015963" lon="105.622062"><ele>1092.4</ele><time>2025-11-21T23:25:05.000Z</time></trkpt>
        <trkpt lat="28.015969" lon="105.622063"><ele>1092.4</ele><time>2025-11-21T23:25:06.000Z</time></trkpt>
        <trkpt lat="28.015975" lon="105.622064"><ele>1091.9</ele><time>2025-11-21T23:25:07.000Z</time></trkpt>
        <trkpt lat="28.015982" lon="105.622067"><ele>1091.9</ele><time>2025-11-21T23:25:08.000Z</time></trkpt>
        <trkpt lat="28.01599" lon="105.622072"><ele>1091.9</ele><time>2025-11-21T23:25:09.000Z</time></trkpt>
        <trkpt lat="28.015998" lon="105.622078"><ele>1091.9</ele><time>2025-11-21T23:25:10.000Z</time></trkpt>
        <trkpt lat="28.016006" lon="105.622084"><ele>1091.9</ele><time>2025-11-21T23:25:11.000Z</time></trkpt>
        <trkpt lat="28.016013" lon="105.622091"><ele>1091.7</ele><time>2025-11-21T23:25:12.000Z</time></trkpt>
        <trkpt lat="28.01602" lon="105.622098"><ele>1091.7</ele><time>2025-11-21T23:25:13.000Z</time></trkpt>
        <trkpt lat="28.016027" lon="105.622104"><ele>1091.7</ele><time>2025-11-21T23:25:14.000Z</time></trkpt>
        <trkpt lat="28.016034" lon="105.622109"><ele>1091.7</ele><time>2025-11-21T23:25:15.000Z</time></trkpt>
        <trkpt lat="28.016042" lon="105.622113"><ele>1091.7</ele><time>2025-11-21T23:25:16.000Z</time></trkpt>
        <trkpt lat="28.016052" lon="105.622117"><ele>1091.5</ele><time>2025-11-21T23:25:17.000Z</time></trkpt>
        <trkpt lat="28.016061" lon="105.62212"><ele>1091.5</ele><time>2025-11-21T23:25:18.000Z</time></trkpt>
        <trkpt lat="28.016071" lon="105.622124"><ele>1091.5</ele><time>2025-11-21T23:25:19.000Z</time></trkpt>
        <trkpt lat="28.016081" lon="105.622128"><ele>1091.5</ele><time>2025-11-21T23:25:20.000Z</time></trkpt>
        <trkpt lat="28.01609" lon="105.622132"><ele>1091.5</ele><time>2025-11-21T23:25:21.000Z</time></trkpt>
        <trkpt lat="28.016099" lon="105.622136"><ele>1091.5</ele><time>2025-11-21T23:25:22.000Z</time></trkpt>
        <trkpt lat="28.016108" lon="105.62214"><ele>1091.5</ele><time>2025-11-21T23:25:23.000Z</time></trkpt>
        <trkpt lat="28.016117" lon="105.622143"><ele>1091.5</ele><time>2025-11-21T23:25:24.000Z</time></trkpt>
        <trkpt lat="28.016125" lon="105.622146"><ele>1091.5</ele><time>2025-11-21T23:25:25.000Z</time></trkpt>
        <trkpt lat="28.016134" lon="105.622147"><ele>1091.5</ele><time>2025-11-21T23:25:26.000Z</time></trkpt>
        <trkpt lat="28.016143" lon="105.622149"><ele>1091.2</ele><time>2025-11-21T23:25:27.000Z</time></trkpt>
        <trkpt lat="28.016153" lon="105.622151"><ele>1091.2</ele><time>2025-11-21T23:25:28.000Z</time></trkpt>
        <trkpt lat="28.016162" lon="105.622154"><ele>1091.2</ele><time>2025-11-21T23:25:29.000Z</time></trkpt>
        <trkpt lat="28.016172" lon="105.622157"><ele>1091.2</ele><time>2025-11-21T23:25:30.000Z</time></trkpt>
        <trkpt lat="28.016183" lon="105.622161"><ele>1091.2</ele><time>2025-11-21T23:25:31.000Z</time></trkpt>
        <trkpt lat="28.016193" lon="105.622164"><ele>1091</ele><time>2025-11-21T23:25:32.000Z</time></trkpt>
        <trkpt lat="28.016204" lon="105.622167"><ele>1091</ele><time>2025-11-21T23:25:33.000Z</time></trkpt>
        <trkpt lat="28.016214" lon="105.62217"><ele>1091</ele><time>2025-11-21T23:25:34.000Z</time></trkpt>
        <trkpt lat="28.016224" lon="105.622174"><ele>1091</ele><time>2025-11-21T23:25:35.000Z</time></trkpt>
        <trkpt lat="28.016232" lon="105.622178"><ele>1091</ele><time>2025-11-21T23:25:36.000Z</time></trkpt>
        <trkpt lat="28.016239" lon="105.622182"><ele>1091</ele><time>2025-11-21T23:25:37.000Z</time></trkpt>
        <trkpt lat="28.016246" lon="105.622186"><ele>1091</ele><time>2025-11-21T23:25:38.000Z</time></trkpt>
        <trkpt lat="28.016252" lon="105.622191"><ele>1091</ele><time>2025-11-21T23:25:39.000Z</time></trkpt>
        <trkpt lat="28.016259" lon="105.622195"><ele>1091</ele><time>2025-11-21T23:25:40.000Z</time></trkpt>
        <trkpt lat="28.016267" lon="105.622199"><ele>1091</ele><time>2025-11-21T23:25:41.000Z</time></trkpt>
        <trkpt lat="28.016275" lon="105.622203"><ele>1090.8</ele><time>2025-11-21T23:25:42.000Z</time></trkpt>
        <trkpt lat="28.016283" lon="105.622206"><ele>1090.8</ele><time>2025-11-21T23:25:43.000Z</time></trkpt>
        <trkpt lat="28.016293" lon="105.62221"><ele>1090.8</ele><time>2025-11-21T23:25:44.000Z</time></trkpt>
        <trkpt lat="28.016303" lon="105.622213"><ele>1090.8</ele><time>2025-11-21T23:25:45.000Z</time></trkpt>
        <trkpt lat="28.016314" lon="105.622215"><ele>1090.8</ele><time>2025-11-21T23:25:46.000Z</time></trkpt>
        <trkpt lat="28.016324" lon="105.622219"><ele>1090.5</ele><time>2025-11-21T23:25:47.000Z</time></trkpt>
        <trkpt lat="28.016333" lon="105.622223"><ele>1090.5</ele><time>2025-11-21T23:25:48.000Z</time></trkpt>
        <trkpt lat="28.016341" lon="105.622227"><ele>1090.5</ele><time>2025-11-21T23:25:49.000Z</time></trkpt>
        <trkpt lat="28.016349" lon="105.622232"><ele>1090.5</ele><time>2025-11-21T23:25:50.000Z</time></trkpt>
        <trkpt lat="28.016355" lon="105.622236"><ele>1090.5</ele><time>2025-11-21T23:25:51.000Z</time></trkpt>
        <trkpt lat="28.016361" lon="105.622239"><ele>1090.3</ele><time>2025-11-21T23:25:52.000Z</time></trkpt>
        <trkpt lat="28.016368" lon="105.622243"><ele>1090.3</ele><time>2025-11-21T23:25:53.000Z</time></trkpt>
        <trkpt lat="28.016376" lon="105.622247"><ele>1090.3</ele><time>2025-11-21T23:25:54.000Z</time></trkpt>
        <trkpt lat="28.016383" lon="105.622252"><ele>1090.3</ele><time>2025-11-21T23:25:55.000Z</time></trkpt>
        <trkpt lat="28.016391" lon="105.622257"><ele>1090.3</ele><time>2025-11-21T23:25:56.000Z</time></trkpt>
        <trkpt lat="28.016399" lon="105.622263"><ele>1089.9</ele><time>2025-11-21T23:25:57.000Z</time></trkpt>
        <trkpt lat="28.016408" lon="105.622268"><ele>1089.9</ele><time>2025-11-21T23:25:58.000Z</time></trkpt>
        <trkpt lat="28.016416" lon="105.622273"><ele>1089.9</ele><time>2025-11-21T23:25:59.000Z</time></trkpt>
        <trkpt lat="28.016426" lon="105.622277"><ele>1089.9</ele><time>2025-11-21T23:26:00.000Z</time></trkpt>
        <trkpt lat="28.016434" lon="105.62228"><ele>1089.9</ele><time>2025-11-21T23:26:01.000Z</time></trkpt>
        <trkpt lat="28.016442" lon="105.622284"><ele>1089</ele><time>2025-11-21T23:26:02.000Z</time></trkpt>
        <trkpt lat="28.01645" lon="105.62229"><ele>1089</ele><time>2025-11-21T23:26:03.000Z</time></trkpt>
        <trkpt lat="28.016457" lon="105.622295"><ele>1089</ele><time>2025-11-21T23:26:04.000Z</time></trkpt>
        <trkpt lat="28.016465" lon="105.622301"><ele>1089</ele><time>2025-11-21T23:26:05.000Z</time></trkpt>
        <trkpt lat="28.016473" lon="105.622308"><ele>1089</ele><time>2025-11-21T23:26:06.000Z</time></trkpt>
        <trkpt lat="28.016482" lon="105.622313"><ele>1088.4</ele><time>2025-11-21T23:26:07.000Z</time></trkpt>
        <trkpt lat="28.016492" lon="105.622317"><ele>1088.4</ele><time>2025-11-21T23:26:08.000Z</time></trkpt>
        <trkpt lat="28.016501" lon="105.622321"><ele>1088.4</ele><time>2025-11-21T23:26:09.000Z</time></trkpt>
        <trkpt lat="28.01651" lon="105.622324"><ele>1088.4</ele><time>2025-11-21T23:26:10.000Z</time></trkpt>
        <trkpt lat="28.016521" lon="105.622326"><ele>1088.4</ele><time>2025-11-21T23:26:11.000Z</time></trkpt>
        <trkpt lat="28.016532" lon="105.622327"><ele>1087.5</ele><time>2025-11-21T23:26:12.000Z</time></trkpt>
        <trkpt lat="28.016543" lon="105.622327"><ele>1087.5</ele><time>2025-11-21T23:26:13.000Z</time></trkpt>
        <trkpt lat="28.016554" lon="105.622326"><ele>1087.5</ele><time>2025-11-21T23:26:14.000Z</time></trkpt>
        <trkpt lat="28.016564" lon="105.622325"><ele>1087.5</ele><time>2025-11-21T23:26:15.000Z</time></trkpt>
        <trkpt lat="28.016575" lon="105.622325"><ele>1087.5</ele><time>2025-11-21T23:26:16.000Z</time></trkpt>
        <trkpt lat="28.016586" lon="105.622326"><ele>1087.1</ele><time>2025-11-21T23:26:17.000Z</time></trkpt>
        <trkpt lat="28.016597" lon="105.622326"><ele>1087.1</ele><time>2025-11-21T23:26:18.000Z</time></trkpt>
        <trkpt lat="28.016608" lon="105.622327"><ele>1087.1</ele><time>2025-11-21T23:26:19.000Z</time></trkpt>
        <trkpt lat="28.01662" lon="105.622326"><ele>1087.1</ele><time>2025-11-21T23:26:20.000Z</time></trkpt>
        <trkpt lat="28.01663" lon="105.622324"><ele>1087.1</ele><time>2025-11-21T23:26:21.000Z</time></trkpt>
        <trkpt lat="28.01664" lon="105.622323"><ele>1086.9</ele><time>2025-11-21T23:26:22.000Z</time></trkpt>
        <trkpt lat="28.016648" lon="105.622322"><ele>1086.9</ele><time>2025-11-21T23:26:23.000Z</time></trkpt>
        <trkpt lat="28.016654" lon="105.622322"><ele>1086.9</ele><time>2025-11-21T23:26:24.000Z</time></trkpt>
        <trkpt lat="28.016659" lon="105.622322"><ele>1086.9</ele><time>2025-11-21T23:26:25.000Z</time></trkpt>
        <trkpt lat="28.016663" lon="105.622323"><ele>1086.9</ele><time>2025-11-21T23:26:26.000Z</time></trkpt>
        <trkpt lat="28.016665" lon="105.622324"><ele>1086.9</ele><time>2025-11-21T23:26:27.000Z</time></trkpt>
        <trkpt lat="28.016667" lon="105.622325"><ele>1086.9</ele><time>2025-11-21T23:26:28.000Z</time></trkpt>
        <trkpt lat="28.016669" lon="105.622327"><ele>1086.9</ele><time>2025-11-21T23:26:29.000Z</time></trkpt>
        <trkpt lat="28.01667" lon="105.622329"><ele>1086.9</ele><time>2025-11-21T23:26:30.000Z</time></trkpt>
        <trkpt lat="28.016671" lon="105.622331"><ele>1086.9</ele><time>2025-11-21T23:26:31.000Z</time></trkpt>
        <trkpt lat="28.016672" lon="105.622333"><ele>1087.2</ele><time>2025-11-21T23:26:32.000Z</time></trkpt>
        <trkpt lat="28.016673" lon="105.622334"><ele>1087.2</ele><time>2025-11-21T23:26:33.000Z</time></trkpt>
        <trkpt lat="28.016673" lon="105.622334"><ele>1087.2</ele><time>2025-11-21T23:26:34.000Z</time></trkpt>
        <trkpt lat="28.016674" lon="105.622335"><ele>1087.2</ele><time>2025-11-21T23:26:35.000Z</time></trkpt>
        <trkpt lat="28.016674" lon="105.622334"><ele>1087.2</ele><time>2025-11-21T23:26:36.000Z</time></trkpt>
        <trkpt lat="28.016674" lon="105.622334"><ele>1087.4</ele><time>2025-11-21T23:26:37.000Z</time></trkpt>
        <trkpt lat="28.016674" lon="105.622334"><ele>1087.4</ele><time>2025-11-21T23:26:38.000Z</time></trkpt>
        <trkpt lat="28.016674" lon="105.622333"><ele>1087.4</ele><time>2025-11-21T23:26:39.000Z</time></trkpt>
        <trkpt lat="28.016674" lon="105.622333"><ele>1087.4</ele><time>2025-11-21T23:26:40.000Z</time></trkpt>
        <trkpt lat="28.016674" lon="105.622332"><ele>1087.4</ele><time>2025-11-21T23:26:41.000Z</time></trkpt>
        <trkpt lat="28.016674" lon="105.622331"><ele>1087.6</ele><time>2025-11-21T23:26:42.000Z</time></trkpt>
        <trkpt lat="28.016675" lon="105.622331"><ele>1087.6</ele><time>2025-11-21T23:26:43.000Z</time></trkpt>
        <trkpt lat="28.016675" lon="105.622331"><ele>1087.6</ele><time>2025-11-21T23:26:44.000Z</time></trkpt>
        <trkpt lat="28.016675" lon="105.622331"><ele>1087.6</ele><time>2025-11-21T23:26:45.000Z</time></trkpt>
        <trkpt lat="28.016675" lon="105.62233"><ele>1087.6</ele><time>2025-11-21T23:26:46.000Z</time></trkpt>
        <trkpt lat="28.016674" lon="105.622329"><ele>1087.6</ele><time>2025-11-21T23:26:47.000Z</time></trkpt>
        <trkpt lat="28.016673" lon="105.622328"><ele>1087.6</ele><time>2025-11-21T23:26:48.000Z</time></trkpt>
        <trkpt lat="28.016671" lon="105.622326"><ele>1087.6</ele><time>2025-11-21T23:26:49.000Z</time></trkpt>
        <trkpt lat="28.016669" lon="105.622323"><ele>1087.6</ele><time>2025-11-21T23:26:50.000Z</time></trkpt>
        <trkpt lat="28.016668" lon="105.622322"><ele>1087.6</ele><time>2025-11-21T23:26:51.000Z</time></trkpt>
        <trkpt lat="28.016667" lon="105.622321"><ele>1087.6</ele><time>2025-11-21T23:26:52.000Z</time></trkpt>
        <trkpt lat="28.016666" lon="105.622321"><ele>1087.6</ele><time>2025-11-21T23:26:53.000Z</time></trkpt>
        <trkpt lat="28.016665" lon="105.622322"><ele>1087.6</ele><time>2025-11-21T23:26:54.000Z</time></trkpt>
        <trkpt lat="28.016664" lon="105.622323"><ele>1087.6</ele><time>2025-11-21T23:26:55.000Z</time></trkpt>
        <trkpt lat="28.016663" lon="105.622325"><ele>1087.6</ele><time>2025-11-21T23:26:56.000Z</time></trkpt>
        <trkpt lat="28.016661" lon="105.622327"><ele>1087.6</ele><time>2025-11-21T23:26:57.000Z</time></trkpt>
        <trkpt lat="28.01666" lon="105.622328"><ele>1087.6</ele><time>2025-11-21T23:26:58.000Z</time></trkpt>
        <trkpt lat="28.016659" lon="105.622329"><ele>1087.6</ele><time>2025-11-21T23:26:59.000Z</time></trkpt>
        <trkpt lat="28.016659" lon="105.622328"><ele>1087.6</ele><time>2025-11-21T23:27:00.000Z</time></trkpt>
        <trkpt lat="28.016659" lon="105.622328"><ele>1087.6</ele><time>2025-11-21T23:27:01.000Z</time></trkpt>
        <trkpt lat="28.016659" lon="105.622327"><ele>1087.6</ele><time>2025-11-21T23:27:02.000Z</time></trkpt>
        <trkpt lat="28.016659" lon="105.622327"><ele>1087.6</ele><time>2025-11-21T23:27:03.000Z</time></trkpt>
        <trkpt lat="28.01666" lon="105.622327"><ele>1087.6</ele><time>2025-11-21T23:27:04.000Z</time></trkpt>
        <trkpt lat="28.01666" lon="105.622326"><ele>1087.6</ele><time>2025-11-21T23:27:05.000Z</time></trkpt>
        <trkpt lat="28.016661" lon="105.622326"><ele>1087.6</ele><time>2025-11-21T23:27:06.000Z</time></trkpt>
        <trkpt lat="28.016662" lon="105.622325"><ele>1087.6</ele><time>2025-11-21T23:27:07.000Z</time></trkpt>
        <trkpt lat="28.016661" lon="105.622324"><ele>1087.6</ele><time>2025-11-21T23:27:08.000Z</time></trkpt>
        <trkpt lat="28.01666" lon="105.622323"><ele>1087.6</ele><time>2025-11-21T23:27:09.000Z</time></trkpt>
        <trkpt lat="28.016661" lon="105.622323"><ele>1087.6</ele><time>2025-11-21T23:27:10.000Z</time></trkpt>
        <trkpt lat="28.016661" lon="105.622322"><ele>1087.6</ele><time>2025-11-21T23:27:11.000Z</time></trkpt>
        <trkpt lat="28.016661" lon="105.62232"><ele>1087.6</ele><time>2025-11-21T23:27:12.000Z</time></trkpt>
        <trkpt lat="28.016662" lon="105.622319"><ele>1087.6</ele><time>2025-11-21T23:27:13.000Z</time></trkpt>
        <trkpt lat="28.016664" lon="105.622318"><ele>1087.6</ele><time>2025-11-21T23:27:14.000Z</time></trkpt>
        <trkpt lat="28.016666" lon="105.622317"><ele>1087.6</ele><time>2025-11-21T23:27:15.000Z</time></trkpt>
        <trkpt lat="28.016668" lon="105.622317"><ele>1087.6</ele><time>2025-11-21T23:27:16.000Z</time></trkpt>
        <trkpt lat="28.016671" lon="105.622318"><ele>1087.6</ele><time>2025-11-21T23:27:17.000Z</time></trkpt>
        <trkpt lat="28.016674" lon="105.622318"><ele>1087.6</ele><time>2025-11-21T23:27:18.000Z</time></trkpt>
        <trkpt lat="28.016677" lon="105.622318"><ele>1087.6</ele><time>2025-11-21T23:27:19.000Z</time></trkpt>
        <trkpt lat="28.01668" lon="105.622318"><ele>1087.6</ele><time>2025-11-21T23:27:20.000Z</time></trkpt>
        <trkpt lat="28.016683" lon="105.622318"><ele>1087.6</ele><time>2025-11-21T23:27:21.000Z</time></trkpt>
        <trkpt lat="28.016686" lon="105.622317"><ele>1087.6</ele><time>2025-11-21T23:27:22.000Z</time></trkpt>
        <trkpt lat="28.016689" lon="105.622319"><ele>1087.6</ele><time>2025-11-21T23:27:23.000Z</time></trkpt>
        <trkpt lat="28.016692" lon="105.622321"><ele>1087.6</ele><time>2025-11-21T23:27:24.000Z</time></trkpt>
        <trkpt lat="28.016696" lon="105.622325"><ele>1087.6</ele><time>2025-11-21T23:27:25.000Z</time></trkpt>
        <trkpt lat="28.016699" lon="105.622328"><ele>1087.6</ele><time>2025-11-21T23:27:26.000Z</time></trkpt>
        <trkpt lat="28.016703" lon="105.622331"><ele>1088.1</ele><time>2025-11-21T23:27:27.000Z</time></trkpt>
        <trkpt lat="28.016706" lon="105.622333"><ele>1088.1</ele><time>2025-11-21T23:27:28.000Z</time></trkpt>
        <trkpt lat="28.016708" lon="105.622332"><ele>1088.1</ele><time>2025-11-21T23:27:29.000Z</time></trkpt>
        <trkpt lat="28.01671" lon="105.622331"><ele>1088.1</ele><time>2025-11-21T23:27:30.000Z</time></trkpt>
        <trkpt lat="28.016712" lon="105.62233"><ele>1088.1</ele><time>2025-11-21T23:27:31.000Z</time></trkpt>
        <trkpt lat="28.016712" lon="105.62233"><ele>1088.6</ele><time>2025-11-21T23:27:32.000Z</time></trkpt>
        <trkpt lat="28.016713" lon="105.62233"><ele>1088.6</ele><time>2025-11-21T23:27:33.000Z</time></trkpt>
        <trkpt lat="28.016714" lon="105.622335"><ele>1088.6</ele><time>2025-11-21T23:27:34.000Z</time></trkpt>
        <trkpt lat="28.016715" lon="105.622341"><ele>1088.6</ele><time>2025-11-21T23:27:35.000Z</time></trkpt>
        <trkpt lat="28.016716" lon="105.622346"><ele>1088.6</ele><time>2025-11-21T23:27:36.000Z</time></trkpt>
        <trkpt lat="28.016717" lon="105.622353"><ele>1089.7</ele><time>2025-11-21T23:27:37.000Z</time></trkpt>
        <trkpt lat="28.016718" lon="105.622359"><ele>1089.7</ele><time>2025-11-21T23:27:38.000Z</time></trkpt>
        <trkpt lat="28.016718" lon="105.622362"><ele>1089.7</ele><time>2025-11-21T23:27:39.000Z</time></trkpt>
        <trkpt lat="28.016718" lon="105.622364"><ele>1089.7</ele><time>2025-11-21T23:27:40.000Z</time></trkpt>
        <trkpt lat="28.01672" lon="105.622366"><ele>1089.7</ele><time>2025-11-21T23:27:41.000Z</time></trkpt>
        <trkpt lat="28.016721" lon="105.622366"><ele>1090.2</ele><time>2025-11-21T23:27:42.000Z</time></trkpt>
        <trkpt lat="28.016722" lon="105.622367"><ele>1090.2</ele><time>2025-11-21T23:27:43.000Z</time></trkpt>
        <trkpt lat="28.016724" lon="105.622367"><ele>1090.2</ele><time>2025-11-21T23:27:44.000Z</time></trkpt>
        <trkpt lat="28.016725" lon="105.622368"><ele>1090.2</ele><time>2025-11-21T23:27:45.000Z</time></trkpt>
        <trkpt lat="28.016726" lon="105.622367"><ele>1090.2</ele><time>2025-11-21T23:27:46.000Z</time></trkpt>
        <trkpt lat="28.016727" lon="105.622368"><ele>1090.4</ele><time>2025-11-21T23:27:47.000Z</time></trkpt>
        <trkpt lat="28.016728" lon="105.622368"><ele>1090.4</ele><time>2025-11-21T23:27:48.000Z</time></trkpt>
        <trkpt lat="28.016728" lon="105.62237"><ele>1090.4</ele><time>2025-11-21T23:27:49.000Z</time></trkpt>
        <trkpt lat="28.016729" lon="105.622372"><ele>1090.4</ele><time>2025-11-21T23:27:50.000Z</time></trkpt>
        <trkpt lat="28.016731" lon="105.622373"><ele>1090.4</ele><time>2025-11-21T23:27:51.000Z</time></trkpt>
        <trkpt lat="28.016733" lon="105.622374"><ele>1090.4</ele><time>2025-11-21T23:27:52.000Z</time></trkpt>
        <trkpt lat="28.016735" lon="105.622374"><ele>1090.4</ele><time>2025-11-21T23:27:53.000Z</time></trkpt>
        <trkpt lat="28.016737" lon="105.622372"><ele>1090.4</ele><time>2025-11-21T23:27:54.000Z</time></trkpt>
        <trkpt lat="28.01674" lon="105.622371"><ele>1090.4</ele><time>2025-11-21T23:27:55.000Z</time></trkpt>
        <trkpt lat="28.016743" lon="105.622369"><ele>1090.4</ele><time>2025-11-21T23:27:56.000Z</time></trkpt>
        <trkpt lat="28.016746" lon="105.622367"><ele>1090.4</ele><time>2025-11-21T23:27:57.000Z</time></trkpt>
        <trkpt lat="28.01675" lon="105.622365"><ele>1090.4</ele><time>2025-11-21T23:27:58.000Z</time></trkpt>
        <trkpt lat="28.016754" lon="105.622362"><ele>1090.4</ele><time>2025-11-21T23:27:59.000Z</time></trkpt>
        <trkpt lat="28.016758" lon="105.622358"><ele>1090.4</ele><time>2025-11-21T23:28:00.000Z</time></trkpt>
        <trkpt lat="28.016762" lon="105.622353"><ele>1090.4</ele><time>2025-11-21T23:28:01.000Z</time></trkpt>
        <trkpt lat="28.016767" lon="105.622348"><ele>1090.7</ele><time>2025-11-21T23:28:02.000Z</time></trkpt>
        <trkpt lat="28.01677" lon="105.622343"><ele>1090.7</ele><time>2025-11-21T23:28:03.000Z</time></trkpt>
        <trkpt lat="28.016775" lon="105.622338"><ele>1090.7</ele><time>2025-11-21T23:28:04.000Z</time></trkpt>
        <trkpt lat="28.016779" lon="105.622335"><ele>1090.7</ele><time>2025-11-21T23:28:05.000Z</time></trkpt>
        <trkpt lat="28.016784" lon="105.622332"><ele>1090.7</ele><time>2025-11-21T23:28:06.000Z</time></trkpt>
        <trkpt lat="28.016789" lon="105.622329"><ele>1091.2</ele><time>2025-11-21T23:28:07.000Z</time></trkpt>
        <trkpt lat="28.016794" lon="105.622326"><ele>1091.2</ele><time>2025-11-21T23:28:08.000Z</time></trkpt>
        <trkpt lat="28.016799" lon="105.622324"><ele>1091.2</ele><time>2025-11-21T23:28:09.000Z</time></trkpt>
        <trkpt lat="28.016802" lon="105.622322"><ele>1091.2</ele><time>2025-11-21T23:28:10.000Z</time></trkpt>
        <trkpt lat="28.016804" lon="105.622318"><ele>1091.2</ele><time>2025-11-21T23:28:11.000Z</time></trkpt>
        <trkpt lat="28.016805" lon="105.622316"><ele>1092.1</ele><time>2025-11-21T23:28:12.000Z</time></trkpt>
        <trkpt lat="28.016807" lon="105.622314"><ele>1092.1</ele><time>2025-11-21T23:28:13.000Z</time></trkpt>
        <trkpt lat="28.016808" lon="105.622313"><ele>1092.1</ele><time>2025-11-21T23:28:14.000Z</time></trkpt>
        <trkpt lat="28.016809" lon="105.62231"><ele>1092.1</ele><time>2025-11-21T23:28:15.000Z</time></trkpt>
        <trkpt lat="28.016812" lon="105.622308"><ele>1092.1</ele><time>2025-11-21T23:28:16.000Z</time></trkpt>
        <trkpt lat="28.016815" lon="105.622304"><ele>1092.6</ele><time>2025-11-21T23:28:17.000Z</time></trkpt>
        <trkpt lat="28.016817" lon="105.6223"><ele>1092.6</ele><time>2025-11-21T23:28:18.000Z</time></trkpt>
        <trkpt lat="28.016821" lon="105.622296"><ele>1092.6</ele><time>2025-11-21T23:28:19.000Z</time></trkpt>
        <trkpt lat="28.016825" lon="105.622293"><ele>1092.6</ele><time>2025-11-21T23:28:20.000Z</time></trkpt>
        <trkpt lat="28.016829" lon="105.622292"><ele>1092.6</ele><time>2025-11-21T23:28:21.000Z</time></trkpt>
        <trkpt lat="28.016832" lon="105.622292"><ele>1093.5</ele><time>2025-11-21T23:28:22.000Z</time></trkpt>
        <trkpt lat="28.016835" lon="105.622292"><ele>1093.5</ele><time>2025-11-21T23:28:23.000Z</time></trkpt>
        <trkpt lat="28.016837" lon="105.622291"><ele>1093.5</ele><time>2025-11-21T23:28:24.000Z</time></trkpt>
        <trkpt lat="28.016839" lon="105.62229"><ele>1093.5</ele><time>2025-11-21T23:28:25.000Z</time></trkpt>
        <trkpt lat="28.016842" lon="105.622288"><ele>1093.5</ele><time>2025-11-21T23:28:26.000Z</time></trkpt>
        <trkpt lat="28.016844" lon="105.622286"><ele>1094.1</ele><time>2025-11-21T23:28:27.000Z</time></trkpt>
        <trkpt lat="28.016849" lon="105.622284"><ele>1094.1</ele><time>2025-11-21T23:28:28.000Z</time></trkpt>
        <trkpt lat="28.016854" lon="105.622282"><ele>1094.1</ele><time>2025-11-21T23:28:29.000Z</time></trkpt>
        <trkpt lat="28.016858" lon="105.622279"><ele>1094.1</ele><time>2025-11-21T23:28:30.000Z</time></trkpt>
        <trkpt lat="28.016863" lon="105.622276"><ele>1094.1</ele><time>2025-11-21T23:28:31.000Z</time></trkpt>
        <trkpt lat="28.016869" lon="105.622272"><ele>1095.1</ele><time>2025-11-21T23:28:32.000Z</time></trkpt>
        <trkpt lat="28.016875" lon="105.622268"><ele>1095.1</ele><time>2025-11-21T23:28:33.000Z</time></trkpt>
        <trkpt lat="28.016879" lon="105.622264"><ele>1095.1</ele><time>2025-11-21T23:28:34.000Z</time></trkpt>
        <trkpt lat="28.016884" lon="105.622259"><ele>1095.1</ele><time>2025-11-21T23:28:35.000Z</time></trkpt>
        <trkpt lat="28.016888" lon="105.622255"><ele>1095.1</ele><time>2025-11-21T23:28:36.000Z</time></trkpt>
        <trkpt lat="28.016893" lon="105.622251"><ele>1095.7</ele><time>2025-11-21T23:28:37.000Z</time></trkpt>
        <trkpt lat="28.016897" lon="105.622246"><ele>1095.7</ele><time>2025-11-21T23:28:38.000Z</time></trkpt>
        <trkpt lat="28.016902" lon="105.622242"><ele>1095.7</ele><time>2025-11-21T23:28:39.000Z</time></trkpt>
        <trkpt lat="28.016909" lon="105.622238"><ele>1095.7</ele><time>2025-11-21T23:28:40.000Z</time></trkpt>
        <trkpt lat="28.016916" lon="105.622233"><ele>1095.7</ele><time>2025-11-21T23:28:41.000Z</time></trkpt>
        <trkpt lat="28.016923" lon="105.622229"><ele>1096.5</ele><time>2025-11-21T23:28:42.000Z</time></trkpt>
        <trkpt lat="28.016931" lon="105.622226"><ele>1096.5</ele><time>2025-11-21T23:28:43.000Z</time></trkpt>
        <trkpt lat="28.016938" lon="105.622224"><ele>1096.5</ele><time>2025-11-21T23:28:44.000Z</time></trkpt>
        <trkpt lat="28.016945" lon="105.622223"><ele>1096.5</ele><time>2025-11-21T23:28:45.000Z</time></trkpt>
        <trkpt lat="28.016951" lon="105.622222"><ele>1096.5</ele><time>2025-11-21T23:28:46.000Z</time></trkpt>
        <trkpt lat="28.016958" lon="105.622222"><ele>1097.1</ele><time>2025-11-21T23:28:47.000Z</time></trkpt>
        <trkpt lat="28.016966" lon="105.622221"><ele>1097.1</ele><time>2025-11-21T23:28:48.000Z</time></trkpt>
        <trkpt lat="28.016974" lon="105.622219"><ele>1097.1</ele><time>2025-11-21T23:28:49.000Z</time></trkpt>
        <trkpt lat="28.016982" lon="105.622218"><ele>1097.1</ele><time>2025-11-21T23:28:50.000Z</time></trkpt>
        <trkpt lat="28.016988" lon="105.622217"><ele>1097.1</ele><time>2025-11-21T23:28:51.000Z</time></trkpt>
        <trkpt lat="28.016994" lon="105.622217"><ele>1098.2</ele><time>2025-11-21T23:28:52.000Z</time></trkpt>
        <trkpt lat="28.017" lon="105.622215"><ele>1098.2</ele><time>2025-11-21T23:28:53.000Z</time></trkpt>
        <trkpt lat="28.017005" lon="105.622216"><ele>1098.2</ele><time>2025-11-21T23:28:54.000Z</time></trkpt>
        <trkpt lat="28.017009" lon="105.622216"><ele>1098.2</ele><time>2025-11-21T23:28:55.000Z</time></trkpt>
        <trkpt lat="28.017015" lon="105.622217"><ele>1098.2</ele><time>2025-11-21T23:28:56.000Z</time></trkpt>
        <trkpt lat="28.01702" lon="105.622216"><ele>1099.2</ele><time>2025-11-21T23:28:57.000Z</time></trkpt>
        <trkpt lat="28.017023" lon="105.622217"><ele>1099.2</ele><time>2025-11-21T23:28:58.000Z</time></trkpt>
        <trkpt lat="28.017025" lon="105.622216"><ele>1099.2</ele><time>2025-11-21T23:28:59.000Z</time></trkpt>
        <trkpt lat="28.017026" lon="105.622213"><ele>1099.2</ele><time>2025-11-21T23:29:00.000Z</time></trkpt>
        <trkpt lat="28.017026" lon="105.62221"><ele>1099.2</ele><time>2025-11-21T23:29:01.000Z</time></trkpt>
        <trkpt lat="28.017024" lon="105.622206"><ele>1100.2</ele><time>2025-11-21T23:29:02.000Z</time></trkpt>
        <trkpt lat="28.017023" lon="105.622202"><ele>1100.2</ele><time>2025-11-21T23:29:03.000Z</time></trkpt>
        <trkpt lat="28.017022" lon="105.622197"><ele>1100.2</ele><time>2025-11-21T23:29:04.000Z</time></trkpt>
        <trkpt lat="28.017021" lon="105.622193"><ele>1100.2</ele><time>2025-11-21T23:29:05.000Z</time></trkpt>
        <trkpt lat="28.017021" lon="105.622189"><ele>1100.2</ele><time>2025-11-21T23:29:06.000Z</time></trkpt>
        <trkpt lat="28.017021" lon="105.622186"><ele>1101</ele><time>2025-11-21T23:29:07.000Z</time></trkpt>
        <trkpt lat="28.017021" lon="105.622183"><ele>1101</ele><time>2025-11-21T23:29:08.000Z</time></trkpt>
        <trkpt lat="28.017022" lon="105.622181"><ele>1101</ele><time>2025-11-21T23:29:09.000Z</time></trkpt>
        <trkpt lat="28.017024" lon="105.622179"><ele>1101</ele><time>2025-11-21T23:29:10.000Z</time></trkpt>
        <trkpt lat="28.017025" lon="105.622176"><ele>1101</ele><time>2025-11-21T23:29:11.000Z</time></trkpt>
        <trkpt lat="28.017028" lon="105.622174"><ele>1101.9</ele><time>2025-11-21T23:29:12.000Z</time></trkpt>
        <trkpt lat="28.017031" lon="105.622172"><ele>1101.9</ele><time>2025-11-21T23:29:13.000Z</time></trkpt>
        <trkpt lat="28.017034" lon="105.62217"><ele>1101.9</ele><time>2025-11-21T23:29:14.000Z</time></trkpt>
        <trkpt lat="28.017038" lon="105.622168"><ele>1101.9</ele><time>2025-11-21T23:29:15.000Z</time></trkpt>
        <trkpt lat="28.017042" lon="105.622167"><ele>1101.9</ele><time>2025-11-21T23:29:16.000Z</time></trkpt>
        <trkpt lat="28.017046" lon="105.622165"><ele>1102.7</ele><time>2025-11-21T23:29:17.000Z</time></trkpt>
        <trkpt lat="28.017049" lon="105.622164"><ele>1102.7</ele><time>2025-11-21T23:29:18.000Z</time></trkpt>
        <trkpt lat="28.017053" lon="105.622161"><ele>1102.7</ele><time>2025-11-21T23:29:19.000Z</time></trkpt>
        <trkpt lat="28.017057" lon="105.622159"><ele>1102.7</ele><time>2025-11-21T23:29:20.000Z</time></trkpt>
        <trkpt lat="28.017061" lon="105.622156"><ele>1102.7</ele><time>2025-11-21T23:29:21.000Z</time></trkpt>
        <trkpt lat="28.017065" lon="105.622153"><ele>1103.5</ele><time>2025-11-21T23:29:22.000Z</time></trkpt>
        <trkpt lat="28.01707" lon="105.62215"><ele>1103.5</ele><time>2025-11-21T23:29:23.000Z</time></trkpt>
        <trkpt lat="28.017075" lon="105.622148"><ele>1103.5</ele><time>2025-11-21T23:29:24.000Z</time></trkpt>
        <trkpt lat="28.01708" lon="105.622146"><ele>1103.5</ele><time>2025-11-21T23:29:25.000Z</time></trkpt>
        <trkpt lat="28.017085" lon="105.622143"><ele>1103.5</ele><time>2025-11-21T23:29:26.000Z</time></trkpt>
        <trkpt lat="28.01709" lon="105.622138"><ele>1104.2</ele><time>2025-11-21T23:29:27.000Z</time></trkpt>
        <trkpt lat="28.017094" lon="105.622133"><ele>1104.2</ele><time>2025-11-21T23:29:28.000Z</time></trkpt>
        <trkpt lat="28.0171" lon="105.622127"><ele>1104.2</ele><time>2025-11-21T23:29:29.000Z</time></trkpt>
        <trkpt lat="28.017106" lon="105.622122"><ele>1104.2</ele><time>2025-11-21T23:29:30.000Z</time></trkpt>
        <trkpt lat="28.017112" lon="105.622117"><ele>1104.2</ele><time>2025-11-21T23:29:31.000Z</time></trkpt>
        <trkpt lat="28.017118" lon="105.622113"><ele>1105.2</ele><time>2025-11-21T23:29:32.000Z</time></trkpt>
        <trkpt lat="28.017124" lon="105.62211"><ele>1105.2</ele><time>2025-11-21T23:29:33.000Z</time></trkpt>
        <trkpt lat="28.017131" lon="105.622107"><ele>1105.2</ele><time>2025-11-21T23:29:34.000Z</time></trkpt>
        <trkpt lat="28.017138" lon="105.622104"><ele>1105.2</ele><time>2025-11-21T23:29:35.000Z</time></trkpt>
        <trkpt lat="28.017147" lon="105.622101"><ele>1105.2</ele><time>2025-11-21T23:29:36.000Z</time></trkpt>
        <trkpt lat="28.017156" lon="105.622098"><ele>1105.8</ele><time>2025-11-21T23:29:37.000Z</time></trkpt>
        <trkpt lat="28.017166" lon="105.622095"><ele>1105.8</ele><time>2025-11-21T23:29:38.000Z</time></trkpt>
        <trkpt lat="28.017176" lon="105.622091"><ele>1105.8</ele><time>2025-11-21T23:29:39.000Z</time></trkpt>
        <trkpt lat="28.017184" lon="105.622087"><ele>1105.8</ele><time>2025-11-21T23:29:40.000Z</time></trkpt>
        <trkpt lat="28.017192" lon="105.622083"><ele>1105.8</ele><time>2025-11-21T23:29:41.000Z</time></trkpt>
        <trkpt lat="28.017197" lon="105.622081"><ele>1106.6</ele><time>2025-11-21T23:29:42.000Z</time></trkpt>
        <trkpt lat="28.017202" lon="105.62208"><ele>1106.6</ele><time>2025-11-21T23:29:43.000Z</time></trkpt>
        <trkpt lat="28.017206" lon="105.62208"><ele>1106.6</ele><time>2025-11-21T23:29:44.000Z</time></trkpt>
        <trkpt lat="28.017211" lon="105.622081"><ele>1106.6</ele><time>2025-11-21T23:29:45.000Z</time></trkpt>
        <trkpt lat="28.017215" lon="105.622081"><ele>1106.6</ele><time>2025-11-21T23:29:46.000Z</time></trkpt>
        <trkpt lat="28.01722" lon="105.622082"><ele>1107.2</ele><time>2025-11-21T23:29:47.000Z</time></trkpt>
        <trkpt lat="28.017226" lon="105.622081"><ele>1107.2</ele><time>2025-11-21T23:29:48.000Z</time></trkpt>
        <trkpt lat="28.017231" lon="105.622081"><ele>1107.2</ele><time>2025-11-21T23:29:49.000Z</time></trkpt>
        <trkpt lat="28.017237" lon="105.62208"><ele>1107.2</ele><time>2025-11-21T23:29:50.000Z</time></trkpt>
        <trkpt lat="28.017243" lon="105.622079"><ele>1107.2</ele><time>2025-11-21T23:29:51.000Z</time></trkpt>
        <trkpt lat="28.017249" lon="105.622079"><ele>1107.9</ele><time>2025-11-21T23:29:52.000Z</time></trkpt>
        <trkpt lat="28.017255" lon="105.622079"><ele>1107.9</ele><time>2025-11-21T23:29:53.000Z</time></trkpt>
        <trkpt lat="28.017261" lon="105.62208"><ele>1107.9</ele><time>2025-11-21T23:29:54.000Z</time></trkpt>
        <trkpt lat="28.017266" lon="105.622081"><ele>1107.9</ele><time>2025-11-21T23:29:55.000Z</time></trkpt>
        <trkpt lat="28.017272" lon="105.622083"><ele>1107.9</ele><time>2025-11-21T23:29:56.000Z</time></trkpt>
        <trkpt lat="28.017277" lon="105.622085"><ele>1108.4</ele><time>2025-11-21T23:29:57.000Z</time></trkpt>
        <trkpt lat="28.017282" lon="105.622086"><ele>1108.4</ele><time>2025-11-21T23:29:58.000Z</time></trkpt>
        <trkpt lat="28.017287" lon="105.622086"><ele>1108.4</ele><time>2025-11-21T23:29:59.000Z</time></trkpt>
        <trkpt lat="28.017292" lon="105.622085"><ele>1108.4</ele><time>2025-11-21T23:30:00.000Z</time></trkpt>
        <trkpt lat="28.017297" lon="105.622084"><ele>1108.4</ele><time>2025-11-21T23:30:01.000Z</time></trkpt>
        <trkpt lat="28.017303" lon="105.622082"><ele>1109.2</ele><time>2025-11-21T23:30:02.000Z</time></trkpt>
        <trkpt lat="28.017309" lon="105.622078"><ele>1109.2</ele><time>2025-11-21T23:30:03.000Z</time></trkpt>
        <trkpt lat="28.017316" lon="105.622075"><ele>1109.2</ele><time>2025-11-21T23:30:04.000Z</time></trkpt>
        <trkpt lat="28.017323" lon="105.622071"><ele>1109.2</ele><time>2025-11-21T23:30:05.000Z</time></trkpt>
        <trkpt lat="28.01733" lon="105.622068"><ele>1109.2</ele><time>2025-11-21T23:30:06.000Z</time></trkpt>
        <trkpt lat="28.017336" lon="105.622065"><ele>1109.6</ele><time>2025-11-21T23:30:07.000Z</time></trkpt>
        <trkpt lat="28.017342" lon="105.622063"><ele>1109.6</ele><time>2025-11-21T23:30:08.000Z</time></trkpt>
        <trkpt lat="28.017346" lon="105.622062"><ele>1109.6</ele><time>2025-11-21T23:30:09.000Z</time></trkpt>
        <trkpt lat="28.017349" lon="105.622061"><ele>1109.6</ele><time>2025-11-21T23:30:10.000Z</time></trkpt>
        <trkpt lat="28.017351" lon="105.622059"><ele>1109.6</ele><time>2025-11-21T23:30:11.000Z</time></trkpt>
        <trkpt lat="28.017352" lon="105.622058"><ele>1109.6</ele><time>2025-11-21T23:30:12.000Z</time></trkpt>
        <trkpt lat="28.017352" lon="105.622057"><ele>1109.6</ele><time>2025-11-21T23:30:13.000Z</time></trkpt>
        <trkpt lat="28.017352" lon="105.622057"><ele>1109.6</ele><time>2025-11-21T23:30:14.000Z</time></trkpt>
        <trkpt lat="28.017352" lon="105.622056"><ele>1109.6</ele><time>2025-11-21T23:30:15.000Z</time></trkpt>
        <trkpt lat="28.017351" lon="105.622056"><ele>1109.6</ele><time>2025-11-21T23:30:16.000Z</time></trkpt>
        <trkpt lat="28.017351" lon="105.622055"><ele>1109.4</ele><time>2025-11-21T23:30:17.000Z</time></trkpt>
        <trkpt lat="28.017351" lon="105.622054"><ele>1109.4</ele><time>2025-11-21T23:30:18.000Z</time></trkpt>
        <trkpt lat="28.017351" lon="105.622053"><ele>1109.4</ele><time>2025-11-21T23:30:19.000Z</time></trkpt>
        <trkpt lat="28.017352" lon="105.622051"><ele>1109.4</ele><time>2025-11-21T23:30:20.000Z</time></trkpt>
        <trkpt lat="28.017352" lon="105.62205"><ele>1109.4</ele><time>2025-11-21T23:30:21.000Z</time></trkpt>
        <trkpt lat="28.017352" lon="105.622049"><ele>1108.9</ele><time>2025-11-21T23:30:22.000Z</time></trkpt>
        <trkpt lat="28.017352" lon="105.622049"><ele>1108.9</ele><time>2025-11-21T23:30:23.000Z</time></trkpt>
        <trkpt lat="28.017353" lon="105.622048"><ele>1108.9</ele><time>2025-11-21T23:30:24.000Z</time></trkpt>
        <trkpt lat="28.017355" lon="105.622048"><ele>1108.9</ele><time>2025-11-21T23:30:25.000Z</time></trkpt>
        <trkpt lat="28.017356" lon="105.622046"><ele>1108.9</ele><time>2025-11-21T23:30:26.000Z</time></trkpt>
        <trkpt lat="28.017357" lon="105.622045"><ele>1108.6</ele><time>2025-11-21T23:30:27.000Z</time></trkpt>
        <trkpt lat="28.017358" lon="105.622044"><ele>1108.6</ele><time>2025-11-21T23:30:28.000Z</time></trkpt>
        <trkpt lat="28.017358" lon="105.622044"><ele>1108.6</ele><time>2025-11-21T23:30:29.000Z</time></trkpt>
        <trkpt lat="28.017357" lon="105.622043"><ele>1108.6</ele><time>2025-11-21T23:30:30.000Z</time></trkpt>
        <trkpt lat="28.017357" lon="105.622043"><ele>1108.6</ele><time>2025-11-21T23:30:31.000Z</time></trkpt>
        <trkpt lat="28.017357" lon="105.622044"><ele>1108.1</ele><time>2025-11-21T23:30:32.000Z</time></trkpt>
        <trkpt lat="28.017358" lon="105.622044"><ele>1108.1</ele><time>2025-11-21T23:30:33.000Z</time></trkpt>
        <trkpt lat="28.017358" lon="105.622044"><ele>1108.1</ele><time>2025-11-21T23:30:34.000Z</time></trkpt>
        <trkpt lat="28.017358" lon="105.622044"><ele>1108.1</ele><time>2025-11-21T23:30:35.000Z</time></trkpt>
        <trkpt lat="28.017358" lon="105.622044"><ele>1108.1</ele><time>2025-11-21T23:30:36.000Z</time></trkpt>
        <trkpt lat="28.017359" lon="105.622044"><ele>1107.6</ele><time>2025-11-21T23:30:37.000Z</time></trkpt>
        <trkpt lat="28.01736" lon="105.622043"><ele>1107.6</ele><time>2025-11-21T23:30:38.000Z</time></trkpt>
        <trkpt lat="28.017361" lon="105.622043"><ele>1107.6</ele><time>2025-11-21T23:30:39.000Z</time></trkpt>
        <trkpt lat="28.017363" lon="105.622043"><ele>1107.6</ele><time>2025-11-21T23:30:40.000Z</time></trkpt>
        <trkpt lat="28.017365" lon="105.622043"><ele>1107.6</ele><time>2025-11-21T23:30:41.000Z</time></trkpt>
        <trkpt lat="28.017368" lon="105.622043"><ele>1107.2</ele><time>2025-11-21T23:30:42.000Z</time></trkpt>
        <trkpt lat="28.017371" lon="105.622044"><ele>1107.2</ele><time>2025-11-21T23:30:43.000Z</time></trkpt>
        <trkpt lat="28.017376" lon="105.622045"><ele>1107.2</ele><time>2025-11-21T23:30:44.000Z</time></trkpt>
        <trkpt lat="28.01738" lon="105.622046"><ele>1107.2</ele><time>2025-11-21T23:30:45.000Z</time></trkpt>
        <trkpt lat="28.017385" lon="105.622047"><ele>1107.2</ele><time>2025-11-21T23:30:46.000Z</time></trkpt>
        <trkpt lat="28.01739" lon="105.622045"><ele>1106.7</ele><time>2025-11-21T23:30:47.000Z</time></trkpt>
        <trkpt lat="28.017394" lon="105.622042"><ele>1106.7</ele><time>2025-11-21T23:30:48.000Z</time></trkpt>
        <trkpt lat="28.017396" lon="105.622038"><ele>1106.7</ele><time>2025-11-21T23:30:49.000Z</time></trkpt>
        <trkpt lat="28.017398" lon="105.622033"><ele>1106.7</ele><time>2025-11-21T23:30:50.000Z</time></trkpt>
        <trkpt lat="28.0174" lon="105.622026"><ele>1106.7</ele><time>2025-11-21T23:30:51.000Z</time></trkpt>
        <trkpt lat="28.017403" lon="105.622019"><ele>1106.2</ele><time>2025-11-21T23:30:52.000Z</time></trkpt>
        <trkpt lat="28.017405" lon="105.622014"><ele>1106.2</ele><time>2025-11-21T23:30:53.000Z</time></trkpt>
        <trkpt lat="28.017408" lon="105.622009"><ele>1106.2</ele><time>2025-11-21T23:30:54.000Z</time></trkpt>
        <trkpt lat="28.017412" lon="105.622006"><ele>1106.2</ele><time>2025-11-21T23:30:55.000Z</time></trkpt>
        <trkpt lat="28.017414" lon="105.622004"><ele>1106.2</ele><time>2025-11-21T23:30:56.000Z</time></trkpt>
        <trkpt lat="28.017416" lon="105.622003"><ele>1105.2</ele><time>2025-11-21T23:30:57.000Z</time></trkpt>
        <trkpt lat="28.017418" lon="105.622002"><ele>1105.2</ele><time>2025-11-21T23:30:58.000Z</time></trkpt>
        <trkpt lat="28.01742" lon="105.622003"><ele>1105.2</ele><time>2025-11-21T23:30:59.000Z</time></trkpt>
        <trkpt lat="28.017423" lon="105.622003"><ele>1105.2</ele><time>2025-11-21T23:31:00.000Z</time></trkpt>
        <trkpt lat="28.017427" lon="105.622003"><ele>1105.2</ele><time>2025-11-21T23:31:01.000Z</time></trkpt>
        <trkpt lat="28.017431" lon="105.622002"><ele>1104.2</ele><time>2025-11-21T23:31:02.000Z</time></trkpt>
        <trkpt lat="28.017436" lon="105.622001"><ele>1104.2</ele><time>2025-11-21T23:31:03.000Z</time></trkpt>
        <trkpt lat="28.01744" lon="105.621999"><ele>1104.2</ele><time>2025-11-21T23:31:04.000Z</time></trkpt>
        <trkpt lat="28.017446" lon="105.621998"><ele>1104.2</ele><time>2025-11-21T23:31:05.000Z</time></trkpt>
        <trkpt lat="28.017453" lon="105.621996"><ele>1104.2</ele><time>2025-11-21T23:31:06.000Z</time></trkpt>
        <trkpt lat="28.017459" lon="105.621994"><ele>1103.4</ele><time>2025-11-21T23:31:07.000Z</time></trkpt>
        <trkpt lat="28.017465" lon="105.621993"><ele>1103.4</ele><time>2025-11-21T23:31:08.000Z</time></trkpt>
        <trkpt lat="28.01747" lon="105.621992"><ele>1103.4</ele><time>2025-11-21T23:31:09.000Z</time></trkpt>
        <trkpt lat="28.017474" lon="105.62199"><ele>1103.4</ele><time>2025-11-21T23:31:10.000Z</time></trkpt>
        <trkpt lat="28.017475" lon="105.621989"><ele>1103.4</ele><time>2025-11-21T23:31:11.000Z</time></trkpt>
        <trkpt lat="28.017477" lon="105.621987"><ele>1102.3</ele><time>2025-11-21T23:31:12.000Z</time></trkpt>
        <trkpt lat="28.017478" lon="105.621986"><ele>1102.3</ele><time>2025-11-21T23:31:13.000Z</time></trkpt>
        <trkpt lat="28.01748" lon="105.621985"><ele>1102.3</ele><time>2025-11-21T23:31:14.000Z</time></trkpt>
        <trkpt lat="28.017484" lon="105.621986"><ele>1102.3</ele><time>2025-11-21T23:31:15.000Z</time></trkpt>
        <trkpt lat="28.017489" lon="105.621987"><ele>1102.3</ele><time>2025-11-21T23:31:16.000Z</time></trkpt>
        <trkpt lat="28.017493" lon="105.621989"><ele>1101.6</ele><time>2025-11-21T23:31:17.000Z</time></trkpt>
        <trkpt lat="28.017497" lon="105.62199"><ele>1101.6</ele><time>2025-11-21T23:31:18.000Z</time></trkpt>
        <trkpt lat="28.017501" lon="105.621989"><ele>1101.6</ele><time>2025-11-21T23:31:19.000Z</time></trkpt>
        <trkpt lat="28.017505" lon="105.621988"><ele>1101.6</ele><time>2025-11-21T23:31:20.000Z</time></trkpt>
        <trkpt lat="28.01751" lon="105.621988"><ele>1101.6</ele><time>2025-11-21T23:31:21.000Z</time></trkpt>
        <trkpt lat="28.017514" lon="105.621986"><ele>1100.7</ele><time>2025-11-21T23:31:22.000Z</time></trkpt>
        <trkpt lat="28.01752" lon="105.621986"><ele>1100.7</ele><time>2025-11-21T23:31:23.000Z</time></trkpt>
        <trkpt lat="28.017525" lon="105.621988"><ele>1100.7</ele><time>2025-11-21T23:31:24.000Z</time></trkpt>
        <trkpt lat="28.01753" lon="105.62199"><ele>1100.7</ele><time>2025-11-21T23:31:25.000Z</time></trkpt>
        <trkpt lat="28.017534" lon="105.621992"><ele>1100.7</ele><time>2025-11-21T23:31:26.000Z</time></trkpt>
        <trkpt lat="28.017536" lon="105.621993"><ele>1100.1</ele><time>2025-11-21T23:31:27.000Z</time></trkpt>
        <trkpt lat="28.017537" lon="105.621993"><ele>1100.1</ele><time>2025-11-21T23:31:28.000Z</time></trkpt>
        <trkpt lat="28.017539" lon="105.621994"><ele>1100.1</ele><time>2025-11-21T23:31:29.000Z</time></trkpt>
        <trkpt lat="28.017541" lon="105.621994"><ele>1100.1</ele><time>2025-11-21T23:31:30.000Z</time></trkpt>
        <trkpt lat="28.017542" lon="105.621994"><ele>1100.1</ele><time>2025-11-21T23:31:31.000Z</time></trkpt>
        <trkpt lat="28.017543" lon="105.621995"><ele>1099</ele><time>2025-11-21T23:31:32.000Z</time></trkpt>
        <trkpt lat="28.017545" lon="105.621995"><ele>1099</ele><time>2025-11-21T23:31:33.000Z</time></trkpt>
        <trkpt lat="28.017548" lon="105.621995"><ele>1099</ele><time>2025-11-21T23:31:34.000Z</time></trkpt>
        <trkpt lat="28.017551" lon="105.621995"><ele>1099</ele><time>2025-11-21T23:31:35.000Z</time></trkpt>
        <trkpt lat="28.017556" lon="105.621996"><ele>1099</ele><time>2025-11-21T23:31:36.000Z</time></trkpt>
        <trkpt lat="28.017562" lon="105.621996"><ele>1097.9</ele><time>2025-11-21T23:31:37.000Z</time></trkpt>
        <trkpt lat="28.017568" lon="105.621996"><ele>1097.9</ele><time>2025-11-21T23:31:38.000Z</time></trkpt>
        <trkpt lat="28.017573" lon="105.621996"><ele>1097.9</ele><time>2025-11-21T23:31:39.000Z</time></trkpt>
        <trkpt lat="28.017578" lon="105.621996"><ele>1097.9</ele><time>2025-11-21T23:31:40.000Z</time></trkpt>
        <trkpt lat="28.017581" lon="105.621996"><ele>1097.9</ele><time>2025-11-21T23:31:41.000Z</time></trkpt>
        <trkpt lat="28.017584" lon="105.621995"><ele>1096.9</ele><time>2025-11-21T23:31:42.000Z</time></trkpt>
        <trkpt lat="28.017585" lon="105.621995"><ele>1096.9</ele><time>2025-11-21T23:31:43.000Z</time></trkpt>
        <trkpt lat="28.017586" lon="105.621997"><ele>1096.9</ele><time>2025-11-21T23:31:44.000Z</time></trkpt>
        <trkpt lat="28.017585" lon="105.622"><ele>1096.9</ele><time>2025-11-21T23:31:45.000Z</time></trkpt>
        <trkpt lat="28.017585" lon="105.622003"><ele>1096.9</ele><time>2025-11-21T23:31:46.000Z</time></trkpt>
        <trkpt lat="28.017585" lon="105.622007"><ele>1095.9</ele><time>2025-11-21T23:31:47.000Z</time></trkpt>
        <trkpt lat="28.017585" lon="105.62201"><ele>1095.9</ele><time>2025-11-21T23:31:48.000Z</time></trkpt>
        <trkpt lat="28.017587" lon="105.622011"><ele>1095.9</ele><time>2025-11-21T23:31:49.000Z</time></trkpt>
        <trkpt lat="28.01759" lon="105.622011"><ele>1095.9</ele><time>2025-11-21T23:31:50.000Z</time></trkpt>
        <trkpt lat="28.017594" lon="105.622009"><ele>1095.9</ele><time>2025-11-21T23:31:51.000Z</time></trkpt>
        <trkpt lat="28.017599" lon="105.622007"><ele>1094.9</ele><time>2025-11-21T23:31:52.000Z</time></trkpt>
        <trkpt lat="28.017606" lon="105.622006"><ele>1094.9</ele><time>2025-11-21T23:31:53.000Z</time></trkpt>
        <trkpt lat="28.017613" lon="105.622004"><ele>1094.9</ele><time>2025-11-21T23:31:54.000Z</time></trkpt>
        <trkpt lat="28.017621" lon="105.622003"><ele>1094.9</ele><time>2025-11-21T23:31:55.000Z</time></trkpt>
        <trkpt lat="28.017628" lon="105.622001"><ele>1094.9</ele><time>2025-11-21T23:31:56.000Z</time></trkpt>
        <trkpt lat="28.017635" lon="105.622001"><ele>1093.9</ele><time>2025-11-21T23:31:57.000Z</time></trkpt>
        <trkpt lat="28.017641" lon="105.622003"><ele>1093.9</ele><time>2025-11-21T23:31:58.000Z</time></trkpt>
        <trkpt lat="28.017644" lon="105.622005"><ele>1093.9</ele><time>2025-11-21T23:31:59.000Z</time></trkpt>
        <trkpt lat="28.017646" lon="105.622009"><ele>1093.9</ele><time>2025-11-21T23:32:00.000Z</time></trkpt>
        <trkpt lat="28.017648" lon="105.622014"><ele>1093.9</ele><time>2025-11-21T23:32:01.000Z</time></trkpt>
        <trkpt lat="28.017649" lon="105.62202"><ele>1092.7</ele><time>2025-11-21T23:32:02.000Z</time></trkpt>
        <trkpt lat="28.01765" lon="105.622025"><ele>1092.7</ele><time>2025-11-21T23:32:03.000Z</time></trkpt>
        <trkpt lat="28.017653" lon="105.62203"><ele>1092.7</ele><time>2025-11-21T23:32:04.000Z</time></trkpt>
        <trkpt lat="28.017656" lon="105.622033"><ele>1092.7</ele><time>2025-11-21T23:32:05.000Z</time></trkpt>
        <trkpt lat="28.01766" lon="105.622036"><ele>1092.7</ele><time>2025-11-21T23:32:06.000Z</time></trkpt>
        <trkpt lat="28.017666" lon="105.622037"><ele>1091.5</ele><time>2025-11-21T23:32:07.000Z</time></trkpt>
        <trkpt lat="28.017671" lon="105.622037"><ele>1091.5</ele><time>2025-11-21T23:32:08.000Z</time></trkpt>
        <trkpt lat="28.017676" lon="105.622035"><ele>1091.5</ele><time>2025-11-21T23:32:09.000Z</time></trkpt>
        <trkpt lat="28.01768" lon="105.622032"><ele>1091.5</ele><time>2025-11-21T23:32:10.000Z</time></trkpt>
        <trkpt lat="28.017684" lon="105.622029"><ele>1091.5</ele><time>2025-11-21T23:32:11.000Z</time></trkpt>
        <trkpt lat="28.017686" lon="105.622026"><ele>1090.1</ele><time>2025-11-21T23:32:12.000Z</time></trkpt>
        <trkpt lat="28.017688" lon="105.622022"><ele>1090.1</ele><time>2025-11-21T23:32:13.000Z</time></trkpt>
        <trkpt lat="28.01769" lon="105.622018"><ele>1090.1</ele><time>2025-11-21T23:32:14.000Z</time></trkpt>
        <trkpt lat="28.017691" lon="105.622016"><ele>1090.1</ele><time>2025-11-21T23:32:15.000Z</time></trkpt>
        <trkpt lat="28.017694" lon="105.622013"><ele>1090.1</ele><time>2025-11-21T23:32:16.000Z</time></trkpt>
        <trkpt lat="28.017697" lon="105.62201"><ele>1088.7</ele><time>2025-11-21T23:32:17.000Z</time></trkpt>
        <trkpt lat="28.017702" lon="105.622008"><ele>1088.7</ele><time>2025-11-21T23:32:18.000Z</time></trkpt>
        <trkpt lat="28.017707" lon="105.622007"><ele>1088.7</ele><time>2025-11-21T23:32:19.000Z</time></trkpt>
        <trkpt lat="28.017712" lon="105.622005"><ele>1088.7</ele><time>2025-11-21T23:32:20.000Z</time></trkpt>
        <trkpt lat="28.017716" lon="105.622004"><ele>1088.7</ele><time>2025-11-21T23:32:21.000Z</time></trkpt>
        <trkpt lat="28.017721" lon="105.622003"><ele>1087.3</ele><time>2025-11-21T23:32:22.000Z</time></trkpt>
        <trkpt lat="28.017724" lon="105.622002"><ele>1087.3</ele><time>2025-11-21T23:32:23.000Z</time></trkpt>
        <trkpt lat="28.017728" lon="105.622"><ele>1087.3</ele><time>2025-11-21T23:32:24.000Z</time></trkpt>
        <trkpt lat="28.017733" lon="105.621996"><ele>1087.3</ele><time>2025-11-21T23:32:25.000Z</time></trkpt>
        <trkpt lat="28.017737" lon="105.621992"><ele>1087.3</ele><time>2025-11-21T23:32:26.000Z</time></trkpt>
        <trkpt lat="28.017741" lon="105.621988"><ele>1085.9</ele><time>2025-11-21T23:32:27.000Z</time></trkpt>
        <trkpt lat="28.017746" lon="105.621985"><ele>1085.9</ele><time>2025-11-21T23:32:28.000Z</time></trkpt>
        <trkpt lat="28.01775" lon="105.621981"><ele>1085.9</ele><time>2025-11-21T23:32:29.000Z</time></trkpt>
        <trkpt lat="28.017756" lon="105.621977"><ele>1085.9</ele><time>2025-11-21T23:32:30.000Z</time></trkpt>
        <trkpt lat="28.017763" lon="105.621973"><ele>1085.9</ele><time>2025-11-21T23:32:31.000Z</time></trkpt>
        <trkpt lat="28.01777" lon="105.621968"><ele>1084.5</ele><time>2025-11-21T23:32:32.000Z</time></trkpt>
        <trkpt lat="28.017778" lon="105.621963"><ele>1084.5</ele><time>2025-11-21T23:32:33.000Z</time></trkpt>
        <trkpt lat="28.017787" lon="105.621958"><ele>1084.5</ele><time>2025-11-21T23:32:34.000Z</time></trkpt>
        <trkpt lat="28.017797" lon="105.621953"><ele>1084.5</ele><time>2025-11-21T23:32:35.000Z</time></trkpt>
        <trkpt lat="28.017806" lon="105.621948"><ele>1084.5</ele><time>2025-11-21T23:32:36.000Z</time></trkpt>
        <trkpt lat="28.017815" lon="105.621942"><ele>1083.2</ele><time>2025-11-21T23:32:37.000Z</time></trkpt>
        <trkpt lat="28.017824" lon="105.621937"><ele>1083.2</ele><time>2025-11-21T23:32:38.000Z</time></trkpt>
        <trkpt lat="28.017833" lon="105.621931"><ele>1083.2</ele><time>2025-11-21T23:32:39.000Z</time></trkpt>
        <trkpt lat="28.017843" lon="105.621927"><ele>1083.2</ele><time>2025-11-21T23:32:40.000Z</time></trkpt>
        <trkpt lat="28.017851" lon="105.621923"><ele>1083.2</ele><time>2025-11-21T23:32:41.000Z</time></trkpt>
        <trkpt lat="28.017861" lon="105.621919"><ele>1082.2</ele><time>2025-11-21T23:32:42.000Z</time></trkpt>
        <trkpt lat="28.017871" lon="105.621916"><ele>1082.2</ele><time>2025-11-21T23:32:43.000Z</time></trkpt>
        <trkpt lat="28.017881" lon="105.621912"><ele>1082.2</ele><time>2025-11-21T23:32:44.000Z</time></trkpt>
        <trkpt lat="28.01789" lon="105.621909"><ele>1082.2</ele><time>2025-11-21T23:32:45.000Z</time></trkpt>
        <trkpt lat="28.017899" lon="105.621905"><ele>1082.2</ele><time>2025-11-21T23:32:46.000Z</time></trkpt>
        <trkpt lat="28.017907" lon="105.621903"><ele>1081.5</ele><time>2025-11-21T23:32:47.000Z</time></trkpt>
        <trkpt lat="28.017915" lon="105.621901"><ele>1081.5</ele><time>2025-11-21T23:32:48.000Z</time></trkpt>
        <trkpt lat="28.017922" lon="105.621899"><ele>1081.5</ele><time>2025-11-21T23:32:49.000Z</time></trkpt>
        <trkpt lat="28.01793" lon="105.621898"><ele>1081.5</ele><time>2025-11-21T23:32:50.000Z</time></trkpt>
        <trkpt lat="28.017938" lon="105.621896"><ele>1081.5</ele><time>2025-11-21T23:32:51.000Z</time></trkpt>
        <trkpt lat="28.017946" lon="105.621894"><ele>1080.7</ele><time>2025-11-21T23:32:52.000Z</time></trkpt>
        <trkpt lat="28.017955" lon="105.621892"><ele>1080.7</ele><time>2025-11-21T23:32:53.000Z</time></trkpt>
        <trkpt lat="28.017964" lon="105.62189"><ele>1080.7</ele><time>2025-11-21T23:32:54.000Z</time></trkpt>
        <trkpt lat="28.017975" lon="105.621889"><ele>1080.7</ele><time>2025-11-21T23:32:55.000Z</time></trkpt>
        <trkpt lat="28.017984" lon="105.621889"><ele>1080.7</ele><time>2025-11-21T23:32:56.000Z</time></trkpt>
        <trkpt lat="28.017991" lon="105.62189"><ele>1080.1</ele><time>2025-11-21T23:32:57.000Z</time></trkpt>
        <trkpt lat="28.017998" lon="105.62189"><ele>1080.1</ele><time>2025-11-21T23:32:58.000Z</time></trkpt>
        <trkpt lat="28.018005" lon="105.621892"><ele>1080.1</ele><time>2025-11-21T23:32:59.000Z</time></trkpt>
        <trkpt lat="28.01801" lon="105.621894"><ele>1080.1</ele><time>2025-11-21T23:33:00.000Z</time></trkpt>
        <trkpt lat="28.018017" lon="105.621895"><ele>1080.1</ele><time>2025-11-21T23:33:01.000Z</time></trkpt>
        <trkpt lat="28.018025" lon="105.621895"><ele>1079.1</ele><time>2025-11-21T23:33:02.000Z</time></trkpt>
        <trkpt lat="28.018034" lon="105.621895"><ele>1079.1</ele><time>2025-11-21T23:33:03.000Z</time></trkpt>
        <trkpt lat="28.018044" lon="105.621897"><ele>1079.1</ele><time>2025-11-21T23:33:04.000Z</time></trkpt>
        <trkpt lat="28.018053" lon="105.621898"><ele>1079.1</ele><time>2025-11-21T23:33:05.000Z</time></trkpt>
        <trkpt lat="28.018062" lon="105.621899"><ele>1079.1</ele><time>2025-11-21T23:33:06.000Z</time></trkpt>
        <trkpt lat="28.01807" lon="105.621901"><ele>1078.5</ele><time>2025-11-21T23:33:07.000Z</time></trkpt>
        <trkpt lat="28.018077" lon="105.621902"><ele>1078.5</ele><time>2025-11-21T23:33:08.000Z</time></trkpt>
        <trkpt lat="28.018084" lon="105.621903"><ele>1078.5</ele><time>2025-11-21T23:33:09.000Z</time></trkpt>
        <trkpt lat="28.01809" lon="105.621903"><ele>1078.5</ele><time>2025-11-21T23:33:10.000Z</time></trkpt>
        <trkpt lat="28.018095" lon="105.621903"><ele>1078.5</ele><time>2025-11-21T23:33:11.000Z</time></trkpt>
        <trkpt lat="28.018099" lon="105.621902"><ele>1077.6</ele><time>2025-11-21T23:33:12.000Z</time></trkpt>
        <trkpt lat="28.018101" lon="105.6219"><ele>1077.6</ele><time>2025-11-21T23:33:13.000Z</time></trkpt>
        <trkpt lat="28.018104" lon="105.621897"><ele>1077.6</ele><time>2025-11-21T23:33:14.000Z</time></trkpt>
        <trkpt lat="28.018108" lon="105.621896"><ele>1077.6</ele><time>2025-11-21T23:33:15.000Z</time></trkpt>
        <trkpt lat="28.018113" lon="105.621895"><ele>1077.6</ele><time>2025-11-21T23:33:16.000Z</time></trkpt>
        <trkpt lat="28.018118" lon="105.621895"><ele>1076.9</ele><time>2025-11-21T23:33:17.000Z</time></trkpt>
        <trkpt lat="28.018125" lon="105.621897"><ele>1076.9</ele><time>2025-11-21T23:33:18.000Z</time></trkpt>
        <trkpt lat="28.018131" lon="105.621898"><ele>1076.9</ele><time>2025-11-21T23:33:19.000Z</time></trkpt>
        <trkpt lat="28.018138" lon="105.6219"><ele>1076.9</ele><time>2025-11-21T23:33:20.000Z</time></trkpt>
        <trkpt lat="28.018144" lon="105.621902"><ele>1076.9</ele><time>2025-11-21T23:33:21.000Z</time></trkpt>
        <trkpt lat="28.01815" lon="105.621904"><ele>1076</ele><time>2025-11-21T23:33:22.000Z</time></trkpt>
        <trkpt lat="28.018155" lon="105.621907"><ele>1076</ele><time>2025-11-21T23:33:23.000Z</time></trkpt>
        <trkpt lat="28.01816" lon="105.621909"><ele>1076</ele><time>2025-11-21T23:33:24.000Z</time></trkpt>
        <trkpt lat="28.018166" lon="105.621911"><ele>1076</ele><time>2025-11-21T23:33:25.000Z</time></trkpt>
        <trkpt lat="28.018173" lon="105.621911"><ele>1076</ele><time>2025-11-21T23:33:26.000Z</time></trkpt>
        <trkpt lat="28.018179" lon="105.62191"><ele>1075.5</ele><time>2025-11-21T23:33:27.000Z</time></trkpt>
        <trkpt lat="28.018186" lon="105.621909"><ele>1075.5</ele><time>2025-11-21T23:33:28.000Z</time></trkpt>
        <trkpt lat="28.018193" lon="105.621908"><ele>1075.5</ele><time>2025-11-21T23:33:29.000Z</time></trkpt>
        <trkpt lat="28.0182" lon="105.621907"><ele>1075.5</ele><time>2025-11-21T23:33:30.000Z</time></trkpt>
        <trkpt lat="28.018206" lon="105.621907"><ele>1075.5</ele><time>2025-11-21T23:33:31.000Z</time></trkpt>
        <trkpt lat="28.018213" lon="105.621906"><ele>1074.6</ele><time>2025-11-21T23:33:32.000Z</time></trkpt>
        <trkpt lat="28.018221" lon="105.621906"><ele>1074.6</ele><time>2025-11-21T23:33:33.000Z</time></trkpt>
        <trkpt lat="28.018228" lon="105.621906"><ele>1074.6</ele><time>2025-11-21T23:33:34.000Z</time></trkpt>
        <trkpt lat="28.018236" lon="105.621905"><ele>1074.6</ele><time>2025-11-21T23:33:35.000Z</time></trkpt>
        <trkpt lat="28.018244" lon="105.621904"><ele>1074.6</ele><time>2025-11-21T23:33:36.000Z</time></trkpt>
        <trkpt lat="28.018252" lon="105.621902"><ele>1073.9</ele><time>2025-11-21T23:33:37.000Z</time></trkpt>
        <trkpt lat="28.01826" lon="105.621901"><ele>1073.9</ele><time>2025-11-21T23:33:38.000Z</time></trkpt>
        <trkpt lat="28.018267" lon="105.6219"><ele>1073.9</ele><time>2025-11-21T23:33:39.000Z</time></trkpt>
        <trkpt lat="28.018274" lon="105.621899"><ele>1073.9</ele><time>2025-11-21T23:33:40.000Z</time></trkpt>
        <trkpt lat="28.018282" lon="105.6219"><ele>1073.9</ele><time>2025-11-21T23:33:41.000Z</time></trkpt>
        <trkpt lat="28.018289" lon="105.6219"><ele>1073</ele><time>2025-11-21T23:33:42.000Z</time></trkpt>
        <trkpt lat="28.018296" lon="105.621901"><ele>1073</ele><time>2025-11-21T23:33:43.000Z</time></trkpt>
        <trkpt lat="28.018302" lon="105.621902"><ele>1073</ele><time>2025-11-21T23:33:44.000Z</time></trkpt>
        <trkpt lat="28.018308" lon="105.621903"><ele>1073</ele><time>2025-11-21T23:33:45.000Z</time></trkpt>
        <trkpt lat="28.018314" lon="105.621904"><ele>1073</ele><time>2025-11-21T23:33:46.000Z</time></trkpt>
        <trkpt lat="28.01832" lon="105.621905"><ele>1072</ele><time>2025-11-21T23:33:47.000Z</time></trkpt>
        <trkpt lat="28.018325" lon="105.621906"><ele>1072</ele><time>2025-11-21T23:33:48.000Z</time></trkpt>
        <trkpt lat="28.018331" lon="105.621908"><ele>1072</ele><time>2025-11-21T23:33:49.000Z</time></trkpt>
        <trkpt lat="28.018338" lon="105.621909"><ele>1072</ele><time>2025-11-21T23:33:50.000Z</time></trkpt>
        <trkpt lat="28.018346" lon="105.621909"><ele>1072</ele><time>2025-11-21T23:33:51.000Z</time></trkpt>
        <trkpt lat="28.018354" lon="105.621909"><ele>1070.9</ele><time>2025-11-21T23:33:52.000Z</time></trkpt>
        <trkpt lat="28.018363" lon="105.621908"><ele>1070.9</ele><time>2025-11-21T23:33:53.000Z</time></trkpt>
        <trkpt lat="28.018371" lon="105.621908"><ele>1070.9</ele><time>2025-11-21T23:33:54.000Z</time></trkpt>
        <trkpt lat="28.018379" lon="105.621908"><ele>1070.9</ele><time>2025-11-21T23:33:55.000Z</time></trkpt>
        <trkpt lat="28.018386" lon="105.62191"><ele>1070.9</ele><time>2025-11-21T23:33:56.000Z</time></trkpt>
        <trkpt lat="28.018393" lon="105.621911"><ele>1069.8</ele><time>2025-11-21T23:33:57.000Z</time></trkpt>
        <trkpt lat="28.018401" lon="105.621914"><ele>1069.8</ele><time>2025-11-21T23:33:58.000Z</time></trkpt>
        <trkpt lat="28.018412" lon="105.621917"><ele>1069.8</ele><time>2025-11-21T23:33:59.000Z</time></trkpt>
        <trkpt lat="28.018422" lon="105.62192"><ele>1069.8</ele><time>2025-11-21T23:34:00.000Z</time></trkpt>
        <trkpt lat="28.018432" lon="105.621923"><ele>1069.8</ele><time>2025-11-21T23:34:01.000Z</time></trkpt>
        <trkpt lat="28.018443" lon="105.621925"><ele>1068.7</ele><time>2025-11-21T23:34:02.000Z</time></trkpt>
        <trkpt lat="28.018453" lon="105.621927"><ele>1068.7</ele><time>2025-11-21T23:34:03.000Z</time></trkpt>
        <trkpt lat="28.018462" lon="105.621928"><ele>1068.7</ele><time>2025-11-21T23:34:04.000Z</time></trkpt>
        <trkpt lat="28.018471" lon="105.621929"><ele>1068.7</ele><time>2025-11-21T23:34:05.000Z</time></trkpt>
        <trkpt lat="28.018479" lon="105.621932"><ele>1068.7</ele><time>2025-11-21T23:34:06.000Z</time></trkpt>
        <trkpt lat="28.018486" lon="105.621935"><ele>1067.5</ele><time>2025-11-21T23:34:07.000Z</time></trkpt>
        <trkpt lat="28.018494" lon="105.621937"><ele>1067.5</ele><time>2025-11-21T23:34:08.000Z</time></trkpt>
        <trkpt lat="28.018502" lon="105.621941"><ele>1067.5</ele><time>2025-11-21T23:34:09.000Z</time></trkpt>
        <trkpt lat="28.018511" lon="105.621944"><ele>1067.5</ele><time>2025-11-21T23:34:10.000Z</time></trkpt>
        <trkpt lat="28.018521" lon="105.621947"><ele>1067.5</ele><time>2025-11-21T23:34:11.000Z</time></trkpt>
        <trkpt lat="28.018532" lon="105.62195"><ele>1066.3</ele><time>2025-11-21T23:34:12.000Z</time></trkpt>
        <trkpt lat="28.018543" lon="105.621953"><ele>1066.3</ele><time>2025-11-21T23:34:13.000Z</time></trkpt>
        <trkpt lat="28.018553" lon="105.621956"><ele>1066.3</ele><time>2025-11-21T23:34:14.000Z</time></trkpt>
        <trkpt lat="28.018564" lon="105.621957"><ele>1066.3</ele><time>2025-11-21T23:34:15.000Z</time></trkpt>
        <trkpt lat="28.018576" lon="105.621956"><ele>1066.3</ele><time>2025-11-21T23:34:16.000Z</time></trkpt>
        <trkpt lat="28.018587" lon="105.621956"><ele>1065.6</ele><time>2025-11-21T23:34:17.000Z</time></trkpt>
        <trkpt lat="28.018597" lon="105.621956"><ele>1065.6</ele><time>2025-11-21T23:34:18.000Z</time></trkpt>
        <trkpt lat="28.018608" lon="105.621956"><ele>1065.6</ele><time>2025-11-21T23:34:19.000Z</time></trkpt>
        <trkpt lat="28.018617" lon="105.621957"><ele>1065.6</ele><time>2025-11-21T23:34:20.000Z</time></trkpt>
        <trkpt lat="28.018624" lon="105.62196"><ele>1065.6</ele><time>2025-11-21T23:34:21.000Z</time></trkpt>
        <trkpt lat="28.01863" lon="105.621964"><ele>1065.1</ele><time>2025-11-21T23:34:22.000Z</time></trkpt>
        <trkpt lat="28.018636" lon="105.621968"><ele>1065.1</ele><time>2025-11-21T23:34:23.000Z</time></trkpt>
        <trkpt lat="28.018643" lon="105.621973"><ele>1065.1</ele><time>2025-11-21T23:34:24.000Z</time></trkpt>
        <trkpt lat="28.01865" lon="105.621979"><ele>1065.1</ele><time>2025-11-21T23:34:25.000Z</time></trkpt>
        <trkpt lat="28.018658" lon="105.621985"><ele>1065.1</ele><time>2025-11-21T23:34:26.000Z</time></trkpt>
        <trkpt lat="28.018667" lon="105.62199"><ele>1064.9</ele><time>2025-11-21T23:34:27.000Z</time></trkpt>
        <trkpt lat="28.018675" lon="105.621996"><ele>1064.9</ele><time>2025-11-21T23:34:28.000Z</time></trkpt>
        <trkpt lat="28.018683" lon="105.622"><ele>1064.9</ele><time>2025-11-21T23:34:29.000Z</time></trkpt>
        <trkpt lat="28.018691" lon="105.622005"><ele>1064.9</ele><time>2025-11-21T23:34:30.000Z</time></trkpt>
        <trkpt lat="28.018699" lon="105.622008"><ele>1064.9</ele><time>2025-11-21T23:34:31.000Z</time></trkpt>
        <trkpt lat="28.018708" lon="105.622012"><ele>1065.1</ele><time>2025-11-21T23:34:32.000Z</time></trkpt>
        <trkpt lat="28.018719" lon="105.622018"><ele>1065.1</ele><time>2025-11-21T23:34:33.000Z</time></trkpt>
        <trkpt lat="28.01873" lon="105.622024"><ele>1065.1</ele><time>2025-11-21T23:34:34.000Z</time></trkpt>
        <trkpt lat="28.018742" lon="105.622031"><ele>1065.1</ele><time>2025-11-21T23:34:35.000Z</time></trkpt>
        <trkpt lat="28.018753" lon="105.622037"><ele>1065.1</ele><time>2025-11-21T23:34:36.000Z</time></trkpt>
        <trkpt lat="28.018763" lon="105.622044"><ele>1065.6</ele><time>2025-11-21T23:34:37.000Z</time></trkpt>
        <trkpt lat="28.018773" lon="105.622048"><ele>1065.6</ele><time>2025-11-21T23:34:38.000Z</time></trkpt>
        <trkpt lat="28.018783" lon="105.622052"><ele>1065.6</ele><time>2025-11-21T23:34:39.000Z</time></trkpt>
        <trkpt lat="28.018793" lon="105.622055"><ele>1065.6</ele><time>2025-11-21T23:34:40.000Z</time></trkpt>
        <trkpt lat="28.018804" lon="105.622059"><ele>1065.6</ele><time>2025-11-21T23:34:41.000Z</time></trkpt>
        <trkpt lat="28.018816" lon="105.622062"><ele>1065.8</ele><time>2025-11-21T23:34:42.000Z</time></trkpt>
        <trkpt lat="28.018829" lon="105.622064"><ele>1065.8</ele><time>2025-11-21T23:34:43.000Z</time></trkpt>
        <trkpt lat="28.018842" lon="105.622068"><ele>1065.8</ele><time>2025-11-21T23:34:44.000Z</time></trkpt>
        <trkpt lat="28.018854" lon="105.622072"><ele>1065.8</ele><time>2025-11-21T23:34:45.000Z</time></trkpt>
        <trkpt lat="28.018866" lon="105.622076"><ele>1065.8</ele><time>2025-11-21T23:34:46.000Z</time></trkpt>
        <trkpt lat="28.018877" lon="105.62208"><ele>1065.8</ele><time>2025-11-21T23:34:47.000Z</time></trkpt>
        <trkpt lat="28.018886" lon="105.622084"><ele>1065.8</ele><time>2025-11-21T23:34:48.000Z</time></trkpt>
        <trkpt lat="28.018896" lon="105.622087"><ele>1065.8</ele><time>2025-11-21T23:34:49.000Z</time></trkpt>
        <trkpt lat="28.018905" lon="105.62209"><ele>1065.8</ele><time>2025-11-21T23:34:50.000Z</time></trkpt>
        <trkpt lat="28.018913" lon="105.622094"><ele>1065.8</ele><time>2025-11-21T23:34:51.000Z</time></trkpt>
        <trkpt lat="28.018921" lon="105.622099"><ele>1065.3</ele><time>2025-11-21T23:34:52.000Z</time></trkpt>
        <trkpt lat="28.018928" lon="105.622105"><ele>1065.3</ele><time>2025-11-21T23:34:53.000Z</time></trkpt>
        <trkpt lat="28.018936" lon="105.622111"><ele>1065.3</ele><time>2025-11-21T23:34:54.000Z</time></trkpt>
        <trkpt lat="28.018943" lon="105.622117"><ele>1065.3</ele><time>2025-11-21T23:34:55.000Z</time></trkpt>
        <trkpt lat="28.018951" lon="105.622122"><ele>1065.3</ele><time>2025-11-21T23:34:56.000Z</time></trkpt>
        <trkpt lat="28.018959" lon="105.622125"><ele>1065</ele><time>2025-11-21T23:34:57.000Z</time></trkpt>
        <trkpt lat="28.018966" lon="105.622128"><ele>1065</ele><time>2025-11-21T23:34:58.000Z</time></trkpt>
        <trkpt lat="28.018974" lon="105.622131"><ele>1065</ele><time>2025-11-21T23:34:59.000Z</time></trkpt>
        <trkpt lat="28.018981" lon="105.622134"><ele>1065</ele><time>2025-11-21T23:35:00.000Z</time></trkpt>
        <trkpt lat="28.018988" lon="105.622137"><ele>1065</ele><time>2025-11-21T23:35:01.000Z</time></trkpt>
        <trkpt lat="28.018995" lon="105.622139"><ele>1064.8</ele><time>2025-11-21T23:35:02.000Z</time></trkpt>
        <trkpt lat="28.019001" lon="105.622141"><ele>1064.8</ele><time>2025-11-21T23:35:03.000Z</time></trkpt>
        <trkpt lat="28.019008" lon="105.622143"><ele>1064.8</ele><time>2025-11-21T23:35:04.000Z</time></trkpt>
        <trkpt lat="28.019014" lon="105.622145"><ele>1064.8</ele><time>2025-11-21T23:35:05.000Z</time></trkpt>
        <trkpt lat="28.01902" lon="105.622147"><ele>1064.8</ele><time>2025-11-21T23:35:06.000Z</time></trkpt>
        <trkpt lat="28.019026" lon="105.62215"><ele>1064.6</ele><time>2025-11-21T23:35:07.000Z</time></trkpt>
        <trkpt lat="28.019033" lon="105.622151"><ele>1064.6</ele><time>2025-11-21T23:35:08.000Z</time></trkpt>
        <trkpt lat="28.01904" lon="105.622152"><ele>1064.6</ele><time>2025-11-21T23:35:09.000Z</time></trkpt>
        <trkpt lat="28.019047" lon="105.622153"><ele>1064.6</ele><time>2025-11-21T23:35:10.000Z</time></trkpt>
        <trkpt lat="28.019056" lon="105.622153"><ele>1064.6</ele><time>2025-11-21T23:35:11.000Z</time></trkpt>
        <trkpt lat="28.019064" lon="105.622153"><ele>1063.7</ele><time>2025-11-21T23:35:12.000Z</time></trkpt>
        <trkpt lat="28.019072" lon="105.622154"><ele>1063.7</ele><time>2025-11-21T23:35:13.000Z</time></trkpt>
        <trkpt lat="28.019081" lon="105.622156"><ele>1063.7</ele><time>2025-11-21T23:35:14.000Z</time></trkpt>
        <trkpt lat="28.019089" lon="105.622158"><ele>1063.7</ele><time>2025-11-21T23:35:15.000Z</time></trkpt>
        <trkpt lat="28.019098" lon="105.62216"><ele>1063.7</ele><time>2025-11-21T23:35:16.000Z</time></trkpt>
        <trkpt lat="28.019107" lon="105.622163"><ele>1062.9</ele><time>2025-11-21T23:35:17.000Z</time></trkpt>
        <trkpt lat="28.019117" lon="105.622165"><ele>1062.9</ele><time>2025-11-21T23:35:18.000Z</time></trkpt>
        <trkpt lat="28.019127" lon="105.622166"><ele>1062.9</ele><time>2025-11-21T23:35:19.000Z</time></trkpt>
        <trkpt lat="28.019139" lon="105.622167"><ele>1062.9</ele><time>2025-11-21T23:35:20.000Z</time></trkpt>
        <trkpt lat="28.019151" lon="105.622167"><ele>1062.9</ele><time>2025-11-21T23:35:21.000Z</time></trkpt>
        <trkpt lat="28.019163" lon="105.622166"><ele>1062</ele><time>2025-11-21T23:35:22.000Z</time></trkpt>
        <trkpt lat="28.019174" lon="105.622165"><ele>1062</ele><time>2025-11-21T23:35:23.000Z</time></trkpt>
        <trkpt lat="28.019184" lon="105.622165"><ele>1062</ele><time>2025-11-21T23:35:24.000Z</time></trkpt>
        <trkpt lat="28.019195" lon="105.622165"><ele>1062</ele><time>2025-11-21T23:35:25.000Z</time></trkpt>
        <trkpt lat="28.019206" lon="105.622167"><ele>1062</ele><time>2025-11-21T23:35:26.000Z</time></trkpt>
        <trkpt lat="28.019216" lon="105.622168"><ele>1061.4</ele><time>2025-11-21T23:35:27.000Z</time></trkpt>
        <trkpt lat="28.019228" lon="105.622169"><ele>1061.4</ele><time>2025-11-21T23:35:28.000Z</time></trkpt>
        <trkpt lat="28.019239" lon="105.62217"><ele>1061.4</ele><time>2025-11-21T23:35:29.000Z</time></trkpt>
        <trkpt lat="28.01925" lon="105.622171"><ele>1061.4</ele><time>2025-11-21T23:35:30.000Z</time></trkpt>
        <trkpt lat="28.019262" lon="105.622172"><ele>1061.4</ele><time>2025-11-21T23:35:31.000Z</time></trkpt>
        <trkpt lat="28.019273" lon="105.622176"><ele>1060.6</ele><time>2025-11-21T23:35:32.000Z</time></trkpt>
        <trkpt lat="28.019284" lon="105.62218"><ele>1060.6</ele><time>2025-11-21T23:35:33.000Z</time></trkpt>
        <trkpt lat="28.019295" lon="105.622185"><ele>1060.6</ele><time>2025-11-21T23:35:34.000Z</time></trkpt>
        <trkpt lat="28.019306" lon="105.622189"><ele>1060.6</ele><time>2025-11-21T23:35:35.000Z</time></trkpt>
        <trkpt lat="28.019317" lon="105.622194"><ele>1060.6</ele><time>2025-11-21T23:35:36.000Z</time></trkpt>
        <trkpt lat="28.019327" lon="105.622198"><ele>1060.4</ele><time>2025-11-21T23:35:37.000Z</time></trkpt>
        <trkpt lat="28.019337" lon="105.622202"><ele>1060.4</ele><time>2025-11-21T23:35:38.000Z</time></trkpt>
        <trkpt lat="28.019346" lon="105.622207"><ele>1060.4</ele><time>2025-11-21T23:35:39.000Z</time></trkpt>
        <trkpt lat="28.019354" lon="105.622213"><ele>1060.4</ele><time>2025-11-21T23:35:40.000Z</time></trkpt>
        <trkpt lat="28.019362" lon="105.622219"><ele>1060.4</ele><time>2025-11-21T23:35:41.000Z</time></trkpt>
        <trkpt lat="28.01937" lon="105.622224"><ele>1060.4</ele><time>2025-11-21T23:35:42.000Z</time></trkpt>
        <trkpt lat="28.019379" lon="105.62223"><ele>1060.4</ele><time>2025-11-21T23:35:43.000Z</time></trkpt>
        <trkpt lat="28.019388" lon="105.622236"><ele>1060.4</ele><time>2025-11-21T23:35:44.000Z</time></trkpt>
        <trkpt lat="28.019396" lon="105.622241"><ele>1060.4</ele><time>2025-11-21T23:35:45.000Z</time></trkpt>
        <trkpt lat="28.019404" lon="105.622246"><ele>1060.4</ele><time>2025-11-21T23:35:46.000Z</time></trkpt>
        <trkpt lat="28.019412" lon="105.622251"><ele>1060.4</ele><time>2025-11-21T23:35:47.000Z</time></trkpt>
        <trkpt lat="28.01942" lon="105.622257"><ele>1060.4</ele><time>2025-11-21T23:35:48.000Z</time></trkpt>
        <trkpt lat="28.019427" lon="105.622263"><ele>1060.4</ele><time>2025-11-21T23:35:49.000Z</time></trkpt>
        <trkpt lat="28.019435" lon="105.622267"><ele>1060.4</ele><time>2025-11-21T23:35:50.000Z</time></trkpt>
        <trkpt lat="28.019443" lon="105.622272"><ele>1060.4</ele><time>2025-11-21T23:35:51.000Z</time></trkpt>
        <trkpt lat="28.019451" lon="105.622276"><ele>1060.4</ele><time>2025-11-21T23:35:52.000Z</time></trkpt>
        <trkpt lat="28.019459" lon="105.622279"><ele>1060.4</ele><time>2025-11-21T23:35:53.000Z</time></trkpt>
        <trkpt lat="28.019467" lon="105.622282"><ele>1060.4</ele><time>2025-11-21T23:35:54.000Z</time></trkpt>
        <trkpt lat="28.019474" lon="105.622284"><ele>1060.4</ele><time>2025-11-21T23:35:55.000Z</time></trkpt>
        <trkpt lat="28.019481" lon="105.622287"><ele>1060.4</ele><time>2025-11-21T23:35:56.000Z</time></trkpt>
        <trkpt lat="28.019489" lon="105.62229"><ele>1060.9</ele><time>2025-11-21T23:35:57.000Z</time></trkpt>
        <trkpt lat="28.019497" lon="105.622292"><ele>1060.9</ele><time>2025-11-21T23:35:58.000Z</time></trkpt>
        <trkpt lat="28.019505" lon="105.622294"><ele>1060.9</ele><time>2025-11-21T23:35:59.000Z</time></trkpt>
        <trkpt lat="28.019514" lon="105.622295"><ele>1060.9</ele><time>2025-11-21T23:36:00.000Z</time></trkpt>
        <trkpt lat="28.019522" lon="105.622297"><ele>1060.9</ele><time>2025-11-21T23:36:01.000Z</time></trkpt>
        <trkpt lat="28.019531" lon="105.622298"><ele>1060.9</ele><time>2025-11-21T23:36:02.000Z</time></trkpt>
        <trkpt lat="28.01954" lon="105.622299"><ele>1060.9</ele><time>2025-11-21T23:36:03.000Z</time></trkpt>
        <trkpt lat="28.019549" lon="105.622301"><ele>1060.9</ele><time>2025-11-21T23:36:04.000Z</time></trkpt>
        <trkpt lat="28.019557" lon="105.622304"><ele>1060.9</ele><time>2025-11-21T23:36:05.000Z</time></trkpt>
        <trkpt lat="28.019566" lon="105.622307"><ele>1060.9</ele><time>2025-11-21T23:36:06.000Z</time></trkpt>
        <trkpt lat="28.019574" lon="105.622311"><ele>1060.7</ele><time>2025-11-21T23:36:07.000Z</time></trkpt>
        <trkpt lat="28.019582" lon="105.622315"><ele>1060.7</ele><time>2025-11-21T23:36:08.000Z</time></trkpt>
        <trkpt lat="28.019591" lon="105.622319"><ele>1060.7</ele><time>2025-11-21T23:36:09.000Z</time></trkpt>
        <trkpt lat="28.019598" lon="105.622323"><ele>1060.7</ele><time>2025-11-21T23:36:10.000Z</time></trkpt>
        <trkpt lat="28.019606" lon="105.622328"><ele>1060.7</ele><time>2025-11-21T23:36:11.000Z</time></trkpt>
        <trkpt lat="28.019613" lon="105.622333"><ele>1059.8</ele><time>2025-11-21T23:36:12.000Z</time></trkpt>
        <trkpt lat="28.01962" lon="105.622338"><ele>1059.8</ele><time>2025-11-21T23:36:13.000Z</time></trkpt>
        <trkpt lat="28.019627" lon="105.622343"><ele>1059.8</ele><time>2025-11-21T23:36:14.000Z</time></trkpt>
        <trkpt lat="28.019634" lon="105.622348"><ele>1059.8</ele><time>2025-11-21T23:36:15.000Z</time></trkpt>
        <trkpt lat="28.019641" lon="105.622352"><ele>1059.8</ele><time>2025-11-21T23:36:16.000Z</time></trkpt>
        <trkpt lat="28.019649" lon="105.622357"><ele>1058.8</ele><time>2025-11-21T23:36:17.000Z</time></trkpt>
        <trkpt lat="28.019658" lon="105.622362"><ele>1058.8</ele><time>2025-11-21T23:36:18.000Z</time></trkpt>
        <trkpt lat="28.019667" lon="105.622368"><ele>1058.8</ele><time>2025-11-21T23:36:19.000Z</time></trkpt>
        <trkpt lat="28.019675" lon="105.622373"><ele>1058.8</ele><time>2025-11-21T23:36:20.000Z</time></trkpt>
        <trkpt lat="28.019683" lon="105.622377"><ele>1058.8</ele><time>2025-11-21T23:36:21.000Z</time></trkpt>
        <trkpt lat="28.019691" lon="105.62238"><ele>1057.9</ele><time>2025-11-21T23:36:22.000Z</time></trkpt>
        <trkpt lat="28.019699" lon="105.622382"><ele>1057.9</ele><time>2025-11-21T23:36:23.000Z</time></trkpt>
        <trkpt lat="28.019706" lon="105.622383"><ele>1057.9</ele><time>2025-11-21T23:36:24.000Z</time></trkpt>
        <trkpt lat="28.019714" lon="105.622385"><ele>1057.9</ele><time>2025-11-21T23:36:25.000Z</time></trkpt>
        <trkpt lat="28.019722" lon="105.622388"><ele>1057.9</ele><time>2025-11-21T23:36:26.000Z</time></trkpt>
        <trkpt lat="28.01973" lon="105.622392"><ele>1057</ele><time>2025-11-21T23:36:27.000Z</time></trkpt>
        <trkpt lat="28.019737" lon="105.622397"><ele>1057</ele><time>2025-11-21T23:36:28.000Z</time></trkpt>
        <trkpt lat="28.019745" lon="105.622401"><ele>1057</ele><time>2025-11-21T23:36:29.000Z</time></trkpt>
        <trkpt lat="28.019751" lon="105.622405"><ele>1057</ele><time>2025-11-21T23:36:30.000Z</time></trkpt>
        <trkpt lat="28.019758" lon="105.622411"><ele>1057</ele><time>2025-11-21T23:36:31.000Z</time></trkpt>
        <trkpt lat="28.019766" lon="105.622416"><ele>1056.5</ele><time>2025-11-21T23:36:32.000Z</time></trkpt>
        <trkpt lat="28.019774" lon="105.622422"><ele>1056.5</ele><time>2025-11-21T23:36:33.000Z</time></trkpt>
        <trkpt lat="28.019782" lon="105.62243"><ele>1056.5</ele><time>2025-11-21T23:36:34.000Z</time></trkpt>
        <trkpt lat="28.019789" lon="105.622439"><ele>1056.5</ele><time>2025-11-21T23:36:35.000Z</time></trkpt>
        <trkpt lat="28.019796" lon="105.622448"><ele>1056.5</ele><time>2025-11-21T23:36:36.000Z</time></trkpt>
        <trkpt lat="28.019803" lon="105.622455"><ele>1056.1</ele><time>2025-11-21T23:36:37.000Z</time></trkpt>
        <trkpt lat="28.019809" lon="105.622461"><ele>1056.1</ele><time>2025-11-21T23:36:38.000Z</time></trkpt>
        <trkpt lat="28.019816" lon="105.622464"><ele>1056.1</ele><time>2025-11-21T23:36:39.000Z</time></trkpt>
        <trkpt lat="28.019825" lon="105.622465"><ele>1056.1</ele><time>2025-11-21T23:36:40.000Z</time></trkpt>
        <trkpt lat="28.019834" lon="105.622463"><ele>1056.1</ele><time>2025-11-21T23:36:41.000Z</time></trkpt>
        <trkpt lat="28.019843" lon="105.622462"><ele>1055.7</ele><time>2025-11-21T23:36:42.000Z</time></trkpt>
        <trkpt lat="28.019853" lon="105.622461"><ele>1055.7</ele><time>2025-11-21T23:36:43.000Z</time></trkpt>
        <trkpt lat="28.019863" lon="105.622459"><ele>1055.7</ele><time>2025-11-21T23:36:44.000Z</time></trkpt>
        <trkpt lat="28.019871" lon="105.622458"><ele>1055.7</ele><time>2025-11-21T23:36:45.000Z</time></trkpt>
        <trkpt lat="28.01988" lon="105.622458"><ele>1055.7</ele><time>2025-11-21T23:36:46.000Z</time></trkpt>
        <trkpt lat="28.01989" lon="105.622459"><ele>1055.3</ele><time>2025-11-21T23:36:47.000Z</time></trkpt>
        <trkpt lat="28.019899" lon="105.622461"><ele>1055.3</ele><time>2025-11-21T23:36:48.000Z</time></trkpt>
        <trkpt lat="28.019908" lon="105.622464"><ele>1055.3</ele><time>2025-11-21T23:36:49.000Z</time></trkpt>
        <trkpt lat="28.019917" lon="105.622468"><ele>1055.3</ele><time>2025-11-21T23:36:50.000Z</time></trkpt>
        <trkpt lat="28.019925" lon="105.622471"><ele>1055.3</ele><time>2025-11-21T23:36:51.000Z</time></trkpt>
        <trkpt lat="28.019934" lon="105.622474"><ele>1055</ele><time>2025-11-21T23:36:52.000Z</time></trkpt>
        <trkpt lat="28.019943" lon="105.622476"><ele>1055</ele><time>2025-11-21T23:36:53.000Z</time></trkpt>
        <trkpt lat="28.019953" lon="105.622477"><ele>1055</ele><time>2025-11-21T23:36:54.000Z</time></trkpt>
        <trkpt lat="28.019964" lon="105.622479"><ele>1055</ele><time>2025-11-21T23:36:55.000Z</time></trkpt>
        <trkpt lat="28.019973" lon="105.622483"><ele>1055</ele><time>2025-11-21T23:36:56.000Z</time></trkpt>
        <trkpt lat="28.019983" lon="105.622488"><ele>1054.4</ele><time>2025-11-21T23:36:57.000Z</time></trkpt>
        <trkpt lat="28.019991" lon="105.622494"><ele>1054.4</ele><time>2025-11-21T23:36:58.000Z</time></trkpt>
        <trkpt lat="28.02" lon="105.6225"><ele>1054.4</ele><time>2025-11-21T23:36:59.000Z</time></trkpt>
        <trkpt lat="28.020008" lon="105.622507"><ele>1054.4</ele><time>2025-11-21T23:37:00.000Z</time></trkpt>
        <trkpt lat="28.020016" lon="105.622513"><ele>1054.4</ele><time>2025-11-21T23:37:01.000Z</time></trkpt>
        <trkpt lat="28.020024" lon="105.62252"><ele>1054.2</ele><time>2025-11-21T23:37:02.000Z</time></trkpt>
        <trkpt lat="28.020033" lon="105.622527"><ele>1054.2</ele><time>2025-11-21T23:37:03.000Z</time></trkpt>
        <trkpt lat="28.020041" lon="105.622536"><ele>1054.2</ele><time>2025-11-21T23:37:04.000Z</time></trkpt>
        <trkpt lat="28.020047" lon="105.622545"><ele>1054.2</ele><time>2025-11-21T23:37:05.000Z</time></trkpt>
        <trkpt lat="28.020053" lon="105.622554"><ele>1054.2</ele><time>2025-11-21T23:37:06.000Z</time></trkpt>
        <trkpt lat="28.020058" lon="105.622562"><ele>1053.9</ele><time>2025-11-21T23:37:07.000Z</time></trkpt>
        <trkpt lat="28.020062" lon="105.62257"><ele>1053.9</ele><time>2025-11-21T23:37:08.000Z</time></trkpt>
        <trkpt lat="28.020067" lon="105.622576"><ele>1053.9</ele><time>2025-11-21T23:37:09.000Z</time></trkpt>
        <trkpt lat="28.020072" lon="105.622583"><ele>1053.9</ele><time>2025-11-21T23:37:10.000Z</time></trkpt>
        <trkpt lat="28.020078" lon="105.622589"><ele>1053.9</ele><time>2025-11-21T23:37:11.000Z</time></trkpt>
        <trkpt lat="28.020084" lon="105.622596"><ele>1053.9</ele><time>2025-11-21T23:37:12.000Z</time></trkpt>
        <trkpt lat="28.020092" lon="105.622603"><ele>1053.9</ele><time>2025-11-21T23:37:13.000Z</time></trkpt>
        <trkpt lat="28.020098" lon="105.622611"><ele>1053.9</ele><time>2025-11-21T23:37:14.000Z</time></trkpt>
        <trkpt lat="28.020104" lon="105.62262"><ele>1053.9</ele><time>2025-11-21T23:37:15.000Z</time></trkpt>
        <trkpt lat="28.020109" lon="105.622629"><ele>1053.9</ele><time>2025-11-21T23:37:16.000Z</time></trkpt>
        <trkpt lat="28.020112" lon="105.622638"><ele>1054.2</ele><time>2025-11-21T23:37:17.000Z</time></trkpt>
        <trkpt lat="28.020114" lon="105.622645"><ele>1054.2</ele><time>2025-11-21T23:37:18.000Z</time></trkpt>
        <trkpt lat="28.020115" lon="105.62265"><ele>1054.2</ele><time>2025-11-21T23:37:19.000Z</time></trkpt>
        <trkpt lat="28.020117" lon="105.622652"><ele>1054.2</ele><time>2025-11-21T23:37:20.000Z</time></trkpt>
        <trkpt lat="28.02012" lon="105.622653"><ele>1054.2</ele><time>2025-11-21T23:37:21.000Z</time></trkpt>
        <trkpt lat="28.020122" lon="105.622651"><ele>1054.5</ele><time>2025-11-21T23:37:22.000Z</time></trkpt>
        <trkpt lat="28.020125" lon="105.622649"><ele>1054.5</ele><time>2025-11-21T23:37:23.000Z</time></trkpt>
        <trkpt lat="28.020127" lon="105.622647"><ele>1054.5</ele><time>2025-11-21T23:37:24.000Z</time></trkpt>
        <trkpt lat="28.020128" lon="105.622646"><ele>1054.5</ele><time>2025-11-21T23:37:25.000Z</time></trkpt>
        <trkpt lat="28.020128" lon="105.622645"><ele>1054.5</ele><time>2025-11-21T23:37:26.000Z</time></trkpt>
        <trkpt lat="28.020128" lon="105.622645"><ele>1054.5</ele><time>2025-11-21T23:37:27.000Z</time></trkpt>
        <trkpt lat="28.020128" lon="105.622647"><ele>1054.5</ele><time>2025-11-21T23:37:28.000Z</time></trkpt>
        <trkpt lat="28.020128" lon="105.622648"><ele>1054.5</ele><time>2025-11-21T23:37:29.000Z</time></trkpt>
        <trkpt lat="28.020128" lon="105.622651"><ele>1054.5</ele><time>2025-11-21T23:37:30.000Z</time></trkpt>
        <trkpt lat="28.020129" lon="105.622655"><ele>1054.5</ele><time>2025-11-21T23:37:31.000Z</time></trkpt>
        <trkpt lat="28.020132" lon="105.622661"><ele>1054.5</ele><time>2025-11-21T23:37:32.000Z</time></trkpt>
        <trkpt lat="28.020134" lon="105.622665"><ele>1054.5</ele><time>2025-11-21T23:37:33.000Z</time></trkpt>
        <trkpt lat="28.020135" lon="105.622672"><ele>1054.5</ele><time>2025-11-21T23:37:34.000Z</time></trkpt>
        <trkpt lat="28.020135" lon="105.622679"><ele>1054.5</ele><time>2025-11-21T23:37:35.000Z</time></trkpt>
        <trkpt lat="28.020134" lon="105.622686"><ele>1054.5</ele><time>2025-11-21T23:37:36.000Z</time></trkpt>
        <trkpt lat="28.020132" lon="105.622693"><ele>1054.2</ele><time>2025-11-21T23:37:37.000Z</time></trkpt>
        <trkpt lat="28.020131" lon="105.622701"><ele>1054.2</ele><time>2025-11-21T23:37:38.000Z</time></trkpt>
        <trkpt lat="28.020131" lon="105.622708"><ele>1054.2</ele><time>2025-11-21T23:37:39.000Z</time></trkpt>
        <trkpt lat="28.020132" lon="105.622712"><ele>1054.2</ele><time>2025-11-21T23:37:40.000Z</time></trkpt>
        <trkpt lat="28.020135" lon="105.622716"><ele>1054.2</ele><time>2025-11-21T23:37:41.000Z</time></trkpt>
        <trkpt lat="28.020137" lon="105.622719"><ele>1053.7</ele><time>2025-11-21T23:37:42.000Z</time></trkpt>
        <trkpt lat="28.020139" lon="105.62272"><ele>1053.7</ele><time>2025-11-21T23:37:43.000Z</time></trkpt>
        <trkpt lat="28.02014" lon="105.622721"><ele>1053.7</ele><time>2025-11-21T23:37:44.000Z</time></trkpt>
        <trkpt lat="28.020142" lon="105.622721"><ele>1053.7</ele><time>2025-11-21T23:37:45.000Z</time></trkpt>
        <trkpt lat="28.020144" lon="105.62272"><ele>1053.7</ele><time>2025-11-21T23:37:46.000Z</time></trkpt>
        <trkpt lat="28.020145" lon="105.622719"><ele>1053.3</ele><time>2025-11-21T23:37:47.000Z</time></trkpt>
        <trkpt lat="28.020146" lon="105.622717"><ele>1053.3</ele><time>2025-11-21T23:37:48.000Z</time></trkpt>
        <trkpt lat="28.020146" lon="105.622717"><ele>1053.3</ele><time>2025-11-21T23:37:49.000Z</time></trkpt>
        <trkpt lat="28.020147" lon="105.622717"><ele>1053.3</ele><time>2025-11-21T23:37:50.000Z</time></trkpt>
        <trkpt lat="28.020147" lon="105.622717"><ele>1053.3</ele><time>2025-11-21T23:37:51.000Z</time></trkpt>
        <trkpt lat="28.020147" lon="105.622716"><ele>1053.1</ele><time>2025-11-21T23:37:52.000Z</time></trkpt>
        <trkpt lat="28.020147" lon="105.622714"><ele>1053.1</ele><time>2025-11-21T23:37:53.000Z</time></trkpt>
        <trkpt lat="28.020147" lon="105.622713"><ele>1053.1</ele><time>2025-11-21T23:37:54.000Z</time></trkpt>
        <trkpt lat="28.020147" lon="105.622711"><ele>1053.1</ele><time>2025-11-21T23:37:55.000Z</time></trkpt>
        <trkpt lat="28.020147" lon="105.62271"><ele>1053.1</ele><time>2025-11-21T23:37:56.000Z</time></trkpt>
        <trkpt lat="28.020148" lon="105.622709"><ele>1053.1</ele><time>2025-11-21T23:37:57.000Z</time></trkpt>
        <trkpt lat="28.020148" lon="105.622709"><ele>1053.1</ele><time>2025-11-21T23:37:58.000Z</time></trkpt>
        <trkpt lat="28.020149" lon="105.622709"><ele>1053.1</ele><time>2025-11-21T23:37:59.000Z</time></trkpt>
        <trkpt lat="28.02015" lon="105.622709"><ele>1053.1</ele><time>2025-11-21T23:38:00.000Z</time></trkpt>
        <trkpt lat="28.02015" lon="105.622709"><ele>1053.1</ele><time>2025-11-21T23:38:01.000Z</time></trkpt>
        <trkpt lat="28.020149" lon="105.622709"><ele>1053.1</ele><time>2025-11-21T23:38:02.000Z</time></trkpt>
        <trkpt lat="28.020149" lon="105.622709"><ele>1053.1</ele><time>2025-11-21T23:38:03.000Z</time></trkpt>
        <trkpt lat="28.020149" lon="105.62271"><ele>1053.1</ele><time>2025-11-21T23:38:04.000Z</time></trkpt>
        <trkpt lat="28.020149" lon="105.622711"><ele>1053.1</ele><time>2025-11-21T23:38:05.000Z</time></trkpt>
        <trkpt lat="28.020149" lon="105.622713"><ele>1053.1</ele><time>2025-11-21T23:38:06.000Z</time></trkpt>
        <trkpt lat="28.020149" lon="105.622714"><ele>1053.1</ele><time>2025-11-21T23:38:07.000Z</time></trkpt>
        <trkpt lat="28.020149" lon="105.622715"><ele>1053.1</ele><time>2025-11-21T23:38:08.000Z</time></trkpt>
        <trkpt lat="28.020149" lon="105.622716"><ele>1053.1</ele><time>2025-11-21T23:38:09.000Z</time></trkpt>
        <trkpt lat="28.020149" lon="105.622717"><ele>1053.1</ele><time>2025-11-21T23:38:10.000Z</time></trkpt>
        <trkpt lat="28.020149" lon="105.622718"><ele>1053.1</ele><time>2025-11-21T23:38:11.000Z</time></trkpt>
        <trkpt lat="28.020149" lon="105.622719"><ele>1053.1</ele><time>2025-11-21T23:38:12.000Z</time></trkpt>
        <trkpt lat="28.02015" lon="105.62272"><ele>1053.1</ele><time>2025-11-21T23:38:13.000Z</time></trkpt>
        <trkpt lat="28.02015" lon="105.622721"><ele>1053.1</ele><time>2025-11-21T23:38:14.000Z</time></trkpt>
        <trkpt lat="28.020151" lon="105.622722"><ele>1053.1</ele><time>2025-11-21T23:38:15.000Z</time></trkpt>
        <trkpt lat="28.020153" lon="105.622722"><ele>1053.1</ele><time>2025-11-21T23:38:16.000Z</time></trkpt>
        <trkpt lat="28.020153" lon="105.622723"><ele>1053.1</ele><time>2025-11-21T23:38:17.000Z</time></trkpt>
        <trkpt lat="28.020154" lon="105.622724"><ele>1053.1</ele><time>2025-11-21T23:38:18.000Z</time></trkpt>
        <trkpt lat="28.020154" lon="105.622725"><ele>1053.1</ele><time>2025-11-21T23:38:19.000Z</time></trkpt>
        <trkpt lat="28.020153" lon="105.622727"><ele>1053.1</ele><time>2025-11-21T23:38:20.000Z</time></trkpt>
        <trkpt lat="28.020152" lon="105.622728"><ele>1053.1</ele><time>2025-11-21T23:38:21.000Z</time></trkpt>
        <trkpt lat="28.02015" lon="105.622731"><ele>1053.1</ele><time>2025-11-21T23:38:22.000Z</time></trkpt>
        <trkpt lat="28.020147" lon="105.622734"><ele>1053.1</ele><time>2025-11-21T23:38:23.000Z</time></trkpt>
        <trkpt lat="28.020145" lon="105.622736"><ele>1053.1</ele><time>2025-11-21T23:38:24.000Z</time></trkpt>
        <trkpt lat="28.020141" lon="105.62274"><ele>1053.1</ele><time>2025-11-21T23:38:25.000Z</time></trkpt>
        <trkpt lat="28.020138" lon="105.622743"><ele>1053.1</ele><time>2025-11-21T23:38:26.000Z</time></trkpt>
        <trkpt lat="28.020136" lon="105.622745"><ele>1053.1</ele><time>2025-11-21T23:38:27.000Z</time></trkpt>
        <trkpt lat="28.020135" lon="105.622746"><ele>1053.1</ele><time>2025-11-21T23:38:28.000Z</time></trkpt>
        <trkpt lat="28.020135" lon="105.622747"><ele>1053.1</ele><time>2025-11-21T23:38:29.000Z</time></trkpt>
        <trkpt lat="28.020135" lon="105.622746"><ele>1053.1</ele><time>2025-11-21T23:38:30.000Z</time></trkpt>
        <trkpt lat="28.020136" lon="105.622745"><ele>1053.1</ele><time>2025-11-21T23:38:31.000Z</time></trkpt>
        <trkpt lat="28.020136" lon="105.622745"><ele>1053.1</ele><time>2025-11-21T23:38:32.000Z</time></trkpt>
        <trkpt lat="28.020137" lon="105.622745"><ele>1053.1</ele><time>2025-11-21T23:38:33.000Z</time></trkpt>
        <trkpt lat="28.020137" lon="105.622745"><ele>1053.1</ele><time>2025-11-21T23:38:34.000Z</time></trkpt>
        <trkpt lat="28.020138" lon="105.622745"><ele>1053.1</ele><time>2025-11-21T23:38:35.000Z</time></trkpt>
        <trkpt lat="28.020138" lon="105.622744"><ele>1053.1</ele><time>2025-11-21T23:38:36.000Z</time></trkpt>
        <trkpt lat="28.020138" lon="105.622744"><ele>1053.1</ele><time>2025-11-21T23:38:37.000Z</time></trkpt>
        <trkpt lat="28.020139" lon="105.622743"><ele>1053.1</ele><time>2025-11-21T23:38:38.000Z</time></trkpt>
        <trkpt lat="28.020139" lon="105.622743"><ele>1053.1</ele><time>2025-11-21T23:38:39.000Z</time></trkpt>
        <trkpt lat="28.020139" lon="105.622743"><ele>1053.1</ele><time>2025-11-21T23:38:40.000Z</time></trkpt>
        <trkpt lat="28.020139" lon="105.622743"><ele>1053.1</ele><time>2025-11-21T23:38:41.000Z</time></trkpt>
        <trkpt lat="28.020138" lon="105.622743"><ele>1053.1</ele><time>2025-11-21T23:38:42.000Z</time></trkpt>
        <trkpt lat="28.020136" lon="105.622744"><ele>1053.1</ele><time>2025-11-21T23:38:43.000Z</time></trkpt>
        <trkpt lat="28.020133" lon="105.622745"><ele>1053.1</ele><time>2025-11-21T23:38:44.000Z</time></trkpt>
        <trkpt lat="28.02013" lon="105.622747"><ele>1053.1</ele><time>2025-11-21T23:38:45.000Z</time></trkpt>
        <trkpt lat="28.020126" lon="105.622749"><ele>1053.1</ele><time>2025-11-21T23:38:46.000Z</time></trkpt>
        <trkpt lat="28.020122" lon="105.622751"><ele>1053.1</ele><time>2025-11-21T23:38:47.000Z</time></trkpt>
        <trkpt lat="28.020118" lon="105.622752"><ele>1053.1</ele><time>2025-11-21T23:38:48.000Z</time></trkpt>
        <trkpt lat="28.020115" lon="105.622753"><ele>1053.1</ele><time>2025-11-21T23:38:49.000Z</time></trkpt>
        <trkpt lat="28.020112" lon="105.622754"><ele>1053.1</ele><time>2025-11-21T23:38:50.000Z</time></trkpt>
        <trkpt lat="28.020108" lon="105.622754"><ele>1053.1</ele><time>2025-11-21T23:38:51.000Z</time></trkpt>
        <trkpt lat="28.020107" lon="105.622754"><ele>1053.1</ele><time>2025-11-21T23:38:52.000Z</time></trkpt>
        <trkpt lat="28.020106" lon="105.622754"><ele>1053.1</ele><time>2025-11-21T23:38:53.000Z</time></trkpt>
        <trkpt lat="28.020106" lon="105.622754"><ele>1053.1</ele><time>2025-11-21T23:38:54.000Z</time></trkpt>
        <trkpt lat="28.020107" lon="105.622753"><ele>1053.1</ele><time>2025-11-21T23:38:55.000Z</time></trkpt>
        <trkpt lat="28.020107" lon="105.622752"><ele>1053.1</ele><time>2025-11-21T23:38:56.000Z</time></trkpt>
        <trkpt lat="28.020108" lon="105.62275"><ele>1053.1</ele><time>2025-11-21T23:38:57.000Z</time></trkpt>
        <trkpt lat="28.020108" lon="105.622748"><ele>1053.1</ele><time>2025-11-21T23:38:58.000Z</time></trkpt>
        <trkpt lat="28.020108" lon="105.622747"><ele>1053.1</ele><time>2025-11-21T23:38:59.000Z</time></trkpt>
        <trkpt lat="28.020109" lon="105.622747"><ele>1053.1</ele><time>2025-11-21T23:39:00.000Z</time></trkpt>
        <trkpt lat="28.020109" lon="105.622746"><ele>1053.1</ele><time>2025-11-21T23:39:01.000Z</time></trkpt>
        <trkpt lat="28.020108" lon="105.622746"><ele>1053.1</ele><time>2025-11-21T23:39:02.000Z</time></trkpt>
        <trkpt lat="28.020107" lon="105.622746"><ele>1053.1</ele><time>2025-11-21T23:39:03.000Z</time></trkpt>
        <trkpt lat="28.020108" lon="105.622746"><ele>1053.1</ele><time>2025-11-21T23:39:04.000Z</time></trkpt>
        <trkpt lat="28.020108" lon="105.622747"><ele>1053.1</ele><time>2025-11-21T23:39:05.000Z</time></trkpt>
        <trkpt lat="28.020108" lon="105.622748"><ele>1053.1</ele><time>2025-11-21T23:39:06.000Z</time></trkpt>
        <trkpt lat="28.020108" lon="105.622749"><ele>1053.1</ele><time>2025-11-21T23:39:07.000Z</time></trkpt>
        <trkpt lat="28.020109" lon="105.622751"><ele>1053.1</ele><time>2025-11-21T23:39:08.000Z</time></trkpt>
        <trkpt lat="28.020108" lon="105.622752"><ele>1053.1</ele><time>2025-11-21T23:39:09.000Z</time></trkpt>
        <trkpt lat="28.020107" lon="105.622752"><ele>1053.1</ele><time>2025-11-21T23:39:10.000Z</time></trkpt>
        <trkpt lat="28.020107" lon="105.622752"><ele>1053.1</ele><time>2025-11-21T23:39:11.000Z</time></trkpt>
        <trkpt lat="28.020107" lon="105.622752"><ele>1053.1</ele><time>2025-11-21T23:39:12.000Z</time></trkpt>
        <trkpt lat="28.020107" lon="105.622752"><ele>1053.1</ele><time>2025-11-21T23:39:13.000Z</time></trkpt>
        <trkpt lat="28.020107" lon="105.622752"><ele>1053.1</ele><time>2025-11-21T23:39:14.000Z</time></trkpt>
        <trkpt lat="28.020108" lon="105.622751"><ele>1053.1</ele><time>2025-11-21T23:39:15.000Z</time></trkpt>
        <trkpt lat="28.020109" lon="105.622751"><ele>1053.1</ele><time>2025-11-21T23:39:16.000Z</time></trkpt>
        <trkpt lat="28.020109" lon="105.62275"><ele>1053.1</ele><time>2025-11-21T23:39:17.000Z</time></trkpt>
        <trkpt lat="28.02011" lon="105.62275"><ele>1053.1</ele><time>2025-11-21T23:39:18.000Z</time></trkpt>
        <trkpt lat="28.020111" lon="105.622748"><ele>1053.1</ele><time>2025-11-21T23:39:19.000Z</time></trkpt>
        <trkpt lat="28.020112" lon="105.622746"><ele>1053.1</ele><time>2025-11-21T23:39:20.000Z</time></trkpt>
        <trkpt lat="28.020115" lon="105.622743"><ele>1053.1</ele><time>2025-11-21T23:39:21.000Z</time></trkpt>
        <trkpt lat="28.020117" lon="105.622739"><ele>1053.1</ele><time>2025-11-21T23:39:22.000Z</time></trkpt>
        <trkpt lat="28.02012" lon="105.622736"><ele>1053.1</ele><time>2025-11-21T23:39:23.000Z</time></trkpt>
        <trkpt lat="28.020122" lon="105.622734"><ele>1053.1</ele><time>2025-11-21T23:39:24.000Z</time></trkpt>
        <trkpt lat="28.020123" lon="105.622733"><ele>1053.1</ele><time>2025-11-21T23:39:25.000Z</time></trkpt>
        <trkpt lat="28.020123" lon="105.622732"><ele>1053.1</ele><time>2025-11-21T23:39:26.000Z</time></trkpt>
        <trkpt lat="28.020123" lon="105.622731"><ele>1053.1</ele><time>2025-11-21T23:39:27.000Z</time></trkpt>
        <trkpt lat="28.020123" lon="105.622731"><ele>1053.1</ele><time>2025-11-21T23:39:28.000Z</time></trkpt>
        <trkpt lat="28.020123" lon="105.622731"><ele>1053.1</ele><time>2025-11-21T23:39:29.000Z</time></trkpt>
        <trkpt lat="28.020123" lon="105.622731"><ele>1053.1</ele><time>2025-11-21T23:39:30.000Z</time></trkpt>
        <trkpt lat="28.020123" lon="105.622731"><ele>1053.1</ele><time>2025-11-21T23:39:31.000Z</time></trkpt>
        <trkpt lat="28.020123" lon="105.622732"><ele>1053.1</ele><time>2025-11-21T23:39:32.000Z</time></trkpt>
        <trkpt lat="28.020123" lon="105.622735"><ele>1053.1</ele><time>2025-11-21T23:39:33.000Z</time></trkpt>
        <trkpt lat="28.020123" lon="105.622738"><ele>1053.1</ele><time>2025-11-21T23:39:34.000Z</time></trkpt>
        <trkpt lat="28.020122" lon="105.622741"><ele>1053.1</ele><time>2025-11-21T23:39:35.000Z</time></trkpt>
        <trkpt lat="28.020122" lon="105.622745"><ele>1053.1</ele><time>2025-11-21T23:39:36.000Z</time></trkpt>
        <trkpt lat="28.020121" lon="105.622749"><ele>1053.1</ele><time>2025-11-21T23:39:37.000Z</time></trkpt>
        <trkpt lat="28.020121" lon="105.622751"><ele>1053.1</ele><time>2025-11-21T23:39:38.000Z</time></trkpt>
        <trkpt lat="28.020121" lon="105.622754"><ele>1053.1</ele><time>2025-11-21T23:39:39.000Z</time></trkpt>
        <trkpt lat="28.020121" lon="105.622755"><ele>1053.1</ele><time>2025-11-21T23:39:40.000Z</time></trkpt>
        <trkpt lat="28.020121" lon="105.622756"><ele>1053.1</ele><time>2025-11-21T23:39:41.000Z</time></trkpt>
        <trkpt lat="28.020122" lon="105.622756"><ele>1053.1</ele><time>2025-11-21T23:39:42.000Z</time></trkpt>
        <trkpt lat="28.020122" lon="105.622756"><ele>1053.1</ele><time>2025-11-21T23:39:43.000Z</time></trkpt>
        <trkpt lat="28.020123" lon="105.622755"><ele>1053.1</ele><time>2025-11-21T23:39:44.000Z</time></trkpt>
        <trkpt lat="28.020123" lon="105.622754"><ele>1053.1</ele><time>2025-11-21T23:39:45.000Z</time></trkpt>
        <trkpt lat="28.020124" lon="105.622752"><ele>1053.1</ele><time>2025-11-21T23:39:46.000Z</time></trkpt>
        <trkpt lat="28.020125" lon="105.622751"><ele>1053.1</ele><time>2025-11-21T23:39:47.000Z</time></trkpt>
        <trkpt lat="28.020126" lon="105.62275"><ele>1053.1</ele><time>2025-11-21T23:39:48.000Z</time></trkpt>
        <trkpt lat="28.020127" lon="105.622749"><ele>1053.1</ele><time>2025-11-21T23:39:49.000Z</time></trkpt>
        <trkpt lat="28.020128" lon="105.622748"><ele>1053.1</ele><time>2025-11-21T23:39:50.000Z</time></trkpt>
        <trkpt lat="28.020128" lon="105.622748"><ele>1053.1</ele><time>2025-11-21T23:39:51.000Z</time></trkpt>
        <trkpt lat="28.020127" lon="105.622749"><ele>1053.1</ele><time>2025-11-21T23:39:52.000Z</time></trkpt>
        <trkpt lat="28.020127" lon="105.622749"><ele>1053.1</ele><time>2025-11-21T23:39:53.000Z</time></trkpt>
        <trkpt lat="28.020127" lon="105.622749"><ele>1053.1</ele><time>2025-11-21T23:39:54.000Z</time></trkpt>
        <trkpt lat="28.020128" lon="105.622748"><ele>1053.1</ele><time>2025-11-21T23:39:55.000Z</time></trkpt>
        <trkpt lat="28.020129" lon="105.622748"><ele>1053.1</ele><time>2025-11-21T23:39:56.000Z</time></trkpt>
        <trkpt lat="28.02013" lon="105.622747"><ele>1053.1</ele><time>2025-11-21T23:39:57.000Z</time></trkpt>
        <trkpt lat="28.020131" lon="105.622746"><ele>1053.1</ele><time>2025-11-21T23:39:58.000Z</time></trkpt>
        <trkpt lat="28.020132" lon="105.622746"><ele>1053.1</ele><time>2025-11-21T23:39:59.000Z</time></trkpt>
        <trkpt lat="28.020133" lon="105.622745"><ele>1053.1</ele><time>2025-11-21T23:40:00.000Z</time></trkpt>
        <trkpt lat="28.020134" lon="105.622745"><ele>1053.1</ele><time>2025-11-21T23:40:01.000Z</time></trkpt>
        <trkpt lat="28.020134" lon="105.622744"><ele>1053.1</ele><time>2025-11-21T23:40:02.000Z</time></trkpt>
        <trkpt lat="28.020135" lon="105.622742"><ele>1053.1</ele><time>2025-11-21T23:40:03.000Z</time></trkpt>
        <trkpt lat="28.020135" lon="105.622741"><ele>1053.1</ele><time>2025-11-21T23:40:04.000Z</time></trkpt>
        <trkpt lat="28.020137" lon="105.622739"><ele>1053.1</ele><time>2025-11-21T23:40:05.000Z</time></trkpt>
        <trkpt lat="28.02014" lon="105.622737"><ele>1053.1</ele><time>2025-11-21T23:40:06.000Z</time></trkpt>
        <trkpt lat="28.020144" lon="105.622735"><ele>1053.1</ele><time>2025-11-21T23:40:07.000Z</time></trkpt>
        <trkpt lat="28.020147" lon="105.622734"><ele>1053.1</ele><time>2025-11-21T23:40:08.000Z</time></trkpt>
        <trkpt lat="28.02015" lon="105.622732"><ele>1053.1</ele><time>2025-11-21T23:40:09.000Z</time></trkpt>
        <trkpt lat="28.020152" lon="105.622731"><ele>1053.1</ele><time>2025-11-21T23:40:10.000Z</time></trkpt>
        <trkpt lat="28.020152" lon="105.62273"><ele>1053.1</ele><time>2025-11-21T23:40:11.000Z</time></trkpt>
        <trkpt lat="28.020153" lon="105.622729"><ele>1053.1</ele><time>2025-11-21T23:40:12.000Z</time></trkpt>
        <trkpt lat="28.020153" lon="105.622729"><ele>1053.1</ele><time>2025-11-21T23:40:13.000Z</time></trkpt>
        <trkpt lat="28.020153" lon="105.622729"><ele>1053.1</ele><time>2025-11-21T23:40:14.000Z</time></trkpt>
        <trkpt lat="28.020152" lon="105.622729"><ele>1053.1</ele><time>2025-11-21T23:40:15.000Z</time></trkpt>
        <trkpt lat="28.020151" lon="105.62273"><ele>1053.1</ele><time>2025-11-21T23:40:16.000Z</time></trkpt>
        <trkpt lat="28.020149" lon="105.622731"><ele>1053.1</ele><time>2025-11-21T23:40:17.000Z</time></trkpt>
        <trkpt lat="28.020148" lon="105.62273"><ele>1053.1</ele><time>2025-11-21T23:40:18.000Z</time></trkpt>
        <trkpt lat="28.020148" lon="105.622729"><ele>1053.1</ele><time>2025-11-21T23:40:19.000Z</time></trkpt>
        <trkpt lat="28.020147" lon="105.622728"><ele>1053.1</ele><time>2025-11-21T23:40:20.000Z</time></trkpt>
        <trkpt lat="28.020147" lon="105.622727"><ele>1053.1</ele><time>2025-11-21T23:40:21.000Z</time></trkpt>
        <trkpt lat="28.020148" lon="105.622725"><ele>1053.1</ele><time>2025-11-21T23:40:22.000Z</time></trkpt>
        <trkpt lat="28.020148" lon="105.622726"><ele>1053.1</ele><time>2025-11-21T23:40:23.000Z</time></trkpt>
        <trkpt lat="28.020148" lon="105.622726"><ele>1053.1</ele><time>2025-11-21T23:40:24.000Z</time></trkpt>
        <trkpt lat="28.020148" lon="105.622726"><ele>1053.1</ele><time>2025-11-21T23:40:25.000Z</time></trkpt>
        <trkpt lat="28.020149" lon="105.622726"><ele>1053.1</ele><time>2025-11-21T23:40:26.000Z</time></trkpt>
        <trkpt lat="28.020149" lon="105.622725"><ele>1053.1</ele><time>2025-11-21T23:40:27.000Z</time></trkpt>
        <trkpt lat="28.020149" lon="105.622725"><ele>1053.1</ele><time>2025-11-21T23:40:28.000Z</time></trkpt>
        <trkpt lat="28.020149" lon="105.622725"><ele>1053.1</ele><time>2025-11-21T23:40:29.000Z</time></trkpt>
        <trkpt lat="28.020149" lon="105.622725"><ele>1053.1</ele><time>2025-11-21T23:40:30.000Z</time></trkpt>
        <trkpt lat="28.020149" lon="105.622725"><ele>1053.1</ele><time>2025-11-21T23:40:31.000Z</time></trkpt>
        <trkpt lat="28.020149" lon="105.622725"><ele>1053.1</ele><time>2025-11-21T23:40:32.000Z</time></trkpt>
        <trkpt lat="28.02015" lon="105.622725"><ele>1053.1</ele><time>2025-11-21T23:40:33.000Z</time></trkpt>
        <trkpt lat="28.02015" lon="105.622725"><ele>1053.1</ele><time>2025-11-21T23:40:34.000Z</time></trkpt>
        <trkpt lat="28.02015" lon="105.622725"><ele>1053.1</ele><time>2025-11-21T23:40:35.000Z</time></trkpt>
        <trkpt lat="28.02015" lon="105.622725"><ele>1053.1</ele><time>2025-11-21T23:40:36.000Z</time></trkpt>
        <trkpt lat="28.02015" lon="105.622725"><ele>1053.1</ele><time>2025-11-21T23:40:37.000Z</time></trkpt>
        <trkpt lat="28.02015" lon="105.622725"><ele>1053.1</ele><time>2025-11-21T23:40:38.000Z</time></trkpt>
        <trkpt lat="28.02015" lon="105.622725"><ele>1053.1</ele><time>2025-11-21T23:40:39.000Z</time></trkpt>
        <trkpt lat="28.02015" lon="105.622725"><ele>1053.1</ele><time>2025-11-21T23:40:40.000Z</time></trkpt>
        <trkpt lat="28.02015" lon="105.622725"><ele>1053.1</ele><time>2025-11-21T23:40:41.000Z</time></trkpt>
        <trkpt lat="28.02015" lon="105.622725"><ele>1053.1</ele><time>2025-11-21T23:40:42.000Z</time></trkpt>
        <trkpt lat="28.02015" lon="105.622725"><ele>1053.1</ele><time>2025-11-21T23:40:43.000Z</time></trkpt>
        <trkpt lat="28.02015" lon="105.622725"><ele>1053.1</ele><time>2025-11-21T23:40:44.000Z</time></trkpt>
        <trkpt lat="28.02015" lon="105.622725"><ele>1053.1</ele><time>2025-11-21T23:40:45.000Z</time></trkpt>
        <trkpt lat="28.02015" lon="105.622725"><ele>1053.1</ele><time>2025-11-21T23:40:46.000Z</time></trkpt>
        <trkpt lat="28.02015" lon="105.622725"><ele>1053.1</ele><time>2025-11-21T23:40:47.000Z</time></trkpt>
        <trkpt lat="28.020149" lon="105.622726"><ele>1053.1</ele><time>2025-11-21T23:40:48.000Z</time></trkpt>
        <trkpt lat="28.020149" lon="105.622726"><ele>1053.1</ele><time>2025-11-21T23:40:49.000Z</time></trkpt>
        <trkpt lat="28.020148" lon="105.622726"><ele>1053.1</ele><time>2025-11-21T23:40:50.000Z</time></trkpt>
        <trkpt lat="28.020148" lon="105.622726"><ele>1053.1</ele><time>2025-11-21T23:40:51.000Z</time></trkpt>
        <trkpt lat="28.020148" lon="105.622726"><ele>1053.1</ele><time>2025-11-21T23:40:52.000Z</time></trkpt>
        <trkpt lat="28.020149" lon="105.622725"><ele>1053.1</ele><time>2025-11-21T23:40:53.000Z</time></trkpt>
        <trkpt lat="28.020151" lon="105.622724"><ele>1053.1</ele><time>2025-11-21T23:40:54.000Z</time></trkpt>
        <trkpt lat="28.020152" lon="105.622725"><ele>1053.1</ele><time>2025-11-21T23:40:55.000Z</time></trkpt>
        <trkpt lat="28.020154" lon="105.622725"><ele>1053.1</ele><time>2025-11-21T23:40:56.000Z</time></trkpt>
        <trkpt lat="28.020155" lon="105.622725"><ele>1053.1</ele><time>2025-11-21T23:40:57.000Z</time></trkpt>
        <trkpt lat="28.020156" lon="105.622725"><ele>1053.1</ele><time>2025-11-21T23:40:58.000Z</time></trkpt>
        <trkpt lat="28.020157" lon="105.622725"><ele>1053.1</ele><time>2025-11-21T23:40:59.000Z</time></trkpt>
        <trkpt lat="28.020157" lon="105.622724"><ele>1053.1</ele><time>2025-11-21T23:41:00.000Z</time></trkpt>
        <trkpt lat="28.020158" lon="105.622723"><ele>1053.1</ele><time>2025-11-21T23:41:01.000Z</time></trkpt>
        <trkpt lat="28.020159" lon="105.622722"><ele>1053.1</ele><time>2025-11-21T23:41:02.000Z</time></trkpt>
        <trkpt lat="28.02016" lon="105.622721"><ele>1053.1</ele><time>2025-11-21T23:41:03.000Z</time></trkpt>
        <trkpt lat="28.020161" lon="105.62272"><ele>1053.1</ele><time>2025-11-21T23:41:04.000Z</time></trkpt>
        <trkpt lat="28.020162" lon="105.622719"><ele>1053.1</ele><time>2025-11-21T23:41:05.000Z</time></trkpt>
        <trkpt lat="28.020164" lon="105.622718"><ele>1053.1</ele><time>2025-11-21T23:41:06.000Z</time></trkpt>
        <trkpt lat="28.020165" lon="105.622717"><ele>1053.1</ele><time>2025-11-21T23:41:07.000Z</time></trkpt>
        <trkpt lat="28.020166" lon="105.622716"><ele>1053.1</ele><time>2025-11-21T23:41:08.000Z</time></trkpt>
        <trkpt lat="28.020166" lon="105.622714"><ele>1053.1</ele><time>2025-11-21T23:41:09.000Z</time></trkpt>
        <trkpt lat="28.020167" lon="105.622713"><ele>1053.1</ele><time>2025-11-21T23:41:10.000Z</time></trkpt>
        <trkpt lat="28.020167" lon="105.622713"><ele>1053.1</ele><time>2025-11-21T23:41:11.000Z</time></trkpt>
        <trkpt lat="28.020167" lon="105.622712"><ele>1053.1</ele><time>2025-11-21T23:41:12.000Z</time></trkpt>
        <trkpt lat="28.020169" lon="105.62271"><ele>1053.1</ele><time>2025-11-21T23:41:13.000Z</time></trkpt>
        <trkpt lat="28.02017" lon="105.622709"><ele>1053.1</ele><time>2025-11-21T23:41:14.000Z</time></trkpt>
        <trkpt lat="28.020171" lon="105.622708"><ele>1053.1</ele><time>2025-11-21T23:41:15.000Z</time></trkpt>
        <trkpt lat="28.020172" lon="105.622708"><ele>1053.1</ele><time>2025-11-21T23:41:16.000Z</time></trkpt>
        <trkpt lat="28.020173" lon="105.622707"><ele>1053.1</ele><time>2025-11-21T23:41:17.000Z</time></trkpt>
        <trkpt lat="28.020173" lon="105.622707"><ele>1053.1</ele><time>2025-11-21T23:41:18.000Z</time></trkpt>
        <trkpt lat="28.020173" lon="105.622707"><ele>1053.1</ele><time>2025-11-21T23:41:19.000Z</time></trkpt>
        <trkpt lat="28.020174" lon="105.622706"><ele>1053.1</ele><time>2025-11-21T23:41:20.000Z</time></trkpt>
        <trkpt lat="28.020174" lon="105.622705"><ele>1053.1</ele><time>2025-11-21T23:41:21.000Z</time></trkpt>
        <trkpt lat="28.020174" lon="105.622704"><ele>1053.1</ele><time>2025-11-21T23:41:22.000Z</time></trkpt>
        <trkpt lat="28.020174" lon="105.622702"><ele>1053.1</ele><time>2025-11-21T23:41:23.000Z</time></trkpt>
        <trkpt lat="28.020173" lon="105.6227"><ele>1053.1</ele><time>2025-11-21T23:41:24.000Z</time></trkpt>
        <trkpt lat="28.020172" lon="105.6227"><ele>1053.1</ele><time>2025-11-21T23:41:25.000Z</time></trkpt>
        <trkpt lat="28.020171" lon="105.622699"><ele>1053.1</ele><time>2025-11-21T23:41:26.000Z</time></trkpt>
        <trkpt lat="28.020169" lon="105.622698"><ele>1053.1</ele><time>2025-11-21T23:41:27.000Z</time></trkpt>
        <trkpt lat="28.020168" lon="105.622698"><ele>1053.1</ele><time>2025-11-21T23:41:28.000Z</time></trkpt>
        <trkpt lat="28.020168" lon="105.622697"><ele>1053.1</ele><time>2025-11-21T23:41:29.000Z</time></trkpt>
        <trkpt lat="28.020167" lon="105.622696"><ele>1053.1</ele><time>2025-11-21T23:41:30.000Z</time></trkpt>
        <trkpt lat="28.020167" lon="105.622696"><ele>1053.1</ele><time>2025-11-21T23:41:31.000Z</time></trkpt>
        <trkpt lat="28.020166" lon="105.622696"><ele>1053.1</ele><time>2025-11-21T23:41:32.000Z</time></trkpt>
        <trkpt lat="28.020164" lon="105.622696"><ele>1053.1</ele><time>2025-11-21T23:41:33.000Z</time></trkpt>
        <trkpt lat="28.02016" lon="105.622694"><ele>1053.1</ele><time>2025-11-21T23:41:34.000Z</time></trkpt>
        <trkpt lat="28.020155" lon="105.622691"><ele>1053.1</ele><time>2025-11-21T23:41:35.000Z</time></trkpt>
        <trkpt lat="28.02015" lon="105.622685"><ele>1053.1</ele><time>2025-11-21T23:41:36.000Z</time></trkpt>
        <trkpt lat="28.020144" lon="105.622681"><ele>1053.1</ele><time>2025-11-21T23:41:37.000Z</time></trkpt>
        <trkpt lat="28.020138" lon="105.622678"><ele>1053.1</ele><time>2025-11-21T23:41:38.000Z</time></trkpt>
        <trkpt lat="28.020133" lon="105.622677"><ele>1053.1</ele><time>2025-11-21T23:41:39.000Z</time></trkpt>
        <trkpt lat="28.020129" lon="105.62268"><ele>1053.1</ele><time>2025-11-21T23:41:40.000Z</time></trkpt>
        <trkpt lat="28.020124" lon="105.622686"><ele>1053.1</ele><time>2025-11-21T23:41:41.000Z</time></trkpt>
        <trkpt lat="28.020122" lon="105.622692"><ele>1053.1</ele><time>2025-11-21T23:41:42.000Z</time></trkpt>
        <trkpt lat="28.020122" lon="105.6227"><ele>1053.1</ele><time>2025-11-21T23:41:43.000Z</time></trkpt>
        <trkpt lat="28.020123" lon="105.622707"><ele>1053.1</ele><time>2025-11-21T23:41:44.000Z</time></trkpt>
        <trkpt lat="28.020125" lon="105.622712"><ele>1053.1</ele><time>2025-11-21T23:41:45.000Z</time></trkpt>
        <trkpt lat="28.020128" lon="105.622718"><ele>1053.1</ele><time>2025-11-21T23:41:46.000Z</time></trkpt>
        <trkpt lat="28.020131" lon="105.622722"><ele>1052.7</ele><time>2025-11-21T23:41:47.000Z</time></trkpt>
        <trkpt lat="28.020132" lon="105.622726"><ele>1052.7</ele><time>2025-11-21T23:41:48.000Z</time></trkpt>
        <trkpt lat="28.020133" lon="105.622729"><ele>1052.7</ele><time>2025-11-21T23:41:49.000Z</time></trkpt>
        <trkpt lat="28.020134" lon="105.622733"><ele>1052.7</ele><time>2025-11-21T23:41:50.000Z</time></trkpt>
        <trkpt lat="28.020134" lon="105.622736"><ele>1052.7</ele><time>2025-11-21T23:41:51.000Z</time></trkpt>
        <trkpt lat="28.020134" lon="105.62274"><ele>1052.1</ele><time>2025-11-21T23:41:52.000Z</time></trkpt>
        <trkpt lat="28.020134" lon="105.622743"><ele>1052.1</ele><time>2025-11-21T23:41:53.000Z</time></trkpt>
        <trkpt lat="28.020134" lon="105.622745"><ele>1052.1</ele><time>2025-11-21T23:41:54.000Z</time></trkpt>
        <trkpt lat="28.020135" lon="105.622747"><ele>1052.1</ele><time>2025-11-21T23:41:55.000Z</time></trkpt>
        <trkpt lat="28.020136" lon="105.622748"><ele>1052.1</ele><time>2025-11-21T23:41:56.000Z</time></trkpt>
        <trkpt lat="28.020136" lon="105.622749"><ele>1051.5</ele><time>2025-11-21T23:41:57.000Z</time></trkpt>
        <trkpt lat="28.020137" lon="105.622751"><ele>1051.5</ele><time>2025-11-21T23:41:58.000Z</time></trkpt>
        <trkpt lat="28.020138" lon="105.622753"><ele>1051.5</ele><time>2025-11-21T23:41:59.000Z</time></trkpt>
        <trkpt lat="28.020139" lon="105.622759"><ele>1051.5</ele><time>2025-11-21T23:42:00.000Z</time></trkpt>
        <trkpt lat="28.020142" lon="105.622766"><ele>1051.5</ele><time>2025-11-21T23:42:01.000Z</time></trkpt>
        <trkpt lat="28.020146" lon="105.622774"><ele>1050.6</ele><time>2025-11-21T23:42:02.000Z</time></trkpt>
        <trkpt lat="28.02015" lon="105.622783"><ele>1050.6</ele><time>2025-11-21T23:42:03.000Z</time></trkpt>
        <trkpt lat="28.020155" lon="105.622791"><ele>1050.6</ele><time>2025-11-21T23:42:04.000Z</time></trkpt>
        <trkpt lat="28.020158" lon="105.6228"><ele>1050.6</ele><time>2025-11-21T23:42:05.000Z</time></trkpt>
        <trkpt lat="28.020161" lon="105.622808"><ele>1050.6</ele><time>2025-11-21T23:42:06.000Z</time></trkpt>
        <trkpt lat="28.020167" lon="105.622816"><ele>1050</ele><time>2025-11-21T23:42:07.000Z</time></trkpt>
        <trkpt lat="28.020172" lon="105.622825"><ele>1050</ele><time>2025-11-21T23:42:08.000Z</time></trkpt>
        <trkpt lat="28.020177" lon="105.622834"><ele>1050</ele><time>2025-11-21T23:42:09.000Z</time></trkpt>
        <trkpt lat="28.020183" lon="105.622841"><ele>1050</ele><time>2025-11-21T23:42:10.000Z</time></trkpt>
        <trkpt lat="28.02019" lon="105.622849"><ele>1050</ele><time>2025-11-21T23:42:11.000Z</time></trkpt>
        <trkpt lat="28.020194" lon="105.622856"><ele>1049</ele><time>2025-11-21T23:42:12.000Z</time></trkpt>
        <trkpt lat="28.020198" lon="105.622862"><ele>1049</ele><time>2025-11-21T23:42:13.000Z</time></trkpt>
        <trkpt lat="28.020202" lon="105.622869"><ele>1049</ele><time>2025-11-21T23:42:14.000Z</time></trkpt>
        <trkpt lat="28.020205" lon="105.622878"><ele>1049</ele><time>2025-11-21T23:42:15.000Z</time></trkpt>
        <trkpt lat="28.020208" lon="105.622888"><ele>1049</ele><time>2025-11-21T23:42:16.000Z</time></trkpt>
        <trkpt lat="28.020211" lon="105.622898"><ele>1048.4</ele><time>2025-11-21T23:42:17.000Z</time></trkpt>
        <trkpt lat="28.020213" lon="105.622909"><ele>1048.4</ele><time>2025-11-21T23:42:18.000Z</time></trkpt>
        <trkpt lat="28.020216" lon="105.622919"><ele>1048.4</ele><time>2025-11-21T23:42:19.000Z</time></trkpt>
        <trkpt lat="28.020219" lon="105.622928"><ele>1048.4</ele><time>2025-11-21T23:42:20.000Z</time></trkpt>
        <trkpt lat="28.02022" lon="105.622936"><ele>1048.4</ele><time>2025-11-21T23:42:21.000Z</time></trkpt>
        <trkpt lat="28.020222" lon="105.622942"><ele>1047.9</ele><time>2025-11-21T23:42:22.000Z</time></trkpt>
        <trkpt lat="28.020224" lon="105.622948"><ele>1047.9</ele><time>2025-11-21T23:42:23.000Z</time></trkpt>
        <trkpt lat="28.020225" lon="105.622956"><ele>1047.9</ele><time>2025-11-21T23:42:24.000Z</time></trkpt>
        <trkpt lat="28.020224" lon="105.622964"><ele>1047.9</ele><time>2025-11-21T23:42:25.000Z</time></trkpt>
        <trkpt lat="28.020223" lon="105.622972"><ele>1047.9</ele><time>2025-11-21T23:42:26.000Z</time></trkpt>
        <trkpt lat="28.020221" lon="105.622981"><ele>1047.9</ele><time>2025-11-21T23:42:27.000Z</time></trkpt>
        <trkpt lat="28.020219" lon="105.62299"><ele>1047.9</ele><time>2025-11-21T23:42:28.000Z</time></trkpt>
        <trkpt lat="28.020219" lon="105.622999"><ele>1047.9</ele><time>2025-11-21T23:42:29.000Z</time></trkpt>
        <trkpt lat="28.02022" lon="105.623007"><ele>1047.9</ele><time>2025-11-21T23:42:30.000Z</time></trkpt>
        <trkpt lat="28.020223" lon="105.623015"><ele>1047.9</ele><time>2025-11-21T23:42:31.000Z</time></trkpt>
        <trkpt lat="28.020226" lon="105.623025"><ele>1048.2</ele><time>2025-11-21T23:42:32.000Z</time></trkpt>
        <trkpt lat="28.02023" lon="105.623034"><ele>1048.2</ele><time>2025-11-21T23:42:33.000Z</time></trkpt>
        <trkpt lat="28.020233" lon="105.623044"><ele>1048.2</ele><time>2025-11-21T23:42:34.000Z</time></trkpt>
        <trkpt lat="28.020235" lon="105.623054"><ele>1048.2</ele><time>2025-11-21T23:42:35.000Z</time></trkpt>
        <trkpt lat="28.020237" lon="105.623063"><ele>1048.2</ele><time>2025-11-21T23:42:36.000Z</time></trkpt>
        <trkpt lat="28.020239" lon="105.623072"><ele>1048.8</ele><time>2025-11-21T23:42:37.000Z</time></trkpt>
        <trkpt lat="28.02024" lon="105.62308"><ele>1048.8</ele><time>2025-11-21T23:42:38.000Z</time></trkpt>
        <trkpt lat="28.020242" lon="105.623086"><ele>1048.8</ele><time>2025-11-21T23:42:39.000Z</time></trkpt>
        <trkpt lat="28.020244" lon="105.62309"><ele>1048.8</ele><time>2025-11-21T23:42:40.000Z</time></trkpt>
        <trkpt lat="28.020247" lon="105.623094"><ele>1048.8</ele><time>2025-11-21T23:42:41.000Z</time></trkpt>
        <trkpt lat="28.02025" lon="105.623099"><ele>1049</ele><time>2025-11-21T23:42:42.000Z</time></trkpt>
        <trkpt lat="28.020253" lon="105.623104"><ele>1049</ele><time>2025-11-21T23:42:43.000Z</time></trkpt>
        <trkpt lat="28.020254" lon="105.62311"><ele>1049</ele><time>2025-11-21T23:42:44.000Z</time></trkpt>
        <trkpt lat="28.020255" lon="105.623119"><ele>1049</ele><time>2025-11-21T23:42:45.000Z</time></trkpt>
        <trkpt lat="28.020256" lon="105.623128"><ele>1049</ele><time>2025-11-21T23:42:46.000Z</time></trkpt>
        <trkpt lat="28.020254" lon="105.623138"><ele>1049.3</ele><time>2025-11-21T23:42:47.000Z</time></trkpt>
        <trkpt lat="28.020251" lon="105.623148"><ele>1049.3</ele><time>2025-11-21T23:42:48.000Z</time></trkpt>
        <trkpt lat="28.020249" lon="105.623158"><ele>1049.3</ele><time>2025-11-21T23:42:49.000Z</time></trkpt>
        <trkpt lat="28.020245" lon="105.623168"><ele>1049.3</ele><time>2025-11-21T23:42:50.000Z</time></trkpt>
        <trkpt lat="28.020242" lon="105.623176"><ele>1049.3</ele><time>2025-11-21T23:42:51.000Z</time></trkpt>
        <trkpt lat="28.02024" lon="105.623183"><ele>1049.7</ele><time>2025-11-21T23:42:52.000Z</time></trkpt>
        <trkpt lat="28.020239" lon="105.62319"><ele>1049.7</ele><time>2025-11-21T23:42:53.000Z</time></trkpt>
        <trkpt lat="28.02024" lon="105.623197"><ele>1049.7</ele><time>2025-11-21T23:42:54.000Z</time></trkpt>
        <trkpt lat="28.020241" lon="105.623203"><ele>1049.7</ele><time>2025-11-21T23:42:55.000Z</time></trkpt>
        <trkpt lat="28.020243" lon="105.623209"><ele>1049.7</ele><time>2025-11-21T23:42:56.000Z</time></trkpt>
        <trkpt lat="28.020246" lon="105.623215"><ele>1050.2</ele><time>2025-11-21T23:42:57.000Z</time></trkpt>
        <trkpt lat="28.020249" lon="105.623222"><ele>1050.2</ele><time>2025-11-21T23:42:58.000Z</time></trkpt>
        <trkpt lat="28.020251" lon="105.623228"><ele>1050.2</ele><time>2025-11-21T23:42:59.000Z</time></trkpt>
        <trkpt lat="28.020254" lon="105.623235"><ele>1050.2</ele><time>2025-11-21T23:43:00.000Z</time></trkpt>
        <trkpt lat="28.020255" lon="105.623243"><ele>1050.2</ele><time>2025-11-21T23:43:01.000Z</time></trkpt>
        <trkpt lat="28.020256" lon="105.623253"><ele>1050.6</ele><time>2025-11-21T23:43:02.000Z</time></trkpt>
        <trkpt lat="28.020256" lon="105.623261"><ele>1050.6</ele><time>2025-11-21T23:43:03.000Z</time></trkpt>
        <trkpt lat="28.020256" lon="105.623269"><ele>1050.6</ele><time>2025-11-21T23:43:04.000Z</time></trkpt>
        <trkpt lat="28.020257" lon="105.623277"><ele>1050.6</ele><time>2025-11-21T23:43:05.000Z</time></trkpt>
        <trkpt lat="28.020258" lon="105.623285"><ele>1050.6</ele><time>2025-11-21T23:43:06.000Z</time></trkpt>
        <trkpt lat="28.020259" lon="105.623291"><ele>1051.6</ele><time>2025-11-21T23:43:07.000Z</time></trkpt>
        <trkpt lat="28.020261" lon="105.623295"><ele>1051.6</ele><time>2025-11-21T23:43:08.000Z</time></trkpt>
        <trkpt lat="28.020263" lon="105.6233"><ele>1051.6</ele><time>2025-11-21T23:43:09.000Z</time></trkpt>
        <trkpt lat="28.020267" lon="105.623304"><ele>1051.6</ele><time>2025-11-21T23:43:10.000Z</time></trkpt>
        <trkpt lat="28.020271" lon="105.623309"><ele>1051.6</ele><time>2025-11-21T23:43:11.000Z</time></trkpt>
        <trkpt lat="28.020276" lon="105.623314"><ele>1052.6</ele><time>2025-11-21T23:43:12.000Z</time></trkpt>
        <trkpt lat="28.020281" lon="105.62332"><ele>1052.6</ele><time>2025-11-21T23:43:13.000Z</time></trkpt>
        <trkpt lat="28.020285" lon="105.623327"><ele>1052.6</ele><time>2025-11-21T23:43:14.000Z</time></trkpt>
        <trkpt lat="28.020288" lon="105.623336"><ele>1052.6</ele><time>2025-11-21T23:43:15.000Z</time></trkpt>
        <trkpt lat="28.02029" lon="105.623344"><ele>1052.6</ele><time>2025-11-21T23:43:16.000Z</time></trkpt>
        <trkpt lat="28.02029" lon="105.623353"><ele>1053.6</ele><time>2025-11-21T23:43:17.000Z</time></trkpt>
        <trkpt lat="28.020291" lon="105.62336"><ele>1053.6</ele><time>2025-11-21T23:43:18.000Z</time></trkpt>
        <trkpt lat="28.020292" lon="105.623366"><ele>1053.6</ele><time>2025-11-21T23:43:19.000Z</time></trkpt>
        <trkpt lat="28.020293" lon="105.623371"><ele>1053.6</ele><time>2025-11-21T23:43:20.000Z</time></trkpt>
        <trkpt lat="28.020294" lon="105.623375"><ele>1053.6</ele><time>2025-11-21T23:43:21.000Z</time></trkpt>
        <trkpt lat="28.020295" lon="105.623376"><ele>1054.5</ele><time>2025-11-21T23:43:22.000Z</time></trkpt>
        <trkpt lat="28.020295" lon="105.623377"><ele>1054.5</ele><time>2025-11-21T23:43:23.000Z</time></trkpt>
        <trkpt lat="28.020296" lon="105.623378"><ele>1054.5</ele><time>2025-11-21T23:43:24.000Z</time></trkpt>
        <trkpt lat="28.020297" lon="105.623378"><ele>1054.5</ele><time>2025-11-21T23:43:25.000Z</time></trkpt>
        <trkpt lat="28.020298" lon="105.623378"><ele>1054.5</ele><time>2025-11-21T23:43:26.000Z</time></trkpt>
        <trkpt lat="28.0203" lon="105.62338"><ele>1055.2</ele><time>2025-11-21T23:43:27.000Z</time></trkpt>
        <trkpt lat="28.020303" lon="105.623383"><ele>1055.2</ele><time>2025-11-21T23:43:28.000Z</time></trkpt>
        <trkpt lat="28.020306" lon="105.623387"><ele>1055.2</ele><time>2025-11-21T23:43:29.000Z</time></trkpt>
        <trkpt lat="28.020309" lon="105.623393"><ele>1055.2</ele><time>2025-11-21T23:43:30.000Z</time></trkpt>
        <trkpt lat="28.020313" lon="105.623398"><ele>1055.2</ele><time>2025-11-21T23:43:31.000Z</time></trkpt>
        <trkpt lat="28.020317" lon="105.623402"><ele>1056</ele><time>2025-11-21T23:43:32.000Z</time></trkpt>
        <trkpt lat="28.020321" lon="105.623406"><ele>1056</ele><time>2025-11-21T23:43:33.000Z</time></trkpt>
        <trkpt lat="28.020327" lon="105.62341"><ele>1056</ele><time>2025-11-21T23:43:34.000Z</time></trkpt>
        <trkpt lat="28.020332" lon="105.623412"><ele>1056</ele><time>2025-11-21T23:43:35.000Z</time></trkpt>
        <trkpt lat="28.020338" lon="105.623415"><ele>1056</ele><time>2025-11-21T23:43:36.000Z</time></trkpt>
        <trkpt lat="28.020343" lon="105.623419"><ele>1056.4</ele><time>2025-11-21T23:43:37.000Z</time></trkpt>
        <trkpt lat="28.020348" lon="105.623421"><ele>1056.4</ele><time>2025-11-21T23:43:38.000Z</time></trkpt>
        <trkpt lat="28.020353" lon="105.623425"><ele>1056.4</ele><time>2025-11-21T23:43:39.000Z</time></trkpt>
        <trkpt lat="28.020358" lon="105.623429"><ele>1056.4</ele><time>2025-11-21T23:43:40.000Z</time></trkpt>
        <trkpt lat="28.020363" lon="105.623434"><ele>1056.4</ele><time>2025-11-21T23:43:41.000Z</time></trkpt>
        <trkpt lat="28.020368" lon="105.62344"><ele>1057.1</ele><time>2025-11-21T23:43:42.000Z</time></trkpt>
        <trkpt lat="28.020373" lon="105.623447"><ele>1057.1</ele><time>2025-11-21T23:43:43.000Z</time></trkpt>
        <trkpt lat="28.020378" lon="105.623455"><ele>1057.1</ele><time>2025-11-21T23:43:44.000Z</time></trkpt>
        <trkpt lat="28.020382" lon="105.623465"><ele>1057.1</ele><time>2025-11-21T23:43:45.000Z</time></trkpt>
        <trkpt lat="28.020385" lon="105.623474"><ele>1057.1</ele><time>2025-11-21T23:43:46.000Z</time></trkpt>
        <trkpt lat="28.020388" lon="105.623484"><ele>1057.6</ele><time>2025-11-21T23:43:47.000Z</time></trkpt>
        <trkpt lat="28.02039" lon="105.623494"><ele>1057.6</ele><time>2025-11-21T23:43:48.000Z</time></trkpt>
        <trkpt lat="28.020391" lon="105.623505"><ele>1057.6</ele><time>2025-11-21T23:43:49.000Z</time></trkpt>
        <trkpt lat="28.020391" lon="105.623516"><ele>1057.6</ele><time>2025-11-21T23:43:50.000Z</time></trkpt>
        <trkpt lat="28.020389" lon="105.623527"><ele>1057.6</ele><time>2025-11-21T23:43:51.000Z</time></trkpt>
        <trkpt lat="28.020388" lon="105.623538"><ele>1058.2</ele><time>2025-11-21T23:43:52.000Z</time></trkpt>
        <trkpt lat="28.020386" lon="105.623547"><ele>1058.2</ele><time>2025-11-21T23:43:53.000Z</time></trkpt>
        <trkpt lat="28.020385" lon="105.623555"><ele>1058.2</ele><time>2025-11-21T23:43:54.000Z</time></trkpt>
        <trkpt lat="28.020384" lon="105.623561"><ele>1058.2</ele><time>2025-11-21T23:43:55.000Z</time></trkpt>
        <trkpt lat="28.020383" lon="105.623567"><ele>1058.2</ele><time>2025-11-21T23:43:56.000Z</time></trkpt>
        <trkpt lat="28.020381" lon="105.623572"><ele>1058.5</ele><time>2025-11-21T23:43:57.000Z</time></trkpt>
        <trkpt lat="28.020378" lon="105.623577"><ele>1058.5</ele><time>2025-11-21T23:43:58.000Z</time></trkpt>
        <trkpt lat="28.020374" lon="105.623583"><ele>1058.5</ele><time>2025-11-21T23:43:59.000Z</time></trkpt>
        <trkpt lat="28.02037" lon="105.623588"><ele>1058.5</ele><time>2025-11-21T23:44:00.000Z</time></trkpt>
        <trkpt lat="28.020367" lon="105.623593"><ele>1058.5</ele><time>2025-11-21T23:44:01.000Z</time></trkpt>
        <trkpt lat="28.020364" lon="105.623599"><ele>1059</ele><time>2025-11-21T23:44:02.000Z</time></trkpt>
        <trkpt lat="28.020362" lon="105.623605"><ele>1059</ele><time>2025-11-21T23:44:03.000Z</time></trkpt>
        <trkpt lat="28.020359" lon="105.623612"><ele>1059</ele><time>2025-11-21T23:44:04.000Z</time></trkpt>
        <trkpt lat="28.020356" lon="105.62362"><ele>1059</ele><time>2025-11-21T23:44:05.000Z</time></trkpt>
        <trkpt lat="28.020354" lon="105.623627"><ele>1059</ele><time>2025-11-21T23:44:06.000Z</time></trkpt>
        <trkpt lat="28.020352" lon="105.623634"><ele>1059.6</ele><time>2025-11-21T23:44:07.000Z</time></trkpt>
        <trkpt lat="28.020351" lon="105.623642"><ele>1059.6</ele><time>2025-11-21T23:44:08.000Z</time></trkpt>
        <trkpt lat="28.02035" lon="105.623648"><ele>1059.6</ele><time>2025-11-21T23:44:09.000Z</time></trkpt>
        <trkpt lat="28.02035" lon="105.623654"><ele>1059.6</ele><time>2025-11-21T23:44:10.000Z</time></trkpt>
        <trkpt lat="28.02035" lon="105.62366"><ele>1059.6</ele><time>2025-11-21T23:44:11.000Z</time></trkpt>
        <trkpt lat="28.020351" lon="105.623667"><ele>1060.5</ele><time>2025-11-21T23:44:12.000Z</time></trkpt>
        <trkpt lat="28.02035" lon="105.623673"><ele>1060.5</ele><time>2025-11-21T23:44:13.000Z</time></trkpt>
        <trkpt lat="28.020352" lon="105.623678"><ele>1060.5</ele><time>2025-11-21T23:44:14.000Z</time></trkpt>
        <trkpt lat="28.020352" lon="105.623684"><ele>1060.5</ele><time>2025-11-21T23:44:15.000Z</time></trkpt>
        <trkpt lat="28.020353" lon="105.623689"><ele>1060.5</ele><time>2025-11-21T23:44:16.000Z</time></trkpt>
        <trkpt lat="28.020354" lon="105.623695"><ele>1061.6</ele><time>2025-11-21T23:44:17.000Z</time></trkpt>
        <trkpt lat="28.020354" lon="105.6237"><ele>1061.6</ele><time>2025-11-21T23:44:18.000Z</time></trkpt>
        <trkpt lat="28.020354" lon="105.623706"><ele>1061.6</ele><time>2025-11-21T23:44:19.000Z</time></trkpt>
        <trkpt lat="28.020355" lon="105.623713"><ele>1061.6</ele><time>2025-11-21T23:44:20.000Z</time></trkpt>
        <trkpt lat="28.020356" lon="105.62372"><ele>1061.6</ele><time>2025-11-21T23:44:21.000Z</time></trkpt>
        <trkpt lat="28.020356" lon="105.623726"><ele>1062.6</ele><time>2025-11-21T23:44:22.000Z</time></trkpt>
        <trkpt lat="28.020357" lon="105.623733"><ele>1062.6</ele><time>2025-11-21T23:44:23.000Z</time></trkpt>
        <trkpt lat="28.020358" lon="105.623739"><ele>1062.6</ele><time>2025-11-21T23:44:24.000Z</time></trkpt>
        <trkpt lat="28.020359" lon="105.623745"><ele>1062.6</ele><time>2025-11-21T23:44:25.000Z</time></trkpt>
        <trkpt lat="28.02036" lon="105.623751"><ele>1062.6</ele><time>2025-11-21T23:44:26.000Z</time></trkpt>
        <trkpt lat="28.020362" lon="105.623757"><ele>1063.6</ele><time>2025-11-21T23:44:27.000Z</time></trkpt>
        <trkpt lat="28.020364" lon="105.623762"><ele>1063.6</ele><time>2025-11-21T23:44:28.000Z</time></trkpt>
        <trkpt lat="28.020367" lon="105.623768"><ele>1063.6</ele><time>2025-11-21T23:44:29.000Z</time></trkpt>
        <trkpt lat="28.020371" lon="105.623774"><ele>1063.6</ele><time>2025-11-21T23:44:30.000Z</time></trkpt>
        <trkpt lat="28.020375" lon="105.623779"><ele>1063.6</ele><time>2025-11-21T23:44:31.000Z</time></trkpt>
        <trkpt lat="28.020379" lon="105.623784"><ele>1064.6</ele><time>2025-11-21T23:44:32.000Z</time></trkpt>
        <trkpt lat="28.020384" lon="105.623788"><ele>1064.6</ele><time>2025-11-21T23:44:33.000Z</time></trkpt>
        <trkpt lat="28.020388" lon="105.623793"><ele>1064.6</ele><time>2025-11-21T23:44:34.000Z</time></trkpt>
        <trkpt lat="28.020392" lon="105.623798"><ele>1064.6</ele><time>2025-11-21T23:44:35.000Z</time></trkpt>
        <trkpt lat="28.020396" lon="105.623802"><ele>1064.6</ele><time>2025-11-21T23:44:36.000Z</time></trkpt>
        <trkpt lat="28.020399" lon="105.623807"><ele>1065.6</ele><time>2025-11-21T23:44:37.000Z</time></trkpt>
        <trkpt lat="28.020402" lon="105.62381"><ele>1065.6</ele><time>2025-11-21T23:44:38.000Z</time></trkpt>
        <trkpt lat="28.020406" lon="105.623815"><ele>1065.6</ele><time>2025-11-21T23:44:39.000Z</time></trkpt>
        <trkpt lat="28.02041" lon="105.623819"><ele>1065.6</ele><time>2025-11-21T23:44:40.000Z</time></trkpt>
        <trkpt lat="28.020413" lon="105.623824"><ele>1065.6</ele><time>2025-11-21T23:44:41.000Z</time></trkpt>
        <trkpt lat="28.020417" lon="105.623829"><ele>1066.7</ele><time>2025-11-21T23:44:42.000Z</time></trkpt>
        <trkpt lat="28.020422" lon="105.623834"><ele>1066.7</ele><time>2025-11-21T23:44:43.000Z</time></trkpt>
        <trkpt lat="28.020427" lon="105.623838"><ele>1066.7</ele><time>2025-11-21T23:44:44.000Z</time></trkpt>
        <trkpt lat="28.020431" lon="105.623842"><ele>1066.7</ele><time>2025-11-21T23:44:45.000Z</time></trkpt>
        <trkpt lat="28.020436" lon="105.623845"><ele>1066.7</ele><time>2025-11-21T23:44:46.000Z</time></trkpt>
        <trkpt lat="28.020441" lon="105.623849"><ele>1067.6</ele><time>2025-11-21T23:44:47.000Z</time></trkpt>
        <trkpt lat="28.020445" lon="105.623853"><ele>1067.6</ele><time>2025-11-21T23:44:48.000Z</time></trkpt>
        <trkpt lat="28.020448" lon="105.623856"><ele>1067.6</ele><time>2025-11-21T23:44:49.000Z</time></trkpt>
        <trkpt lat="28.020451" lon="105.623859"><ele>1067.6</ele><time>2025-11-21T23:44:50.000Z</time></trkpt>
        <trkpt lat="28.020452" lon="105.623862"><ele>1067.6</ele><time>2025-11-21T23:44:51.000Z</time></trkpt>
        <trkpt lat="28.020453" lon="105.623863"><ele>1068.5</ele><time>2025-11-21T23:44:52.000Z</time></trkpt>
        <trkpt lat="28.020454" lon="105.623863"><ele>1068.5</ele><time>2025-11-21T23:44:53.000Z</time></trkpt>
        <trkpt lat="28.020455" lon="105.623864"><ele>1068.5</ele><time>2025-11-21T23:44:54.000Z</time></trkpt>
        <trkpt lat="28.020455" lon="105.623864"><ele>1068.5</ele><time>2025-11-21T23:44:55.000Z</time></trkpt>
        <trkpt lat="28.020458" lon="105.623864"><ele>1068.5</ele><time>2025-11-21T23:44:56.000Z</time></trkpt>
        <trkpt lat="28.02046" lon="105.623864"><ele>1069.2</ele><time>2025-11-21T23:44:57.000Z</time></trkpt>
        <trkpt lat="28.020461" lon="105.623865"><ele>1069.2</ele><time>2025-11-21T23:44:58.000Z</time></trkpt>
        <trkpt lat="28.020463" lon="105.623865"><ele>1069.2</ele><time>2025-11-21T23:44:59.000Z</time></trkpt>
        <trkpt lat="28.020465" lon="105.623865"><ele>1069.2</ele><time>2025-11-21T23:45:00.000Z</time></trkpt>
        <trkpt lat="28.020466" lon="105.623865"><ele>1069.2</ele><time>2025-11-21T23:45:01.000Z</time></trkpt>
        <trkpt lat="28.02047" lon="105.623865"><ele>1070</ele><time>2025-11-21T23:45:02.000Z</time></trkpt>
        <trkpt lat="28.020473" lon="105.623866"><ele>1070</ele><time>2025-11-21T23:45:03.000Z</time></trkpt>
        <trkpt lat="28.020478" lon="105.623867"><ele>1070</ele><time>2025-11-21T23:45:04.000Z</time></trkpt>
        <trkpt lat="28.020484" lon="105.62387"><ele>1070</ele><time>2025-11-21T23:45:05.000Z</time></trkpt>
        <trkpt lat="28.020488" lon="105.623875"><ele>1070</ele><time>2025-11-21T23:45:06.000Z</time></trkpt>
        <trkpt lat="28.020491" lon="105.62388"><ele>1070.3</ele><time>2025-11-21T23:45:07.000Z</time></trkpt>
        <trkpt lat="28.020494" lon="105.623886"><ele>1070.3</ele><time>2025-11-21T23:45:08.000Z</time></trkpt>
        <trkpt lat="28.020496" lon="105.623893"><ele>1070.3</ele><time>2025-11-21T23:45:09.000Z</time></trkpt>
        <trkpt lat="28.020498" lon="105.623899"><ele>1070.3</ele><time>2025-11-21T23:45:10.000Z</time></trkpt>
        <trkpt lat="28.020501" lon="105.623904"><ele>1070.3</ele><time>2025-11-21T23:45:11.000Z</time></trkpt>
        <trkpt lat="28.020503" lon="105.623909"><ele>1070.5</ele><time>2025-11-21T23:45:12.000Z</time></trkpt>
        <trkpt lat="28.020505" lon="105.623913"><ele>1070.5</ele><time>2025-11-21T23:45:13.000Z</time></trkpt>
        <trkpt lat="28.020507" lon="105.623917"><ele>1070.5</ele><time>2025-11-21T23:45:14.000Z</time></trkpt>
        <trkpt lat="28.020509" lon="105.623922"><ele>1070.5</ele><time>2025-11-21T23:45:15.000Z</time></trkpt>
        <trkpt lat="28.02051" lon="105.623927"><ele>1070.5</ele><time>2025-11-21T23:45:16.000Z</time></trkpt>
        <trkpt lat="28.020511" lon="105.623931"><ele>1071</ele><time>2025-11-21T23:45:17.000Z</time></trkpt>
        <trkpt lat="28.020513" lon="105.623937"><ele>1071</ele><time>2025-11-21T23:45:18.000Z</time></trkpt>
        <trkpt lat="28.020514" lon="105.623942"><ele>1071</ele><time>2025-11-21T23:45:19.000Z</time></trkpt>
        <trkpt lat="28.020516" lon="105.623948"><ele>1071</ele><time>2025-11-21T23:45:20.000Z</time></trkpt>
        <trkpt lat="28.020518" lon="105.623954"><ele>1071</ele><time>2025-11-21T23:45:21.000Z</time></trkpt>
        <trkpt lat="28.020521" lon="105.62396"><ele>1071.9</ele><time>2025-11-21T23:45:22.000Z</time></trkpt>
        <trkpt lat="28.020523" lon="105.623966"><ele>1071.9</ele><time>2025-11-21T23:45:23.000Z</time></trkpt>
        <trkpt lat="28.020526" lon="105.623973"><ele>1071.9</ele><time>2025-11-21T23:45:24.000Z</time></trkpt>
        <trkpt lat="28.020528" lon="105.623979"><ele>1071.9</ele><time>2025-11-21T23:45:25.000Z</time></trkpt>
        <trkpt lat="28.020529" lon="105.623985"><ele>1071.9</ele><time>2025-11-21T23:45:26.000Z</time></trkpt>
        <trkpt lat="28.020531" lon="105.623991"><ele>1072.6</ele><time>2025-11-21T23:45:27.000Z</time></trkpt>
        <trkpt lat="28.020534" lon="105.623997"><ele>1072.6</ele><time>2025-11-21T23:45:28.000Z</time></trkpt>
        <trkpt lat="28.020536" lon="105.624002"><ele>1072.6</ele><time>2025-11-21T23:45:29.000Z</time></trkpt>
        <trkpt lat="28.020538" lon="105.624007"><ele>1072.6</ele><time>2025-11-21T23:45:30.000Z</time></trkpt>
        <trkpt lat="28.020542" lon="105.624011"><ele>1072.6</ele><time>2025-11-21T23:45:31.000Z</time></trkpt>
        <trkpt lat="28.020544" lon="105.624014"><ele>1073.7</ele><time>2025-11-21T23:45:32.000Z</time></trkpt>
        <trkpt lat="28.020546" lon="105.624017"><ele>1073.7</ele><time>2025-11-21T23:45:33.000Z</time></trkpt>
        <trkpt lat="28.020548" lon="105.624019"><ele>1073.7</ele><time>2025-11-21T23:45:34.000Z</time></trkpt>
        <trkpt lat="28.020551" lon="105.624022"><ele>1073.7</ele><time>2025-11-21T23:45:35.000Z</time></trkpt>
        <trkpt lat="28.020553" lon="105.624025"><ele>1073.7</ele><time>2025-11-21T23:45:36.000Z</time></trkpt>
        <trkpt lat="28.020557" lon="105.624029"><ele>1074.4</ele><time>2025-11-21T23:45:37.000Z</time></trkpt>
        <trkpt lat="28.020561" lon="105.624033"><ele>1074.4</ele><time>2025-11-21T23:45:38.000Z</time></trkpt>
        <trkpt lat="28.020564" lon="105.624038"><ele>1074.4</ele><time>2025-11-21T23:45:39.000Z</time></trkpt>
        <trkpt lat="28.020566" lon="105.624043"><ele>1074.4</ele><time>2025-11-21T23:45:40.000Z</time></trkpt>
        <trkpt lat="28.020568" lon="105.624049"><ele>1074.4</ele><time>2025-11-21T23:45:41.000Z</time></trkpt>
        <trkpt lat="28.02057" lon="105.624055"><ele>1075.4</ele><time>2025-11-21T23:45:42.000Z</time></trkpt>
        <trkpt lat="28.020571" lon="105.624061"><ele>1075.4</ele><time>2025-11-21T23:45:43.000Z</time></trkpt>
        <trkpt lat="28.020573" lon="105.624067"><ele>1075.4</ele><time>2025-11-21T23:45:44.000Z</time></trkpt>
        <trkpt lat="28.020576" lon="105.624073"><ele>1075.4</ele><time>2025-11-21T23:45:45.000Z</time></trkpt>
        <trkpt lat="28.020579" lon="105.624079"><ele>1075.4</ele><time>2025-11-21T23:45:46.000Z</time></trkpt>
        <trkpt lat="28.020582" lon="105.624085"><ele>1075.9</ele><time>2025-11-21T23:45:47.000Z</time></trkpt>
        <trkpt lat="28.020586" lon="105.62409"><ele>1075.9</ele><time>2025-11-21T23:45:48.000Z</time></trkpt>
        <trkpt lat="28.02059" lon="105.624095"><ele>1075.9</ele><time>2025-11-21T23:45:49.000Z</time></trkpt>
        <trkpt lat="28.020593" lon="105.624099"><ele>1075.9</ele><time>2025-11-21T23:45:50.000Z</time></trkpt>
        <trkpt lat="28.020597" lon="105.624104"><ele>1075.9</ele><time>2025-11-21T23:45:51.000Z</time></trkpt>
        <trkpt lat="28.020601" lon="105.624109"><ele>1076.9</ele><time>2025-11-21T23:45:52.000Z</time></trkpt>
        <trkpt lat="28.020604" lon="105.624114"><ele>1076.9</ele><time>2025-11-21T23:45:53.000Z</time></trkpt>
        <trkpt lat="28.020606" lon="105.624119"><ele>1076.9</ele><time>2025-11-21T23:45:54.000Z</time></trkpt>
        <trkpt lat="28.020608" lon="105.624125"><ele>1076.9</ele><time>2025-11-21T23:45:55.000Z</time></trkpt>
        <trkpt lat="28.020609" lon="105.62413"><ele>1076.9</ele><time>2025-11-21T23:45:56.000Z</time></trkpt>
        <trkpt lat="28.02061" lon="105.624134"><ele>1077.7</ele><time>2025-11-21T23:45:57.000Z</time></trkpt>
        <trkpt lat="28.02061" lon="105.624138"><ele>1077.7</ele><time>2025-11-21T23:45:58.000Z</time></trkpt>
        <trkpt lat="28.020609" lon="105.624143"><ele>1077.7</ele><time>2025-11-21T23:45:59.000Z</time></trkpt>
        <trkpt lat="28.020608" lon="105.624146"><ele>1077.7</ele><time>2025-11-21T23:46:00.000Z</time></trkpt>
        <trkpt lat="28.020606" lon="105.624151"><ele>1077.7</ele><time>2025-11-21T23:46:01.000Z</time></trkpt>
        <trkpt lat="28.020602" lon="105.624155"><ele>1078.4</ele><time>2025-11-21T23:46:02.000Z</time></trkpt>
        <trkpt lat="28.020599" lon="105.624158"><ele>1078.4</ele><time>2025-11-21T23:46:03.000Z</time></trkpt>
        <trkpt lat="28.020595" lon="105.624161"><ele>1078.4</ele><time>2025-11-21T23:46:04.000Z</time></trkpt>
        <trkpt lat="28.02059" lon="105.624162"><ele>1078.4</ele><time>2025-11-21T23:46:05.000Z</time></trkpt>
        <trkpt lat="28.020585" lon="105.624163"><ele>1078.4</ele><time>2025-11-21T23:46:06.000Z</time></trkpt>
        <trkpt lat="28.02058" lon="105.624163"><ele>1079.3</ele><time>2025-11-21T23:46:07.000Z</time></trkpt>
        <trkpt lat="28.020577" lon="105.624164"><ele>1079.3</ele><time>2025-11-21T23:46:08.000Z</time></trkpt>
        <trkpt lat="28.020574" lon="105.624165"><ele>1079.3</ele><time>2025-11-21T23:46:09.000Z</time></trkpt>
        <trkpt lat="28.020571" lon="105.624167"><ele>1079.3</ele><time>2025-11-21T23:46:10.000Z</time></trkpt>
        <trkpt lat="28.020568" lon="105.624169"><ele>1079.3</ele><time>2025-11-21T23:46:11.000Z</time></trkpt>
        <trkpt lat="28.020565" lon="105.624172"><ele>1079.9</ele><time>2025-11-21T23:46:12.000Z</time></trkpt>
        <trkpt lat="28.020562" lon="105.624174"><ele>1079.9</ele><time>2025-11-21T23:46:13.000Z</time></trkpt>
        <trkpt lat="28.020559" lon="105.624175"><ele>1079.9</ele><time>2025-11-21T23:46:14.000Z</time></trkpt>
        <trkpt lat="28.020558" lon="105.624176"><ele>1079.9</ele><time>2025-11-21T23:46:15.000Z</time></trkpt>
        <trkpt lat="28.020557" lon="105.624176"><ele>1079.9</ele><time>2025-11-21T23:46:16.000Z</time></trkpt>
        <trkpt lat="28.020558" lon="105.624175"><ele>1080.8</ele><time>2025-11-21T23:46:17.000Z</time></trkpt>
        <trkpt lat="28.020556" lon="105.624176"><ele>1080.8</ele><time>2025-11-21T23:46:18.000Z</time></trkpt>
        <trkpt lat="28.020554" lon="105.624177"><ele>1080.8</ele><time>2025-11-21T23:46:19.000Z</time></trkpt>
        <trkpt lat="28.02055" lon="105.624179"><ele>1080.8</ele><time>2025-11-21T23:46:20.000Z</time></trkpt>
        <trkpt lat="28.020545" lon="105.624181"><ele>1080.8</ele><time>2025-11-21T23:46:21.000Z</time></trkpt>
        <trkpt lat="28.02054" lon="105.624183"><ele>1081.5</ele><time>2025-11-21T23:46:22.000Z</time></trkpt>
        <trkpt lat="28.020536" lon="105.624184"><ele>1081.5</ele><time>2025-11-21T23:46:23.000Z</time></trkpt>
        <trkpt lat="28.020531" lon="105.624185"><ele>1081.5</ele><time>2025-11-21T23:46:24.000Z</time></trkpt>
        <trkpt lat="28.020527" lon="105.624187"><ele>1081.5</ele><time>2025-11-21T23:46:25.000Z</time></trkpt>
        <trkpt lat="28.020523" lon="105.624189"><ele>1081.5</ele><time>2025-11-21T23:46:26.000Z</time></trkpt>
        <trkpt lat="28.020519" lon="105.624191"><ele>1082.7</ele><time>2025-11-21T23:46:27.000Z</time></trkpt>
        <trkpt lat="28.020514" lon="105.624193"><ele>1082.7</ele><time>2025-11-21T23:46:28.000Z</time></trkpt>
        <trkpt lat="28.020511" lon="105.624196"><ele>1082.7</ele><time>2025-11-21T23:46:29.000Z</time></trkpt>
        <trkpt lat="28.020508" lon="105.6242"><ele>1082.7</ele><time>2025-11-21T23:46:30.000Z</time></trkpt>
        <trkpt lat="28.020506" lon="105.624202"><ele>1082.7</ele><time>2025-11-21T23:46:31.000Z</time></trkpt>
        <trkpt lat="28.020503" lon="105.624206"><ele>1083.4</ele><time>2025-11-21T23:46:32.000Z</time></trkpt>
        <trkpt lat="28.020501" lon="105.624209"><ele>1083.4</ele><time>2025-11-21T23:46:33.000Z</time></trkpt>
        <trkpt lat="28.020499" lon="105.624213"><ele>1083.4</ele><time>2025-11-21T23:46:34.000Z</time></trkpt>
        <trkpt lat="28.020497" lon="105.624218"><ele>1083.4</ele><time>2025-11-21T23:46:35.000Z</time></trkpt>
        <trkpt lat="28.020495" lon="105.624223"><ele>1083.4</ele><time>2025-11-21T23:46:36.000Z</time></trkpt>
        <trkpt lat="28.020492" lon="105.624229"><ele>1084.2</ele><time>2025-11-21T23:46:37.000Z</time></trkpt>
        <trkpt lat="28.02049" lon="105.624233"><ele>1084.2</ele><time>2025-11-21T23:46:38.000Z</time></trkpt>
        <trkpt lat="28.020488" lon="105.624237"><ele>1084.2</ele><time>2025-11-21T23:46:39.000Z</time></trkpt>
        <trkpt lat="28.020487" lon="105.624242"><ele>1084.2</ele><time>2025-11-21T23:46:40.000Z</time></trkpt>
        <trkpt lat="28.020486" lon="105.624245"><ele>1084.2</ele><time>2025-11-21T23:46:41.000Z</time></trkpt>
        <trkpt lat="28.020486" lon="105.62425"><ele>1084.7</ele><time>2025-11-21T23:46:42.000Z</time></trkpt>
        <trkpt lat="28.020486" lon="105.624256"><ele>1084.7</ele><time>2025-11-21T23:46:43.000Z</time></trkpt>
        <trkpt lat="28.020485" lon="105.624262"><ele>1084.7</ele><time>2025-11-21T23:46:44.000Z</time></trkpt>
        <trkpt lat="28.020483" lon="105.624268"><ele>1084.7</ele><time>2025-11-21T23:46:45.000Z</time></trkpt>
        <trkpt lat="28.020481" lon="105.624272"><ele>1084.7</ele><time>2025-11-21T23:46:46.000Z</time></trkpt>
        <trkpt lat="28.02048" lon="105.624274"><ele>1085.6</ele><time>2025-11-21T23:46:47.000Z</time></trkpt>
        <trkpt lat="28.02048" lon="105.624276"><ele>1085.6</ele><time>2025-11-21T23:46:48.000Z</time></trkpt>
        <trkpt lat="28.02048" lon="105.624277"><ele>1085.6</ele><time>2025-11-21T23:46:49.000Z</time></trkpt>
        <trkpt lat="28.020481" lon="105.624279"><ele>1085.6</ele><time>2025-11-21T23:46:50.000Z</time></trkpt>
        <trkpt lat="28.020481" lon="105.62428"><ele>1085.6</ele><time>2025-11-21T23:46:51.000Z</time></trkpt>
        <trkpt lat="28.020481" lon="105.624281"><ele>1086</ele><time>2025-11-21T23:46:52.000Z</time></trkpt>
        <trkpt lat="28.02048" lon="105.624281"><ele>1086</ele><time>2025-11-21T23:46:53.000Z</time></trkpt>
        <trkpt lat="28.020479" lon="105.62428"><ele>1086</ele><time>2025-11-21T23:46:54.000Z</time></trkpt>
        <trkpt lat="28.020479" lon="105.62428"><ele>1086</ele><time>2025-11-21T23:46:55.000Z</time></trkpt>
        <trkpt lat="28.020478" lon="105.62428"><ele>1086</ele><time>2025-11-21T23:46:56.000Z</time></trkpt>
        <trkpt lat="28.020478" lon="105.624281"><ele>1086.4</ele><time>2025-11-21T23:46:57.000Z</time></trkpt>
        <trkpt lat="28.020479" lon="105.624282"><ele>1086.4</ele><time>2025-11-21T23:46:58.000Z</time></trkpt>
        <trkpt lat="28.020479" lon="105.624283"><ele>1086.4</ele><time>2025-11-21T23:46:59.000Z</time></trkpt>
        <trkpt lat="28.020479" lon="105.624283"><ele>1086.4</ele><time>2025-11-21T23:47:00.000Z</time></trkpt>
        <trkpt lat="28.020479" lon="105.624283"><ele>1086.4</ele><time>2025-11-21T23:47:01.000Z</time></trkpt>
        <trkpt lat="28.020479" lon="105.624283"><ele>1086.6</ele><time>2025-11-21T23:47:02.000Z</time></trkpt>
        <trkpt lat="28.020479" lon="105.624284"><ele>1086.6</ele><time>2025-11-21T23:47:03.000Z</time></trkpt>
        <trkpt lat="28.020481" lon="105.624284"><ele>1086.6</ele><time>2025-11-21T23:47:04.000Z</time></trkpt>
        <trkpt lat="28.020483" lon="105.624286"><ele>1086.6</ele><time>2025-11-21T23:47:05.000Z</time></trkpt>
        <trkpt lat="28.020487" lon="105.624288"><ele>1086.6</ele><time>2025-11-21T23:47:06.000Z</time></trkpt>
        <trkpt lat="28.02049" lon="105.62429"><ele>1086.7</ele><time>2025-11-21T23:47:07.000Z</time></trkpt>
        <trkpt lat="28.020493" lon="105.624292"><ele>1086.7</ele><time>2025-11-21T23:47:08.000Z</time></trkpt>
        <trkpt lat="28.020496" lon="105.624293"><ele>1086.7</ele><time>2025-11-21T23:47:09.000Z</time></trkpt>
        <trkpt lat="28.020497" lon="105.624294"><ele>1086.7</ele><time>2025-11-21T23:47:10.000Z</time></trkpt>
        <trkpt lat="28.020497" lon="105.624294"><ele>1086.7</ele><time>2025-11-21T23:47:11.000Z</time></trkpt>
        <trkpt lat="28.020497" lon="105.624294"><ele>1086.9</ele><time>2025-11-21T23:47:12.000Z</time></trkpt>
        <trkpt lat="28.020496" lon="105.624293"><ele>1086.9</ele><time>2025-11-21T23:47:13.000Z</time></trkpt>
        <trkpt lat="28.020496" lon="105.624293"><ele>1086.9</ele><time>2025-11-21T23:47:14.000Z</time></trkpt>
        <trkpt lat="28.020496" lon="105.624292"><ele>1086.9</ele><time>2025-11-21T23:47:15.000Z</time></trkpt>
        <trkpt lat="28.020497" lon="105.624292"><ele>1086.9</ele><time>2025-11-21T23:47:16.000Z</time></trkpt>
        <trkpt lat="28.020497" lon="105.624292"><ele>1086.9</ele><time>2025-11-21T23:47:17.000Z</time></trkpt>
        <trkpt lat="28.020497" lon="105.624292"><ele>1086.9</ele><time>2025-11-21T23:47:18.000Z</time></trkpt>
        <trkpt lat="28.020497" lon="105.624292"><ele>1086.9</ele><time>2025-11-21T23:47:19.000Z</time></trkpt>
        <trkpt lat="28.020497" lon="105.624292"><ele>1086.9</ele><time>2025-11-21T23:47:20.000Z</time></trkpt>
        <trkpt lat="28.020497" lon="105.624292"><ele>1086.9</ele><time>2025-11-21T23:47:21.000Z</time></trkpt>
        <trkpt lat="28.020496" lon="105.624291"><ele>1086.9</ele><time>2025-11-21T23:47:22.000Z</time></trkpt>
        <trkpt lat="28.020496" lon="105.624291"><ele>1086.9</ele><time>2025-11-21T23:47:23.000Z</time></trkpt>
        <trkpt lat="28.020497" lon="105.62429"><ele>1086.9</ele><time>2025-11-21T23:47:24.000Z</time></trkpt>
        <trkpt lat="28.020498" lon="105.624289"><ele>1086.9</ele><time>2025-11-21T23:47:25.000Z</time></trkpt>
        <trkpt lat="28.020499" lon="105.624287"><ele>1086.9</ele><time>2025-11-21T23:47:26.000Z</time></trkpt>
        <trkpt lat="28.0205" lon="105.624285"><ele>1086.9</ele><time>2025-11-21T23:47:27.000Z</time></trkpt>
        <trkpt lat="28.020501" lon="105.624282"><ele>1086.9</ele><time>2025-11-21T23:47:28.000Z</time></trkpt>
        <trkpt lat="28.020502" lon="105.624279"><ele>1086.9</ele><time>2025-11-21T23:47:29.000Z</time></trkpt>
        <trkpt lat="28.020503" lon="105.624276"><ele>1086.9</ele><time>2025-11-21T23:47:30.000Z</time></trkpt>
        <trkpt lat="28.020504" lon="105.624274"><ele>1086.9</ele><time>2025-11-21T23:47:31.000Z</time></trkpt>
        <trkpt lat="28.020505" lon="105.624271"><ele>1086.9</ele><time>2025-11-21T23:47:32.000Z</time></trkpt>
        <trkpt lat="28.020505" lon="105.62427"><ele>1086.9</ele><time>2025-11-21T23:47:33.000Z</time></trkpt>
        <trkpt lat="28.020506" lon="105.62427"><ele>1086.9</ele><time>2025-11-21T23:47:34.000Z</time></trkpt>
        <trkpt lat="28.020506" lon="105.624269"><ele>1086.9</ele><time>2025-11-21T23:47:35.000Z</time></trkpt>
        <trkpt lat="28.020506" lon="105.624269"><ele>1086.9</ele><time>2025-11-21T23:47:36.000Z</time></trkpt>
        <trkpt lat="28.020506" lon="105.624269"><ele>1086.9</ele><time>2025-11-21T23:47:37.000Z</time></trkpt>
        <trkpt lat="28.020506" lon="105.62427"><ele>1086.9</ele><time>2025-11-21T23:47:38.000Z</time></trkpt>
        <trkpt lat="28.020506" lon="105.62427"><ele>1086.9</ele><time>2025-11-21T23:47:39.000Z</time></trkpt>
        <trkpt lat="28.020506" lon="105.624271"><ele>1086.9</ele><time>2025-11-21T23:47:40.000Z</time></trkpt>
        <trkpt lat="28.020506" lon="105.624271"><ele>1086.9</ele><time>2025-11-21T23:47:41.000Z</time></trkpt>
        <trkpt lat="28.020506" lon="105.624271"><ele>1086.9</ele><time>2025-11-21T23:47:42.000Z</time></trkpt>
        <trkpt lat="28.020506" lon="105.624271"><ele>1086.9</ele><time>2025-11-21T23:47:43.000Z</time></trkpt>
        <trkpt lat="28.020505" lon="105.624272"><ele>1086.9</ele><time>2025-11-21T23:47:44.000Z</time></trkpt>
        <trkpt lat="28.020505" lon="105.624271"><ele>1086.9</ele><time>2025-11-21T23:47:45.000Z</time></trkpt>
        <trkpt lat="28.020504" lon="105.624271"><ele>1086.9</ele><time>2025-11-21T23:47:46.000Z</time></trkpt>
        <trkpt lat="28.020503" lon="105.624271"><ele>1087.2</ele><time>2025-11-21T23:47:47.000Z</time></trkpt>
        <trkpt lat="28.020502" lon="105.624271"><ele>1087.2</ele><time>2025-11-21T23:47:48.000Z</time></trkpt>
        <trkpt lat="28.020502" lon="105.624271"><ele>1087.2</ele><time>2025-11-21T23:47:49.000Z</time></trkpt>
        <trkpt lat="28.020502" lon="105.62427"><ele>1087.2</ele><time>2025-11-21T23:47:50.000Z</time></trkpt>
        <trkpt lat="28.020502" lon="105.624269"><ele>1087.2</ele><time>2025-11-21T23:47:51.000Z</time></trkpt>
        <trkpt lat="28.020502" lon="105.624268"><ele>1087.2</ele><time>2025-11-21T23:47:52.000Z</time></trkpt>
        <trkpt lat="28.020503" lon="105.624268"><ele>1087.2</ele><time>2025-11-21T23:47:53.000Z</time></trkpt>
        <trkpt lat="28.020503" lon="105.624268"><ele>1087.2</ele><time>2025-11-21T23:47:54.000Z</time></trkpt>
        <trkpt lat="28.020505" lon="105.62427"><ele>1087.2</ele><time>2025-11-21T23:47:55.000Z</time></trkpt>
        <trkpt lat="28.020507" lon="105.624275"><ele>1087.2</ele><time>2025-11-21T23:47:56.000Z</time></trkpt>
        <trkpt lat="28.02051" lon="105.624282"><ele>1087.2</ele><time>2025-11-21T23:47:57.000Z</time></trkpt>
        <trkpt lat="28.020513" lon="105.62429"><ele>1087.2</ele><time>2025-11-21T23:47:58.000Z</time></trkpt>
        <trkpt lat="28.020518" lon="105.6243"><ele>1087.2</ele><time>2025-11-21T23:47:59.000Z</time></trkpt>
        <trkpt lat="28.020523" lon="105.624311"><ele>1087.2</ele><time>2025-11-21T23:48:00.000Z</time></trkpt>
        <trkpt lat="28.020528" lon="105.62432"><ele>1087.2</ele><time>2025-11-21T23:48:01.000Z</time></trkpt>
        <trkpt lat="28.020533" lon="105.62433"><ele>1086.9</ele><time>2025-11-21T23:48:02.000Z</time></trkpt>
        <trkpt lat="28.020539" lon="105.62434"><ele>1086.9</ele><time>2025-11-21T23:48:03.000Z</time></trkpt>
        <trkpt lat="28.020545" lon="105.624349"><ele>1086.9</ele><time>2025-11-21T23:48:04.000Z</time></trkpt>
        <trkpt lat="28.020551" lon="105.624355"><ele>1086.9</ele><time>2025-11-21T23:48:05.000Z</time></trkpt>
        <trkpt lat="28.020557" lon="105.624363"><ele>1086.9</ele><time>2025-11-21T23:48:06.000Z</time></trkpt>
        <trkpt lat="28.020562" lon="105.624371"><ele>1086.9</ele><time>2025-11-21T23:48:07.000Z</time></trkpt>
        <trkpt lat="28.020568" lon="105.624378"><ele>1086.9</ele><time>2025-11-21T23:48:08.000Z</time></trkpt>
        <trkpt lat="28.020572" lon="105.624384"><ele>1086.9</ele><time>2025-11-21T23:48:09.000Z</time></trkpt>
        <trkpt lat="28.020576" lon="105.624391"><ele>1086.9</ele><time>2025-11-21T23:48:10.000Z</time></trkpt>
        <trkpt lat="28.02058" lon="105.624397"><ele>1086.9</ele><time>2025-11-21T23:48:11.000Z</time></trkpt>
        <trkpt lat="28.020584" lon="105.624404"><ele>1087.3</ele><time>2025-11-21T23:48:12.000Z</time></trkpt>
        <trkpt lat="28.020588" lon="105.624412"><ele>1087.3</ele><time>2025-11-21T23:48:13.000Z</time></trkpt>
        <trkpt lat="28.020591" lon="105.624421"><ele>1087.3</ele><time>2025-11-21T23:48:14.000Z</time></trkpt>
        <trkpt lat="28.020595" lon="105.62443"><ele>1087.3</ele><time>2025-11-21T23:48:15.000Z</time></trkpt>
        <trkpt lat="28.020597" lon="105.624439"><ele>1087.3</ele><time>2025-11-21T23:48:16.000Z</time></trkpt>
        <trkpt lat="28.0206" lon="105.624447"><ele>1087.7</ele><time>2025-11-21T23:48:17.000Z</time></trkpt>
        <trkpt lat="28.020603" lon="105.624455"><ele>1087.7</ele><time>2025-11-21T23:48:18.000Z</time></trkpt>
        <trkpt lat="28.020608" lon="105.624462"><ele>1087.7</ele><time>2025-11-21T23:48:19.000Z</time></trkpt>
        <trkpt lat="28.020612" lon="105.62447"><ele>1087.7</ele><time>2025-11-21T23:48:20.000Z</time></trkpt>
        <trkpt lat="28.020616" lon="105.624477"><ele>1087.7</ele><time>2025-11-21T23:48:21.000Z</time></trkpt>
        <trkpt lat="28.02062" lon="105.624484"><ele>1088</ele><time>2025-11-21T23:48:22.000Z</time></trkpt>
        <trkpt lat="28.020624" lon="105.624491"><ele>1088</ele><time>2025-11-21T23:48:23.000Z</time></trkpt>
        <trkpt lat="28.020628" lon="105.624497"><ele>1088</ele><time>2025-11-21T23:48:24.000Z</time></trkpt>
        <trkpt lat="28.020631" lon="105.624503"><ele>1088</ele><time>2025-11-21T23:48:25.000Z</time></trkpt>
        <trkpt lat="28.020633" lon="105.624508"><ele>1088</ele><time>2025-11-21T23:48:26.000Z</time></trkpt>
        <trkpt lat="28.020636" lon="105.624512"><ele>1088</ele><time>2025-11-21T23:48:27.000Z</time></trkpt>
        <trkpt lat="28.020639" lon="105.624516"><ele>1088</ele><time>2025-11-21T23:48:28.000Z</time></trkpt>
        <trkpt lat="28.020642" lon="105.624521"><ele>1088</ele><time>2025-11-21T23:48:29.000Z</time></trkpt>
        <trkpt lat="28.020646" lon="105.624526"><ele>1088</ele><time>2025-11-21T23:48:30.000Z</time></trkpt>
        <trkpt lat="28.02065" lon="105.624532"><ele>1088</ele><time>2025-11-21T23:48:31.000Z</time></trkpt>
        <trkpt lat="28.020656" lon="105.624537"><ele>1087.7</ele><time>2025-11-21T23:48:32.000Z</time></trkpt>
        <trkpt lat="28.020661" lon="105.624543"><ele>1087.7</ele><time>2025-11-21T23:48:33.000Z</time></trkpt>
        <trkpt lat="28.020668" lon="105.624549"><ele>1087.7</ele><time>2025-11-21T23:48:34.000Z</time></trkpt>
        <trkpt lat="28.020675" lon="105.624555"><ele>1087.7</ele><time>2025-11-21T23:48:35.000Z</time></trkpt>
        <trkpt lat="28.020685" lon="105.624562"><ele>1087.7</ele><time>2025-11-21T23:48:36.000Z</time></trkpt>
        <trkpt lat="28.020694" lon="105.624569"><ele>1087.2</ele><time>2025-11-21T23:48:37.000Z</time></trkpt>
        <trkpt lat="28.020704" lon="105.624575"><ele>1087.2</ele><time>2025-11-21T23:48:38.000Z</time></trkpt>
        <trkpt lat="28.020711" lon="105.624582"><ele>1087.2</ele><time>2025-11-21T23:48:39.000Z</time></trkpt>
        <trkpt lat="28.02072" lon="105.624588"><ele>1087.2</ele><time>2025-11-21T23:48:40.000Z</time></trkpt>
        <trkpt lat="28.020727" lon="105.624592"><ele>1087.2</ele><time>2025-11-21T23:48:41.000Z</time></trkpt>
        <trkpt lat="28.020734" lon="105.624597"><ele>1087</ele><time>2025-11-21T23:48:42.000Z</time></trkpt>
        <trkpt lat="28.020741" lon="105.624602"><ele>1087</ele><time>2025-11-21T23:48:43.000Z</time></trkpt>
        <trkpt lat="28.020748" lon="105.624605"><ele>1087</ele><time>2025-11-21T23:48:44.000Z</time></trkpt>
        <trkpt lat="28.020755" lon="105.624608"><ele>1087</ele><time>2025-11-21T23:48:45.000Z</time></trkpt>
        <trkpt lat="28.020762" lon="105.624611"><ele>1087</ele><time>2025-11-21T23:48:46.000Z</time></trkpt>
        <trkpt lat="28.020769" lon="105.624614"><ele>1087</ele><time>2025-11-21T23:48:47.000Z</time></trkpt>
        <trkpt lat="28.020777" lon="105.624617"><ele>1087</ele><time>2025-11-21T23:48:48.000Z</time></trkpt>
        <trkpt lat="28.020784" lon="105.624622"><ele>1087</ele><time>2025-11-21T23:48:49.000Z</time></trkpt>
        <trkpt lat="28.02079" lon="105.624628"><ele>1087</ele><time>2025-11-21T23:48:50.000Z</time></trkpt>
        <trkpt lat="28.020796" lon="105.624635"><ele>1087</ele><time>2025-11-21T23:48:51.000Z</time></trkpt>
        <trkpt lat="28.020801" lon="105.624642"><ele>1087.3</ele><time>2025-11-21T23:48:52.000Z</time></trkpt>
        <trkpt lat="28.020805" lon="105.62465"><ele>1087.3</ele><time>2025-11-21T23:48:53.000Z</time></trkpt>
        <trkpt lat="28.02081" lon="105.624656"><ele>1087.3</ele><time>2025-11-21T23:48:54.000Z</time></trkpt>
        <trkpt lat="28.020813" lon="105.624661"><ele>1087.3</ele><time>2025-11-21T23:48:55.000Z</time></trkpt>
        <trkpt lat="28.020818" lon="105.624665"><ele>1087.3</ele><time>2025-11-21T23:48:56.000Z</time></trkpt>
        <trkpt lat="28.020821" lon="105.624669"><ele>1087.3</ele><time>2025-11-21T23:48:57.000Z</time></trkpt>
        <trkpt lat="28.020825" lon="105.624672"><ele>1087.3</ele><time>2025-11-21T23:48:58.000Z</time></trkpt>
        <trkpt lat="28.020828" lon="105.624676"><ele>1087.3</ele><time>2025-11-21T23:48:59.000Z</time></trkpt>
        <trkpt lat="28.020831" lon="105.62468"><ele>1087.3</ele><time>2025-11-21T23:49:00.000Z</time></trkpt>
        <trkpt lat="28.020834" lon="105.624684"><ele>1087.3</ele><time>2025-11-21T23:49:01.000Z</time></trkpt>
        <trkpt lat="28.020839" lon="105.624687"><ele>1087.5</ele><time>2025-11-21T23:49:02.000Z</time></trkpt>
        <trkpt lat="28.020844" lon="105.624691"><ele>1087.5</ele><time>2025-11-21T23:49:03.000Z</time></trkpt>
        <trkpt lat="28.020849" lon="105.624694"><ele>1087.5</ele><time>2025-11-21T23:49:04.000Z</time></trkpt>
        <trkpt lat="28.020855" lon="105.624698"><ele>1087.5</ele><time>2025-11-21T23:49:05.000Z</time></trkpt>
        <trkpt lat="28.02086" lon="105.624702"><ele>1087.5</ele><time>2025-11-21T23:49:06.000Z</time></trkpt>
        <trkpt lat="28.020865" lon="105.624706"><ele>1087.5</ele><time>2025-11-21T23:49:07.000Z</time></trkpt>
        <trkpt lat="28.02087" lon="105.624711"><ele>1087.5</ele><time>2025-11-21T23:49:08.000Z</time></trkpt>
        <trkpt lat="28.020875" lon="105.624715"><ele>1087.5</ele><time>2025-11-21T23:49:09.000Z</time></trkpt>
        <trkpt lat="28.020879" lon="105.62472"><ele>1087.5</ele><time>2025-11-21T23:49:10.000Z</time></trkpt>
        <trkpt lat="28.020884" lon="105.624724"><ele>1087.5</ele><time>2025-11-21T23:49:11.000Z</time></trkpt>
        <trkpt lat="28.020888" lon="105.624729"><ele>1087.4</ele><time>2025-11-21T23:49:12.000Z</time></trkpt>
        <trkpt lat="28.020892" lon="105.624733"><ele>1087.4</ele><time>2025-11-21T23:49:13.000Z</time></trkpt>
        <trkpt lat="28.020896" lon="105.624737"><ele>1087.4</ele><time>2025-11-21T23:49:14.000Z</time></trkpt>
        <trkpt lat="28.020899" lon="105.62474"><ele>1087.4</ele><time>2025-11-21T23:49:15.000Z</time></trkpt>
        <trkpt lat="28.020901" lon="105.624742"><ele>1087.4</ele><time>2025-11-21T23:49:16.000Z</time></trkpt>
        <trkpt lat="28.020903" lon="105.624744"><ele>1086.9</ele><time>2025-11-21T23:49:17.000Z</time></trkpt>
        <trkpt lat="28.020905" lon="105.624746"><ele>1086.9</ele><time>2025-11-21T23:49:18.000Z</time></trkpt>
        <trkpt lat="28.020906" lon="105.624746"><ele>1086.9</ele><time>2025-11-21T23:49:19.000Z</time></trkpt>
        <trkpt lat="28.020908" lon="105.624747"><ele>1086.9</ele><time>2025-11-21T23:49:20.000Z</time></trkpt>
        <trkpt lat="28.02091" lon="105.624747"><ele>1086.9</ele><time>2025-11-21T23:49:21.000Z</time></trkpt>
        <trkpt lat="28.020913" lon="105.624748"><ele>1086.4</ele><time>2025-11-21T23:49:22.000Z</time></trkpt>
        <trkpt lat="28.020915" lon="105.624749"><ele>1086.4</ele><time>2025-11-21T23:49:23.000Z</time></trkpt>
        <trkpt lat="28.020917" lon="105.62475"><ele>1086.4</ele><time>2025-11-21T23:49:24.000Z</time></trkpt>
        <trkpt lat="28.02092" lon="105.62475"><ele>1086.4</ele><time>2025-11-21T23:49:25.000Z</time></trkpt>
        <trkpt lat="28.020922" lon="105.62475"><ele>1086.4</ele><time>2025-11-21T23:49:26.000Z</time></trkpt>
        <trkpt lat="28.020925" lon="105.62475"><ele>1086.1</ele><time>2025-11-21T23:49:27.000Z</time></trkpt>
        <trkpt lat="28.020928" lon="105.62475"><ele>1086.1</ele><time>2025-11-21T23:49:28.000Z</time></trkpt>
        <trkpt lat="28.020931" lon="105.624749"><ele>1086.1</ele><time>2025-11-21T23:49:29.000Z</time></trkpt>
        <trkpt lat="28.020935" lon="105.624749"><ele>1086.1</ele><time>2025-11-21T23:49:30.000Z</time></trkpt>
        <trkpt lat="28.02094" lon="105.62475"><ele>1086.1</ele><time>2025-11-21T23:49:31.000Z</time></trkpt>
        <trkpt lat="28.020946" lon="105.62475"><ele>1085.6</ele><time>2025-11-21T23:49:32.000Z</time></trkpt>
        <trkpt lat="28.020952" lon="105.624751"><ele>1085.6</ele><time>2025-11-21T23:49:33.000Z</time></trkpt>
        <trkpt lat="28.020958" lon="105.624752"><ele>1085.6</ele><time>2025-11-21T23:49:34.000Z</time></trkpt>
        <trkpt lat="28.020964" lon="105.624753"><ele>1085.6</ele><time>2025-11-21T23:49:35.000Z</time></trkpt>
        <trkpt lat="28.020969" lon="105.624753"><ele>1085.6</ele><time>2025-11-21T23:49:36.000Z</time></trkpt>
        <trkpt lat="28.020974" lon="105.624754"><ele>1085.1</ele><time>2025-11-21T23:49:37.000Z</time></trkpt>
        <trkpt lat="28.020979" lon="105.624754"><ele>1085.1</ele><time>2025-11-21T23:49:38.000Z</time></trkpt>
        <trkpt lat="28.020985" lon="105.624753"><ele>1085.1</ele><time>2025-11-21T23:49:39.000Z</time></trkpt>
        <trkpt lat="28.020991" lon="105.624753"><ele>1085.1</ele><time>2025-11-21T23:49:40.000Z</time></trkpt>
        <trkpt lat="28.020998" lon="105.624753"><ele>1085.1</ele><time>2025-11-21T23:49:41.000Z</time></trkpt>
        <trkpt lat="28.021004" lon="105.624754"><ele>1084.6</ele><time>2025-11-21T23:49:42.000Z</time></trkpt>
        <trkpt lat="28.02101" lon="105.624754"><ele>1084.6</ele><time>2025-11-21T23:49:43.000Z</time></trkpt>
        <trkpt lat="28.021016" lon="105.624754"><ele>1084.6</ele><time>2025-11-21T23:49:44.000Z</time></trkpt>
        <trkpt lat="28.021021" lon="105.624753"><ele>1084.6</ele><time>2025-11-21T23:49:45.000Z</time></trkpt>
        <trkpt lat="28.021027" lon="105.624751"><ele>1084.6</ele><time>2025-11-21T23:49:46.000Z</time></trkpt>
        <trkpt lat="28.021032" lon="105.624749"><ele>1083.8</ele><time>2025-11-21T23:49:47.000Z</time></trkpt>
        <trkpt lat="28.021037" lon="105.624747"><ele>1083.8</ele><time>2025-11-21T23:49:48.000Z</time></trkpt>
        <trkpt lat="28.021043" lon="105.624745"><ele>1083.8</ele><time>2025-11-21T23:49:49.000Z</time></trkpt>
        <trkpt lat="28.021048" lon="105.624744"><ele>1083.8</ele><time>2025-11-21T23:49:50.000Z</time></trkpt>
        <trkpt lat="28.021054" lon="105.624745"><ele>1083.8</ele><time>2025-11-21T23:49:51.000Z</time></trkpt>
        <trkpt lat="28.02106" lon="105.624746"><ele>1083.3</ele><time>2025-11-21T23:49:52.000Z</time></trkpt>
        <trkpt lat="28.021066" lon="105.624748"><ele>1083.3</ele><time>2025-11-21T23:49:53.000Z</time></trkpt>
        <trkpt lat="28.021071" lon="105.624751"><ele>1083.3</ele><time>2025-11-21T23:49:54.000Z</time></trkpt>
        <trkpt lat="28.021075" lon="105.624755"><ele>1083.3</ele><time>2025-11-21T23:49:55.000Z</time></trkpt>
        <trkpt lat="28.021079" lon="105.624757"><ele>1083.3</ele><time>2025-11-21T23:49:56.000Z</time></trkpt>
        <trkpt lat="28.021083" lon="105.62476"><ele>1082.5</ele><time>2025-11-21T23:49:57.000Z</time></trkpt>
        <trkpt lat="28.021086" lon="105.624762"><ele>1082.5</ele><time>2025-11-21T23:49:58.000Z</time></trkpt>
        <trkpt lat="28.021091" lon="105.624764"><ele>1082.5</ele><time>2025-11-21T23:49:59.000Z</time></trkpt>
        <trkpt lat="28.021095" lon="105.624765"><ele>1082.5</ele><time>2025-11-21T23:50:00.000Z</time></trkpt>
        <trkpt lat="28.021099" lon="105.624765"><ele>1082.5</ele><time>2025-11-21T23:50:01.000Z</time></trkpt>
        <trkpt lat="28.021103" lon="105.624764"><ele>1082</ele><time>2025-11-21T23:50:02.000Z</time></trkpt>
        <trkpt lat="28.021108" lon="105.624764"><ele>1082</ele><time>2025-11-21T23:50:03.000Z</time></trkpt>
        <trkpt lat="28.021112" lon="105.624764"><ele>1082</ele><time>2025-11-21T23:50:04.000Z</time></trkpt>
        <trkpt lat="28.021117" lon="105.624763"><ele>1082</ele><time>2025-11-21T23:50:05.000Z</time></trkpt>
        <trkpt lat="28.021122" lon="105.624763"><ele>1082</ele><time>2025-11-21T23:50:06.000Z</time></trkpt>
        <trkpt lat="28.021126" lon="105.624764"><ele>1081.1</ele><time>2025-11-21T23:50:07.000Z</time></trkpt>
        <trkpt lat="28.021131" lon="105.624764"><ele>1081.1</ele><time>2025-11-21T23:50:08.000Z</time></trkpt>
        <trkpt lat="28.021135" lon="105.624765"><ele>1081.1</ele><time>2025-11-21T23:50:09.000Z</time></trkpt>
        <trkpt lat="28.021137" lon="105.624766"><ele>1081.1</ele><time>2025-11-21T23:50:10.000Z</time></trkpt>
        <trkpt lat="28.021139" lon="105.624768"><ele>1081.1</ele><time>2025-11-21T23:50:11.000Z</time></trkpt>
        <trkpt lat="28.021142" lon="105.62477"><ele>1080.6</ele><time>2025-11-21T23:50:12.000Z</time></trkpt>
        <trkpt lat="28.021144" lon="105.624773"><ele>1080.6</ele><time>2025-11-21T23:50:13.000Z</time></trkpt>
        <trkpt lat="28.021146" lon="105.624776"><ele>1080.6</ele><time>2025-11-21T23:50:14.000Z</time></trkpt>
        <trkpt lat="28.02115" lon="105.624779"><ele>1080.6</ele><time>2025-11-21T23:50:15.000Z</time></trkpt>
        <trkpt lat="28.021154" lon="105.62478"><ele>1080.6</ele><time>2025-11-21T23:50:16.000Z</time></trkpt>
        <trkpt lat="28.021158" lon="105.624781"><ele>1079.7</ele><time>2025-11-21T23:50:17.000Z</time></trkpt>
        <trkpt lat="28.021161" lon="105.624781"><ele>1079.7</ele><time>2025-11-21T23:50:18.000Z</time></trkpt>
        <trkpt lat="28.021164" lon="105.62478"><ele>1079.7</ele><time>2025-11-21T23:50:19.000Z</time></trkpt>
        <trkpt lat="28.021167" lon="105.62478"><ele>1079.7</ele><time>2025-11-21T23:50:20.000Z</time></trkpt>
        <trkpt lat="28.02117" lon="105.62478"><ele>1079.7</ele><time>2025-11-21T23:50:21.000Z</time></trkpt>
        <trkpt lat="28.021174" lon="105.62478"><ele>1079.1</ele><time>2025-11-21T23:50:22.000Z</time></trkpt>
        <trkpt lat="28.021177" lon="105.624781"><ele>1079.1</ele><time>2025-11-21T23:50:23.000Z</time></trkpt>
        <trkpt lat="28.021181" lon="105.624782"><ele>1079.1</ele><time>2025-11-21T23:50:24.000Z</time></trkpt>
        <trkpt lat="28.021185" lon="105.624783"><ele>1079.1</ele><time>2025-11-21T23:50:25.000Z</time></trkpt>
        <trkpt lat="28.021189" lon="105.624786"><ele>1079.1</ele><time>2025-11-21T23:50:26.000Z</time></trkpt>
        <trkpt lat="28.021193" lon="105.624789"><ele>1078.3</ele><time>2025-11-21T23:50:27.000Z</time></trkpt>
        <trkpt lat="28.021198" lon="105.624791"><ele>1078.3</ele><time>2025-11-21T23:50:28.000Z</time></trkpt>
        <trkpt lat="28.021203" lon="105.624793"><ele>1078.3</ele><time>2025-11-21T23:50:29.000Z</time></trkpt>
        <trkpt lat="28.021209" lon="105.624794"><ele>1078.3</ele><time>2025-11-21T23:50:30.000Z</time></trkpt>
        <trkpt lat="28.021213" lon="105.624794"><ele>1078.3</ele><time>2025-11-21T23:50:31.000Z</time></trkpt>
        <trkpt lat="28.021218" lon="105.624793"><ele>1077.7</ele><time>2025-11-21T23:50:32.000Z</time></trkpt>
        <trkpt lat="28.021223" lon="105.624793"><ele>1077.7</ele><time>2025-11-21T23:50:33.000Z</time></trkpt>
        <trkpt lat="28.021229" lon="105.624793"><ele>1077.7</ele><time>2025-11-21T23:50:34.000Z</time></trkpt>
        <trkpt lat="28.021234" lon="105.624794"><ele>1077.7</ele><time>2025-11-21T23:50:35.000Z</time></trkpt>
        <trkpt lat="28.021239" lon="105.624796"><ele>1077.7</ele><time>2025-11-21T23:50:36.000Z</time></trkpt>
        <trkpt lat="28.021245" lon="105.624798"><ele>1076.7</ele><time>2025-11-21T23:50:37.000Z</time></trkpt>
        <trkpt lat="28.021249" lon="105.624801"><ele>1076.7</ele><time>2025-11-21T23:50:38.000Z</time></trkpt>
        <trkpt lat="28.021252" lon="105.624803"><ele>1076.7</ele><time>2025-11-21T23:50:39.000Z</time></trkpt>
        <trkpt lat="28.021253" lon="105.624806"><ele>1076.7</ele><time>2025-11-21T23:50:40.000Z</time></trkpt>
        <trkpt lat="28.021253" lon="105.624809"><ele>1076.7</ele><time>2025-11-21T23:50:41.000Z</time></trkpt>
        <trkpt lat="28.021252" lon="105.624811"><ele>1076</ele><time>2025-11-21T23:50:42.000Z</time></trkpt>
        <trkpt lat="28.021252" lon="105.624813"><ele>1076</ele><time>2025-11-21T23:50:43.000Z</time></trkpt>
        <trkpt lat="28.021252" lon="105.624815"><ele>1076</ele><time>2025-11-21T23:50:44.000Z</time></trkpt>
        <trkpt lat="28.021253" lon="105.624818"><ele>1076</ele><time>2025-11-21T23:50:45.000Z</time></trkpt>
        <trkpt lat="28.021254" lon="105.62482"><ele>1076</ele><time>2025-11-21T23:50:46.000Z</time></trkpt>
        <trkpt lat="28.021255" lon="105.624822"><ele>1075.5</ele><time>2025-11-21T23:50:47.000Z</time></trkpt>
        <trkpt lat="28.021256" lon="105.624824"><ele>1075.5</ele><time>2025-11-21T23:50:48.000Z</time></trkpt>
        <trkpt lat="28.021257" lon="105.624827"><ele>1075.5</ele><time>2025-11-21T23:50:49.000Z</time></trkpt>
        <trkpt lat="28.021258" lon="105.624828"><ele>1075.5</ele><time>2025-11-21T23:50:50.000Z</time></trkpt>
        <trkpt lat="28.021258" lon="105.624829"><ele>1075.5</ele><time>2025-11-21T23:50:51.000Z</time></trkpt>
        <trkpt lat="28.021258" lon="105.62483"><ele>1075.2</ele><time>2025-11-21T23:50:52.000Z</time></trkpt>
        <trkpt lat="28.021259" lon="105.62483"><ele>1075.2</ele><time>2025-11-21T23:50:53.000Z</time></trkpt>
        <trkpt lat="28.021259" lon="105.62483"><ele>1075.2</ele><time>2025-11-21T23:50:54.000Z</time></trkpt>
        <trkpt lat="28.021259" lon="105.624831"><ele>1075.2</ele><time>2025-11-21T23:50:55.000Z</time></trkpt>
        <trkpt lat="28.021259" lon="105.624832"><ele>1075.2</ele><time>2025-11-21T23:50:56.000Z</time></trkpt>
        <trkpt lat="28.02126" lon="105.624834"><ele>1075.2</ele><time>2025-11-21T23:50:57.000Z</time></trkpt>
        <trkpt lat="28.021262" lon="105.624837"><ele>1075.2</ele><time>2025-11-21T23:50:58.000Z</time></trkpt>
        <trkpt lat="28.021264" lon="105.62484"><ele>1075.2</ele><time>2025-11-21T23:50:59.000Z</time></trkpt>
        <trkpt lat="28.021266" lon="105.624843"><ele>1075.2</ele><time>2025-11-21T23:51:00.000Z</time></trkpt>
        <trkpt lat="28.021269" lon="105.624846"><ele>1075.2</ele><time>2025-11-21T23:51:01.000Z</time></trkpt>
        <trkpt lat="28.021272" lon="105.624848"><ele>1075.2</ele><time>2025-11-21T23:51:02.000Z</time></trkpt>
        <trkpt lat="28.021274" lon="105.62485"><ele>1075.2</ele><time>2025-11-21T23:51:03.000Z</time></trkpt>
        <trkpt lat="28.021277" lon="105.624851"><ele>1075.2</ele><time>2025-11-21T23:51:04.000Z</time></trkpt>
        <trkpt lat="28.021279" lon="105.624852"><ele>1075.2</ele><time>2025-11-21T23:51:05.000Z</time></trkpt>
        <trkpt lat="28.021282" lon="105.624852"><ele>1075.2</ele><time>2025-11-21T23:51:06.000Z</time></trkpt>
        <trkpt lat="28.021283" lon="105.624853"><ele>1075.4</ele><time>2025-11-21T23:51:07.000Z</time></trkpt>
        <trkpt lat="28.021285" lon="105.624853"><ele>1075.4</ele><time>2025-11-21T23:51:08.000Z</time></trkpt>
        <trkpt lat="28.021285" lon="105.624853"><ele>1075.4</ele><time>2025-11-21T23:51:09.000Z</time></trkpt>
        <trkpt lat="28.021286" lon="105.624854"><ele>1075.4</ele><time>2025-11-21T23:51:10.000Z</time></trkpt>
        <trkpt lat="28.021287" lon="105.624855"><ele>1075.4</ele><time>2025-11-21T23:51:11.000Z</time></trkpt>
        <trkpt lat="28.021289" lon="105.624857"><ele>1074.6</ele><time>2025-11-21T23:51:12.000Z</time></trkpt>
        <trkpt lat="28.021292" lon="105.62486"><ele>1074.6</ele><time>2025-11-21T23:51:13.000Z</time></trkpt>
        <trkpt lat="28.021298" lon="105.624862"><ele>1074.6</ele><time>2025-11-21T23:51:14.000Z</time></trkpt>
        <trkpt lat="28.021304" lon="105.624864"><ele>1074.6</ele><time>2025-11-21T23:51:15.000Z</time></trkpt>
        <trkpt lat="28.021311" lon="105.624866"><ele>1074.6</ele><time>2025-11-21T23:51:16.000Z</time></trkpt>
        <trkpt lat="28.021318" lon="105.624866"><ele>1074.2</ele><time>2025-11-21T23:51:17.000Z</time></trkpt>
        <trkpt lat="28.021325" lon="105.624867"><ele>1074.2</ele><time>2025-11-21T23:51:18.000Z</time></trkpt>
        <trkpt lat="28.021331" lon="105.624867"><ele>1074.2</ele><time>2025-11-21T23:51:19.000Z</time></trkpt>
        <trkpt lat="28.021336" lon="105.624868"><ele>1074.2</ele><time>2025-11-21T23:51:20.000Z</time></trkpt>
        <trkpt lat="28.021342" lon="105.624869"><ele>1074.2</ele><time>2025-11-21T23:51:21.000Z</time></trkpt>
        <trkpt lat="28.021346" lon="105.62487"><ele>1073.5</ele><time>2025-11-21T23:51:22.000Z</time></trkpt>
        <trkpt lat="28.02135" lon="105.624872"><ele>1073.5</ele><time>2025-11-21T23:51:23.000Z</time></trkpt>
        <trkpt lat="28.021355" lon="105.624873"><ele>1073.5</ele><time>2025-11-21T23:51:24.000Z</time></trkpt>
        <trkpt lat="28.02136" lon="105.624875"><ele>1073.5</ele><time>2025-11-21T23:51:25.000Z</time></trkpt>
        <trkpt lat="28.021364" lon="105.624876"><ele>1073.5</ele><time>2025-11-21T23:51:26.000Z</time></trkpt>
        <trkpt lat="28.021369" lon="105.624879"><ele>1073</ele><time>2025-11-21T23:51:27.000Z</time></trkpt>
        <trkpt lat="28.021373" lon="105.624881"><ele>1073</ele><time>2025-11-21T23:51:28.000Z</time></trkpt>
        <trkpt lat="28.021375" lon="105.624884"><ele>1073</ele><time>2025-11-21T23:51:29.000Z</time></trkpt>
        <trkpt lat="28.021376" lon="105.624885"><ele>1073</ele><time>2025-11-21T23:51:30.000Z</time></trkpt>
        <trkpt lat="28.021376" lon="105.624886"><ele>1073</ele><time>2025-11-21T23:51:31.000Z</time></trkpt>
        <trkpt lat="28.021374" lon="105.624887"><ele>1072.3</ele><time>2025-11-21T23:51:32.000Z</time></trkpt>
        <trkpt lat="28.021372" lon="105.624887"><ele>1072.3</ele><time>2025-11-21T23:51:33.000Z</time></trkpt>
        <trkpt lat="28.02137" lon="105.624887"><ele>1072.3</ele><time>2025-11-21T23:51:34.000Z</time></trkpt>
        <trkpt lat="28.02137" lon="105.624888"><ele>1072.3</ele><time>2025-11-21T23:51:35.000Z</time></trkpt>
        <trkpt lat="28.021371" lon="105.624889"><ele>1072.3</ele><time>2025-11-21T23:51:36.000Z</time></trkpt>
        <trkpt lat="28.021372" lon="105.624891"><ele>1071.8</ele><time>2025-11-21T23:51:37.000Z</time></trkpt>
        <trkpt lat="28.021372" lon="105.624892"><ele>1071.8</ele><time>2025-11-21T23:51:38.000Z</time></trkpt>
        <trkpt lat="28.021373" lon="105.624893"><ele>1071.8</ele><time>2025-11-21T23:51:39.000Z</time></trkpt>
        <trkpt lat="28.021374" lon="105.624895"><ele>1071.8</ele><time>2025-11-21T23:51:40.000Z</time></trkpt>
        <trkpt lat="28.021375" lon="105.624897"><ele>1071.8</ele><time>2025-11-21T23:51:41.000Z</time></trkpt>
        <trkpt lat="28.021376" lon="105.624899"><ele>1071.6</ele><time>2025-11-21T23:51:42.000Z</time></trkpt>
        <trkpt lat="28.021378" lon="105.624901"><ele>1071.6</ele><time>2025-11-21T23:51:43.000Z</time></trkpt>
        <trkpt lat="28.02138" lon="105.624904"><ele>1071.6</ele><time>2025-11-21T23:51:44.000Z</time></trkpt>
        <trkpt lat="28.021381" lon="105.624905"><ele>1071.6</ele><time>2025-11-21T23:51:45.000Z</time></trkpt>
        <trkpt lat="28.021381" lon="105.624905"><ele>1071.6</ele><time>2025-11-21T23:51:46.000Z</time></trkpt>
        <trkpt lat="28.021382" lon="105.624906"><ele>1071.4</ele><time>2025-11-21T23:51:47.000Z</time></trkpt>
        <trkpt lat="28.021382" lon="105.624907"><ele>1071.4</ele><time>2025-11-21T23:51:48.000Z</time></trkpt>
        <trkpt lat="28.021384" lon="105.624908"><ele>1071.4</ele><time>2025-11-21T23:51:49.000Z</time></trkpt>
        <trkpt lat="28.021386" lon="105.62491"><ele>1071.4</ele><time>2025-11-21T23:51:50.000Z</time></trkpt>
        <trkpt lat="28.021388" lon="105.624913"><ele>1071.4</ele><time>2025-11-21T23:51:51.000Z</time></trkpt>
        <trkpt lat="28.02139" lon="105.624915"><ele>1071.1</ele><time>2025-11-21T23:51:52.000Z</time></trkpt>
        <trkpt lat="28.021392" lon="105.624917"><ele>1071.1</ele><time>2025-11-21T23:51:53.000Z</time></trkpt>
        <trkpt lat="28.021393" lon="105.624918"><ele>1071.1</ele><time>2025-11-21T23:51:54.000Z</time></trkpt>
        <trkpt lat="28.021393" lon="105.624919"><ele>1071.1</ele><time>2025-11-21T23:51:55.000Z</time></trkpt>
        <trkpt lat="28.021393" lon="105.624919"><ele>1071.1</ele><time>2025-11-21T23:51:56.000Z</time></trkpt>
        <trkpt lat="28.021393" lon="105.624919"><ele>1070.5</ele><time>2025-11-21T23:51:57.000Z</time></trkpt>
        <trkpt lat="28.021392" lon="105.62492"><ele>1070.5</ele><time>2025-11-21T23:51:58.000Z</time></trkpt>
        <trkpt lat="28.021391" lon="105.62492"><ele>1070.5</ele><time>2025-11-21T23:51:59.000Z</time></trkpt>
        <trkpt lat="28.021391" lon="105.624921"><ele>1070.5</ele><time>2025-11-21T23:52:00.000Z</time></trkpt>
        <trkpt lat="28.021392" lon="105.624921"><ele>1070.5</ele><time>2025-11-21T23:52:01.000Z</time></trkpt>
        <trkpt lat="28.021393" lon="105.624921"><ele>1070.3</ele><time>2025-11-21T23:52:02.000Z</time></trkpt>
        <trkpt lat="28.021397" lon="105.624922"><ele>1070.3</ele><time>2025-11-21T23:52:03.000Z</time></trkpt>
        <trkpt lat="28.021402" lon="105.624923"><ele>1070.3</ele><time>2025-11-21T23:52:04.000Z</time></trkpt>
        <trkpt lat="28.021406" lon="105.624926"><ele>1070.3</ele><time>2025-11-21T23:52:05.000Z</time></trkpt>
        <trkpt lat="28.021412" lon="105.624929"><ele>1070.3</ele><time>2025-11-21T23:52:06.000Z</time></trkpt>
        <trkpt lat="28.021417" lon="105.624932"><ele>1069.8</ele><time>2025-11-21T23:52:07.000Z</time></trkpt>
        <trkpt lat="28.021422" lon="105.624936"><ele>1069.8</ele><time>2025-11-21T23:52:08.000Z</time></trkpt>
        <trkpt lat="28.021427" lon="105.624939"><ele>1069.8</ele><time>2025-11-21T23:52:09.000Z</time></trkpt>
        <trkpt lat="28.021432" lon="105.624943"><ele>1069.8</ele><time>2025-11-21T23:52:10.000Z</time></trkpt>
        <trkpt lat="28.021437" lon="105.624946"><ele>1069.8</ele><time>2025-11-21T23:52:11.000Z</time></trkpt>
        <trkpt lat="28.021442" lon="105.624949"><ele>1069.4</ele><time>2025-11-21T23:52:12.000Z</time></trkpt>
        <trkpt lat="28.021446" lon="105.624951"><ele>1069.4</ele><time>2025-11-21T23:52:13.000Z</time></trkpt>
        <trkpt lat="28.02145" lon="105.624953"><ele>1069.4</ele><time>2025-11-21T23:52:14.000Z</time></trkpt>
        <trkpt lat="28.021453" lon="105.624954"><ele>1069.4</ele><time>2025-11-21T23:52:15.000Z</time></trkpt>
        <trkpt lat="28.021456" lon="105.624956"><ele>1069.4</ele><time>2025-11-21T23:52:16.000Z</time></trkpt>
        <trkpt lat="28.021459" lon="105.624959"><ele>1069.2</ele><time>2025-11-21T23:52:17.000Z</time></trkpt>
        <trkpt lat="28.021461" lon="105.624962"><ele>1069.2</ele><time>2025-11-21T23:52:18.000Z</time></trkpt>
        <trkpt lat="28.021461" lon="105.624963"><ele>1069.2</ele><time>2025-11-21T23:52:19.000Z</time></trkpt>
        <trkpt lat="28.021462" lon="105.624965"><ele>1069.2</ele><time>2025-11-21T23:52:20.000Z</time></trkpt>
        <trkpt lat="28.021462" lon="105.624967"><ele>1069.2</ele><time>2025-11-21T23:52:21.000Z</time></trkpt>
        <trkpt lat="28.021463" lon="105.624968"><ele>1068.5</ele><time>2025-11-21T23:52:22.000Z</time></trkpt>
        <trkpt lat="28.021465" lon="105.624971"><ele>1068.5</ele><time>2025-11-21T23:52:23.000Z</time></trkpt>
        <trkpt lat="28.021467" lon="105.624974"><ele>1068.5</ele><time>2025-11-21T23:52:24.000Z</time></trkpt>
        <trkpt lat="28.02147" lon="105.624978"><ele>1068.5</ele><time>2025-11-21T23:52:25.000Z</time></trkpt>
        <trkpt lat="28.021473" lon="105.624982"><ele>1068.5</ele><time>2025-11-21T23:52:26.000Z</time></trkpt>
        <trkpt lat="28.021477" lon="105.624988"><ele>1068.1</ele><time>2025-11-21T23:52:27.000Z</time></trkpt>
        <trkpt lat="28.021481" lon="105.624995"><ele>1068.1</ele><time>2025-11-21T23:52:28.000Z</time></trkpt>
        <trkpt lat="28.021484" lon="105.625001"><ele>1068.1</ele><time>2025-11-21T23:52:29.000Z</time></trkpt>
        <trkpt lat="28.021487" lon="105.625007"><ele>1068.1</ele><time>2025-11-21T23:52:30.000Z</time></trkpt>
        <trkpt lat="28.021489" lon="105.625012"><ele>1068.1</ele><time>2025-11-21T23:52:31.000Z</time></trkpt>
        <trkpt lat="28.02149" lon="105.625018"><ele>1067.4</ele><time>2025-11-21T23:52:32.000Z</time></trkpt>
        <trkpt lat="28.021492" lon="105.625023"><ele>1067.4</ele><time>2025-11-21T23:52:33.000Z</time></trkpt>
        <trkpt lat="28.021495" lon="105.625028"><ele>1067.4</ele><time>2025-11-21T23:52:34.000Z</time></trkpt>
        <trkpt lat="28.021498" lon="105.625032"><ele>1067.4</ele><time>2025-11-21T23:52:35.000Z</time></trkpt>
        <trkpt lat="28.021502" lon="105.625036"><ele>1067.4</ele><time>2025-11-21T23:52:36.000Z</time></trkpt>
        <trkpt lat="28.021505" lon="105.625039"><ele>1067</ele><time>2025-11-21T23:52:37.000Z</time></trkpt>
        <trkpt lat="28.021508" lon="105.625041"><ele>1067</ele><time>2025-11-21T23:52:38.000Z</time></trkpt>
        <trkpt lat="28.02151" lon="105.625043"><ele>1067</ele><time>2025-11-21T23:52:39.000Z</time></trkpt>
        <trkpt lat="28.021511" lon="105.625045"><ele>1067</ele><time>2025-11-21T23:52:40.000Z</time></trkpt>
        <trkpt lat="28.021513" lon="105.625046"><ele>1067</ele><time>2025-11-21T23:52:41.000Z</time></trkpt>
        <trkpt lat="28.021514" lon="105.625046"><ele>1066.3</ele><time>2025-11-21T23:52:42.000Z</time></trkpt>
        <trkpt lat="28.021515" lon="105.625046"><ele>1066.3</ele><time>2025-11-21T23:52:43.000Z</time></trkpt>
        <trkpt lat="28.021516" lon="105.625047"><ele>1066.3</ele><time>2025-11-21T23:52:44.000Z</time></trkpt>
        <trkpt lat="28.021517" lon="105.625047"><ele>1066.3</ele><time>2025-11-21T23:52:45.000Z</time></trkpt>
        <trkpt lat="28.021517" lon="105.625048"><ele>1066.3</ele><time>2025-11-21T23:52:46.000Z</time></trkpt>
        <trkpt lat="28.021517" lon="105.625048"><ele>1065.8</ele><time>2025-11-21T23:52:47.000Z</time></trkpt>
        <trkpt lat="28.021517" lon="105.625049"><ele>1065.8</ele><time>2025-11-21T23:52:48.000Z</time></trkpt>
        <trkpt lat="28.021517" lon="105.625048"><ele>1065.8</ele><time>2025-11-21T23:52:49.000Z</time></trkpt>
        <trkpt lat="28.021517" lon="105.625048"><ele>1065.8</ele><time>2025-11-21T23:52:50.000Z</time></trkpt>
        <trkpt lat="28.021517" lon="105.625049"><ele>1065.8</ele><time>2025-11-21T23:52:51.000Z</time></trkpt>
        <trkpt lat="28.021519" lon="105.62505"><ele>1065.1</ele><time>2025-11-21T23:52:52.000Z</time></trkpt>
        <trkpt lat="28.021522" lon="105.625052"><ele>1065.1</ele><time>2025-11-21T23:52:53.000Z</time></trkpt>
        <trkpt lat="28.021524" lon="105.625055"><ele>1065.1</ele><time>2025-11-21T23:52:54.000Z</time></trkpt>
        <trkpt lat="28.021526" lon="105.625058"><ele>1065.1</ele><time>2025-11-21T23:52:55.000Z</time></trkpt>
        <trkpt lat="28.021528" lon="105.625061"><ele>1065.1</ele><time>2025-11-21T23:52:56.000Z</time></trkpt>
        <trkpt lat="28.021529" lon="105.625064"><ele>1064.9</ele><time>2025-11-21T23:52:57.000Z</time></trkpt>
        <trkpt lat="28.02153" lon="105.625066"><ele>1064.9</ele><time>2025-11-21T23:52:58.000Z</time></trkpt>
        <trkpt lat="28.021531" lon="105.625067"><ele>1064.9</ele><time>2025-11-21T23:52:59.000Z</time></trkpt>
        <trkpt lat="28.021533" lon="105.625069"><ele>1064.9</ele><time>2025-11-21T23:53:00.000Z</time></trkpt>
        <trkpt lat="28.021535" lon="105.62507"><ele>1064.9</ele><time>2025-11-21T23:53:01.000Z</time></trkpt>
        <trkpt lat="28.021537" lon="105.625072"><ele>1064.7</ele><time>2025-11-21T23:53:02.000Z</time></trkpt>
        <trkpt lat="28.02154" lon="105.625074"><ele>1064.7</ele><time>2025-11-21T23:53:03.000Z</time></trkpt>
        <trkpt lat="28.021544" lon="105.625075"><ele>1064.7</ele><time>2025-11-21T23:53:04.000Z</time></trkpt>
        <trkpt lat="28.021548" lon="105.625077"><ele>1064.7</ele><time>2025-11-21T23:53:05.000Z</time></trkpt>
        <trkpt lat="28.021551" lon="105.625078"><ele>1064.7</ele><time>2025-11-21T23:53:06.000Z</time></trkpt>
        <trkpt lat="28.021554" lon="105.625079"><ele>1064.2</ele><time>2025-11-21T23:53:07.000Z</time></trkpt>
        <trkpt lat="28.021558" lon="105.625079"><ele>1064.2</ele><time>2025-11-21T23:53:08.000Z</time></trkpt>
        <trkpt lat="28.021561" lon="105.62508"><ele>1064.2</ele><time>2025-11-21T23:53:09.000Z</time></trkpt>
        <trkpt lat="28.021565" lon="105.62508"><ele>1064.2</ele><time>2025-11-21T23:53:10.000Z</time></trkpt>
        <trkpt lat="28.021569" lon="105.625081"><ele>1064.2</ele><time>2025-11-21T23:53:11.000Z</time></trkpt>
        <trkpt lat="28.021572" lon="105.625082"><ele>1063.8</ele><time>2025-11-21T23:53:12.000Z</time></trkpt>
        <trkpt lat="28.021575" lon="105.625082"><ele>1063.8</ele><time>2025-11-21T23:53:13.000Z</time></trkpt>
        <trkpt lat="28.021577" lon="105.625083"><ele>1063.8</ele><time>2025-11-21T23:53:14.000Z</time></trkpt>
        <trkpt lat="28.021581" lon="105.625084"><ele>1063.8</ele><time>2025-11-21T23:53:15.000Z</time></trkpt>
        <trkpt lat="28.021584" lon="105.625085"><ele>1063.8</ele><time>2025-11-21T23:53:16.000Z</time></trkpt>
        <trkpt lat="28.021587" lon="105.625086"><ele>1063.2</ele><time>2025-11-21T23:53:17.000Z</time></trkpt>
        <trkpt lat="28.021589" lon="105.625088"><ele>1063.2</ele><time>2025-11-21T23:53:18.000Z</time></trkpt>
        <trkpt lat="28.021591" lon="105.62509"><ele>1063.2</ele><time>2025-11-21T23:53:19.000Z</time></trkpt>
        <trkpt lat="28.021593" lon="105.625093"><ele>1063.2</ele><time>2025-11-21T23:53:20.000Z</time></trkpt>
        <trkpt lat="28.021594" lon="105.625095"><ele>1063.2</ele><time>2025-11-21T23:53:21.000Z</time></trkpt>
        <trkpt lat="28.021596" lon="105.625098"><ele>1062.8</ele><time>2025-11-21T23:53:22.000Z</time></trkpt>
        <trkpt lat="28.0216" lon="105.625099"><ele>1062.8</ele><time>2025-11-21T23:53:23.000Z</time></trkpt>
        <trkpt lat="28.021603" lon="105.625101"><ele>1062.8</ele><time>2025-11-21T23:53:24.000Z</time></trkpt>
        <trkpt lat="28.021606" lon="105.625102"><ele>1062.8</ele><time>2025-11-21T23:53:25.000Z</time></trkpt>
        <trkpt lat="28.02161" lon="105.625103"><ele>1062.8</ele><time>2025-11-21T23:53:26.000Z</time></trkpt>
        <trkpt lat="28.021614" lon="105.625104"><ele>1062.6</ele><time>2025-11-21T23:53:27.000Z</time></trkpt>
        <trkpt lat="28.021617" lon="105.625104"><ele>1062.6</ele><time>2025-11-21T23:53:28.000Z</time></trkpt>
        <trkpt lat="28.021621" lon="105.625105"><ele>1062.6</ele><time>2025-11-21T23:53:29.000Z</time></trkpt>
        <trkpt lat="28.021624" lon="105.625106"><ele>1062.6</ele><time>2025-11-21T23:53:30.000Z</time></trkpt>
        <trkpt lat="28.021628" lon="105.625107"><ele>1062.6</ele><time>2025-11-21T23:53:31.000Z</time></trkpt>
        <trkpt lat="28.02163" lon="105.625108"><ele>1062</ele><time>2025-11-21T23:53:32.000Z</time></trkpt>
        <trkpt lat="28.021632" lon="105.625109"><ele>1062</ele><time>2025-11-21T23:53:33.000Z</time></trkpt>
        <trkpt lat="28.021633" lon="105.625109"><ele>1062</ele><time>2025-11-21T23:53:34.000Z</time></trkpt>
        <trkpt lat="28.021634" lon="105.625109"><ele>1062</ele><time>2025-11-21T23:53:35.000Z</time></trkpt>
        <trkpt lat="28.021635" lon="105.625109"><ele>1062</ele><time>2025-11-21T23:53:36.000Z</time></trkpt>
        <trkpt lat="28.021636" lon="105.625109"><ele>1061.5</ele><time>2025-11-21T23:53:37.000Z</time></trkpt>
        <trkpt lat="28.021638" lon="105.62511"><ele>1061.5</ele><time>2025-11-21T23:53:38.000Z</time></trkpt>
        <trkpt lat="28.021639" lon="105.62511"><ele>1061.5</ele><time>2025-11-21T23:53:39.000Z</time></trkpt>
        <trkpt lat="28.02164" lon="105.62511"><ele>1061.5</ele><time>2025-11-21T23:53:40.000Z</time></trkpt>
        <trkpt lat="28.021642" lon="105.62511"><ele>1061.5</ele><time>2025-11-21T23:53:41.000Z</time></trkpt>
        <trkpt lat="28.021643" lon="105.62511"><ele>1060.7</ele><time>2025-11-21T23:53:42.000Z</time></trkpt>
        <trkpt lat="28.021645" lon="105.625109"><ele>1060.7</ele><time>2025-11-21T23:53:43.000Z</time></trkpt>
        <trkpt lat="28.021646" lon="105.625109"><ele>1060.7</ele><time>2025-11-21T23:53:44.000Z</time></trkpt>
        <trkpt lat="28.021648" lon="105.62511"><ele>1060.7</ele><time>2025-11-21T23:53:45.000Z</time></trkpt>
        <trkpt lat="28.021651" lon="105.625111"><ele>1060.7</ele><time>2025-11-21T23:53:46.000Z</time></trkpt>
        <trkpt lat="28.021654" lon="105.625113"><ele>1060.3</ele><time>2025-11-21T23:53:47.000Z</time></trkpt>
        <trkpt lat="28.021657" lon="105.625114"><ele>1060.3</ele><time>2025-11-21T23:53:48.000Z</time></trkpt>
        <trkpt lat="28.021661" lon="105.625116"><ele>1060.3</ele><time>2025-11-21T23:53:49.000Z</time></trkpt>
        <trkpt lat="28.021665" lon="105.625118"><ele>1060.3</ele><time>2025-11-21T23:53:50.000Z</time></trkpt>
        <trkpt lat="28.021669" lon="105.62512"><ele>1060.3</ele><time>2025-11-21T23:53:51.000Z</time></trkpt>
        <trkpt lat="28.021673" lon="105.625121"><ele>1059.9</ele><time>2025-11-21T23:53:52.000Z</time></trkpt>
        <trkpt lat="28.021675" lon="105.625123"><ele>1059.9</ele><time>2025-11-21T23:53:53.000Z</time></trkpt>
        <trkpt lat="28.021676" lon="105.625123"><ele>1059.9</ele><time>2025-11-21T23:53:54.000Z</time></trkpt>
        <trkpt lat="28.021677" lon="105.625123"><ele>1059.9</ele><time>2025-11-21T23:53:55.000Z</time></trkpt>
        <trkpt lat="28.021678" lon="105.625122"><ele>1059.9</ele><time>2025-11-21T23:53:56.000Z</time></trkpt>
        <trkpt lat="28.021678" lon="105.625122"><ele>1059.7</ele><time>2025-11-21T23:53:57.000Z</time></trkpt>
        <trkpt lat="28.021679" lon="105.625122"><ele>1059.7</ele><time>2025-11-21T23:53:58.000Z</time></trkpt>
        <trkpt lat="28.02168" lon="105.625122"><ele>1059.7</ele><time>2025-11-21T23:53:59.000Z</time></trkpt>
        <trkpt lat="28.02168" lon="105.625124"><ele>1059.7</ele><time>2025-11-21T23:54:00.000Z</time></trkpt>
        <trkpt lat="28.021679" lon="105.625125"><ele>1059.7</ele><time>2025-11-21T23:54:01.000Z</time></trkpt>
        <trkpt lat="28.021679" lon="105.625125"><ele>1059.2</ele><time>2025-11-21T23:54:02.000Z</time></trkpt>
        <trkpt lat="28.021679" lon="105.625125"><ele>1059.2</ele><time>2025-11-21T23:54:03.000Z</time></trkpt>
        <trkpt lat="28.021678" lon="105.625125"><ele>1059.2</ele><time>2025-11-21T23:54:04.000Z</time></trkpt>
        <trkpt lat="28.021678" lon="105.625126"><ele>1059.2</ele><time>2025-11-21T23:54:05.000Z</time></trkpt>
        <trkpt lat="28.021679" lon="105.625127"><ele>1059.2</ele><time>2025-11-21T23:54:06.000Z</time></trkpt>
        <trkpt lat="28.021681" lon="105.62513"><ele>1059.1</ele><time>2025-11-21T23:54:07.000Z</time></trkpt>
        <trkpt lat="28.021682" lon="105.625134"><ele>1059.1</ele><time>2025-11-21T23:54:08.000Z</time></trkpt>
        <trkpt lat="28.021684" lon="105.625139"><ele>1059.1</ele><time>2025-11-21T23:54:09.000Z</time></trkpt>
        <trkpt lat="28.021685" lon="105.625143"><ele>1059.1</ele><time>2025-11-21T23:54:10.000Z</time></trkpt>
        <trkpt lat="28.021687" lon="105.625148"><ele>1059.1</ele><time>2025-11-21T23:54:11.000Z</time></trkpt>
        <trkpt lat="28.021688" lon="105.625151"><ele>1058.8</ele><time>2025-11-21T23:54:12.000Z</time></trkpt>
        <trkpt lat="28.021689" lon="105.625154"><ele>1058.8</ele><time>2025-11-21T23:54:13.000Z</time></trkpt>
        <trkpt lat="28.021692" lon="105.625156"><ele>1058.8</ele><time>2025-11-21T23:54:14.000Z</time></trkpt>
        <trkpt lat="28.021695" lon="105.625159"><ele>1058.8</ele><time>2025-11-21T23:54:15.000Z</time></trkpt>
        <trkpt lat="28.0217" lon="105.62516"><ele>1058.8</ele><time>2025-11-21T23:54:16.000Z</time></trkpt>
        <trkpt lat="28.021705" lon="105.625162"><ele>1058.6</ele><time>2025-11-21T23:54:17.000Z</time></trkpt>
        <trkpt lat="28.021711" lon="105.625163"><ele>1058.6</ele><time>2025-11-21T23:54:18.000Z</time></trkpt>
        <trkpt lat="28.021717" lon="105.625162"><ele>1058.6</ele><time>2025-11-21T23:54:19.000Z</time></trkpt>
        <trkpt lat="28.021723" lon="105.625162"><ele>1058.6</ele><time>2025-11-21T23:54:20.000Z</time></trkpt>
        <trkpt lat="28.021728" lon="105.625161"><ele>1058.6</ele><time>2025-11-21T23:54:21.000Z</time></trkpt>
        <trkpt lat="28.021732" lon="105.625161"><ele>1058.2</ele><time>2025-11-21T23:54:22.000Z</time></trkpt>
        <trkpt lat="28.021736" lon="105.62516"><ele>1058.2</ele><time>2025-11-21T23:54:23.000Z</time></trkpt>
        <trkpt lat="28.021741" lon="105.625161"><ele>1058.2</ele><time>2025-11-21T23:54:24.000Z</time></trkpt>
        <trkpt lat="28.021746" lon="105.625161"><ele>1058.2</ele><time>2025-11-21T23:54:25.000Z</time></trkpt>
        <trkpt lat="28.021751" lon="105.625161"><ele>1058.2</ele><time>2025-11-21T23:54:26.000Z</time></trkpt>
        <trkpt lat="28.021757" lon="105.625162"><ele>1057.7</ele><time>2025-11-21T23:54:27.000Z</time></trkpt>
        <trkpt lat="28.021762" lon="105.625163"><ele>1057.7</ele><time>2025-11-21T23:54:28.000Z</time></trkpt>
        <trkpt lat="28.021767" lon="105.625164"><ele>1057.7</ele><time>2025-11-21T23:54:29.000Z</time></trkpt>
        <trkpt lat="28.02177" lon="105.625165"><ele>1057.7</ele><time>2025-11-21T23:54:30.000Z</time></trkpt>
        <trkpt lat="28.021773" lon="105.625166"><ele>1057.7</ele><time>2025-11-21T23:54:31.000Z</time></trkpt>
        <trkpt lat="28.021777" lon="105.625167"><ele>1057</ele><time>2025-11-21T23:54:32.000Z</time></trkpt>
        <trkpt lat="28.021781" lon="105.625168"><ele>1057</ele><time>2025-11-21T23:54:33.000Z</time></trkpt>
        <trkpt lat="28.021786" lon="105.625168"><ele>1057</ele><time>2025-11-21T23:54:34.000Z</time></trkpt>
        <trkpt lat="28.021792" lon="105.625169"><ele>1057</ele><time>2025-11-21T23:54:35.000Z</time></trkpt>
        <trkpt lat="28.021797" lon="105.62517"><ele>1057</ele><time>2025-11-21T23:54:36.000Z</time></trkpt>
        <trkpt lat="28.021802" lon="105.625171"><ele>1056.6</ele><time>2025-11-21T23:54:37.000Z</time></trkpt>
        <trkpt lat="28.021808" lon="105.625173"><ele>1056.6</ele><time>2025-11-21T23:54:38.000Z</time></trkpt>
        <trkpt lat="28.021813" lon="105.625174"><ele>1056.6</ele><time>2025-11-21T23:54:39.000Z</time></trkpt>
        <trkpt lat="28.021817" lon="105.625174"><ele>1056.6</ele><time>2025-11-21T23:54:40.000Z</time></trkpt>
        <trkpt lat="28.021821" lon="105.625174"><ele>1056.6</ele><time>2025-11-21T23:54:41.000Z</time></trkpt>
        <trkpt lat="28.021823" lon="105.625173"><ele>1056</ele><time>2025-11-21T23:54:42.000Z</time></trkpt>
        <trkpt lat="28.021825" lon="105.625172"><ele>1056</ele><time>2025-11-21T23:54:43.000Z</time></trkpt>
        <trkpt lat="28.021825" lon="105.625171"><ele>1056</ele><time>2025-11-21T23:54:44.000Z</time></trkpt>
        <trkpt lat="28.021826" lon="105.62517"><ele>1056</ele><time>2025-11-21T23:54:45.000Z</time></trkpt>
        <trkpt lat="28.021826" lon="105.62517"><ele>1056</ele><time>2025-11-21T23:54:46.000Z</time></trkpt>
        <trkpt lat="28.021827" lon="105.62517"><ele>1055.6</ele><time>2025-11-21T23:54:47.000Z</time></trkpt>
        <trkpt lat="28.021827" lon="105.62517"><ele>1055.6</ele><time>2025-11-21T23:54:48.000Z</time></trkpt>
        <trkpt lat="28.021827" lon="105.62517"><ele>1055.6</ele><time>2025-11-21T23:54:49.000Z</time></trkpt>
        <trkpt lat="28.021827" lon="105.625169"><ele>1055.6</ele><time>2025-11-21T23:54:50.000Z</time></trkpt>
        <trkpt lat="28.021827" lon="105.625169"><ele>1055.6</ele><time>2025-11-21T23:54:51.000Z</time></trkpt>
        <trkpt lat="28.021828" lon="105.625169"><ele>1055.2</ele><time>2025-11-21T23:54:52.000Z</time></trkpt>
        <trkpt lat="28.02183" lon="105.625168"><ele>1055.2</ele><time>2025-11-21T23:54:53.000Z</time></trkpt>
        <trkpt lat="28.021833" lon="105.625168"><ele>1055.2</ele><time>2025-11-21T23:54:54.000Z</time></trkpt>
        <trkpt lat="28.021837" lon="105.62517"><ele>1055.2</ele><time>2025-11-21T23:54:55.000Z</time></trkpt>
        <trkpt lat="28.021843" lon="105.625173"><ele>1055.2</ele><time>2025-11-21T23:54:56.000Z</time></trkpt>
        <trkpt lat="28.021849" lon="105.625176"><ele>1054.9</ele><time>2025-11-21T23:54:57.000Z</time></trkpt>
        <trkpt lat="28.021856" lon="105.625181"><ele>1054.9</ele><time>2025-11-21T23:54:58.000Z</time></trkpt>
        <trkpt lat="28.021862" lon="105.625185"><ele>1054.9</ele><time>2025-11-21T23:54:59.000Z</time></trkpt>
        <trkpt lat="28.021869" lon="105.62519"><ele>1054.9</ele><time>2025-11-21T23:55:00.000Z</time></trkpt>
        <trkpt lat="28.021874" lon="105.625193"><ele>1054.9</ele><time>2025-11-21T23:55:01.000Z</time></trkpt>
        <trkpt lat="28.021879" lon="105.625194"><ele>1054.5</ele><time>2025-11-21T23:55:02.000Z</time></trkpt>
        <trkpt lat="28.021882" lon="105.625196"><ele>1054.5</ele><time>2025-11-21T23:55:03.000Z</time></trkpt>
        <trkpt lat="28.021885" lon="105.625197"><ele>1054.5</ele><time>2025-11-21T23:55:04.000Z</time></trkpt>
        <trkpt lat="28.021888" lon="105.625198"><ele>1054.5</ele><time>2025-11-21T23:55:05.000Z</time></trkpt>
        <trkpt lat="28.021891" lon="105.625198"><ele>1054.5</ele><time>2025-11-21T23:55:06.000Z</time></trkpt>
        <trkpt lat="28.021894" lon="105.6252"><ele>1054</ele><time>2025-11-21T23:55:07.000Z</time></trkpt>
        <trkpt lat="28.021898" lon="105.625201"><ele>1054</ele><time>2025-11-21T23:55:08.000Z</time></trkpt>
        <trkpt lat="28.021901" lon="105.625202"><ele>1054</ele><time>2025-11-21T23:55:09.000Z</time></trkpt>
        <trkpt lat="28.021903" lon="105.625203"><ele>1054</ele><time>2025-11-21T23:55:10.000Z</time></trkpt>
        <trkpt lat="28.021906" lon="105.625203"><ele>1054</ele><time>2025-11-21T23:55:11.000Z</time></trkpt>
        <trkpt lat="28.021908" lon="105.625203"><ele>1052.9</ele><time>2025-11-21T23:55:12.000Z</time></trkpt>
        <trkpt lat="28.021909" lon="105.625204"><ele>1052.9</ele><time>2025-11-21T23:55:13.000Z</time></trkpt>
        <trkpt lat="28.02191" lon="105.625204"><ele>1052.9</ele><time>2025-11-21T23:55:14.000Z</time></trkpt>
        <trkpt lat="28.021911" lon="105.625204"><ele>1052.9</ele><time>2025-11-21T23:55:15.000Z</time></trkpt>
        <trkpt lat="28.021911" lon="105.625204"><ele>1052.9</ele><time>2025-11-21T23:55:16.000Z</time></trkpt>
        <trkpt lat="28.021911" lon="105.625205"><ele>1052.2</ele><time>2025-11-21T23:55:17.000Z</time></trkpt>
        <trkpt lat="28.021911" lon="105.625207"><ele>1052.2</ele><time>2025-11-21T23:55:18.000Z</time></trkpt>
        <trkpt lat="28.021912" lon="105.625209"><ele>1052.2</ele><time>2025-11-21T23:55:19.000Z</time></trkpt>
        <trkpt lat="28.021914" lon="105.625211"><ele>1052.2</ele><time>2025-11-21T23:55:20.000Z</time></trkpt>
        <trkpt lat="28.021917" lon="105.625214"><ele>1052.2</ele><time>2025-11-21T23:55:21.000Z</time></trkpt>
        <trkpt lat="28.021922" lon="105.625217"><ele>1051.5</ele><time>2025-11-21T23:55:22.000Z</time></trkpt>
        <trkpt lat="28.021926" lon="105.625219"><ele>1051.5</ele><time>2025-11-21T23:55:23.000Z</time></trkpt>
        <trkpt lat="28.021929" lon="105.625221"><ele>1051.5</ele><time>2025-11-21T23:55:24.000Z</time></trkpt>
        <trkpt lat="28.021932" lon="105.625224"><ele>1051.5</ele><time>2025-11-21T23:55:25.000Z</time></trkpt>
        <trkpt lat="28.021933" lon="105.625228"><ele>1051.5</ele><time>2025-11-21T23:55:26.000Z</time></trkpt>
        <trkpt lat="28.021933" lon="105.625231"><ele>1051</ele><time>2025-11-21T23:55:27.000Z</time></trkpt>
        <trkpt lat="28.021934" lon="105.625234"><ele>1051</ele><time>2025-11-21T23:55:28.000Z</time></trkpt>
        <trkpt lat="28.021935" lon="105.625238"><ele>1051</ele><time>2025-11-21T23:55:29.000Z</time></trkpt>
        <trkpt lat="28.021937" lon="105.62524"><ele>1051</ele><time>2025-11-21T23:55:30.000Z</time></trkpt>
        <trkpt lat="28.02194" lon="105.625243"><ele>1051</ele><time>2025-11-21T23:55:31.000Z</time></trkpt>
        <trkpt lat="28.021944" lon="105.625247"><ele>1050.8</ele><time>2025-11-21T23:55:32.000Z</time></trkpt>
        <trkpt lat="28.021948" lon="105.625251"><ele>1050.8</ele><time>2025-11-21T23:55:33.000Z</time></trkpt>
        <trkpt lat="28.021952" lon="105.625256"><ele>1050.8</ele><time>2025-11-21T23:55:34.000Z</time></trkpt>
        <trkpt lat="28.021957" lon="105.625261"><ele>1050.8</ele><time>2025-11-21T23:55:35.000Z</time></trkpt>
        <trkpt lat="28.021961" lon="105.625268"><ele>1050.8</ele><time>2025-11-21T23:55:36.000Z</time></trkpt>
        <trkpt lat="28.021964" lon="105.625275"><ele>1050.3</ele><time>2025-11-21T23:55:37.000Z</time></trkpt>
        <trkpt lat="28.021967" lon="105.625283"><ele>1050.3</ele><time>2025-11-21T23:55:38.000Z</time></trkpt>
        <trkpt lat="28.021969" lon="105.625292"><ele>1050.3</ele><time>2025-11-21T23:55:39.000Z</time></trkpt>
        <trkpt lat="28.021971" lon="105.625302"><ele>1050.3</ele><time>2025-11-21T23:55:40.000Z</time></trkpt>
        <trkpt lat="28.021973" lon="105.625311"><ele>1050.3</ele><time>2025-11-21T23:55:41.000Z</time></trkpt>
        <trkpt lat="28.021976" lon="105.625319"><ele>1049.7</ele><time>2025-11-21T23:55:42.000Z</time></trkpt>
        <trkpt lat="28.021978" lon="105.625326"><ele>1049.7</ele><time>2025-11-21T23:55:43.000Z</time></trkpt>
        <trkpt lat="28.021982" lon="105.625332"><ele>1049.7</ele><time>2025-11-21T23:55:44.000Z</time></trkpt>
        <trkpt lat="28.021985" lon="105.625337"><ele>1049.7</ele><time>2025-11-21T23:55:45.000Z</time></trkpt>
        <trkpt lat="28.021988" lon="105.625341"><ele>1049.7</ele><time>2025-11-21T23:55:46.000Z</time></trkpt>
        <trkpt lat="28.02199" lon="105.625345"><ele>1049.3</ele><time>2025-11-21T23:55:47.000Z</time></trkpt>
        <trkpt lat="28.021993" lon="105.625348"><ele>1049.3</ele><time>2025-11-21T23:55:48.000Z</time></trkpt>
        <trkpt lat="28.021995" lon="105.625351"><ele>1049.3</ele><time>2025-11-21T23:55:49.000Z</time></trkpt>
        <trkpt lat="28.021997" lon="105.625353"><ele>1049.3</ele><time>2025-11-21T23:55:50.000Z</time></trkpt>
        <trkpt lat="28.021998" lon="105.625355"><ele>1049.3</ele><time>2025-11-21T23:55:51.000Z</time></trkpt>
        <trkpt lat="28.021999" lon="105.625356"><ele>1048.7</ele><time>2025-11-21T23:55:52.000Z</time></trkpt>
        <trkpt lat="28.022" lon="105.625357"><ele>1048.7</ele><time>2025-11-21T23:55:53.000Z</time></trkpt>
        <trkpt lat="28.022001" lon="105.625359"><ele>1048.7</ele><time>2025-11-21T23:55:54.000Z</time></trkpt>
        <trkpt lat="28.022001" lon="105.62536"><ele>1048.7</ele><time>2025-11-21T23:55:55.000Z</time></trkpt>
        <trkpt lat="28.022002" lon="105.625361"><ele>1048.7</ele><time>2025-11-21T23:55:56.000Z</time></trkpt>
        <trkpt lat="28.022002" lon="105.625364"><ele>1048.2</ele><time>2025-11-21T23:55:57.000Z</time></trkpt>
        <trkpt lat="28.022003" lon="105.625367"><ele>1048.2</ele><time>2025-11-21T23:55:58.000Z</time></trkpt>
        <trkpt lat="28.022004" lon="105.62537"><ele>1048.2</ele><time>2025-11-21T23:55:59.000Z</time></trkpt>
        <trkpt lat="28.022005" lon="105.625373"><ele>1048.2</ele><time>2025-11-21T23:56:00.000Z</time></trkpt>
        <trkpt lat="28.022006" lon="105.625377"><ele>1048.2</ele><time>2025-11-21T23:56:01.000Z</time></trkpt>
        <trkpt lat="28.022008" lon="105.62538"><ele>1047.8</ele><time>2025-11-21T23:56:02.000Z</time></trkpt>
        <trkpt lat="28.022009" lon="105.625383"><ele>1047.8</ele><time>2025-11-21T23:56:03.000Z</time></trkpt>
        <trkpt lat="28.02201" lon="105.625386"><ele>1047.8</ele><time>2025-11-21T23:56:04.000Z</time></trkpt>
        <trkpt lat="28.022013" lon="105.62539"><ele>1047.8</ele><time>2025-11-21T23:56:05.000Z</time></trkpt>
        <trkpt lat="28.022015" lon="105.625395"><ele>1047.8</ele><time>2025-11-21T23:56:06.000Z</time></trkpt>
        <trkpt lat="28.022017" lon="105.6254"><ele>1047.2</ele><time>2025-11-21T23:56:07.000Z</time></trkpt>
        <trkpt lat="28.02202" lon="105.625406"><ele>1047.2</ele><time>2025-11-21T23:56:08.000Z</time></trkpt>
        <trkpt lat="28.022022" lon="105.625411"><ele>1047.2</ele><time>2025-11-21T23:56:09.000Z</time></trkpt>
        <trkpt lat="28.022024" lon="105.625417"><ele>1047.2</ele><time>2025-11-21T23:56:10.000Z</time></trkpt>
        <trkpt lat="28.022025" lon="105.625424"><ele>1047.2</ele><time>2025-11-21T23:56:11.000Z</time></trkpt>
        <trkpt lat="28.022026" lon="105.62543"><ele>1046.7</ele><time>2025-11-21T23:56:12.000Z</time></trkpt>
        <trkpt lat="28.022026" lon="105.625436"><ele>1046.7</ele><time>2025-11-21T23:56:13.000Z</time></trkpt>
        <trkpt lat="28.022026" lon="105.625442"><ele>1046.7</ele><time>2025-11-21T23:56:14.000Z</time></trkpt>
        <trkpt lat="28.022026" lon="105.625447"><ele>1046.7</ele><time>2025-11-21T23:56:15.000Z</time></trkpt>
        <trkpt lat="28.022027" lon="105.625452"><ele>1046.7</ele><time>2025-11-21T23:56:16.000Z</time></trkpt>
        <trkpt lat="28.022027" lon="105.625456"><ele>1046.3</ele><time>2025-11-21T23:56:17.000Z</time></trkpt>
        <trkpt lat="28.022027" lon="105.62546"><ele>1046.3</ele><time>2025-11-21T23:56:18.000Z</time></trkpt>
        <trkpt lat="28.022028" lon="105.625463"><ele>1046.3</ele><time>2025-11-21T23:56:19.000Z</time></trkpt>
        <trkpt lat="28.022028" lon="105.625467"><ele>1046.3</ele><time>2025-11-21T23:56:20.000Z</time></trkpt>
        <trkpt lat="28.022029" lon="105.625471"><ele>1046.3</ele><time>2025-11-21T23:56:21.000Z</time></trkpt>
        <trkpt lat="28.02203" lon="105.625475"><ele>1045.8</ele><time>2025-11-21T23:56:22.000Z</time></trkpt>
        <trkpt lat="28.022031" lon="105.625479"><ele>1045.8</ele><time>2025-11-21T23:56:23.000Z</time></trkpt>
        <trkpt lat="28.022032" lon="105.625484"><ele>1045.8</ele><time>2025-11-21T23:56:24.000Z</time></trkpt>
        <trkpt lat="28.022033" lon="105.62549"><ele>1045.8</ele><time>2025-11-21T23:56:25.000Z</time></trkpt>
        <trkpt lat="28.022034" lon="105.625497"><ele>1045.8</ele><time>2025-11-21T23:56:26.000Z</time></trkpt>
        <trkpt lat="28.022035" lon="105.625505"><ele>1045.3</ele><time>2025-11-21T23:56:27.000Z</time></trkpt>
        <trkpt lat="28.022036" lon="105.625513"><ele>1045.3</ele><time>2025-11-21T23:56:28.000Z</time></trkpt>
        <trkpt lat="28.022037" lon="105.625521"><ele>1045.3</ele><time>2025-11-21T23:56:29.000Z</time></trkpt>
        <trkpt lat="28.022039" lon="105.625529"><ele>1045.3</ele><time>2025-11-21T23:56:30.000Z</time></trkpt>
        <trkpt lat="28.02204" lon="105.625535"><ele>1045.3</ele><time>2025-11-21T23:56:31.000Z</time></trkpt>
        <trkpt lat="28.022041" lon="105.625542"><ele>1045.1</ele><time>2025-11-21T23:56:32.000Z</time></trkpt>
        <trkpt lat="28.022043" lon="105.625549"><ele>1045.1</ele><time>2025-11-21T23:56:33.000Z</time></trkpt>
        <trkpt lat="28.022045" lon="105.625556"><ele>1045.1</ele><time>2025-11-21T23:56:34.000Z</time></trkpt>
        <trkpt lat="28.022045" lon="105.625562"><ele>1045.1</ele><time>2025-11-21T23:56:35.000Z</time></trkpt>
        <trkpt lat="28.022046" lon="105.625569"><ele>1045.1</ele><time>2025-11-21T23:56:36.000Z</time></trkpt>
        <trkpt lat="28.022046" lon="105.625575"><ele>1044.8</ele><time>2025-11-21T23:56:37.000Z</time></trkpt>
        <trkpt lat="28.022046" lon="105.625582"><ele>1044.8</ele><time>2025-11-21T23:56:38.000Z</time></trkpt>
        <trkpt lat="28.022045" lon="105.625588"><ele>1044.8</ele><time>2025-11-21T23:56:39.000Z</time></trkpt>
        <trkpt lat="28.022045" lon="105.625595"><ele>1044.8</ele><time>2025-11-21T23:56:40.000Z</time></trkpt>
        <trkpt lat="28.022044" lon="105.625602"><ele>1044.8</ele><time>2025-11-21T23:56:41.000Z</time></trkpt>
        <trkpt lat="28.022044" lon="105.625609"><ele>1044.6</ele><time>2025-11-21T23:56:42.000Z</time></trkpt>
        <trkpt lat="28.022044" lon="105.625615"><ele>1044.6</ele><time>2025-11-21T23:56:43.000Z</time></trkpt>
        <trkpt lat="28.022044" lon="105.625621"><ele>1044.6</ele><time>2025-11-21T23:56:44.000Z</time></trkpt>
        <trkpt lat="28.022043" lon="105.625626"><ele>1044.6</ele><time>2025-11-21T23:56:45.000Z</time></trkpt>
        <trkpt lat="28.022043" lon="105.62563"><ele>1044.6</ele><time>2025-11-21T23:56:46.000Z</time></trkpt>
        <trkpt lat="28.022045" lon="105.625633"><ele>1044.4</ele><time>2025-11-21T23:56:47.000Z</time></trkpt>
        <trkpt lat="28.022048" lon="105.625635"><ele>1044.4</ele><time>2025-11-21T23:56:48.000Z</time></trkpt>
        <trkpt lat="28.022053" lon="105.625636"><ele>1044.4</ele><time>2025-11-21T23:56:49.000Z</time></trkpt>
        <trkpt lat="28.022058" lon="105.625637"><ele>1044.4</ele><time>2025-11-21T23:56:50.000Z</time></trkpt>
        <trkpt lat="28.022064" lon="105.625637"><ele>1044.4</ele><time>2025-11-21T23:56:51.000Z</time></trkpt>
        <trkpt lat="28.022067" lon="105.625637"><ele>1044.1</ele><time>2025-11-21T23:56:52.000Z</time></trkpt>
        <trkpt lat="28.022069" lon="105.625637"><ele>1044.1</ele><time>2025-11-21T23:56:53.000Z</time></trkpt>
        <trkpt lat="28.022069" lon="105.625638"><ele>1044.1</ele><time>2025-11-21T23:56:54.000Z</time></trkpt>
        <trkpt lat="28.02207" lon="105.625641"><ele>1044.1</ele><time>2025-11-21T23:56:55.000Z</time></trkpt>
        <trkpt lat="28.022071" lon="105.625645"><ele>1044.1</ele><time>2025-11-21T23:56:56.000Z</time></trkpt>
        <trkpt lat="28.022072" lon="105.62565"><ele>1044.1</ele><time>2025-11-21T23:56:57.000Z</time></trkpt>
        <trkpt lat="28.022074" lon="105.625657"><ele>1044.1</ele><time>2025-11-21T23:56:58.000Z</time></trkpt>
        <trkpt lat="28.022077" lon="105.625663"><ele>1044.1</ele><time>2025-11-21T23:56:59.000Z</time></trkpt>
        <trkpt lat="28.022079" lon="105.625669"><ele>1044.1</ele><time>2025-11-21T23:57:00.000Z</time></trkpt>
        <trkpt lat="28.022082" lon="105.625674"><ele>1044.1</ele><time>2025-11-21T23:57:01.000Z</time></trkpt>
        <trkpt lat="28.022085" lon="105.62568"><ele>1043.9</ele><time>2025-11-21T23:57:02.000Z</time></trkpt>
        <trkpt lat="28.022088" lon="105.625685"><ele>1043.9</ele><time>2025-11-21T23:57:03.000Z</time></trkpt>
        <trkpt lat="28.022091" lon="105.62569"><ele>1043.9</ele><time>2025-11-21T23:57:04.000Z</time></trkpt>
        <trkpt lat="28.022094" lon="105.625696"><ele>1043.9</ele><time>2025-11-21T23:57:05.000Z</time></trkpt>
        <trkpt lat="28.022098" lon="105.625702"><ele>1043.9</ele><time>2025-11-21T23:57:06.000Z</time></trkpt>
        <trkpt lat="28.022101" lon="105.625708"><ele>1043.6</ele><time>2025-11-21T23:57:07.000Z</time></trkpt>
        <trkpt lat="28.022104" lon="105.625715"><ele>1043.6</ele><time>2025-11-21T23:57:08.000Z</time></trkpt>
        <trkpt lat="28.022106" lon="105.62572"><ele>1043.6</ele><time>2025-11-21T23:57:09.000Z</time></trkpt>
        <trkpt lat="28.022107" lon="105.625724"><ele>1043.6</ele><time>2025-11-21T23:57:10.000Z</time></trkpt>
        <trkpt lat="28.022109" lon="105.625727"><ele>1043.6</ele><time>2025-11-21T23:57:11.000Z</time></trkpt>
        <trkpt lat="28.02211" lon="105.62573"><ele>1042.7</ele><time>2025-11-21T23:57:12.000Z</time></trkpt>
        <trkpt lat="28.022111" lon="105.625731"><ele>1042.7</ele><time>2025-11-21T23:57:13.000Z</time></trkpt>
        <trkpt lat="28.022114" lon="105.625733"><ele>1042.7</ele><time>2025-11-21T23:57:14.000Z</time></trkpt>
        <trkpt lat="28.022118" lon="105.625735"><ele>1042.7</ele><time>2025-11-21T23:57:15.000Z</time></trkpt>
        <trkpt lat="28.022121" lon="105.625738"><ele>1042.7</ele><time>2025-11-21T23:57:16.000Z</time></trkpt>
        <trkpt lat="28.022124" lon="105.625741"><ele>1042.1</ele><time>2025-11-21T23:57:17.000Z</time></trkpt>
        <trkpt lat="28.022127" lon="105.625744"><ele>1042.1</ele><time>2025-11-21T23:57:18.000Z</time></trkpt>
        <trkpt lat="28.022129" lon="105.625748"><ele>1042.1</ele><time>2025-11-21T23:57:19.000Z</time></trkpt>
        <trkpt lat="28.02213" lon="105.625752"><ele>1042.1</ele><time>2025-11-21T23:57:20.000Z</time></trkpt>
        <trkpt lat="28.022132" lon="105.625756"><ele>1042.1</ele><time>2025-11-21T23:57:21.000Z</time></trkpt>
        <trkpt lat="28.022133" lon="105.625759"><ele>1041.4</ele><time>2025-11-21T23:57:22.000Z</time></trkpt>
        <trkpt lat="28.022134" lon="105.625763"><ele>1041.4</ele><time>2025-11-21T23:57:23.000Z</time></trkpt>
        <trkpt lat="28.022134" lon="105.625766"><ele>1041.4</ele><time>2025-11-21T23:57:24.000Z</time></trkpt>
        <trkpt lat="28.022136" lon="105.625768"><ele>1041.4</ele><time>2025-11-21T23:57:25.000Z</time></trkpt>
        <trkpt lat="28.022138" lon="105.625771"><ele>1041.4</ele><time>2025-11-21T23:57:26.000Z</time></trkpt>
        <trkpt lat="28.02214" lon="105.625774"><ele>1041</ele><time>2025-11-21T23:57:27.000Z</time></trkpt>
        <trkpt lat="28.022143" lon="105.625779"><ele>1041</ele><time>2025-11-21T23:57:28.000Z</time></trkpt>
        <trkpt lat="28.022145" lon="105.625783"><ele>1041</ele><time>2025-11-21T23:57:29.000Z</time></trkpt>
        <trkpt lat="28.022148" lon="105.625789"><ele>1041</ele><time>2025-11-21T23:57:30.000Z</time></trkpt>
        <trkpt lat="28.022151" lon="105.625795"><ele>1041</ele><time>2025-11-21T23:57:31.000Z</time></trkpt>
        <trkpt lat="28.022155" lon="105.625799"><ele>1040.4</ele><time>2025-11-21T23:57:32.000Z</time></trkpt>
        <trkpt lat="28.022159" lon="105.625803"><ele>1040.4</ele><time>2025-11-21T23:57:33.000Z</time></trkpt>
        <trkpt lat="28.022162" lon="105.625805"><ele>1040.4</ele><time>2025-11-21T23:57:34.000Z</time></trkpt>
        <trkpt lat="28.022166" lon="105.625809"><ele>1040.4</ele><time>2025-11-21T23:57:35.000Z</time></trkpt>
        <trkpt lat="28.02217" lon="105.625814"><ele>1040.4</ele><time>2025-11-21T23:57:36.000Z</time></trkpt>
        <trkpt lat="28.022172" lon="105.625819"><ele>1039.8</ele><time>2025-11-21T23:57:37.000Z</time></trkpt>
        <trkpt lat="28.022176" lon="105.625824"><ele>1039.8</ele><time>2025-11-21T23:57:38.000Z</time></trkpt>
        <trkpt lat="28.022179" lon="105.625831"><ele>1039.8</ele><time>2025-11-21T23:57:39.000Z</time></trkpt>
        <trkpt lat="28.022181" lon="105.625836"><ele>1039.8</ele><time>2025-11-21T23:57:40.000Z</time></trkpt>
        <trkpt lat="28.022183" lon="105.625841"><ele>1039.8</ele><time>2025-11-21T23:57:41.000Z</time></trkpt>
        <trkpt lat="28.022185" lon="105.625846"><ele>1038.9</ele><time>2025-11-21T23:57:42.000Z</time></trkpt>
        <trkpt lat="28.022186" lon="105.625852"><ele>1038.9</ele><time>2025-11-21T23:57:43.000Z</time></trkpt>
        <trkpt lat="28.022189" lon="105.625857"><ele>1038.9</ele><time>2025-11-21T23:57:44.000Z</time></trkpt>
        <trkpt lat="28.022192" lon="105.625862"><ele>1038.9</ele><time>2025-11-21T23:57:45.000Z</time></trkpt>
        <trkpt lat="28.022195" lon="105.625867"><ele>1038.9</ele><time>2025-11-21T23:57:46.000Z</time></trkpt>
        <trkpt lat="28.0222" lon="105.625873"><ele>1038.2</ele><time>2025-11-21T23:57:47.000Z</time></trkpt>
        <trkpt lat="28.022205" lon="105.62588"><ele>1038.2</ele><time>2025-11-21T23:57:48.000Z</time></trkpt>
        <trkpt lat="28.02221" lon="105.625887"><ele>1038.2</ele><time>2025-11-21T23:57:49.000Z</time></trkpt>
        <trkpt lat="28.022214" lon="105.625895"><ele>1038.2</ele><time>2025-11-21T23:57:50.000Z</time></trkpt>
        <trkpt lat="28.02222" lon="105.625903"><ele>1038.2</ele><time>2025-11-21T23:57:51.000Z</time></trkpt>
        <trkpt lat="28.022224" lon="105.625909"><ele>1037.1</ele><time>2025-11-21T23:57:52.000Z</time></trkpt>
        <trkpt lat="28.022228" lon="105.625915"><ele>1037.1</ele><time>2025-11-21T23:57:53.000Z</time></trkpt>
        <trkpt lat="28.022232" lon="105.62592"><ele>1037.1</ele><time>2025-11-21T23:57:54.000Z</time></trkpt>
        <trkpt lat="28.022235" lon="105.625926"><ele>1037.1</ele><time>2025-11-21T23:57:55.000Z</time></trkpt>
        <trkpt lat="28.022238" lon="105.625932"><ele>1037.1</ele><time>2025-11-21T23:57:56.000Z</time></trkpt>
        <trkpt lat="28.022241" lon="105.625938"><ele>1036.3</ele><time>2025-11-21T23:57:57.000Z</time></trkpt>
        <trkpt lat="28.022242" lon="105.625943"><ele>1036.3</ele><time>2025-11-21T23:57:58.000Z</time></trkpt>
        <trkpt lat="28.022244" lon="105.625948"><ele>1036.3</ele><time>2025-11-21T23:57:59.000Z</time></trkpt>
        <trkpt lat="28.022246" lon="105.625952"><ele>1036.3</ele><time>2025-11-21T23:58:00.000Z</time></trkpt>
        <trkpt lat="28.022248" lon="105.625957"><ele>1036.3</ele><time>2025-11-21T23:58:01.000Z</time></trkpt>
        <trkpt lat="28.02225" lon="105.625961"><ele>1035.3</ele><time>2025-11-21T23:58:02.000Z</time></trkpt>
        <trkpt lat="28.022252" lon="105.625965"><ele>1035.3</ele><time>2025-11-21T23:58:03.000Z</time></trkpt>
        <trkpt lat="28.022254" lon="105.62597"><ele>1035.3</ele><time>2025-11-21T23:58:04.000Z</time></trkpt>
        <trkpt lat="28.022255" lon="105.625975"><ele>1035.3</ele><time>2025-11-21T23:58:05.000Z</time></trkpt>
        <trkpt lat="28.022256" lon="105.62598"><ele>1035.3</ele><time>2025-11-21T23:58:06.000Z</time></trkpt>
        <trkpt lat="28.022258" lon="105.625984"><ele>1034.8</ele><time>2025-11-21T23:58:07.000Z</time></trkpt>
        <trkpt lat="28.022261" lon="105.625989"><ele>1034.8</ele><time>2025-11-21T23:58:08.000Z</time></trkpt>
        <trkpt lat="28.022263" lon="105.625992"><ele>1034.8</ele><time>2025-11-21T23:58:09.000Z</time></trkpt>
        <trkpt lat="28.022265" lon="105.625995"><ele>1034.8</ele><time>2025-11-21T23:58:10.000Z</time></trkpt>
        <trkpt lat="28.022266" lon="105.625997"><ele>1034.8</ele><time>2025-11-21T23:58:11.000Z</time></trkpt>
        <trkpt lat="28.022268" lon="105.625999"><ele>1034.1</ele><time>2025-11-21T23:58:12.000Z</time></trkpt>
        <trkpt lat="28.022267" lon="105.626"><ele>1034.1</ele><time>2025-11-21T23:58:13.000Z</time></trkpt>
        <trkpt lat="28.022267" lon="105.626001"><ele>1034.1</ele><time>2025-11-21T23:58:14.000Z</time></trkpt>
        <trkpt lat="28.022267" lon="105.626002"><ele>1034.1</ele><time>2025-11-21T23:58:15.000Z</time></trkpt>
        <trkpt lat="28.022267" lon="105.626003"><ele>1034.1</ele><time>2025-11-21T23:58:16.000Z</time></trkpt>
        <trkpt lat="28.022267" lon="105.626004"><ele>1033.6</ele><time>2025-11-21T23:58:17.000Z</time></trkpt>
        <trkpt lat="28.022266" lon="105.626004"><ele>1033.6</ele><time>2025-11-21T23:58:18.000Z</time></trkpt>
        <trkpt lat="28.022267" lon="105.626005"><ele>1033.6</ele><time>2025-11-21T23:58:19.000Z</time></trkpt>
        <trkpt lat="28.022267" lon="105.626008"><ele>1033.6</ele><time>2025-11-21T23:58:20.000Z</time></trkpt>
        <trkpt lat="28.022269" lon="105.626012"><ele>1033.6</ele><time>2025-11-21T23:58:21.000Z</time></trkpt>
        <trkpt lat="28.022272" lon="105.626017"><ele>1033.4</ele><time>2025-11-21T23:58:22.000Z</time></trkpt>
        <trkpt lat="28.022276" lon="105.626022"><ele>1033.4</ele><time>2025-11-21T23:58:23.000Z</time></trkpt>
        <trkpt lat="28.022281" lon="105.626027"><ele>1033.4</ele><time>2025-11-21T23:58:24.000Z</time></trkpt>
        <trkpt lat="28.022287" lon="105.626031"><ele>1033.4</ele><time>2025-11-21T23:58:25.000Z</time></trkpt>
        <trkpt lat="28.022292" lon="105.626035"><ele>1033.4</ele><time>2025-11-21T23:58:26.000Z</time></trkpt>
        <trkpt lat="28.022297" lon="105.626039"><ele>1033.2</ele><time>2025-11-21T23:58:27.000Z</time></trkpt>
        <trkpt lat="28.022301" lon="105.626043"><ele>1033.2</ele><time>2025-11-21T23:58:28.000Z</time></trkpt>
        <trkpt lat="28.022304" lon="105.626046"><ele>1033.2</ele><time>2025-11-21T23:58:29.000Z</time></trkpt>
        <trkpt lat="28.022306" lon="105.626048"><ele>1033.2</ele><time>2025-11-21T23:58:30.000Z</time></trkpt>
        <trkpt lat="28.022308" lon="105.626048"><ele>1033.2</ele><time>2025-11-21T23:58:31.000Z</time></trkpt>
        <trkpt lat="28.022309" lon="105.626048"><ele>1032.8</ele><time>2025-11-21T23:58:32.000Z</time></trkpt>
        <trkpt lat="28.022309" lon="105.626048"><ele>1032.8</ele><time>2025-11-21T23:58:33.000Z</time></trkpt>
        <trkpt lat="28.02231" lon="105.626047"><ele>1032.8</ele><time>2025-11-21T23:58:34.000Z</time></trkpt>
        <trkpt lat="28.022312" lon="105.626048"><ele>1032.8</ele><time>2025-11-21T23:58:35.000Z</time></trkpt>
        <trkpt lat="28.022314" lon="105.62605"><ele>1032.8</ele><time>2025-11-21T23:58:36.000Z</time></trkpt>
        <trkpt lat="28.022317" lon="105.626054"><ele>1031.9</ele><time>2025-11-21T23:58:37.000Z</time></trkpt>
        <trkpt lat="28.02232" lon="105.626058"><ele>1031.9</ele><time>2025-11-21T23:58:38.000Z</time></trkpt>
        <trkpt lat="28.022324" lon="105.626063"><ele>1031.9</ele><time>2025-11-21T23:58:39.000Z</time></trkpt>
        <trkpt lat="28.022328" lon="105.626069"><ele>1031.9</ele><time>2025-11-21T23:58:40.000Z</time></trkpt>
        <trkpt lat="28.022331" lon="105.626075"><ele>1031.9</ele><time>2025-11-21T23:58:41.000Z</time></trkpt>
        <trkpt lat="28.022334" lon="105.626081"><ele>1031.4</ele><time>2025-11-21T23:58:42.000Z</time></trkpt>
        <trkpt lat="28.022335" lon="105.626085"><ele>1031.4</ele><time>2025-11-21T23:58:43.000Z</time></trkpt>
        <trkpt lat="28.022336" lon="105.626088"><ele>1031.4</ele><time>2025-11-21T23:58:44.000Z</time></trkpt>
        <trkpt lat="28.022337" lon="105.626091"><ele>1031.4</ele><time>2025-11-21T23:58:45.000Z</time></trkpt>
        <trkpt lat="28.022338" lon="105.626094"><ele>1031.4</ele><time>2025-11-21T23:58:46.000Z</time></trkpt>
        <trkpt lat="28.022338" lon="105.626096"><ele>1030.7</ele><time>2025-11-21T23:58:47.000Z</time></trkpt>
        <trkpt lat="28.022339" lon="105.626099"><ele>1030.7</ele><time>2025-11-21T23:58:48.000Z</time></trkpt>
        <trkpt lat="28.022339" lon="105.626102"><ele>1030.7</ele><time>2025-11-21T23:58:49.000Z</time></trkpt>
        <trkpt lat="28.022338" lon="105.626105"><ele>1030.7</ele><time>2025-11-21T23:58:50.000Z</time></trkpt>
        <trkpt lat="28.022339" lon="105.626108"><ele>1030.7</ele><time>2025-11-21T23:58:51.000Z</time></trkpt>
        <trkpt lat="28.02234" lon="105.626112"><ele>1030.3</ele><time>2025-11-21T23:58:52.000Z</time></trkpt>
        <trkpt lat="28.022342" lon="105.626116"><ele>1030.3</ele><time>2025-11-21T23:58:53.000Z</time></trkpt>
        <trkpt lat="28.022344" lon="105.62612"><ele>1030.3</ele><time>2025-11-21T23:58:54.000Z</time></trkpt>
        <trkpt lat="28.022346" lon="105.626123"><ele>1030.3</ele><time>2025-11-21T23:58:55.000Z</time></trkpt>
        <trkpt lat="28.022346" lon="105.626127"><ele>1030.3</ele><time>2025-11-21T23:58:56.000Z</time></trkpt>
        <trkpt lat="28.022345" lon="105.62613"><ele>1029.7</ele><time>2025-11-21T23:58:57.000Z</time></trkpt>
        <trkpt lat="28.022345" lon="105.626132"><ele>1029.7</ele><time>2025-11-21T23:58:58.000Z</time></trkpt>
        <trkpt lat="28.022347" lon="105.626136"><ele>1029.7</ele><time>2025-11-21T23:58:59.000Z</time></trkpt>
        <trkpt lat="28.022348" lon="105.626139"><ele>1029.7</ele><time>2025-11-21T23:59:00.000Z</time></trkpt>
        <trkpt lat="28.022349" lon="105.626143"><ele>1029.7</ele><time>2025-11-21T23:59:01.000Z</time></trkpt>
        <trkpt lat="28.022349" lon="105.626146"><ele>1029.3</ele><time>2025-11-21T23:59:02.000Z</time></trkpt>
        <trkpt lat="28.02235" lon="105.626151"><ele>1029.3</ele><time>2025-11-21T23:59:03.000Z</time></trkpt>
        <trkpt lat="28.022351" lon="105.626155"><ele>1029.3</ele><time>2025-11-21T23:59:04.000Z</time></trkpt>
        <trkpt lat="28.022353" lon="105.62616"><ele>1029.3</ele><time>2025-11-21T23:59:05.000Z</time></trkpt>
        <trkpt lat="28.022356" lon="105.626165"><ele>1029.3</ele><time>2025-11-21T23:59:06.000Z</time></trkpt>
        <trkpt lat="28.02236" lon="105.62617"><ele>1028.5</ele><time>2025-11-21T23:59:07.000Z</time></trkpt>
        <trkpt lat="28.022364" lon="105.626174"><ele>1028.5</ele><time>2025-11-21T23:59:08.000Z</time></trkpt>
        <trkpt lat="28.022368" lon="105.626179"><ele>1028.5</ele><time>2025-11-21T23:59:09.000Z</time></trkpt>
        <trkpt lat="28.022372" lon="105.626183"><ele>1028.5</ele><time>2025-11-21T23:59:10.000Z</time></trkpt>
        <trkpt lat="28.022376" lon="105.626187"><ele>1028.5</ele><time>2025-11-21T23:59:11.000Z</time></trkpt>
        <trkpt lat="28.02238" lon="105.62619"><ele>1027.9</ele><time>2025-11-21T23:59:12.000Z</time></trkpt>
        <trkpt lat="28.022385" lon="105.626193"><ele>1027.9</ele><time>2025-11-21T23:59:13.000Z</time></trkpt>
        <trkpt lat="28.022389" lon="105.626197"><ele>1027.9</ele><time>2025-11-21T23:59:14.000Z</time></trkpt>
        <trkpt lat="28.022393" lon="105.626199"><ele>1027.9</ele><time>2025-11-21T23:59:15.000Z</time></trkpt>
        <trkpt lat="28.022398" lon="105.626201"><ele>1027.9</ele><time>2025-11-21T23:59:16.000Z</time></trkpt>
        <trkpt lat="28.022402" lon="105.626204"><ele>1027.1</ele><time>2025-11-21T23:59:17.000Z</time></trkpt>
        <trkpt lat="28.022407" lon="105.626206"><ele>1027.1</ele><time>2025-11-21T23:59:18.000Z</time></trkpt>
        <trkpt lat="28.022412" lon="105.626208"><ele>1027.1</ele><time>2025-11-21T23:59:19.000Z</time></trkpt>
        <trkpt lat="28.022415" lon="105.62621"><ele>1027.1</ele><time>2025-11-21T23:59:20.000Z</time></trkpt>
        <trkpt lat="28.022417" lon="105.626213"><ele>1027.1</ele><time>2025-11-21T23:59:21.000Z</time></trkpt>
        <trkpt lat="28.022419" lon="105.626215"><ele>1026.6</ele><time>2025-11-21T23:59:22.000Z</time></trkpt>
        <trkpt lat="28.022421" lon="105.626219"><ele>1026.6</ele><time>2025-11-21T23:59:23.000Z</time></trkpt>
        <trkpt lat="28.022422" lon="105.626222"><ele>1026.6</ele><time>2025-11-21T23:59:24.000Z</time></trkpt>
        <trkpt lat="28.022425" lon="105.626226"><ele>1026.6</ele><time>2025-11-21T23:59:25.000Z</time></trkpt>
        <trkpt lat="28.022428" lon="105.62623"><ele>1026.6</ele><time>2025-11-21T23:59:26.000Z</time></trkpt>
        <trkpt lat="28.022431" lon="105.626233"><ele>1026.1</ele><time>2025-11-21T23:59:27.000Z</time></trkpt>
        <trkpt lat="28.022434" lon="105.626237"><ele>1026.1</ele><time>2025-11-21T23:59:28.000Z</time></trkpt>
        <trkpt lat="28.022439" lon="105.626241"><ele>1026.1</ele><time>2025-11-21T23:59:29.000Z</time></trkpt>
        <trkpt lat="28.022443" lon="105.626244"><ele>1026.1</ele><time>2025-11-21T23:59:30.000Z</time></trkpt>
        <trkpt lat="28.022448" lon="105.626247"><ele>1026.1</ele><time>2025-11-21T23:59:31.000Z</time></trkpt>
        <trkpt lat="28.022453" lon="105.62625"><ele>1025.5</ele><time>2025-11-21T23:59:32.000Z</time></trkpt>
        <trkpt lat="28.022456" lon="105.626252"><ele>1025.5</ele><time>2025-11-21T23:59:33.000Z</time></trkpt>
        <trkpt lat="28.022458" lon="105.626254"><ele>1025.5</ele><time>2025-11-21T23:59:34.000Z</time></trkpt>
        <trkpt lat="28.02246" lon="105.626255"><ele>1025.5</ele><time>2025-11-21T23:59:35.000Z</time></trkpt>
        <trkpt lat="28.022461" lon="105.626257"><ele>1025.5</ele><time>2025-11-21T23:59:36.000Z</time></trkpt>
        <trkpt lat="28.022461" lon="105.626257"><ele>1025</ele><time>2025-11-21T23:59:37.000Z</time></trkpt>
        <trkpt lat="28.022462" lon="105.626257"><ele>1025</ele><time>2025-11-21T23:59:38.000Z</time></trkpt>
        <trkpt lat="28.022462" lon="105.626257"><ele>1025</ele><time>2025-11-21T23:59:39.000Z</time></trkpt>
        <trkpt lat="28.022462" lon="105.626257"><ele>1025</ele><time>2025-11-21T23:59:40.000Z</time></trkpt>
        <trkpt lat="28.022462" lon="105.626257"><ele>1025</ele><time>2025-11-21T23:59:41.000Z</time></trkpt>
        <trkpt lat="28.022462" lon="105.626257"><ele>1024.2</ele><time>2025-11-21T23:59:42.000Z</time></trkpt>
        <trkpt lat="28.022463" lon="105.626257"><ele>1024.2</ele><time>2025-11-21T23:59:43.000Z</time></trkpt>
        <trkpt lat="28.022465" lon="105.626258"><ele>1024.2</ele><time>2025-11-21T23:59:44.000Z</time></trkpt>
        <trkpt lat="28.022467" lon="105.62626"><ele>1024.2</ele><time>2025-11-21T23:59:45.000Z</time></trkpt>
        <trkpt lat="28.022471" lon="105.626263"><ele>1024.2</ele><time>2025-11-21T23:59:46.000Z</time></trkpt>
        <trkpt lat="28.022475" lon="105.626267"><ele>1023.8</ele><time>2025-11-21T23:59:47.000Z</time></trkpt>
        <trkpt lat="28.022479" lon="105.626271"><ele>1023.8</ele><time>2025-11-21T23:59:48.000Z</time></trkpt>
        <trkpt lat="28.022483" lon="105.626275"><ele>1023.8</ele><time>2025-11-21T23:59:49.000Z</time></trkpt>
        <trkpt lat="28.022485" lon="105.626279"><ele>1023.8</ele><time>2025-11-21T23:59:50.000Z</time></trkpt>
        <trkpt lat="28.022487" lon="105.626282"><ele>1023.8</ele><time>2025-11-21T23:59:51.000Z</time></trkpt>
        <trkpt lat="28.022489" lon="105.626284"><ele>1023.3</ele><time>2025-11-21T23:59:52.000Z</time></trkpt>
        <trkpt lat="28.022491" lon="105.626286"><ele>1023.3</ele><time>2025-11-21T23:59:53.000Z</time></trkpt>
        <trkpt lat="28.022492" lon="105.626288"><ele>1023.3</ele><time>2025-11-21T23:59:54.000Z</time></trkpt>
        <trkpt lat="28.022494" lon="105.626289"><ele>1023.3</ele><time>2025-11-21T23:59:55.000Z</time></trkpt>
        <trkpt lat="28.022497" lon="105.626291"><ele>1023.3</ele><time>2025-11-21T23:59:56.000Z</time></trkpt>
        <trkpt lat="28.022499" lon="105.626292"><ele>1023.1</ele><time>2025-11-21T23:59:57.000Z</time></trkpt>
        <trkpt lat="28.022501" lon="105.626294"><ele>1023.1</ele><time>2025-11-21T23:59:58.000Z</time></trkpt>
        <trkpt lat="28.022503" lon="105.626297"><ele>1023.1</ele><time>2025-11-21T23:59:59.000Z</time></trkpt>
        <trkpt lat="28.022505" lon="105.6263"><ele>1023.1</ele><time>2025-11-22T00:00:00.000Z</time></trkpt>
        <trkpt lat="28.022506" lon="105.626303"><ele>1023.1</ele><time>2025-11-22T00:00:01.000Z</time></trkpt>
        <trkpt lat="28.022507" lon="105.626306"><ele>1022.6</ele><time>2025-11-22T00:00:02.000Z</time></trkpt>
        <trkpt lat="28.022508" lon="105.62631"><ele>1022.6</ele><time>2025-11-22T00:00:03.000Z</time></trkpt>
        <trkpt lat="28.022509" lon="105.626314"><ele>1022.6</ele><time>2025-11-22T00:00:04.000Z</time></trkpt>
        <trkpt lat="28.02251" lon="105.626318"><ele>1022.6</ele><time>2025-11-22T00:00:05.000Z</time></trkpt>
        <trkpt lat="28.022512" lon="105.626322"><ele>1022.6</ele><time>2025-11-22T00:00:06.000Z</time></trkpt>
        <trkpt lat="28.022515" lon="105.626326"><ele>1022.1</ele><time>2025-11-22T00:00:07.000Z</time></trkpt>
        <trkpt lat="28.022517" lon="105.626331"><ele>1022.1</ele><time>2025-11-22T00:00:08.000Z</time></trkpt>
        <trkpt lat="28.02252" lon="105.626335"><ele>1022.1</ele><time>2025-11-22T00:00:09.000Z</time></trkpt>
        <trkpt lat="28.022522" lon="105.626339"><ele>1022.1</ele><time>2025-11-22T00:00:10.000Z</time></trkpt>
        <trkpt lat="28.022524" lon="105.626343"><ele>1022.1</ele><time>2025-11-22T00:00:11.000Z</time></trkpt>
        <trkpt lat="28.022525" lon="105.626346"><ele>1021.5</ele><time>2025-11-22T00:00:12.000Z</time></trkpt>
        <trkpt lat="28.022527" lon="105.62635"><ele>1021.5</ele><time>2025-11-22T00:00:13.000Z</time></trkpt>
        <trkpt lat="28.022528" lon="105.626352"><ele>1021.5</ele><time>2025-11-22T00:00:14.000Z</time></trkpt>
        <trkpt lat="28.02253" lon="105.626353"><ele>1021.5</ele><time>2025-11-22T00:00:15.000Z</time></trkpt>
        <trkpt lat="28.022532" lon="105.626355"><ele>1021.5</ele><time>2025-11-22T00:00:16.000Z</time></trkpt>
        <trkpt lat="28.022534" lon="105.626358"><ele>1021.1</ele><time>2025-11-22T00:00:17.000Z</time></trkpt>
        <trkpt lat="28.022536" lon="105.62636"><ele>1021.1</ele><time>2025-11-22T00:00:18.000Z</time></trkpt>
        <trkpt lat="28.022538" lon="105.626363"><ele>1021.1</ele><time>2025-11-22T00:00:19.000Z</time></trkpt>
        <trkpt lat="28.022541" lon="105.626368"><ele>1021.1</ele><time>2025-11-22T00:00:20.000Z</time></trkpt>
        <trkpt lat="28.022542" lon="105.626372"><ele>1021.1</ele><time>2025-11-22T00:00:21.000Z</time></trkpt>
        <trkpt lat="28.022545" lon="105.626377"><ele>1020.5</ele><time>2025-11-22T00:00:22.000Z</time></trkpt>
        <trkpt lat="28.022547" lon="105.626381"><ele>1020.5</ele><time>2025-11-22T00:00:23.000Z</time></trkpt>
        <trkpt lat="28.022549" lon="105.626386"><ele>1020.5</ele><time>2025-11-22T00:00:24.000Z</time></trkpt>
        <trkpt lat="28.02255" lon="105.626391"><ele>1020.5</ele><time>2025-11-22T00:00:25.000Z</time></trkpt>
        <trkpt lat="28.022552" lon="105.626396"><ele>1020.5</ele><time>2025-11-22T00:00:26.000Z</time></trkpt>
        <trkpt lat="28.022554" lon="105.626402"><ele>1020.1</ele><time>2025-11-22T00:00:27.000Z</time></trkpt>
        <trkpt lat="28.022557" lon="105.626407"><ele>1020.1</ele><time>2025-11-22T00:00:28.000Z</time></trkpt>
        <trkpt lat="28.022558" lon="105.626414"><ele>1020.1</ele><time>2025-11-22T00:00:29.000Z</time></trkpt>
        <trkpt lat="28.02256" lon="105.626421"><ele>1020.1</ele><time>2025-11-22T00:00:30.000Z</time></trkpt>
        <trkpt lat="28.022561" lon="105.626427"><ele>1020.1</ele><time>2025-11-22T00:00:31.000Z</time></trkpt>
        <trkpt lat="28.022563" lon="105.626433"><ele>1019.5</ele><time>2025-11-22T00:00:32.000Z</time></trkpt>
        <trkpt lat="28.022564" lon="105.626438"><ele>1019.5</ele><time>2025-11-22T00:00:33.000Z</time></trkpt>
        <trkpt lat="28.022565" lon="105.626442"><ele>1019.5</ele><time>2025-11-22T00:00:34.000Z</time></trkpt>
        <trkpt lat="28.022566" lon="105.626446"><ele>1019.5</ele><time>2025-11-22T00:00:35.000Z</time></trkpt>
        <trkpt lat="28.022567" lon="105.62645"><ele>1019.5</ele><time>2025-11-22T00:00:36.000Z</time></trkpt>
        <trkpt lat="28.022567" lon="105.626455"><ele>1019.1</ele><time>2025-11-22T00:00:37.000Z</time></trkpt>
        <trkpt lat="28.022567" lon="105.626459"><ele>1019.1</ele><time>2025-11-22T00:00:38.000Z</time></trkpt>
        <trkpt lat="28.022569" lon="105.626464"><ele>1019.1</ele><time>2025-11-22T00:00:39.000Z</time></trkpt>
        <trkpt lat="28.022571" lon="105.626468"><ele>1019.1</ele><time>2025-11-22T00:00:40.000Z</time></trkpt>
        <trkpt lat="28.022574" lon="105.626473"><ele>1019.1</ele><time>2025-11-22T00:00:41.000Z</time></trkpt>
        <trkpt lat="28.022575" lon="105.626477"><ele>1018.3</ele><time>2025-11-22T00:00:42.000Z</time></trkpt>
        <trkpt lat="28.022578" lon="105.626482"><ele>1018.3</ele><time>2025-11-22T00:00:43.000Z</time></trkpt>
        <trkpt lat="28.022579" lon="105.626487"><ele>1018.3</ele><time>2025-11-22T00:00:44.000Z</time></trkpt>
        <trkpt lat="28.02258" lon="105.626491"><ele>1018.3</ele><time>2025-11-22T00:00:45.000Z</time></trkpt>
        <trkpt lat="28.02258" lon="105.626494"><ele>1018.3</ele><time>2025-11-22T00:00:46.000Z</time></trkpt>
        <trkpt lat="28.022582" lon="105.626497"><ele>1017.8</ele><time>2025-11-22T00:00:47.000Z</time></trkpt>
        <trkpt lat="28.022583" lon="105.626501"><ele>1017.8</ele><time>2025-11-22T00:00:48.000Z</time></trkpt>
        <trkpt lat="28.022583" lon="105.626505"><ele>1017.8</ele><time>2025-11-22T00:00:49.000Z</time></trkpt>
        <trkpt lat="28.022584" lon="105.626509"><ele>1017.8</ele><time>2025-11-22T00:00:50.000Z</time></trkpt>
        <trkpt lat="28.022584" lon="105.626513"><ele>1017.8</ele><time>2025-11-22T00:00:51.000Z</time></trkpt>
        <trkpt lat="28.022583" lon="105.626517"><ele>1017.1</ele><time>2025-11-22T00:00:52.000Z</time></trkpt>
        <trkpt lat="28.022582" lon="105.62652"><ele>1017.1</ele><time>2025-11-22T00:00:53.000Z</time></trkpt>
        <trkpt lat="28.02258" lon="105.626522"><ele>1017.1</ele><time>2025-11-22T00:00:54.000Z</time></trkpt>
        <trkpt lat="28.02258" lon="105.626523"><ele>1017.1</ele><time>2025-11-22T00:00:55.000Z</time></trkpt>
        <trkpt lat="28.022579" lon="105.626524"><ele>1017.1</ele><time>2025-11-22T00:00:56.000Z</time></trkpt>
        <trkpt lat="28.022579" lon="105.626525"><ele>1016.8</ele><time>2025-11-22T00:00:57.000Z</time></trkpt>
        <trkpt lat="28.02258" lon="105.626527"><ele>1016.8</ele><time>2025-11-22T00:00:58.000Z</time></trkpt>
        <trkpt lat="28.022581" lon="105.626529"><ele>1016.8</ele><time>2025-11-22T00:00:59.000Z</time></trkpt>
        <trkpt lat="28.022583" lon="105.626531"><ele>1016.8</ele><time>2025-11-22T00:01:00.000Z</time></trkpt>
        <trkpt lat="28.022585" lon="105.626535"><ele>1016.8</ele><time>2025-11-22T00:01:01.000Z</time></trkpt>
        <trkpt lat="28.022588" lon="105.626538"><ele>1016.3</ele><time>2025-11-22T00:01:02.000Z</time></trkpt>
        <trkpt lat="28.022591" lon="105.626541"><ele>1016.3</ele><time>2025-11-22T00:01:03.000Z</time></trkpt>
        <trkpt lat="28.022595" lon="105.626545"><ele>1016.3</ele><time>2025-11-22T00:01:04.000Z</time></trkpt>
        <trkpt lat="28.022599" lon="105.626549"><ele>1016.3</ele><time>2025-11-22T00:01:05.000Z</time></trkpt>
        <trkpt lat="28.022603" lon="105.626553"><ele>1016.3</ele><time>2025-11-22T00:01:06.000Z</time></trkpt>
        <trkpt lat="28.022606" lon="105.626559"><ele>1016</ele><time>2025-11-22T00:01:07.000Z</time></trkpt>
        <trkpt lat="28.022609" lon="105.626564"><ele>1016</ele><time>2025-11-22T00:01:08.000Z</time></trkpt>
        <trkpt lat="28.022612" lon="105.62657"><ele>1016</ele><time>2025-11-22T00:01:09.000Z</time></trkpt>
        <trkpt lat="28.022614" lon="105.626577"><ele>1016</ele><time>2025-11-22T00:01:10.000Z</time></trkpt>
        <trkpt lat="28.022615" lon="105.626584"><ele>1016</ele><time>2025-11-22T00:01:11.000Z</time></trkpt>
        <trkpt lat="28.022615" lon="105.62659"><ele>1015.4</ele><time>2025-11-22T00:01:12.000Z</time></trkpt>
        <trkpt lat="28.022616" lon="105.626597"><ele>1015.4</ele><time>2025-11-22T00:01:13.000Z</time></trkpt>
        <trkpt lat="28.022618" lon="105.626602"><ele>1015.4</ele><time>2025-11-22T00:01:14.000Z</time></trkpt>
        <trkpt lat="28.022621" lon="105.626607"><ele>1015.4</ele><time>2025-11-22T00:01:15.000Z</time></trkpt>
        <trkpt lat="28.022622" lon="105.626613"><ele>1015.4</ele><time>2025-11-22T00:01:16.000Z</time></trkpt>
        <trkpt lat="28.022625" lon="105.626617"><ele>1015</ele><time>2025-11-22T00:01:17.000Z</time></trkpt>
        <trkpt lat="28.022626" lon="105.626622"><ele>1015</ele><time>2025-11-22T00:01:18.000Z</time></trkpt>
        <trkpt lat="28.022627" lon="105.626628"><ele>1015</ele><time>2025-11-22T00:01:19.000Z</time></trkpt>
        <trkpt lat="28.022628" lon="105.626633"><ele>1015</ele><time>2025-11-22T00:01:20.000Z</time></trkpt>
        <trkpt lat="28.02263" lon="105.62664"><ele>1015</ele><time>2025-11-22T00:01:21.000Z</time></trkpt>
        <trkpt lat="28.022632" lon="105.626647"><ele>1014.1</ele><time>2025-11-22T00:01:22.000Z</time></trkpt>
        <trkpt lat="28.022633" lon="105.626654"><ele>1014.1</ele><time>2025-11-22T00:01:23.000Z</time></trkpt>
        <trkpt lat="28.022634" lon="105.626661"><ele>1014.1</ele><time>2025-11-22T00:01:24.000Z</time></trkpt>
        <trkpt lat="28.022635" lon="105.626669"><ele>1014.1</ele><time>2025-11-22T00:01:25.000Z</time></trkpt>
        <trkpt lat="28.022636" lon="105.626675"><ele>1014.1</ele><time>2025-11-22T00:01:26.000Z</time></trkpt>
        <trkpt lat="28.022635" lon="105.626681"><ele>1013.5</ele><time>2025-11-22T00:01:27.000Z</time></trkpt>
        <trkpt lat="28.022635" lon="105.626685"><ele>1013.5</ele><time>2025-11-22T00:01:28.000Z</time></trkpt>
        <trkpt lat="28.022634" lon="105.626689"><ele>1013.5</ele><time>2025-11-22T00:01:29.000Z</time></trkpt>
        <trkpt lat="28.022633" lon="105.626693"><ele>1013.5</ele><time>2025-11-22T00:01:30.000Z</time></trkpt>
        <trkpt lat="28.022631" lon="105.626697"><ele>1013.5</ele><time>2025-11-22T00:01:31.000Z</time></trkpt>
        <trkpt lat="28.02263" lon="105.626702"><ele>1012.8</ele><time>2025-11-22T00:01:32.000Z</time></trkpt>
        <trkpt lat="28.022628" lon="105.626707"><ele>1012.8</ele><time>2025-11-22T00:01:33.000Z</time></trkpt>
        <trkpt lat="28.022626" lon="105.626713"><ele>1012.8</ele><time>2025-11-22T00:01:34.000Z</time></trkpt>
        <trkpt lat="28.022625" lon="105.62672"><ele>1012.8</ele><time>2025-11-22T00:01:35.000Z</time></trkpt>
        <trkpt lat="28.022625" lon="105.626726"><ele>1012.8</ele><time>2025-11-22T00:01:36.000Z</time></trkpt>
        <trkpt lat="28.022625" lon="105.626733"><ele>1012.2</ele><time>2025-11-22T00:01:37.000Z</time></trkpt>
        <trkpt lat="28.022626" lon="105.626739"><ele>1012.2</ele><time>2025-11-22T00:01:38.000Z</time></trkpt>
        <trkpt lat="28.022626" lon="105.626745"><ele>1012.2</ele><time>2025-11-22T00:01:39.000Z</time></trkpt>
        <trkpt lat="28.022625" lon="105.62675"><ele>1012.2</ele><time>2025-11-22T00:01:40.000Z</time></trkpt>
        <trkpt lat="28.022623" lon="105.626754"><ele>1012.2</ele><time>2025-11-22T00:01:41.000Z</time></trkpt>
        <trkpt lat="28.02262" lon="105.626757"><ele>1012</ele><time>2025-11-22T00:01:42.000Z</time></trkpt>
        <trkpt lat="28.022617" lon="105.626761"><ele>1012</ele><time>2025-11-22T00:01:43.000Z</time></trkpt>
        <trkpt lat="28.022614" lon="105.626765"><ele>1012</ele><time>2025-11-22T00:01:44.000Z</time></trkpt>
        <trkpt lat="28.022613" lon="105.62677"><ele>1012</ele><time>2025-11-22T00:01:45.000Z</time></trkpt>
        <trkpt lat="28.02261" lon="105.626775"><ele>1012</ele><time>2025-11-22T00:01:46.000Z</time></trkpt>
        <trkpt lat="28.022609" lon="105.62678"><ele>1011.7</ele><time>2025-11-22T00:01:47.000Z</time></trkpt>
        <trkpt lat="28.022608" lon="105.626784"><ele>1011.7</ele><time>2025-11-22T00:01:48.000Z</time></trkpt>
        <trkpt lat="28.022606" lon="105.626788"><ele>1011.7</ele><time>2025-11-22T00:01:49.000Z</time></trkpt>
        <trkpt lat="28.022605" lon="105.626791"><ele>1011.7</ele><time>2025-11-22T00:01:50.000Z</time></trkpt>
        <trkpt lat="28.022604" lon="105.626797"><ele>1011.7</ele><time>2025-11-22T00:01:51.000Z</time></trkpt>
        <trkpt lat="28.022602" lon="105.626803"><ele>1011.5</ele><time>2025-11-22T00:01:52.000Z</time></trkpt>
        <trkpt lat="28.022601" lon="105.626809"><ele>1011.5</ele><time>2025-11-22T00:01:53.000Z</time></trkpt>
        <trkpt lat="28.0226" lon="105.626815"><ele>1011.5</ele><time>2025-11-22T00:01:54.000Z</time></trkpt>
        <trkpt lat="28.022599" lon="105.626821"><ele>1011.5</ele><time>2025-11-22T00:01:55.000Z</time></trkpt>
        <trkpt lat="28.022599" lon="105.626826"><ele>1011.5</ele><time>2025-11-22T00:01:56.000Z</time></trkpt>
        <trkpt lat="28.022599" lon="105.62683"><ele>1011.2</ele><time>2025-11-22T00:01:57.000Z</time></trkpt>
        <trkpt lat="28.022599" lon="105.626834"><ele>1011.2</ele><time>2025-11-22T00:01:58.000Z</time></trkpt>
        <trkpt lat="28.022599" lon="105.626836"><ele>1011.2</ele><time>2025-11-22T00:01:59.000Z</time></trkpt>
        <trkpt lat="28.022599" lon="105.626839"><ele>1011.2</ele><time>2025-11-22T00:02:00.000Z</time></trkpt>
        <trkpt lat="28.022598" lon="105.626841"><ele>1011.2</ele><time>2025-11-22T00:02:01.000Z</time></trkpt>
        <trkpt lat="28.022598" lon="105.626845"><ele>1010.7</ele><time>2025-11-22T00:02:02.000Z</time></trkpt>
        <trkpt lat="28.022597" lon="105.626849"><ele>1010.7</ele><time>2025-11-22T00:02:03.000Z</time></trkpt>
        <trkpt lat="28.022597" lon="105.626853"><ele>1010.7</ele><time>2025-11-22T00:02:04.000Z</time></trkpt>
        <trkpt lat="28.022598" lon="105.626856"><ele>1010.7</ele><time>2025-11-22T00:02:05.000Z</time></trkpt>
        <trkpt lat="28.022599" lon="105.626859"><ele>1010.7</ele><time>2025-11-22T00:02:06.000Z</time></trkpt>
        <trkpt lat="28.0226" lon="105.626859"><ele>1010.4</ele><time>2025-11-22T00:02:07.000Z</time></trkpt>
        <trkpt lat="28.022602" lon="105.626859"><ele>1010.4</ele><time>2025-11-22T00:02:08.000Z</time></trkpt>
        <trkpt lat="28.022604" lon="105.626859"><ele>1010.4</ele><time>2025-11-22T00:02:09.000Z</time></trkpt>
        <trkpt lat="28.022606" lon="105.626859"><ele>1010.4</ele><time>2025-11-22T00:02:10.000Z</time></trkpt>
        <trkpt lat="28.022607" lon="105.626858"><ele>1010.4</ele><time>2025-11-22T00:02:11.000Z</time></trkpt>
        <trkpt lat="28.022608" lon="105.626857"><ele>1010.2</ele><time>2025-11-22T00:02:12.000Z</time></trkpt>
        <trkpt lat="28.022608" lon="105.626856"><ele>1010.2</ele><time>2025-11-22T00:02:13.000Z</time></trkpt>
        <trkpt lat="28.022608" lon="105.626856"><ele>1010.2</ele><time>2025-11-22T00:02:14.000Z</time></trkpt>
        <trkpt lat="28.022608" lon="105.626855"><ele>1010.2</ele><time>2025-11-22T00:02:15.000Z</time></trkpt>
        <trkpt lat="28.022609" lon="105.626855"><ele>1010.2</ele><time>2025-11-22T00:02:16.000Z</time></trkpt>
        <trkpt lat="28.02261" lon="105.626854"><ele>1009.9</ele><time>2025-11-22T00:02:17.000Z</time></trkpt>
        <trkpt lat="28.022613" lon="105.626853"><ele>1009.9</ele><time>2025-11-22T00:02:18.000Z</time></trkpt>
        <trkpt lat="28.022615" lon="105.626852"><ele>1009.9</ele><time>2025-11-22T00:02:19.000Z</time></trkpt>
        <trkpt lat="28.022619" lon="105.62685"><ele>1009.9</ele><time>2025-11-22T00:02:20.000Z</time></trkpt>
        <trkpt lat="28.022624" lon="105.626847"><ele>1009.9</ele><time>2025-11-22T00:02:21.000Z</time></trkpt>
        <trkpt lat="28.022629" lon="105.626843"><ele>1009.7</ele><time>2025-11-22T00:02:22.000Z</time></trkpt>
        <trkpt lat="28.022634" lon="105.626839"><ele>1009.7</ele><time>2025-11-22T00:02:23.000Z</time></trkpt>
        <trkpt lat="28.02264" lon="105.626835"><ele>1009.7</ele><time>2025-11-22T00:02:24.000Z</time></trkpt>
        <trkpt lat="28.022645" lon="105.626831"><ele>1009.7</ele><time>2025-11-22T00:02:25.000Z</time></trkpt>
        <trkpt lat="28.02265" lon="105.626827"><ele>1009.7</ele><time>2025-11-22T00:02:26.000Z</time></trkpt>
        <trkpt lat="28.022654" lon="105.626825"><ele>1009.1</ele><time>2025-11-22T00:02:27.000Z</time></trkpt>
        <trkpt lat="28.02266" lon="105.626822"><ele>1009.1</ele><time>2025-11-22T00:02:28.000Z</time></trkpt>
        <trkpt lat="28.022666" lon="105.62682"><ele>1009.1</ele><time>2025-11-22T00:02:29.000Z</time></trkpt>
        <trkpt lat="28.022672" lon="105.626819"><ele>1009.1</ele><time>2025-11-22T00:02:30.000Z</time></trkpt>
        <trkpt lat="28.022678" lon="105.626816"><ele>1009.1</ele><time>2025-11-22T00:02:31.000Z</time></trkpt>
        <trkpt lat="28.022684" lon="105.626812"><ele>1008.6</ele><time>2025-11-22T00:02:32.000Z</time></trkpt>
        <trkpt lat="28.022688" lon="105.626807"><ele>1008.6</ele><time>2025-11-22T00:02:33.000Z</time></trkpt>
        <trkpt lat="28.022692" lon="105.626802"><ele>1008.6</ele><time>2025-11-22T00:02:34.000Z</time></trkpt>
        <trkpt lat="28.022696" lon="105.626796"><ele>1008.6</ele><time>2025-11-22T00:02:35.000Z</time></trkpt>
        <trkpt lat="28.022702" lon="105.626791"><ele>1008.6</ele><time>2025-11-22T00:02:36.000Z</time></trkpt>
        <trkpt lat="28.022707" lon="105.626786"><ele>1008</ele><time>2025-11-22T00:02:37.000Z</time></trkpt>
        <trkpt lat="28.022712" lon="105.626781"><ele>1008</ele><time>2025-11-22T00:02:38.000Z</time></trkpt>
        <trkpt lat="28.022718" lon="105.626776"><ele>1008</ele><time>2025-11-22T00:02:39.000Z</time></trkpt>
        <trkpt lat="28.022724" lon="105.626772"><ele>1008</ele><time>2025-11-22T00:02:40.000Z</time></trkpt>
        <trkpt lat="28.022729" lon="105.626768"><ele>1008</ele><time>2025-11-22T00:02:41.000Z</time></trkpt>
        <trkpt lat="28.022735" lon="105.626764"><ele>1007</ele><time>2025-11-22T00:02:42.000Z</time></trkpt>
        <trkpt lat="28.02274" lon="105.626761"><ele>1007</ele><time>2025-11-22T00:02:43.000Z</time></trkpt>
        <trkpt lat="28.022744" lon="105.626759"><ele>1007</ele><time>2025-11-22T00:02:44.000Z</time></trkpt>
        <trkpt lat="28.022748" lon="105.626757"><ele>1007</ele><time>2025-11-22T00:02:45.000Z</time></trkpt>
        <trkpt lat="28.022751" lon="105.626754"><ele>1007</ele><time>2025-11-22T00:02:46.000Z</time></trkpt>
        <trkpt lat="28.022755" lon="105.626751"><ele>1006.3</ele><time>2025-11-22T00:02:47.000Z</time></trkpt>
        <trkpt lat="28.022758" lon="105.626748"><ele>1006.3</ele><time>2025-11-22T00:02:48.000Z</time></trkpt>
        <trkpt lat="28.022761" lon="105.626743"><ele>1006.3</ele><time>2025-11-22T00:02:49.000Z</time></trkpt>
        <trkpt lat="28.022764" lon="105.626739"><ele>1006.3</ele><time>2025-11-22T00:02:50.000Z</time></trkpt>
        <trkpt lat="28.022767" lon="105.626735"><ele>1006.3</ele><time>2025-11-22T00:02:51.000Z</time></trkpt>
        <trkpt lat="28.022768" lon="105.62673"><ele>1005.2</ele><time>2025-11-22T00:02:52.000Z</time></trkpt>
        <trkpt lat="28.02277" lon="105.626726"><ele>1005.2</ele><time>2025-11-22T00:02:53.000Z</time></trkpt>
        <trkpt lat="28.022771" lon="105.626724"><ele>1005.2</ele><time>2025-11-22T00:02:54.000Z</time></trkpt>
        <trkpt lat="28.02277" lon="105.626722"><ele>1005.2</ele><time>2025-11-22T00:02:55.000Z</time></trkpt>
        <trkpt lat="28.02277" lon="105.626722"><ele>1005.2</ele><time>2025-11-22T00:02:56.000Z</time></trkpt>
        <trkpt lat="28.022769" lon="105.626722"><ele>1004.5</ele><time>2025-11-22T00:02:57.000Z</time></trkpt>
        <trkpt lat="28.022767" lon="105.626721"><ele>1004.5</ele><time>2025-11-22T00:02:58.000Z</time></trkpt>
        <trkpt lat="28.022765" lon="105.62672"><ele>1004.5</ele><time>2025-11-22T00:02:59.000Z</time></trkpt>
        <trkpt lat="28.022763" lon="105.626719"><ele>1004.5</ele><time>2025-11-22T00:03:00.000Z</time></trkpt>
        <trkpt lat="28.022761" lon="105.626719"><ele>1004.5</ele><time>2025-11-22T00:03:01.000Z</time></trkpt>
        <trkpt lat="28.022758" lon="105.62672"><ele>1003.6</ele><time>2025-11-22T00:03:02.000Z</time></trkpt>
        <trkpt lat="28.022756" lon="105.62672"><ele>1003.6</ele><time>2025-11-22T00:03:03.000Z</time></trkpt>
        <trkpt lat="28.022754" lon="105.626721"><ele>1003.6</ele><time>2025-11-22T00:03:04.000Z</time></trkpt>
        <trkpt lat="28.022752" lon="105.626721"><ele>1003.6</ele><time>2025-11-22T00:03:05.000Z</time></trkpt>
        <trkpt lat="28.02275" lon="105.62672"><ele>1003.6</ele><time>2025-11-22T00:03:06.000Z</time></trkpt>
        <trkpt lat="28.022748" lon="105.626718"><ele>1003.2</ele><time>2025-11-22T00:03:07.000Z</time></trkpt>
        <trkpt lat="28.022747" lon="105.626716"><ele>1003.2</ele><time>2025-11-22T00:03:08.000Z</time></trkpt>
        <trkpt lat="28.022745" lon="105.626712"><ele>1003.2</ele><time>2025-11-22T00:03:09.000Z</time></trkpt>
        <trkpt lat="28.022743" lon="105.626707"><ele>1003.2</ele><time>2025-11-22T00:03:10.000Z</time></trkpt>
        <trkpt lat="28.022742" lon="105.626703"><ele>1003.2</ele><time>2025-11-22T00:03:11.000Z</time></trkpt>
        <trkpt lat="28.022741" lon="105.626698"><ele>1002.6</ele><time>2025-11-22T00:03:12.000Z</time></trkpt>
        <trkpt lat="28.02274" lon="105.626692"><ele>1002.6</ele><time>2025-11-22T00:03:13.000Z</time></trkpt>
        <trkpt lat="28.022739" lon="105.626686"><ele>1002.6</ele><time>2025-11-22T00:03:14.000Z</time></trkpt>
        <trkpt lat="28.022738" lon="105.626681"><ele>1002.6</ele><time>2025-11-22T00:03:15.000Z</time></trkpt>
        <trkpt lat="28.022738" lon="105.626675"><ele>1002.6</ele><time>2025-11-22T00:03:16.000Z</time></trkpt>
        <trkpt lat="28.022738" lon="105.62667"><ele>1002.1</ele><time>2025-11-22T00:03:17.000Z</time></trkpt>
        <trkpt lat="28.022737" lon="105.626664"><ele>1002.1</ele><time>2025-11-22T00:03:18.000Z</time></trkpt>
        <trkpt lat="28.022738" lon="105.626659"><ele>1002.1</ele><time>2025-11-22T00:03:19.000Z</time></trkpt>
        <trkpt lat="28.022739" lon="105.626655"><ele>1002.1</ele><time>2025-11-22T00:03:20.000Z</time></trkpt>
        <trkpt lat="28.022741" lon="105.626652"><ele>1002.1</ele><time>2025-11-22T00:03:21.000Z</time></trkpt>
        <trkpt lat="28.022743" lon="105.626649"><ele>1001.6</ele><time>2025-11-22T00:03:22.000Z</time></trkpt>
        <trkpt lat="28.022747" lon="105.626645"><ele>1001.6</ele><time>2025-11-22T00:03:23.000Z</time></trkpt>
        <trkpt lat="28.02275" lon="105.626642"><ele>1001.6</ele><time>2025-11-22T00:03:24.000Z</time></trkpt>
        <trkpt lat="28.022753" lon="105.626638"><ele>1001.6</ele><time>2025-11-22T00:03:25.000Z</time></trkpt>
        <trkpt lat="28.022757" lon="105.626635"><ele>1001.6</ele><time>2025-11-22T00:03:26.000Z</time></trkpt>
        <trkpt lat="28.02276" lon="105.626631"><ele>1000.5</ele><time>2025-11-22T00:03:27.000Z</time></trkpt>
        <trkpt lat="28.022764" lon="105.626627"><ele>1000.5</ele><time>2025-11-22T00:03:28.000Z</time></trkpt>
        <trkpt lat="28.022767" lon="105.626624"><ele>1000.5</ele><time>2025-11-22T00:03:29.000Z</time></trkpt>
        <trkpt lat="28.02277" lon="105.626619"><ele>1000.5</ele><time>2025-11-22T00:03:30.000Z</time></trkpt>
        <trkpt lat="28.022771" lon="105.626615"><ele>1000.5</ele><time>2025-11-22T00:03:31.000Z</time></trkpt>
        <trkpt lat="28.022772" lon="105.626611"><ele>999.4</ele><time>2025-11-22T00:03:32.000Z</time></trkpt>
        <trkpt lat="28.022771" lon="105.626607"><ele>999.4</ele><time>2025-11-22T00:03:33.000Z</time></trkpt>
        <trkpt lat="28.022771" lon="105.626604"><ele>999.4</ele><time>2025-11-22T00:03:34.000Z</time></trkpt>
        <trkpt lat="28.02277" lon="105.626602"><ele>999.4</ele><time>2025-11-22T00:03:35.000Z</time></trkpt>
        <trkpt lat="28.02277" lon="105.626601"><ele>999.4</ele><time>2025-11-22T00:03:36.000Z</time></trkpt>
        <trkpt lat="28.02277" lon="105.626601"><ele>998.4</ele><time>2025-11-22T00:03:37.000Z</time></trkpt>
        <trkpt lat="28.02277" lon="105.6266"><ele>998.4</ele><time>2025-11-22T00:03:38.000Z</time></trkpt>
        <trkpt lat="28.02277" lon="105.6266"><ele>998.4</ele><time>2025-11-22T00:03:39.000Z</time></trkpt>
        <trkpt lat="28.022771" lon="105.626599"><ele>998.4</ele><time>2025-11-22T00:03:40.000Z</time></trkpt>
        <trkpt lat="28.022772" lon="105.626598"><ele>998.4</ele><time>2025-11-22T00:03:41.000Z</time></trkpt>
        <trkpt lat="28.022773" lon="105.626596"><ele>997.7</ele><time>2025-11-22T00:03:42.000Z</time></trkpt>
        <trkpt lat="28.022775" lon="105.626593"><ele>997.7</ele><time>2025-11-22T00:03:43.000Z</time></trkpt>
        <trkpt lat="28.022776" lon="105.626591"><ele>997.7</ele><time>2025-11-22T00:03:44.000Z</time></trkpt>
        <trkpt lat="28.022777" lon="105.626589"><ele>997.7</ele><time>2025-11-22T00:03:45.000Z</time></trkpt>
        <trkpt lat="28.022778" lon="105.626587"><ele>997.7</ele><time>2025-11-22T00:03:46.000Z</time></trkpt>
        <trkpt lat="28.02278" lon="105.626585"><ele>997</ele><time>2025-11-22T00:03:47.000Z</time></trkpt>
        <trkpt lat="28.022781" lon="105.626584"><ele>997</ele><time>2025-11-22T00:03:48.000Z</time></trkpt>
        <trkpt lat="28.022781" lon="105.626582"><ele>997</ele><time>2025-11-22T00:03:49.000Z</time></trkpt>
        <trkpt lat="28.022782" lon="105.62658"><ele>997</ele><time>2025-11-22T00:03:50.000Z</time></trkpt>
        <trkpt lat="28.022783" lon="105.626578"><ele>997</ele><time>2025-11-22T00:03:51.000Z</time></trkpt>
        <trkpt lat="28.022784" lon="105.626574"><ele>996.6</ele><time>2025-11-22T00:03:52.000Z</time></trkpt>
        <trkpt lat="28.022786" lon="105.62657"><ele>996.6</ele><time>2025-11-22T00:03:53.000Z</time></trkpt>
        <trkpt lat="28.02279" lon="105.626566"><ele>996.6</ele><time>2025-11-22T00:03:54.000Z</time></trkpt>
        <trkpt lat="28.022794" lon="105.626562"><ele>996.6</ele><time>2025-11-22T00:03:55.000Z</time></trkpt>
        <trkpt lat="28.022798" lon="105.626559"><ele>996.6</ele><time>2025-11-22T00:03:56.000Z</time></trkpt>
        <trkpt lat="28.022801" lon="105.626557"><ele>995.9</ele><time>2025-11-22T00:03:57.000Z</time></trkpt>
        <trkpt lat="28.022803" lon="105.626554"><ele>995.9</ele><time>2025-11-22T00:03:58.000Z</time></trkpt>
        <trkpt lat="28.022805" lon="105.626552"><ele>995.9</ele><time>2025-11-22T00:03:59.000Z</time></trkpt>
        <trkpt lat="28.022806" lon="105.62655"><ele>995.9</ele><time>2025-11-22T00:04:00.000Z</time></trkpt>
        <trkpt lat="28.022807" lon="105.626547"><ele>995.9</ele><time>2025-11-22T00:04:01.000Z</time></trkpt>
        <trkpt lat="28.022808" lon="105.626545"><ele>995.3</ele><time>2025-11-22T00:04:02.000Z</time></trkpt>
        <trkpt lat="28.022807" lon="105.626543"><ele>995.3</ele><time>2025-11-22T00:04:03.000Z</time></trkpt>
        <trkpt lat="28.022806" lon="105.626541"><ele>995.3</ele><time>2025-11-22T00:04:04.000Z</time></trkpt>
        <trkpt lat="28.022804" lon="105.62654"><ele>995.3</ele><time>2025-11-22T00:04:05.000Z</time></trkpt>
        <trkpt lat="28.022802" lon="105.626538"><ele>995.3</ele><time>2025-11-22T00:04:06.000Z</time></trkpt>
        <trkpt lat="28.0228" lon="105.626536"><ele>994.5</ele><time>2025-11-22T00:04:07.000Z</time></trkpt>
        <trkpt lat="28.0228" lon="105.626532"><ele>994.5</ele><time>2025-11-22T00:04:08.000Z</time></trkpt>
        <trkpt lat="28.0228" lon="105.626528"><ele>994.5</ele><time>2025-11-22T00:04:09.000Z</time></trkpt>
        <trkpt lat="28.022801" lon="105.626523"><ele>994.5</ele><time>2025-11-22T00:04:10.000Z</time></trkpt>
        <trkpt lat="28.022801" lon="105.626517"><ele>994.5</ele><time>2025-11-22T00:04:11.000Z</time></trkpt>
        <trkpt lat="28.022803" lon="105.626512"><ele>994</ele><time>2025-11-22T00:04:12.000Z</time></trkpt>
        <trkpt lat="28.022804" lon="105.626507"><ele>994</ele><time>2025-11-22T00:04:13.000Z</time></trkpt>
        <trkpt lat="28.022807" lon="105.626502"><ele>994</ele><time>2025-11-22T00:04:14.000Z</time></trkpt>
        <trkpt lat="28.02281" lon="105.626497"><ele>994</ele><time>2025-11-22T00:04:15.000Z</time></trkpt>
        <trkpt lat="28.022814" lon="105.626493"><ele>994</ele><time>2025-11-22T00:04:16.000Z</time></trkpt>
        <trkpt lat="28.022818" lon="105.626489"><ele>993.7</ele><time>2025-11-22T00:04:17.000Z</time></trkpt>
        <trkpt lat="28.022822" lon="105.626487"><ele>993.7</ele><time>2025-11-22T00:04:18.000Z</time></trkpt>
        <trkpt lat="28.022825" lon="105.626486"><ele>993.7</ele><time>2025-11-22T00:04:19.000Z</time></trkpt>
        <trkpt lat="28.022828" lon="105.626485"><ele>993.7</ele><time>2025-11-22T00:04:20.000Z</time></trkpt>
        <trkpt lat="28.02283" lon="105.626485"><ele>993.7</ele><time>2025-11-22T00:04:21.000Z</time></trkpt>
        <trkpt lat="28.022832" lon="105.626484"><ele>993.1</ele><time>2025-11-22T00:04:22.000Z</time></trkpt>
        <trkpt lat="28.022832" lon="105.626484"><ele>993.1</ele><time>2025-11-22T00:04:23.000Z</time></trkpt>
        <trkpt lat="28.022833" lon="105.626484"><ele>993.1</ele><time>2025-11-22T00:04:24.000Z</time></trkpt>
        <trkpt lat="28.022834" lon="105.626484"><ele>993.1</ele><time>2025-11-22T00:04:25.000Z</time></trkpt>
        <trkpt lat="28.022835" lon="105.626484"><ele>993.1</ele><time>2025-11-22T00:04:26.000Z</time></trkpt>
        <trkpt lat="28.022835" lon="105.626485"><ele>992.4</ele><time>2025-11-22T00:04:27.000Z</time></trkpt>
        <trkpt lat="28.022836" lon="105.626485"><ele>992.4</ele><time>2025-11-22T00:04:28.000Z</time></trkpt>
        <trkpt lat="28.022836" lon="105.626485"><ele>992.4</ele><time>2025-11-22T00:04:29.000Z</time></trkpt>
        <trkpt lat="28.022836" lon="105.626485"><ele>992.4</ele><time>2025-11-22T00:04:30.000Z</time></trkpt>
        <trkpt lat="28.022836" lon="105.626485"><ele>992.4</ele><time>2025-11-22T00:04:31.000Z</time></trkpt>
        <trkpt lat="28.022836" lon="105.626485"><ele>992</ele><time>2025-11-22T00:04:32.000Z</time></trkpt>
        <trkpt lat="28.022837" lon="105.626485"><ele>992</ele><time>2025-11-22T00:04:33.000Z</time></trkpt>
        <trkpt lat="28.022837" lon="105.626485"><ele>992</ele><time>2025-11-22T00:04:34.000Z</time></trkpt>
        <trkpt lat="28.022837" lon="105.626485"><ele>992</ele><time>2025-11-22T00:04:35.000Z</time></trkpt>
        <trkpt lat="28.022837" lon="105.626485"><ele>992</ele><time>2025-11-22T00:04:36.000Z</time></trkpt>
        <trkpt lat="28.022837" lon="105.626485"><ele>991.8</ele><time>2025-11-22T00:04:37.000Z</time></trkpt>
        <trkpt lat="28.022837" lon="105.626485"><ele>991.8</ele><time>2025-11-22T00:04:38.000Z</time></trkpt>
        <trkpt lat="28.022837" lon="105.626485"><ele>991.8</ele><time>2025-11-22T00:04:39.000Z</time></trkpt>
        <trkpt lat="28.022837" lon="105.626485"><ele>991.8</ele><time>2025-11-22T00:04:40.000Z</time></trkpt>
        <trkpt lat="28.022837" lon="105.626485"><ele>991.8</ele><time>2025-11-22T00:04:41.000Z</time></trkpt>
        <trkpt lat="28.022836" lon="105.626485"><ele>991.8</ele><time>2025-11-22T00:04:42.000Z</time></trkpt>
        <trkpt lat="28.022836" lon="105.626486"><ele>991.8</ele><time>2025-11-22T00:04:43.000Z</time></trkpt>
        <trkpt lat="28.022835" lon="105.626487"><ele>991.8</ele><time>2025-11-22T00:04:44.000Z</time></trkpt>
        <trkpt lat="28.022834" lon="105.626488"><ele>991.8</ele><time>2025-11-22T00:04:45.000Z</time></trkpt>
        <trkpt lat="28.022833" lon="105.626489"><ele>991.8</ele><time>2025-11-22T00:04:46.000Z</time></trkpt>
        <trkpt lat="28.022832" lon="105.626489"><ele>991.8</ele><time>2025-11-22T00:04:47.000Z</time></trkpt>
        <trkpt lat="28.022832" lon="105.626489"><ele>991.8</ele><time>2025-11-22T00:04:48.000Z</time></trkpt>
        <trkpt lat="28.022833" lon="105.626488"><ele>991.8</ele><time>2025-11-22T00:04:49.000Z</time></trkpt>
        <trkpt lat="28.022835" lon="105.626485"><ele>991.8</ele><time>2025-11-22T00:04:50.000Z</time></trkpt>
        <trkpt lat="28.022837" lon="105.626483"><ele>991.8</ele><time>2025-11-22T00:04:51.000Z</time></trkpt>
        <trkpt lat="28.022838" lon="105.626481"><ele>991.8</ele><time>2025-11-22T00:04:52.000Z</time></trkpt>
        <trkpt lat="28.02284" lon="105.626478"><ele>991.8</ele><time>2025-11-22T00:04:53.000Z</time></trkpt>
        <trkpt lat="28.02284" lon="105.626477"><ele>991.8</ele><time>2025-11-22T00:04:54.000Z</time></trkpt>
        <trkpt lat="28.02284" lon="105.626477"><ele>991.8</ele><time>2025-11-22T00:04:55.000Z</time></trkpt>
        <trkpt lat="28.02284" lon="105.626476"><ele>991.8</ele><time>2025-11-22T00:04:56.000Z</time></trkpt>
        <trkpt lat="28.022841" lon="105.626476"><ele>991.6</ele><time>2025-11-22T00:04:57.000Z</time></trkpt>
        <trkpt lat="28.022841" lon="105.626476"><ele>991.6</ele><time>2025-11-22T00:04:58.000Z</time></trkpt>
        <trkpt lat="28.022841" lon="105.626476"><ele>991.6</ele><time>2025-11-22T00:04:59.000Z</time></trkpt>
        <trkpt lat="28.022842" lon="105.626475"><ele>991.6</ele><time>2025-11-22T00:05:00.000Z</time></trkpt>
        <trkpt lat="28.022842" lon="105.626475"><ele>991.6</ele><time>2025-11-22T00:05:01.000Z</time></trkpt>
        <trkpt lat="28.022842" lon="105.626474"><ele>991.6</ele><time>2025-11-22T00:05:02.000Z</time></trkpt>
        <trkpt lat="28.022842" lon="105.626473"><ele>991.6</ele><time>2025-11-22T00:05:03.000Z</time></trkpt>
        <trkpt lat="28.022842" lon="105.626473"><ele>991.6</ele><time>2025-11-22T00:05:04.000Z</time></trkpt>
        <trkpt lat="28.02284" lon="105.626471"><ele>991.6</ele><time>2025-11-22T00:05:05.000Z</time></trkpt>
        <trkpt lat="28.022839" lon="105.62647"><ele>991.6</ele><time>2025-11-22T00:05:06.000Z</time></trkpt>
        <trkpt lat="28.022837" lon="105.626468"><ele>991.3</ele><time>2025-11-22T00:05:07.000Z</time></trkpt>
        <trkpt lat="28.022836" lon="105.626465"><ele>991.3</ele><time>2025-11-22T00:05:08.000Z</time></trkpt>
        <trkpt lat="28.022835" lon="105.626462"><ele>991.3</ele><time>2025-11-22T00:05:09.000Z</time></trkpt>
        <trkpt lat="28.022835" lon="105.626459"><ele>991.3</ele><time>2025-11-22T00:05:10.000Z</time></trkpt>
        <trkpt lat="28.022834" lon="105.626456"><ele>991.3</ele><time>2025-11-22T00:05:11.000Z</time></trkpt>
        <trkpt lat="28.022834" lon="105.626453"><ele>991.3</ele><time>2025-11-22T00:05:12.000Z</time></trkpt>
        <trkpt lat="28.022835" lon="105.626449"><ele>991.3</ele><time>2025-11-22T00:05:13.000Z</time></trkpt>
        <trkpt lat="28.022835" lon="105.626445"><ele>991.3</ele><time>2025-11-22T00:05:14.000Z</time></trkpt>
        <trkpt lat="28.022836" lon="105.626439"><ele>991.3</ele><time>2025-11-22T00:05:15.000Z</time></trkpt>
        <trkpt lat="28.022837" lon="105.626434"><ele>991.3</ele><time>2025-11-22T00:05:16.000Z</time></trkpt>
        <trkpt lat="28.022838" lon="105.626429"><ele>991.3</ele><time>2025-11-22T00:05:17.000Z</time></trkpt>
        <trkpt lat="28.022839" lon="105.626423"><ele>991.3</ele><time>2025-11-22T00:05:18.000Z</time></trkpt>
        <trkpt lat="28.022841" lon="105.626417"><ele>991.3</ele><time>2025-11-22T00:05:19.000Z</time></trkpt>
        <trkpt lat="28.022844" lon="105.626412"><ele>991.3</ele><time>2025-11-22T00:05:20.000Z</time></trkpt>
        <trkpt lat="28.022847" lon="105.626407"><ele>991.3</ele><time>2025-11-22T00:05:21.000Z</time></trkpt>
        <trkpt lat="28.02285" lon="105.626401"><ele>991</ele><time>2025-11-22T00:05:22.000Z</time></trkpt>
        <trkpt lat="28.022853" lon="105.626395"><ele>991</ele><time>2025-11-22T00:05:23.000Z</time></trkpt>
        <trkpt lat="28.022856" lon="105.626389"><ele>991</ele><time>2025-11-22T00:05:24.000Z</time></trkpt>
        <trkpt lat="28.02286" lon="105.626382"><ele>991</ele><time>2025-11-22T00:05:25.000Z</time></trkpt>
        <trkpt lat="28.022864" lon="105.626376"><ele>991</ele><time>2025-11-22T00:05:26.000Z</time></trkpt>
        <trkpt lat="28.022868" lon="105.626371"><ele>990.4</ele><time>2025-11-22T00:05:27.000Z</time></trkpt>
        <trkpt lat="28.022873" lon="105.626365"><ele>990.4</ele><time>2025-11-22T00:05:28.000Z</time></trkpt>
        <trkpt lat="28.022876" lon="105.626362"><ele>990.4</ele><time>2025-11-22T00:05:29.000Z</time></trkpt>
        <trkpt lat="28.022879" lon="105.626359"><ele>990.4</ele><time>2025-11-22T00:05:30.000Z</time></trkpt>
        <trkpt lat="28.022882" lon="105.626356"><ele>990.4</ele><time>2025-11-22T00:05:31.000Z</time></trkpt>
        <trkpt lat="28.022884" lon="105.626353"><ele>989.5</ele><time>2025-11-22T00:05:32.000Z</time></trkpt>
        <trkpt lat="28.022886" lon="105.626351"><ele>989.5</ele><time>2025-11-22T00:05:33.000Z</time></trkpt>
        <trkpt lat="28.022889" lon="105.626348"><ele>989.5</ele><time>2025-11-22T00:05:34.000Z</time></trkpt>
        <trkpt lat="28.022891" lon="105.626345"><ele>989.5</ele><time>2025-11-22T00:05:35.000Z</time></trkpt>
        <trkpt lat="28.022895" lon="105.626342"><ele>989.5</ele><time>2025-11-22T00:05:36.000Z</time></trkpt>
        <trkpt lat="28.022897" lon="105.626339"><ele>989</ele><time>2025-11-22T00:05:37.000Z</time></trkpt>
        <trkpt lat="28.022901" lon="105.626336"><ele>989</ele><time>2025-11-22T00:05:38.000Z</time></trkpt>
        <trkpt lat="28.022904" lon="105.626334"><ele>989</ele><time>2025-11-22T00:05:39.000Z</time></trkpt>
        <trkpt lat="28.022906" lon="105.626333"><ele>989</ele><time>2025-11-22T00:05:40.000Z</time></trkpt>
        <trkpt lat="28.022908" lon="105.626333"><ele>989</ele><time>2025-11-22T00:05:41.000Z</time></trkpt>
        <trkpt lat="28.022911" lon="105.626333"><ele>988.3</ele><time>2025-11-22T00:05:42.000Z</time></trkpt>
        <trkpt lat="28.022915" lon="105.626332"><ele>988.3</ele><time>2025-11-22T00:05:43.000Z</time></trkpt>
        <trkpt lat="28.022918" lon="105.62633"><ele>988.3</ele><time>2025-11-22T00:05:44.000Z</time></trkpt>
        <trkpt lat="28.022922" lon="105.626326"><ele>988.3</ele><time>2025-11-22T00:05:45.000Z</time></trkpt>
        <trkpt lat="28.022926" lon="105.626322"><ele>988.3</ele><time>2025-11-22T00:05:46.000Z</time></trkpt>
        <trkpt lat="28.022929" lon="105.626318"><ele>987.8</ele><time>2025-11-22T00:05:47.000Z</time></trkpt>
        <trkpt lat="28.022932" lon="105.626314"><ele>987.8</ele><time>2025-11-22T00:05:48.000Z</time></trkpt>
        <trkpt lat="28.022935" lon="105.626311"><ele>987.8</ele><time>2025-11-22T00:05:49.000Z</time></trkpt>
        <trkpt lat="28.022938" lon="105.626308"><ele>987.8</ele><time>2025-11-22T00:05:50.000Z</time></trkpt>
        <trkpt lat="28.02294" lon="105.626306"><ele>987.8</ele><time>2025-11-22T00:05:51.000Z</time></trkpt>
        <trkpt lat="28.022943" lon="105.626303"><ele>987</ele><time>2025-11-22T00:05:52.000Z</time></trkpt>
        <trkpt lat="28.022944" lon="105.626302"><ele>987</ele><time>2025-11-22T00:05:53.000Z</time></trkpt>
        <trkpt lat="28.022946" lon="105.6263"><ele>987</ele><time>2025-11-22T00:05:54.000Z</time></trkpt>
        <trkpt lat="28.022946" lon="105.626299"><ele>987</ele><time>2025-11-22T00:05:55.000Z</time></trkpt>
        <trkpt lat="28.022946" lon="105.626299"><ele>987</ele><time>2025-11-22T00:05:56.000Z</time></trkpt>
        <trkpt lat="28.022946" lon="105.626299"><ele>986.5</ele><time>2025-11-22T00:05:57.000Z</time></trkpt>
        <trkpt lat="28.022946" lon="105.626298"><ele>986.5</ele><time>2025-11-22T00:05:58.000Z</time></trkpt>
        <trkpt lat="28.022946" lon="105.626298"><ele>986.5</ele><time>2025-11-22T00:05:59.000Z</time></trkpt>
        <trkpt lat="28.022946" lon="105.626297"><ele>986.5</ele><time>2025-11-22T00:06:00.000Z</time></trkpt>
        <trkpt lat="28.022945" lon="105.626297"><ele>986.5</ele><time>2025-11-22T00:06:01.000Z</time></trkpt>
        <trkpt lat="28.022945" lon="105.626298"><ele>986.3</ele><time>2025-11-22T00:06:02.000Z</time></trkpt>
        <trkpt lat="28.022944" lon="105.626298"><ele>986.3</ele><time>2025-11-22T00:06:03.000Z</time></trkpt>
        <trkpt lat="28.022944" lon="105.626297"><ele>986.3</ele><time>2025-11-22T00:06:04.000Z</time></trkpt>
        <trkpt lat="28.022943" lon="105.626296"><ele>986.3</ele><time>2025-11-22T00:06:05.000Z</time></trkpt>
        <trkpt lat="28.022944" lon="105.626295"><ele>986.3</ele><time>2025-11-22T00:06:06.000Z</time></trkpt>
        <trkpt lat="28.022945" lon="105.626293"><ele>986</ele><time>2025-11-22T00:06:07.000Z</time></trkpt>
        <trkpt lat="28.022946" lon="105.626292"><ele>986</ele><time>2025-11-22T00:06:08.000Z</time></trkpt>
        <trkpt lat="28.022948" lon="105.626292"><ele>986</ele><time>2025-11-22T00:06:09.000Z</time></trkpt>
        <trkpt lat="28.022949" lon="105.626293"><ele>986</ele><time>2025-11-22T00:06:10.000Z</time></trkpt>
        <trkpt lat="28.022951" lon="105.626295"><ele>986</ele><time>2025-11-22T00:06:11.000Z</time></trkpt>
        <trkpt lat="28.022952" lon="105.626297"><ele>985.6</ele><time>2025-11-22T00:06:12.000Z</time></trkpt>
        <trkpt lat="28.022951" lon="105.626299"><ele>985.6</ele><time>2025-11-22T00:06:13.000Z</time></trkpt>
        <trkpt lat="28.02295" lon="105.626299"><ele>985.6</ele><time>2025-11-22T00:06:14.000Z</time></trkpt>
        <trkpt lat="28.022949" lon="105.6263"><ele>985.6</ele><time>2025-11-22T00:06:15.000Z</time></trkpt>
        <trkpt lat="28.022948" lon="105.6263"><ele>985.6</ele><time>2025-11-22T00:06:16.000Z</time></trkpt>
        <trkpt lat="28.022947" lon="105.6263"><ele>985.4</ele><time>2025-11-22T00:06:17.000Z</time></trkpt>
        <trkpt lat="28.022946" lon="105.6263"><ele>985.4</ele><time>2025-11-22T00:06:18.000Z</time></trkpt>
        <trkpt lat="28.022944" lon="105.626299"><ele>985.4</ele><time>2025-11-22T00:06:19.000Z</time></trkpt>
        <trkpt lat="28.022943" lon="105.626298"><ele>985.4</ele><time>2025-11-22T00:06:20.000Z</time></trkpt>
        <trkpt lat="28.022941" lon="105.626298"><ele>985.4</ele><time>2025-11-22T00:06:21.000Z</time></trkpt>
        <trkpt lat="28.022938" lon="105.626296"><ele>985.1</ele><time>2025-11-22T00:06:22.000Z</time></trkpt>
        <trkpt lat="28.022936" lon="105.626295"><ele>985.1</ele><time>2025-11-22T00:06:23.000Z</time></trkpt>
        <trkpt lat="28.022936" lon="105.626293"><ele>985.1</ele><time>2025-11-22T00:06:24.000Z</time></trkpt>
        <trkpt lat="28.022937" lon="105.62629"><ele>985.1</ele><time>2025-11-22T00:06:25.000Z</time></trkpt>
        <trkpt lat="28.022941" lon="105.626286"><ele>985.1</ele><time>2025-11-22T00:06:26.000Z</time></trkpt>
        <trkpt lat="28.022946" lon="105.626282"><ele>985.1</ele><time>2025-11-22T00:06:27.000Z</time></trkpt>
        <trkpt lat="28.022952" lon="105.626278"><ele>985.1</ele><time>2025-11-22T00:06:28.000Z</time></trkpt>
        <trkpt lat="28.022957" lon="105.626274"><ele>985.1</ele><time>2025-11-22T00:06:29.000Z</time></trkpt>
        <trkpt lat="28.022961" lon="105.62627"><ele>985.1</ele><time>2025-11-22T00:06:30.000Z</time></trkpt>
        <trkpt lat="28.022964" lon="105.626266"><ele>985.1</ele><time>2025-11-22T00:06:31.000Z</time></trkpt>
        <trkpt lat="28.022967" lon="105.626261"><ele>984.9</ele><time>2025-11-22T00:06:32.000Z</time></trkpt>
        <trkpt lat="28.02297" lon="105.626257"><ele>984.9</ele><time>2025-11-22T00:06:33.000Z</time></trkpt>
        <trkpt lat="28.022974" lon="105.626253"><ele>984.9</ele><time>2025-11-22T00:06:34.000Z</time></trkpt>
        <trkpt lat="28.022979" lon="105.626249"><ele>984.9</ele><time>2025-11-22T00:06:35.000Z</time></trkpt>
        <trkpt lat="28.022983" lon="105.626245"><ele>984.9</ele><time>2025-11-22T00:06:36.000Z</time></trkpt>
        <trkpt lat="28.022986" lon="105.626241"><ele>984.4</ele><time>2025-11-22T00:06:37.000Z</time></trkpt>
        <trkpt lat="28.022989" lon="105.626236"><ele>984.4</ele><time>2025-11-22T00:06:38.000Z</time></trkpt>
        <trkpt lat="28.022992" lon="105.626231"><ele>984.4</ele><time>2025-11-22T00:06:39.000Z</time></trkpt>
        <trkpt lat="28.022995" lon="105.626227"><ele>984.4</ele><time>2025-11-22T00:06:40.000Z</time></trkpt>
        <trkpt lat="28.022998" lon="105.626223"><ele>984.4</ele><time>2025-11-22T00:06:41.000Z</time></trkpt>
        <trkpt lat="28.023001" lon="105.626219"><ele>983.9</ele><time>2025-11-22T00:06:42.000Z</time></trkpt>
        <trkpt lat="28.023004" lon="105.626215"><ele>983.9</ele><time>2025-11-22T00:06:43.000Z</time></trkpt>
        <trkpt lat="28.023006" lon="105.626213"><ele>983.9</ele><time>2025-11-22T00:06:44.000Z</time></trkpt>
        <trkpt lat="28.023008" lon="105.62621"><ele>983.9</ele><time>2025-11-22T00:06:45.000Z</time></trkpt>
        <trkpt lat="28.023009" lon="105.626207"><ele>983.9</ele><time>2025-11-22T00:06:46.000Z</time></trkpt>
        <trkpt lat="28.02301" lon="105.626203"><ele>983.4</ele><time>2025-11-22T00:06:47.000Z</time></trkpt>
        <trkpt lat="28.023011" lon="105.626198"><ele>983.4</ele><time>2025-11-22T00:06:48.000Z</time></trkpt>
        <trkpt lat="28.023013" lon="105.626193"><ele>983.4</ele><time>2025-11-22T00:06:49.000Z</time></trkpt>
        <trkpt lat="28.023014" lon="105.626189"><ele>983.4</ele><time>2025-11-22T00:06:50.000Z</time></trkpt>
        <trkpt lat="28.023016" lon="105.626186"><ele>983.4</ele><time>2025-11-22T00:06:51.000Z</time></trkpt>
        <trkpt lat="28.023018" lon="105.626183"><ele>982.8</ele><time>2025-11-22T00:06:52.000Z</time></trkpt>
        <trkpt lat="28.02302" lon="105.626181"><ele>982.8</ele><time>2025-11-22T00:06:53.000Z</time></trkpt>
        <trkpt lat="28.023021" lon="105.626178"><ele>982.8</ele><time>2025-11-22T00:06:54.000Z</time></trkpt>
        <trkpt lat="28.023024" lon="105.626176"><ele>982.8</ele><time>2025-11-22T00:06:55.000Z</time></trkpt>
        <trkpt lat="28.023027" lon="105.626176"><ele>982.8</ele><time>2025-11-22T00:06:56.000Z</time></trkpt>
        <trkpt lat="28.02303" lon="105.626176"><ele>982.5</ele><time>2025-11-22T00:06:57.000Z</time></trkpt>
        <trkpt lat="28.023034" lon="105.626177"><ele>982.5</ele><time>2025-11-22T00:06:58.000Z</time></trkpt>
        <trkpt lat="28.023038" lon="105.626179"><ele>982.5</ele><time>2025-11-22T00:06:59.000Z</time></trkpt>
        <trkpt lat="28.023041" lon="105.626181"><ele>982.5</ele><time>2025-11-22T00:07:00.000Z</time></trkpt>
        <trkpt lat="28.023042" lon="105.626181"><ele>982.5</ele><time>2025-11-22T00:07:01.000Z</time></trkpt>
        <trkpt lat="28.023043" lon="105.626181"><ele>982.3</ele><time>2025-11-22T00:07:02.000Z</time></trkpt>
        <trkpt lat="28.023042" lon="105.626182"><ele>982.3</ele><time>2025-11-22T00:07:03.000Z</time></trkpt>
        <trkpt lat="28.023038" lon="105.626184"><ele>982.3</ele><time>2025-11-22T00:07:04.000Z</time></trkpt>
        <trkpt lat="28.023033" lon="105.626185"><ele>982.3</ele><time>2025-11-22T00:07:05.000Z</time></trkpt>
        <trkpt lat="28.023027" lon="105.626185"><ele>982.3</ele><time>2025-11-22T00:07:06.000Z</time></trkpt>
        <trkpt lat="28.023022" lon="105.626183"><ele>982.3</ele><time>2025-11-22T00:07:07.000Z</time></trkpt>
        <trkpt lat="28.023019" lon="105.626179"><ele>982.3</ele><time>2025-11-22T00:07:08.000Z</time></trkpt>
        <trkpt lat="28.023017" lon="105.626175"><ele>982.3</ele><time>2025-11-22T00:07:09.000Z</time></trkpt>
        <trkpt lat="28.023017" lon="105.62617"><ele>982.3</ele><time>2025-11-22T00:07:10.000Z</time></trkpt>
        <trkpt lat="28.023017" lon="105.626165"><ele>982.3</ele><time>2025-11-22T00:07:11.000Z</time></trkpt>
        <trkpt lat="28.023017" lon="105.626161"><ele>982</ele><time>2025-11-22T00:07:12.000Z</time></trkpt>
        <trkpt lat="28.023016" lon="105.626159"><ele>982</ele><time>2025-11-22T00:07:13.000Z</time></trkpt>
        <trkpt lat="28.023016" lon="105.626156"><ele>982</ele><time>2025-11-22T00:07:14.000Z</time></trkpt>
        <trkpt lat="28.023016" lon="105.626155"><ele>982</ele><time>2025-11-22T00:07:15.000Z</time></trkpt>
        <trkpt lat="28.023017" lon="105.626154"><ele>982</ele><time>2025-11-22T00:07:16.000Z</time></trkpt>
        <trkpt lat="28.023016" lon="105.626153"><ele>982</ele><time>2025-11-22T00:07:17.000Z</time></trkpt>
        <trkpt lat="28.023016" lon="105.62615"><ele>982</ele><time>2025-11-22T00:07:18.000Z</time></trkpt>
        <trkpt lat="28.023015" lon="105.626148"><ele>982</ele><time>2025-11-22T00:07:19.000Z</time></trkpt>
        <trkpt lat="28.023013" lon="105.626147"><ele>982</ele><time>2025-11-22T00:07:20.000Z</time></trkpt>
        <trkpt lat="28.023012" lon="105.626147"><ele>982</ele><time>2025-11-22T00:07:21.000Z</time></trkpt>
        <trkpt lat="28.023012" lon="105.626147"><ele>982</ele><time>2025-11-22T00:07:22.000Z</time></trkpt>
        <trkpt lat="28.023013" lon="105.626149"><ele>982</ele><time>2025-11-22T00:07:23.000Z</time></trkpt>
        <trkpt lat="28.023013" lon="105.62615"><ele>982</ele><time>2025-11-22T00:07:24.000Z</time></trkpt>
        <trkpt lat="28.023014" lon="105.626151"><ele>982</ele><time>2025-11-22T00:07:25.000Z</time></trkpt>
        <trkpt lat="28.023014" lon="105.626151"><ele>982</ele><time>2025-11-22T00:07:26.000Z</time></trkpt>
        <trkpt lat="28.023014" lon="105.626151"><ele>982</ele><time>2025-11-22T00:07:27.000Z</time></trkpt>
        <trkpt lat="28.023014" lon="105.626151"><ele>982</ele><time>2025-11-22T00:07:28.000Z</time></trkpt>
        <trkpt lat="28.023014" lon="105.626151"><ele>982</ele><time>2025-11-22T00:07:29.000Z</time></trkpt>
        <trkpt lat="28.023014" lon="105.626151"><ele>982</ele><time>2025-11-22T00:07:30.000Z</time></trkpt>
        <trkpt lat="28.023014" lon="105.626151"><ele>982</ele><time>2025-11-22T00:07:31.000Z</time></trkpt>
        <trkpt lat="28.023014" lon="105.626151"><ele>982</ele><time>2025-11-22T00:07:32.000Z</time></trkpt>
        <trkpt lat="28.023014" lon="105.626151"><ele>982</ele><time>2025-11-22T00:07:33.000Z</time></trkpt>
        <trkpt lat="28.023014" lon="105.626149"><ele>982</ele><time>2025-11-22T00:07:34.000Z</time></trkpt>
        <trkpt lat="28.023013" lon="105.626147"><ele>982</ele><time>2025-11-22T00:07:35.000Z</time></trkpt>
        <trkpt lat="28.023012" lon="105.626145"><ele>982</ele><time>2025-11-22T00:07:36.000Z</time></trkpt>
        <trkpt lat="28.02301" lon="105.626141"><ele>982</ele><time>2025-11-22T00:07:37.000Z</time></trkpt>
        <trkpt lat="28.023006" lon="105.626137"><ele>982</ele><time>2025-11-22T00:07:38.000Z</time></trkpt>
        <trkpt lat="28.023003" lon="105.626133"><ele>982</ele><time>2025-11-22T00:07:39.000Z</time></trkpt>
        <trkpt lat="28.022999" lon="105.626128"><ele>982</ele><time>2025-11-22T00:07:40.000Z</time></trkpt>
        <trkpt lat="28.022995" lon="105.626121"><ele>982</ele><time>2025-11-22T00:07:41.000Z</time></trkpt>
        <trkpt lat="28.022992" lon="105.626116"><ele>982</ele><time>2025-11-22T00:07:42.000Z</time></trkpt>
        <trkpt lat="28.02299" lon="105.626111"><ele>982</ele><time>2025-11-22T00:07:43.000Z</time></trkpt>
        <trkpt lat="28.022989" lon="105.626107"><ele>982</ele><time>2025-11-22T00:07:44.000Z</time></trkpt>
        <trkpt lat="28.022988" lon="105.626106"><ele>982</ele><time>2025-11-22T00:07:45.000Z</time></trkpt>
        <trkpt lat="28.022987" lon="105.626105"><ele>982</ele><time>2025-11-22T00:07:46.000Z</time></trkpt>
        <trkpt lat="28.022987" lon="105.626105"><ele>981.8</ele><time>2025-11-22T00:07:47.000Z</time></trkpt>
        <trkpt lat="28.022986" lon="105.626105"><ele>981.8</ele><time>2025-11-22T00:07:48.000Z</time></trkpt>
        <trkpt lat="28.022984" lon="105.626105"><ele>981.8</ele><time>2025-11-22T00:07:49.000Z</time></trkpt>
        <trkpt lat="28.022983" lon="105.626105"><ele>981.8</ele><time>2025-11-22T00:07:50.000Z</time></trkpt>
        <trkpt lat="28.022982" lon="105.626105"><ele>981.8</ele><time>2025-11-22T00:07:51.000Z</time></trkpt>
        <trkpt lat="28.022981" lon="105.626106"><ele>981.5</ele><time>2025-11-22T00:07:52.000Z</time></trkpt>
        <trkpt lat="28.022981" lon="105.626106"><ele>981.5</ele><time>2025-11-22T00:07:53.000Z</time></trkpt>
        <trkpt lat="28.022981" lon="105.626106"><ele>981.5</ele><time>2025-11-22T00:07:54.000Z</time></trkpt>
        <trkpt lat="28.022982" lon="105.626106"><ele>981.5</ele><time>2025-11-22T00:07:55.000Z</time></trkpt>
        <trkpt lat="28.022982" lon="105.626106"><ele>981.5</ele><time>2025-11-22T00:07:56.000Z</time></trkpt>
        <trkpt lat="28.022983" lon="105.626106"><ele>981</ele><time>2025-11-22T00:07:57.000Z</time></trkpt>
        <trkpt lat="28.022985" lon="105.626108"><ele>981</ele><time>2025-11-22T00:07:58.000Z</time></trkpt>
        <trkpt lat="28.022986" lon="105.626109"><ele>981</ele><time>2025-11-22T00:07:59.000Z</time></trkpt>
        <trkpt lat="28.022987" lon="105.626111"><ele>981</ele><time>2025-11-22T00:08:00.000Z</time></trkpt>
        <trkpt lat="28.022988" lon="105.626112"><ele>981</ele><time>2025-11-22T00:08:01.000Z</time></trkpt>
        <trkpt lat="28.022989" lon="105.626113"><ele>980.8</ele><time>2025-11-22T00:08:02.000Z</time></trkpt>
        <trkpt lat="28.022989" lon="105.626112"><ele>980.8</ele><time>2025-11-22T00:08:03.000Z</time></trkpt>
        <trkpt lat="28.022989" lon="105.626109"><ele>980.8</ele><time>2025-11-22T00:08:04.000Z</time></trkpt>
        <trkpt lat="28.022988" lon="105.626105"><ele>980.8</ele><time>2025-11-22T00:08:05.000Z</time></trkpt>
        <trkpt lat="28.022988" lon="105.6261"><ele>980.8</ele><time>2025-11-22T00:08:06.000Z</time></trkpt>
        <trkpt lat="28.022987" lon="105.626094"><ele>980.8</ele><time>2025-11-22T00:08:07.000Z</time></trkpt>
        <trkpt lat="28.022985" lon="105.626088"><ele>980.8</ele><time>2025-11-22T00:08:08.000Z</time></trkpt>
        <trkpt lat="28.022982" lon="105.626083"><ele>980.8</ele><time>2025-11-22T00:08:09.000Z</time></trkpt>
        <trkpt lat="28.022979" lon="105.626079"><ele>980.8</ele><time>2025-11-22T00:08:10.000Z</time></trkpt>
        <trkpt lat="28.022977" lon="105.626075"><ele>980.8</ele><time>2025-11-22T00:08:11.000Z</time></trkpt>
        <trkpt lat="28.022974" lon="105.626073"><ele>980.6</ele><time>2025-11-22T00:08:12.000Z</time></trkpt>
        <trkpt lat="28.022971" lon="105.626072"><ele>980.6</ele><time>2025-11-22T00:08:13.000Z</time></trkpt>
        <trkpt lat="28.022969" lon="105.62607"><ele>980.6</ele><time>2025-11-22T00:08:14.000Z</time></trkpt>
        <trkpt lat="28.022966" lon="105.62607"><ele>980.6</ele><time>2025-11-22T00:08:15.000Z</time></trkpt>
        <trkpt lat="28.022962" lon="105.62607"><ele>980.6</ele><time>2025-11-22T00:08:16.000Z</time></trkpt>
        <trkpt lat="28.022959" lon="105.626069"><ele>980.4</ele><time>2025-11-22T00:08:17.000Z</time></trkpt>
        <trkpt lat="28.022957" lon="105.626069"><ele>980.4</ele><time>2025-11-22T00:08:18.000Z</time></trkpt>
        <trkpt lat="28.022955" lon="105.62607"><ele>980.4</ele><time>2025-11-22T00:08:19.000Z</time></trkpt>
        <trkpt lat="28.022954" lon="105.626072"><ele>980.4</ele><time>2025-11-22T00:08:20.000Z</time></trkpt>
        <trkpt lat="28.022953" lon="105.626073"><ele>980.4</ele><time>2025-11-22T00:08:21.000Z</time></trkpt>
        <trkpt lat="28.022952" lon="105.626074"><ele>979.9</ele><time>2025-11-22T00:08:22.000Z</time></trkpt>
        <trkpt lat="28.022952" lon="105.626074"><ele>979.9</ele><time>2025-11-22T00:08:23.000Z</time></trkpt>
        <trkpt lat="28.022951" lon="105.626075"><ele>979.9</ele><time>2025-11-22T00:08:24.000Z</time></trkpt>
        <trkpt lat="28.02295" lon="105.626075"><ele>979.9</ele><time>2025-11-22T00:08:25.000Z</time></trkpt>
        <trkpt lat="28.02295" lon="105.626075"><ele>979.9</ele><time>2025-11-22T00:08:26.000Z</time></trkpt>
        <trkpt lat="28.022949" lon="105.626076"><ele>979.7</ele><time>2025-11-22T00:08:27.000Z</time></trkpt>
        <trkpt lat="28.022948" lon="105.626077"><ele>979.7</ele><time>2025-11-22T00:08:28.000Z</time></trkpt>
        <trkpt lat="28.022948" lon="105.626077"><ele>979.7</ele><time>2025-11-22T00:08:29.000Z</time></trkpt>
        <trkpt lat="28.022949" lon="105.626077"><ele>979.7</ele><time>2025-11-22T00:08:30.000Z</time></trkpt>
        <trkpt lat="28.022949" lon="105.626077"><ele>979.7</ele><time>2025-11-22T00:08:31.000Z</time></trkpt>
        <trkpt lat="28.022949" lon="105.626078"><ele>979.4</ele><time>2025-11-22T00:08:32.000Z</time></trkpt>
        <trkpt lat="28.022949" lon="105.626077"><ele>979.4</ele><time>2025-11-22T00:08:33.000Z</time></trkpt>
        <trkpt lat="28.022949" lon="105.626077"><ele>979.4</ele><time>2025-11-22T00:08:34.000Z</time></trkpt>
        <trkpt lat="28.022949" lon="105.626077"><ele>979.4</ele><time>2025-11-22T00:08:35.000Z</time></trkpt>
        <trkpt lat="28.022949" lon="105.626077"><ele>979.4</ele><time>2025-11-22T00:08:36.000Z</time></trkpt>
        <trkpt lat="28.022948" lon="105.626077"><ele>979.4</ele><time>2025-11-22T00:08:37.000Z</time></trkpt>
        <trkpt lat="28.022947" lon="105.626079"><ele>979.4</ele><time>2025-11-22T00:08:38.000Z</time></trkpt>
        <trkpt lat="28.022946" lon="105.626081"><ele>979.4</ele><time>2025-11-22T00:08:39.000Z</time></trkpt>
        <trkpt lat="28.022945" lon="105.626082"><ele>979.4</ele><time>2025-11-22T00:08:40.000Z</time></trkpt>
        <trkpt lat="28.022944" lon="105.626083"><ele>979.4</ele><time>2025-11-22T00:08:41.000Z</time></trkpt>
        <trkpt lat="28.022944" lon="105.626085"><ele>979.4</ele><time>2025-11-22T00:08:42.000Z</time></trkpt>
        <trkpt lat="28.022944" lon="105.626086"><ele>979.4</ele><time>2025-11-22T00:08:43.000Z</time></trkpt>
        <trkpt lat="28.022944" lon="105.626086"><ele>979.4</ele><time>2025-11-22T00:08:44.000Z</time></trkpt>
        <trkpt lat="28.022943" lon="105.626088"><ele>979.4</ele><time>2025-11-22T00:08:45.000Z</time></trkpt>
        <trkpt lat="28.022941" lon="105.62609"><ele>979.4</ele><time>2025-11-22T00:08:46.000Z</time></trkpt>
        <trkpt lat="28.02294" lon="105.626091"><ele>979.4</ele><time>2025-11-22T00:08:47.000Z</time></trkpt>
        <trkpt lat="28.022938" lon="105.626092"><ele>979.4</ele><time>2025-11-22T00:08:48.000Z</time></trkpt>
        <trkpt lat="28.022937" lon="105.626092"><ele>979.4</ele><time>2025-11-22T00:08:49.000Z</time></trkpt>
        <trkpt lat="28.022936" lon="105.626091"><ele>979.4</ele><time>2025-11-22T00:08:50.000Z</time></trkpt>
        <trkpt lat="28.022936" lon="105.62609"><ele>979.4</ele><time>2025-11-22T00:08:51.000Z</time></trkpt>
        <trkpt lat="28.022936" lon="105.62609"><ele>979.4</ele><time>2025-11-22T00:08:52.000Z</time></trkpt>
        <trkpt lat="28.022937" lon="105.62609"><ele>979.4</ele><time>2025-11-22T00:08:53.000Z</time></trkpt>
        <trkpt lat="28.022937" lon="105.626091"><ele>979.4</ele><time>2025-11-22T00:08:54.000Z</time></trkpt>
        <trkpt lat="28.022937" lon="105.626091"><ele>979.4</ele><time>2025-11-22T00:08:55.000Z</time></trkpt>
        <trkpt lat="28.022937" lon="105.62609"><ele>979.4</ele><time>2025-11-22T00:08:56.000Z</time></trkpt>
        <trkpt lat="28.022936" lon="105.62609"><ele>979.4</ele><time>2025-11-22T00:08:57.000Z</time></trkpt>
        <trkpt lat="28.022936" lon="105.626089"><ele>979.4</ele><time>2025-11-22T00:08:58.000Z</time></trkpt>
        <trkpt lat="28.022936" lon="105.626088"><ele>979.4</ele><time>2025-11-22T00:08:59.000Z</time></trkpt>
        <trkpt lat="28.022936" lon="105.626088"><ele>979.4</ele><time>2025-11-22T00:09:00.000Z</time></trkpt>
        <trkpt lat="28.022936" lon="105.626088"><ele>979.4</ele><time>2025-11-22T00:09:01.000Z</time></trkpt>
        <trkpt lat="28.022936" lon="105.626088"><ele>979.4</ele><time>2025-11-22T00:09:02.000Z</time></trkpt>
        <trkpt lat="28.022936" lon="105.626088"><ele>979.4</ele><time>2025-11-22T00:09:03.000Z</time></trkpt>
        <trkpt lat="28.022936" lon="105.626086"><ele>979.4</ele><time>2025-11-22T00:09:04.000Z</time></trkpt>
        <trkpt lat="28.022936" lon="105.626084"><ele>979.4</ele><time>2025-11-22T00:09:05.000Z</time></trkpt>
        <trkpt lat="28.022936" lon="105.626081"><ele>979.4</ele><time>2025-11-22T00:09:06.000Z</time></trkpt>
        <trkpt lat="28.022937" lon="105.626079"><ele>979.4</ele><time>2025-11-22T00:09:07.000Z</time></trkpt>
        <trkpt lat="28.022938" lon="105.626077"><ele>979.4</ele><time>2025-11-22T00:09:08.000Z</time></trkpt>
        <trkpt lat="28.022938" lon="105.626078"><ele>979.4</ele><time>2025-11-22T00:09:09.000Z</time></trkpt>
        <trkpt lat="28.022939" lon="105.626079"><ele>979.4</ele><time>2025-11-22T00:09:10.000Z</time></trkpt>
        <trkpt lat="28.022939" lon="105.626081"><ele>979.4</ele><time>2025-11-22T00:09:11.000Z</time></trkpt>
        <trkpt lat="28.022938" lon="105.626082"><ele>979.4</ele><time>2025-11-22T00:09:12.000Z</time></trkpt>
        <trkpt lat="28.022937" lon="105.626082"><ele>979.4</ele><time>2025-11-22T00:09:13.000Z</time></trkpt>
        <trkpt lat="28.022936" lon="105.626083"><ele>979.4</ele><time>2025-11-22T00:09:14.000Z</time></trkpt>
        <trkpt lat="28.022935" lon="105.626083"><ele>979.4</ele><time>2025-11-22T00:09:15.000Z</time></trkpt>
        <trkpt lat="28.022935" lon="105.626083"><ele>979.4</ele><time>2025-11-22T00:09:16.000Z</time></trkpt>
        <trkpt lat="28.022935" lon="105.626084"><ele>979.4</ele><time>2025-11-22T00:09:17.000Z</time></trkpt>
        <trkpt lat="28.022935" lon="105.626084"><ele>979.4</ele><time>2025-11-22T00:09:18.000Z</time></trkpt>
        <trkpt lat="28.022935" lon="105.626084"><ele>979.4</ele><time>2025-11-22T00:09:19.000Z</time></trkpt>
        <trkpt lat="28.022936" lon="105.626085"><ele>979.4</ele><time>2025-11-22T00:09:20.000Z</time></trkpt>
        <trkpt lat="28.022936" lon="105.626085"><ele>979.4</ele><time>2025-11-22T00:09:21.000Z</time></trkpt>
        <trkpt lat="28.022937" lon="105.626085"><ele>979.4</ele><time>2025-11-22T00:09:22.000Z</time></trkpt>
        <trkpt lat="28.022937" lon="105.626085"><ele>979.4</ele><time>2025-11-22T00:09:23.000Z</time></trkpt>
        <trkpt lat="28.022936" lon="105.626085"><ele>979.4</ele><time>2025-11-22T00:09:24.000Z</time></trkpt>
        <trkpt lat="28.022936" lon="105.626085"><ele>979.4</ele><time>2025-11-22T00:09:25.000Z</time></trkpt>
        <trkpt lat="28.022936" lon="105.626085"><ele>979.4</ele><time>2025-11-22T00:09:26.000Z</time></trkpt>
        <trkpt lat="28.022936" lon="105.626085"><ele>979.4</ele><time>2025-11-22T00:09:27.000Z</time></trkpt>
        <trkpt lat="28.022936" lon="105.626085"><ele>979.4</ele><time>2025-11-22T00:09:28.000Z</time></trkpt>
        <trkpt lat="28.022936" lon="105.626084"><ele>979.4</ele><time>2025-11-22T00:09:29.000Z</time></trkpt>
        <trkpt lat="28.022936" lon="105.626083"><ele>979.4</ele><time>2025-11-22T00:09:30.000Z</time></trkpt>
        <trkpt lat="28.022935" lon="105.626082"><ele>979.4</ele><time>2025-11-22T00:09:31.000Z</time></trkpt>
        <trkpt lat="28.022935" lon="105.62608"><ele>979.4</ele><time>2025-11-22T00:09:32.000Z</time></trkpt>
        <trkpt lat="28.022935" lon="105.626078"><ele>979.4</ele><time>2025-11-22T00:09:33.000Z</time></trkpt>
        <trkpt lat="28.022935" lon="105.626075"><ele>979.4</ele><time>2025-11-22T00:09:34.000Z</time></trkpt>
        <trkpt lat="28.022935" lon="105.626072"><ele>979.4</ele><time>2025-11-22T00:09:35.000Z</time></trkpt>
        <trkpt lat="28.022936" lon="105.62607"><ele>979.4</ele><time>2025-11-22T00:09:36.000Z</time></trkpt>
        <trkpt lat="28.022936" lon="105.626069"><ele>979.4</ele><time>2025-11-22T00:09:37.000Z</time></trkpt>
        <trkpt lat="28.022936" lon="105.626068"><ele>979.4</ele><time>2025-11-22T00:09:38.000Z</time></trkpt>
        <trkpt lat="28.022937" lon="105.626067"><ele>979.4</ele><time>2025-11-22T00:09:39.000Z</time></trkpt>
        <trkpt lat="28.022938" lon="105.626065"><ele>979.4</ele><time>2025-11-22T00:09:40.000Z</time></trkpt>
        <trkpt lat="28.022938" lon="105.626064"><ele>979.4</ele><time>2025-11-22T00:09:41.000Z</time></trkpt>
        <trkpt lat="28.022937" lon="105.626062"><ele>979.1</ele><time>2025-11-22T00:09:42.000Z</time></trkpt>
        <trkpt lat="28.022934" lon="105.626061"><ele>979.1</ele><time>2025-11-22T00:09:43.000Z</time></trkpt>
        <trkpt lat="28.022929" lon="105.626059"><ele>979.1</ele><time>2025-11-22T00:09:44.000Z</time></trkpt>
        <trkpt lat="28.022922" lon="105.626057"><ele>979.1</ele><time>2025-11-22T00:09:45.000Z</time></trkpt>
        <trkpt lat="28.022916" lon="105.626055"><ele>979.1</ele><time>2025-11-22T00:09:46.000Z</time></trkpt>
        <trkpt lat="28.022911" lon="105.626052"><ele>978.6</ele><time>2025-11-22T00:09:47.000Z</time></trkpt>
        <trkpt lat="28.022906" lon="105.626049"><ele>978.6</ele><time>2025-11-22T00:09:48.000Z</time></trkpt>
        <trkpt lat="28.022903" lon="105.626046"><ele>978.6</ele><time>2025-11-22T00:09:49.000Z</time></trkpt>
        <trkpt lat="28.022898" lon="105.626043"><ele>978.6</ele><time>2025-11-22T00:09:50.000Z</time></trkpt>
        <trkpt lat="28.022893" lon="105.626041"><ele>978.6</ele><time>2025-11-22T00:09:51.000Z</time></trkpt>
        <trkpt lat="28.022887" lon="105.626039"><ele>978</ele><time>2025-11-22T00:09:52.000Z</time></trkpt>
        <trkpt lat="28.022881" lon="105.626036"><ele>978</ele><time>2025-11-22T00:09:53.000Z</time></trkpt>
        <trkpt lat="28.022874" lon="105.626033"><ele>978</ele><time>2025-11-22T00:09:54.000Z</time></trkpt>
        <trkpt lat="28.022868" lon="105.626028"><ele>978</ele><time>2025-11-22T00:09:55.000Z</time></trkpt>
        <trkpt lat="28.022863" lon="105.626021"><ele>978</ele><time>2025-11-22T00:09:56.000Z</time></trkpt>
        <trkpt lat="28.022856" lon="105.626015"><ele>976.9</ele><time>2025-11-22T00:09:57.000Z</time></trkpt>
        <trkpt lat="28.022847" lon="105.62601"><ele>976.9</ele><time>2025-11-22T00:09:58.000Z</time></trkpt>
        <trkpt lat="28.022838" lon="105.626005"><ele>976.9</ele><time>2025-11-22T00:09:59.000Z</time></trkpt>
        <trkpt lat="28.022827" lon="105.626002"><ele>976.9</ele><time>2025-11-22T00:10:00.000Z</time></trkpt>
        <trkpt lat="28.022815" lon="105.625999"><ele>976.9</ele><time>2025-11-22T00:10:01.000Z</time></trkpt>
        <trkpt lat="28.022801" lon="105.625999"><ele>975.9</ele><time>2025-11-22T00:10:02.000Z</time></trkpt>
        <trkpt lat="28.022789" lon="105.625998"><ele>975.9</ele><time>2025-11-22T00:10:03.000Z</time></trkpt>
        <trkpt lat="28.022779" lon="105.625996"><ele>975.9</ele><time>2025-11-22T00:10:04.000Z</time></trkpt>
        <trkpt lat="28.022768" lon="105.625995"><ele>975.9</ele><time>2025-11-22T00:10:05.000Z</time></trkpt>
        <trkpt lat="28.022759" lon="105.625993"><ele>975.9</ele><time>2025-11-22T00:10:06.000Z</time></trkpt>
        <trkpt lat="28.022753" lon="105.62599"><ele>975</ele><time>2025-11-22T00:10:07.000Z</time></trkpt>
        <trkpt lat="28.022748" lon="105.625988"><ele>975</ele><time>2025-11-22T00:10:08.000Z</time></trkpt>
        <trkpt lat="28.022743" lon="105.625985"><ele>975</ele><time>2025-11-22T00:10:09.000Z</time></trkpt>
        <trkpt lat="28.02274" lon="105.625981"><ele>975</ele><time>2025-11-22T00:10:10.000Z</time></trkpt>
        <trkpt lat="28.022738" lon="105.625978"><ele>975</ele><time>2025-11-22T00:10:11.000Z</time></trkpt>
        <trkpt lat="28.022735" lon="105.625974"><ele>974.5</ele><time>2025-11-22T00:10:12.000Z</time></trkpt>
        <trkpt lat="28.022731" lon="105.625971"><ele>974.5</ele><time>2025-11-22T00:10:13.000Z</time></trkpt>
        <trkpt lat="28.022728" lon="105.625968"><ele>974.5</ele><time>2025-11-22T00:10:14.000Z</time></trkpt>
        <trkpt lat="28.022724" lon="105.625966"><ele>974.5</ele><time>2025-11-22T00:10:15.000Z</time></trkpt>
        <trkpt lat="28.022721" lon="105.625964"><ele>974.5</ele><time>2025-11-22T00:10:16.000Z</time></trkpt>
        <trkpt lat="28.022717" lon="105.625961"><ele>974.5</ele><time>2025-11-22T00:10:17.000Z</time></trkpt>
        <trkpt lat="28.022714" lon="105.625957"><ele>974.5</ele><time>2025-11-22T00:10:18.000Z</time></trkpt>
        <trkpt lat="28.02271" lon="105.625951"><ele>974.5</ele><time>2025-11-22T00:10:19.000Z</time></trkpt>
        <trkpt lat="28.022705" lon="105.625944"><ele>974.5</ele><time>2025-11-22T00:10:20.000Z</time></trkpt>
        <trkpt lat="28.022702" lon="105.625936"><ele>974.5</ele><time>2025-11-22T00:10:21.000Z</time></trkpt>
        <trkpt lat="28.022697" lon="105.625928"><ele>975.1</ele><time>2025-11-22T00:10:22.000Z</time></trkpt>
        <trkpt lat="28.022693" lon="105.62592"><ele>975.1</ele><time>2025-11-22T00:10:23.000Z</time></trkpt>
        <trkpt lat="28.022689" lon="105.625911"><ele>975.1</ele><time>2025-11-22T00:10:24.000Z</time></trkpt>
        <trkpt lat="28.022685" lon="105.625903"><ele>975.1</ele><time>2025-11-22T00:10:25.000Z</time></trkpt>
        <trkpt lat="28.022681" lon="105.625896"><ele>975.1</ele><time>2025-11-22T00:10:26.000Z</time></trkpt>
        <trkpt lat="28.022676" lon="105.625889"><ele>976.2</ele><time>2025-11-22T00:10:27.000Z</time></trkpt>
        <trkpt lat="28.022671" lon="105.625881"><ele>976.2</ele><time>2025-11-22T00:10:28.000Z</time></trkpt>
        <trkpt lat="28.022667" lon="105.625874"><ele>976.2</ele><time>2025-11-22T00:10:29.000Z</time></trkpt>
        <trkpt lat="28.022663" lon="105.625867"><ele>976.2</ele><time>2025-11-22T00:10:30.000Z</time></trkpt>
        <trkpt lat="28.02266" lon="105.625861"><ele>976.2</ele><time>2025-11-22T00:10:31.000Z</time></trkpt>
        <trkpt lat="28.022659" lon="105.625855"><ele>976.8</ele><time>2025-11-22T00:10:32.000Z</time></trkpt>
        <trkpt lat="28.022658" lon="105.625849"><ele>976.8</ele><time>2025-11-22T00:10:33.000Z</time></trkpt>
        <trkpt lat="28.022656" lon="105.625844"><ele>976.8</ele><time>2025-11-22T00:10:34.000Z</time></trkpt>
        <trkpt lat="28.022655" lon="105.62584"><ele>976.8</ele><time>2025-11-22T00:10:35.000Z</time></trkpt>
        <trkpt lat="28.022654" lon="105.625835"><ele>976.8</ele><time>2025-11-22T00:10:36.000Z</time></trkpt>
        <trkpt lat="28.022654" lon="105.62583"><ele>977.3</ele><time>2025-11-22T00:10:37.000Z</time></trkpt>
        <trkpt lat="28.022652" lon="105.625825"><ele>977.3</ele><time>2025-11-22T00:10:38.000Z</time></trkpt>
        <trkpt lat="28.022652" lon="105.62582"><ele>977.3</ele><time>2025-11-22T00:10:39.000Z</time></trkpt>
        <trkpt lat="28.022651" lon="105.625814"><ele>977.3</ele><time>2025-11-22T00:10:40.000Z</time></trkpt>
        <trkpt lat="28.02265" lon="105.625809"><ele>977.3</ele><time>2025-11-22T00:10:41.000Z</time></trkpt>
        <trkpt lat="28.022649" lon="105.625805"><ele>977.3</ele><time>2025-11-22T00:10:42.000Z</time></trkpt>
        <trkpt lat="28.022649" lon="105.6258"><ele>977.3</ele><time>2025-11-22T00:10:43.000Z</time></trkpt>
        <trkpt lat="28.022648" lon="105.625795"><ele>977.3</ele><time>2025-11-22T00:10:44.000Z</time></trkpt>
        <trkpt lat="28.022649" lon="105.625792"><ele>977.3</ele><time>2025-11-22T00:10:45.000Z</time></trkpt>
        <trkpt lat="28.022648" lon="105.625788"><ele>977.3</ele><time>2025-11-22T00:10:46.000Z</time></trkpt>
        <trkpt lat="28.022646" lon="105.625785"><ele>977.1</ele><time>2025-11-22T00:10:47.000Z</time></trkpt>
        <trkpt lat="28.022646" lon="105.625782"><ele>977.1</ele><time>2025-11-22T00:10:48.000Z</time></trkpt>
        <trkpt lat="28.022646" lon="105.625779"><ele>977.1</ele><time>2025-11-22T00:10:49.000Z</time></trkpt>
        <trkpt lat="28.022646" lon="105.625775"><ele>977.1</ele><time>2025-11-22T00:10:50.000Z</time></trkpt>
        <trkpt lat="28.022646" lon="105.62577"><ele>977.1</ele><time>2025-11-22T00:10:51.000Z</time></trkpt>
        <trkpt lat="28.022647" lon="105.625766"><ele>976.8</ele><time>2025-11-22T00:10:52.000Z</time></trkpt>
        <trkpt lat="28.022648" lon="105.625761"><ele>976.8</ele><time>2025-11-22T00:10:53.000Z</time></trkpt>
        <trkpt lat="28.022648" lon="105.625756"><ele>976.8</ele><time>2025-11-22T00:10:54.000Z</time></trkpt>
        <trkpt lat="28.02265" lon="105.625751"><ele>976.8</ele><time>2025-11-22T00:10:55.000Z</time></trkpt>
        <trkpt lat="28.022653" lon="105.625747"><ele>976.8</ele><time>2025-11-22T00:10:56.000Z</time></trkpt>
        <trkpt lat="28.022655" lon="105.625744"><ele>976.2</ele><time>2025-11-22T00:10:57.000Z</time></trkpt>
        <trkpt lat="28.022657" lon="105.625741"><ele>976.2</ele><time>2025-11-22T00:10:58.000Z</time></trkpt>
        <trkpt lat="28.02266" lon="105.62574"><ele>976.2</ele><time>2025-11-22T00:10:59.000Z</time></trkpt>
        <trkpt lat="28.022662" lon="105.625739"><ele>976.2</ele><time>2025-11-22T00:11:00.000Z</time></trkpt>
        <trkpt lat="28.022663" lon="105.625738"><ele>976.2</ele><time>2025-11-22T00:11:01.000Z</time></trkpt>
        <trkpt lat="28.022665" lon="105.625738"><ele>975.5</ele><time>2025-11-22T00:11:02.000Z</time></trkpt>
        <trkpt lat="28.022667" lon="105.625737"><ele>975.5</ele><time>2025-11-22T00:11:03.000Z</time></trkpt>
        <trkpt lat="28.022667" lon="105.625735"><ele>975.5</ele><time>2025-11-22T00:11:04.000Z</time></trkpt>
        <trkpt lat="28.022667" lon="105.625734"><ele>975.5</ele><time>2025-11-22T00:11:05.000Z</time></trkpt>
        <trkpt lat="28.022667" lon="105.625733"><ele>975.5</ele><time>2025-11-22T00:11:06.000Z</time></trkpt>
        <trkpt lat="28.022666" lon="105.625731"><ele>974.9</ele><time>2025-11-22T00:11:07.000Z</time></trkpt>
        <trkpt lat="28.022663" lon="105.625729"><ele>974.9</ele><time>2025-11-22T00:11:08.000Z</time></trkpt>
        <trkpt lat="28.02266" lon="105.625727"><ele>974.9</ele><time>2025-11-22T00:11:09.000Z</time></trkpt>
        <trkpt lat="28.02266" lon="105.625723"><ele>974.9</ele><time>2025-11-22T00:11:10.000Z</time></trkpt>
        <trkpt lat="28.022661" lon="105.625718"><ele>974.9</ele><time>2025-11-22T00:11:11.000Z</time></trkpt>
        <trkpt lat="28.022663" lon="105.625714"><ele>974.1</ele><time>2025-11-22T00:11:12.000Z</time></trkpt>
        <trkpt lat="28.022666" lon="105.625712"><ele>974.1</ele><time>2025-11-22T00:11:13.000Z</time></trkpt>
        <trkpt lat="28.022668" lon="105.62571"><ele>974.1</ele><time>2025-11-22T00:11:14.000Z</time></trkpt>
        <trkpt lat="28.02267" lon="105.625708"><ele>974.1</ele><time>2025-11-22T00:11:15.000Z</time></trkpt>
        <trkpt lat="28.022671" lon="105.625706"><ele>974.1</ele><time>2025-11-22T00:11:16.000Z</time></trkpt>
        <trkpt lat="28.022674" lon="105.625706"><ele>973.6</ele><time>2025-11-22T00:11:17.000Z</time></trkpt>
        <trkpt lat="28.022679" lon="105.625707"><ele>973.6</ele><time>2025-11-22T00:11:18.000Z</time></trkpt>
        <trkpt lat="28.022684" lon="105.625707"><ele>973.6</ele><time>2025-11-22T00:11:19.000Z</time></trkpt>
        <trkpt lat="28.022689" lon="105.625708"><ele>973.6</ele><time>2025-11-22T00:11:20.000Z</time></trkpt>
        <trkpt lat="28.022694" lon="105.62571"><ele>973.6</ele><time>2025-11-22T00:11:21.000Z</time></trkpt>
        <trkpt lat="28.022697" lon="105.625711"><ele>973.3</ele><time>2025-11-22T00:11:22.000Z</time></trkpt>
        <trkpt lat="28.022699" lon="105.625709"><ele>973.3</ele><time>2025-11-22T00:11:23.000Z</time></trkpt>
        <trkpt lat="28.022701" lon="105.625708"><ele>973.3</ele><time>2025-11-22T00:11:24.000Z</time></trkpt>
        <trkpt lat="28.022702" lon="105.625706"><ele>973.3</ele><time>2025-11-22T00:11:25.000Z</time></trkpt>
        <trkpt lat="28.022703" lon="105.625704"><ele>973.3</ele><time>2025-11-22T00:11:26.000Z</time></trkpt>
        <trkpt lat="28.022704" lon="105.6257"><ele>973</ele><time>2025-11-22T00:11:27.000Z</time></trkpt>
        <trkpt lat="28.022706" lon="105.625698"><ele>973</ele><time>2025-11-22T00:11:28.000Z</time></trkpt>
        <trkpt lat="28.022708" lon="105.625697"><ele>973</ele><time>2025-11-22T00:11:29.000Z</time></trkpt>
        <trkpt lat="28.022709" lon="105.625696"><ele>973</ele><time>2025-11-22T00:11:30.000Z</time></trkpt>
        <trkpt lat="28.022711" lon="105.625695"><ele>973</ele><time>2025-11-22T00:11:31.000Z</time></trkpt>
        <trkpt lat="28.022712" lon="105.625695"><ele>972.8</ele><time>2025-11-22T00:11:32.000Z</time></trkpt>
        <trkpt lat="28.022715" lon="105.625695"><ele>972.8</ele><time>2025-11-22T00:11:33.000Z</time></trkpt>
        <trkpt lat="28.022716" lon="105.625693"><ele>972.8</ele><time>2025-11-22T00:11:34.000Z</time></trkpt>
        <trkpt lat="28.022718" lon="105.625691"><ele>972.8</ele><time>2025-11-22T00:11:35.000Z</time></trkpt>
        <trkpt lat="28.02272" lon="105.625688"><ele>972.8</ele><time>2025-11-22T00:11:36.000Z</time></trkpt>
        <trkpt lat="28.022721" lon="105.625684"><ele>972.3</ele><time>2025-11-22T00:11:37.000Z</time></trkpt>
        <trkpt lat="28.022721" lon="105.625679"><ele>972.3</ele><time>2025-11-22T00:11:38.000Z</time></trkpt>
        <trkpt lat="28.022719" lon="105.625674"><ele>972.3</ele><time>2025-11-22T00:11:39.000Z</time></trkpt>
        <trkpt lat="28.022718" lon="105.625671"><ele>972.3</ele><time>2025-11-22T00:11:40.000Z</time></trkpt>
        <trkpt lat="28.022718" lon="105.625667"><ele>972.3</ele><time>2025-11-22T00:11:41.000Z</time></trkpt>
        <trkpt lat="28.022718" lon="105.625665"><ele>972</ele><time>2025-11-22T00:11:42.000Z</time></trkpt>
        <trkpt lat="28.022719" lon="105.625663"><ele>972</ele><time>2025-11-22T00:11:43.000Z</time></trkpt>
        <trkpt lat="28.022721" lon="105.625661"><ele>972</ele><time>2025-11-22T00:11:44.000Z</time></trkpt>
        <trkpt lat="28.02272" lon="105.625659"><ele>972</ele><time>2025-11-22T00:11:45.000Z</time></trkpt>
        <trkpt lat="28.02272" lon="105.625655"><ele>972</ele><time>2025-11-22T00:11:46.000Z</time></trkpt>
        <trkpt lat="28.02272" lon="105.625652"><ele>971.1</ele><time>2025-11-22T00:11:47.000Z</time></trkpt>
        <trkpt lat="28.022719" lon="105.625648"><ele>971.1</ele><time>2025-11-22T00:11:48.000Z</time></trkpt>
        <trkpt lat="28.022718" lon="105.625646"><ele>971.1</ele><time>2025-11-22T00:11:49.000Z</time></trkpt>
        <trkpt lat="28.022719" lon="105.625645"><ele>971.1</ele><time>2025-11-22T00:11:50.000Z</time></trkpt>
        <trkpt lat="28.022719" lon="105.625645"><ele>971.1</ele><time>2025-11-22T00:11:51.000Z</time></trkpt>
        <trkpt lat="28.02272" lon="105.625646"><ele>970.6</ele><time>2025-11-22T00:11:52.000Z</time></trkpt>
        <trkpt lat="28.022723" lon="105.625646"><ele>970.6</ele><time>2025-11-22T00:11:53.000Z</time></trkpt>
        <trkpt lat="28.022725" lon="105.625645"><ele>970.6</ele><time>2025-11-22T00:11:54.000Z</time></trkpt>
        <trkpt lat="28.022729" lon="105.625645"><ele>970.6</ele><time>2025-11-22T00:11:55.000Z</time></trkpt>
        <trkpt lat="28.022732" lon="105.625643"><ele>970.6</ele><time>2025-11-22T00:11:56.000Z</time></trkpt>
        <trkpt lat="28.022735" lon="105.625641"><ele>970.4</ele><time>2025-11-22T00:11:57.000Z</time></trkpt>
        <trkpt lat="28.022737" lon="105.62564"><ele>970.4</ele><time>2025-11-22T00:11:58.000Z</time></trkpt>
        <trkpt lat="28.02274" lon="105.62564"><ele>970.4</ele><time>2025-11-22T00:11:59.000Z</time></trkpt>
        <trkpt lat="28.022742" lon="105.625639"><ele>970.4</ele><time>2025-11-22T00:12:00.000Z</time></trkpt>
        <trkpt lat="28.022744" lon="105.62564"><ele>970.4</ele><time>2025-11-22T00:12:01.000Z</time></trkpt>
        <trkpt lat="28.022746" lon="105.62564"><ele>970.4</ele><time>2025-11-22T00:12:02.000Z</time></trkpt>
        <trkpt lat="28.022747" lon="105.625641"><ele>970.4</ele><time>2025-11-22T00:12:03.000Z</time></trkpt>
        <trkpt lat="28.022748" lon="105.625641"><ele>970.4</ele><time>2025-11-22T00:12:04.000Z</time></trkpt>
        <trkpt lat="28.022749" lon="105.625642"><ele>970.4</ele><time>2025-11-22T00:12:05.000Z</time></trkpt>
        <trkpt lat="28.02275" lon="105.625641"><ele>970.4</ele><time>2025-11-22T00:12:06.000Z</time></trkpt>
        <trkpt lat="28.02275" lon="105.625641"><ele>970.6</ele><time>2025-11-22T00:12:07.000Z</time></trkpt>
        <trkpt lat="28.022751" lon="105.625638"><ele>970.6</ele><time>2025-11-22T00:12:08.000Z</time></trkpt>
        <trkpt lat="28.02275" lon="105.625635"><ele>970.6</ele><time>2025-11-22T00:12:09.000Z</time></trkpt>
        <trkpt lat="28.022751" lon="105.625631"><ele>970.6</ele><time>2025-11-22T00:12:10.000Z</time></trkpt>
        <trkpt lat="28.022752" lon="105.625627"><ele>970.6</ele><time>2025-11-22T00:12:11.000Z</time></trkpt>
        <trkpt lat="28.022755" lon="105.625623"><ele>970.9</ele><time>2025-11-22T00:12:12.000Z</time></trkpt>
        <trkpt lat="28.022759" lon="105.62562"><ele>970.9</ele><time>2025-11-22T00:12:13.000Z</time></trkpt>
        <trkpt lat="28.022765" lon="105.625617"><ele>970.9</ele><time>2025-11-22T00:12:14.000Z</time></trkpt>
        <trkpt lat="28.022771" lon="105.625616"><ele>970.9</ele><time>2025-11-22T00:12:15.000Z</time></trkpt>
        <trkpt lat="28.022778" lon="105.625615"><ele>970.9</ele><time>2025-11-22T00:12:16.000Z</time></trkpt>
        <trkpt lat="28.022784" lon="105.625614"><ele>970.7</ele><time>2025-11-22T00:12:17.000Z</time></trkpt>
        <trkpt lat="28.022788" lon="105.625613"><ele>970.7</ele><time>2025-11-22T00:12:18.000Z</time></trkpt>
        <trkpt lat="28.022791" lon="105.625613"><ele>970.7</ele><time>2025-11-22T00:12:19.000Z</time></trkpt>
        <trkpt lat="28.022792" lon="105.625613"><ele>970.7</ele><time>2025-11-22T00:12:20.000Z</time></trkpt>
        <trkpt lat="28.022792" lon="105.625613"><ele>970.7</ele><time>2025-11-22T00:12:21.000Z</time></trkpt>
        <trkpt lat="28.022791" lon="105.625613"><ele>970.5</ele><time>2025-11-22T00:12:22.000Z</time></trkpt>
        <trkpt lat="28.02279" lon="105.625614"><ele>970.5</ele><time>2025-11-22T00:12:23.000Z</time></trkpt>
        <trkpt lat="28.022789" lon="105.625615"><ele>970.5</ele><time>2025-11-22T00:12:24.000Z</time></trkpt>
        <trkpt lat="28.022788" lon="105.625616"><ele>970.5</ele><time>2025-11-22T00:12:25.000Z</time></trkpt>
        <trkpt lat="28.022788" lon="105.625615"><ele>970.5</ele><time>2025-11-22T00:12:26.000Z</time></trkpt>
        <trkpt lat="28.022789" lon="105.625615"><ele>970.3</ele><time>2025-11-22T00:12:27.000Z</time></trkpt>
        <trkpt lat="28.022791" lon="105.625614"><ele>970.3</ele><time>2025-11-22T00:12:28.000Z</time></trkpt>
        <trkpt lat="28.022793" lon="105.625613"><ele>970.3</ele><time>2025-11-22T00:12:29.000Z</time></trkpt>
        <trkpt lat="28.022796" lon="105.625613"><ele>970.3</ele><time>2025-11-22T00:12:30.000Z</time></trkpt>
        <trkpt lat="28.022797" lon="105.625614"><ele>970.3</ele><time>2025-11-22T00:12:31.000Z</time></trkpt>
        <trkpt lat="28.022796" lon="105.625616"><ele>970.3</ele><time>2025-11-22T00:12:32.000Z</time></trkpt>
        <trkpt lat="28.022797" lon="105.625617"><ele>970.3</ele><time>2025-11-22T00:12:33.000Z</time></trkpt>
        <trkpt lat="28.022795" lon="105.625617"><ele>970.3</ele><time>2025-11-22T00:12:34.000Z</time></trkpt>
        <trkpt lat="28.022793" lon="105.625616"><ele>970.3</ele><time>2025-11-22T00:12:35.000Z</time></trkpt>
        <trkpt lat="28.022791" lon="105.625616"><ele>970.3</ele><time>2025-11-22T00:12:36.000Z</time></trkpt>
        <trkpt lat="28.02279" lon="105.625614"><ele>970.3</ele><time>2025-11-22T00:12:37.000Z</time></trkpt>
        <trkpt lat="28.022788" lon="105.625613"><ele>970.3</ele><time>2025-11-22T00:12:38.000Z</time></trkpt>
        <trkpt lat="28.022786" lon="105.625612"><ele>970.3</ele><time>2025-11-22T00:12:39.000Z</time></trkpt>
        <trkpt lat="28.022785" lon="105.625611"><ele>970.3</ele><time>2025-11-22T00:12:40.000Z</time></trkpt>
        <trkpt lat="28.022782" lon="105.625613"><ele>970.3</ele><time>2025-11-22T00:12:41.000Z</time></trkpt>
        <trkpt lat="28.022788" lon="105.625607"><ele>970.3</ele><time>2025-11-22T00:12:42.000Z</time></trkpt>
        <trkpt lat="28.022815" lon="105.625577"><ele>970.3</ele><time>2025-11-22T00:12:46.000Z</time></trkpt>
        <trkpt lat="28.022829" lon="105.625563"><ele>970.1</ele><time>2025-11-22T00:12:47.000Z</time></trkpt>
        <trkpt lat="28.022829" lon="105.625563"><ele>970.1</ele><time>2025-11-22T00:12:48.000Z</time></trkpt>
        <trkpt lat="28.022829" lon="105.625539"><ele>970.1</ele><time>2025-11-22T00:12:54.000Z</time></trkpt>
        <trkpt lat="28.022838" lon="105.625528"><ele>970.1</ele><time>2025-11-22T00:12:55.000Z</time></trkpt>
        <trkpt lat="28.022846" lon="105.625516"><ele>970.1</ele><time>2025-11-22T00:12:56.000Z</time></trkpt>
        <trkpt lat="28.022855" lon="105.625503"><ele>970.3</ele><time>2025-11-22T00:12:57.000Z</time></trkpt>
        <trkpt lat="28.022864" lon="105.625486"><ele>970.3</ele><time>2025-11-22T00:12:58.000Z</time></trkpt>
        <trkpt lat="28.022873" lon="105.625468"><ele>970.3</ele><time>2025-11-22T00:12:59.000Z</time></trkpt>
        <trkpt lat="28.022881" lon="105.625451"><ele>970.3</ele><time>2025-11-22T00:13:00.000Z</time></trkpt>
        <trkpt lat="28.02288" lon="105.625439"><ele>970.3</ele><time>2025-11-22T00:13:01.000Z</time></trkpt>
        <trkpt lat="28.022879" lon="105.625425"><ele>970.3</ele><time>2025-11-22T00:13:02.000Z</time></trkpt>
        <trkpt lat="28.022873" lon="105.625418"><ele>970.3</ele><time>2025-11-22T00:13:03.000Z</time></trkpt>
        <trkpt lat="28.022866" lon="105.625413"><ele>970.3</ele><time>2025-11-22T00:13:05.000Z</time></trkpt>
        <trkpt lat="28.022859" lon="105.62541"><ele>970.3</ele><time>2025-11-22T00:13:06.000Z</time></trkpt>
        <trkpt lat="28.022859" lon="105.625401"><ele>970.6</ele><time>2025-11-22T00:13:07.000Z</time></trkpt>
        <trkpt lat="28.02286" lon="105.625392"><ele>970.6</ele><time>2025-11-22T00:13:08.000Z</time></trkpt>
        <trkpt lat="28.022864" lon="105.625381"><ele>970.6</ele><time>2025-11-22T00:13:09.000Z</time></trkpt>
        <trkpt lat="28.022868" lon="105.625371"><ele>970.6</ele><time>2025-11-22T00:13:10.000Z</time></trkpt>
        <trkpt lat="28.022871" lon="105.625365"><ele>970.6</ele><time>2025-11-22T00:13:11.000Z</time></trkpt>
        <trkpt lat="28.022872" lon="105.625361"><ele>971.2</ele><time>2025-11-22T00:13:12.000Z</time></trkpt>
        <trkpt lat="28.022868" lon="105.625374"><ele>971.2</ele><time>2025-11-22T00:13:13.000Z</time></trkpt>
        <trkpt lat="28.022852" lon="105.625387"><ele>972.6</ele><time>2025-11-22T00:13:17.000Z</time></trkpt>
        <trkpt lat="28.022856" lon="105.625377"><ele>972.6</ele><time>2025-11-22T00:13:18.000Z</time></trkpt>
        <trkpt lat="28.022911" lon="105.625342"><ele>972.6</ele><time>2025-11-22T00:13:19.000Z</time></trkpt>
        <trkpt lat="28.022933" lon="105.625329"><ele>972.6</ele><time>2025-11-22T00:13:20.000Z</time></trkpt>
        <trkpt lat="28.022955" lon="105.625317"><ele>972.6</ele><time>2025-11-22T00:13:21.000Z</time></trkpt>
        <trkpt lat="28.022961" lon="105.625317"><ele>973.9</ele><time>2025-11-22T00:13:22.000Z</time></trkpt>
        <trkpt lat="28.022963" lon="105.625318"><ele>973.9</ele><time>2025-11-22T00:13:23.000Z</time></trkpt>
        <trkpt lat="28.022963" lon="105.625322"><ele>973.9</ele><time>2025-11-22T00:13:24.000Z</time></trkpt>
        <trkpt lat="28.022969" lon="105.625315"><ele>973.9</ele><time>2025-11-22T00:13:25.000Z</time></trkpt>
        <trkpt lat="28.022917" lon="105.625193"><ele>975.3</ele><time>2025-11-22T00:16:42.000Z</time></trkpt>
        <trkpt lat="28.022914" lon="105.625194"><ele>976.5</ele><time>2025-11-22T00:16:43.000Z</time></trkpt>
        <trkpt lat="28.022903" lon="105.625192"><ele>977.6</ele><time>2025-11-22T00:16:44.000Z</time></trkpt>
        <trkpt lat="28.022898" lon="105.625189"><ele>978.6</ele><time>2025-11-22T00:16:45.000Z</time></trkpt>
        <trkpt lat="28.022892" lon="105.625185"><ele>979.6</ele><time>2025-11-22T00:16:46.000Z</time></trkpt>
        <trkpt lat="28.022888" lon="105.625178"><ele>980.2</ele><time>2025-11-22T00:16:47.000Z</time></trkpt>
        <trkpt lat="28.022887" lon="105.625171"><ele>981.2</ele><time>2025-11-22T00:16:48.000Z</time></trkpt>
        <trkpt lat="28.022888" lon="105.625164"><ele>982.2</ele><time>2025-11-22T00:16:49.000Z</time></trkpt>
        <trkpt lat="28.022891" lon="105.625158"><ele>983.5</ele><time>2025-11-22T00:16:50.000Z</time></trkpt>
        <trkpt lat="28.022894" lon="105.625153"><ele>984.8</ele><time>2025-11-22T00:16:51.000Z</time></trkpt>
        <trkpt lat="28.022897" lon="105.625148"><ele>985.5</ele><time>2025-11-22T00:16:52.000Z</time></trkpt>
        <trkpt lat="28.022899" lon="105.625148"><ele>985.7</ele><time>2025-11-22T00:16:53.000Z</time></trkpt>
        <trkpt lat="28.022899" lon="105.625148"><ele>986</ele><time>2025-11-22T00:16:54.000Z</time></trkpt>
        <trkpt lat="28.022896" lon="105.625149"><ele>986.7</ele><time>2025-11-22T00:16:55.000Z</time></trkpt>
        <trkpt lat="28.022892" lon="105.62515"><ele>987.5</ele><time>2025-11-22T00:16:56.000Z</time></trkpt>
        <trkpt lat="28.022887" lon="105.625152"><ele>988.5</ele><time>2025-11-22T00:16:57.000Z</time></trkpt>
        <trkpt lat="28.022879" lon="105.625154"><ele>989.1</ele><time>2025-11-22T00:16:58.000Z</time></trkpt>
        <trkpt lat="28.022872" lon="105.625158"><ele>989.3</ele><time>2025-11-22T00:16:59.000Z</time></trkpt>
        <trkpt lat="28.022864" lon="105.62518"><ele>989.5</ele><time>2025-11-22T00:17:00.000Z</time></trkpt>
        <trkpt lat="28.022859" lon="105.625202"><ele>989.5</ele><time>2025-11-22T00:17:01.000Z</time></trkpt>
        <trkpt lat="28.022856" lon="105.625221"><ele>989.5</ele><time>2025-11-22T00:17:02.000Z</time></trkpt>
        <trkpt lat="28.022855" lon="105.625241"><ele>989.5</ele><time>2025-11-22T00:17:03.000Z</time></trkpt>
        <trkpt lat="28.022855" lon="105.625259"><ele>989.8</ele><time>2025-11-22T00:17:04.000Z</time></trkpt>
        <trkpt lat="28.022856" lon="105.625259"><ele>990</ele><time>2025-11-22T00:17:05.000Z</time></trkpt>
        <trkpt lat="28.022857" lon="105.625259"><ele>990</ele><time>2025-11-22T00:17:06.000Z</time></trkpt>
        <trkpt lat="28.022854" lon="105.625262"><ele>990.2</ele><time>2025-11-22T00:17:07.000Z</time></trkpt>
        <trkpt lat="28.022849" lon="105.625263"><ele>990.7</ele><time>2025-11-22T00:17:08.000Z</time></trkpt>
        <trkpt lat="28.022845" lon="105.625264"><ele>991.7</ele><time>2025-11-22T00:17:09.000Z</time></trkpt>
        <trkpt lat="28.022839" lon="105.625263"><ele>992.2</ele><time>2025-11-22T00:17:10.000Z</time></trkpt>
        <trkpt lat="28.022833" lon="105.625263"><ele>992.2</ele><time>2025-11-22T00:17:11.000Z</time></trkpt>
        <trkpt lat="28.022829" lon="105.625262"><ele>991.6</ele><time>2025-11-22T00:17:12.000Z</time></trkpt>
        <trkpt lat="28.022825" lon="105.62526"><ele>990.7</ele><time>2025-11-22T00:17:13.000Z</time></trkpt>
        <trkpt lat="28.022821" lon="105.625258"><ele>990.5</ele><time>2025-11-22T00:17:14.000Z</time></trkpt>
        <trkpt lat="28.022817" lon="105.625258"><ele>991.3</ele><time>2025-11-22T00:17:15.000Z</time></trkpt>
        <trkpt lat="28.022811" lon="105.625256"><ele>992.7</ele><time>2025-11-22T00:17:16.000Z</time></trkpt>
        <trkpt lat="28.022804" lon="105.625253"><ele>994.2</ele><time>2025-11-22T00:17:17.000Z</time></trkpt>
        <trkpt lat="28.022798" lon="105.625253"><ele>995.6</ele><time>2025-11-22T00:17:18.000Z</time></trkpt>
        <trkpt lat="28.022791" lon="105.625252"><ele>996.9</ele><time>2025-11-22T00:17:19.000Z</time></trkpt>
        <trkpt lat="28.022784" lon="105.62525"><ele>998.1</ele><time>2025-11-22T00:17:20.000Z</time></trkpt>
        <trkpt lat="28.022778" lon="105.625246"><ele>999.1</ele><time>2025-11-22T00:17:21.000Z</time></trkpt>
        <trkpt lat="28.022771" lon="105.625242"><ele>999.7</ele><time>2025-11-22T00:17:22.000Z</time></trkpt>
        <trkpt lat="28.022764" lon="105.625237"><ele>1000.9</ele><time>2025-11-22T00:17:23.000Z</time></trkpt>
        <trkpt lat="28.022758" lon="105.625231"><ele>1002</ele><time>2025-11-22T00:17:24.000Z</time></trkpt>
        <trkpt lat="28.022752" lon="105.625225"><ele>1003.1</ele><time>2025-11-22T00:17:25.000Z</time></trkpt>
        <trkpt lat="28.022746" lon="105.625223"><ele>1004.2</ele><time>2025-11-22T00:17:26.000Z</time></trkpt>
        <trkpt lat="28.02274" lon="105.625221"><ele>1005.3</ele><time>2025-11-22T00:17:27.000Z</time></trkpt>
        <trkpt lat="28.022735" lon="105.62522"><ele>1006.5</ele><time>2025-11-22T00:17:28.000Z</time></trkpt>
        <trkpt lat="28.022729" lon="105.625219"><ele>1007.7</ele><time>2025-11-22T00:17:29.000Z</time></trkpt>
        <trkpt lat="28.022724" lon="105.625219"><ele>1008.8</ele><time>2025-11-22T00:17:30.000Z</time></trkpt>
        <trkpt lat="28.022721" lon="105.625219"><ele>1008.8</ele><time>2025-11-22T00:17:31.000Z</time></trkpt>
        <trkpt lat="28.022719" lon="105.625218"><ele>1009.8</ele><time>2025-11-22T00:17:32.000Z</time></trkpt>
        <trkpt lat="28.022718" lon="105.625217"><ele>1009.8</ele><time>2025-11-22T00:17:33.000Z</time></trkpt>
        <trkpt lat="28.022718" lon="105.625215"><ele>1009.8</ele><time>2025-11-22T00:17:34.000Z</time></trkpt>
        <trkpt lat="28.022719" lon="105.625213"><ele>1009.8</ele><time>2025-11-22T00:17:35.000Z</time></trkpt>
        <trkpt lat="28.02272" lon="105.625211"><ele>1009.8</ele><time>2025-11-22T00:17:36.000Z</time></trkpt>
        <trkpt lat="28.022721" lon="105.625208"><ele>1010.4</ele><time>2025-11-22T00:17:37.000Z</time></trkpt>
        <trkpt lat="28.022721" lon="105.625206"><ele>1010.4</ele><time>2025-11-22T00:17:38.000Z</time></trkpt>
        <trkpt lat="28.022722" lon="105.625205"><ele>1010.4</ele><time>2025-11-22T00:17:39.000Z</time></trkpt>
        <trkpt lat="28.022721" lon="105.625203"><ele>1010.4</ele><time>2025-11-22T00:17:40.000Z</time></trkpt>
        <trkpt lat="28.022721" lon="105.625202"><ele>1010.4</ele><time>2025-11-22T00:17:41.000Z</time></trkpt>
        <trkpt lat="28.02272" lon="105.625201"><ele>1010.9</ele><time>2025-11-22T00:17:42.000Z</time></trkpt>
        <trkpt lat="28.022717" lon="105.6252"><ele>1010.9</ele><time>2025-11-22T00:17:43.000Z</time></trkpt>
        <trkpt lat="28.022713" lon="105.625199"><ele>1010.9</ele><time>2025-11-22T00:17:44.000Z</time></trkpt>
        <trkpt lat="28.022709" lon="105.625197"><ele>1010.9</ele><time>2025-11-22T00:17:45.000Z</time></trkpt>
        <trkpt lat="28.022704" lon="105.625196"><ele>1010.9</ele><time>2025-11-22T00:17:46.000Z</time></trkpt>
        <trkpt lat="28.022698" lon="105.625194"><ele>1010.9</ele><time>2025-11-22T00:17:47.000Z</time></trkpt>
        <trkpt lat="28.022694" lon="105.625194"><ele>1010.9</ele><time>2025-11-22T00:17:48.000Z</time></trkpt>
        <trkpt lat="28.02269" lon="105.625193"><ele>1010.9</ele><time>2025-11-22T00:17:49.000Z</time></trkpt>
        <trkpt lat="28.022686" lon="105.625193"><ele>1010.9</ele><time>2025-11-22T00:17:50.000Z</time></trkpt>
        <trkpt lat="28.022682" lon="105.625193"><ele>1010.9</ele><time>2025-11-22T00:17:51.000Z</time></trkpt>
        <trkpt lat="28.022679" lon="105.625192"><ele>1011.3</ele><time>2025-11-22T00:17:52.000Z</time></trkpt>
        <trkpt lat="28.022677" lon="105.62519"><ele>1011.3</ele><time>2025-11-22T00:17:53.000Z</time></trkpt>
        <trkpt lat="28.022674" lon="105.625186"><ele>1011.3</ele><time>2025-11-22T00:17:54.000Z</time></trkpt>
        <trkpt lat="28.022673" lon="105.625184"><ele>1011.3</ele><time>2025-11-22T00:17:55.000Z</time></trkpt>
        <trkpt lat="28.022671" lon="105.625181"><ele>1011.3</ele><time>2025-11-22T00:17:56.000Z</time></trkpt>
        <trkpt lat="28.022669" lon="105.625179"><ele>1011.8</ele><time>2025-11-22T00:17:57.000Z</time></trkpt>
        <trkpt lat="28.022667" lon="105.625178"><ele>1011.8</ele><time>2025-11-22T00:17:58.000Z</time></trkpt>
        <trkpt lat="28.022665" lon="105.625178"><ele>1011.8</ele><time>2025-11-22T00:17:59.000Z</time></trkpt>
        <trkpt lat="28.022661" lon="105.625178"><ele>1011.8</ele><time>2025-11-22T00:18:00.000Z</time></trkpt>
        <trkpt lat="28.022657" lon="105.625177"><ele>1011.8</ele><time>2025-11-22T00:18:01.000Z</time></trkpt>
        <trkpt lat="28.022653" lon="105.625176"><ele>1012.8</ele><time>2025-11-22T00:18:02.000Z</time></trkpt>
        <trkpt lat="28.022649" lon="105.625173"><ele>1012.8</ele><time>2025-11-22T00:18:03.000Z</time></trkpt>
        <trkpt lat="28.022645" lon="105.625171"><ele>1012.8</ele><time>2025-11-22T00:18:04.000Z</time></trkpt>
        <trkpt lat="28.022642" lon="105.62517"><ele>1012.8</ele><time>2025-11-22T00:18:05.000Z</time></trkpt>
        <trkpt lat="28.022639" lon="105.625168"><ele>1012.8</ele><time>2025-11-22T00:18:06.000Z</time></trkpt>
        <trkpt lat="28.022637" lon="105.625165"><ele>1013.7</ele><time>2025-11-22T00:18:07.000Z</time></trkpt>
        <trkpt lat="28.022635" lon="105.625163"><ele>1013.7</ele><time>2025-11-22T00:18:08.000Z</time></trkpt>
        <trkpt lat="28.022632" lon="105.625161"><ele>1013.7</ele><time>2025-11-22T00:18:09.000Z</time></trkpt>
        <trkpt lat="28.022629" lon="105.625159"><ele>1013.7</ele><time>2025-11-22T00:18:10.000Z</time></trkpt>
        <trkpt lat="28.022627" lon="105.625158"><ele>1013.7</ele><time>2025-11-22T00:18:11.000Z</time></trkpt>
        <trkpt lat="28.022623" lon="105.625157"><ele>1014.8</ele><time>2025-11-22T00:18:12.000Z</time></trkpt>
        <trkpt lat="28.022619" lon="105.625156"><ele>1014.8</ele><time>2025-11-22T00:18:13.000Z</time></trkpt>
        <trkpt lat="28.022615" lon="105.625154"><ele>1014.8</ele><time>2025-11-22T00:18:14.000Z</time></trkpt>
        <trkpt lat="28.022611" lon="105.625152"><ele>1014.8</ele><time>2025-11-22T00:18:15.000Z</time></trkpt>
        <trkpt lat="28.022607" lon="105.625147"><ele>1014.8</ele><time>2025-11-22T00:18:16.000Z</time></trkpt>
        <trkpt lat="28.022602" lon="105.625141"><ele>1016.1</ele><time>2025-11-22T00:18:17.000Z</time></trkpt>
        <trkpt lat="28.022598" lon="105.625133"><ele>1016.1</ele><time>2025-11-22T00:18:18.000Z</time></trkpt>
        <trkpt lat="28.022593" lon="105.625125"><ele>1016.1</ele><time>2025-11-22T00:18:19.000Z</time></trkpt>
        <trkpt lat="28.022588" lon="105.625118"><ele>1016.1</ele><time>2025-11-22T00:18:20.000Z</time></trkpt>
        <trkpt lat="28.022583" lon="105.625111"><ele>1016.1</ele><time>2025-11-22T00:18:21.000Z</time></trkpt>
        <trkpt lat="28.022577" lon="105.625105"><ele>1017.2</ele><time>2025-11-22T00:18:22.000Z</time></trkpt>
        <trkpt lat="28.022571" lon="105.625101"><ele>1017.2</ele><time>2025-11-22T00:18:23.000Z</time></trkpt>
        <trkpt lat="28.022564" lon="105.625097"><ele>1017.2</ele><time>2025-11-22T00:18:24.000Z</time></trkpt>
        <trkpt lat="28.022557" lon="105.625095"><ele>1017.2</ele><time>2025-11-22T00:18:25.000Z</time></trkpt>
        <trkpt lat="28.02255" lon="105.625093"><ele>1017.2</ele><time>2025-11-22T00:18:26.000Z</time></trkpt>
        <trkpt lat="28.022542" lon="105.62509"><ele>1018.2</ele><time>2025-11-22T00:18:27.000Z</time></trkpt>
        <trkpt lat="28.022535" lon="105.625088"><ele>1018.2</ele><time>2025-11-22T00:18:28.000Z</time></trkpt>
        <trkpt lat="28.02253" lon="105.625085"><ele>1018.2</ele><time>2025-11-22T00:18:29.000Z</time></trkpt>
        <trkpt lat="28.022525" lon="105.62508"><ele>1018.2</ele><time>2025-11-22T00:18:30.000Z</time></trkpt>
        <trkpt lat="28.022521" lon="105.625074"><ele>1018.2</ele><time>2025-11-22T00:18:31.000Z</time></trkpt>
        <trkpt lat="28.022517" lon="105.625068"><ele>1018.8</ele><time>2025-11-22T00:18:32.000Z</time></trkpt>
        <trkpt lat="28.022514" lon="105.625062"><ele>1018.8</ele><time>2025-11-22T00:18:33.000Z</time></trkpt>
        <trkpt lat="28.022511" lon="105.625058"><ele>1018.8</ele><time>2025-11-22T00:18:34.000Z</time></trkpt>
        <trkpt lat="28.022508" lon="105.625053"><ele>1018.8</ele><time>2025-11-22T00:18:35.000Z</time></trkpt>
        <trkpt lat="28.022505" lon="105.625048"><ele>1018.8</ele><time>2025-11-22T00:18:36.000Z</time></trkpt>
        <trkpt lat="28.022502" lon="105.625043"><ele>1019.5</ele><time>2025-11-22T00:18:37.000Z</time></trkpt>
        <trkpt lat="28.022498" lon="105.625037"><ele>1019.5</ele><time>2025-11-22T00:18:38.000Z</time></trkpt>
        <trkpt lat="28.022495" lon="105.625031"><ele>1019.5</ele><time>2025-11-22T00:18:39.000Z</time></trkpt>
        <trkpt lat="28.022491" lon="105.625025"><ele>1019.5</ele><time>2025-11-22T00:18:40.000Z</time></trkpt>
        <trkpt lat="28.022486" lon="105.62502"><ele>1019.5</ele><time>2025-11-22T00:18:41.000Z</time></trkpt>
        <trkpt lat="28.022482" lon="105.625015"><ele>1020</ele><time>2025-11-22T00:18:42.000Z</time></trkpt>
        <trkpt lat="28.022477" lon="105.625009"><ele>1020</ele><time>2025-11-22T00:18:43.000Z</time></trkpt>
        <trkpt lat="28.022471" lon="105.625003"><ele>1020</ele><time>2025-11-22T00:18:44.000Z</time></trkpt>
        <trkpt lat="28.022466" lon="105.624995"><ele>1020</ele><time>2025-11-22T00:18:45.000Z</time></trkpt>
        <trkpt lat="28.022462" lon="105.624988"><ele>1020</ele><time>2025-11-22T00:18:46.000Z</time></trkpt>
        <trkpt lat="28.022457" lon="105.624982"><ele>1020.8</ele><time>2025-11-22T00:18:47.000Z</time></trkpt>
        <trkpt lat="28.022453" lon="105.624976"><ele>1020.8</ele><time>2025-11-22T00:18:48.000Z</time></trkpt>
        <trkpt lat="28.022448" lon="105.624971"><ele>1020.8</ele><time>2025-11-22T00:18:49.000Z</time></trkpt>
        <trkpt lat="28.022444" lon="105.624967"><ele>1020.8</ele><time>2025-11-22T00:18:50.000Z</time></trkpt>
        <trkpt lat="28.02244" lon="105.624964"><ele>1020.8</ele><time>2025-11-22T00:18:51.000Z</time></trkpt>
        <trkpt lat="28.022436" lon="105.624959"><ele>1021.4</ele><time>2025-11-22T00:18:52.000Z</time></trkpt>
        <trkpt lat="28.022431" lon="105.624955"><ele>1021.4</ele><time>2025-11-22T00:18:53.000Z</time></trkpt>
        <trkpt lat="28.022427" lon="105.624952"><ele>1021.4</ele><time>2025-11-22T00:18:54.000Z</time></trkpt>
        <trkpt lat="28.022423" lon="105.624948"><ele>1021.4</ele><time>2025-11-22T00:18:55.000Z</time></trkpt>
        <trkpt lat="28.022418" lon="105.624945"><ele>1021.4</ele><time>2025-11-22T00:18:56.000Z</time></trkpt>
        <trkpt lat="28.022414" lon="105.624943"><ele>1022.3</ele><time>2025-11-22T00:18:57.000Z</time></trkpt>
        <trkpt lat="28.022411" lon="105.624941"><ele>1022.3</ele><time>2025-11-22T00:18:58.000Z</time></trkpt>
        <trkpt lat="28.022406" lon="105.624938"><ele>1022.3</ele><time>2025-11-22T00:18:59.000Z</time></trkpt>
        <trkpt lat="28.022402" lon="105.624935"><ele>1022.3</ele><time>2025-11-22T00:19:00.000Z</time></trkpt>
        <trkpt lat="28.022398" lon="105.62493"><ele>1022.3</ele><time>2025-11-22T00:19:01.000Z</time></trkpt>
        <trkpt lat="28.022394" lon="105.624926"><ele>1023</ele><time>2025-11-22T00:19:02.000Z</time></trkpt>
        <trkpt lat="28.022389" lon="105.624921"><ele>1023</ele><time>2025-11-22T00:19:03.000Z</time></trkpt>
        <trkpt lat="28.022385" lon="105.624916"><ele>1023</ele><time>2025-11-22T00:19:04.000Z</time></trkpt>
        <trkpt lat="28.02238" lon="105.624911"><ele>1023</ele><time>2025-11-22T00:19:05.000Z</time></trkpt>
        <trkpt lat="28.022375" lon="105.624905"><ele>1023</ele><time>2025-11-22T00:19:06.000Z</time></trkpt>
        <trkpt lat="28.02237" lon="105.6249"><ele>1024</ele><time>2025-11-22T00:19:07.000Z</time></trkpt>
        <trkpt lat="28.022365" lon="105.624895"><ele>1024</ele><time>2025-11-22T00:19:08.000Z</time></trkpt>
        <trkpt lat="28.022361" lon="105.624889"><ele>1024</ele><time>2025-11-22T00:19:09.000Z</time></trkpt>
        <trkpt lat="28.022357" lon="105.624882"><ele>1024</ele><time>2025-11-22T00:19:10.000Z</time></trkpt>
        <trkpt lat="28.022353" lon="105.624876"><ele>1024</ele><time>2025-11-22T00:19:11.000Z</time></trkpt>
        <trkpt lat="28.02235" lon="105.624867"><ele>1024.8</ele><time>2025-11-22T00:19:12.000Z</time></trkpt>
        <trkpt lat="28.022347" lon="105.624859"><ele>1024.8</ele><time>2025-11-22T00:19:13.000Z</time></trkpt>
        <trkpt lat="28.022344" lon="105.624851"><ele>1024.8</ele><time>2025-11-22T00:19:14.000Z</time></trkpt>
        <trkpt lat="28.022341" lon="105.624843"><ele>1024.8</ele><time>2025-11-22T00:19:15.000Z</time></trkpt>
        <trkpt lat="28.022337" lon="105.624836"><ele>1024.8</ele><time>2025-11-22T00:19:16.000Z</time></trkpt>
        <trkpt lat="28.022335" lon="105.624829"><ele>1025.9</ele><time>2025-11-22T00:19:17.000Z</time></trkpt>
        <trkpt lat="28.022332" lon="105.62482"><ele>1025.9</ele><time>2025-11-22T00:19:18.000Z</time></trkpt>
        <trkpt lat="28.022328" lon="105.624812"><ele>1025.9</ele><time>2025-11-22T00:19:19.000Z</time></trkpt>
        <trkpt lat="28.022325" lon="105.624804"><ele>1025.9</ele><time>2025-11-22T00:19:20.000Z</time></trkpt>
        <trkpt lat="28.022321" lon="105.624797"><ele>1025.9</ele><time>2025-11-22T00:19:21.000Z</time></trkpt>
        <trkpt lat="28.022318" lon="105.62479"><ele>1026.6</ele><time>2025-11-22T00:19:22.000Z</time></trkpt>
        <trkpt lat="28.022314" lon="105.624783"><ele>1026.6</ele><time>2025-11-22T00:19:23.000Z</time></trkpt>
        <trkpt lat="28.02231" lon="105.624777"><ele>1026.6</ele><time>2025-11-22T00:19:24.000Z</time></trkpt>
        <trkpt lat="28.022307" lon="105.62477"><ele>1026.6</ele><time>2025-11-22T00:19:25.000Z</time></trkpt>
        <trkpt lat="28.022305" lon="105.624762"><ele>1026.6</ele><time>2025-11-22T00:19:26.000Z</time></trkpt>
        <trkpt lat="28.022302" lon="105.624755"><ele>1027.6</ele><time>2025-11-22T00:19:27.000Z</time></trkpt>
        <trkpt lat="28.0223" lon="105.624748"><ele>1027.6</ele><time>2025-11-22T00:19:28.000Z</time></trkpt>
        <trkpt lat="28.022297" lon="105.624739"><ele>1027.6</ele><time>2025-11-22T00:19:29.000Z</time></trkpt>
        <trkpt lat="28.022294" lon="105.624732"><ele>1027.6</ele><time>2025-11-22T00:19:30.000Z</time></trkpt>
        <trkpt lat="28.02229" lon="105.624724"><ele>1027.6</ele><time>2025-11-22T00:19:31.000Z</time></trkpt>
        <trkpt lat="28.022285" lon="105.624717"><ele>1028.2</ele><time>2025-11-22T00:19:32.000Z</time></trkpt>
        <trkpt lat="28.02228" lon="105.62471"><ele>1028.2</ele><time>2025-11-22T00:19:33.000Z</time></trkpt>
        <trkpt lat="28.022277" lon="105.624702"><ele>1028.2</ele><time>2025-11-22T00:19:34.000Z</time></trkpt>
        <trkpt lat="28.022274" lon="105.624694"><ele>1028.2</ele><time>2025-11-22T00:19:35.000Z</time></trkpt>
        <trkpt lat="28.022273" lon="105.624687"><ele>1028.2</ele><time>2025-11-22T00:19:36.000Z</time></trkpt>
        <trkpt lat="28.022272" lon="105.62468"><ele>1029.1</ele><time>2025-11-22T00:19:37.000Z</time></trkpt>
        <trkpt lat="28.022272" lon="105.624674"><ele>1029.1</ele><time>2025-11-22T00:19:38.000Z</time></trkpt>
        <trkpt lat="28.022271" lon="105.624669"><ele>1029.1</ele><time>2025-11-22T00:19:39.000Z</time></trkpt>
        <trkpt lat="28.022269" lon="105.624664"><ele>1029.1</ele><time>2025-11-22T00:19:40.000Z</time></trkpt>
        <trkpt lat="28.022267" lon="105.624658"><ele>1029.1</ele><time>2025-11-22T00:19:41.000Z</time></trkpt>
        <trkpt lat="28.022265" lon="105.624653"><ele>1029.7</ele><time>2025-11-22T00:19:42.000Z</time></trkpt>
        <trkpt lat="28.022262" lon="105.624646"><ele>1029.7</ele><time>2025-11-22T00:19:43.000Z</time></trkpt>
        <trkpt lat="28.022259" lon="105.624639"><ele>1029.7</ele><time>2025-11-22T00:19:44.000Z</time></trkpt>
        <trkpt lat="28.022256" lon="105.624632"><ele>1029.7</ele><time>2025-11-22T00:19:45.000Z</time></trkpt>
        <trkpt lat="28.022253" lon="105.624625"><ele>1029.7</ele><time>2025-11-22T00:19:46.000Z</time></trkpt>
        <trkpt lat="28.02225" lon="105.624618"><ele>1030.6</ele><time>2025-11-22T00:19:47.000Z</time></trkpt>
        <trkpt lat="28.022247" lon="105.624611"><ele>1030.6</ele><time>2025-11-22T00:19:48.000Z</time></trkpt>
        <trkpt lat="28.022243" lon="105.624605"><ele>1030.6</ele><time>2025-11-22T00:19:49.000Z</time></trkpt>
        <trkpt lat="28.02224" lon="105.6246"><ele>1030.6</ele><time>2025-11-22T00:19:50.000Z</time></trkpt>
        <trkpt lat="28.022237" lon="105.624595"><ele>1030.6</ele><time>2025-11-22T00:19:51.000Z</time></trkpt>
        <trkpt lat="28.022235" lon="105.624588"><ele>1031.2</ele><time>2025-11-22T00:19:52.000Z</time></trkpt>
        <trkpt lat="28.022231" lon="105.624583"><ele>1031.2</ele><time>2025-11-22T00:19:53.000Z</time></trkpt>
        <trkpt lat="28.022228" lon="105.624576"><ele>1031.2</ele><time>2025-11-22T00:19:54.000Z</time></trkpt>
        <trkpt lat="28.022224" lon="105.624568"><ele>1031.2</ele><time>2025-11-22T00:19:55.000Z</time></trkpt>
        <trkpt lat="28.022219" lon="105.624562"><ele>1031.2</ele><time>2025-11-22T00:19:56.000Z</time></trkpt>
        <trkpt lat="28.022213" lon="105.624556"><ele>1032.1</ele><time>2025-11-22T00:19:57.000Z</time></trkpt>
        <trkpt lat="28.022207" lon="105.624551"><ele>1032.1</ele><time>2025-11-22T00:19:58.000Z</time></trkpt>
        <trkpt lat="28.0222" lon="105.624545"><ele>1032.1</ele><time>2025-11-22T00:19:59.000Z</time></trkpt>
        <trkpt lat="28.022194" lon="105.624539"><ele>1032.1</ele><time>2025-11-22T00:20:00.000Z</time></trkpt>
        <trkpt lat="28.022188" lon="105.624531"><ele>1032.1</ele><time>2025-11-22T00:20:01.000Z</time></trkpt>
        <trkpt lat="28.022182" lon="105.624524"><ele>1032.6</ele><time>2025-11-22T00:20:02.000Z</time></trkpt>
        <trkpt lat="28.022177" lon="105.624516"><ele>1032.6</ele><time>2025-11-22T00:20:03.000Z</time></trkpt>
        <trkpt lat="28.022171" lon="105.624509"><ele>1032.6</ele><time>2025-11-22T00:20:04.000Z</time></trkpt>
        <trkpt lat="28.022166" lon="105.624503"><ele>1032.6</ele><time>2025-11-22T00:20:05.000Z</time></trkpt>
        <trkpt lat="28.02216" lon="105.624498"><ele>1032.6</ele><time>2025-11-22T00:20:06.000Z</time></trkpt>
        <trkpt lat="28.022156" lon="105.624493"><ele>1033.4</ele><time>2025-11-22T00:20:07.000Z</time></trkpt>
        <trkpt lat="28.022152" lon="105.624487"><ele>1033.4</ele><time>2025-11-22T00:20:08.000Z</time></trkpt>
        <trkpt lat="28.022148" lon="105.624481"><ele>1033.4</ele><time>2025-11-22T00:20:09.000Z</time></trkpt>
        <trkpt lat="28.022144" lon="105.624473"><ele>1033.4</ele><time>2025-11-22T00:20:10.000Z</time></trkpt>
        <trkpt lat="28.02214" lon="105.624466"><ele>1033.4</ele><time>2025-11-22T00:20:11.000Z</time></trkpt>
        <trkpt lat="28.022138" lon="105.624457"><ele>1033.9</ele><time>2025-11-22T00:20:12.000Z</time></trkpt>
        <trkpt lat="28.022136" lon="105.624449"><ele>1033.9</ele><time>2025-11-22T00:20:13.000Z</time></trkpt>
        <trkpt lat="28.022134" lon="105.624442"><ele>1033.9</ele><time>2025-11-22T00:20:14.000Z</time></trkpt>
        <trkpt lat="28.022133" lon="105.624435"><ele>1033.9</ele><time>2025-11-22T00:20:15.000Z</time></trkpt>
        <trkpt lat="28.022131" lon="105.624429"><ele>1033.9</ele><time>2025-11-22T00:20:16.000Z</time></trkpt>
        <trkpt lat="28.022128" lon="105.624422"><ele>1034.7</ele><time>2025-11-22T00:20:17.000Z</time></trkpt>
        <trkpt lat="28.022124" lon="105.624416"><ele>1034.7</ele><time>2025-11-22T00:20:18.000Z</time></trkpt>
        <trkpt lat="28.022121" lon="105.624408"><ele>1034.7</ele><time>2025-11-22T00:20:19.000Z</time></trkpt>
        <trkpt lat="28.022117" lon="105.624401"><ele>1034.7</ele><time>2025-11-22T00:20:20.000Z</time></trkpt>
        <trkpt lat="28.022112" lon="105.624393"><ele>1034.7</ele><time>2025-11-22T00:20:21.000Z</time></trkpt>
        <trkpt lat="28.022108" lon="105.624385"><ele>1035.3</ele><time>2025-11-22T00:20:22.000Z</time></trkpt>
        <trkpt lat="28.022103" lon="105.624376"><ele>1035.3</ele><time>2025-11-22T00:20:23.000Z</time></trkpt>
        <trkpt lat="28.022098" lon="105.624367"><ele>1035.3</ele><time>2025-11-22T00:20:24.000Z</time></trkpt>
        <trkpt lat="28.022092" lon="105.62436"><ele>1035.3</ele><time>2025-11-22T00:20:25.000Z</time></trkpt>
        <trkpt lat="28.022087" lon="105.624353"><ele>1035.3</ele><time>2025-11-22T00:20:26.000Z</time></trkpt>
        <trkpt lat="28.022082" lon="105.624346"><ele>1036.2</ele><time>2025-11-22T00:20:27.000Z</time></trkpt>
        <trkpt lat="28.022077" lon="105.62434"><ele>1036.2</ele><time>2025-11-22T00:20:28.000Z</time></trkpt>
        <trkpt lat="28.022071" lon="105.624335"><ele>1036.2</ele><time>2025-11-22T00:20:29.000Z</time></trkpt>
        <trkpt lat="28.022067" lon="105.624329"><ele>1036.2</ele><time>2025-11-22T00:20:30.000Z</time></trkpt>
        <trkpt lat="28.022064" lon="105.624323"><ele>1036.2</ele><time>2025-11-22T00:20:31.000Z</time></trkpt>
        <trkpt lat="28.022063" lon="105.624317"><ele>1036.7</ele><time>2025-11-22T00:20:32.000Z</time></trkpt>
        <trkpt lat="28.02206" lon="105.62431"><ele>1036.7</ele><time>2025-11-22T00:20:33.000Z</time></trkpt>
        <trkpt lat="28.022058" lon="105.624304"><ele>1036.7</ele><time>2025-11-22T00:20:34.000Z</time></trkpt>
        <trkpt lat="28.022055" lon="105.624297"><ele>1036.7</ele><time>2025-11-22T00:20:35.000Z</time></trkpt>
        <trkpt lat="28.02205" lon="105.62429"><ele>1036.7</ele><time>2025-11-22T00:20:36.000Z</time></trkpt>
        <trkpt lat="28.022046" lon="105.624284"><ele>1037.5</ele><time>2025-11-22T00:20:37.000Z</time></trkpt>
        <trkpt lat="28.022041" lon="105.624279"><ele>1037.5</ele><time>2025-11-22T00:20:38.000Z</time></trkpt>
        <trkpt lat="28.022037" lon="105.624273"><ele>1037.5</ele><time>2025-11-22T00:20:39.000Z</time></trkpt>
        <trkpt lat="28.022034" lon="105.624266"><ele>1037.5</ele><time>2025-11-22T00:20:40.000Z</time></trkpt>
        <trkpt lat="28.022031" lon="105.62426"><ele>1037.5</ele><time>2025-11-22T00:20:41.000Z</time></trkpt>
        <trkpt lat="28.022028" lon="105.624253"><ele>1038.1</ele><time>2025-11-22T00:20:42.000Z</time></trkpt>
        <trkpt lat="28.022024" lon="105.624246"><ele>1038.1</ele><time>2025-11-22T00:20:43.000Z</time></trkpt>
        <trkpt lat="28.02202" lon="105.62424"><ele>1038.1</ele><time>2025-11-22T00:20:44.000Z</time></trkpt>
        <trkpt lat="28.022014" lon="105.624235"><ele>1038.1</ele><time>2025-11-22T00:20:45.000Z</time></trkpt>
        <trkpt lat="28.022009" lon="105.624229"><ele>1038.1</ele><time>2025-11-22T00:20:46.000Z</time></trkpt>
        <trkpt lat="28.022003" lon="105.624224"><ele>1038.8</ele><time>2025-11-22T00:20:47.000Z</time></trkpt>
        <trkpt lat="28.021998" lon="105.624218"><ele>1038.8</ele><time>2025-11-22T00:20:48.000Z</time></trkpt>
        <trkpt lat="28.021993" lon="105.624212"><ele>1038.8</ele><time>2025-11-22T00:20:49.000Z</time></trkpt>
        <trkpt lat="28.021989" lon="105.624206"><ele>1038.8</ele><time>2025-11-22T00:20:50.000Z</time></trkpt>
        <trkpt lat="28.021986" lon="105.624201"><ele>1038.8</ele><time>2025-11-22T00:20:51.000Z</time></trkpt>
        <trkpt lat="28.021982" lon="105.624195"><ele>1039.2</ele><time>2025-11-22T00:20:52.000Z</time></trkpt>
        <trkpt lat="28.021978" lon="105.62419"><ele>1039.2</ele><time>2025-11-22T00:20:53.000Z</time></trkpt>
        <trkpt lat="28.021974" lon="105.624185"><ele>1039.2</ele><time>2025-11-22T00:20:54.000Z</time></trkpt>
        <trkpt lat="28.021971" lon="105.624178"><ele>1039.2</ele><time>2025-11-22T00:20:55.000Z</time></trkpt>
        <trkpt lat="28.021967" lon="105.624171"><ele>1039.2</ele><time>2025-11-22T00:20:56.000Z</time></trkpt>
        <trkpt lat="28.021964" lon="105.624163"><ele>1039.9</ele><time>2025-11-22T00:20:57.000Z</time></trkpt>
        <trkpt lat="28.021961" lon="105.624156"><ele>1039.9</ele><time>2025-11-22T00:20:58.000Z</time></trkpt>
        <trkpt lat="28.021959" lon="105.624149"><ele>1039.9</ele><time>2025-11-22T00:20:59.000Z</time></trkpt>
        <trkpt lat="28.021955" lon="105.624142"><ele>1039.9</ele><time>2025-11-22T00:21:00.000Z</time></trkpt>
        <trkpt lat="28.021952" lon="105.624135"><ele>1039.9</ele><time>2025-11-22T00:21:01.000Z</time></trkpt>
        <trkpt lat="28.021949" lon="105.624127"><ele>1040.4</ele><time>2025-11-22T00:21:02.000Z</time></trkpt>
        <trkpt lat="28.021946" lon="105.62412"><ele>1040.4</ele><time>2025-11-22T00:21:03.000Z</time></trkpt>
        <trkpt lat="28.021943" lon="105.624113"><ele>1040.4</ele><time>2025-11-22T00:21:04.000Z</time></trkpt>
        <trkpt lat="28.021941" lon="105.624106"><ele>1040.4</ele><time>2025-11-22T00:21:05.000Z</time></trkpt>
        <trkpt lat="28.021939" lon="105.6241"><ele>1040.4</ele><time>2025-11-22T00:21:06.000Z</time></trkpt>
        <trkpt lat="28.021938" lon="105.624094"><ele>1041.1</ele><time>2025-11-22T00:21:07.000Z</time></trkpt>
        <trkpt lat="28.021936" lon="105.624088"><ele>1041.1</ele><time>2025-11-22T00:21:08.000Z</time></trkpt>
        <trkpt lat="28.021936" lon="105.624083"><ele>1041.1</ele><time>2025-11-22T00:21:09.000Z</time></trkpt>
        <trkpt lat="28.021935" lon="105.624078"><ele>1041.1</ele><time>2025-11-22T00:21:10.000Z</time></trkpt>
        <trkpt lat="28.021935" lon="105.624074"><ele>1041.1</ele><time>2025-11-22T00:21:11.000Z</time></trkpt>
        <trkpt lat="28.021935" lon="105.62407"><ele>1041.6</ele><time>2025-11-22T00:21:12.000Z</time></trkpt>
        <trkpt lat="28.021935" lon="105.624068"><ele>1041.6</ele><time>2025-11-22T00:21:13.000Z</time></trkpt>
        <trkpt lat="28.021936" lon="105.624066"><ele>1041.6</ele><time>2025-11-22T00:21:14.000Z</time></trkpt>
        <trkpt lat="28.021938" lon="105.624063"><ele>1041.6</ele><time>2025-11-22T00:21:15.000Z</time></trkpt>
        <trkpt lat="28.02194" lon="105.624061"><ele>1041.6</ele><time>2025-11-22T00:21:16.000Z</time></trkpt>
        <trkpt lat="28.021942" lon="105.624059"><ele>1042.5</ele><time>2025-11-22T00:21:17.000Z</time></trkpt>
        <trkpt lat="28.021943" lon="105.624057"><ele>1042.5</ele><time>2025-11-22T00:21:18.000Z</time></trkpt>
        <trkpt lat="28.021944" lon="105.624056"><ele>1042.5</ele><time>2025-11-22T00:21:19.000Z</time></trkpt>
        <trkpt lat="28.021944" lon="105.624055"><ele>1042.5</ele><time>2025-11-22T00:21:20.000Z</time></trkpt>
        <trkpt lat="28.021945" lon="105.624056"><ele>1042.5</ele><time>2025-11-22T00:21:21.000Z</time></trkpt>
        <trkpt lat="28.021945" lon="105.624056"><ele>1043.1</ele><time>2025-11-22T00:21:22.000Z</time></trkpt>
        <trkpt lat="28.021946" lon="105.624056"><ele>1043.1</ele><time>2025-11-22T00:21:23.000Z</time></trkpt>
        <trkpt lat="28.021946" lon="105.624056"><ele>1043.1</ele><time>2025-11-22T00:21:24.000Z</time></trkpt>
        <trkpt lat="28.021947" lon="105.624057"><ele>1043.1</ele><time>2025-11-22T00:21:25.000Z</time></trkpt>
        <trkpt lat="28.021947" lon="105.624057"><ele>1043.1</ele><time>2025-11-22T00:21:26.000Z</time></trkpt>
        <trkpt lat="28.021947" lon="105.624057"><ele>1043.5</ele><time>2025-11-22T00:21:27.000Z</time></trkpt>
        <trkpt lat="28.021947" lon="105.624057"><ele>1043.5</ele><time>2025-11-22T00:21:28.000Z</time></trkpt>
        <trkpt lat="28.021947" lon="105.624057"><ele>1043.5</ele><time>2025-11-22T00:21:29.000Z</time></trkpt>
        <trkpt lat="28.021947" lon="105.624056"><ele>1043.5</ele><time>2025-11-22T00:21:30.000Z</time></trkpt>
        <trkpt lat="28.021946" lon="105.624056"><ele>1043.5</ele><time>2025-11-22T00:21:31.000Z</time></trkpt>
        <trkpt lat="28.021946" lon="105.624055"><ele>1043.8</ele><time>2025-11-22T00:21:32.000Z</time></trkpt>
        <trkpt lat="28.021946" lon="105.624055"><ele>1043.8</ele><time>2025-11-22T00:21:33.000Z</time></trkpt>
        <trkpt lat="28.021945" lon="105.624054"><ele>1043.8</ele><time>2025-11-22T00:21:34.000Z</time></trkpt>
        <trkpt lat="28.021945" lon="105.624054"><ele>1043.8</ele><time>2025-11-22T00:21:35.000Z</time></trkpt>
        <trkpt lat="28.021945" lon="105.624054"><ele>1043.8</ele><time>2025-11-22T00:21:36.000Z</time></trkpt>
        <trkpt lat="28.021945" lon="105.624054"><ele>1043.8</ele><time>2025-11-22T00:21:37.000Z</time></trkpt>
        <trkpt lat="28.021945" lon="105.624054"><ele>1043.8</ele><time>2025-11-22T00:21:38.000Z</time></trkpt>
        <trkpt lat="28.021945" lon="105.624054"><ele>1043.8</ele><time>2025-11-22T00:21:39.000Z</time></trkpt>
        <trkpt lat="28.021945" lon="105.624054"><ele>1043.8</ele><time>2025-11-22T00:21:40.000Z</time></trkpt>
        <trkpt lat="28.021945" lon="105.624054"><ele>1043.8</ele><time>2025-11-22T00:21:41.000Z</time></trkpt>
        <trkpt lat="28.021945" lon="105.624054"><ele>1043.8</ele><time>2025-11-22T00:21:42.000Z</time></trkpt>
        <trkpt lat="28.021945" lon="105.624054"><ele>1043.8</ele><time>2025-11-22T00:21:43.000Z</time></trkpt>
        <trkpt lat="28.021945" lon="105.624054"><ele>1043.8</ele><time>2025-11-22T00:21:44.000Z</time></trkpt>
        <trkpt lat="28.021945" lon="105.624054"><ele>1043.8</ele><time>2025-11-22T00:21:45.000Z</time></trkpt>
        <trkpt lat="28.021945" lon="105.624054"><ele>1043.8</ele><time>2025-11-22T00:21:46.000Z</time></trkpt>
        <trkpt lat="28.021945" lon="105.624053"><ele>1043.8</ele><time>2025-11-22T00:21:47.000Z</time></trkpt>
        <trkpt lat="28.021945" lon="105.624053"><ele>1043.8</ele><time>2025-11-22T00:21:48.000Z</time></trkpt>
        <trkpt lat="28.021945" lon="105.624053"><ele>1043.8</ele><time>2025-11-22T00:21:49.000Z</time></trkpt>
        <trkpt lat="28.021945" lon="105.624053"><ele>1043.8</ele><time>2025-11-22T00:21:50.000Z</time></trkpt>
        <trkpt lat="28.021945" lon="105.624052"><ele>1043.8</ele><time>2025-11-22T00:21:51.000Z</time></trkpt>
        <trkpt lat="28.021944" lon="105.624049"><ele>1043.8</ele><time>2025-11-22T00:21:52.000Z</time></trkpt>
        <trkpt lat="28.021942" lon="105.624045"><ele>1043.8</ele><time>2025-11-22T00:21:53.000Z</time></trkpt>
        <trkpt lat="28.021941" lon="105.62404"><ele>1043.8</ele><time>2025-11-22T00:21:54.000Z</time></trkpt>
        <trkpt lat="28.021939" lon="105.624034"><ele>1043.8</ele><time>2025-11-22T00:21:55.000Z</time></trkpt>
        <trkpt lat="28.021936" lon="105.624029"><ele>1043.8</ele><time>2025-11-22T00:21:56.000Z</time></trkpt>
        <trkpt lat="28.021934" lon="105.624025"><ele>1043.8</ele><time>2025-11-22T00:21:57.000Z</time></trkpt>
        <trkpt lat="28.021932" lon="105.624021"><ele>1043.8</ele><time>2025-11-22T00:21:58.000Z</time></trkpt>
        <trkpt lat="28.021931" lon="105.624016"><ele>1043.8</ele><time>2025-11-22T00:21:59.000Z</time></trkpt>
        <trkpt lat="28.021929" lon="105.624012"><ele>1043.8</ele><time>2025-11-22T00:22:00.000Z</time></trkpt>
        <trkpt lat="28.021929" lon="105.624008"><ele>1043.8</ele><time>2025-11-22T00:22:01.000Z</time></trkpt>
        <trkpt lat="28.021929" lon="105.624004"><ele>1044</ele><time>2025-11-22T00:22:02.000Z</time></trkpt>
        <trkpt lat="28.021928" lon="105.624"><ele>1044</ele><time>2025-11-22T00:22:03.000Z</time></trkpt>
        <trkpt lat="28.021928" lon="105.623995"><ele>1044</ele><time>2025-11-22T00:22:04.000Z</time></trkpt>
        <trkpt lat="28.021926" lon="105.623992"><ele>1044</ele><time>2025-11-22T00:22:05.000Z</time></trkpt>
        <trkpt lat="28.021924" lon="105.62399"><ele>1044</ele><time>2025-11-22T00:22:06.000Z</time></trkpt>
        <trkpt lat="28.021922" lon="105.623987"><ele>1044.8</ele><time>2025-11-22T00:22:07.000Z</time></trkpt>
        <trkpt lat="28.021921" lon="105.623985"><ele>1044.8</ele><time>2025-11-22T00:22:08.000Z</time></trkpt>
        <trkpt lat="28.02192" lon="105.623985"><ele>1044.8</ele><time>2025-11-22T00:22:09.000Z</time></trkpt>
        <trkpt lat="28.021919" lon="105.623983"><ele>1044.8</ele><time>2025-11-22T00:22:10.000Z</time></trkpt>
        <trkpt lat="28.021917" lon="105.623982"><ele>1044.8</ele><time>2025-11-22T00:22:11.000Z</time></trkpt>
        <trkpt lat="28.021916" lon="105.623982"><ele>1046</ele><time>2025-11-22T00:22:12.000Z</time></trkpt>
        <trkpt lat="28.021914" lon="105.623983"><ele>1046</ele><time>2025-11-22T00:22:13.000Z</time></trkpt>
        <trkpt lat="28.021912" lon="105.623983"><ele>1046</ele><time>2025-11-22T00:22:14.000Z</time></trkpt>
        <trkpt lat="28.02191" lon="105.623984"><ele>1046</ele><time>2025-11-22T00:22:15.000Z</time></trkpt>
        <trkpt lat="28.02191" lon="105.623984"><ele>1046</ele><time>2025-11-22T00:22:16.000Z</time></trkpt>
        <trkpt lat="28.021909" lon="105.623985"><ele>1047.2</ele><time>2025-11-22T00:22:17.000Z</time></trkpt>
        <trkpt lat="28.021909" lon="105.623986"><ele>1047.2</ele><time>2025-11-22T00:22:18.000Z</time></trkpt>
        <trkpt lat="28.021909" lon="105.623987"><ele>1047.2</ele><time>2025-11-22T00:22:19.000Z</time></trkpt>
        <trkpt lat="28.021909" lon="105.623988"><ele>1047.2</ele><time>2025-11-22T00:22:20.000Z</time></trkpt>
        <trkpt lat="28.021909" lon="105.623989"><ele>1047.2</ele><time>2025-11-22T00:22:21.000Z</time></trkpt>
        <trkpt lat="28.021909" lon="105.623989"><ele>1047.9</ele><time>2025-11-22T00:22:22.000Z</time></trkpt>
        <trkpt lat="28.021909" lon="105.62399"><ele>1047.9</ele><time>2025-11-22T00:22:23.000Z</time></trkpt>
        <trkpt lat="28.021909" lon="105.62399"><ele>1047.9</ele><time>2025-11-22T00:22:24.000Z</time></trkpt>
        <trkpt lat="28.021909" lon="105.62399"><ele>1047.9</ele><time>2025-11-22T00:22:25.000Z</time></trkpt>
        <trkpt lat="28.02191" lon="105.623989"><ele>1047.9</ele><time>2025-11-22T00:22:26.000Z</time></trkpt>
        <trkpt lat="28.02191" lon="105.623989"><ele>1048.4</ele><time>2025-11-22T00:22:27.000Z</time></trkpt>
        <trkpt lat="28.021912" lon="105.623989"><ele>1048.4</ele><time>2025-11-22T00:22:28.000Z</time></trkpt>
        <trkpt lat="28.021913" lon="105.623988"><ele>1048.4</ele><time>2025-11-22T00:22:29.000Z</time></trkpt>
        <trkpt lat="28.021913" lon="105.623987"><ele>1048.4</ele><time>2025-11-22T00:22:30.000Z</time></trkpt>
        <trkpt lat="28.021914" lon="105.623986"><ele>1048.4</ele><time>2025-11-22T00:22:31.000Z</time></trkpt>
        <trkpt lat="28.021914" lon="105.623984"><ele>1048.4</ele><time>2025-11-22T00:22:32.000Z</time></trkpt>
        <trkpt lat="28.021913" lon="105.623981"><ele>1048.4</ele><time>2025-11-22T00:22:33.000Z</time></trkpt>
        <trkpt lat="28.021911" lon="105.623978"><ele>1048.4</ele><time>2025-11-22T00:22:34.000Z</time></trkpt>
        <trkpt lat="28.02191" lon="105.623974"><ele>1048.4</ele><time>2025-11-22T00:22:35.000Z</time></trkpt>
        <trkpt lat="28.021907" lon="105.623971"><ele>1048.4</ele><time>2025-11-22T00:22:36.000Z</time></trkpt>
        <trkpt lat="28.021905" lon="105.623967"><ele>1048.4</ele><time>2025-11-22T00:22:37.000Z</time></trkpt>
        <trkpt lat="28.021902" lon="105.623964"><ele>1048.4</ele><time>2025-11-22T00:22:38.000Z</time></trkpt>
        <trkpt lat="28.021898" lon="105.623961"><ele>1048.4</ele><time>2025-11-22T00:22:39.000Z</time></trkpt>
        <trkpt lat="28.021895" lon="105.623956"><ele>1048.4</ele><time>2025-11-22T00:22:40.000Z</time></trkpt>
        <trkpt lat="28.021892" lon="105.623951"><ele>1048.4</ele><time>2025-11-22T00:22:41.000Z</time></trkpt>
        <trkpt lat="28.021889" lon="105.623947"><ele>1048.4</ele><time>2025-11-22T00:22:42.000Z</time></trkpt>
        <trkpt lat="28.021886" lon="105.623943"><ele>1048.4</ele><time>2025-11-22T00:22:43.000Z</time></trkpt>
        <trkpt lat="28.021883" lon="105.623938"><ele>1048.4</ele><time>2025-11-22T00:22:44.000Z</time></trkpt>
        <trkpt lat="28.021879" lon="105.623935"><ele>1048.4</ele><time>2025-11-22T00:22:45.000Z</time></trkpt>
        <trkpt lat="28.021875" lon="105.623932"><ele>1048.4</ele><time>2025-11-22T00:22:46.000Z</time></trkpt>
        <trkpt lat="28.021872" lon="105.623929"><ele>1048.8</ele><time>2025-11-22T00:22:47.000Z</time></trkpt>
        <trkpt lat="28.021869" lon="105.623926"><ele>1048.8</ele><time>2025-11-22T00:22:48.000Z</time></trkpt>
        <trkpt lat="28.021866" lon="105.623922"><ele>1048.8</ele><time>2025-11-22T00:22:49.000Z</time></trkpt>
        <trkpt lat="28.021862" lon="105.623919"><ele>1048.8</ele><time>2025-11-22T00:22:50.000Z</time></trkpt>
        <trkpt lat="28.02186" lon="105.623916"><ele>1048.8</ele><time>2025-11-22T00:22:51.000Z</time></trkpt>
        <trkpt lat="28.021856" lon="105.623912"><ele>1049.9</ele><time>2025-11-22T00:22:52.000Z</time></trkpt>
        <trkpt lat="28.021852" lon="105.623908"><ele>1049.9</ele><time>2025-11-22T00:22:53.000Z</time></trkpt>
        <trkpt lat="28.021847" lon="105.623905"><ele>1049.9</ele><time>2025-11-22T00:22:54.000Z</time></trkpt>
        <trkpt lat="28.021843" lon="105.623901"><ele>1049.9</ele><time>2025-11-22T00:22:55.000Z</time></trkpt>
        <trkpt lat="28.021838" lon="105.623896"><ele>1049.9</ele><time>2025-11-22T00:22:56.000Z</time></trkpt>
        <trkpt lat="28.021832" lon="105.623893"><ele>1051.1</ele><time>2025-11-22T00:22:57.000Z</time></trkpt>
        <trkpt lat="28.021825" lon="105.62389"><ele>1051.1</ele><time>2025-11-22T00:22:58.000Z</time></trkpt>
        <trkpt lat="28.021818" lon="105.623888"><ele>1051.1</ele><time>2025-11-22T00:22:59.000Z</time></trkpt>
        <trkpt lat="28.021811" lon="105.623886"><ele>1051.1</ele><time>2025-11-22T00:23:00.000Z</time></trkpt>
        <trkpt lat="28.021805" lon="105.623884"><ele>1051.1</ele><time>2025-11-22T00:23:01.000Z</time></trkpt>
        <trkpt lat="28.021798" lon="105.623882"><ele>1052.2</ele><time>2025-11-22T00:23:02.000Z</time></trkpt>
        <trkpt lat="28.021792" lon="105.623879"><ele>1052.2</ele><time>2025-11-22T00:23:03.000Z</time></trkpt>
        <trkpt lat="28.021786" lon="105.623875"><ele>1052.2</ele><time>2025-11-22T00:23:04.000Z</time></trkpt>
        <trkpt lat="28.02178" lon="105.623871"><ele>1052.2</ele><time>2025-11-22T00:23:05.000Z</time></trkpt>
        <trkpt lat="28.021774" lon="105.623867"><ele>1052.2</ele><time>2025-11-22T00:23:06.000Z</time></trkpt>
        <trkpt lat="28.021769" lon="105.623865"><ele>1053</ele><time>2025-11-22T00:23:07.000Z</time></trkpt>
        <trkpt lat="28.021766" lon="105.623862"><ele>1053</ele><time>2025-11-22T00:23:08.000Z</time></trkpt>
        <trkpt lat="28.021763" lon="105.623861"><ele>1053</ele><time>2025-11-22T00:23:09.000Z</time></trkpt>
        <trkpt lat="28.021761" lon="105.623861"><ele>1053</ele><time>2025-11-22T00:23:10.000Z</time></trkpt>
        <trkpt lat="28.021759" lon="105.623861"><ele>1053</ele><time>2025-11-22T00:23:11.000Z</time></trkpt>
        <trkpt lat="28.021756" lon="105.62386"><ele>1053.4</ele><time>2025-11-22T00:23:12.000Z</time></trkpt>
        <trkpt lat="28.021751" lon="105.623859"><ele>1053.4</ele><time>2025-11-22T00:23:13.000Z</time></trkpt>
        <trkpt lat="28.021745" lon="105.623858"><ele>1053.4</ele><time>2025-11-22T00:23:14.000Z</time></trkpt>
        <trkpt lat="28.021738" lon="105.623857"><ele>1053.4</ele><time>2025-11-22T00:23:15.000Z</time></trkpt>
        <trkpt lat="28.02173" lon="105.623856"><ele>1053.4</ele><time>2025-11-22T00:23:16.000Z</time></trkpt>
        <trkpt lat="28.021721" lon="105.623855"><ele>1053.6</ele><time>2025-11-22T00:23:17.000Z</time></trkpt>
        <trkpt lat="28.021713" lon="105.623854"><ele>1053.6</ele><time>2025-11-22T00:23:18.000Z</time></trkpt>
        <trkpt lat="28.021705" lon="105.623853"><ele>1053.6</ele><time>2025-11-22T00:23:19.000Z</time></trkpt>
        <trkpt lat="28.021697" lon="105.623851"><ele>1053.6</ele><time>2025-11-22T00:23:20.000Z</time></trkpt>
        <trkpt lat="28.021689" lon="105.623849"><ele>1053.6</ele><time>2025-11-22T00:23:21.000Z</time></trkpt>
        <trkpt lat="28.021681" lon="105.623846"><ele>1053.8</ele><time>2025-11-22T00:23:22.000Z</time></trkpt>
        <trkpt lat="28.021673" lon="105.623843"><ele>1053.8</ele><time>2025-11-22T00:23:23.000Z</time></trkpt>
        <trkpt lat="28.021665" lon="105.623838"><ele>1053.8</ele><time>2025-11-22T00:23:24.000Z</time></trkpt>
        <trkpt lat="28.021657" lon="105.623833"><ele>1053.8</ele><time>2025-11-22T00:23:25.000Z</time></trkpt>
        <trkpt lat="28.02165" lon="105.623827"><ele>1053.8</ele><time>2025-11-22T00:23:26.000Z</time></trkpt>
        <trkpt lat="28.021644" lon="105.623821"><ele>1053.8</ele><time>2025-11-22T00:23:27.000Z</time></trkpt>
        <trkpt lat="28.021638" lon="105.623815"><ele>1053.8</ele><time>2025-11-22T00:23:28.000Z</time></trkpt>
        <trkpt lat="28.021633" lon="105.62381"><ele>1053.8</ele><time>2025-11-22T00:23:29.000Z</time></trkpt>
        <trkpt lat="28.021628" lon="105.623805"><ele>1053.8</ele><time>2025-11-22T00:23:30.000Z</time></trkpt>
        <trkpt lat="28.021625" lon="105.6238"><ele>1053.8</ele><time>2025-11-22T00:23:31.000Z</time></trkpt>
        <trkpt lat="28.021621" lon="105.623796"><ele>1054</ele><time>2025-11-22T00:23:32.000Z</time></trkpt>
        <trkpt lat="28.021619" lon="105.623791"><ele>1054</ele><time>2025-11-22T00:23:33.000Z</time></trkpt>
        <trkpt lat="28.021617" lon="105.623786"><ele>1054</ele><time>2025-11-22T00:23:34.000Z</time></trkpt>
        <trkpt lat="28.021614" lon="105.62378"><ele>1054</ele><time>2025-11-22T00:23:35.000Z</time></trkpt>
        <trkpt lat="28.021611" lon="105.623775"><ele>1054</ele><time>2025-11-22T00:23:36.000Z</time></trkpt>
        <trkpt lat="28.021608" lon="105.62377"><ele>1054.3</ele><time>2025-11-22T00:23:37.000Z</time></trkpt>
        <trkpt lat="28.021605" lon="105.623764"><ele>1054.3</ele><time>2025-11-22T00:23:38.000Z</time></trkpt>
        <trkpt lat="28.021601" lon="105.62376"><ele>1054.3</ele><time>2025-11-22T00:23:39.000Z</time></trkpt>
        <trkpt lat="28.021596" lon="105.623756"><ele>1054.3</ele><time>2025-11-22T00:23:40.000Z</time></trkpt>
        <trkpt lat="28.021592" lon="105.623751"><ele>1054.3</ele><time>2025-11-22T00:23:41.000Z</time></trkpt>
        <trkpt lat="28.021586" lon="105.623745"><ele>1055.1</ele><time>2025-11-22T00:23:42.000Z</time></trkpt>
        <trkpt lat="28.021581" lon="105.623739"><ele>1055.1</ele><time>2025-11-22T00:23:43.000Z</time></trkpt>
        <trkpt lat="28.021576" lon="105.623734"><ele>1055.1</ele><time>2025-11-22T00:23:44.000Z</time></trkpt>
        <trkpt lat="28.021571" lon="105.623728"><ele>1055.1</ele><time>2025-11-22T00:23:45.000Z</time></trkpt>
        <trkpt lat="28.021567" lon="105.623725"><ele>1055.1</ele><time>2025-11-22T00:23:46.000Z</time></trkpt>
        <trkpt lat="28.021563" lon="105.623724"><ele>1055.7</ele><time>2025-11-22T00:23:47.000Z</time></trkpt>
        <trkpt lat="28.021559" lon="105.623723"><ele>1055.7</ele><time>2025-11-22T00:23:48.000Z</time></trkpt>
        <trkpt lat="28.021555" lon="105.623724"><ele>1055.7</ele><time>2025-11-22T00:23:49.000Z</time></trkpt>
        <trkpt lat="28.021552" lon="105.623725"><ele>1055.7</ele><time>2025-11-22T00:23:50.000Z</time></trkpt>
        <trkpt lat="28.02155" lon="105.623726"><ele>1055.7</ele><time>2025-11-22T00:23:51.000Z</time></trkpt>
        <trkpt lat="28.021549" lon="105.623727"><ele>1056.8</ele><time>2025-11-22T00:23:52.000Z</time></trkpt>
        <trkpt lat="28.021549" lon="105.623728"><ele>1056.8</ele><time>2025-11-22T00:23:53.000Z</time></trkpt>
        <trkpt lat="28.021549" lon="105.62373"><ele>1056.8</ele><time>2025-11-22T00:23:54.000Z</time></trkpt>
        <trkpt lat="28.02155" lon="105.623733"><ele>1056.8</ele><time>2025-11-22T00:23:55.000Z</time></trkpt>
        <trkpt lat="28.021551" lon="105.623736"><ele>1056.8</ele><time>2025-11-22T00:23:56.000Z</time></trkpt>
        <trkpt lat="28.021551" lon="105.623738"><ele>1057.5</ele><time>2025-11-22T00:23:57.000Z</time></trkpt>
        <trkpt lat="28.021552" lon="105.62374"><ele>1057.5</ele><time>2025-11-22T00:23:58.000Z</time></trkpt>
        <trkpt lat="28.021552" lon="105.623741"><ele>1057.5</ele><time>2025-11-22T00:23:59.000Z</time></trkpt>
        <trkpt lat="28.021552" lon="105.623742"><ele>1057.5</ele><time>2025-11-22T00:24:00.000Z</time></trkpt>
        <trkpt lat="28.021551" lon="105.623742"><ele>1057.5</ele><time>2025-11-22T00:24:01.000Z</time></trkpt>
        <trkpt lat="28.02155" lon="105.623743"><ele>1058.3</ele><time>2025-11-22T00:24:02.000Z</time></trkpt>
        <trkpt lat="28.021549" lon="105.623745"><ele>1058.3</ele><time>2025-11-22T00:24:03.000Z</time></trkpt>
        <trkpt lat="28.021548" lon="105.623747"><ele>1058.3</ele><time>2025-11-22T00:24:04.000Z</time></trkpt>
        <trkpt lat="28.021546" lon="105.623748"><ele>1058.3</ele><time>2025-11-22T00:24:05.000Z</time></trkpt>
        <trkpt lat="28.021546" lon="105.623749"><ele>1058.3</ele><time>2025-11-22T00:24:06.000Z</time></trkpt>
        <trkpt lat="28.021546" lon="105.623751"><ele>1058.5</ele><time>2025-11-22T00:24:07.000Z</time></trkpt>
        <trkpt lat="28.021545" lon="105.623752"><ele>1058.5</ele><time>2025-11-22T00:24:08.000Z</time></trkpt>
        <trkpt lat="28.021545" lon="105.623752"><ele>1058.5</ele><time>2025-11-22T00:24:09.000Z</time></trkpt>
        <trkpt lat="28.021546" lon="105.623752"><ele>1058.5</ele><time>2025-11-22T00:24:10.000Z</time></trkpt>
        <trkpt lat="28.021546" lon="105.623752"><ele>1058.5</ele><time>2025-11-22T00:24:11.000Z</time></trkpt>
        <trkpt lat="28.021546" lon="105.623752"><ele>1058.8</ele><time>2025-11-22T00:24:12.000Z</time></trkpt>
        <trkpt lat="28.021547" lon="105.623751"><ele>1058.8</ele><time>2025-11-22T00:24:13.000Z</time></trkpt>
        <trkpt lat="28.021547" lon="105.623751"><ele>1058.8</ele><time>2025-11-22T00:24:14.000Z</time></trkpt>
        <trkpt lat="28.021547" lon="105.623751"><ele>1058.8</ele><time>2025-11-22T00:24:15.000Z</time></trkpt>
        <trkpt lat="28.021547" lon="105.623751"><ele>1058.8</ele><time>2025-11-22T00:24:16.000Z</time></trkpt>
        <trkpt lat="28.021547" lon="105.623751"><ele>1058.8</ele><time>2025-11-22T00:24:17.000Z</time></trkpt>
        <trkpt lat="28.021547" lon="105.623751"><ele>1058.8</ele><time>2025-11-22T00:24:18.000Z</time></trkpt>
        <trkpt lat="28.021547" lon="105.62375"><ele>1058.8</ele><time>2025-11-22T00:24:19.000Z</time></trkpt>
        <trkpt lat="28.021547" lon="105.62375"><ele>1058.8</ele><time>2025-11-22T00:24:20.000Z</time></trkpt>
        <trkpt lat="28.021546" lon="105.623749"><ele>1058.8</ele><time>2025-11-22T00:24:21.000Z</time></trkpt>
        <trkpt lat="28.021545" lon="105.623748"><ele>1059</ele><time>2025-11-22T00:24:22.000Z</time></trkpt>
        <trkpt lat="28.021545" lon="105.623747"><ele>1059</ele><time>2025-11-22T00:24:23.000Z</time></trkpt>
        <trkpt lat="28.021544" lon="105.623746"><ele>1059</ele><time>2025-11-22T00:24:24.000Z</time></trkpt>
        <trkpt lat="28.021544" lon="105.623744"><ele>1059</ele><time>2025-11-22T00:24:25.000Z</time></trkpt>
        <trkpt lat="28.021544" lon="105.623741"><ele>1059</ele><time>2025-11-22T00:24:26.000Z</time></trkpt>
        <trkpt lat="28.021544" lon="105.62374"><ele>1059</ele><time>2025-11-22T00:24:27.000Z</time></trkpt>
        <trkpt lat="28.021544" lon="105.623739"><ele>1059</ele><time>2025-11-22T00:24:28.000Z</time></trkpt>
        <trkpt lat="28.021544" lon="105.623738"><ele>1059</ele><time>2025-11-22T00:24:29.000Z</time></trkpt>
        <trkpt lat="28.021543" lon="105.623738"><ele>1059</ele><time>2025-11-22T00:24:30.000Z</time></trkpt>
        <trkpt lat="28.021543" lon="105.623738"><ele>1059</ele><time>2025-11-22T00:24:31.000Z</time></trkpt>
        <trkpt lat="28.021543" lon="105.623738"><ele>1059</ele><time>2025-11-22T00:24:32.000Z</time></trkpt>
        <trkpt lat="28.021543" lon="105.623738"><ele>1059</ele><time>2025-11-22T00:24:33.000Z</time></trkpt>
        <trkpt lat="28.021543" lon="105.623738"><ele>1059</ele><time>2025-11-22T00:24:34.000Z</time></trkpt>
        <trkpt lat="28.021543" lon="105.623738"><ele>1059</ele><time>2025-11-22T00:24:35.000Z</time></trkpt>
        <trkpt lat="28.021543" lon="105.623738"><ele>1059</ele><time>2025-11-22T00:24:36.000Z</time></trkpt>
        <trkpt lat="28.021543" lon="105.623738"><ele>1059</ele><time>2025-11-22T00:24:37.000Z</time></trkpt>
        <trkpt lat="28.021543" lon="105.623738"><ele>1059</ele><time>2025-11-22T00:24:38.000Z</time></trkpt>
        <trkpt lat="28.021543" lon="105.623738"><ele>1059</ele><time>2025-11-22T00:24:39.000Z</time></trkpt>
        <trkpt lat="28.021543" lon="105.623737"><ele>1059</ele><time>2025-11-22T00:24:40.000Z</time></trkpt>
        <trkpt lat="28.021543" lon="105.623736"><ele>1059</ele><time>2025-11-22T00:24:41.000Z</time></trkpt>
        <trkpt lat="28.021542" lon="105.623736"><ele>1059</ele><time>2025-11-22T00:24:42.000Z</time></trkpt>
        <trkpt lat="28.021542" lon="105.623736"><ele>1059</ele><time>2025-11-22T00:24:43.000Z</time></trkpt>
        <trkpt lat="28.021542" lon="105.623736"><ele>1059</ele><time>2025-11-22T00:24:44.000Z</time></trkpt>
        <trkpt lat="28.021542" lon="105.623736"><ele>1059</ele><time>2025-11-22T00:24:45.000Z</time></trkpt>
        <trkpt lat="28.021543" lon="105.623736"><ele>1059</ele><time>2025-11-22T00:24:46.000Z</time></trkpt>
        <trkpt lat="28.021543" lon="105.623735"><ele>1059</ele><time>2025-11-22T00:24:47.000Z</time></trkpt>
        <trkpt lat="28.021544" lon="105.623734"><ele>1059</ele><time>2025-11-22T00:24:48.000Z</time></trkpt>
        <trkpt lat="28.021545" lon="105.623734"><ele>1059</ele><time>2025-11-22T00:24:49.000Z</time></trkpt>
        <trkpt lat="28.021546" lon="105.623733"><ele>1059</ele><time>2025-11-22T00:24:50.000Z</time></trkpt>
        <trkpt lat="28.021546" lon="105.623733"><ele>1059</ele><time>2025-11-22T00:24:51.000Z</time></trkpt>
        <trkpt lat="28.021545" lon="105.623733"><ele>1059</ele><time>2025-11-22T00:24:52.000Z</time></trkpt>
        <trkpt lat="28.021545" lon="105.623733"><ele>1059</ele><time>2025-11-22T00:24:53.000Z</time></trkpt>
        <trkpt lat="28.021546" lon="105.623734"><ele>1059</ele><time>2025-11-22T00:24:54.000Z</time></trkpt>
        <trkpt lat="28.021546" lon="105.623734"><ele>1059</ele><time>2025-11-22T00:24:55.000Z</time></trkpt>
        <trkpt lat="28.021546" lon="105.623735"><ele>1059</ele><time>2025-11-22T00:24:56.000Z</time></trkpt>
        <trkpt lat="28.021546" lon="105.623735"><ele>1059</ele><time>2025-11-22T00:24:57.000Z</time></trkpt>
        <trkpt lat="28.021546" lon="105.623735"><ele>1059</ele><time>2025-11-22T00:24:58.000Z</time></trkpt>
        <trkpt lat="28.021546" lon="105.623735"><ele>1059</ele><time>2025-11-22T00:24:59.000Z</time></trkpt>
        <trkpt lat="28.021545" lon="105.623734"><ele>1059</ele><time>2025-11-22T00:25:00.000Z</time></trkpt>
        <trkpt lat="28.021544" lon="105.623733"><ele>1059</ele><time>2025-11-22T00:25:01.000Z</time></trkpt>
        <trkpt lat="28.021544" lon="105.623733"><ele>1059</ele><time>2025-11-22T00:25:02.000Z</time></trkpt>
        <trkpt lat="28.021543" lon="105.623732"><ele>1059</ele><time>2025-11-22T00:25:03.000Z</time></trkpt>
        <trkpt lat="28.021543" lon="105.623732"><ele>1059</ele><time>2025-11-22T00:25:04.000Z</time></trkpt>
        <trkpt lat="28.021543" lon="105.623732"><ele>1059</ele><time>2025-11-22T00:25:05.000Z</time></trkpt>
        <trkpt lat="28.021543" lon="105.623732"><ele>1059</ele><time>2025-11-22T00:25:06.000Z</time></trkpt>
        <trkpt lat="28.021543" lon="105.623732"><ele>1059</ele><time>2025-11-22T00:25:07.000Z</time></trkpt>
        <trkpt lat="28.021543" lon="105.623732"><ele>1059</ele><time>2025-11-22T00:25:08.000Z</time></trkpt>
        <trkpt lat="28.021543" lon="105.623732"><ele>1059</ele><time>2025-11-22T00:25:09.000Z</time></trkpt>
        <trkpt lat="28.021542" lon="105.62373"><ele>1059</ele><time>2025-11-22T00:25:10.000Z</time></trkpt>
        <trkpt lat="28.021541" lon="105.623729"><ele>1059</ele><time>2025-11-22T00:25:11.000Z</time></trkpt>
        <trkpt lat="28.021542" lon="105.623729"><ele>1059</ele><time>2025-11-22T00:25:12.000Z</time></trkpt>
        <trkpt lat="28.021543" lon="105.62373"><ele>1059</ele><time>2025-11-22T00:25:13.000Z</time></trkpt>
        <trkpt lat="28.021547" lon="105.623734"><ele>1059</ele><time>2025-11-22T00:25:14.000Z</time></trkpt>
        <trkpt lat="28.021553" lon="105.623739"><ele>1059</ele><time>2025-11-22T00:25:15.000Z</time></trkpt>
        <trkpt lat="28.021561" lon="105.623744"><ele>1059</ele><time>2025-11-22T00:25:16.000Z</time></trkpt>
        <trkpt lat="28.021569" lon="105.623747"><ele>1059</ele><time>2025-11-22T00:25:17.000Z</time></trkpt>
        <trkpt lat="28.021577" lon="105.623751"><ele>1059</ele><time>2025-11-22T00:25:18.000Z</time></trkpt>
        <trkpt lat="28.021587" lon="105.623753"><ele>1059</ele><time>2025-11-22T00:25:19.000Z</time></trkpt>
        <trkpt lat="28.021596" lon="105.623756"><ele>1059</ele><time>2025-11-22T00:25:20.000Z</time></trkpt>
        <trkpt lat="28.021607" lon="105.623757"><ele>1059</ele><time>2025-11-22T00:25:21.000Z</time></trkpt>
        <trkpt lat="28.021618" lon="105.623759"><ele>1059</ele><time>2025-11-22T00:25:22.000Z</time></trkpt>
        <trkpt lat="28.021628" lon="105.623761"><ele>1059</ele><time>2025-11-22T00:25:23.000Z</time></trkpt>
        <trkpt lat="28.021636" lon="105.623763"><ele>1059</ele><time>2025-11-22T00:25:24.000Z</time></trkpt>
        <trkpt lat="28.021645" lon="105.623765"><ele>1059</ele><time>2025-11-22T00:25:25.000Z</time></trkpt>
        <trkpt lat="28.021652" lon="105.623769"><ele>1059</ele><time>2025-11-22T00:25:26.000Z</time></trkpt>
        <trkpt lat="28.02166" lon="105.623772"><ele>1059.2</ele><time>2025-11-22T00:25:27.000Z</time></trkpt>
        <trkpt lat="28.021669" lon="105.623775"><ele>1059.2</ele><time>2025-11-22T00:25:28.000Z</time></trkpt>
        <trkpt lat="28.021678" lon="105.623778"><ele>1059.2</ele><time>2025-11-22T00:25:29.000Z</time></trkpt>
        <trkpt lat="28.021686" lon="105.62378"><ele>1059.2</ele><time>2025-11-22T00:25:30.000Z</time></trkpt>
        <trkpt lat="28.021693" lon="105.623781"><ele>1059.2</ele><time>2025-11-22T00:25:31.000Z</time></trkpt>
        <trkpt lat="28.021701" lon="105.623782"><ele>1059.7</ele><time>2025-11-22T00:25:32.000Z</time></trkpt>
        <trkpt lat="28.02171" lon="105.623783"><ele>1059.7</ele><time>2025-11-22T00:25:33.000Z</time></trkpt>
        <trkpt lat="28.021718" lon="105.623786"><ele>1059.7</ele><time>2025-11-22T00:25:34.000Z</time></trkpt>
        <trkpt lat="28.021729" lon="105.623789"><ele>1059.7</ele><time>2025-11-22T00:25:35.000Z</time></trkpt>
        <trkpt lat="28.021738" lon="105.623792"><ele>1059.7</ele><time>2025-11-22T00:25:36.000Z</time></trkpt>
        <trkpt lat="28.021747" lon="105.623795"><ele>1060.8</ele><time>2025-11-22T00:25:37.000Z</time></trkpt>
        <trkpt lat="28.021755" lon="105.623798"><ele>1060.8</ele><time>2025-11-22T00:25:38.000Z</time></trkpt>
        <trkpt lat="28.021763" lon="105.623799"><ele>1060.8</ele><time>2025-11-22T00:25:39.000Z</time></trkpt>
        <trkpt lat="28.02177" lon="105.623801"><ele>1060.8</ele><time>2025-11-22T00:25:40.000Z</time></trkpt>
        <trkpt lat="28.021778" lon="105.623805"><ele>1060.8</ele><time>2025-11-22T00:25:41.000Z</time></trkpt>
        <trkpt lat="28.021784" lon="105.623809"><ele>1061.5</ele><time>2025-11-22T00:25:42.000Z</time></trkpt>
        <trkpt lat="28.02179" lon="105.623812"><ele>1061.5</ele><time>2025-11-22T00:25:43.000Z</time></trkpt>
        <trkpt lat="28.021795" lon="105.623816"><ele>1061.5</ele><time>2025-11-22T00:25:44.000Z</time></trkpt>
        <trkpt lat="28.021799" lon="105.623818"><ele>1061.5</ele><time>2025-11-22T00:25:45.000Z</time></trkpt>
        <trkpt lat="28.021802" lon="105.623817"><ele>1061.5</ele><time>2025-11-22T00:25:46.000Z</time></trkpt>
        <trkpt lat="28.021806" lon="105.623816"><ele>1062.9</ele><time>2025-11-22T00:25:47.000Z</time></trkpt>
        <trkpt lat="28.021809" lon="105.623816"><ele>1062.9</ele><time>2025-11-22T00:25:48.000Z</time></trkpt>
        <trkpt lat="28.021812" lon="105.623817"><ele>1062.9</ele><time>2025-11-22T00:25:49.000Z</time></trkpt>
        <trkpt lat="28.021816" lon="105.623818"><ele>1062.9</ele><time>2025-11-22T00:25:50.000Z</time></trkpt>
        <trkpt lat="28.021819" lon="105.623818"><ele>1062.9</ele><time>2025-11-22T00:25:51.000Z</time></trkpt>
        <trkpt lat="28.021823" lon="105.623818"><ele>1064.1</ele><time>2025-11-22T00:25:52.000Z</time></trkpt>
        <trkpt lat="28.021828" lon="105.623818"><ele>1064.1</ele><time>2025-11-22T00:25:53.000Z</time></trkpt>
        <trkpt lat="28.021834" lon="105.623818"><ele>1064.1</ele><time>2025-11-22T00:25:54.000Z</time></trkpt>
        <trkpt lat="28.021841" lon="105.623819"><ele>1064.1</ele><time>2025-11-22T00:25:55.000Z</time></trkpt>
        <trkpt lat="28.021848" lon="105.62382"><ele>1064.1</ele><time>2025-11-22T00:25:56.000Z</time></trkpt>
        <trkpt lat="28.021855" lon="105.623822"><ele>1065.4</ele><time>2025-11-22T00:25:57.000Z</time></trkpt>
        <trkpt lat="28.021862" lon="105.623824"><ele>1065.4</ele><time>2025-11-22T00:25:58.000Z</time></trkpt>
        <trkpt lat="28.02187" lon="105.623826"><ele>1065.4</ele><time>2025-11-22T00:25:59.000Z</time></trkpt>
        <trkpt lat="28.021878" lon="105.623826"><ele>1065.4</ele><time>2025-11-22T00:26:00.000Z</time></trkpt>
        <trkpt lat="28.021887" lon="105.623827"><ele>1065.4</ele><time>2025-11-22T00:26:01.000Z</time></trkpt>
        <trkpt lat="28.021898" lon="105.62383"><ele>1066.3</ele><time>2025-11-22T00:26:02.000Z</time></trkpt>
        <trkpt lat="28.02191" lon="105.623835"><ele>1066.3</ele><time>2025-11-22T00:26:03.000Z</time></trkpt>
        <trkpt lat="28.021922" lon="105.623843"><ele>1066.3</ele><time>2025-11-22T00:26:04.000Z</time></trkpt>
        <trkpt lat="28.021934" lon="105.623853"><ele>1066.3</ele><time>2025-11-22T00:26:05.000Z</time></trkpt>
        <trkpt lat="28.021946" lon="105.623864"><ele>1066.3</ele><time>2025-11-22T00:26:06.000Z</time></trkpt>
        <trkpt lat="28.021957" lon="105.623872"><ele>1067.2</ele><time>2025-11-22T00:26:07.000Z</time></trkpt>
        <trkpt lat="28.021968" lon="105.623878"><ele>1067.2</ele><time>2025-11-22T00:26:08.000Z</time></trkpt>
        <trkpt lat="28.021979" lon="105.623881"><ele>1067.2</ele><time>2025-11-22T00:26:09.000Z</time></trkpt>
        <trkpt lat="28.021989" lon="105.623884"><ele>1067.2</ele><time>2025-11-22T00:26:10.000Z</time></trkpt>
        <trkpt lat="28.021998" lon="105.623888"><ele>1067.2</ele><time>2025-11-22T00:26:11.000Z</time></trkpt>
        <trkpt lat="28.022008" lon="105.62389"><ele>1067.5</ele><time>2025-11-22T00:26:12.000Z</time></trkpt>
        <trkpt lat="28.022017" lon="105.623892"><ele>1067.5</ele><time>2025-11-22T00:26:13.000Z</time></trkpt>
        <trkpt lat="28.022025" lon="105.623894"><ele>1067.5</ele><time>2025-11-22T00:26:14.000Z</time></trkpt>
        <trkpt lat="28.022034" lon="105.623894"><ele>1067.5</ele><time>2025-11-22T00:26:15.000Z</time></trkpt>
        <trkpt lat="28.022043" lon="105.623894"><ele>1067.5</ele><time>2025-11-22T00:26:16.000Z</time></trkpt>
        <trkpt lat="28.02205" lon="105.623895"><ele>1067.5</ele><time>2025-11-22T00:26:17.000Z</time></trkpt>
        <trkpt lat="28.022058" lon="105.623897"><ele>1067.5</ele><time>2025-11-22T00:26:18.000Z</time></trkpt>
        <trkpt lat="28.022066" lon="105.6239"><ele>1067.5</ele><time>2025-11-22T00:26:19.000Z</time></trkpt>
        <trkpt lat="28.022074" lon="105.623904"><ele>1067.5</ele><time>2025-11-22T00:26:20.000Z</time></trkpt>
        <trkpt lat="28.022081" lon="105.62391"><ele>1067.5</ele><time>2025-11-22T00:26:21.000Z</time></trkpt>
        <trkpt lat="28.02209" lon="105.623917"><ele>1067.7</ele><time>2025-11-22T00:26:22.000Z</time></trkpt>
        <trkpt lat="28.022098" lon="105.623926"><ele>1067.7</ele><time>2025-11-22T00:26:23.000Z</time></trkpt>
        <trkpt lat="28.022107" lon="105.623934"><ele>1067.7</ele><time>2025-11-22T00:26:24.000Z</time></trkpt>
        <trkpt lat="28.022115" lon="105.623942"><ele>1067.7</ele><time>2025-11-22T00:26:25.000Z</time></trkpt>
        <trkpt lat="28.022124" lon="105.623948"><ele>1067.7</ele><time>2025-11-22T00:26:26.000Z</time></trkpt>
        <trkpt lat="28.022132" lon="105.623953"><ele>1068.6</ele><time>2025-11-22T00:26:27.000Z</time></trkpt>
        <trkpt lat="28.022142" lon="105.623957"><ele>1068.6</ele><time>2025-11-22T00:26:28.000Z</time></trkpt>
        <trkpt lat="28.022151" lon="105.623961"><ele>1068.6</ele><time>2025-11-22T00:26:29.000Z</time></trkpt>
        <trkpt lat="28.022161" lon="105.623965"><ele>1068.6</ele><time>2025-11-22T00:26:30.000Z</time></trkpt>
        <trkpt lat="28.022171" lon="105.623969"><ele>1068.6</ele><time>2025-11-22T00:26:31.000Z</time></trkpt>
        <trkpt lat="28.022183" lon="105.623974"><ele>1069.3</ele><time>2025-11-22T00:26:32.000Z</time></trkpt>
        <trkpt lat="28.022194" lon="105.62398"><ele>1069.3</ele><time>2025-11-22T00:26:33.000Z</time></trkpt>
        <trkpt lat="28.022205" lon="105.623985"><ele>1069.3</ele><time>2025-11-22T00:26:34.000Z</time></trkpt>
        <trkpt lat="28.022215" lon="105.623989"><ele>1069.3</ele><time>2025-11-22T00:26:35.000Z</time></trkpt>
        <trkpt lat="28.022225" lon="105.623992"><ele>1069.3</ele><time>2025-11-22T00:26:36.000Z</time></trkpt>
        <trkpt lat="28.022234" lon="105.623995"><ele>1070.3</ele><time>2025-11-22T00:26:37.000Z</time></trkpt>
        <trkpt lat="28.022242" lon="105.623998"><ele>1070.3</ele><time>2025-11-22T00:26:38.000Z</time></trkpt>
        <trkpt lat="28.022251" lon="105.624001"><ele>1070.3</ele><time>2025-11-22T00:26:39.000Z</time></trkpt>
        <trkpt lat="28.02226" lon="105.624006"><ele>1070.3</ele><time>2025-11-22T00:26:40.000Z</time></trkpt>
        <trkpt lat="28.022268" lon="105.624011"><ele>1070.3</ele><time>2025-11-22T00:26:41.000Z</time></trkpt>
        <trkpt lat="28.022277" lon="105.624016"><ele>1071</ele><time>2025-11-22T00:26:42.000Z</time></trkpt>
        <trkpt lat="28.022284" lon="105.62402"><ele>1071</ele><time>2025-11-22T00:26:43.000Z</time></trkpt>
        <trkpt lat="28.022291" lon="105.624025"><ele>1071</ele><time>2025-11-22T00:26:44.000Z</time></trkpt>
        <trkpt lat="28.022299" lon="105.62403"><ele>1071</ele><time>2025-11-22T00:26:45.000Z</time></trkpt>
        <trkpt lat="28.022306" lon="105.624035"><ele>1071</ele><time>2025-11-22T00:26:46.000Z</time></trkpt>
        <trkpt lat="28.022313" lon="105.62404"><ele>1072.3</ele><time>2025-11-22T00:26:47.000Z</time></trkpt>
        <trkpt lat="28.022319" lon="105.624046"><ele>1072.3</ele><time>2025-11-22T00:26:48.000Z</time></trkpt>
        <trkpt lat="28.022326" lon="105.624051"><ele>1072.3</ele><time>2025-11-22T00:26:49.000Z</time></trkpt>
        <trkpt lat="28.022332" lon="105.624055"><ele>1072.3</ele><time>2025-11-22T00:26:50.000Z</time></trkpt>
        <trkpt lat="28.022338" lon="105.624061"><ele>1072.3</ele><time>2025-11-22T00:26:51.000Z</time></trkpt>
        <trkpt lat="28.022344" lon="105.624066"><ele>1073.5</ele><time>2025-11-22T00:26:52.000Z</time></trkpt>
        <trkpt lat="28.022352" lon="105.624072"><ele>1073.5</ele><time>2025-11-22T00:26:53.000Z</time></trkpt>
        <trkpt lat="28.022359" lon="105.62408"><ele>1073.5</ele><time>2025-11-22T00:26:54.000Z</time></trkpt>
        <trkpt lat="28.022367" lon="105.624086"><ele>1073.5</ele><time>2025-11-22T00:26:55.000Z</time></trkpt>
        <trkpt lat="28.022375" lon="105.624092"><ele>1073.5</ele><time>2025-11-22T00:26:56.000Z</time></trkpt>
        <trkpt lat="28.022383" lon="105.624098"><ele>1074.4</ele><time>2025-11-22T00:26:57.000Z</time></trkpt>
        <trkpt lat="28.02239" lon="105.624104"><ele>1074.4</ele><time>2025-11-22T00:26:58.000Z</time></trkpt>
        <trkpt lat="28.022397" lon="105.624109"><ele>1074.4</ele><time>2025-11-22T00:26:59.000Z</time></trkpt>
        <trkpt lat="28.022402" lon="105.624114"><ele>1074.4</ele><time>2025-11-22T00:27:00.000Z</time></trkpt>
        <trkpt lat="28.022408" lon="105.624118"><ele>1074.4</ele><time>2025-11-22T00:27:01.000Z</time></trkpt>
        <trkpt lat="28.022414" lon="105.624123"><ele>1075.4</ele><time>2025-11-22T00:27:02.000Z</time></trkpt>
        <trkpt lat="28.022421" lon="105.624128"><ele>1075.4</ele><time>2025-11-22T00:27:03.000Z</time></trkpt>
        <trkpt lat="28.022429" lon="105.624133"><ele>1075.4</ele><time>2025-11-22T00:27:04.000Z</time></trkpt>
        <trkpt lat="28.022437" lon="105.624141"><ele>1075.4</ele><time>2025-11-22T00:27:05.000Z</time></trkpt>
        <trkpt lat="28.022446" lon="105.624147"><ele>1075.4</ele><time>2025-11-22T00:27:06.000Z</time></trkpt>
        <trkpt lat="28.022455" lon="105.624152"><ele>1076.1</ele><time>2025-11-22T00:27:07.000Z</time></trkpt>
        <trkpt lat="28.022464" lon="105.624156"><ele>1076.1</ele><time>2025-11-22T00:27:08.000Z</time></trkpt>
        <trkpt lat="28.022473" lon="105.624158"><ele>1076.1</ele><time>2025-11-22T00:27:09.000Z</time></trkpt>
        <trkpt lat="28.022481" lon="105.62416"><ele>1076.1</ele><time>2025-11-22T00:27:10.000Z</time></trkpt>
        <trkpt lat="28.02249" lon="105.624161"><ele>1076.1</ele><time>2025-11-22T00:27:11.000Z</time></trkpt>
        <trkpt lat="28.022497" lon="105.624162"><ele>1077.1</ele><time>2025-11-22T00:27:12.000Z</time></trkpt>
        <trkpt lat="28.022503" lon="105.624161"><ele>1077.1</ele><time>2025-11-22T00:27:13.000Z</time></trkpt>
        <trkpt lat="28.022507" lon="105.624158"><ele>1077.1</ele><time>2025-11-22T00:27:14.000Z</time></trkpt>
        <trkpt lat="28.022511" lon="105.624153"><ele>1077.1</ele><time>2025-11-22T00:27:15.000Z</time></trkpt>
        <trkpt lat="28.022514" lon="105.624147"><ele>1077.1</ele><time>2025-11-22T00:27:16.000Z</time></trkpt>
        <trkpt lat="28.022518" lon="105.624139"><ele>1077.9</ele><time>2025-11-22T00:27:17.000Z</time></trkpt>
        <trkpt lat="28.022522" lon="105.624131"><ele>1077.9</ele><time>2025-11-22T00:27:18.000Z</time></trkpt>
        <trkpt lat="28.022527" lon="105.624123"><ele>1077.9</ele><time>2025-11-22T00:27:19.000Z</time></trkpt>
        <trkpt lat="28.022533" lon="105.624115"><ele>1077.9</ele><time>2025-11-22T00:27:20.000Z</time></trkpt>
        <trkpt lat="28.02254" lon="105.624107"><ele>1077.9</ele><time>2025-11-22T00:27:21.000Z</time></trkpt>
        <trkpt lat="28.022546" lon="105.6241"><ele>1079</ele><time>2025-11-22T00:27:22.000Z</time></trkpt>
        <trkpt lat="28.02255" lon="105.624093"><ele>1079</ele><time>2025-11-22T00:27:23.000Z</time></trkpt>
        <trkpt lat="28.022554" lon="105.624086"><ele>1079</ele><time>2025-11-22T00:27:24.000Z</time></trkpt>
        <trkpt lat="28.022558" lon="105.624078"><ele>1079</ele><time>2025-11-22T00:27:25.000Z</time></trkpt>
        <trkpt lat="28.022563" lon="105.62407"><ele>1079</ele><time>2025-11-22T00:27:26.000Z</time></trkpt>
        <trkpt lat="28.022568" lon="105.624061"><ele>1079.6</ele><time>2025-11-22T00:27:27.000Z</time></trkpt>
        <trkpt lat="28.022574" lon="105.624052"><ele>1079.6</ele><time>2025-11-22T00:27:28.000Z</time></trkpt>
        <trkpt lat="28.022581" lon="105.624041"><ele>1079.6</ele><time>2025-11-22T00:27:29.000Z</time></trkpt>
        <trkpt lat="28.022586" lon="105.624031"><ele>1079.6</ele><time>2025-11-22T00:27:30.000Z</time></trkpt>
        <trkpt lat="28.022592" lon="105.624022"><ele>1079.6</ele><time>2025-11-22T00:27:31.000Z</time></trkpt>
        <trkpt lat="28.022598" lon="105.624012"><ele>1080.1</ele><time>2025-11-22T00:27:32.000Z</time></trkpt>
        <trkpt lat="28.022602" lon="105.624002"><ele>1080.1</ele><time>2025-11-22T00:27:33.000Z</time></trkpt>
        <trkpt lat="28.022606" lon="105.623992"><ele>1080.1</ele><time>2025-11-22T00:27:34.000Z</time></trkpt>
        <trkpt lat="28.02261" lon="105.623983"><ele>1080.1</ele><time>2025-11-22T00:27:35.000Z</time></trkpt>
        <trkpt lat="28.022615" lon="105.623973"><ele>1080.1</ele><time>2025-11-22T00:27:36.000Z</time></trkpt>
        <trkpt lat="28.02262" lon="105.623962"><ele>1080.3</ele><time>2025-11-22T00:27:37.000Z</time></trkpt>
        <trkpt lat="28.022625" lon="105.623953"><ele>1080.3</ele><time>2025-11-22T00:27:38.000Z</time></trkpt>
        <trkpt lat="28.02263" lon="105.623945"><ele>1080.3</ele><time>2025-11-22T00:27:39.000Z</time></trkpt>
        <trkpt lat="28.022634" lon="105.623938"><ele>1080.3</ele><time>2025-11-22T00:27:40.000Z</time></trkpt>
        <trkpt lat="28.022637" lon="105.623932"><ele>1080.3</ele><time>2025-11-22T00:27:41.000Z</time></trkpt>
        <trkpt lat="28.022639" lon="105.623928"><ele>1080.3</ele><time>2025-11-22T00:27:42.000Z</time></trkpt>
        <trkpt lat="28.022641" lon="105.623923"><ele>1080.3</ele><time>2025-11-22T00:27:43.000Z</time></trkpt>
        <trkpt lat="28.022644" lon="105.623917"><ele>1080.3</ele><time>2025-11-22T00:27:44.000Z</time></trkpt>
        <trkpt lat="28.022648" lon="105.62391"><ele>1080.3</ele><time>2025-11-22T00:27:45.000Z</time></trkpt>
        <trkpt lat="28.022652" lon="105.623902"><ele>1080.3</ele><time>2025-11-22T00:27:46.000Z</time></trkpt>
        <trkpt lat="28.022658" lon="105.623893"><ele>1080.3</ele><time>2025-11-22T00:27:47.000Z</time></trkpt>
        <trkpt lat="28.022663" lon="105.623886"><ele>1080.3</ele><time>2025-11-22T00:27:48.000Z</time></trkpt>
        <trkpt lat="28.022668" lon="105.623878"><ele>1080.3</ele><time>2025-11-22T00:27:49.000Z</time></trkpt>
        <trkpt lat="28.022673" lon="105.623872"><ele>1080.3</ele><time>2025-11-22T00:27:50.000Z</time></trkpt>
        <trkpt lat="28.022676" lon="105.623865"><ele>1080.3</ele><time>2025-11-22T00:27:51.000Z</time></trkpt>
        <trkpt lat="28.022677" lon="105.623856"><ele>1080.5</ele><time>2025-11-22T00:27:52.000Z</time></trkpt>
        <trkpt lat="28.022678" lon="105.623847"><ele>1080.5</ele><time>2025-11-22T00:27:53.000Z</time></trkpt>
        <trkpt lat="28.022679" lon="105.623837"><ele>1080.5</ele><time>2025-11-22T00:27:54.000Z</time></trkpt>
        <trkpt lat="28.022679" lon="105.623827"><ele>1080.5</ele><time>2025-11-22T00:27:55.000Z</time></trkpt>
        <trkpt lat="28.022679" lon="105.623818"><ele>1080.5</ele><time>2025-11-22T00:27:56.000Z</time></trkpt>
        <trkpt lat="28.02268" lon="105.62381"><ele>1080.5</ele><time>2025-11-22T00:27:57.000Z</time></trkpt>
        <trkpt lat="28.02268" lon="105.623803"><ele>1080.5</ele><time>2025-11-22T00:27:58.000Z</time></trkpt>
        <trkpt lat="28.02268" lon="105.623797"><ele>1080.5</ele><time>2025-11-22T00:27:59.000Z</time></trkpt>
        <trkpt lat="28.022681" lon="105.623789"><ele>1080.5</ele><time>2025-11-22T00:28:00.000Z</time></trkpt>
        <trkpt lat="28.022682" lon="105.623782"><ele>1080.5</ele><time>2025-11-22T00:28:01.000Z</time></trkpt>
        <trkpt lat="28.022683" lon="105.623772"><ele>1080.3</ele><time>2025-11-22T00:28:02.000Z</time></trkpt>
        <trkpt lat="28.022684" lon="105.623761"><ele>1080.3</ele><time>2025-11-22T00:28:03.000Z</time></trkpt>
        <trkpt lat="28.022685" lon="105.623748"><ele>1080.3</ele><time>2025-11-22T00:28:04.000Z</time></trkpt>
        <trkpt lat="28.022686" lon="105.623737"><ele>1080.3</ele><time>2025-11-22T00:28:05.000Z</time></trkpt>
        <trkpt lat="28.022686" lon="105.623724"><ele>1080.3</ele><time>2025-11-22T00:28:06.000Z</time></trkpt>
        <trkpt lat="28.022686" lon="105.623711"><ele>1080</ele><time>2025-11-22T00:28:07.000Z</time></trkpt>
        <trkpt lat="28.022685" lon="105.623699"><ele>1080</ele><time>2025-11-22T00:28:08.000Z</time></trkpt>
        <trkpt lat="28.022684" lon="105.623686"><ele>1080</ele><time>2025-11-22T00:28:09.000Z</time></trkpt>
        <trkpt lat="28.022682" lon="105.623675"><ele>1080</ele><time>2025-11-22T00:28:10.000Z</time></trkpt>
        <trkpt lat="28.022681" lon="105.623663"><ele>1080</ele><time>2025-11-22T00:28:11.000Z</time></trkpt>
        <trkpt lat="28.02268" lon="105.623652"><ele>1079.8</ele><time>2025-11-22T00:28:12.000Z</time></trkpt>
        <trkpt lat="28.022678" lon="105.623641"><ele>1079.8</ele><time>2025-11-22T00:28:13.000Z</time></trkpt>
        <trkpt lat="28.022678" lon="105.623631"><ele>1079.8</ele><time>2025-11-22T00:28:14.000Z</time></trkpt>
        <trkpt lat="28.022677" lon="105.62362"><ele>1079.8</ele><time>2025-11-22T00:28:15.000Z</time></trkpt>
        <trkpt lat="28.022677" lon="105.623608"><ele>1079.8</ele><time>2025-11-22T00:28:16.000Z</time></trkpt>
        <trkpt lat="28.022676" lon="105.623597"><ele>1079.3</ele><time>2025-11-22T00:28:17.000Z</time></trkpt>
        <trkpt lat="28.022674" lon="105.623585"><ele>1079.3</ele><time>2025-11-22T00:28:18.000Z</time></trkpt>
        <trkpt lat="28.022671" lon="105.623573"><ele>1079.3</ele><time>2025-11-22T00:28:19.000Z</time></trkpt>
        <trkpt lat="28.022668" lon="105.623561"><ele>1079.3</ele><time>2025-11-22T00:28:20.000Z</time></trkpt>
        <trkpt lat="28.022664" lon="105.623549"><ele>1079.3</ele><time>2025-11-22T00:28:21.000Z</time></trkpt>
        <trkpt lat="28.022661" lon="105.623537"><ele>1078.8</ele><time>2025-11-22T00:28:22.000Z</time></trkpt>
        <trkpt lat="28.022657" lon="105.623524"><ele>1078.8</ele><time>2025-11-22T00:28:23.000Z</time></trkpt>
        <trkpt lat="28.022654" lon="105.623512"><ele>1078.8</ele><time>2025-11-22T00:28:24.000Z</time></trkpt>
        <trkpt lat="28.02265" lon="105.6235"><ele>1078.8</ele><time>2025-11-22T00:28:25.000Z</time></trkpt>
        <trkpt lat="28.022646" lon="105.623489"><ele>1078.8</ele><time>2025-11-22T00:28:26.000Z</time></trkpt>
        <trkpt lat="28.022641" lon="105.623477"><ele>1078.6</ele><time>2025-11-22T00:28:27.000Z</time></trkpt>
        <trkpt lat="28.022634" lon="105.623464"><ele>1078.6</ele><time>2025-11-22T00:28:28.000Z</time></trkpt>
        <trkpt lat="28.022628" lon="105.623451"><ele>1078.6</ele><time>2025-11-22T00:28:29.000Z</time></trkpt>
        <trkpt lat="28.022622" lon="105.623439"><ele>1078.6</ele><time>2025-11-22T00:28:30.000Z</time></trkpt>
        <trkpt lat="28.022617" lon="105.623425"><ele>1078.6</ele><time>2025-11-22T00:28:31.000Z</time></trkpt>
        <trkpt lat="28.022612" lon="105.623412"><ele>1078.4</ele><time>2025-11-22T00:28:32.000Z</time></trkpt>
        <trkpt lat="28.022608" lon="105.623399"><ele>1078.4</ele><time>2025-11-22T00:28:33.000Z</time></trkpt>
        <trkpt lat="28.022605" lon="105.623386"><ele>1078.4</ele><time>2025-11-22T00:28:34.000Z</time></trkpt>
        <trkpt lat="28.022602" lon="105.623372"><ele>1078.4</ele><time>2025-11-22T00:28:35.000Z</time></trkpt>
        <trkpt lat="28.022599" lon="105.623358"><ele>1078.4</ele><time>2025-11-22T00:28:36.000Z</time></trkpt>
        <trkpt lat="28.022597" lon="105.623344"><ele>1078.2</ele><time>2025-11-22T00:28:37.000Z</time></trkpt>
        <trkpt lat="28.022595" lon="105.623329"><ele>1078.2</ele><time>2025-11-22T00:28:38.000Z</time></trkpt>
        <trkpt lat="28.022593" lon="105.623313"><ele>1078.2</ele><time>2025-11-22T00:28:39.000Z</time></trkpt>
        <trkpt lat="28.022592" lon="105.623298"><ele>1078.2</ele><time>2025-11-22T00:28:40.000Z</time></trkpt>
        <trkpt lat="28.02259" lon="105.623283"><ele>1078.2</ele><time>2025-11-22T00:28:41.000Z</time></trkpt>
        <trkpt lat="28.022588" lon="105.623269"><ele>1078.2</ele><time>2025-11-22T00:28:42.000Z</time></trkpt>
        <trkpt lat="28.022586" lon="105.623254"><ele>1078.2</ele><time>2025-11-22T00:28:43.000Z</time></trkpt>
        <trkpt lat="28.022583" lon="105.62324"><ele>1078.2</ele><time>2025-11-22T00:28:44.000Z</time></trkpt>
        <trkpt lat="28.022579" lon="105.623226"><ele>1078.2</ele><time>2025-11-22T00:28:45.000Z</time></trkpt>
        <trkpt lat="28.022575" lon="105.623214"><ele>1078.2</ele><time>2025-11-22T00:28:46.000Z</time></trkpt>
        <trkpt lat="28.022572" lon="105.623201"><ele>1078.4</ele><time>2025-11-22T00:28:47.000Z</time></trkpt>
        <trkpt lat="28.022569" lon="105.623189"><ele>1078.4</ele><time>2025-11-22T00:28:48.000Z</time></trkpt>
        <trkpt lat="28.022567" lon="105.623176"><ele>1078.4</ele><time>2025-11-22T00:28:49.000Z</time></trkpt>
        <trkpt lat="28.022566" lon="105.623163"><ele>1078.4</ele><time>2025-11-22T00:28:50.000Z</time></trkpt>
        <trkpt lat="28.022566" lon="105.623149"><ele>1078.4</ele><time>2025-11-22T00:28:51.000Z</time></trkpt>
        <trkpt lat="28.022567" lon="105.623135"><ele>1078.7</ele><time>2025-11-22T00:28:52.000Z</time></trkpt>
        <trkpt lat="28.022568" lon="105.623122"><ele>1078.7</ele><time>2025-11-22T00:28:53.000Z</time></trkpt>
        <trkpt lat="28.022569" lon="105.623109"><ele>1078.7</ele><time>2025-11-22T00:28:54.000Z</time></trkpt>
        <trkpt lat="28.022571" lon="105.623097"><ele>1078.7</ele><time>2025-11-22T00:28:55.000Z</time></trkpt>
        <trkpt lat="28.022572" lon="105.623085"><ele>1078.7</ele><time>2025-11-22T00:28:56.000Z</time></trkpt>
        <trkpt lat="28.022572" lon="105.623073"><ele>1078.7</ele><time>2025-11-22T00:28:57.000Z</time></trkpt>
        <trkpt lat="28.022571" lon="105.623062"><ele>1078.7</ele><time>2025-11-22T00:28:58.000Z</time></trkpt>
        <trkpt lat="28.02257" lon="105.623051"><ele>1078.7</ele><time>2025-11-22T00:28:59.000Z</time></trkpt>
        <trkpt lat="28.022569" lon="105.62304"><ele>1078.7</ele><time>2025-11-22T00:29:00.000Z</time></trkpt>
        <trkpt lat="28.022567" lon="105.623029"><ele>1078.7</ele><time>2025-11-22T00:29:01.000Z</time></trkpt>
        <trkpt lat="28.022565" lon="105.623018"><ele>1078.7</ele><time>2025-11-22T00:29:02.000Z</time></trkpt>
        <trkpt lat="28.022562" lon="105.623006"><ele>1078.7</ele><time>2025-11-22T00:29:03.000Z</time></trkpt>
        <trkpt lat="28.02256" lon="105.622994"><ele>1078.7</ele><time>2025-11-22T00:29:04.000Z</time></trkpt>
        <trkpt lat="28.022558" lon="105.622981"><ele>1078.7</ele><time>2025-11-22T00:29:05.000Z</time></trkpt>
        <trkpt lat="28.022556" lon="105.622968"><ele>1078.7</ele><time>2025-11-22T00:29:06.000Z</time></trkpt>
        <trkpt lat="28.022555" lon="105.622956"><ele>1078.7</ele><time>2025-11-22T00:29:07.000Z</time></trkpt>
        <trkpt lat="28.022554" lon="105.622943"><ele>1078.7</ele><time>2025-11-22T00:29:08.000Z</time></trkpt>
        <trkpt lat="28.022554" lon="105.62293"><ele>1078.7</ele><time>2025-11-22T00:29:09.000Z</time></trkpt>
        <trkpt lat="28.022553" lon="105.622917"><ele>1078.7</ele><time>2025-11-22T00:29:10.000Z</time></trkpt>
        <trkpt lat="28.022553" lon="105.622904"><ele>1078.7</ele><time>2025-11-22T00:29:11.000Z</time></trkpt>
        <trkpt lat="28.022554" lon="105.62289"><ele>1078.2</ele><time>2025-11-22T00:29:12.000Z</time></trkpt>
        <trkpt lat="28.022554" lon="105.622876"><ele>1078.2</ele><time>2025-11-22T00:29:13.000Z</time></trkpt>
        <trkpt lat="28.022555" lon="105.622861"><ele>1078.2</ele><time>2025-11-22T00:29:14.000Z</time></trkpt>
        <trkpt lat="28.022554" lon="105.622847"><ele>1078.2</ele><time>2025-11-22T00:29:15.000Z</time></trkpt>
        <trkpt lat="28.022552" lon="105.622833"><ele>1078.2</ele><time>2025-11-22T00:29:16.000Z</time></trkpt>
        <trkpt lat="28.022551" lon="105.62282"><ele>1077.9</ele><time>2025-11-22T00:29:17.000Z</time></trkpt>
        <trkpt lat="28.02255" lon="105.622806"><ele>1077.9</ele><time>2025-11-22T00:29:18.000Z</time></trkpt>
        <trkpt lat="28.02255" lon="105.622792"><ele>1077.9</ele><time>2025-11-22T00:29:19.000Z</time></trkpt>
        <trkpt lat="28.02255" lon="105.622777"><ele>1077.9</ele><time>2025-11-22T00:29:20.000Z</time></trkpt>
        <trkpt lat="28.022551" lon="105.622761"><ele>1077.9</ele><time>2025-11-22T00:29:21.000Z</time></trkpt>
        <trkpt lat="28.022552" lon="105.622746"><ele>1077.4</ele><time>2025-11-22T00:29:22.000Z</time></trkpt>
        <trkpt lat="28.022553" lon="105.622731"><ele>1077.4</ele><time>2025-11-22T00:29:23.000Z</time></trkpt>
        <trkpt lat="28.022553" lon="105.622717"><ele>1077.4</ele><time>2025-11-22T00:29:24.000Z</time></trkpt>
        <trkpt lat="28.022554" lon="105.622703"><ele>1077.4</ele><time>2025-11-22T00:29:25.000Z</time></trkpt>
        <trkpt lat="28.022554" lon="105.622691"><ele>1077.4</ele><time>2025-11-22T00:29:26.000Z</time></trkpt>
        <trkpt lat="28.022554" lon="105.622678"><ele>1076.9</ele><time>2025-11-22T00:29:27.000Z</time></trkpt>
        <trkpt lat="28.022553" lon="105.622664"><ele>1076.9</ele><time>2025-11-22T00:29:28.000Z</time></trkpt>
        <trkpt lat="28.022552" lon="105.622651"><ele>1076.9</ele><time>2025-11-22T00:29:29.000Z</time></trkpt>
        <trkpt lat="28.022552" lon="105.622637"><ele>1076.9</ele><time>2025-11-22T00:29:30.000Z</time></trkpt>
        <trkpt lat="28.02255" lon="105.622622"><ele>1076.9</ele><time>2025-11-22T00:29:31.000Z</time></trkpt>
        <trkpt lat="28.02255" lon="105.622608"><ele>1076.7</ele><time>2025-11-22T00:29:32.000Z</time></trkpt>
        <trkpt lat="28.022549" lon="105.622595"><ele>1076.7</ele><time>2025-11-22T00:29:33.000Z</time></trkpt>
        <trkpt lat="28.022548" lon="105.622581"><ele>1076.7</ele><time>2025-11-22T00:29:34.000Z</time></trkpt>
        <trkpt lat="28.022546" lon="105.622569"><ele>1076.7</ele><time>2025-11-22T00:29:35.000Z</time></trkpt>
        <trkpt lat="28.022544" lon="105.622557"><ele>1076.7</ele><time>2025-11-22T00:29:36.000Z</time></trkpt>
        <trkpt lat="28.022542" lon="105.622544"><ele>1076.7</ele><time>2025-11-22T00:29:37.000Z</time></trkpt>
        <trkpt lat="28.02254" lon="105.622532"><ele>1076.7</ele><time>2025-11-22T00:29:38.000Z</time></trkpt>
        <trkpt lat="28.022539" lon="105.62252"><ele>1076.7</ele><time>2025-11-22T00:29:39.000Z</time></trkpt>
        <trkpt lat="28.022538" lon="105.622507"><ele>1076.7</ele><time>2025-11-22T00:29:40.000Z</time></trkpt>
        <trkpt lat="28.022538" lon="105.622495"><ele>1076.7</ele><time>2025-11-22T00:29:41.000Z</time></trkpt>
        <trkpt lat="28.022538" lon="105.622483"><ele>1076.5</ele><time>2025-11-22T00:29:42.000Z</time></trkpt>
        <trkpt lat="28.022539" lon="105.62247"><ele>1076.5</ele><time>2025-11-22T00:29:43.000Z</time></trkpt>
        <trkpt lat="28.02254" lon="105.622458"><ele>1076.5</ele><time>2025-11-22T00:29:44.000Z</time></trkpt>
        <trkpt lat="28.022542" lon="105.622445"><ele>1076.5</ele><time>2025-11-22T00:29:45.000Z</time></trkpt>
        <trkpt lat="28.022543" lon="105.622434"><ele>1076.5</ele><time>2025-11-22T00:29:46.000Z</time></trkpt>
        <trkpt lat="28.022544" lon="105.622423"><ele>1076.5</ele><time>2025-11-22T00:29:47.000Z</time></trkpt>
        <trkpt lat="28.022545" lon="105.622412"><ele>1076.5</ele><time>2025-11-22T00:29:48.000Z</time></trkpt>
        <trkpt lat="28.022547" lon="105.622401"><ele>1076.5</ele><time>2025-11-22T00:29:49.000Z</time></trkpt>
        <trkpt lat="28.022547" lon="105.62239"><ele>1076.5</ele><time>2025-11-22T00:29:50.000Z</time></trkpt>
        <trkpt lat="28.022548" lon="105.622379"><ele>1076.5</ele><time>2025-11-22T00:29:51.000Z</time></trkpt>
        <trkpt lat="28.02255" lon="105.622369"><ele>1076.2</ele><time>2025-11-22T00:29:52.000Z</time></trkpt>
        <trkpt lat="28.022552" lon="105.622357"><ele>1076.2</ele><time>2025-11-22T00:29:53.000Z</time></trkpt>
        <trkpt lat="28.022554" lon="105.622346"><ele>1076.2</ele><time>2025-11-22T00:29:54.000Z</time></trkpt>
        <trkpt lat="28.022556" lon="105.622335"><ele>1076.2</ele><time>2025-11-22T00:29:55.000Z</time></trkpt>
        <trkpt lat="28.022559" lon="105.622326"><ele>1076.2</ele><time>2025-11-22T00:29:56.000Z</time></trkpt>
        <trkpt lat="28.022562" lon="105.622317"><ele>1076</ele><time>2025-11-22T00:29:57.000Z</time></trkpt>
        <trkpt lat="28.022564" lon="105.622309"><ele>1076</ele><time>2025-11-22T00:29:58.000Z</time></trkpt>
        <trkpt lat="28.022567" lon="105.622302"><ele>1076</ele><time>2025-11-22T00:29:59.000Z</time></trkpt>
        <trkpt lat="28.02257" lon="105.622296"><ele>1076</ele><time>2025-11-22T00:30:00.000Z</time></trkpt>
        <trkpt lat="28.022572" lon="105.62229"><ele>1076</ele><time>2025-11-22T00:30:01.000Z</time></trkpt>
        <trkpt lat="28.022574" lon="105.622285"><ele>1075.8</ele><time>2025-11-22T00:30:02.000Z</time></trkpt>
        <trkpt lat="28.022576" lon="105.622282"><ele>1075.8</ele><time>2025-11-22T00:30:03.000Z</time></trkpt>
        <trkpt lat="28.022578" lon="105.62228"><ele>1075.8</ele><time>2025-11-22T00:30:04.000Z</time></trkpt>
        <trkpt lat="28.02258" lon="105.622279"><ele>1075.8</ele><time>2025-11-22T00:30:05.000Z</time></trkpt>
        <trkpt lat="28.022583" lon="105.622278"><ele>1075.8</ele><time>2025-11-22T00:30:06.000Z</time></trkpt>
        <trkpt lat="28.022585" lon="105.622278"><ele>1075.6</ele><time>2025-11-22T00:30:07.000Z</time></trkpt>
        <trkpt lat="28.022586" lon="105.622278"><ele>1075.6</ele><time>2025-11-22T00:30:08.000Z</time></trkpt>
        <trkpt lat="28.022587" lon="105.622278"><ele>1075.6</ele><time>2025-11-22T00:30:09.000Z</time></trkpt>
        <trkpt lat="28.022588" lon="105.622278"><ele>1075.6</ele><time>2025-11-22T00:30:10.000Z</time></trkpt>
        <trkpt lat="28.022588" lon="105.622278"><ele>1075.6</ele><time>2025-11-22T00:30:11.000Z</time></trkpt>
        <trkpt lat="28.022588" lon="105.622278"><ele>1075.6</ele><time>2025-11-22T00:30:12.000Z</time></trkpt>
        <trkpt lat="28.022588" lon="105.622278"><ele>1075.6</ele><time>2025-11-22T00:30:13.000Z</time></trkpt>
        <trkpt lat="28.022588" lon="105.622278"><ele>1075.6</ele><time>2025-11-22T00:30:14.000Z</time></trkpt>
        <trkpt lat="28.022589" lon="105.622276"><ele>1075.6</ele><time>2025-11-22T00:30:15.000Z</time></trkpt>
        <trkpt lat="28.022591" lon="105.622273"><ele>1075.6</ele><time>2025-11-22T00:30:16.000Z</time></trkpt>
        <trkpt lat="28.022594" lon="105.622268"><ele>1075.6</ele><time>2025-11-22T00:30:17.000Z</time></trkpt>
        <trkpt lat="28.022599" lon="105.622263"><ele>1075.6</ele><time>2025-11-22T00:30:18.000Z</time></trkpt>
        <trkpt lat="28.022604" lon="105.622255"><ele>1075.6</ele><time>2025-11-22T00:30:19.000Z</time></trkpt>
        <trkpt lat="28.022609" lon="105.622249"><ele>1075.6</ele><time>2025-11-22T00:30:20.000Z</time></trkpt>
        <trkpt lat="28.022614" lon="105.622241"><ele>1075.6</ele><time>2025-11-22T00:30:21.000Z</time></trkpt>
        <trkpt lat="28.022619" lon="105.622233"><ele>1075.6</ele><time>2025-11-22T00:30:22.000Z</time></trkpt>
        <trkpt lat="28.022623" lon="105.622223"><ele>1075.6</ele><time>2025-11-22T00:30:23.000Z</time></trkpt>
        <trkpt lat="28.022627" lon="105.622214"><ele>1075.6</ele><time>2025-11-22T00:30:24.000Z</time></trkpt>
        <trkpt lat="28.022632" lon="105.622205"><ele>1075.6</ele><time>2025-11-22T00:30:25.000Z</time></trkpt>
        <trkpt lat="28.022635" lon="105.622197"><ele>1075.6</ele><time>2025-11-22T00:30:26.000Z</time></trkpt>
        <trkpt lat="28.022639" lon="105.622191"><ele>1075.4</ele><time>2025-11-22T00:30:27.000Z</time></trkpt>
        <trkpt lat="28.022642" lon="105.622184"><ele>1075.4</ele><time>2025-11-22T00:30:28.000Z</time></trkpt>
        <trkpt lat="28.022644" lon="105.622177"><ele>1075.4</ele><time>2025-11-22T00:30:29.000Z</time></trkpt>
        <trkpt lat="28.022645" lon="105.622172"><ele>1075.4</ele><time>2025-11-22T00:30:30.000Z</time></trkpt>
        <trkpt lat="28.022647" lon="105.622167"><ele>1075.4</ele><time>2025-11-22T00:30:31.000Z</time></trkpt>
        <trkpt lat="28.02265" lon="105.622163"><ele>1074.7</ele><time>2025-11-22T00:30:32.000Z</time></trkpt>
        <trkpt lat="28.022653" lon="105.62216"><ele>1074.7</ele><time>2025-11-22T00:30:33.000Z</time></trkpt>
        <trkpt lat="28.022656" lon="105.622159"><ele>1074.7</ele><time>2025-11-22T00:30:34.000Z</time></trkpt>
        <trkpt lat="28.022659" lon="105.622159"><ele>1074.7</ele><time>2025-11-22T00:30:35.000Z</time></trkpt>
        <trkpt lat="28.022662" lon="105.622158"><ele>1074.7</ele><time>2025-11-22T00:30:36.000Z</time></trkpt>
        <trkpt lat="28.022663" lon="105.622158"><ele>1074.2</ele><time>2025-11-22T00:30:37.000Z</time></trkpt>
        <trkpt lat="28.022664" lon="105.622159"><ele>1074.2</ele><time>2025-11-22T00:30:38.000Z</time></trkpt>
        <trkpt lat="28.022664" lon="105.62216"><ele>1074.2</ele><time>2025-11-22T00:30:39.000Z</time></trkpt>
        <trkpt lat="28.022664" lon="105.622161"><ele>1074.2</ele><time>2025-11-22T00:30:40.000Z</time></trkpt>
        <trkpt lat="28.022665" lon="105.622162"><ele>1074.2</ele><time>2025-11-22T00:30:41.000Z</time></trkpt>
        <trkpt lat="28.022665" lon="105.622162"><ele>1073.4</ele><time>2025-11-22T00:30:42.000Z</time></trkpt>
        <trkpt lat="28.022666" lon="105.622163"><ele>1073.4</ele><time>2025-11-22T00:30:43.000Z</time></trkpt>
        <trkpt lat="28.022666" lon="105.622163"><ele>1073.4</ele><time>2025-11-22T00:30:44.000Z</time></trkpt>
        <trkpt lat="28.022666" lon="105.622163"><ele>1073.4</ele><time>2025-11-22T00:30:45.000Z</time></trkpt>
        <trkpt lat="28.022666" lon="105.622163"><ele>1073.4</ele><time>2025-11-22T00:30:46.000Z</time></trkpt>
        <trkpt lat="28.022666" lon="105.622163"><ele>1073</ele><time>2025-11-22T00:30:47.000Z</time></trkpt>
        <trkpt lat="28.022666" lon="105.622164"><ele>1073</ele><time>2025-11-22T00:30:48.000Z</time></trkpt>
        <trkpt lat="28.022666" lon="105.622164"><ele>1073</ele><time>2025-11-22T00:30:49.000Z</time></trkpt>
        <trkpt lat="28.022666" lon="105.622165"><ele>1073</ele><time>2025-11-22T00:30:50.000Z</time></trkpt>
        <trkpt lat="28.022667" lon="105.622165"><ele>1073</ele><time>2025-11-22T00:30:51.000Z</time></trkpt>
        <trkpt lat="28.022667" lon="105.622166"><ele>1073</ele><time>2025-11-22T00:30:52.000Z</time></trkpt>
        <trkpt lat="28.022667" lon="105.622166"><ele>1073</ele><time>2025-11-22T00:30:53.000Z</time></trkpt>
        <trkpt lat="28.022667" lon="105.622166"><ele>1073</ele><time>2025-11-22T00:30:54.000Z</time></trkpt>
        <trkpt lat="28.022667" lon="105.622166"><ele>1073</ele><time>2025-11-22T00:30:55.000Z</time></trkpt>
        <trkpt lat="28.022667" lon="105.622166"><ele>1073</ele><time>2025-11-22T00:30:56.000Z</time></trkpt>
        <trkpt lat="28.022668" lon="105.622165"><ele>1073</ele><time>2025-11-22T00:30:57.000Z</time></trkpt>
        <trkpt lat="28.022668" lon="105.622165"><ele>1073</ele><time>2025-11-22T00:30:58.000Z</time></trkpt>
        <trkpt lat="28.022668" lon="105.622164"><ele>1073</ele><time>2025-11-22T00:30:59.000Z</time></trkpt>
        <trkpt lat="28.022668" lon="105.622164"><ele>1073</ele><time>2025-11-22T00:31:00.000Z</time></trkpt>
        <trkpt lat="28.022669" lon="105.622164"><ele>1073</ele><time>2025-11-22T00:31:01.000Z</time></trkpt>
        <trkpt lat="28.022669" lon="105.622164"><ele>1073</ele><time>2025-11-22T00:31:02.000Z</time></trkpt>
        <trkpt lat="28.022669" lon="105.622164"><ele>1073</ele><time>2025-11-22T00:31:03.000Z</time></trkpt>
        <trkpt lat="28.022669" lon="105.622165"><ele>1073</ele><time>2025-11-22T00:31:04.000Z</time></trkpt>
        <trkpt lat="28.022669" lon="105.622165"><ele>1073</ele><time>2025-11-22T00:31:05.000Z</time></trkpt>
        <trkpt lat="28.022669" lon="105.622165"><ele>1073</ele><time>2025-11-22T00:31:06.000Z</time></trkpt>
        <trkpt lat="28.022669" lon="105.622165"><ele>1073</ele><time>2025-11-22T00:31:07.000Z</time></trkpt>
        <trkpt lat="28.022668" lon="105.622164"><ele>1073</ele><time>2025-11-22T00:31:08.000Z</time></trkpt>
        <trkpt lat="28.022669" lon="105.622163"><ele>1073</ele><time>2025-11-22T00:31:09.000Z</time></trkpt>
        <trkpt lat="28.022669" lon="105.622163"><ele>1073</ele><time>2025-11-22T00:31:10.000Z</time></trkpt>
        <trkpt lat="28.022669" lon="105.622162"><ele>1073</ele><time>2025-11-22T00:31:11.000Z</time></trkpt>
        <trkpt lat="28.022669" lon="105.622161"><ele>1072.7</ele><time>2025-11-22T00:31:12.000Z</time></trkpt>
        <trkpt lat="28.022669" lon="105.622161"><ele>1072.7</ele><time>2025-11-22T00:31:13.000Z</time></trkpt>
        <trkpt lat="28.022669" lon="105.622161"><ele>1072.7</ele><time>2025-11-22T00:31:14.000Z</time></trkpt>
        <trkpt lat="28.022669" lon="105.622161"><ele>1072.7</ele><time>2025-11-22T00:31:15.000Z</time></trkpt>
        <trkpt lat="28.022669" lon="105.622161"><ele>1072.7</ele><time>2025-11-22T00:31:16.000Z</time></trkpt>
        <trkpt lat="28.022669" lon="105.622161"><ele>1072.7</ele><time>2025-11-22T00:31:17.000Z</time></trkpt>
        <trkpt lat="28.022669" lon="105.622161"><ele>1072.7</ele><time>2025-11-22T00:31:18.000Z</time></trkpt>
        <trkpt lat="28.022669" lon="105.622161"><ele>1072.7</ele><time>2025-11-22T00:31:19.000Z</time></trkpt>
        <trkpt lat="28.022669" lon="105.622161"><ele>1072.7</ele><time>2025-11-22T00:31:20.000Z</time></trkpt>
        <trkpt lat="28.02267" lon="105.62216"><ele>1072.7</ele><time>2025-11-22T00:31:21.000Z</time></trkpt>
        <trkpt lat="28.022671" lon="105.622158"><ele>1072.7</ele><time>2025-11-22T00:31:22.000Z</time></trkpt>
        <trkpt lat="28.022674" lon="105.622153"><ele>1072.7</ele><time>2025-11-22T00:31:23.000Z</time></trkpt>
        <trkpt lat="28.022678" lon="105.622148"><ele>1072.7</ele><time>2025-11-22T00:31:24.000Z</time></trkpt>
        <trkpt lat="28.022683" lon="105.622141"><ele>1072.7</ele><time>2025-11-22T00:31:25.000Z</time></trkpt>
        <trkpt lat="28.022686" lon="105.622134"><ele>1072.7</ele><time>2025-11-22T00:31:26.000Z</time></trkpt>
        <trkpt lat="28.022689" lon="105.622129"><ele>1072.7</ele><time>2025-11-22T00:31:27.000Z</time></trkpt>
        <trkpt lat="28.022691" lon="105.622125"><ele>1072.7</ele><time>2025-11-22T00:31:28.000Z</time></trkpt>
        <trkpt lat="28.022691" lon="105.622123"><ele>1072.7</ele><time>2025-11-22T00:31:29.000Z</time></trkpt>
        <trkpt lat="28.022691" lon="105.622121"><ele>1072.7</ele><time>2025-11-22T00:31:30.000Z</time></trkpt>
        <trkpt lat="28.022692" lon="105.622118"><ele>1072.7</ele><time>2025-11-22T00:31:31.000Z</time></trkpt>
        <trkpt lat="28.022694" lon="105.622115"><ele>1072.7</ele><time>2025-11-22T00:31:32.000Z</time></trkpt>
        <trkpt lat="28.022697" lon="105.622111"><ele>1072.7</ele><time>2025-11-22T00:31:33.000Z</time></trkpt>
        <trkpt lat="28.022702" lon="105.622105"><ele>1072.7</ele><time>2025-11-22T00:31:34.000Z</time></trkpt>
        <trkpt lat="28.022707" lon="105.6221"><ele>1072.7</ele><time>2025-11-22T00:31:35.000Z</time></trkpt>
        <trkpt lat="28.022713" lon="105.622093"><ele>1072.7</ele><time>2025-11-22T00:31:36.000Z</time></trkpt>
        <trkpt lat="28.022719" lon="105.622087"><ele>1072.4</ele><time>2025-11-22T00:31:37.000Z</time></trkpt>
        <trkpt lat="28.022725" lon="105.622079"><ele>1072.4</ele><time>2025-11-22T00:31:38.000Z</time></trkpt>
        <trkpt lat="28.022731" lon="105.622072"><ele>1072.4</ele><time>2025-11-22T00:31:39.000Z</time></trkpt>
        <trkpt lat="28.022738" lon="105.622065"><ele>1072.4</ele><time>2025-11-22T00:31:40.000Z</time></trkpt>
        <trkpt lat="28.022744" lon="105.622058"><ele>1072.4</ele><time>2025-11-22T00:31:41.000Z</time></trkpt>
        <trkpt lat="28.02275" lon="105.622051"><ele>1072.2</ele><time>2025-11-22T00:31:42.000Z</time></trkpt>
        <trkpt lat="28.022756" lon="105.622045"><ele>1072.2</ele><time>2025-11-22T00:31:43.000Z</time></trkpt>
        <trkpt lat="28.022761" lon="105.622038"><ele>1072.2</ele><time>2025-11-22T00:31:44.000Z</time></trkpt>
        <trkpt lat="28.022767" lon="105.622032"><ele>1072.2</ele><time>2025-11-22T00:31:45.000Z</time></trkpt>
        <trkpt lat="28.022772" lon="105.622026"><ele>1072.2</ele><time>2025-11-22T00:31:46.000Z</time></trkpt>
        <trkpt lat="28.022778" lon="105.622022"><ele>1071.7</ele><time>2025-11-22T00:31:47.000Z</time></trkpt>
        <trkpt lat="28.022782" lon="105.622017"><ele>1071.7</ele><time>2025-11-22T00:31:48.000Z</time></trkpt>
        <trkpt lat="28.022787" lon="105.622013"><ele>1071.7</ele><time>2025-11-22T00:31:49.000Z</time></trkpt>
        <trkpt lat="28.022792" lon="105.622009"><ele>1071.7</ele><time>2025-11-22T00:31:50.000Z</time></trkpt>
        <trkpt lat="28.022797" lon="105.622004"><ele>1071.7</ele><time>2025-11-22T00:31:51.000Z</time></trkpt>
        <trkpt lat="28.022804" lon="105.621999"><ele>1071</ele><time>2025-11-22T00:31:52.000Z</time></trkpt>
        <trkpt lat="28.022811" lon="105.621994"><ele>1071</ele><time>2025-11-22T00:31:53.000Z</time></trkpt>
        <trkpt lat="28.022819" lon="105.62199"><ele>1071</ele><time>2025-11-22T00:31:54.000Z</time></trkpt>
        <trkpt lat="28.022827" lon="105.621985"><ele>1071</ele><time>2025-11-22T00:31:55.000Z</time></trkpt>
        <trkpt lat="28.022834" lon="105.621981"><ele>1071</ele><time>2025-11-22T00:31:56.000Z</time></trkpt>
        <trkpt lat="28.022841" lon="105.621977"><ele>1070.8</ele><time>2025-11-22T00:31:57.000Z</time></trkpt>
        <trkpt lat="28.022849" lon="105.621972"><ele>1070.8</ele><time>2025-11-22T00:31:58.000Z</time></trkpt>
        <trkpt lat="28.022856" lon="105.621968"><ele>1070.8</ele><time>2025-11-22T00:31:59.000Z</time></trkpt>
        <trkpt lat="28.022862" lon="105.621964"><ele>1070.8</ele><time>2025-11-22T00:32:00.000Z</time></trkpt>
        <trkpt lat="28.022866" lon="105.62196"><ele>1070.8</ele><time>2025-11-22T00:32:01.000Z</time></trkpt>
        <trkpt lat="28.022868" lon="105.621956"><ele>1070.6</ele><time>2025-11-22T00:32:02.000Z</time></trkpt>
        <trkpt lat="28.022872" lon="105.621951"><ele>1070.6</ele><time>2025-11-22T00:32:03.000Z</time></trkpt>
        <trkpt lat="28.022874" lon="105.621947"><ele>1070.6</ele><time>2025-11-22T00:32:04.000Z</time></trkpt>
        <trkpt lat="28.022874" lon="105.621942"><ele>1070.6</ele><time>2025-11-22T00:32:05.000Z</time></trkpt>
        <trkpt lat="28.022873" lon="105.621938"><ele>1070.6</ele><time>2025-11-22T00:32:06.000Z</time></trkpt>
        <trkpt lat="28.02287" lon="105.621935"><ele>1070.6</ele><time>2025-11-22T00:32:07.000Z</time></trkpt>
        <trkpt lat="28.022864" lon="105.621934"><ele>1070.6</ele><time>2025-11-22T00:32:08.000Z</time></trkpt>
        <trkpt lat="28.022857" lon="105.621933"><ele>1070.6</ele><time>2025-11-22T00:32:09.000Z</time></trkpt>
        <trkpt lat="28.02285" lon="105.621933"><ele>1070.6</ele><time>2025-11-22T00:32:10.000Z</time></trkpt>
        <trkpt lat="28.022842" lon="105.621933"><ele>1070.6</ele><time>2025-11-22T00:32:11.000Z</time></trkpt>
        <trkpt lat="28.022832" lon="105.621934"><ele>1070.9</ele><time>2025-11-22T00:32:12.000Z</time></trkpt>
        <trkpt lat="28.022823" lon="105.621933"><ele>1070.9</ele><time>2025-11-22T00:32:13.000Z</time></trkpt>
        <trkpt lat="28.022813" lon="105.621932"><ele>1070.9</ele><time>2025-11-22T00:32:14.000Z</time></trkpt>
        <trkpt lat="28.022802" lon="105.62193"><ele>1070.9</ele><time>2025-11-22T00:32:15.000Z</time></trkpt>
        <trkpt lat="28.022792" lon="105.621926"><ele>1070.9</ele><time>2025-11-22T00:32:16.000Z</time></trkpt>
        <trkpt lat="28.022783" lon="105.621921"><ele>1071.5</ele><time>2025-11-22T00:32:17.000Z</time></trkpt>
        <trkpt lat="28.022773" lon="105.621915"><ele>1071.5</ele><time>2025-11-22T00:32:18.000Z</time></trkpt>
        <trkpt lat="28.022764" lon="105.621909"><ele>1071.5</ele><time>2025-11-22T00:32:19.000Z</time></trkpt>
        <trkpt lat="28.022756" lon="105.621902"><ele>1071.5</ele><time>2025-11-22T00:32:20.000Z</time></trkpt>
        <trkpt lat="28.022747" lon="105.621896"><ele>1071.5</ele><time>2025-11-22T00:32:21.000Z</time></trkpt>
        <trkpt lat="28.022738" lon="105.621889"><ele>1071.7</ele><time>2025-11-22T00:32:22.000Z</time></trkpt>
        <trkpt lat="28.02273" lon="105.621881"><ele>1071.7</ele><time>2025-11-22T00:32:23.000Z</time></trkpt>
        <trkpt lat="28.022722" lon="105.621873"><ele>1071.7</ele><time>2025-11-22T00:32:24.000Z</time></trkpt>
        <trkpt lat="28.022713" lon="105.621866"><ele>1071.7</ele><time>2025-11-22T00:32:25.000Z</time></trkpt>
        <trkpt lat="28.022705" lon="105.621858"><ele>1071.7</ele><time>2025-11-22T00:32:26.000Z</time></trkpt>
        <trkpt lat="28.022696" lon="105.621851"><ele>1072</ele><time>2025-11-22T00:32:27.000Z</time></trkpt>
        <trkpt lat="28.022688" lon="105.621844"><ele>1072</ele><time>2025-11-22T00:32:28.000Z</time></trkpt>
        <trkpt lat="28.02268" lon="105.621837"><ele>1072</ele><time>2025-11-22T00:32:29.000Z</time></trkpt>
        <trkpt lat="28.022671" lon="105.62183"><ele>1072</ele><time>2025-11-22T00:32:30.000Z</time></trkpt>
        <trkpt lat="28.022661" lon="105.621823"><ele>1072</ele><time>2025-11-22T00:32:31.000Z</time></trkpt>
        <trkpt lat="28.022652" lon="105.621815"><ele>1072.2</ele><time>2025-11-22T00:32:32.000Z</time></trkpt>
        <trkpt lat="28.022642" lon="105.621807"><ele>1072.2</ele><time>2025-11-22T00:32:33.000Z</time></trkpt>
        <trkpt lat="28.022632" lon="105.621799"><ele>1072.2</ele><time>2025-11-22T00:32:34.000Z</time></trkpt>
        <trkpt lat="28.022623" lon="105.621789"><ele>1072.2</ele><time>2025-11-22T00:32:35.000Z</time></trkpt>
        <trkpt lat="28.022615" lon="105.62178"><ele>1072.2</ele><time>2025-11-22T00:32:36.000Z</time></trkpt>
        <trkpt lat="28.022606" lon="105.62177"><ele>1072.4</ele><time>2025-11-22T00:32:37.000Z</time></trkpt>
        <trkpt lat="28.022598" lon="105.621761"><ele>1072.4</ele><time>2025-11-22T00:32:38.000Z</time></trkpt>
        <trkpt lat="28.02259" lon="105.621752"><ele>1072.4</ele><time>2025-11-22T00:32:39.000Z</time></trkpt>
        <trkpt lat="28.022581" lon="105.621743"><ele>1072.4</ele><time>2025-11-22T00:32:40.000Z</time></trkpt>
        <trkpt lat="28.022574" lon="105.621734"><ele>1072.4</ele><time>2025-11-22T00:32:41.000Z</time></trkpt>
        <trkpt lat="28.022567" lon="105.621723"><ele>1072.6</ele><time>2025-11-22T00:32:42.000Z</time></trkpt>
        <trkpt lat="28.022559" lon="105.621713"><ele>1072.6</ele><time>2025-11-22T00:32:43.000Z</time></trkpt>
        <trkpt lat="28.022552" lon="105.621703"><ele>1072.6</ele><time>2025-11-22T00:32:44.000Z</time></trkpt>
        <trkpt lat="28.022545" lon="105.621692"><ele>1072.6</ele><time>2025-11-22T00:32:45.000Z</time></trkpt>
        <trkpt lat="28.022538" lon="105.62168"><ele>1072.6</ele><time>2025-11-22T00:32:46.000Z</time></trkpt>
        <trkpt lat="28.022532" lon="105.621669"><ele>1073.1</ele><time>2025-11-22T00:32:47.000Z</time></trkpt>
        <trkpt lat="28.022526" lon="105.621659"><ele>1073.1</ele><time>2025-11-22T00:32:48.000Z</time></trkpt>
        <trkpt lat="28.02252" lon="105.621648"><ele>1073.1</ele><time>2025-11-22T00:32:49.000Z</time></trkpt>
        <trkpt lat="28.022515" lon="105.621638"><ele>1073.1</ele><time>2025-11-22T00:32:50.000Z</time></trkpt>
        <trkpt lat="28.022511" lon="105.621628"><ele>1073.1</ele><time>2025-11-22T00:32:51.000Z</time></trkpt>
        <trkpt lat="28.022506" lon="105.621618"><ele>1073.6</ele><time>2025-11-22T00:32:52.000Z</time></trkpt>
        <trkpt lat="28.022502" lon="105.621607"><ele>1073.6</ele><time>2025-11-22T00:32:53.000Z</time></trkpt>
        <trkpt lat="28.022497" lon="105.621597"><ele>1073.6</ele><time>2025-11-22T00:32:54.000Z</time></trkpt>
        <trkpt lat="28.02249" lon="105.621588"><ele>1073.6</ele><time>2025-11-22T00:32:55.000Z</time></trkpt>
        <trkpt lat="28.022483" lon="105.621579"><ele>1073.6</ele><time>2025-11-22T00:32:56.000Z</time></trkpt>
        <trkpt lat="28.022474" lon="105.621572"><ele>1074.1</ele><time>2025-11-22T00:32:57.000Z</time></trkpt>
        <trkpt lat="28.022466" lon="105.621564"><ele>1074.1</ele><time>2025-11-22T00:32:58.000Z</time></trkpt>
        <trkpt lat="28.022457" lon="105.621558"><ele>1074.1</ele><time>2025-11-22T00:32:59.000Z</time></trkpt>
        <trkpt lat="28.022449" lon="105.621551"><ele>1074.1</ele><time>2025-11-22T00:33:00.000Z</time></trkpt>
        <trkpt lat="28.02244" lon="105.621544"><ele>1074.1</ele><time>2025-11-22T00:33:01.000Z</time></trkpt>
        <trkpt lat="28.022432" lon="105.621537"><ele>1074.6</ele><time>2025-11-22T00:33:02.000Z</time></trkpt>
        <trkpt lat="28.022424" lon="105.62153"><ele>1074.6</ele><time>2025-11-22T00:33:03.000Z</time></trkpt>
        <trkpt lat="28.022416" lon="105.621522"><ele>1074.6</ele><time>2025-11-22T00:33:04.000Z</time></trkpt>
        <trkpt lat="28.022409" lon="105.621514"><ele>1074.6</ele><time>2025-11-22T00:33:05.000Z</time></trkpt>
        <trkpt lat="28.022401" lon="105.621506"><ele>1074.6</ele><time>2025-11-22T00:33:06.000Z</time></trkpt>
        <trkpt lat="28.022393" lon="105.621498"><ele>1075.1</ele><time>2025-11-22T00:33:07.000Z</time></trkpt>
        <trkpt lat="28.022384" lon="105.621489"><ele>1075.1</ele><time>2025-11-22T00:33:08.000Z</time></trkpt>
        <trkpt lat="28.022375" lon="105.621481"><ele>1075.1</ele><time>2025-11-22T00:33:09.000Z</time></trkpt>
        <trkpt lat="28.022365" lon="105.621474"><ele>1075.1</ele><time>2025-11-22T00:33:10.000Z</time></trkpt>
        <trkpt lat="28.022356" lon="105.621467"><ele>1075.1</ele><time>2025-11-22T00:33:11.000Z</time></trkpt>
        <trkpt lat="28.022346" lon="105.621461"><ele>1075.7</ele><time>2025-11-22T00:33:12.000Z</time></trkpt>
        <trkpt lat="28.022337" lon="105.621455"><ele>1075.7</ele><time>2025-11-22T00:33:13.000Z</time></trkpt>
        <trkpt lat="28.022328" lon="105.621451"><ele>1075.7</ele><time>2025-11-22T00:33:14.000Z</time></trkpt>
        <trkpt lat="28.022319" lon="105.621446"><ele>1075.7</ele><time>2025-11-22T00:33:15.000Z</time></trkpt>
        <trkpt lat="28.02231" lon="105.62144"><ele>1075.7</ele><time>2025-11-22T00:33:16.000Z</time></trkpt>
        <trkpt lat="28.0223" lon="105.621436"><ele>1076.2</ele><time>2025-11-22T00:33:17.000Z</time></trkpt>
        <trkpt lat="28.022291" lon="105.62143"><ele>1076.2</ele><time>2025-11-22T00:33:18.000Z</time></trkpt>
        <trkpt lat="28.022283" lon="105.621426"><ele>1076.2</ele><time>2025-11-22T00:33:19.000Z</time></trkpt>
        <trkpt lat="28.022275" lon="105.621421"><ele>1076.2</ele><time>2025-11-22T00:33:20.000Z</time></trkpt>
        <trkpt lat="28.022267" lon="105.621418"><ele>1076.2</ele><time>2025-11-22T00:33:21.000Z</time></trkpt>
        <trkpt lat="28.022259" lon="105.621414"><ele>1076.8</ele><time>2025-11-22T00:33:22.000Z</time></trkpt>
        <trkpt lat="28.022251" lon="105.621411"><ele>1076.8</ele><time>2025-11-22T00:33:23.000Z</time></trkpt>
        <trkpt lat="28.022242" lon="105.621409"><ele>1076.8</ele><time>2025-11-22T00:33:24.000Z</time></trkpt>
        <trkpt lat="28.022232" lon="105.621407"><ele>1076.8</ele><time>2025-11-22T00:33:25.000Z</time></trkpt>
        <trkpt lat="28.022222" lon="105.621406"><ele>1076.8</ele><time>2025-11-22T00:33:26.000Z</time></trkpt>
        <trkpt lat="28.022211" lon="105.621405"><ele>1077.2</ele><time>2025-11-22T00:33:27.000Z</time></trkpt>
        <trkpt lat="28.0222" lon="105.621403"><ele>1077.2</ele><time>2025-11-22T00:33:28.000Z</time></trkpt>
        <trkpt lat="28.022191" lon="105.6214"><ele>1077.2</ele><time>2025-11-22T00:33:29.000Z</time></trkpt>
        <trkpt lat="28.022182" lon="105.621397"><ele>1077.2</ele><time>2025-11-22T00:33:30.000Z</time></trkpt>
        <trkpt lat="28.022173" lon="105.621392"><ele>1077.2</ele><time>2025-11-22T00:33:31.000Z</time></trkpt>
        <trkpt lat="28.022164" lon="105.621386"><ele>1077.8</ele><time>2025-11-22T00:33:32.000Z</time></trkpt>
        <trkpt lat="28.022155" lon="105.62138"><ele>1077.8</ele><time>2025-11-22T00:33:33.000Z</time></trkpt>
        <trkpt lat="28.022146" lon="105.621372"><ele>1077.8</ele><time>2025-11-22T00:33:34.000Z</time></trkpt>
        <trkpt lat="28.022137" lon="105.621364"><ele>1077.8</ele><time>2025-11-22T00:33:35.000Z</time></trkpt>
        <trkpt lat="28.022128" lon="105.621356"><ele>1077.8</ele><time>2025-11-22T00:33:36.000Z</time></trkpt>
        <trkpt lat="28.02212" lon="105.621347"><ele>1078.3</ele><time>2025-11-22T00:33:37.000Z</time></trkpt>
        <trkpt lat="28.022112" lon="105.621338"><ele>1078.3</ele><time>2025-11-22T00:33:38.000Z</time></trkpt>
        <trkpt lat="28.022105" lon="105.62133"><ele>1078.3</ele><time>2025-11-22T00:33:39.000Z</time></trkpt>
        <trkpt lat="28.022099" lon="105.621321"><ele>1078.3</ele><time>2025-11-22T00:33:40.000Z</time></trkpt>
        <trkpt lat="28.022093" lon="105.621313"><ele>1078.3</ele><time>2025-11-22T00:33:41.000Z</time></trkpt>
        <trkpt lat="28.022087" lon="105.621303"><ele>1079</ele><time>2025-11-22T00:33:42.000Z</time></trkpt>
        <trkpt lat="28.02208" lon="105.621295"><ele>1079</ele><time>2025-11-22T00:33:43.000Z</time></trkpt>
        <trkpt lat="28.022074" lon="105.621285"><ele>1079</ele><time>2025-11-22T00:33:44.000Z</time></trkpt>
        <trkpt lat="28.022066" lon="105.621276"><ele>1079</ele><time>2025-11-22T00:33:45.000Z</time></trkpt>
        <trkpt lat="28.022059" lon="105.621268"><ele>1079</ele><time>2025-11-22T00:33:46.000Z</time></trkpt>
        <trkpt lat="28.02205" lon="105.621261"><ele>1079.3</ele><time>2025-11-22T00:33:47.000Z</time></trkpt>
        <trkpt lat="28.022042" lon="105.621255"><ele>1079.3</ele><time>2025-11-22T00:33:48.000Z</time></trkpt>
        <trkpt lat="28.022034" lon="105.621248"><ele>1079.3</ele><time>2025-11-22T00:33:49.000Z</time></trkpt>
        <trkpt lat="28.022025" lon="105.621241"><ele>1079.3</ele><time>2025-11-22T00:33:50.000Z</time></trkpt>
        <trkpt lat="28.022017" lon="105.621234"><ele>1079.3</ele><time>2025-11-22T00:33:51.000Z</time></trkpt>
        <trkpt lat="28.022009" lon="105.621226"><ele>1079.7</ele><time>2025-11-22T00:33:52.000Z</time></trkpt>
        <trkpt lat="28.022" lon="105.621218"><ele>1079.7</ele><time>2025-11-22T00:33:53.000Z</time></trkpt>
        <trkpt lat="28.021991" lon="105.621211"><ele>1079.7</ele><time>2025-11-22T00:33:54.000Z</time></trkpt>
        <trkpt lat="28.021983" lon="105.621205"><ele>1079.7</ele><time>2025-11-22T00:33:55.000Z</time></trkpt>
        <trkpt lat="28.021973" lon="105.6212"><ele>1079.7</ele><time>2025-11-22T00:33:56.000Z</time></trkpt>
        <trkpt lat="28.021964" lon="105.621195"><ele>1080.1</ele><time>2025-11-22T00:33:57.000Z</time></trkpt>
        <trkpt lat="28.021956" lon="105.62119"><ele>1080.1</ele><time>2025-11-22T00:33:58.000Z</time></trkpt>
        <trkpt lat="28.021945" lon="105.621185"><ele>1080.1</ele><time>2025-11-22T00:33:59.000Z</time></trkpt>
        <trkpt lat="28.021934" lon="105.62118"><ele>1080.1</ele><time>2025-11-22T00:34:00.000Z</time></trkpt>
        <trkpt lat="28.021924" lon="105.621175"><ele>1080.1</ele><time>2025-11-22T00:34:01.000Z</time></trkpt>
        <trkpt lat="28.021913" lon="105.621169"><ele>1080.3</ele><time>2025-11-22T00:34:02.000Z</time></trkpt>
        <trkpt lat="28.021902" lon="105.621164"><ele>1080.3</ele><time>2025-11-22T00:34:03.000Z</time></trkpt>
        <trkpt lat="28.02189" lon="105.621158"><ele>1080.3</ele><time>2025-11-22T00:34:04.000Z</time></trkpt>
        <trkpt lat="28.02188" lon="105.621153"><ele>1080.3</ele><time>2025-11-22T00:34:05.000Z</time></trkpt>
        <trkpt lat="28.021868" lon="105.621148"><ele>1080.3</ele><time>2025-11-22T00:34:06.000Z</time></trkpt>
        <trkpt lat="28.021859" lon="105.621142"><ele>1081</ele><time>2025-11-22T00:34:07.000Z</time></trkpt>
        <trkpt lat="28.021849" lon="105.621137"><ele>1081</ele><time>2025-11-22T00:34:08.000Z</time></trkpt>
        <trkpt lat="28.021841" lon="105.621131"><ele>1081</ele><time>2025-11-22T00:34:09.000Z</time></trkpt>
        <trkpt lat="28.021833" lon="105.621124"><ele>1081</ele><time>2025-11-22T00:34:10.000Z</time></trkpt>
        <trkpt lat="28.021826" lon="105.621117"><ele>1081</ele><time>2025-11-22T00:34:11.000Z</time></trkpt>
        <trkpt lat="28.021819" lon="105.621108"><ele>1081.5</ele><time>2025-11-22T00:34:12.000Z</time></trkpt>
        <trkpt lat="28.021814" lon="105.6211"><ele>1081.5</ele><time>2025-11-22T00:34:13.000Z</time></trkpt>
        <trkpt lat="28.021807" lon="105.621092"><ele>1081.5</ele><time>2025-11-22T00:34:14.000Z</time></trkpt>
        <trkpt lat="28.021802" lon="105.621084"><ele>1081.5</ele><time>2025-11-22T00:34:15.000Z</time></trkpt>
        <trkpt lat="28.021795" lon="105.621076"><ele>1081.5</ele><time>2025-11-22T00:34:16.000Z</time></trkpt>
        <trkpt lat="28.021789" lon="105.621068"><ele>1082.6</ele><time>2025-11-22T00:34:17.000Z</time></trkpt>
        <trkpt lat="28.021783" lon="105.62106"><ele>1082.6</ele><time>2025-11-22T00:34:18.000Z</time></trkpt>
        <trkpt lat="28.021778" lon="105.62105"><ele>1082.6</ele><time>2025-11-22T00:34:19.000Z</time></trkpt>
        <trkpt lat="28.021773" lon="105.621041"><ele>1082.6</ele><time>2025-11-22T00:34:20.000Z</time></trkpt>
        <trkpt lat="28.021769" lon="105.62103"><ele>1082.6</ele><time>2025-11-22T00:34:21.000Z</time></trkpt>
        <trkpt lat="28.021767" lon="105.621019"><ele>1083.6</ele><time>2025-11-22T00:34:22.000Z</time></trkpt>
        <trkpt lat="28.021766" lon="105.621008"><ele>1083.6</ele><time>2025-11-22T00:34:23.000Z</time></trkpt>
        <trkpt lat="28.021764" lon="105.620997"><ele>1083.6</ele><time>2025-11-22T00:34:24.000Z</time></trkpt>
        <trkpt lat="28.021762" lon="105.620987"><ele>1083.6</ele><time>2025-11-22T00:34:25.000Z</time></trkpt>
        <trkpt lat="28.021759" lon="105.620978"><ele>1083.6</ele><time>2025-11-22T00:34:26.000Z</time></trkpt>
        <trkpt lat="28.021755" lon="105.620969"><ele>1084.5</ele><time>2025-11-22T00:34:27.000Z</time></trkpt>
        <trkpt lat="28.021752" lon="105.62096"><ele>1084.5</ele><time>2025-11-22T00:34:28.000Z</time></trkpt>
        <trkpt lat="28.021749" lon="105.620952"><ele>1084.5</ele><time>2025-11-22T00:34:29.000Z</time></trkpt>
        <trkpt lat="28.021747" lon="105.620942"><ele>1084.5</ele><time>2025-11-22T00:34:30.000Z</time></trkpt>
        <trkpt lat="28.021745" lon="105.620932"><ele>1084.5</ele><time>2025-11-22T00:34:31.000Z</time></trkpt>
        <trkpt lat="28.021742" lon="105.620922"><ele>1085.1</ele><time>2025-11-22T00:34:32.000Z</time></trkpt>
        <trkpt lat="28.021738" lon="105.620911"><ele>1085.1</ele><time>2025-11-22T00:34:33.000Z</time></trkpt>
        <trkpt lat="28.021734" lon="105.620901"><ele>1085.1</ele><time>2025-11-22T00:34:34.000Z</time></trkpt>
        <trkpt lat="28.021729" lon="105.62089"><ele>1085.1</ele><time>2025-11-22T00:34:35.000Z</time></trkpt>
        <trkpt lat="28.021725" lon="105.620879"><ele>1085.1</ele><time>2025-11-22T00:34:36.000Z</time></trkpt>
        <trkpt lat="28.021721" lon="105.620868"><ele>1085.8</ele><time>2025-11-22T00:34:37.000Z</time></trkpt>
        <trkpt lat="28.021718" lon="105.620857"><ele>1085.8</ele><time>2025-11-22T00:34:38.000Z</time></trkpt>
        <trkpt lat="28.021715" lon="105.620846"><ele>1085.8</ele><time>2025-11-22T00:34:39.000Z</time></trkpt>
        <trkpt lat="28.021712" lon="105.620836"><ele>1085.8</ele><time>2025-11-22T00:34:40.000Z</time></trkpt>
        <trkpt lat="28.021709" lon="105.620825"><ele>1085.8</ele><time>2025-11-22T00:34:41.000Z</time></trkpt>
        <trkpt lat="28.021706" lon="105.620814"><ele>1086.2</ele><time>2025-11-22T00:34:42.000Z</time></trkpt>
        <trkpt lat="28.021702" lon="105.620804"><ele>1086.2</ele><time>2025-11-22T00:34:43.000Z</time></trkpt>
        <trkpt lat="28.021698" lon="105.620794"><ele>1086.2</ele><time>2025-11-22T00:34:44.000Z</time></trkpt>
        <trkpt lat="28.021694" lon="105.620784"><ele>1086.2</ele><time>2025-11-22T00:34:45.000Z</time></trkpt>
        <trkpt lat="28.021689" lon="105.620773"><ele>1086.2</ele><time>2025-11-22T00:34:46.000Z</time></trkpt>
        <trkpt lat="28.021684" lon="105.620764"><ele>1086.8</ele><time>2025-11-22T00:34:47.000Z</time></trkpt>
        <trkpt lat="28.021679" lon="105.620754"><ele>1086.8</ele><time>2025-11-22T00:34:48.000Z</time></trkpt>
        <trkpt lat="28.021674" lon="105.620745"><ele>1086.8</ele><time>2025-11-22T00:34:49.000Z</time></trkpt>
        <trkpt lat="28.021668" lon="105.620735"><ele>1086.8</ele><time>2025-11-22T00:34:50.000Z</time></trkpt>
        <trkpt lat="28.021662" lon="105.620724"><ele>1086.8</ele><time>2025-11-22T00:34:51.000Z</time></trkpt>
        <trkpt lat="28.021658" lon="105.620712"><ele>1087.2</ele><time>2025-11-22T00:34:52.000Z</time></trkpt>
        <trkpt lat="28.021654" lon="105.6207"><ele>1087.2</ele><time>2025-11-22T00:34:53.000Z</time></trkpt>
        <trkpt lat="28.021652" lon="105.620687"><ele>1087.2</ele><time>2025-11-22T00:34:54.000Z</time></trkpt>
        <trkpt lat="28.021651" lon="105.620675"><ele>1087.2</ele><time>2025-11-22T00:34:55.000Z</time></trkpt>
        <trkpt lat="28.021652" lon="105.620663"><ele>1087.2</ele><time>2025-11-22T00:34:56.000Z</time></trkpt>
        <trkpt lat="28.021655" lon="105.620652"><ele>1087.9</ele><time>2025-11-22T00:34:57.000Z</time></trkpt>
        <trkpt lat="28.021659" lon="105.62064"><ele>1087.9</ele><time>2025-11-22T00:34:58.000Z</time></trkpt>
        <trkpt lat="28.021664" lon="105.620629"><ele>1087.9</ele><time>2025-11-22T00:34:59.000Z</time></trkpt>
        <trkpt lat="28.02167" lon="105.620619"><ele>1087.9</ele><time>2025-11-22T00:35:00.000Z</time></trkpt>
        <trkpt lat="28.021675" lon="105.620609"><ele>1087.9</ele><time>2025-11-22T00:35:01.000Z</time></trkpt>
        <trkpt lat="28.02168" lon="105.620599"><ele>1088.4</ele><time>2025-11-22T00:35:02.000Z</time></trkpt>
        <trkpt lat="28.021685" lon="105.620589"><ele>1088.4</ele><time>2025-11-22T00:35:03.000Z</time></trkpt>
        <trkpt lat="28.021689" lon="105.620579"><ele>1088.4</ele><time>2025-11-22T00:35:04.000Z</time></trkpt>
        <trkpt lat="28.021693" lon="105.620569"><ele>1088.4</ele><time>2025-11-22T00:35:05.000Z</time></trkpt>
        <trkpt lat="28.021697" lon="105.62056"><ele>1088.4</ele><time>2025-11-22T00:35:06.000Z</time></trkpt>
        <trkpt lat="28.021701" lon="105.620553"><ele>1088.9</ele><time>2025-11-22T00:35:07.000Z</time></trkpt>
        <trkpt lat="28.021705" lon="105.620548"><ele>1088.9</ele><time>2025-11-22T00:35:08.000Z</time></trkpt>
        <trkpt lat="28.021709" lon="105.620544"><ele>1088.9</ele><time>2025-11-22T00:35:09.000Z</time></trkpt>
        <trkpt lat="28.021714" lon="105.62054"><ele>1088.9</ele><time>2025-11-22T00:35:10.000Z</time></trkpt>
        <trkpt lat="28.021719" lon="105.620537"><ele>1088.9</ele><time>2025-11-22T00:35:11.000Z</time></trkpt>
        <trkpt lat="28.021725" lon="105.620533"><ele>1089.4</ele><time>2025-11-22T00:35:12.000Z</time></trkpt>
        <trkpt lat="28.021732" lon="105.62053"><ele>1089.4</ele><time>2025-11-22T00:35:13.000Z</time></trkpt>
        <trkpt lat="28.02174" lon="105.620529"><ele>1089.4</ele><time>2025-11-22T00:35:14.000Z</time></trkpt>
        <trkpt lat="28.021748" lon="105.62053"><ele>1089.4</ele><time>2025-11-22T00:35:15.000Z</time></trkpt>
        <trkpt lat="28.021757" lon="105.620531"><ele>1089.4</ele><time>2025-11-22T00:35:16.000Z</time></trkpt>
        <trkpt lat="28.021765" lon="105.620534"><ele>1090.1</ele><time>2025-11-22T00:35:17.000Z</time></trkpt>
        <trkpt lat="28.021772" lon="105.620537"><ele>1090.1</ele><time>2025-11-22T00:35:18.000Z</time></trkpt>
        <trkpt lat="28.021781" lon="105.620541"><ele>1090.1</ele><time>2025-11-22T00:35:19.000Z</time></trkpt>
        <trkpt lat="28.02179" lon="105.620543"><ele>1090.1</ele><time>2025-11-22T00:35:20.000Z</time></trkpt>
        <trkpt lat="28.021799" lon="105.620546"><ele>1090.1</ele><time>2025-11-22T00:35:21.000Z</time></trkpt>
        <trkpt lat="28.02181" lon="105.62055"><ele>1090.7</ele><time>2025-11-22T00:35:22.000Z</time></trkpt>
        <trkpt lat="28.021821" lon="105.620553"><ele>1090.7</ele><time>2025-11-22T00:35:23.000Z</time></trkpt>
        <trkpt lat="28.021832" lon="105.620556"><ele>1090.7</ele><time>2025-11-22T00:35:24.000Z</time></trkpt>
        <trkpt lat="28.021843" lon="105.620561"><ele>1090.7</ele><time>2025-11-22T00:35:25.000Z</time></trkpt>
        <trkpt lat="28.021854" lon="105.620565"><ele>1090.7</ele><time>2025-11-22T00:35:26.000Z</time></trkpt>
        <trkpt lat="28.021865" lon="105.62057"><ele>1091.2</ele><time>2025-11-22T00:35:27.000Z</time></trkpt>
        <trkpt lat="28.021876" lon="105.620576"><ele>1091.2</ele><time>2025-11-22T00:35:28.000Z</time></trkpt>
        <trkpt lat="28.021889" lon="105.620581"><ele>1091.2</ele><time>2025-11-22T00:35:29.000Z</time></trkpt>
        <trkpt lat="28.021901" lon="105.620586"><ele>1091.2</ele><time>2025-11-22T00:35:30.000Z</time></trkpt>
        <trkpt lat="28.021912" lon="105.620592"><ele>1091.2</ele><time>2025-11-22T00:35:31.000Z</time></trkpt>
        <trkpt lat="28.021924" lon="105.620597"><ele>1091.2</ele><time>2025-11-22T00:35:32.000Z</time></trkpt>
        <trkpt lat="28.021933" lon="105.620599"><ele>1091.2</ele><time>2025-11-22T00:35:33.000Z</time></trkpt>
        <trkpt lat="28.021942" lon="105.620598"><ele>1091.2</ele><time>2025-11-22T00:35:34.000Z</time></trkpt>
        <trkpt lat="28.021951" lon="105.620595"><ele>1091.2</ele><time>2025-11-22T00:35:35.000Z</time></trkpt>
        <trkpt lat="28.02196" lon="105.62059"><ele>1091.2</ele><time>2025-11-22T00:35:36.000Z</time></trkpt>
        <trkpt lat="28.021968" lon="105.620586"><ele>1091.2</ele><time>2025-11-22T00:35:37.000Z</time></trkpt>
        <trkpt lat="28.021978" lon="105.620584"><ele>1091.2</ele><time>2025-11-22T00:35:38.000Z</time></trkpt>
        <trkpt lat="28.021989" lon="105.620583"><ele>1091.2</ele><time>2025-11-22T00:35:39.000Z</time></trkpt>
        <trkpt lat="28.021998" lon="105.620584"><ele>1091.2</ele><time>2025-11-22T00:35:40.000Z</time></trkpt>
        <trkpt lat="28.022008" lon="105.620585"><ele>1091.2</ele><time>2025-11-22T00:35:41.000Z</time></trkpt>
        <trkpt lat="28.022019" lon="105.620584"><ele>1091.2</ele><time>2025-11-22T00:35:42.000Z</time></trkpt>
        <trkpt lat="28.022028" lon="105.620582"><ele>1091.2</ele><time>2025-11-22T00:35:43.000Z</time></trkpt>
        <trkpt lat="28.022038" lon="105.620578"><ele>1091.2</ele><time>2025-11-22T00:35:44.000Z</time></trkpt>
        <trkpt lat="28.022047" lon="105.620572"><ele>1091.2</ele><time>2025-11-22T00:35:45.000Z</time></trkpt>
        <trkpt lat="28.022057" lon="105.620566"><ele>1091.2</ele><time>2025-11-22T00:35:46.000Z</time></trkpt>
        <trkpt lat="28.022065" lon="105.620559"><ele>1091.4</ele><time>2025-11-22T00:35:47.000Z</time></trkpt>
        <trkpt lat="28.022073" lon="105.620552"><ele>1091.4</ele><time>2025-11-22T00:35:48.000Z</time></trkpt>
        <trkpt lat="28.02208" lon="105.620545"><ele>1091.4</ele><time>2025-11-22T00:35:49.000Z</time></trkpt>
        <trkpt lat="28.022086" lon="105.620539"><ele>1091.4</ele><time>2025-11-22T00:35:50.000Z</time></trkpt>
        <trkpt lat="28.022092" lon="105.620532"><ele>1091.4</ele><time>2025-11-22T00:35:51.000Z</time></trkpt>
        <trkpt lat="28.022099" lon="105.620526"><ele>1091.8</ele><time>2025-11-22T00:35:52.000Z</time></trkpt>
        <trkpt lat="28.022105" lon="105.620519"><ele>1091.8</ele><time>2025-11-22T00:35:53.000Z</time></trkpt>
        <trkpt lat="28.022112" lon="105.620512"><ele>1091.8</ele><time>2025-11-22T00:35:54.000Z</time></trkpt>
        <trkpt lat="28.022117" lon="105.620505"><ele>1091.8</ele><time>2025-11-22T00:35:55.000Z</time></trkpt>
        <trkpt lat="28.022122" lon="105.620499"><ele>1091.8</ele><time>2025-11-22T00:35:56.000Z</time></trkpt>
        <trkpt lat="28.022126" lon="105.620492"><ele>1092.4</ele><time>2025-11-22T00:35:57.000Z</time></trkpt>
        <trkpt lat="28.022131" lon="105.620487"><ele>1092.4</ele><time>2025-11-22T00:35:58.000Z</time></trkpt>
        <trkpt lat="28.022137" lon="105.620482"><ele>1092.4</ele><time>2025-11-22T00:35:59.000Z</time></trkpt>
        <trkpt lat="28.022143" lon="105.620477"><ele>1092.4</ele><time>2025-11-22T00:36:00.000Z</time></trkpt>
        <trkpt lat="28.022149" lon="105.620473"><ele>1092.4</ele><time>2025-11-22T00:36:01.000Z</time></trkpt>
        <trkpt lat="28.022155" lon="105.620469"><ele>1093</ele><time>2025-11-22T00:36:02.000Z</time></trkpt>
        <trkpt lat="28.022161" lon="105.620465"><ele>1093</ele><time>2025-11-22T00:36:03.000Z</time></trkpt>
        <trkpt lat="28.022168" lon="105.620461"><ele>1093</ele><time>2025-11-22T00:36:04.000Z</time></trkpt>
        <trkpt lat="28.022175" lon="105.620458"><ele>1093</ele><time>2025-11-22T00:36:05.000Z</time></trkpt>
        <trkpt lat="28.022181" lon="105.620454"><ele>1093</ele><time>2025-11-22T00:36:06.000Z</time></trkpt>
        <trkpt lat="28.022187" lon="105.620449"><ele>1094.3</ele><time>2025-11-22T00:36:07.000Z</time></trkpt>
        <trkpt lat="28.022193" lon="105.620444"><ele>1094.3</ele><time>2025-11-22T00:36:08.000Z</time></trkpt>
        <trkpt lat="28.022199" lon="105.620438"><ele>1094.3</ele><time>2025-11-22T00:36:09.000Z</time></trkpt>
        <trkpt lat="28.022205" lon="105.620431"><ele>1094.3</ele><time>2025-11-22T00:36:10.000Z</time></trkpt>
        <trkpt lat="28.022211" lon="105.620424"><ele>1094.3</ele><time>2025-11-22T00:36:11.000Z</time></trkpt>
        <trkpt lat="28.022217" lon="105.620418"><ele>1095.5</ele><time>2025-11-22T00:36:12.000Z</time></trkpt>
        <trkpt lat="28.022222" lon="105.620412"><ele>1095.5</ele><time>2025-11-22T00:36:13.000Z</time></trkpt>
        <trkpt lat="28.022228" lon="105.620406"><ele>1095.5</ele><time>2025-11-22T00:36:14.000Z</time></trkpt>
        <trkpt lat="28.022233" lon="105.6204"><ele>1095.5</ele><time>2025-11-22T00:36:15.000Z</time></trkpt>
        <trkpt lat="28.022239" lon="105.620393"><ele>1095.5</ele><time>2025-11-22T00:36:16.000Z</time></trkpt>
        <trkpt lat="28.022246" lon="105.620387"><ele>1096.8</ele><time>2025-11-22T00:36:17.000Z</time></trkpt>
        <trkpt lat="28.022253" lon="105.620381"><ele>1096.8</ele><time>2025-11-22T00:36:18.000Z</time></trkpt>
        <trkpt lat="28.02226" lon="105.620375"><ele>1096.8</ele><time>2025-11-22T00:36:19.000Z</time></trkpt>
        <trkpt lat="28.022266" lon="105.62037"><ele>1096.8</ele><time>2025-11-22T00:36:20.000Z</time></trkpt>
        <trkpt lat="28.022271" lon="105.620365"><ele>1096.8</ele><time>2025-11-22T00:36:21.000Z</time></trkpt>
        <trkpt lat="28.022276" lon="105.62036"><ele>1098</ele><time>2025-11-22T00:36:22.000Z</time></trkpt>
        <trkpt lat="28.02228" lon="105.620353"><ele>1098</ele><time>2025-11-22T00:36:23.000Z</time></trkpt>
        <trkpt lat="28.022284" lon="105.620346"><ele>1098</ele><time>2025-11-22T00:36:24.000Z</time></trkpt>
        <trkpt lat="28.022288" lon="105.620337"><ele>1098</ele><time>2025-11-22T00:36:25.000Z</time></trkpt>
        <trkpt lat="28.022292" lon="105.620327"><ele>1098</ele><time>2025-11-22T00:36:26.000Z</time></trkpt>
        <trkpt lat="28.022297" lon="105.620317"><ele>1099</ele><time>2025-11-22T00:36:27.000Z</time></trkpt>
        <trkpt lat="28.022301" lon="105.620306"><ele>1099</ele><time>2025-11-22T00:36:28.000Z</time></trkpt>
        <trkpt lat="28.022305" lon="105.620295"><ele>1099</ele><time>2025-11-22T00:36:29.000Z</time></trkpt>
        <trkpt lat="28.02231" lon="105.620283"><ele>1099</ele><time>2025-11-22T00:36:30.000Z</time></trkpt>
        <trkpt lat="28.022313" lon="105.620272"><ele>1099</ele><time>2025-11-22T00:36:31.000Z</time></trkpt>
        <trkpt lat="28.022315" lon="105.620261"><ele>1099.5</ele><time>2025-11-22T00:36:32.000Z</time></trkpt>
        <trkpt lat="28.022317" lon="105.620251"><ele>1099.5</ele><time>2025-11-22T00:36:33.000Z</time></trkpt>
        <trkpt lat="28.022317" lon="105.620239"><ele>1099.5</ele><time>2025-11-22T00:36:34.000Z</time></trkpt>
        <trkpt lat="28.022316" lon="105.620229"><ele>1099.5</ele><time>2025-11-22T00:36:35.000Z</time></trkpt>
        <trkpt lat="28.022314" lon="105.620219"><ele>1099.5</ele><time>2025-11-22T00:36:36.000Z</time></trkpt>
        <trkpt lat="28.022312" lon="105.620208"><ele>1100</ele><time>2025-11-22T00:36:37.000Z</time></trkpt>
        <trkpt lat="28.02231" lon="105.620197"><ele>1100</ele><time>2025-11-22T00:36:38.000Z</time></trkpt>
        <trkpt lat="28.022307" lon="105.620186"><ele>1100</ele><time>2025-11-22T00:36:39.000Z</time></trkpt>
        <trkpt lat="28.022304" lon="105.620176"><ele>1100</ele><time>2025-11-22T00:36:40.000Z</time></trkpt>
        <trkpt lat="28.022301" lon="105.620165"><ele>1100</ele><time>2025-11-22T00:36:41.000Z</time></trkpt>
        <trkpt lat="28.022297" lon="105.620155"><ele>1100.2</ele><time>2025-11-22T00:36:42.000Z</time></trkpt>
        <trkpt lat="28.022293" lon="105.620145"><ele>1100.2</ele><time>2025-11-22T00:36:43.000Z</time></trkpt>
        <trkpt lat="28.022288" lon="105.620135"><ele>1100.2</ele><time>2025-11-22T00:36:44.000Z</time></trkpt>
        <trkpt lat="28.022283" lon="105.620125"><ele>1100.2</ele><time>2025-11-22T00:36:45.000Z</time></trkpt>
        <trkpt lat="28.022277" lon="105.620114"><ele>1100.2</ele><time>2025-11-22T00:36:46.000Z</time></trkpt>
        <trkpt lat="28.022271" lon="105.620103"><ele>1100.5</ele><time>2025-11-22T00:36:47.000Z</time></trkpt>
        <trkpt lat="28.022265" lon="105.620091"><ele>1100.5</ele><time>2025-11-22T00:36:48.000Z</time></trkpt>
        <trkpt lat="28.022259" lon="105.62008"><ele>1100.5</ele><time>2025-11-22T00:36:49.000Z</time></trkpt>
        <trkpt lat="28.022253" lon="105.62007"><ele>1100.5</ele><time>2025-11-22T00:36:50.000Z</time></trkpt>
        <trkpt lat="28.022249" lon="105.62006"><ele>1100.5</ele><time>2025-11-22T00:36:51.000Z</time></trkpt>
        <trkpt lat="28.022244" lon="105.62005"><ele>1100.9</ele><time>2025-11-22T00:36:52.000Z</time></trkpt>
        <trkpt lat="28.02224" lon="105.620039"><ele>1100.9</ele><time>2025-11-22T00:36:53.000Z</time></trkpt>
        <trkpt lat="28.022236" lon="105.620027"><ele>1100.9</ele><time>2025-11-22T00:36:54.000Z</time></trkpt>
        <trkpt lat="28.022233" lon="105.620014"><ele>1100.9</ele><time>2025-11-22T00:36:55.000Z</time></trkpt>
        <trkpt lat="28.02223" lon="105.62"><ele>1100.9</ele><time>2025-11-22T00:36:56.000Z</time></trkpt>
        <trkpt lat="28.022228" lon="105.619986"><ele>1101.5</ele><time>2025-11-22T00:36:57.000Z</time></trkpt>
        <trkpt lat="28.022228" lon="105.619972"><ele>1101.5</ele><time>2025-11-22T00:36:58.000Z</time></trkpt>
        <trkpt lat="28.022229" lon="105.619958"><ele>1101.5</ele><time>2025-11-22T00:36:59.000Z</time></trkpt>
        <trkpt lat="28.02223" lon="105.619944"><ele>1101.5</ele><time>2025-11-22T00:37:00.000Z</time></trkpt>
        <trkpt lat="28.022232" lon="105.61993"><ele>1101.5</ele><time>2025-11-22T00:37:01.000Z</time></trkpt>
        <trkpt lat="28.022233" lon="105.619916"><ele>1101.9</ele><time>2025-11-22T00:37:02.000Z</time></trkpt>
        <trkpt lat="28.022235" lon="105.619903"><ele>1101.9</ele><time>2025-11-22T00:37:03.000Z</time></trkpt>
        <trkpt lat="28.022235" lon="105.61989"><ele>1101.9</ele><time>2025-11-22T00:37:04.000Z</time></trkpt>
        <trkpt lat="28.022235" lon="105.619877"><ele>1101.9</ele><time>2025-11-22T00:37:05.000Z</time></trkpt>
        <trkpt lat="28.022235" lon="105.619866"><ele>1101.9</ele><time>2025-11-22T00:37:06.000Z</time></trkpt>
        <trkpt lat="28.022235" lon="105.619856"><ele>1102.4</ele><time>2025-11-22T00:37:07.000Z</time></trkpt>
        <trkpt lat="28.022234" lon="105.619845"><ele>1102.4</ele><time>2025-11-22T00:37:08.000Z</time></trkpt>
        <trkpt lat="28.022232" lon="105.619836"><ele>1102.4</ele><time>2025-11-22T00:37:09.000Z</time></trkpt>
        <trkpt lat="28.022231" lon="105.619826"><ele>1102.4</ele><time>2025-11-22T00:37:10.000Z</time></trkpt>
        <trkpt lat="28.022228" lon="105.619816"><ele>1102.4</ele><time>2025-11-22T00:37:11.000Z</time></trkpt>
        <trkpt lat="28.022225" lon="105.619805"><ele>1102.6</ele><time>2025-11-22T00:37:12.000Z</time></trkpt>
        <trkpt lat="28.022221" lon="105.619795"><ele>1102.6</ele><time>2025-11-22T00:37:13.000Z</time></trkpt>
        <trkpt lat="28.022216" lon="105.619786"><ele>1102.6</ele><time>2025-11-22T00:37:14.000Z</time></trkpt>
        <trkpt lat="28.022211" lon="105.619778"><ele>1102.6</ele><time>2025-11-22T00:37:15.000Z</time></trkpt>
        <trkpt lat="28.022205" lon="105.61977"><ele>1102.6</ele><time>2025-11-22T00:37:16.000Z</time></trkpt>
        <trkpt lat="28.022199" lon="105.619763"><ele>1102.8</ele><time>2025-11-22T00:37:17.000Z</time></trkpt>
        <trkpt lat="28.022193" lon="105.619758"><ele>1102.8</ele><time>2025-11-22T00:37:18.000Z</time></trkpt>
        <trkpt lat="28.022186" lon="105.619752"><ele>1102.8</ele><time>2025-11-22T00:37:19.000Z</time></trkpt>
        <trkpt lat="28.022179" lon="105.619746"><ele>1102.8</ele><time>2025-11-22T00:37:20.000Z</time></trkpt>
        <trkpt lat="28.022171" lon="105.61974"><ele>1102.8</ele><time>2025-11-22T00:37:21.000Z</time></trkpt>
        <trkpt lat="28.022162" lon="105.619734"><ele>1102.8</ele><time>2025-11-22T00:37:22.000Z</time></trkpt>
        <trkpt lat="28.022152" lon="105.619728"><ele>1102.8</ele><time>2025-11-22T00:37:23.000Z</time></trkpt>
        <trkpt lat="28.022142" lon="105.619722"><ele>1102.8</ele><time>2025-11-22T00:37:24.000Z</time></trkpt>
        <trkpt lat="28.022132" lon="105.619716"><ele>1102.8</ele><time>2025-11-22T00:37:25.000Z</time></trkpt>
        <trkpt lat="28.022122" lon="105.619709"><ele>1102.8</ele><time>2025-11-22T00:37:26.000Z</time></trkpt>
        <trkpt lat="28.022113" lon="105.619703"><ele>1103</ele><time>2025-11-22T00:37:27.000Z</time></trkpt>
        <trkpt lat="28.022105" lon="105.619698"><ele>1103</ele><time>2025-11-22T00:37:28.000Z</time></trkpt>
        <trkpt lat="28.022098" lon="105.619692"><ele>1103</ele><time>2025-11-22T00:37:29.000Z</time></trkpt>
        <trkpt lat="28.02209" lon="105.619687"><ele>1103</ele><time>2025-11-22T00:37:30.000Z</time></trkpt>
        <trkpt lat="28.022082" lon="105.61968"><ele>1103</ele><time>2025-11-22T00:37:31.000Z</time></trkpt>
        <trkpt lat="28.022074" lon="105.619673"><ele>1103.3</ele><time>2025-11-22T00:37:32.000Z</time></trkpt>
        <trkpt lat="28.022066" lon="105.619665"><ele>1103.3</ele><time>2025-11-22T00:37:33.000Z</time></trkpt>
        <trkpt lat="28.022058" lon="105.619656"><ele>1103.3</ele><time>2025-11-22T00:37:34.000Z</time></trkpt>
        <trkpt lat="28.022051" lon="105.619647"><ele>1103.3</ele><time>2025-11-22T00:37:35.000Z</time></trkpt>
        <trkpt lat="28.022043" lon="105.61964"><ele>1103.3</ele><time>2025-11-22T00:37:36.000Z</time></trkpt>
        <trkpt lat="28.022035" lon="105.619633"><ele>1103.6</ele><time>2025-11-22T00:37:37.000Z</time></trkpt>
        <trkpt lat="28.022027" lon="105.619626"><ele>1103.6</ele><time>2025-11-22T00:37:38.000Z</time></trkpt>
        <trkpt lat="28.02202" lon="105.619619"><ele>1103.6</ele><time>2025-11-22T00:37:39.000Z</time></trkpt>
        <trkpt lat="28.022011" lon="105.619613"><ele>1103.6</ele><time>2025-11-22T00:37:40.000Z</time></trkpt>
        <trkpt lat="28.022002" lon="105.619606"><ele>1103.6</ele><time>2025-11-22T00:37:41.000Z</time></trkpt>
        <trkpt lat="28.021993" lon="105.619598"><ele>1104.4</ele><time>2025-11-22T00:37:42.000Z</time></trkpt>
        <trkpt lat="28.021984" lon="105.619591"><ele>1104.4</ele><time>2025-11-22T00:37:43.000Z</time></trkpt>
        <trkpt lat="28.021976" lon="105.619585"><ele>1104.4</ele><time>2025-11-22T00:37:44.000Z</time></trkpt>
        <trkpt lat="28.021968" lon="105.619579"><ele>1104.4</ele><time>2025-11-22T00:37:45.000Z</time></trkpt>
        <trkpt lat="28.02196" lon="105.619573"><ele>1104.4</ele><time>2025-11-22T00:37:46.000Z</time></trkpt>
        <trkpt lat="28.021952" lon="105.619566"><ele>1105</ele><time>2025-11-22T00:37:47.000Z</time></trkpt>
        <trkpt lat="28.021943" lon="105.61956"><ele>1105</ele><time>2025-11-22T00:37:48.000Z</time></trkpt>
        <trkpt lat="28.021934" lon="105.619554"><ele>1105</ele><time>2025-11-22T00:37:49.000Z</time></trkpt>
        <trkpt lat="28.021924" lon="105.619548"><ele>1105</ele><time>2025-11-22T00:37:50.000Z</time></trkpt>
        <trkpt lat="28.021913" lon="105.619543"><ele>1105</ele><time>2025-11-22T00:37:51.000Z</time></trkpt>
        <trkpt lat="28.021901" lon="105.61954"><ele>1106</ele><time>2025-11-22T00:37:52.000Z</time></trkpt>
        <trkpt lat="28.021889" lon="105.619537"><ele>1106</ele><time>2025-11-22T00:37:53.000Z</time></trkpt>
        <trkpt lat="28.021878" lon="105.619536"><ele>1106</ele><time>2025-11-22T00:37:54.000Z</time></trkpt>
        <trkpt lat="28.021867" lon="105.619536"><ele>1106</ele><time>2025-11-22T00:37:55.000Z</time></trkpt>
        <trkpt lat="28.021857" lon="105.619536"><ele>1106</ele><time>2025-11-22T00:37:56.000Z</time></trkpt>
        <trkpt lat="28.021848" lon="105.619536"><ele>1106.7</ele><time>2025-11-22T00:37:57.000Z</time></trkpt>
        <trkpt lat="28.021839" lon="105.619536"><ele>1106.7</ele><time>2025-11-22T00:37:58.000Z</time></trkpt>
        <trkpt lat="28.02183" lon="105.619538"><ele>1106.7</ele><time>2025-11-22T00:37:59.000Z</time></trkpt>
        <trkpt lat="28.021821" lon="105.619542"><ele>1106.7</ele><time>2025-11-22T00:38:00.000Z</time></trkpt>
        <trkpt lat="28.021813" lon="105.619547"><ele>1106.7</ele><time>2025-11-22T00:38:01.000Z</time></trkpt>
        <trkpt lat="28.021805" lon="105.619553"><ele>1107.6</ele><time>2025-11-22T00:38:02.000Z</time></trkpt>
        <trkpt lat="28.021797" lon="105.61956"><ele>1107.6</ele><time>2025-11-22T00:38:03.000Z</time></trkpt>
        <trkpt lat="28.02179" lon="105.619568"><ele>1107.6</ele><time>2025-11-22T00:38:04.000Z</time></trkpt>
        <trkpt lat="28.021783" lon="105.619577"><ele>1107.6</ele><time>2025-11-22T00:38:05.000Z</time></trkpt>
        <trkpt lat="28.021777" lon="105.619585"><ele>1107.6</ele><time>2025-11-22T00:38:06.000Z</time></trkpt>
        <trkpt lat="28.021771" lon="105.619594"><ele>1108.2</ele><time>2025-11-22T00:38:07.000Z</time></trkpt>
        <trkpt lat="28.021766" lon="105.619603"><ele>1108.2</ele><time>2025-11-22T00:38:08.000Z</time></trkpt>
        <trkpt lat="28.021762" lon="105.619611"><ele>1108.2</ele><time>2025-11-22T00:38:09.000Z</time></trkpt>
        <trkpt lat="28.021758" lon="105.61962"><ele>1108.2</ele><time>2025-11-22T00:38:10.000Z</time></trkpt>
        <trkpt lat="28.021755" lon="105.619628"><ele>1108.2</ele><time>2025-11-22T00:38:11.000Z</time></trkpt>
        <trkpt lat="28.021752" lon="105.619638"><ele>1108.8</ele><time>2025-11-22T00:38:12.000Z</time></trkpt>
        <trkpt lat="28.021748" lon="105.619648"><ele>1108.8</ele><time>2025-11-22T00:38:13.000Z</time></trkpt>
        <trkpt lat="28.021745" lon="105.619659"><ele>1108.8</ele><time>2025-11-22T00:38:14.000Z</time></trkpt>
        <trkpt lat="28.021741" lon="105.61967"><ele>1108.8</ele><time>2025-11-22T00:38:15.000Z</time></trkpt>
        <trkpt lat="28.021739" lon="105.61968"><ele>1108.8</ele><time>2025-11-22T00:38:16.000Z</time></trkpt>
        <trkpt lat="28.021736" lon="105.61969"><ele>1109.3</ele><time>2025-11-22T00:38:17.000Z</time></trkpt>
        <trkpt lat="28.021734" lon="105.6197"><ele>1109.3</ele><time>2025-11-22T00:38:18.000Z</time></trkpt>
        <trkpt lat="28.021732" lon="105.619711"><ele>1109.3</ele><time>2025-11-22T00:38:19.000Z</time></trkpt>
        <trkpt lat="28.021731" lon="105.619722"><ele>1109.3</ele><time>2025-11-22T00:38:20.000Z</time></trkpt>
        <trkpt lat="28.02173" lon="105.619734"><ele>1109.3</ele><time>2025-11-22T00:38:21.000Z</time></trkpt>
        <trkpt lat="28.021729" lon="105.619747"><ele>1109.8</ele><time>2025-11-22T00:38:22.000Z</time></trkpt>
        <trkpt lat="28.021729" lon="105.619759"><ele>1109.8</ele><time>2025-11-22T00:38:23.000Z</time></trkpt>
        <trkpt lat="28.021728" lon="105.619771"><ele>1109.8</ele><time>2025-11-22T00:38:24.000Z</time></trkpt>
        <trkpt lat="28.021727" lon="105.619782"><ele>1109.8</ele><time>2025-11-22T00:38:25.000Z</time></trkpt>
        <trkpt lat="28.021725" lon="105.619793"><ele>1109.8</ele><time>2025-11-22T00:38:26.000Z</time></trkpt>
        <trkpt lat="28.021723" lon="105.619805"><ele>1110.2</ele><time>2025-11-22T00:38:27.000Z</time></trkpt>
        <trkpt lat="28.021721" lon="105.619817"><ele>1110.2</ele><time>2025-11-22T00:38:28.000Z</time></trkpt>
        <trkpt lat="28.021719" lon="105.619828"><ele>1110.2</ele><time>2025-11-22T00:38:29.000Z</time></trkpt>
        <trkpt lat="28.021718" lon="105.619839"><ele>1110.2</ele><time>2025-11-22T00:38:30.000Z</time></trkpt>
        <trkpt lat="28.021716" lon="105.61985"><ele>1110.2</ele><time>2025-11-22T00:38:31.000Z</time></trkpt>
        <trkpt lat="28.021713" lon="105.61986"><ele>1110.8</ele><time>2025-11-22T00:38:32.000Z</time></trkpt>
        <trkpt lat="28.021709" lon="105.61987"><ele>1110.8</ele><time>2025-11-22T00:38:33.000Z</time></trkpt>
        <trkpt lat="28.021703" lon="105.619879"><ele>1110.8</ele><time>2025-11-22T00:38:34.000Z</time></trkpt>
        <trkpt lat="28.021695" lon="105.619888"><ele>1110.8</ele><time>2025-11-22T00:38:35.000Z</time></trkpt>
        <trkpt lat="28.021687" lon="105.619896"><ele>1110.8</ele><time>2025-11-22T00:38:36.000Z</time></trkpt>
        <trkpt lat="28.021678" lon="105.619902"><ele>1111.2</ele><time>2025-11-22T00:38:37.000Z</time></trkpt>
        <trkpt lat="28.021669" lon="105.619908"><ele>1111.2</ele><time>2025-11-22T00:38:38.000Z</time></trkpt>
        <trkpt lat="28.02166" lon="105.619912"><ele>1111.2</ele><time>2025-11-22T00:38:39.000Z</time></trkpt>
        <trkpt lat="28.021651" lon="105.619914"><ele>1111.2</ele><time>2025-11-22T00:38:40.000Z</time></trkpt>
        <trkpt lat="28.021641" lon="105.619916"><ele>1111.2</ele><time>2025-11-22T00:38:41.000Z</time></trkpt>
        <trkpt lat="28.021631" lon="105.619917"><ele>1111.8</ele><time>2025-11-22T00:38:42.000Z</time></trkpt>
        <trkpt lat="28.02162" lon="105.619917"><ele>1111.8</ele><time>2025-11-22T00:38:43.000Z</time></trkpt>
        <trkpt lat="28.021609" lon="105.619917"><ele>1111.8</ele><time>2025-11-22T00:38:44.000Z</time></trkpt>
        <trkpt lat="28.021597" lon="105.619916"><ele>1111.8</ele><time>2025-11-22T00:38:45.000Z</time></trkpt>
        <trkpt lat="28.021586" lon="105.619914"><ele>1111.8</ele><time>2025-11-22T00:38:46.000Z</time></trkpt>
        <trkpt lat="28.021576" lon="105.619912"><ele>1112.3</ele><time>2025-11-22T00:38:47.000Z</time></trkpt>
        <trkpt lat="28.021566" lon="105.61991"><ele>1112.3</ele><time>2025-11-22T00:38:48.000Z</time></trkpt>
        <trkpt lat="28.021557" lon="105.619906"><ele>1112.3</ele><time>2025-11-22T00:38:49.000Z</time></trkpt>
        <trkpt lat="28.021548" lon="105.619903"><ele>1112.3</ele><time>2025-11-22T00:38:50.000Z</time></trkpt>
        <trkpt lat="28.021539" lon="105.619898"><ele>1112.3</ele><time>2025-11-22T00:38:51.000Z</time></trkpt>
        <trkpt lat="28.02153" lon="105.619893"><ele>1112.8</ele><time>2025-11-22T00:38:52.000Z</time></trkpt>
        <trkpt lat="28.021522" lon="105.619888"><ele>1112.8</ele><time>2025-11-22T00:38:53.000Z</time></trkpt>
        <trkpt lat="28.021513" lon="105.619881"><ele>1112.8</ele><time>2025-11-22T00:38:54.000Z</time></trkpt>
        <trkpt lat="28.021506" lon="105.619874"><ele>1112.8</ele><time>2025-11-22T00:38:55.000Z</time></trkpt>
        <trkpt lat="28.021499" lon="105.619865"><ele>1112.8</ele><time>2025-11-22T00:38:56.000Z</time></trkpt>
        <trkpt lat="28.021494" lon="105.619855"><ele>1113.3</ele><time>2025-11-22T00:38:57.000Z</time></trkpt>
        <trkpt lat="28.021489" lon="105.619845"><ele>1113.3</ele><time>2025-11-22T00:38:58.000Z</time></trkpt>
        <trkpt lat="28.021485" lon="105.619835"><ele>1113.3</ele><time>2025-11-22T00:38:59.000Z</time></trkpt>
        <trkpt lat="28.021481" lon="105.619825"><ele>1113.3</ele><time>2025-11-22T00:39:00.000Z</time></trkpt>
        <trkpt lat="28.021477" lon="105.619815"><ele>1113.3</ele><time>2025-11-22T00:39:01.000Z</time></trkpt>
        <trkpt lat="28.021474" lon="105.619805"><ele>1114</ele><time>2025-11-22T00:39:02.000Z</time></trkpt>
        <trkpt lat="28.02147" lon="105.619796"><ele>1114</ele><time>2025-11-22T00:39:03.000Z</time></trkpt>
        <trkpt lat="28.021466" lon="105.619786"><ele>1114</ele><time>2025-11-22T00:39:04.000Z</time></trkpt>
        <trkpt lat="28.021462" lon="105.619776"><ele>1114</ele><time>2025-11-22T00:39:05.000Z</time></trkpt>
        <trkpt lat="28.021457" lon="105.619764"><ele>1114</ele><time>2025-11-22T00:39:06.000Z</time></trkpt>
        <trkpt lat="28.021452" lon="105.619753"><ele>1114.6</ele><time>2025-11-22T00:39:07.000Z</time></trkpt>
        <trkpt lat="28.021447" lon="105.619741"><ele>1114.6</ele><time>2025-11-22T00:39:08.000Z</time></trkpt>
        <trkpt lat="28.021443" lon="105.619729"><ele>1114.6</ele><time>2025-11-22T00:39:09.000Z</time></trkpt>
        <trkpt lat="28.02144" lon="105.619717"><ele>1114.6</ele><time>2025-11-22T00:39:10.000Z</time></trkpt>
        <trkpt lat="28.021437" lon="105.619706"><ele>1114.6</ele><time>2025-11-22T00:39:11.000Z</time></trkpt>
        <trkpt lat="28.021434" lon="105.619694"><ele>1115</ele><time>2025-11-22T00:39:12.000Z</time></trkpt>
        <trkpt lat="28.02143" lon="105.619682"><ele>1115</ele><time>2025-11-22T00:39:13.000Z</time></trkpt>
        <trkpt lat="28.021426" lon="105.61967"><ele>1115</ele><time>2025-11-22T00:39:14.000Z</time></trkpt>
        <trkpt lat="28.021421" lon="105.61966"><ele>1115</ele><time>2025-11-22T00:39:15.000Z</time></trkpt>
        <trkpt lat="28.021416" lon="105.619651"><ele>1115</ele><time>2025-11-22T00:39:16.000Z</time></trkpt>
        <trkpt lat="28.02141" lon="105.619643"><ele>1115.6</ele><time>2025-11-22T00:39:17.000Z</time></trkpt>
        <trkpt lat="28.021404" lon="105.619636"><ele>1115.6</ele><time>2025-11-22T00:39:18.000Z</time></trkpt>
        <trkpt lat="28.021397" lon="105.61963"><ele>1115.6</ele><time>2025-11-22T00:39:19.000Z</time></trkpt>
        <trkpt lat="28.02139" lon="105.619624"><ele>1115.6</ele><time>2025-11-22T00:39:20.000Z</time></trkpt>
        <trkpt lat="28.021382" lon="105.619618"><ele>1115.6</ele><time>2025-11-22T00:39:21.000Z</time></trkpt>
        <trkpt lat="28.021375" lon="105.619612"><ele>1116</ele><time>2025-11-22T00:39:22.000Z</time></trkpt>
        <trkpt lat="28.021367" lon="105.619606"><ele>1116</ele><time>2025-11-22T00:39:23.000Z</time></trkpt>
        <trkpt lat="28.021358" lon="105.6196"><ele>1116</ele><time>2025-11-22T00:39:24.000Z</time></trkpt>
        <trkpt lat="28.021349" lon="105.619594"><ele>1116</ele><time>2025-11-22T00:39:25.000Z</time></trkpt>
        <trkpt lat="28.02134" lon="105.619587"><ele>1116</ele><time>2025-11-22T00:39:26.000Z</time></trkpt>
        <trkpt lat="28.021332" lon="105.619581"><ele>1116.2</ele><time>2025-11-22T00:39:27.000Z</time></trkpt>
        <trkpt lat="28.021323" lon="105.619574"><ele>1116.2</ele><time>2025-11-22T00:39:28.000Z</time></trkpt>
        <trkpt lat="28.021315" lon="105.619567"><ele>1116.2</ele><time>2025-11-22T00:39:29.000Z</time></trkpt>
        <trkpt lat="28.021308" lon="105.61956"><ele>1116.2</ele><time>2025-11-22T00:39:30.000Z</time></trkpt>
        <trkpt lat="28.021301" lon="105.619554"><ele>1116.2</ele><time>2025-11-22T00:39:31.000Z</time></trkpt>
        <trkpt lat="28.021294" lon="105.619549"><ele>1116.7</ele><time>2025-11-22T00:39:32.000Z</time></trkpt>
        <trkpt lat="28.021287" lon="105.619543"><ele>1116.7</ele><time>2025-11-22T00:39:33.000Z</time></trkpt>
        <trkpt lat="28.021279" lon="105.619536"><ele>1116.7</ele><time>2025-11-22T00:39:34.000Z</time></trkpt>
        <trkpt lat="28.021271" lon="105.619528"><ele>1116.7</ele><time>2025-11-22T00:39:35.000Z</time></trkpt>
        <trkpt lat="28.021264" lon="105.619519"><ele>1116.7</ele><time>2025-11-22T00:39:36.000Z</time></trkpt>
        <trkpt lat="28.021257" lon="105.619509"><ele>1116.9</ele><time>2025-11-22T00:39:37.000Z</time></trkpt>
        <trkpt lat="28.02125" lon="105.619499"><ele>1116.9</ele><time>2025-11-22T00:39:38.000Z</time></trkpt>
        <trkpt lat="28.021245" lon="105.619489"><ele>1116.9</ele><time>2025-11-22T00:39:39.000Z</time></trkpt>
        <trkpt lat="28.02124" lon="105.619478"><ele>1116.9</ele><time>2025-11-22T00:39:40.000Z</time></trkpt>
        <trkpt lat="28.021235" lon="105.619467"><ele>1116.9</ele><time>2025-11-22T00:39:41.000Z</time></trkpt>
        <trkpt lat="28.021231" lon="105.619456"><ele>1116.9</ele><time>2025-11-22T00:39:42.000Z</time></trkpt>
        <trkpt lat="28.021228" lon="105.619445"><ele>1116.9</ele><time>2025-11-22T00:39:43.000Z</time></trkpt>
        <trkpt lat="28.021224" lon="105.619434"><ele>1116.9</ele><time>2025-11-22T00:39:44.000Z</time></trkpt>
        <trkpt lat="28.02122" lon="105.619423"><ele>1116.9</ele><time>2025-11-22T00:39:45.000Z</time></trkpt>
        <trkpt lat="28.021216" lon="105.619411"><ele>1116.9</ele><time>2025-11-22T00:39:46.000Z</time></trkpt>
        <trkpt lat="28.021213" lon="105.619399"><ele>1117.2</ele><time>2025-11-22T00:39:47.000Z</time></trkpt>
        <trkpt lat="28.021209" lon="105.619387"><ele>1117.2</ele><time>2025-11-22T00:39:48.000Z</time></trkpt>
        <trkpt lat="28.021205" lon="105.619375"><ele>1117.2</ele><time>2025-11-22T00:39:49.000Z</time></trkpt>
        <trkpt lat="28.021201" lon="105.619363"><ele>1117.2</ele><time>2025-11-22T00:39:50.000Z</time></trkpt>
        <trkpt lat="28.021197" lon="105.619352"><ele>1117.2</ele><time>2025-11-22T00:39:51.000Z</time></trkpt>
        <trkpt lat="28.021193" lon="105.619339"><ele>1117.5</ele><time>2025-11-22T00:39:52.000Z</time></trkpt>
        <trkpt lat="28.02119" lon="105.619327"><ele>1117.5</ele><time>2025-11-22T00:39:53.000Z</time></trkpt>
        <trkpt lat="28.021186" lon="105.619314"><ele>1117.5</ele><time>2025-11-22T00:39:54.000Z</time></trkpt>
        <trkpt lat="28.021183" lon="105.619302"><ele>1117.5</ele><time>2025-11-22T00:39:55.000Z</time></trkpt>
        <trkpt lat="28.021181" lon="105.61929"><ele>1117.5</ele><time>2025-11-22T00:39:56.000Z</time></trkpt>
        <trkpt lat="28.02118" lon="105.619279"><ele>1117.7</ele><time>2025-11-22T00:39:57.000Z</time></trkpt>
        <trkpt lat="28.021178" lon="105.619269"><ele>1117.7</ele><time>2025-11-22T00:39:58.000Z</time></trkpt>
        <trkpt lat="28.021177" lon="105.619261"><ele>1117.7</ele><time>2025-11-22T00:39:59.000Z</time></trkpt>
        <trkpt lat="28.021176" lon="105.619252"><ele>1117.7</ele><time>2025-11-22T00:40:00.000Z</time></trkpt>
        <trkpt lat="28.021173" lon="105.619244"><ele>1117.7</ele><time>2025-11-22T00:40:01.000Z</time></trkpt>
        <trkpt lat="28.02117" lon="105.619236"><ele>1118.3</ele><time>2025-11-22T00:40:02.000Z</time></trkpt>
        <trkpt lat="28.021167" lon="105.619227"><ele>1118.3</ele><time>2025-11-22T00:40:03.000Z</time></trkpt>
        <trkpt lat="28.021164" lon="105.619218"><ele>1118.3</ele><time>2025-11-22T00:40:04.000Z</time></trkpt>
        <trkpt lat="28.02116" lon="105.619208"><ele>1118.3</ele><time>2025-11-22T00:40:05.000Z</time></trkpt>
        <trkpt lat="28.021156" lon="105.619198"><ele>1118.3</ele><time>2025-11-22T00:40:06.000Z</time></trkpt>
        <trkpt lat="28.021153" lon="105.619189"><ele>1119.1</ele><time>2025-11-22T00:40:07.000Z</time></trkpt>
        <trkpt lat="28.02115" lon="105.619179"><ele>1119.1</ele><time>2025-11-22T00:40:08.000Z</time></trkpt>
        <trkpt lat="28.021146" lon="105.619169"><ele>1119.1</ele><time>2025-11-22T00:40:09.000Z</time></trkpt>
        <trkpt lat="28.021143" lon="105.619159"><ele>1119.1</ele><time>2025-11-22T00:40:10.000Z</time></trkpt>
        <trkpt lat="28.02114" lon="105.619149"><ele>1119.1</ele><time>2025-11-22T00:40:11.000Z</time></trkpt>
        <trkpt lat="28.021137" lon="105.619138"><ele>1119.7</ele><time>2025-11-22T00:40:12.000Z</time></trkpt>
        <trkpt lat="28.021135" lon="105.619127"><ele>1119.7</ele><time>2025-11-22T00:40:13.000Z</time></trkpt>
        <trkpt lat="28.021133" lon="105.619117"><ele>1119.7</ele><time>2025-11-22T00:40:14.000Z</time></trkpt>
        <trkpt lat="28.021132" lon="105.619106"><ele>1119.7</ele><time>2025-11-22T00:40:15.000Z</time></trkpt>
        <trkpt lat="28.021131" lon="105.619094"><ele>1119.7</ele><time>2025-11-22T00:40:16.000Z</time></trkpt>
        <trkpt lat="28.02113" lon="105.619083"><ele>1120.8</ele><time>2025-11-22T00:40:17.000Z</time></trkpt>
        <trkpt lat="28.021129" lon="105.61907"><ele>1120.8</ele><time>2025-11-22T00:40:18.000Z</time></trkpt>
        <trkpt lat="28.021127" lon="105.619057"><ele>1120.8</ele><time>2025-11-22T00:40:19.000Z</time></trkpt>
        <trkpt lat="28.021126" lon="105.619044"><ele>1120.8</ele><time>2025-11-22T00:40:20.000Z</time></trkpt>
        <trkpt lat="28.021123" lon="105.619031"><ele>1120.8</ele><time>2025-11-22T00:40:21.000Z</time></trkpt>
        <trkpt lat="28.021121" lon="105.619019"><ele>1121.5</ele><time>2025-11-22T00:40:22.000Z</time></trkpt>
        <trkpt lat="28.02112" lon="105.619009"><ele>1121.5</ele><time>2025-11-22T00:40:23.000Z</time></trkpt>
        <trkpt lat="28.021118" lon="105.618999"><ele>1121.5</ele><time>2025-11-22T00:40:24.000Z</time></trkpt>
        <trkpt lat="28.021117" lon="105.61899"><ele>1121.5</ele><time>2025-11-22T00:40:25.000Z</time></trkpt>
        <trkpt lat="28.021115" lon="105.618982"><ele>1121.5</ele><time>2025-11-22T00:40:26.000Z</time></trkpt>
        <trkpt lat="28.021113" lon="105.618973"><ele>1122.6</ele><time>2025-11-22T00:40:27.000Z</time></trkpt>
        <trkpt lat="28.021111" lon="105.618964"><ele>1122.6</ele><time>2025-11-22T00:40:28.000Z</time></trkpt>
        <trkpt lat="28.021108" lon="105.618955"><ele>1122.6</ele><time>2025-11-22T00:40:29.000Z</time></trkpt>
        <trkpt lat="28.021105" lon="105.618944"><ele>1122.6</ele><time>2025-11-22T00:40:30.000Z</time></trkpt>
        <trkpt lat="28.021103" lon="105.618934"><ele>1122.6</ele><time>2025-11-22T00:40:31.000Z</time></trkpt>
        <trkpt lat="28.021101" lon="105.618923"><ele>1123.3</ele><time>2025-11-22T00:40:32.000Z</time></trkpt>
        <trkpt lat="28.021099" lon="105.618911"><ele>1123.3</ele><time>2025-11-22T00:40:33.000Z</time></trkpt>
        <trkpt lat="28.021099" lon="105.6189"><ele>1123.3</ele><time>2025-11-22T00:40:34.000Z</time></trkpt>
        <trkpt lat="28.021101" lon="105.61889"><ele>1123.3</ele><time>2025-11-22T00:40:35.000Z</time></trkpt>
        <trkpt lat="28.021102" lon="105.618879"><ele>1123.3</ele><time>2025-11-22T00:40:36.000Z</time></trkpt>
        <trkpt lat="28.021105" lon="105.618868"><ele>1124.2</ele><time>2025-11-22T00:40:37.000Z</time></trkpt>
        <trkpt lat="28.021106" lon="105.618858"><ele>1124.2</ele><time>2025-11-22T00:40:38.000Z</time></trkpt>
        <trkpt lat="28.021109" lon="105.618847"><ele>1124.2</ele><time>2025-11-22T00:40:39.000Z</time></trkpt>
        <trkpt lat="28.021111" lon="105.618838"><ele>1124.2</ele><time>2025-11-22T00:40:40.000Z</time></trkpt>
        <trkpt lat="28.021115" lon="105.61883"><ele>1124.2</ele><time>2025-11-22T00:40:41.000Z</time></trkpt>
        <trkpt lat="28.021122" lon="105.618823"><ele>1124.8</ele><time>2025-11-22T00:40:42.000Z</time></trkpt>
        <trkpt lat="28.021129" lon="105.618818"><ele>1124.8</ele><time>2025-11-22T00:40:43.000Z</time></trkpt>
        <trkpt lat="28.021137" lon="105.618815"><ele>1124.8</ele><time>2025-11-22T00:40:44.000Z</time></trkpt>
        <trkpt lat="28.021145" lon="105.618813"><ele>1124.8</ele><time>2025-11-22T00:40:45.000Z</time></trkpt>
        <trkpt lat="28.021153" lon="105.618813"><ele>1124.8</ele><time>2025-11-22T00:40:46.000Z</time></trkpt>
        <trkpt lat="28.021161" lon="105.618813"><ele>1125.4</ele><time>2025-11-22T00:40:47.000Z</time></trkpt>
        <trkpt lat="28.02117" lon="105.618815"><ele>1125.4</ele><time>2025-11-22T00:40:48.000Z</time></trkpt>
        <trkpt lat="28.021178" lon="105.618816"><ele>1125.4</ele><time>2025-11-22T00:40:49.000Z</time></trkpt>
        <trkpt lat="28.021187" lon="105.618818"><ele>1125.4</ele><time>2025-11-22T00:40:50.000Z</time></trkpt>
        <trkpt lat="28.021195" lon="105.61882"><ele>1125.4</ele><time>2025-11-22T00:40:51.000Z</time></trkpt>
        <trkpt lat="28.021204" lon="105.618823"><ele>1125.8</ele><time>2025-11-22T00:40:52.000Z</time></trkpt>
        <trkpt lat="28.021212" lon="105.618826"><ele>1125.8</ele><time>2025-11-22T00:40:53.000Z</time></trkpt>
        <trkpt lat="28.021221" lon="105.618829"><ele>1125.8</ele><time>2025-11-22T00:40:54.000Z</time></trkpt>
        <trkpt lat="28.02123" lon="105.618831"><ele>1125.8</ele><time>2025-11-22T00:40:55.000Z</time></trkpt>
        <trkpt lat="28.021239" lon="105.618834"><ele>1125.8</ele><time>2025-11-22T00:40:56.000Z</time></trkpt>
        <trkpt lat="28.021249" lon="105.618837"><ele>1126.4</ele><time>2025-11-22T00:40:57.000Z</time></trkpt>
        <trkpt lat="28.021258" lon="105.61884"><ele>1126.4</ele><time>2025-11-22T00:40:58.000Z</time></trkpt>
        <trkpt lat="28.021268" lon="105.618843"><ele>1126.4</ele><time>2025-11-22T00:40:59.000Z</time></trkpt>
        <trkpt lat="28.021278" lon="105.618847"><ele>1126.4</ele><time>2025-11-22T00:41:00.000Z</time></trkpt>
        <trkpt lat="28.021288" lon="105.61885"><ele>1126.4</ele><time>2025-11-22T00:41:01.000Z</time></trkpt>
        <trkpt lat="28.021297" lon="105.618855"><ele>1127</ele><time>2025-11-22T00:41:02.000Z</time></trkpt>
        <trkpt lat="28.021307" lon="105.618859"><ele>1127</ele><time>2025-11-22T00:41:03.000Z</time></trkpt>
        <trkpt lat="28.021316" lon="105.618863"><ele>1127</ele><time>2025-11-22T00:41:04.000Z</time></trkpt>
        <trkpt lat="28.021325" lon="105.618867"><ele>1127</ele><time>2025-11-22T00:41:05.000Z</time></trkpt>
        <trkpt lat="28.021334" lon="105.61887"><ele>1127</ele><time>2025-11-22T00:41:06.000Z</time></trkpt>
        <trkpt lat="28.021343" lon="105.618873"><ele>1127.8</ele><time>2025-11-22T00:41:07.000Z</time></trkpt>
        <trkpt lat="28.021351" lon="105.618876"><ele>1127.8</ele><time>2025-11-22T00:41:08.000Z</time></trkpt>
        <trkpt lat="28.021359" lon="105.618879"><ele>1127.8</ele><time>2025-11-22T00:41:09.000Z</time></trkpt>
        <trkpt lat="28.021367" lon="105.618882"><ele>1127.8</ele><time>2025-11-22T00:41:10.000Z</time></trkpt>
        <trkpt lat="28.021374" lon="105.618885"><ele>1127.8</ele><time>2025-11-22T00:41:11.000Z</time></trkpt>
        <trkpt lat="28.021382" lon="105.618886"><ele>1128.4</ele><time>2025-11-22T00:41:12.000Z</time></trkpt>
        <trkpt lat="28.021389" lon="105.618887"><ele>1128.4</ele><time>2025-11-22T00:41:13.000Z</time></trkpt>
        <trkpt lat="28.021397" lon="105.618889"><ele>1128.4</ele><time>2025-11-22T00:41:14.000Z</time></trkpt>
        <trkpt lat="28.021404" lon="105.61889"><ele>1128.4</ele><time>2025-11-22T00:41:15.000Z</time></trkpt>
        <trkpt lat="28.021411" lon="105.61889"><ele>1128.4</ele><time>2025-11-22T00:41:16.000Z</time></trkpt>
        <trkpt lat="28.021419" lon="105.618891"><ele>1129.4</ele><time>2025-11-22T00:41:17.000Z</time></trkpt>
        <trkpt lat="28.021426" lon="105.618892"><ele>1129.4</ele><time>2025-11-22T00:41:18.000Z</time></trkpt>
        <trkpt lat="28.021433" lon="105.618893"><ele>1129.4</ele><time>2025-11-22T00:41:19.000Z</time></trkpt>
        <trkpt lat="28.02144" lon="105.618894"><ele>1129.4</ele><time>2025-11-22T00:41:20.000Z</time></trkpt>
        <trkpt lat="28.021446" lon="105.618894"><ele>1129.4</ele><time>2025-11-22T00:41:21.000Z</time></trkpt>
        <trkpt lat="28.021452" lon="105.618895"><ele>1130.1</ele><time>2025-11-22T00:41:22.000Z</time></trkpt>
        <trkpt lat="28.021459" lon="105.618895"><ele>1130.1</ele><time>2025-11-22T00:41:23.000Z</time></trkpt>
        <trkpt lat="28.021465" lon="105.618894"><ele>1130.1</ele><time>2025-11-22T00:41:24.000Z</time></trkpt>
        <trkpt lat="28.021472" lon="105.618893"><ele>1130.1</ele><time>2025-11-22T00:41:25.000Z</time></trkpt>
        <trkpt lat="28.021479" lon="105.618891"><ele>1130.1</ele><time>2025-11-22T00:41:26.000Z</time></trkpt>
        <trkpt lat="28.021486" lon="105.618889"><ele>1131.3</ele><time>2025-11-22T00:41:27.000Z</time></trkpt>
        <trkpt lat="28.021491" lon="105.618885"><ele>1131.3</ele><time>2025-11-22T00:41:28.000Z</time></trkpt>
        <trkpt lat="28.021496" lon="105.618881"><ele>1131.3</ele><time>2025-11-22T00:41:29.000Z</time></trkpt>
        <trkpt lat="28.021501" lon="105.618876"><ele>1131.3</ele><time>2025-11-22T00:41:30.000Z</time></trkpt>
        <trkpt lat="28.021505" lon="105.61887"><ele>1131.3</ele><time>2025-11-22T00:41:31.000Z</time></trkpt>
        <trkpt lat="28.02151" lon="105.618863"><ele>1132.1</ele><time>2025-11-22T00:41:32.000Z</time></trkpt>
        <trkpt lat="28.021515" lon="105.618856"><ele>1132.1</ele><time>2025-11-22T00:41:33.000Z</time></trkpt>
        <trkpt lat="28.02152" lon="105.618848"><ele>1132.1</ele><time>2025-11-22T00:41:34.000Z</time></trkpt>
        <trkpt lat="28.021525" lon="105.61884"><ele>1132.1</ele><time>2025-11-22T00:41:35.000Z</time></trkpt>
        <trkpt lat="28.021529" lon="105.618832"><ele>1132.1</ele><time>2025-11-22T00:41:36.000Z</time></trkpt>
        <trkpt lat="28.021532" lon="105.618823"><ele>1133.3</ele><time>2025-11-22T00:41:37.000Z</time></trkpt>
        <trkpt lat="28.021534" lon="105.618814"><ele>1133.3</ele><time>2025-11-22T00:41:38.000Z</time></trkpt>
        <trkpt lat="28.021536" lon="105.618805"><ele>1133.3</ele><time>2025-11-22T00:41:39.000Z</time></trkpt>
        <trkpt lat="28.021538" lon="105.618795"><ele>1133.3</ele><time>2025-11-22T00:41:40.000Z</time></trkpt>
        <trkpt lat="28.02154" lon="105.618784"><ele>1133.3</ele><time>2025-11-22T00:41:41.000Z</time></trkpt>
        <trkpt lat="28.021542" lon="105.618774"><ele>1134</ele><time>2025-11-22T00:41:42.000Z</time></trkpt>
        <trkpt lat="28.021544" lon="105.618764"><ele>1134</ele><time>2025-11-22T00:41:43.000Z</time></trkpt>
        <trkpt lat="28.021546" lon="105.618755"><ele>1134</ele><time>2025-11-22T00:41:44.000Z</time></trkpt>
        <trkpt lat="28.021548" lon="105.618745"><ele>1134</ele><time>2025-11-22T00:41:45.000Z</time></trkpt>
        <trkpt lat="28.02155" lon="105.618736"><ele>1134</ele><time>2025-11-22T00:41:46.000Z</time></trkpt>
        <trkpt lat="28.021552" lon="105.618726"><ele>1135.1</ele><time>2025-11-22T00:41:47.000Z</time></trkpt>
        <trkpt lat="28.021554" lon="105.618715"><ele>1135.1</ele><time>2025-11-22T00:41:48.000Z</time></trkpt>
        <trkpt lat="28.021555" lon="105.618705"><ele>1135.1</ele><time>2025-11-22T00:41:49.000Z</time></trkpt>
        <trkpt lat="28.021556" lon="105.618696"><ele>1135.1</ele><time>2025-11-22T00:41:50.000Z</time></trkpt>
        <trkpt lat="28.021556" lon="105.618686"><ele>1135.1</ele><time>2025-11-22T00:41:51.000Z</time></trkpt>
        <trkpt lat="28.021555" lon="105.618677"><ele>1135.9</ele><time>2025-11-22T00:41:52.000Z</time></trkpt>
        <trkpt lat="28.021555" lon="105.618669"><ele>1135.9</ele><time>2025-11-22T00:41:53.000Z</time></trkpt>
        <trkpt lat="28.021554" lon="105.61866"><ele>1135.9</ele><time>2025-11-22T00:41:54.000Z</time></trkpt>
        <trkpt lat="28.021554" lon="105.618651"><ele>1135.9</ele><time>2025-11-22T00:41:55.000Z</time></trkpt>
        <trkpt lat="28.021554" lon="105.618643"><ele>1135.9</ele><time>2025-11-22T00:41:56.000Z</time></trkpt>
        <trkpt lat="28.021553" lon="105.618635"><ele>1137.1</ele><time>2025-11-22T00:41:57.000Z</time></trkpt>
        <trkpt lat="28.021552" lon="105.618626"><ele>1137.1</ele><time>2025-11-22T00:41:58.000Z</time></trkpt>
        <trkpt lat="28.02155" lon="105.618618"><ele>1137.1</ele><time>2025-11-22T00:41:59.000Z</time></trkpt>
        <trkpt lat="28.021548" lon="105.61861"><ele>1137.1</ele><time>2025-11-22T00:42:00.000Z</time></trkpt>
        <trkpt lat="28.021547" lon="105.618601"><ele>1137.1</ele><time>2025-11-22T00:42:01.000Z</time></trkpt>
        <trkpt lat="28.021545" lon="105.618593"><ele>1138.1</ele><time>2025-11-22T00:42:02.000Z</time></trkpt>
        <trkpt lat="28.021543" lon="105.618584"><ele>1138.1</ele><time>2025-11-22T00:42:03.000Z</time></trkpt>
        <trkpt lat="28.02154" lon="105.618575"><ele>1138.1</ele><time>2025-11-22T00:42:04.000Z</time></trkpt>
        <trkpt lat="28.021537" lon="105.618565"><ele>1138.1</ele><time>2025-11-22T00:42:05.000Z</time></trkpt>
        <trkpt lat="28.021533" lon="105.618555"><ele>1138.1</ele><time>2025-11-22T00:42:06.000Z</time></trkpt>
        <trkpt lat="28.021529" lon="105.618546"><ele>1138.9</ele><time>2025-11-22T00:42:07.000Z</time></trkpt>
        <trkpt lat="28.021526" lon="105.618537"><ele>1138.9</ele><time>2025-11-22T00:42:08.000Z</time></trkpt>
        <trkpt lat="28.021522" lon="105.618528"><ele>1138.9</ele><time>2025-11-22T00:42:09.000Z</time></trkpt>
        <trkpt lat="28.021519" lon="105.61852"><ele>1138.9</ele><time>2025-11-22T00:42:10.000Z</time></trkpt>
        <trkpt lat="28.021517" lon="105.618512"><ele>1138.9</ele><time>2025-11-22T00:42:11.000Z</time></trkpt>
        <trkpt lat="28.021514" lon="105.618502"><ele>1140.1</ele><time>2025-11-22T00:42:12.000Z</time></trkpt>
        <trkpt lat="28.021511" lon="105.618492"><ele>1140.1</ele><time>2025-11-22T00:42:13.000Z</time></trkpt>
        <trkpt lat="28.021509" lon="105.618483"><ele>1140.1</ele><time>2025-11-22T00:42:14.000Z</time></trkpt>
        <trkpt lat="28.021507" lon="105.618473"><ele>1140.1</ele><time>2025-11-22T00:42:15.000Z</time></trkpt>
        <trkpt lat="28.021506" lon="105.618462"><ele>1140.1</ele><time>2025-11-22T00:42:16.000Z</time></trkpt>
        <trkpt lat="28.021504" lon="105.618451"><ele>1140.8</ele><time>2025-11-22T00:42:17.000Z</time></trkpt>
        <trkpt lat="28.021503" lon="105.61844"><ele>1140.8</ele><time>2025-11-22T00:42:18.000Z</time></trkpt>
        <trkpt lat="28.021504" lon="105.618428"><ele>1140.8</ele><time>2025-11-22T00:42:19.000Z</time></trkpt>
        <trkpt lat="28.021504" lon="105.618416"><ele>1140.8</ele><time>2025-11-22T00:42:20.000Z</time></trkpt>
        <trkpt lat="28.021506" lon="105.618405"><ele>1140.8</ele><time>2025-11-22T00:42:21.000Z</time></trkpt>
        <trkpt lat="28.021509" lon="105.618394"><ele>1141.7</ele><time>2025-11-22T00:42:22.000Z</time></trkpt>
        <trkpt lat="28.021511" lon="105.618384"><ele>1141.7</ele><time>2025-11-22T00:42:23.000Z</time></trkpt>
        <trkpt lat="28.021514" lon="105.618373"><ele>1141.7</ele><time>2025-11-22T00:42:24.000Z</time></trkpt>
        <trkpt lat="28.021518" lon="105.618363"><ele>1141.7</ele><time>2025-11-22T00:42:25.000Z</time></trkpt>
        <trkpt lat="28.02152" lon="105.618354"><ele>1141.7</ele><time>2025-11-22T00:42:26.000Z</time></trkpt>
        <trkpt lat="28.021523" lon="105.618345"><ele>1142.2</ele><time>2025-11-22T00:42:27.000Z</time></trkpt>
        <trkpt lat="28.021527" lon="105.618337"><ele>1142.2</ele><time>2025-11-22T00:42:28.000Z</time></trkpt>
        <trkpt lat="28.02153" lon="105.618328"><ele>1142.2</ele><time>2025-11-22T00:42:29.000Z</time></trkpt>
        <trkpt lat="28.021533" lon="105.61832"><ele>1142.2</ele><time>2025-11-22T00:42:30.000Z</time></trkpt>
        <trkpt lat="28.021537" lon="105.618311"><ele>1142.2</ele><time>2025-11-22T00:42:31.000Z</time></trkpt>
        <trkpt lat="28.02154" lon="105.618303"><ele>1143</ele><time>2025-11-22T00:42:32.000Z</time></trkpt>
        <trkpt lat="28.021544" lon="105.618295"><ele>1143</ele><time>2025-11-22T00:42:33.000Z</time></trkpt>
        <trkpt lat="28.021548" lon="105.618286"><ele>1143</ele><time>2025-11-22T00:42:34.000Z</time></trkpt>
        <trkpt lat="28.021553" lon="105.618277"><ele>1143</ele><time>2025-11-22T00:42:35.000Z</time></trkpt>
        <trkpt lat="28.021558" lon="105.618268"><ele>1143</ele><time>2025-11-22T00:42:36.000Z</time></trkpt>
        <trkpt lat="28.021562" lon="105.618259"><ele>1143.5</ele><time>2025-11-22T00:42:37.000Z</time></trkpt>
        <trkpt lat="28.021568" lon="105.61825"><ele>1143.5</ele><time>2025-11-22T00:42:38.000Z</time></trkpt>
        <trkpt lat="28.021574" lon="105.618241"><ele>1143.5</ele><time>2025-11-22T00:42:39.000Z</time></trkpt>
        <trkpt lat="28.02158" lon="105.618232"><ele>1143.5</ele><time>2025-11-22T00:42:40.000Z</time></trkpt>
        <trkpt lat="28.021587" lon="105.618224"><ele>1143.5</ele><time>2025-11-22T00:42:41.000Z</time></trkpt>
        <trkpt lat="28.021594" lon="105.618214"><ele>1143.9</ele><time>2025-11-22T00:42:42.000Z</time></trkpt>
        <trkpt lat="28.0216" lon="105.618205"><ele>1143.9</ele><time>2025-11-22T00:42:43.000Z</time></trkpt>
        <trkpt lat="28.021606" lon="105.618196"><ele>1143.9</ele><time>2025-11-22T00:42:44.000Z</time></trkpt>
        <trkpt lat="28.021612" lon="105.618187"><ele>1143.9</ele><time>2025-11-22T00:42:45.000Z</time></trkpt>
        <trkpt lat="28.021619" lon="105.618178"><ele>1143.9</ele><time>2025-11-22T00:42:46.000Z</time></trkpt>
        <trkpt lat="28.021625" lon="105.61817"><ele>1144.4</ele><time>2025-11-22T00:42:47.000Z</time></trkpt>
        <trkpt lat="28.021631" lon="105.618161"><ele>1144.4</ele><time>2025-11-22T00:42:48.000Z</time></trkpt>
        <trkpt lat="28.021636" lon="105.618152"><ele>1144.4</ele><time>2025-11-22T00:42:49.000Z</time></trkpt>
        <trkpt lat="28.021641" lon="105.618144"><ele>1144.4</ele><time>2025-11-22T00:42:50.000Z</time></trkpt>
        <trkpt lat="28.021646" lon="105.618135"><ele>1144.4</ele><time>2025-11-22T00:42:51.000Z</time></trkpt>
        <trkpt lat="28.021652" lon="105.618126"><ele>1145</ele><time>2025-11-22T00:42:52.000Z</time></trkpt>
        <trkpt lat="28.021659" lon="105.618117"><ele>1145</ele><time>2025-11-22T00:42:53.000Z</time></trkpt>
        <trkpt lat="28.021666" lon="105.618109"><ele>1145</ele><time>2025-11-22T00:42:54.000Z</time></trkpt>
        <trkpt lat="28.021673" lon="105.6181"><ele>1145</ele><time>2025-11-22T00:42:55.000Z</time></trkpt>
        <trkpt lat="28.02168" lon="105.618092"><ele>1145</ele><time>2025-11-22T00:42:56.000Z</time></trkpt>
        <trkpt lat="28.021685" lon="105.618083"><ele>1145.5</ele><time>2025-11-22T00:42:57.000Z</time></trkpt>
        <trkpt lat="28.021691" lon="105.618073"><ele>1145.5</ele><time>2025-11-22T00:42:58.000Z</time></trkpt>
        <trkpt lat="28.021696" lon="105.618065"><ele>1145.5</ele><time>2025-11-22T00:42:59.000Z</time></trkpt>
        <trkpt lat="28.021701" lon="105.618057"><ele>1145.5</ele><time>2025-11-22T00:43:00.000Z</time></trkpt>
        <trkpt lat="28.021705" lon="105.618049"><ele>1145.5</ele><time>2025-11-22T00:43:01.000Z</time></trkpt>
        <trkpt lat="28.02171" lon="105.618041"><ele>1146</ele><time>2025-11-22T00:43:02.000Z</time></trkpt>
        <trkpt lat="28.021715" lon="105.618034"><ele>1146</ele><time>2025-11-22T00:43:03.000Z</time></trkpt>
        <trkpt lat="28.02172" lon="105.618026"><ele>1146</ele><time>2025-11-22T00:43:04.000Z</time></trkpt>
        <trkpt lat="28.021726" lon="105.618017"><ele>1146</ele><time>2025-11-22T00:43:05.000Z</time></trkpt>
        <trkpt lat="28.021732" lon="105.618009"><ele>1146</ele><time>2025-11-22T00:43:06.000Z</time></trkpt>
        <trkpt lat="28.021739" lon="105.618001"><ele>1146.8</ele><time>2025-11-22T00:43:07.000Z</time></trkpt>
        <trkpt lat="28.021745" lon="105.617993"><ele>1146.8</ele><time>2025-11-22T00:43:08.000Z</time></trkpt>
        <trkpt lat="28.02175" lon="105.617985"><ele>1146.8</ele><time>2025-11-22T00:43:09.000Z</time></trkpt>
        <trkpt lat="28.021756" lon="105.617976"><ele>1146.8</ele><time>2025-11-22T00:43:10.000Z</time></trkpt>
        <trkpt lat="28.02176" lon="105.617966"><ele>1146.8</ele><time>2025-11-22T00:43:11.000Z</time></trkpt>
        <trkpt lat="28.021765" lon="105.617956"><ele>1147.4</ele><time>2025-11-22T00:43:12.000Z</time></trkpt>
        <trkpt lat="28.021769" lon="105.617947"><ele>1147.4</ele><time>2025-11-22T00:43:13.000Z</time></trkpt>
        <trkpt lat="28.021773" lon="105.617936"><ele>1147.4</ele><time>2025-11-22T00:43:14.000Z</time></trkpt>
        <trkpt lat="28.021776" lon="105.617926"><ele>1147.4</ele><time>2025-11-22T00:43:15.000Z</time></trkpt>
        <trkpt lat="28.02178" lon="105.617917"><ele>1147.4</ele><time>2025-11-22T00:43:16.000Z</time></trkpt>
        <trkpt lat="28.021782" lon="105.617907"><ele>1148.2</ele><time>2025-11-22T00:43:17.000Z</time></trkpt>
        <trkpt lat="28.021783" lon="105.617896"><ele>1148.2</ele><time>2025-11-22T00:43:18.000Z</time></trkpt>
        <trkpt lat="28.021784" lon="105.617886"><ele>1148.2</ele><time>2025-11-22T00:43:19.000Z</time></trkpt>
        <trkpt lat="28.021784" lon="105.617876"><ele>1148.2</ele><time>2025-11-22T00:43:20.000Z</time></trkpt>
        <trkpt lat="28.021784" lon="105.617866"><ele>1148.2</ele><time>2025-11-22T00:43:21.000Z</time></trkpt>
        <trkpt lat="28.021784" lon="105.617856"><ele>1148.7</ele><time>2025-11-22T00:43:22.000Z</time></trkpt>
        <trkpt lat="28.021784" lon="105.617846"><ele>1148.7</ele><time>2025-11-22T00:43:23.000Z</time></trkpt>
        <trkpt lat="28.021784" lon="105.617835"><ele>1148.7</ele><time>2025-11-22T00:43:24.000Z</time></trkpt>
        <trkpt lat="28.021783" lon="105.617823"><ele>1148.7</ele><time>2025-11-22T00:43:25.000Z</time></trkpt>
        <trkpt lat="28.021782" lon="105.617811"><ele>1148.7</ele><time>2025-11-22T00:43:26.000Z</time></trkpt>
        <trkpt lat="28.021782" lon="105.617799"><ele>1149.4</ele><time>2025-11-22T00:43:27.000Z</time></trkpt>
        <trkpt lat="28.021781" lon="105.617788"><ele>1149.4</ele><time>2025-11-22T00:43:28.000Z</time></trkpt>
        <trkpt lat="28.02178" lon="105.617776"><ele>1149.4</ele><time>2025-11-22T00:43:29.000Z</time></trkpt>
        <trkpt lat="28.021779" lon="105.617764"><ele>1149.4</ele><time>2025-11-22T00:43:30.000Z</time></trkpt>
        <trkpt lat="28.021778" lon="105.617751"><ele>1149.4</ele><time>2025-11-22T00:43:31.000Z</time></trkpt>
        <trkpt lat="28.021776" lon="105.617738"><ele>1149.8</ele><time>2025-11-22T00:43:32.000Z</time></trkpt>
        <trkpt lat="28.021775" lon="105.617726"><ele>1149.8</ele><time>2025-11-22T00:43:33.000Z</time></trkpt>
        <trkpt lat="28.021772" lon="105.617714"><ele>1149.8</ele><time>2025-11-22T00:43:34.000Z</time></trkpt>
        <trkpt lat="28.021769" lon="105.617703"><ele>1149.8</ele><time>2025-11-22T00:43:35.000Z</time></trkpt>
        <trkpt lat="28.021766" lon="105.617693"><ele>1149.8</ele><time>2025-11-22T00:43:36.000Z</time></trkpt>
        <trkpt lat="28.021762" lon="105.617683"><ele>1150.5</ele><time>2025-11-22T00:43:37.000Z</time></trkpt>
        <trkpt lat="28.021757" lon="105.617673"><ele>1150.5</ele><time>2025-11-22T00:43:38.000Z</time></trkpt>
        <trkpt lat="28.021752" lon="105.617663"><ele>1150.5</ele><time>2025-11-22T00:43:39.000Z</time></trkpt>
        <trkpt lat="28.021747" lon="105.617654"><ele>1150.5</ele><time>2025-11-22T00:43:40.000Z</time></trkpt>
        <trkpt lat="28.021742" lon="105.617645"><ele>1150.5</ele><time>2025-11-22T00:43:41.000Z</time></trkpt>
        <trkpt lat="28.021737" lon="105.617636"><ele>1150.9</ele><time>2025-11-22T00:43:42.000Z</time></trkpt>
        <trkpt lat="28.021731" lon="105.617627"><ele>1150.9</ele><time>2025-11-22T00:43:43.000Z</time></trkpt>
        <trkpt lat="28.021725" lon="105.617618"><ele>1150.9</ele><time>2025-11-22T00:43:44.000Z</time></trkpt>
        <trkpt lat="28.021718" lon="105.617609"><ele>1150.9</ele><time>2025-11-22T00:43:45.000Z</time></trkpt>
        <trkpt lat="28.02171" lon="105.6176"><ele>1150.9</ele><time>2025-11-22T00:43:46.000Z</time></trkpt>
        <trkpt lat="28.021703" lon="105.617592"><ele>1151.6</ele><time>2025-11-22T00:43:47.000Z</time></trkpt>
        <trkpt lat="28.021695" lon="105.617584"><ele>1151.6</ele><time>2025-11-22T00:43:48.000Z</time></trkpt>
        <trkpt lat="28.021686" lon="105.617578"><ele>1151.6</ele><time>2025-11-22T00:43:49.000Z</time></trkpt>
        <trkpt lat="28.021675" lon="105.617571"><ele>1151.6</ele><time>2025-11-22T00:43:50.000Z</time></trkpt>
        <trkpt lat="28.021664" lon="105.617566"><ele>1151.6</ele><time>2025-11-22T00:43:51.000Z</time></trkpt>
        <trkpt lat="28.021653" lon="105.61756"><ele>1152</ele><time>2025-11-22T00:43:52.000Z</time></trkpt>
        <trkpt lat="28.021642" lon="105.617556"><ele>1152</ele><time>2025-11-22T00:43:53.000Z</time></trkpt>
        <trkpt lat="28.021631" lon="105.617553"><ele>1152</ele><time>2025-11-22T00:43:54.000Z</time></trkpt>
        <trkpt lat="28.021622" lon="105.61755"><ele>1152</ele><time>2025-11-22T00:43:55.000Z</time></trkpt>
        <trkpt lat="28.021613" lon="105.617547"><ele>1152</ele><time>2025-11-22T00:43:56.000Z</time></trkpt>
        <trkpt lat="28.021603" lon="105.617544"><ele>1152.7</ele><time>2025-11-22T00:43:57.000Z</time></trkpt>
        <trkpt lat="28.021593" lon="105.617541"><ele>1152.7</ele><time>2025-11-22T00:43:58.000Z</time></trkpt>
        <trkpt lat="28.021583" lon="105.617538"><ele>1152.7</ele><time>2025-11-22T00:43:59.000Z</time></trkpt>
        <trkpt lat="28.021573" lon="105.617536"><ele>1152.7</ele><time>2025-11-22T00:44:00.000Z</time></trkpt>
        <trkpt lat="28.021563" lon="105.617533"><ele>1152.7</ele><time>2025-11-22T00:44:01.000Z</time></trkpt>
        <trkpt lat="28.021554" lon="105.61753"><ele>1153.2</ele><time>2025-11-22T00:44:02.000Z</time></trkpt>
        <trkpt lat="28.021543" lon="105.617527"><ele>1153.2</ele><time>2025-11-22T00:44:03.000Z</time></trkpt>
        <trkpt lat="28.021533" lon="105.617522"><ele>1153.2</ele><time>2025-11-22T00:44:04.000Z</time></trkpt>
        <trkpt lat="28.021523" lon="105.617518"><ele>1153.2</ele><time>2025-11-22T00:44:05.000Z</time></trkpt>
        <trkpt lat="28.021513" lon="105.617514"><ele>1153.2</ele><time>2025-11-22T00:44:06.000Z</time></trkpt>
        <trkpt lat="28.021505" lon="105.617511"><ele>1154.1</ele><time>2025-11-22T00:44:07.000Z</time></trkpt>
        <trkpt lat="28.021498" lon="105.617508"><ele>1154.1</ele><time>2025-11-22T00:44:08.000Z</time></trkpt>
        <trkpt lat="28.021489" lon="105.617505"><ele>1154.1</ele><time>2025-11-22T00:44:09.000Z</time></trkpt>
        <trkpt lat="28.021481" lon="105.617502"><ele>1154.1</ele><time>2025-11-22T00:44:10.000Z</time></trkpt>
        <trkpt lat="28.021472" lon="105.617498"><ele>1154.1</ele><time>2025-11-22T00:44:11.000Z</time></trkpt>
        <trkpt lat="28.021464" lon="105.617494"><ele>1154.6</ele><time>2025-11-22T00:44:12.000Z</time></trkpt>
        <trkpt lat="28.021456" lon="105.617489"><ele>1154.6</ele><time>2025-11-22T00:44:13.000Z</time></trkpt>
        <trkpt lat="28.021449" lon="105.617483"><ele>1154.6</ele><time>2025-11-22T00:44:14.000Z</time></trkpt>
        <trkpt lat="28.021442" lon="105.617476"><ele>1154.6</ele><time>2025-11-22T00:44:15.000Z</time></trkpt>
        <trkpt lat="28.021435" lon="105.61747"><ele>1154.6</ele><time>2025-11-22T00:44:16.000Z</time></trkpt>
        <trkpt lat="28.021428" lon="105.617462"><ele>1155.5</ele><time>2025-11-22T00:44:17.000Z</time></trkpt>
        <trkpt lat="28.021421" lon="105.617454"><ele>1155.5</ele><time>2025-11-22T00:44:18.000Z</time></trkpt>
        <trkpt lat="28.021413" lon="105.617446"><ele>1155.5</ele><time>2025-11-22T00:44:19.000Z</time></trkpt>
        <trkpt lat="28.021406" lon="105.617437"><ele>1155.5</ele><time>2025-11-22T00:44:20.000Z</time></trkpt>
        <trkpt lat="28.021399" lon="105.617429"><ele>1155.5</ele><time>2025-11-22T00:44:21.000Z</time></trkpt>
        <trkpt lat="28.021392" lon="105.61742"><ele>1156.1</ele><time>2025-11-22T00:44:22.000Z</time></trkpt>
        <trkpt lat="28.021386" lon="105.617411"><ele>1156.1</ele><time>2025-11-22T00:44:23.000Z</time></trkpt>
        <trkpt lat="28.02138" lon="105.617402"><ele>1156.1</ele><time>2025-11-22T00:44:24.000Z</time></trkpt>
        <trkpt lat="28.021374" lon="105.617391"><ele>1156.1</ele><time>2025-11-22T00:44:25.000Z</time></trkpt>
        <trkpt lat="28.021368" lon="105.617381"><ele>1156.1</ele><time>2025-11-22T00:44:26.000Z</time></trkpt>
        <trkpt lat="28.021362" lon="105.617371"><ele>1156.9</ele><time>2025-11-22T00:44:27.000Z</time></trkpt>
        <trkpt lat="28.021356" lon="105.617361"><ele>1156.9</ele><time>2025-11-22T00:44:28.000Z</time></trkpt>
        <trkpt lat="28.021351" lon="105.617351"><ele>1156.9</ele><time>2025-11-22T00:44:29.000Z</time></trkpt>
        <trkpt lat="28.021346" lon="105.617342"><ele>1156.9</ele><time>2025-11-22T00:44:30.000Z</time></trkpt>
        <trkpt lat="28.02134" lon="105.617332"><ele>1156.9</ele><time>2025-11-22T00:44:31.000Z</time></trkpt>
        <trkpt lat="28.021334" lon="105.617321"><ele>1157.4</ele><time>2025-11-22T00:44:32.000Z</time></trkpt>
        <trkpt lat="28.021327" lon="105.61731"><ele>1157.4</ele><time>2025-11-22T00:44:33.000Z</time></trkpt>
        <trkpt lat="28.02132" lon="105.617299"><ele>1157.4</ele><time>2025-11-22T00:44:34.000Z</time></trkpt>
        <trkpt lat="28.021313" lon="105.617289"><ele>1157.4</ele><time>2025-11-22T00:44:35.000Z</time></trkpt>
        <trkpt lat="28.021305" lon="105.617281"><ele>1157.4</ele><time>2025-11-22T00:44:36.000Z</time></trkpt>
        <trkpt lat="28.021297" lon="105.617274"><ele>1157.9</ele><time>2025-11-22T00:44:37.000Z</time></trkpt>
        <trkpt lat="28.021289" lon="105.617267"><ele>1157.9</ele><time>2025-11-22T00:44:38.000Z</time></trkpt>
        <trkpt lat="28.02128" lon="105.617261"><ele>1157.9</ele><time>2025-11-22T00:44:39.000Z</time></trkpt>
        <trkpt lat="28.021271" lon="105.617256"><ele>1157.9</ele><time>2025-11-22T00:44:40.000Z</time></trkpt>
        <trkpt lat="28.021262" lon="105.617252"><ele>1157.9</ele><time>2025-11-22T00:44:41.000Z</time></trkpt>
        <trkpt lat="28.021252" lon="105.617248"><ele>1158.4</ele><time>2025-11-22T00:44:42.000Z</time></trkpt>
        <trkpt lat="28.021242" lon="105.617246"><ele>1158.4</ele><time>2025-11-22T00:44:43.000Z</time></trkpt>
        <trkpt lat="28.021232" lon="105.617244"><ele>1158.4</ele><time>2025-11-22T00:44:44.000Z</time></trkpt>
        <trkpt lat="28.021222" lon="105.617242"><ele>1158.4</ele><time>2025-11-22T00:44:45.000Z</time></trkpt>
        <trkpt lat="28.021212" lon="105.61724"><ele>1158.4</ele><time>2025-11-22T00:44:46.000Z</time></trkpt>
        <trkpt lat="28.021202" lon="105.617239"><ele>1159</ele><time>2025-11-22T00:44:47.000Z</time></trkpt>
        <trkpt lat="28.021193" lon="105.617238"><ele>1159</ele><time>2025-11-22T00:44:48.000Z</time></trkpt>
        <trkpt lat="28.021185" lon="105.617237"><ele>1159</ele><time>2025-11-22T00:44:49.000Z</time></trkpt>
        <trkpt lat="28.021178" lon="105.617237"><ele>1159</ele><time>2025-11-22T00:44:50.000Z</time></trkpt>
        <trkpt lat="28.02117" lon="105.617237"><ele>1159</ele><time>2025-11-22T00:44:51.000Z</time></trkpt>
        <trkpt lat="28.021162" lon="105.617239"><ele>1159.3</ele><time>2025-11-22T00:44:52.000Z</time></trkpt>
        <trkpt lat="28.021154" lon="105.61724"><ele>1159.3</ele><time>2025-11-22T00:44:53.000Z</time></trkpt>
        <trkpt lat="28.021145" lon="105.617242"><ele>1159.3</ele><time>2025-11-22T00:44:54.000Z</time></trkpt>
        <trkpt lat="28.021137" lon="105.617243"><ele>1159.3</ele><time>2025-11-22T00:44:55.000Z</time></trkpt>
        <trkpt lat="28.021128" lon="105.617243"><ele>1159.3</ele><time>2025-11-22T00:44:56.000Z</time></trkpt>
        <trkpt lat="28.021119" lon="105.617243"><ele>1159.9</ele><time>2025-11-22T00:44:57.000Z</time></trkpt>
        <trkpt lat="28.02111" lon="105.617244"><ele>1159.9</ele><time>2025-11-22T00:44:58.000Z</time></trkpt>
        <trkpt lat="28.021101" lon="105.617245"><ele>1159.9</ele><time>2025-11-22T00:44:59.000Z</time></trkpt>
        <trkpt lat="28.021092" lon="105.617247"><ele>1159.9</ele><time>2025-11-22T00:45:00.000Z</time></trkpt>
        <trkpt lat="28.021083" lon="105.617249"><ele>1159.9</ele><time>2025-11-22T00:45:01.000Z</time></trkpt>
        <trkpt lat="28.021073" lon="105.617251"><ele>1160.4</ele><time>2025-11-22T00:45:02.000Z</time></trkpt>
        <trkpt lat="28.021062" lon="105.617251"><ele>1160.4</ele><time>2025-11-22T00:45:03.000Z</time></trkpt>
        <trkpt lat="28.021051" lon="105.61725"><ele>1160.4</ele><time>2025-11-22T00:45:04.000Z</time></trkpt>
        <trkpt lat="28.021039" lon="105.617248"><ele>1160.4</ele><time>2025-11-22T00:45:05.000Z</time></trkpt>
        <trkpt lat="28.021027" lon="105.617246"><ele>1160.4</ele><time>2025-11-22T00:45:06.000Z</time></trkpt>
        <trkpt lat="28.021016" lon="105.617242"><ele>1160.7</ele><time>2025-11-22T00:45:07.000Z</time></trkpt>
        <trkpt lat="28.021006" lon="105.617237"><ele>1160.7</ele><time>2025-11-22T00:45:08.000Z</time></trkpt>
        <trkpt lat="28.020996" lon="105.617231"><ele>1160.7</ele><time>2025-11-22T00:45:09.000Z</time></trkpt>
        <trkpt lat="28.020987" lon="105.617223"><ele>1160.7</ele><time>2025-11-22T00:45:10.000Z</time></trkpt>
        <trkpt lat="28.02098" lon="105.617213"><ele>1160.7</ele><time>2025-11-22T00:45:11.000Z</time></trkpt>
        <trkpt lat="28.020973" lon="105.617202"><ele>1161.2</ele><time>2025-11-22T00:45:12.000Z</time></trkpt>
        <trkpt lat="28.020968" lon="105.61719"><ele>1161.2</ele><time>2025-11-22T00:45:13.000Z</time></trkpt>
        <trkpt lat="28.020962" lon="105.617178"><ele>1161.2</ele><time>2025-11-22T00:45:14.000Z</time></trkpt>
        <trkpt lat="28.020958" lon="105.617166"><ele>1161.2</ele><time>2025-11-22T00:45:15.000Z</time></trkpt>
        <trkpt lat="28.020955" lon="105.617155"><ele>1161.2</ele><time>2025-11-22T00:45:16.000Z</time></trkpt>
        <trkpt lat="28.020952" lon="105.617145"><ele>1161.7</ele><time>2025-11-22T00:45:17.000Z</time></trkpt>
        <trkpt lat="28.02095" lon="105.617134"><ele>1161.7</ele><time>2025-11-22T00:45:18.000Z</time></trkpt>
        <trkpt lat="28.020949" lon="105.617122"><ele>1161.7</ele><time>2025-11-22T00:45:19.000Z</time></trkpt>
        <trkpt lat="28.020948" lon="105.617111"><ele>1161.7</ele><time>2025-11-22T00:45:20.000Z</time></trkpt>
        <trkpt lat="28.020949" lon="105.617098"><ele>1161.7</ele><time>2025-11-22T00:45:21.000Z</time></trkpt>
        <trkpt lat="28.02095" lon="105.617085"><ele>1162</ele><time>2025-11-22T00:45:22.000Z</time></trkpt>
        <trkpt lat="28.020951" lon="105.617073"><ele>1162</ele><time>2025-11-22T00:45:23.000Z</time></trkpt>
        <trkpt lat="28.020952" lon="105.617062"><ele>1162</ele><time>2025-11-22T00:45:24.000Z</time></trkpt>
        <trkpt lat="28.020953" lon="105.61705"><ele>1162</ele><time>2025-11-22T00:45:25.000Z</time></trkpt>
        <trkpt lat="28.020955" lon="105.617038"><ele>1162</ele><time>2025-11-22T00:45:26.000Z</time></trkpt>
        <trkpt lat="28.020957" lon="105.617026"><ele>1162.6</ele><time>2025-11-22T00:45:27.000Z</time></trkpt>
        <trkpt lat="28.020959" lon="105.617014"><ele>1162.6</ele><time>2025-11-22T00:45:28.000Z</time></trkpt>
        <trkpt lat="28.020963" lon="105.617"><ele>1162.6</ele><time>2025-11-22T00:45:29.000Z</time></trkpt>
        <trkpt lat="28.020965" lon="105.616987"><ele>1162.6</ele><time>2025-11-22T00:45:30.000Z</time></trkpt>
        <trkpt lat="28.020968" lon="105.616975"><ele>1162.6</ele><time>2025-11-22T00:45:31.000Z</time></trkpt>
        <trkpt lat="28.020971" lon="105.616963"><ele>1163.3</ele><time>2025-11-22T00:45:32.000Z</time></trkpt>
        <trkpt lat="28.020974" lon="105.616952"><ele>1163.3</ele><time>2025-11-22T00:45:33.000Z</time></trkpt>
        <trkpt lat="28.020977" lon="105.61694"><ele>1163.3</ele><time>2025-11-22T00:45:34.000Z</time></trkpt>
        <trkpt lat="28.02098" lon="105.616928"><ele>1163.3</ele><time>2025-11-22T00:45:35.000Z</time></trkpt>
        <trkpt lat="28.020982" lon="105.616916"><ele>1163.3</ele><time>2025-11-22T00:45:36.000Z</time></trkpt>
        <trkpt lat="28.020984" lon="105.616904"><ele>1163.8</ele><time>2025-11-22T00:45:37.000Z</time></trkpt>
        <trkpt lat="28.020985" lon="105.616891"><ele>1163.8</ele><time>2025-11-22T00:45:38.000Z</time></trkpt>
        <trkpt lat="28.020986" lon="105.616878"><ele>1163.8</ele><time>2025-11-22T00:45:39.000Z</time></trkpt>
        <trkpt lat="28.020986" lon="105.616865"><ele>1163.8</ele><time>2025-11-22T00:45:40.000Z</time></trkpt>
        <trkpt lat="28.020984" lon="105.616853"><ele>1163.8</ele><time>2025-11-22T00:45:41.000Z</time></trkpt>
        <trkpt lat="28.020982" lon="105.616841"><ele>1164.5</ele><time>2025-11-22T00:45:42.000Z</time></trkpt>
        <trkpt lat="28.02098" lon="105.61683"><ele>1164.5</ele><time>2025-11-22T00:45:43.000Z</time></trkpt>
        <trkpt lat="28.020978" lon="105.616819"><ele>1164.5</ele><time>2025-11-22T00:45:44.000Z</time></trkpt>
        <trkpt lat="28.020976" lon="105.616808"><ele>1164.5</ele><time>2025-11-22T00:45:45.000Z</time></trkpt>
        <trkpt lat="28.020974" lon="105.616797"><ele>1164.5</ele><time>2025-11-22T00:45:46.000Z</time></trkpt>
        <trkpt lat="28.020971" lon="105.616786"><ele>1164.9</ele><time>2025-11-22T00:45:47.000Z</time></trkpt>
        <trkpt lat="28.020968" lon="105.616775"><ele>1164.9</ele><time>2025-11-22T00:45:48.000Z</time></trkpt>
        <trkpt lat="28.020963" lon="105.616764"><ele>1164.9</ele><time>2025-11-22T00:45:49.000Z</time></trkpt>
        <trkpt lat="28.020957" lon="105.616754"><ele>1164.9</ele><time>2025-11-22T00:45:50.000Z</time></trkpt>
        <trkpt lat="28.02095" lon="105.616745"><ele>1164.9</ele><time>2025-11-22T00:45:51.000Z</time></trkpt>
        <trkpt lat="28.020944" lon="105.616737"><ele>1165.6</ele><time>2025-11-22T00:45:52.000Z</time></trkpt>
        <trkpt lat="28.020937" lon="105.616729"><ele>1165.6</ele><time>2025-11-22T00:45:53.000Z</time></trkpt>
        <trkpt lat="28.02093" lon="105.616721"><ele>1165.6</ele><time>2025-11-22T00:45:54.000Z</time></trkpt>
        <trkpt lat="28.020924" lon="105.616715"><ele>1165.6</ele><time>2025-11-22T00:45:55.000Z</time></trkpt>
        <trkpt lat="28.020917" lon="105.616708"><ele>1165.6</ele><time>2025-11-22T00:45:56.000Z</time></trkpt>
        <trkpt lat="28.020909" lon="105.6167"><ele>1166</ele><time>2025-11-22T00:45:57.000Z</time></trkpt>
        <trkpt lat="28.020901" lon="105.616692"><ele>1166</ele><time>2025-11-22T00:45:58.000Z</time></trkpt>
        <trkpt lat="28.020892" lon="105.616683"><ele>1166</ele><time>2025-11-22T00:45:59.000Z</time></trkpt>
        <trkpt lat="28.020884" lon="105.616675"><ele>1166</ele><time>2025-11-22T00:46:00.000Z</time></trkpt>
        <trkpt lat="28.020875" lon="105.616665"><ele>1166</ele><time>2025-11-22T00:46:01.000Z</time></trkpt>
        <trkpt lat="28.020867" lon="105.616655"><ele>1166.9</ele><time>2025-11-22T00:46:02.000Z</time></trkpt>
        <trkpt lat="28.020861" lon="105.616643"><ele>1166.9</ele><time>2025-11-22T00:46:03.000Z</time></trkpt>
        <trkpt lat="28.020855" lon="105.61663"><ele>1166.9</ele><time>2025-11-22T00:46:04.000Z</time></trkpt>
        <trkpt lat="28.020851" lon="105.616617"><ele>1166.9</ele><time>2025-11-22T00:46:05.000Z</time></trkpt>
        <trkpt lat="28.020849" lon="105.616603"><ele>1166.9</ele><time>2025-11-22T00:46:06.000Z</time></trkpt>
        <trkpt lat="28.020848" lon="105.616589"><ele>1167.6</ele><time>2025-11-22T00:46:07.000Z</time></trkpt>
        <trkpt lat="28.020849" lon="105.616576"><ele>1167.6</ele><time>2025-11-22T00:46:08.000Z</time></trkpt>
        <trkpt lat="28.02085" lon="105.616563"><ele>1167.6</ele><time>2025-11-22T00:46:09.000Z</time></trkpt>
        <trkpt lat="28.020852" lon="105.616551"><ele>1167.6</ele><time>2025-11-22T00:46:10.000Z</time></trkpt>
        <trkpt lat="28.020855" lon="105.616538"><ele>1167.6</ele><time>2025-11-22T00:46:11.000Z</time></trkpt>
        <trkpt lat="28.020858" lon="105.616527"><ele>1168.6</ele><time>2025-11-22T00:46:12.000Z</time></trkpt>
        <trkpt lat="28.02086" lon="105.616515"><ele>1168.6</ele><time>2025-11-22T00:46:13.000Z</time></trkpt>
        <trkpt lat="28.020863" lon="105.616504"><ele>1168.6</ele><time>2025-11-22T00:46:14.000Z</time></trkpt>
        <trkpt lat="28.020866" lon="105.616493"><ele>1168.6</ele><time>2025-11-22T00:46:15.000Z</time></trkpt>
        <trkpt lat="28.020868" lon="105.616483"><ele>1168.6</ele><time>2025-11-22T00:46:16.000Z</time></trkpt>
        <trkpt lat="28.02087" lon="105.616473"><ele>1169.2</ele><time>2025-11-22T00:46:17.000Z</time></trkpt>
        <trkpt lat="28.020874" lon="105.616464"><ele>1169.2</ele><time>2025-11-22T00:46:18.000Z</time></trkpt>
        <trkpt lat="28.020877" lon="105.616454"><ele>1169.2</ele><time>2025-11-22T00:46:19.000Z</time></trkpt>
        <trkpt lat="28.020879" lon="105.616444"><ele>1169.2</ele><time>2025-11-22T00:46:20.000Z</time></trkpt>
        <trkpt lat="28.020882" lon="105.616434"><ele>1169.2</ele><time>2025-11-22T00:46:21.000Z</time></trkpt>
        <trkpt lat="28.020885" lon="105.616424"><ele>1170.1</ele><time>2025-11-22T00:46:22.000Z</time></trkpt>
        <trkpt lat="28.020887" lon="105.616413"><ele>1170.1</ele><time>2025-11-22T00:46:23.000Z</time></trkpt>
        <trkpt lat="28.020888" lon="105.616403"><ele>1170.1</ele><time>2025-11-22T00:46:24.000Z</time></trkpt>
        <trkpt lat="28.02089" lon="105.616393"><ele>1170.1</ele><time>2025-11-22T00:46:25.000Z</time></trkpt>
        <trkpt lat="28.020892" lon="105.616383"><ele>1170.1</ele><time>2025-11-22T00:46:26.000Z</time></trkpt>
        <trkpt lat="28.020893" lon="105.616373"><ele>1170.5</ele><time>2025-11-22T00:46:27.000Z</time></trkpt>
        <trkpt lat="28.020894" lon="105.616363"><ele>1170.5</ele><time>2025-11-22T00:46:28.000Z</time></trkpt>
        <trkpt lat="28.020895" lon="105.616352"><ele>1170.5</ele><time>2025-11-22T00:46:29.000Z</time></trkpt>
        <trkpt lat="28.020895" lon="105.61634"><ele>1170.5</ele><time>2025-11-22T00:46:30.000Z</time></trkpt>
        <trkpt lat="28.020895" lon="105.616329"><ele>1170.5</ele><time>2025-11-22T00:46:31.000Z</time></trkpt>
        <trkpt lat="28.020893" lon="105.616318"><ele>1171.3</ele><time>2025-11-22T00:46:32.000Z</time></trkpt>
        <trkpt lat="28.02089" lon="105.616309"><ele>1171.3</ele><time>2025-11-22T00:46:33.000Z</time></trkpt>
        <trkpt lat="28.020886" lon="105.616299"><ele>1171.3</ele><time>2025-11-22T00:46:34.000Z</time></trkpt>
        <trkpt lat="28.020882" lon="105.61629"><ele>1171.3</ele><time>2025-11-22T00:46:35.000Z</time></trkpt>
        <trkpt lat="28.020876" lon="105.616281"><ele>1171.3</ele><time>2025-11-22T00:46:36.000Z</time></trkpt>
        <trkpt lat="28.020871" lon="105.616271"><ele>1171.8</ele><time>2025-11-22T00:46:37.000Z</time></trkpt>
        <trkpt lat="28.020865" lon="105.616261"><ele>1171.8</ele><time>2025-11-22T00:46:38.000Z</time></trkpt>
        <trkpt lat="28.020859" lon="105.616251"><ele>1171.8</ele><time>2025-11-22T00:46:39.000Z</time></trkpt>
        <trkpt lat="28.020853" lon="105.616242"><ele>1171.8</ele><time>2025-11-22T00:46:40.000Z</time></trkpt>
        <trkpt lat="28.020848" lon="105.616233"><ele>1171.8</ele><time>2025-11-22T00:46:41.000Z</time></trkpt>
        <trkpt lat="28.020844" lon="105.616222"><ele>1172.6</ele><time>2025-11-22T00:46:42.000Z</time></trkpt>
        <trkpt lat="28.020839" lon="105.616212"><ele>1172.6</ele><time>2025-11-22T00:46:43.000Z</time></trkpt>
        <trkpt lat="28.020834" lon="105.616202"><ele>1172.6</ele><time>2025-11-22T00:46:44.000Z</time></trkpt>
        <trkpt lat="28.020829" lon="105.616193"><ele>1172.6</ele><time>2025-11-22T00:46:45.000Z</time></trkpt>
        <trkpt lat="28.020823" lon="105.616185"><ele>1172.6</ele><time>2025-11-22T00:46:46.000Z</time></trkpt>
        <trkpt lat="28.020818" lon="105.616179"><ele>1173.2</ele><time>2025-11-22T00:46:47.000Z</time></trkpt>
        <trkpt lat="28.020812" lon="105.616173"><ele>1173.2</ele><time>2025-11-22T00:46:48.000Z</time></trkpt>
        <trkpt lat="28.020805" lon="105.616166"><ele>1173.2</ele><time>2025-11-22T00:46:49.000Z</time></trkpt>
        <trkpt lat="28.020799" lon="105.616161"><ele>1173.2</ele><time>2025-11-22T00:46:50.000Z</time></trkpt>
        <trkpt lat="28.020791" lon="105.616156"><ele>1173.2</ele><time>2025-11-22T00:46:51.000Z</time></trkpt>
        <trkpt lat="28.020783" lon="105.616151"><ele>1174.3</ele><time>2025-11-22T00:46:52.000Z</time></trkpt>
        <trkpt lat="28.020775" lon="105.616148"><ele>1174.3</ele><time>2025-11-22T00:46:53.000Z</time></trkpt>
        <trkpt lat="28.020766" lon="105.616146"><ele>1174.3</ele><time>2025-11-22T00:46:54.000Z</time></trkpt>
        <trkpt lat="28.020757" lon="105.616145"><ele>1174.3</ele><time>2025-11-22T00:46:55.000Z</time></trkpt>
        <trkpt lat="28.020748" lon="105.616144"><ele>1174.3</ele><time>2025-11-22T00:46:56.000Z</time></trkpt>
        <trkpt lat="28.020739" lon="105.616145"><ele>1175</ele><time>2025-11-22T00:46:57.000Z</time></trkpt>
        <trkpt lat="28.020731" lon="105.616146"><ele>1175</ele><time>2025-11-22T00:46:58.000Z</time></trkpt>
        <trkpt lat="28.020722" lon="105.616147"><ele>1175</ele><time>2025-11-22T00:46:59.000Z</time></trkpt>
        <trkpt lat="28.020713" lon="105.616149"><ele>1175</ele><time>2025-11-22T00:47:00.000Z</time></trkpt>
        <trkpt lat="28.020703" lon="105.616151"><ele>1175</ele><time>2025-11-22T00:47:01.000Z</time></trkpt>
        <trkpt lat="28.020693" lon="105.616153"><ele>1176.1</ele><time>2025-11-22T00:47:02.000Z</time></trkpt>
        <trkpt lat="28.020683" lon="105.616155"><ele>1176.1</ele><time>2025-11-22T00:47:03.000Z</time></trkpt>
        <trkpt lat="28.020673" lon="105.616157"><ele>1176.1</ele><time>2025-11-22T00:47:04.000Z</time></trkpt>
        <trkpt lat="28.020663" lon="105.616159"><ele>1176.1</ele><time>2025-11-22T00:47:05.000Z</time></trkpt>
        <trkpt lat="28.020653" lon="105.616161"><ele>1176.1</ele><time>2025-11-22T00:47:06.000Z</time></trkpt>
        <trkpt lat="28.020643" lon="105.616162"><ele>1176.7</ele><time>2025-11-22T00:47:07.000Z</time></trkpt>
        <trkpt lat="28.020634" lon="105.616163"><ele>1176.7</ele><time>2025-11-22T00:47:08.000Z</time></trkpt>
        <trkpt lat="28.020624" lon="105.616163"><ele>1176.7</ele><time>2025-11-22T00:47:09.000Z</time></trkpt>
        <trkpt lat="28.020615" lon="105.616164"><ele>1176.7</ele><time>2025-11-22T00:47:10.000Z</time></trkpt>
        <trkpt lat="28.020606" lon="105.616165"><ele>1176.7</ele><time>2025-11-22T00:47:11.000Z</time></trkpt>
        <trkpt lat="28.020597" lon="105.616166"><ele>1177.5</ele><time>2025-11-22T00:47:12.000Z</time></trkpt>
        <trkpt lat="28.020588" lon="105.616167"><ele>1177.5</ele><time>2025-11-22T00:47:13.000Z</time></trkpt>
        <trkpt lat="28.020579" lon="105.616167"><ele>1177.5</ele><time>2025-11-22T00:47:14.000Z</time></trkpt>
        <trkpt lat="28.020569" lon="105.616167"><ele>1177.5</ele><time>2025-11-22T00:47:15.000Z</time></trkpt>
        <trkpt lat="28.020559" lon="105.616165"><ele>1177.5</ele><time>2025-11-22T00:47:16.000Z</time></trkpt>
        <trkpt lat="28.020548" lon="105.616163"><ele>1178</ele><time>2025-11-22T00:47:17.000Z</time></trkpt>
        <trkpt lat="28.020538" lon="105.61616"><ele>1178</ele><time>2025-11-22T00:47:18.000Z</time></trkpt>
        <trkpt lat="28.020527" lon="105.616156"><ele>1178</ele><time>2025-11-22T00:47:19.000Z</time></trkpt>
        <trkpt lat="28.020519" lon="105.616149"><ele>1178</ele><time>2025-11-22T00:47:20.000Z</time></trkpt>
        <trkpt lat="28.020511" lon="105.616142"><ele>1178</ele><time>2025-11-22T00:47:21.000Z</time></trkpt>
        <trkpt lat="28.020504" lon="105.616133"><ele>1178.9</ele><time>2025-11-22T00:47:22.000Z</time></trkpt>
        <trkpt lat="28.020498" lon="105.616123"><ele>1178.9</ele><time>2025-11-22T00:47:23.000Z</time></trkpt>
        <trkpt lat="28.020492" lon="105.616114"><ele>1178.9</ele><time>2025-11-22T00:47:24.000Z</time></trkpt>
        <trkpt lat="28.020487" lon="105.616105"><ele>1178.9</ele><time>2025-11-22T00:47:25.000Z</time></trkpt>
        <trkpt lat="28.020482" lon="105.616095"><ele>1178.9</ele><time>2025-11-22T00:47:26.000Z</time></trkpt>
        <trkpt lat="28.020478" lon="105.616085"><ele>1179.6</ele><time>2025-11-22T00:47:27.000Z</time></trkpt>
        <trkpt lat="28.020474" lon="105.616075"><ele>1179.6</ele><time>2025-11-22T00:47:28.000Z</time></trkpt>
        <trkpt lat="28.02047" lon="105.616062"><ele>1179.6</ele><time>2025-11-22T00:47:29.000Z</time></trkpt>
        <trkpt lat="28.020467" lon="105.616048"><ele>1179.6</ele><time>2025-11-22T00:47:30.000Z</time></trkpt>
        <trkpt lat="28.020465" lon="105.616034"><ele>1179.6</ele><time>2025-11-22T00:47:31.000Z</time></trkpt>
        <trkpt lat="28.020463" lon="105.61602"><ele>1180.6</ele><time>2025-11-22T00:47:32.000Z</time></trkpt>
        <trkpt lat="28.020462" lon="105.616007"><ele>1180.6</ele><time>2025-11-22T00:47:33.000Z</time></trkpt>
        <trkpt lat="28.020461" lon="105.615994"><ele>1180.6</ele><time>2025-11-22T00:47:34.000Z</time></trkpt>
        <trkpt lat="28.02046" lon="105.615982"><ele>1180.6</ele><time>2025-11-22T00:47:35.000Z</time></trkpt>
        <trkpt lat="28.020458" lon="105.61597"><ele>1180.6</ele><time>2025-11-22T00:47:36.000Z</time></trkpt>
        <trkpt lat="28.020457" lon="105.615959"><ele>1181.2</ele><time>2025-11-22T00:47:37.000Z</time></trkpt>
        <trkpt lat="28.020455" lon="105.615947"><ele>1181.2</ele><time>2025-11-22T00:47:38.000Z</time></trkpt>
        <trkpt lat="28.020452" lon="105.615934"><ele>1181.2</ele><time>2025-11-22T00:47:39.000Z</time></trkpt>
        <trkpt lat="28.020449" lon="105.615922"><ele>1181.2</ele><time>2025-11-22T00:47:40.000Z</time></trkpt>
        <trkpt lat="28.020446" lon="105.615909"><ele>1181.2</ele><time>2025-11-22T00:47:41.000Z</time></trkpt>
        <trkpt lat="28.020443" lon="105.615896"><ele>1181.9</ele><time>2025-11-22T00:47:42.000Z</time></trkpt>
        <trkpt lat="28.02044" lon="105.615885"><ele>1181.9</ele><time>2025-11-22T00:47:43.000Z</time></trkpt>
        <trkpt lat="28.020436" lon="105.615874"><ele>1181.9</ele><time>2025-11-22T00:47:44.000Z</time></trkpt>
        <trkpt lat="28.020432" lon="105.615863"><ele>1181.9</ele><time>2025-11-22T00:47:45.000Z</time></trkpt>
        <trkpt lat="28.020428" lon="105.615852"><ele>1181.9</ele><time>2025-11-22T00:47:46.000Z</time></trkpt>
        <trkpt lat="28.020423" lon="105.615842"><ele>1182.4</ele><time>2025-11-22T00:47:47.000Z</time></trkpt>
        <trkpt lat="28.020418" lon="105.615832"><ele>1182.4</ele><time>2025-11-22T00:47:48.000Z</time></trkpt>
        <trkpt lat="28.020411" lon="105.615822"><ele>1182.4</ele><time>2025-11-22T00:47:49.000Z</time></trkpt>
        <trkpt lat="28.020404" lon="105.615813"><ele>1182.4</ele><time>2025-11-22T00:47:50.000Z</time></trkpt>
        <trkpt lat="28.020396" lon="105.615803"><ele>1182.4</ele><time>2025-11-22T00:47:51.000Z</time></trkpt>
        <trkpt lat="28.020388" lon="105.615795"><ele>1182.9</ele><time>2025-11-22T00:47:52.000Z</time></trkpt>
        <trkpt lat="28.020379" lon="105.615786"><ele>1182.9</ele><time>2025-11-22T00:47:53.000Z</time></trkpt>
        <trkpt lat="28.020371" lon="105.615777"><ele>1182.9</ele><time>2025-11-22T00:47:54.000Z</time></trkpt>
        <trkpt lat="28.020363" lon="105.615768"><ele>1182.9</ele><time>2025-11-22T00:47:55.000Z</time></trkpt>
        <trkpt lat="28.020356" lon="105.61576"><ele>1182.9</ele><time>2025-11-22T00:47:56.000Z</time></trkpt>
        <trkpt lat="28.020351" lon="105.615751"><ele>1183.2</ele><time>2025-11-22T00:47:57.000Z</time></trkpt>
        <trkpt lat="28.020347" lon="105.615745"><ele>1183.2</ele><time>2025-11-22T00:47:58.000Z</time></trkpt>
        <trkpt lat="28.020345" lon="105.61574"><ele>1183.2</ele><time>2025-11-22T00:47:59.000Z</time></trkpt>
        <trkpt lat="28.020343" lon="105.615736"><ele>1183.2</ele><time>2025-11-22T00:48:00.000Z</time></trkpt>
        <trkpt lat="28.020343" lon="105.615734"><ele>1183.2</ele><time>2025-11-22T00:48:01.000Z</time></trkpt>
        <trkpt lat="28.020343" lon="105.615733"><ele>1183.7</ele><time>2025-11-22T00:48:02.000Z</time></trkpt>
        <trkpt lat="28.020344" lon="105.615732"><ele>1183.7</ele><time>2025-11-22T00:48:03.000Z</time></trkpt>
        <trkpt lat="28.020343" lon="105.61573"><ele>1183.7</ele><time>2025-11-22T00:48:04.000Z</time></trkpt>
        <trkpt lat="28.020343" lon="105.61573"><ele>1183.7</ele><time>2025-11-22T00:48:05.000Z</time></trkpt>
        <trkpt lat="28.020342" lon="105.61573"><ele>1183.7</ele><time>2025-11-22T00:48:06.000Z</time></trkpt>
        <trkpt lat="28.020342" lon="105.615729"><ele>1183.9</ele><time>2025-11-22T00:48:07.000Z</time></trkpt>
        <trkpt lat="28.020341" lon="105.615728"><ele>1183.9</ele><time>2025-11-22T00:48:08.000Z</time></trkpt>
        <trkpt lat="28.02034" lon="105.615725"><ele>1183.9</ele><time>2025-11-22T00:48:09.000Z</time></trkpt>
        <trkpt lat="28.020338" lon="105.615721"><ele>1183.9</ele><time>2025-11-22T00:48:10.000Z</time></trkpt>
        <trkpt lat="28.020334" lon="105.615716"><ele>1183.9</ele><time>2025-11-22T00:48:11.000Z</time></trkpt>
        <trkpt lat="28.02033" lon="105.61571"><ele>1184.2</ele><time>2025-11-22T00:48:12.000Z</time></trkpt>
        <trkpt lat="28.020324" lon="105.615703"><ele>1184.2</ele><time>2025-11-22T00:48:13.000Z</time></trkpt>
        <trkpt lat="28.020319" lon="105.615697"><ele>1184.2</ele><time>2025-11-22T00:48:14.000Z</time></trkpt>
        <trkpt lat="28.020313" lon="105.61569"><ele>1184.2</ele><time>2025-11-22T00:48:15.000Z</time></trkpt>
        <trkpt lat="28.020308" lon="105.615683"><ele>1184.2</ele><time>2025-11-22T00:48:16.000Z</time></trkpt>
        <trkpt lat="28.020303" lon="105.615675"><ele>1184.5</ele><time>2025-11-22T00:48:17.000Z</time></trkpt>
        <trkpt lat="28.020298" lon="105.615666"><ele>1184.5</ele><time>2025-11-22T00:48:18.000Z</time></trkpt>
        <trkpt lat="28.020293" lon="105.615656"><ele>1184.5</ele><time>2025-11-22T00:48:19.000Z</time></trkpt>
        <trkpt lat="28.020287" lon="105.615646"><ele>1184.5</ele><time>2025-11-22T00:48:20.000Z</time></trkpt>
        <trkpt lat="28.020281" lon="105.615636"><ele>1184.5</ele><time>2025-11-22T00:48:21.000Z</time></trkpt>
        <trkpt lat="28.020274" lon="105.615628"><ele>1184.7</ele><time>2025-11-22T00:48:22.000Z</time></trkpt>
        <trkpt lat="28.020267" lon="105.61562"><ele>1184.7</ele><time>2025-11-22T00:48:23.000Z</time></trkpt>
        <trkpt lat="28.02026" lon="105.615614"><ele>1184.7</ele><time>2025-11-22T00:48:24.000Z</time></trkpt>
        <trkpt lat="28.020253" lon="105.615608"><ele>1184.7</ele><time>2025-11-22T00:48:25.000Z</time></trkpt>
        <trkpt lat="28.020245" lon="105.615603"><ele>1184.7</ele><time>2025-11-22T00:48:26.000Z</time></trkpt>
        <trkpt lat="28.020237" lon="105.615598"><ele>1184.7</ele><time>2025-11-22T00:48:27.000Z</time></trkpt>
        <trkpt lat="28.020228" lon="105.615593"><ele>1184.7</ele><time>2025-11-22T00:48:28.000Z</time></trkpt>
        <trkpt lat="28.020217" lon="105.615589"><ele>1184.7</ele><time>2025-11-22T00:48:29.000Z</time></trkpt>
        <trkpt lat="28.020206" lon="105.615585"><ele>1184.7</ele><time>2025-11-22T00:48:30.000Z</time></trkpt>
        <trkpt lat="28.020195" lon="105.615583"><ele>1184.7</ele><time>2025-11-22T00:48:31.000Z</time></trkpt>
        <trkpt lat="28.020183" lon="105.615582"><ele>1184.7</ele><time>2025-11-22T00:48:32.000Z</time></trkpt>
        <trkpt lat="28.020172" lon="105.615582"><ele>1184.7</ele><time>2025-11-22T00:48:33.000Z</time></trkpt>
        <trkpt lat="28.02016" lon="105.615582"><ele>1184.7</ele><time>2025-11-22T00:48:34.000Z</time></trkpt>
        <trkpt lat="28.02015" lon="105.615584"><ele>1184.7</ele><time>2025-11-22T00:48:35.000Z</time></trkpt>
        <trkpt lat="28.02014" lon="105.615587"><ele>1184.7</ele><time>2025-11-22T00:48:36.000Z</time></trkpt>
        <trkpt lat="28.020129" lon="105.615591"><ele>1184.7</ele><time>2025-11-22T00:48:37.000Z</time></trkpt>
        <trkpt lat="28.020119" lon="105.615595"><ele>1184.7</ele><time>2025-11-22T00:48:38.000Z</time></trkpt>
        <trkpt lat="28.020109" lon="105.6156"><ele>1184.7</ele><time>2025-11-22T00:48:39.000Z</time></trkpt>
        <trkpt lat="28.020098" lon="105.615605"><ele>1184.7</ele><time>2025-11-22T00:48:40.000Z</time></trkpt>
        <trkpt lat="28.020087" lon="105.615609"><ele>1184.7</ele><time>2025-11-22T00:48:41.000Z</time></trkpt>
        <trkpt lat="28.020078" lon="105.615613"><ele>1184.9</ele><time>2025-11-22T00:48:42.000Z</time></trkpt>
        <trkpt lat="28.020069" lon="105.615616"><ele>1184.9</ele><time>2025-11-22T00:48:43.000Z</time></trkpt>
        <trkpt lat="28.02006" lon="105.615619"><ele>1184.9</ele><time>2025-11-22T00:48:44.000Z</time></trkpt>
        <trkpt lat="28.020051" lon="105.61562"><ele>1184.9</ele><time>2025-11-22T00:48:45.000Z</time></trkpt>
        <trkpt lat="28.020041" lon="105.615621"><ele>1184.9</ele><time>2025-11-22T00:48:46.000Z</time></trkpt>
        <trkpt lat="28.02003" lon="105.61562"><ele>1185.1</ele><time>2025-11-22T00:48:47.000Z</time></trkpt>
        <trkpt lat="28.02002" lon="105.615618"><ele>1185.1</ele><time>2025-11-22T00:48:48.000Z</time></trkpt>
        <trkpt lat="28.02001" lon="105.615615"><ele>1185.1</ele><time>2025-11-22T00:48:49.000Z</time></trkpt>
        <trkpt lat="28.020001" lon="105.615611"><ele>1185.1</ele><time>2025-11-22T00:48:50.000Z</time></trkpt>
        <trkpt lat="28.019992" lon="105.615606"><ele>1185.1</ele><time>2025-11-22T00:48:51.000Z</time></trkpt>
        <trkpt lat="28.019984" lon="105.615601"><ele>1185.3</ele><time>2025-11-22T00:48:52.000Z</time></trkpt>
        <trkpt lat="28.019975" lon="105.615596"><ele>1185.3</ele><time>2025-11-22T00:48:53.000Z</time></trkpt>
        <trkpt lat="28.019966" lon="105.61559"><ele>1185.3</ele><time>2025-11-22T00:48:54.000Z</time></trkpt>
        <trkpt lat="28.019957" lon="105.615582"><ele>1185.3</ele><time>2025-11-22T00:48:55.000Z</time></trkpt>
        <trkpt lat="28.019948" lon="105.615575"><ele>1185.3</ele><time>2025-11-22T00:48:56.000Z</time></trkpt>
        <trkpt lat="28.019938" lon="105.615567"><ele>1185.5</ele><time>2025-11-22T00:48:57.000Z</time></trkpt>
        <trkpt lat="28.01993" lon="105.615558"><ele>1185.5</ele><time>2025-11-22T00:48:58.000Z</time></trkpt>
        <trkpt lat="28.019923" lon="105.615549"><ele>1185.5</ele><time>2025-11-22T00:48:59.000Z</time></trkpt>
        <trkpt lat="28.019916" lon="105.61554"><ele>1185.5</ele><time>2025-11-22T00:49:00.000Z</time></trkpt>
        <trkpt lat="28.019909" lon="105.61553"><ele>1185.5</ele><time>2025-11-22T00:49:01.000Z</time></trkpt>
        <trkpt lat="28.019903" lon="105.615521"><ele>1185.7</ele><time>2025-11-22T00:49:02.000Z</time></trkpt>
        <trkpt lat="28.019895" lon="105.615512"><ele>1185.7</ele><time>2025-11-22T00:49:03.000Z</time></trkpt>
        <trkpt lat="28.019886" lon="105.615504"><ele>1185.7</ele><time>2025-11-22T00:49:04.000Z</time></trkpt>
        <trkpt lat="28.019877" lon="105.615495"><ele>1185.7</ele><time>2025-11-22T00:49:05.000Z</time></trkpt>
        <trkpt lat="28.019866" lon="105.615486"><ele>1185.7</ele><time>2025-11-22T00:49:06.000Z</time></trkpt>
        <trkpt lat="28.019857" lon="105.615477"><ele>1185.7</ele><time>2025-11-22T00:49:07.000Z</time></trkpt>
        <trkpt lat="28.019847" lon="105.615468"><ele>1185.7</ele><time>2025-11-22T00:49:08.000Z</time></trkpt>
        <trkpt lat="28.019837" lon="105.615458"><ele>1185.7</ele><time>2025-11-22T00:49:09.000Z</time></trkpt>
        <trkpt lat="28.019827" lon="105.615449"><ele>1185.7</ele><time>2025-11-22T00:49:10.000Z</time></trkpt>
        <trkpt lat="28.019818" lon="105.61544"><ele>1185.7</ele><time>2025-11-22T00:49:11.000Z</time></trkpt>
        <trkpt lat="28.019808" lon="105.615431"><ele>1185.9</ele><time>2025-11-22T00:49:12.000Z</time></trkpt>
        <trkpt lat="28.0198" lon="105.615422"><ele>1185.9</ele><time>2025-11-22T00:49:13.000Z</time></trkpt>
        <trkpt lat="28.019791" lon="105.615413"><ele>1185.9</ele><time>2025-11-22T00:49:14.000Z</time></trkpt>
        <trkpt lat="28.019784" lon="105.615404"><ele>1185.9</ele><time>2025-11-22T00:49:15.000Z</time></trkpt>
        <trkpt lat="28.019777" lon="105.615395"><ele>1185.9</ele><time>2025-11-22T00:49:16.000Z</time></trkpt>
        <trkpt lat="28.019771" lon="105.615386"><ele>1185.9</ele><time>2025-11-22T00:49:17.000Z</time></trkpt>
        <trkpt lat="28.019765" lon="105.615377"><ele>1185.9</ele><time>2025-11-22T00:49:18.000Z</time></trkpt>
        <trkpt lat="28.01976" lon="105.615369"><ele>1185.9</ele><time>2025-11-22T00:49:19.000Z</time></trkpt>
        <trkpt lat="28.019756" lon="105.61536"><ele>1185.9</ele><time>2025-11-22T00:49:20.000Z</time></trkpt>
        <trkpt lat="28.019751" lon="105.615352"><ele>1185.9</ele><time>2025-11-22T00:49:21.000Z</time></trkpt>
        <trkpt lat="28.019748" lon="105.615343"><ele>1186.3</ele><time>2025-11-22T00:49:22.000Z</time></trkpt>
        <trkpt lat="28.019744" lon="105.615333"><ele>1186.3</ele><time>2025-11-22T00:49:23.000Z</time></trkpt>
        <trkpt lat="28.019741" lon="105.615322"><ele>1186.3</ele><time>2025-11-22T00:49:24.000Z</time></trkpt>
        <trkpt lat="28.019738" lon="105.615311"><ele>1186.3</ele><time>2025-11-22T00:49:25.000Z</time></trkpt>
        <trkpt lat="28.019735" lon="105.6153"><ele>1186.3</ele><time>2025-11-22T00:49:26.000Z</time></trkpt>
        <trkpt lat="28.019734" lon="105.615289"><ele>1186.9</ele><time>2025-11-22T00:49:27.000Z</time></trkpt>
        <trkpt lat="28.019732" lon="105.615278"><ele>1186.9</ele><time>2025-11-22T00:49:28.000Z</time></trkpt>
        <trkpt lat="28.019731" lon="105.615267"><ele>1186.9</ele><time>2025-11-22T00:49:29.000Z</time></trkpt>
        <trkpt lat="28.019731" lon="105.615257"><ele>1186.9</ele><time>2025-11-22T00:49:30.000Z</time></trkpt>
        <trkpt lat="28.01973" lon="105.615247"><ele>1186.9</ele><time>2025-11-22T00:49:31.000Z</time></trkpt>
        <trkpt lat="28.01973" lon="105.615236"><ele>1187.4</ele><time>2025-11-22T00:49:32.000Z</time></trkpt>
        <trkpt lat="28.019729" lon="105.615226"><ele>1187.4</ele><time>2025-11-22T00:49:33.000Z</time></trkpt>
        <trkpt lat="28.019728" lon="105.615216"><ele>1187.4</ele><time>2025-11-22T00:49:34.000Z</time></trkpt>
        <trkpt lat="28.019725" lon="105.615207"><ele>1187.4</ele><time>2025-11-22T00:49:35.000Z</time></trkpt>
        <trkpt lat="28.019722" lon="105.615197"><ele>1187.4</ele><time>2025-11-22T00:49:36.000Z</time></trkpt>
        <trkpt lat="28.019717" lon="105.615187"><ele>1188.3</ele><time>2025-11-22T00:49:37.000Z</time></trkpt>
        <trkpt lat="28.019713" lon="105.615178"><ele>1188.3</ele><time>2025-11-22T00:49:38.000Z</time></trkpt>
        <trkpt lat="28.019707" lon="105.61517"><ele>1188.3</ele><time>2025-11-22T00:49:39.000Z</time></trkpt>
        <trkpt lat="28.019701" lon="105.615162"><ele>1188.3</ele><time>2025-11-22T00:49:40.000Z</time></trkpt>
        <trkpt lat="28.019695" lon="105.615155"><ele>1188.3</ele><time>2025-11-22T00:49:41.000Z</time></trkpt>
        <trkpt lat="28.019687" lon="105.615147"><ele>1188.9</ele><time>2025-11-22T00:49:42.000Z</time></trkpt>
        <trkpt lat="28.01968" lon="105.615139"><ele>1188.9</ele><time>2025-11-22T00:49:43.000Z</time></trkpt>
        <trkpt lat="28.019672" lon="105.615131"><ele>1188.9</ele><time>2025-11-22T00:49:44.000Z</time></trkpt>
        <trkpt lat="28.019664" lon="105.615123"><ele>1188.9</ele><time>2025-11-22T00:49:45.000Z</time></trkpt>
        <trkpt lat="28.019656" lon="105.615115"><ele>1188.9</ele><time>2025-11-22T00:49:46.000Z</time></trkpt>
        <trkpt lat="28.019649" lon="105.615109"><ele>1189.7</ele><time>2025-11-22T00:49:47.000Z</time></trkpt>
        <trkpt lat="28.019641" lon="105.615103"><ele>1189.7</ele><time>2025-11-22T00:49:48.000Z</time></trkpt>
        <trkpt lat="28.019633" lon="105.615099"><ele>1189.7</ele><time>2025-11-22T00:49:49.000Z</time></trkpt>
        <trkpt lat="28.019624" lon="105.615096"><ele>1189.7</ele><time>2025-11-22T00:49:50.000Z</time></trkpt>
        <trkpt lat="28.019614" lon="105.615093"><ele>1189.7</ele><time>2025-11-22T00:49:51.000Z</time></trkpt>
        <trkpt lat="28.019605" lon="105.615092"><ele>1190.2</ele><time>2025-11-22T00:49:52.000Z</time></trkpt>
        <trkpt lat="28.019595" lon="105.615091"><ele>1190.2</ele><time>2025-11-22T00:49:53.000Z</time></trkpt>
        <trkpt lat="28.019587" lon="105.615092"><ele>1190.2</ele><time>2025-11-22T00:49:54.000Z</time></trkpt>
        <trkpt lat="28.019578" lon="105.615093"><ele>1190.2</ele><time>2025-11-22T00:49:55.000Z</time></trkpt>
        <trkpt lat="28.019569" lon="105.615095"><ele>1190.2</ele><time>2025-11-22T00:49:56.000Z</time></trkpt>
        <trkpt lat="28.019561" lon="105.615099"><ele>1190.9</ele><time>2025-11-22T00:49:57.000Z</time></trkpt>
        <trkpt lat="28.019552" lon="105.615103"><ele>1190.9</ele><time>2025-11-22T00:49:58.000Z</time></trkpt>
        <trkpt lat="28.019545" lon="105.615109"><ele>1190.9</ele><time>2025-11-22T00:49:59.000Z</time></trkpt>
        <trkpt lat="28.019538" lon="105.615114"><ele>1190.9</ele><time>2025-11-22T00:50:00.000Z</time></trkpt>
        <trkpt lat="28.019532" lon="105.61512"><ele>1190.9</ele><time>2025-11-22T00:50:01.000Z</time></trkpt>
        <trkpt lat="28.019527" lon="105.615128"><ele>1191.5</ele><time>2025-11-22T00:50:02.000Z</time></trkpt>
        <trkpt lat="28.019523" lon="105.615137"><ele>1191.5</ele><time>2025-11-22T00:50:03.000Z</time></trkpt>
        <trkpt lat="28.019517" lon="105.615146"><ele>1191.5</ele><time>2025-11-22T00:50:04.000Z</time></trkpt>
        <trkpt lat="28.019513" lon="105.615157"><ele>1191.5</ele><time>2025-11-22T00:50:05.000Z</time></trkpt>
        <trkpt lat="28.019508" lon="105.615167"><ele>1191.5</ele><time>2025-11-22T00:50:06.000Z</time></trkpt>
        <trkpt lat="28.019503" lon="105.615178"><ele>1192.4</ele><time>2025-11-22T00:50:07.000Z</time></trkpt>
        <trkpt lat="28.019499" lon="105.615189"><ele>1192.4</ele><time>2025-11-22T00:50:08.000Z</time></trkpt>
        <trkpt lat="28.019495" lon="105.6152"><ele>1192.4</ele><time>2025-11-22T00:50:09.000Z</time></trkpt>
        <trkpt lat="28.019492" lon="105.615212"><ele>1192.4</ele><time>2025-11-22T00:50:10.000Z</time></trkpt>
        <trkpt lat="28.019488" lon="105.615225"><ele>1192.4</ele><time>2025-11-22T00:50:11.000Z</time></trkpt>
        <trkpt lat="28.019485" lon="105.615237"><ele>1192.9</ele><time>2025-11-22T00:50:12.000Z</time></trkpt>
        <trkpt lat="28.019483" lon="105.615249"><ele>1192.9</ele><time>2025-11-22T00:50:13.000Z</time></trkpt>
        <trkpt lat="28.019481" lon="105.61526"><ele>1192.9</ele><time>2025-11-22T00:50:14.000Z</time></trkpt>
        <trkpt lat="28.019479" lon="105.61527"><ele>1192.9</ele><time>2025-11-22T00:50:15.000Z</time></trkpt>
        <trkpt lat="28.019477" lon="105.61528"><ele>1192.9</ele><time>2025-11-22T00:50:16.000Z</time></trkpt>
        <trkpt lat="28.019475" lon="105.61529"><ele>1193.7</ele><time>2025-11-22T00:50:17.000Z</time></trkpt>
        <trkpt lat="28.019473" lon="105.6153"><ele>1193.7</ele><time>2025-11-22T00:50:18.000Z</time></trkpt>
        <trkpt lat="28.01947" lon="105.615312"><ele>1193.7</ele><time>2025-11-22T00:50:19.000Z</time></trkpt>
        <trkpt lat="28.019467" lon="105.615324"><ele>1193.7</ele><time>2025-11-22T00:50:20.000Z</time></trkpt>
        <trkpt lat="28.019464" lon="105.615336"><ele>1193.7</ele><time>2025-11-22T00:50:21.000Z</time></trkpt>
        <trkpt lat="28.019462" lon="105.61535"><ele>1194.2</ele><time>2025-11-22T00:50:22.000Z</time></trkpt>
        <trkpt lat="28.01946" lon="105.615362"><ele>1194.2</ele><time>2025-11-22T00:50:23.000Z</time></trkpt>
        <trkpt lat="28.019457" lon="105.615375"><ele>1194.2</ele><time>2025-11-22T00:50:24.000Z</time></trkpt>
        <trkpt lat="28.019454" lon="105.615386"><ele>1194.2</ele><time>2025-11-22T00:50:25.000Z</time></trkpt>
        <trkpt lat="28.019451" lon="105.615397"><ele>1194.2</ele><time>2025-11-22T00:50:26.000Z</time></trkpt>
        <trkpt lat="28.019448" lon="105.615408"><ele>1194.8</ele><time>2025-11-22T00:50:27.000Z</time></trkpt>
        <trkpt lat="28.019445" lon="105.615418"><ele>1194.8</ele><time>2025-11-22T00:50:28.000Z</time></trkpt>
        <trkpt lat="28.019442" lon="105.615429"><ele>1194.8</ele><time>2025-11-22T00:50:29.000Z</time></trkpt>
        <trkpt lat="28.019439" lon="105.615439"><ele>1194.8</ele><time>2025-11-22T00:50:30.000Z</time></trkpt>
        <trkpt lat="28.019437" lon="105.61545"><ele>1194.8</ele><time>2025-11-22T00:50:31.000Z</time></trkpt>
        <trkpt lat="28.019434" lon="105.61546"><ele>1195.3</ele><time>2025-11-22T00:50:32.000Z</time></trkpt>
        <trkpt lat="28.019432" lon="105.61547"><ele>1195.3</ele><time>2025-11-22T00:50:33.000Z</time></trkpt>
        <trkpt lat="28.019429" lon="105.615482"><ele>1195.3</ele><time>2025-11-22T00:50:34.000Z</time></trkpt>
        <trkpt lat="28.019425" lon="105.615494"><ele>1195.3</ele><time>2025-11-22T00:50:35.000Z</time></trkpt>
        <trkpt lat="28.019422" lon="105.615506"><ele>1195.3</ele><time>2025-11-22T00:50:36.000Z</time></trkpt>
        <trkpt lat="28.019419" lon="105.615519"><ele>1195.4</ele><time>2025-11-22T00:50:37.000Z</time></trkpt>
        <trkpt lat="28.019416" lon="105.61553"><ele>1195.4</ele><time>2025-11-22T00:50:38.000Z</time></trkpt>
        <trkpt lat="28.019415" lon="105.615541"><ele>1195.4</ele><time>2025-11-22T00:50:39.000Z</time></trkpt>
        <trkpt lat="28.019413" lon="105.615552"><ele>1195.4</ele><time>2025-11-22T00:50:40.000Z</time></trkpt>
        <trkpt lat="28.019412" lon="105.615563"><ele>1195.4</ele><time>2025-11-22T00:50:41.000Z</time></trkpt>
        <trkpt lat="28.019409" lon="105.615575"><ele>1195.8</ele><time>2025-11-22T00:50:42.000Z</time></trkpt>
        <trkpt lat="28.019406" lon="105.615586"><ele>1195.8</ele><time>2025-11-22T00:50:43.000Z</time></trkpt>
        <trkpt lat="28.019403" lon="105.615597"><ele>1195.8</ele><time>2025-11-22T00:50:44.000Z</time></trkpt>
        <trkpt lat="28.019399" lon="105.615607"><ele>1195.8</ele><time>2025-11-22T00:50:45.000Z</time></trkpt>
        <trkpt lat="28.019396" lon="105.615617"><ele>1195.8</ele><time>2025-11-22T00:50:46.000Z</time></trkpt>
        <trkpt lat="28.019393" lon="105.615627"><ele>1196.2</ele><time>2025-11-22T00:50:47.000Z</time></trkpt>
        <trkpt lat="28.019392" lon="105.615638"><ele>1196.2</ele><time>2025-11-22T00:50:48.000Z</time></trkpt>
        <trkpt lat="28.01939" lon="105.615649"><ele>1196.2</ele><time>2025-11-22T00:50:49.000Z</time></trkpt>
        <trkpt lat="28.019389" lon="105.61566"><ele>1196.2</ele><time>2025-11-22T00:50:50.000Z</time></trkpt>
        <trkpt lat="28.019387" lon="105.615672"><ele>1196.2</ele><time>2025-11-22T00:50:51.000Z</time></trkpt>
        <trkpt lat="28.019386" lon="105.615684"><ele>1196.3</ele><time>2025-11-22T00:50:52.000Z</time></trkpt>
        <trkpt lat="28.019385" lon="105.615695"><ele>1196.3</ele><time>2025-11-22T00:50:53.000Z</time></trkpt>
        <trkpt lat="28.019384" lon="105.615706"><ele>1196.3</ele><time>2025-11-22T00:50:54.000Z</time></trkpt>
        <trkpt lat="28.019382" lon="105.615718"><ele>1196.3</ele><time>2025-11-22T00:50:55.000Z</time></trkpt>
        <trkpt lat="28.01938" lon="105.615728"><ele>1196.3</ele><time>2025-11-22T00:50:56.000Z</time></trkpt>
        <trkpt lat="28.019378" lon="105.615739"><ele>1196.9</ele><time>2025-11-22T00:50:57.000Z</time></trkpt>
        <trkpt lat="28.019375" lon="105.61575"><ele>1196.9</ele><time>2025-11-22T00:50:58.000Z</time></trkpt>
        <trkpt lat="28.019372" lon="105.615761"><ele>1196.9</ele><time>2025-11-22T00:50:59.000Z</time></trkpt>
        <trkpt lat="28.01937" lon="105.615773"><ele>1196.9</ele><time>2025-11-22T00:51:00.000Z</time></trkpt>
        <trkpt lat="28.019367" lon="105.615785"><ele>1196.9</ele><time>2025-11-22T00:51:01.000Z</time></trkpt>
        <trkpt lat="28.019366" lon="105.615797"><ele>1197.3</ele><time>2025-11-22T00:51:02.000Z</time></trkpt>
        <trkpt lat="28.019364" lon="105.615809"><ele>1197.3</ele><time>2025-11-22T00:51:03.000Z</time></trkpt>
        <trkpt lat="28.019362" lon="105.61582"><ele>1197.3</ele><time>2025-11-22T00:51:04.000Z</time></trkpt>
        <trkpt lat="28.01936" lon="105.615832"><ele>1197.3</ele><time>2025-11-22T00:51:05.000Z</time></trkpt>
        <trkpt lat="28.019359" lon="105.615845"><ele>1197.3</ele><time>2025-11-22T00:51:06.000Z</time></trkpt>
        <trkpt lat="28.019357" lon="105.615857"><ele>1197.8</ele><time>2025-11-22T00:51:07.000Z</time></trkpt>
        <trkpt lat="28.019356" lon="105.61587"><ele>1197.8</ele><time>2025-11-22T00:51:08.000Z</time></trkpt>
        <trkpt lat="28.019355" lon="105.615882"><ele>1197.8</ele><time>2025-11-22T00:51:09.000Z</time></trkpt>
        <trkpt lat="28.019353" lon="105.615894"><ele>1197.8</ele><time>2025-11-22T00:51:10.000Z</time></trkpt>
        <trkpt lat="28.019351" lon="105.615905"><ele>1197.8</ele><time>2025-11-22T00:51:11.000Z</time></trkpt>
        <trkpt lat="28.019349" lon="105.615916"><ele>1198.1</ele><time>2025-11-22T00:51:12.000Z</time></trkpt>
        <trkpt lat="28.019347" lon="105.615927"><ele>1198.1</ele><time>2025-11-22T00:51:13.000Z</time></trkpt>
        <trkpt lat="28.019345" lon="105.615938"><ele>1198.1</ele><time>2025-11-22T00:51:14.000Z</time></trkpt>
        <trkpt lat="28.019342" lon="105.615949"><ele>1198.1</ele><time>2025-11-22T00:51:15.000Z</time></trkpt>
        <trkpt lat="28.019339" lon="105.615962"><ele>1198.1</ele><time>2025-11-22T00:51:16.000Z</time></trkpt>
        <trkpt lat="28.019336" lon="105.615974"><ele>1198.7</ele><time>2025-11-22T00:51:17.000Z</time></trkpt>
        <trkpt lat="28.019333" lon="105.615987"><ele>1198.7</ele><time>2025-11-22T00:51:18.000Z</time></trkpt>
        <trkpt lat="28.019329" lon="105.615999"><ele>1198.7</ele><time>2025-11-22T00:51:19.000Z</time></trkpt>
        <trkpt lat="28.019325" lon="105.616011"><ele>1198.7</ele><time>2025-11-22T00:51:20.000Z</time></trkpt>
        <trkpt lat="28.019322" lon="105.616022"><ele>1198.7</ele><time>2025-11-22T00:51:21.000Z</time></trkpt>
        <trkpt lat="28.019319" lon="105.616034"><ele>1199.1</ele><time>2025-11-22T00:51:22.000Z</time></trkpt>
        <trkpt lat="28.019316" lon="105.616044"><ele>1199.1</ele><time>2025-11-22T00:51:23.000Z</time></trkpt>
        <trkpt lat="28.019313" lon="105.616056"><ele>1199.1</ele><time>2025-11-22T00:51:24.000Z</time></trkpt>
        <trkpt lat="28.019311" lon="105.616067"><ele>1199.1</ele><time>2025-11-22T00:51:25.000Z</time></trkpt>
        <trkpt lat="28.019308" lon="105.616079"><ele>1199.1</ele><time>2025-11-22T00:51:26.000Z</time></trkpt>
        <trkpt lat="28.019305" lon="105.61609"><ele>1199.8</ele><time>2025-11-22T00:51:27.000Z</time></trkpt>
        <trkpt lat="28.019303" lon="105.616102"><ele>1199.8</ele><time>2025-11-22T00:51:28.000Z</time></trkpt>
        <trkpt lat="28.019301" lon="105.616113"><ele>1199.8</ele><time>2025-11-22T00:51:29.000Z</time></trkpt>
        <trkpt lat="28.0193" lon="105.616124"><ele>1199.8</ele><time>2025-11-22T00:51:30.000Z</time></trkpt>
        <trkpt lat="28.019299" lon="105.616134"><ele>1199.8</ele><time>2025-11-22T00:51:31.000Z</time></trkpt>
        <trkpt lat="28.019298" lon="105.616144"><ele>1200.3</ele><time>2025-11-22T00:51:32.000Z</time></trkpt>
        <trkpt lat="28.019298" lon="105.616154"><ele>1200.3</ele><time>2025-11-22T00:51:33.000Z</time></trkpt>
        <trkpt lat="28.019296" lon="105.616164"><ele>1200.3</ele><time>2025-11-22T00:51:34.000Z</time></trkpt>
        <trkpt lat="28.019293" lon="105.616173"><ele>1200.3</ele><time>2025-11-22T00:51:35.000Z</time></trkpt>
        <trkpt lat="28.01929" lon="105.616182"><ele>1200.3</ele><time>2025-11-22T00:51:36.000Z</time></trkpt>
        <trkpt lat="28.019285" lon="105.616189"><ele>1201.2</ele><time>2025-11-22T00:51:37.000Z</time></trkpt>
        <trkpt lat="28.019278" lon="105.616197"><ele>1201.2</ele><time>2025-11-22T00:51:38.000Z</time></trkpt>
        <trkpt lat="28.019271" lon="105.616204"><ele>1201.2</ele><time>2025-11-22T00:51:39.000Z</time></trkpt>
        <trkpt lat="28.019261" lon="105.61621"><ele>1201.2</ele><time>2025-11-22T00:51:40.000Z</time></trkpt>
        <trkpt lat="28.019251" lon="105.616216"><ele>1201.2</ele><time>2025-11-22T00:51:41.000Z</time></trkpt>
        <trkpt lat="28.019239" lon="105.616221"><ele>1201.8</ele><time>2025-11-22T00:51:42.000Z</time></trkpt>
        <trkpt lat="28.019229" lon="105.616224"><ele>1201.8</ele><time>2025-11-22T00:51:43.000Z</time></trkpt>
        <trkpt lat="28.019219" lon="105.616224"><ele>1201.8</ele><time>2025-11-22T00:51:44.000Z</time></trkpt>
        <trkpt lat="28.019209" lon="105.616222"><ele>1201.8</ele><time>2025-11-22T00:51:45.000Z</time></trkpt>
        <trkpt lat="28.019201" lon="105.616218"><ele>1201.8</ele><time>2025-11-22T00:51:46.000Z</time></trkpt>
        <trkpt lat="28.019192" lon="105.616212"><ele>1202.9</ele><time>2025-11-22T00:51:47.000Z</time></trkpt>
        <trkpt lat="28.019185" lon="105.616205"><ele>1202.9</ele><time>2025-11-22T00:51:48.000Z</time></trkpt>
        <trkpt lat="28.019176" lon="105.616198"><ele>1202.9</ele><time>2025-11-22T00:51:49.000Z</time></trkpt>
        <trkpt lat="28.01917" lon="105.61619"><ele>1202.9</ele><time>2025-11-22T00:51:50.000Z</time></trkpt>
        <trkpt lat="28.019164" lon="105.616183"><ele>1202.9</ele><time>2025-11-22T00:51:51.000Z</time></trkpt>
        <trkpt lat="28.01916" lon="105.616176"><ele>1203.5</ele><time>2025-11-22T00:51:52.000Z</time></trkpt>
        <trkpt lat="28.019156" lon="105.616167"><ele>1203.5</ele><time>2025-11-22T00:51:53.000Z</time></trkpt>
        <trkpt lat="28.019153" lon="105.616158"><ele>1203.5</ele><time>2025-11-22T00:51:54.000Z</time></trkpt>
        <trkpt lat="28.019151" lon="105.616147"><ele>1203.5</ele><time>2025-11-22T00:51:55.000Z</time></trkpt>
        <trkpt lat="28.019149" lon="105.616134"><ele>1203.5</ele><time>2025-11-22T00:51:56.000Z</time></trkpt>
        <trkpt lat="28.019148" lon="105.616122"><ele>1204.3</ele><time>2025-11-22T00:51:57.000Z</time></trkpt>
        <trkpt lat="28.019149" lon="105.61611"><ele>1204.3</ele><time>2025-11-22T00:51:58.000Z</time></trkpt>
        <trkpt lat="28.01915" lon="105.616095"><ele>1204.3</ele><time>2025-11-22T00:51:59.000Z</time></trkpt>
        <trkpt lat="28.019152" lon="105.616081"><ele>1204.3</ele><time>2025-11-22T00:52:00.000Z</time></trkpt>
        <trkpt lat="28.019154" lon="105.616068"><ele>1204.3</ele><time>2025-11-22T00:52:01.000Z</time></trkpt>
        <trkpt lat="28.019157" lon="105.616056"><ele>1204.9</ele><time>2025-11-22T00:52:02.000Z</time></trkpt>
        <trkpt lat="28.01916" lon="105.616044"><ele>1204.9</ele><time>2025-11-22T00:52:03.000Z</time></trkpt>
        <trkpt lat="28.019164" lon="105.616034"><ele>1204.9</ele><time>2025-11-22T00:52:04.000Z</time></trkpt>
        <trkpt lat="28.019168" lon="105.616023"><ele>1204.9</ele><time>2025-11-22T00:52:05.000Z</time></trkpt>
        <trkpt lat="28.019172" lon="105.616013"><ele>1204.9</ele><time>2025-11-22T00:52:06.000Z</time></trkpt>
        <trkpt lat="28.019176" lon="105.616003"><ele>1205.7</ele><time>2025-11-22T00:52:07.000Z</time></trkpt>
        <trkpt lat="28.019178" lon="105.615992"><ele>1205.7</ele><time>2025-11-22T00:52:08.000Z</time></trkpt>
        <trkpt lat="28.019181" lon="105.61598"><ele>1205.7</ele><time>2025-11-22T00:52:09.000Z</time></trkpt>
        <trkpt lat="28.019183" lon="105.615968"><ele>1205.7</ele><time>2025-11-22T00:52:10.000Z</time></trkpt>
        <trkpt lat="28.019185" lon="105.615956"><ele>1205.7</ele><time>2025-11-22T00:52:11.000Z</time></trkpt>
        <trkpt lat="28.019186" lon="105.615943"><ele>1206.2</ele><time>2025-11-22T00:52:12.000Z</time></trkpt>
        <trkpt lat="28.019188" lon="105.615929"><ele>1206.2</ele><time>2025-11-22T00:52:13.000Z</time></trkpt>
        <trkpt lat="28.01919" lon="105.615916"><ele>1206.2</ele><time>2025-11-22T00:52:14.000Z</time></trkpt>
        <trkpt lat="28.019192" lon="105.615902"><ele>1206.2</ele><time>2025-11-22T00:52:15.000Z</time></trkpt>
        <trkpt lat="28.019194" lon="105.615889"><ele>1206.2</ele><time>2025-11-22T00:52:16.000Z</time></trkpt>
        <trkpt lat="28.019195" lon="105.615877"><ele>1207</ele><time>2025-11-22T00:52:17.000Z</time></trkpt>
        <trkpt lat="28.019198" lon="105.615865"><ele>1207</ele><time>2025-11-22T00:52:18.000Z</time></trkpt>
        <trkpt lat="28.0192" lon="105.615853"><ele>1207</ele><time>2025-11-22T00:52:19.000Z</time></trkpt>
        <trkpt lat="28.019202" lon="105.615842"><ele>1207</ele><time>2025-11-22T00:52:20.000Z</time></trkpt>
        <trkpt lat="28.019204" lon="105.615832"><ele>1207</ele><time>2025-11-22T00:52:21.000Z</time></trkpt>
        <trkpt lat="28.019205" lon="105.615822"><ele>1207.4</ele><time>2025-11-22T00:52:22.000Z</time></trkpt>
        <trkpt lat="28.019206" lon="105.615811"><ele>1207.4</ele><time>2025-11-22T00:52:23.000Z</time></trkpt>
        <trkpt lat="28.019207" lon="105.6158"><ele>1207.4</ele><time>2025-11-22T00:52:24.000Z</time></trkpt>
        <trkpt lat="28.019206" lon="105.615789"><ele>1207.4</ele><time>2025-11-22T00:52:25.000Z</time></trkpt>
        <trkpt lat="28.019206" lon="105.615778"><ele>1207.4</ele><time>2025-11-22T00:52:26.000Z</time></trkpt>
        <trkpt lat="28.019204" lon="105.615766"><ele>1208.1</ele><time>2025-11-22T00:52:27.000Z</time></trkpt>
        <trkpt lat="28.019203" lon="105.615755"><ele>1208.1</ele><time>2025-11-22T00:52:28.000Z</time></trkpt>
        <trkpt lat="28.019201" lon="105.615744"><ele>1208.1</ele><time>2025-11-22T00:52:29.000Z</time></trkpt>
        <trkpt lat="28.0192" lon="105.615732"><ele>1208.1</ele><time>2025-11-22T00:52:30.000Z</time></trkpt>
        <trkpt lat="28.0192" lon="105.61572"><ele>1208.1</ele><time>2025-11-22T00:52:31.000Z</time></trkpt>
        <trkpt lat="28.019199" lon="105.615708"><ele>1208.5</ele><time>2025-11-22T00:52:32.000Z</time></trkpt>
        <trkpt lat="28.019199" lon="105.615695"><ele>1208.5</ele><time>2025-11-22T00:52:33.000Z</time></trkpt>
        <trkpt lat="28.019199" lon="105.615682"><ele>1208.5</ele><time>2025-11-22T00:52:34.000Z</time></trkpt>
        <trkpt lat="28.019199" lon="105.61567"><ele>1208.5</ele><time>2025-11-22T00:52:35.000Z</time></trkpt>
        <trkpt lat="28.0192" lon="105.615656"><ele>1208.5</ele><time>2025-11-22T00:52:36.000Z</time></trkpt>
        <trkpt lat="28.019201" lon="105.615643"><ele>1209</ele><time>2025-11-22T00:52:37.000Z</time></trkpt>
        <trkpt lat="28.019202" lon="105.61563"><ele>1209</ele><time>2025-11-22T00:52:38.000Z</time></trkpt>
        <trkpt lat="28.019203" lon="105.615616"><ele>1209</ele><time>2025-11-22T00:52:39.000Z</time></trkpt>
        <trkpt lat="28.019206" lon="105.615603"><ele>1209</ele><time>2025-11-22T00:52:40.000Z</time></trkpt>
        <trkpt lat="28.019208" lon="105.615591"><ele>1209</ele><time>2025-11-22T00:52:41.000Z</time></trkpt>
        <trkpt lat="28.01921" lon="105.61558"><ele>1209.5</ele><time>2025-11-22T00:52:42.000Z</time></trkpt>
        <trkpt lat="28.019212" lon="105.615569"><ele>1209.5</ele><time>2025-11-22T00:52:43.000Z</time></trkpt>
        <trkpt lat="28.019212" lon="105.615558"><ele>1209.5</ele><time>2025-11-22T00:52:44.000Z</time></trkpt>
        <trkpt lat="28.019211" lon="105.615548"><ele>1209.5</ele><time>2025-11-22T00:52:45.000Z</time></trkpt>
        <trkpt lat="28.019211" lon="105.615537"><ele>1209.5</ele><time>2025-11-22T00:52:46.000Z</time></trkpt>
        <trkpt lat="28.01921" lon="105.615526"><ele>1209.8</ele><time>2025-11-22T00:52:47.000Z</time></trkpt>
        <trkpt lat="28.01921" lon="105.615514"><ele>1209.8</ele><time>2025-11-22T00:52:48.000Z</time></trkpt>
        <trkpt lat="28.01921" lon="105.615502"><ele>1209.8</ele><time>2025-11-22T00:52:49.000Z</time></trkpt>
        <trkpt lat="28.019209" lon="105.615489"><ele>1209.8</ele><time>2025-11-22T00:52:50.000Z</time></trkpt>
        <trkpt lat="28.019208" lon="105.615475"><ele>1209.8</ele><time>2025-11-22T00:52:51.000Z</time></trkpt>
        <trkpt lat="28.019206" lon="105.615461"><ele>1210.5</ele><time>2025-11-22T00:52:52.000Z</time></trkpt>
        <trkpt lat="28.019206" lon="105.615446"><ele>1210.5</ele><time>2025-11-22T00:52:53.000Z</time></trkpt>
        <trkpt lat="28.019205" lon="105.615432"><ele>1210.5</ele><time>2025-11-22T00:52:54.000Z</time></trkpt>
        <trkpt lat="28.019204" lon="105.615417"><ele>1210.5</ele><time>2025-11-22T00:52:55.000Z</time></trkpt>
        <trkpt lat="28.019204" lon="105.615403"><ele>1210.5</ele><time>2025-11-22T00:52:56.000Z</time></trkpt>
        <trkpt lat="28.019204" lon="105.615391"><ele>1211</ele><time>2025-11-22T00:52:57.000Z</time></trkpt>
        <trkpt lat="28.019204" lon="105.615379"><ele>1211</ele><time>2025-11-22T00:52:58.000Z</time></trkpt>
        <trkpt lat="28.019203" lon="105.615368"><ele>1211</ele><time>2025-11-22T00:52:59.000Z</time></trkpt>
        <trkpt lat="28.019202" lon="105.615357"><ele>1211</ele><time>2025-11-22T00:53:00.000Z</time></trkpt>
        <trkpt lat="28.019201" lon="105.615347"><ele>1211</ele><time>2025-11-22T00:53:01.000Z</time></trkpt>
        <trkpt lat="28.019201" lon="105.615336"><ele>1211.6</ele><time>2025-11-22T00:53:02.000Z</time></trkpt>
        <trkpt lat="28.0192" lon="105.615323"><ele>1211.6</ele><time>2025-11-22T00:53:03.000Z</time></trkpt>
        <trkpt lat="28.0192" lon="105.61531"><ele>1211.6</ele><time>2025-11-22T00:53:04.000Z</time></trkpt>
        <trkpt lat="28.0192" lon="105.615297"><ele>1211.6</ele><time>2025-11-22T00:53:05.000Z</time></trkpt>
        <trkpt lat="28.0192" lon="105.615285"><ele>1211.6</ele><time>2025-11-22T00:53:06.000Z</time></trkpt>
        <trkpt lat="28.0192" lon="105.615274"><ele>1212</ele><time>2025-11-22T00:53:07.000Z</time></trkpt>
        <trkpt lat="28.019201" lon="105.615264"><ele>1212</ele><time>2025-11-22T00:53:08.000Z</time></trkpt>
        <trkpt lat="28.019201" lon="105.615254"><ele>1212</ele><time>2025-11-22T00:53:09.000Z</time></trkpt>
        <trkpt lat="28.019201" lon="105.615244"><ele>1212</ele><time>2025-11-22T00:53:10.000Z</time></trkpt>
        <trkpt lat="28.019201" lon="105.615233"><ele>1212</ele><time>2025-11-22T00:53:11.000Z</time></trkpt>
        <trkpt lat="28.019201" lon="105.615222"><ele>1212.8</ele><time>2025-11-22T00:53:12.000Z</time></trkpt>
        <trkpt lat="28.019199" lon="105.61521"><ele>1212.8</ele><time>2025-11-22T00:53:13.000Z</time></trkpt>
        <trkpt lat="28.019198" lon="105.615198"><ele>1212.8</ele><time>2025-11-22T00:53:14.000Z</time></trkpt>
        <trkpt lat="28.019196" lon="105.615186"><ele>1212.8</ele><time>2025-11-22T00:53:15.000Z</time></trkpt>
        <trkpt lat="28.019194" lon="105.615173"><ele>1212.8</ele><time>2025-11-22T00:53:16.000Z</time></trkpt>
        <trkpt lat="28.019192" lon="105.615161"><ele>1213.3</ele><time>2025-11-22T00:53:17.000Z</time></trkpt>
        <trkpt lat="28.01919" lon="105.615149"><ele>1213.3</ele><time>2025-11-22T00:53:18.000Z</time></trkpt>
        <trkpt lat="28.019189" lon="105.615136"><ele>1213.3</ele><time>2025-11-22T00:53:19.000Z</time></trkpt>
        <trkpt lat="28.019186" lon="105.615124"><ele>1213.3</ele><time>2025-11-22T00:53:20.000Z</time></trkpt>
        <trkpt lat="28.019184" lon="105.615112"><ele>1213.3</ele><time>2025-11-22T00:53:21.000Z</time></trkpt>
        <trkpt lat="28.019181" lon="105.615101"><ele>1214.2</ele><time>2025-11-22T00:53:22.000Z</time></trkpt>
        <trkpt lat="28.019178" lon="105.615089"><ele>1214.2</ele><time>2025-11-22T00:53:23.000Z</time></trkpt>
        <trkpt lat="28.019175" lon="105.615078"><ele>1214.2</ele><time>2025-11-22T00:53:24.000Z</time></trkpt>
        <trkpt lat="28.019171" lon="105.615067"><ele>1214.2</ele><time>2025-11-22T00:53:25.000Z</time></trkpt>
        <trkpt lat="28.019167" lon="105.615055"><ele>1214.2</ele><time>2025-11-22T00:53:26.000Z</time></trkpt>
        <trkpt lat="28.019163" lon="105.615044"><ele>1214.9</ele><time>2025-11-22T00:53:27.000Z</time></trkpt>
        <trkpt lat="28.019159" lon="105.615034"><ele>1214.9</ele><time>2025-11-22T00:53:28.000Z</time></trkpt>
        <trkpt lat="28.019154" lon="105.615024"><ele>1214.9</ele><time>2025-11-22T00:53:29.000Z</time></trkpt>
        <trkpt lat="28.01915" lon="105.615014"><ele>1214.9</ele><time>2025-11-22T00:53:30.000Z</time></trkpt>
        <trkpt lat="28.019146" lon="105.615003"><ele>1214.9</ele><time>2025-11-22T00:53:31.000Z</time></trkpt>
        <trkpt lat="28.019142" lon="105.614992"><ele>1215.8</ele><time>2025-11-22T00:53:32.000Z</time></trkpt>
        <trkpt lat="28.019138" lon="105.614981"><ele>1215.8</ele><time>2025-11-22T00:53:33.000Z</time></trkpt>
        <trkpt lat="28.019133" lon="105.614971"><ele>1215.8</ele><time>2025-11-22T00:53:34.000Z</time></trkpt>
        <trkpt lat="28.019129" lon="105.614961"><ele>1215.8</ele><time>2025-11-22T00:53:35.000Z</time></trkpt>
        <trkpt lat="28.019124" lon="105.614952"><ele>1215.8</ele><time>2025-11-22T00:53:36.000Z</time></trkpt>
        <trkpt lat="28.019119" lon="105.614944"><ele>1216.5</ele><time>2025-11-22T00:53:37.000Z</time></trkpt>
        <trkpt lat="28.019114" lon="105.614935"><ele>1216.5</ele><time>2025-11-22T00:53:38.000Z</time></trkpt>
        <trkpt lat="28.019108" lon="105.614925"><ele>1216.5</ele><time>2025-11-22T00:53:39.000Z</time></trkpt>
        <trkpt lat="28.019102" lon="105.614914"><ele>1216.5</ele><time>2025-11-22T00:53:40.000Z</time></trkpt>
        <trkpt lat="28.019096" lon="105.614904"><ele>1216.5</ele><time>2025-11-22T00:53:41.000Z</time></trkpt>
        <trkpt lat="28.019091" lon="105.614893"><ele>1217.3</ele><time>2025-11-22T00:53:42.000Z</time></trkpt>
        <trkpt lat="28.019086" lon="105.614882"><ele>1217.3</ele><time>2025-11-22T00:53:43.000Z</time></trkpt>
        <trkpt lat="28.019081" lon="105.61487"><ele>1217.3</ele><time>2025-11-22T00:53:44.000Z</time></trkpt>
        <trkpt lat="28.019077" lon="105.614859"><ele>1217.3</ele><time>2025-11-22T00:53:45.000Z</time></trkpt>
        <trkpt lat="28.019073" lon="105.614848"><ele>1217.3</ele><time>2025-11-22T00:53:46.000Z</time></trkpt>
        <trkpt lat="28.019069" lon="105.614836"><ele>1217.9</ele><time>2025-11-22T00:53:47.000Z</time></trkpt>
        <trkpt lat="28.019066" lon="105.614825"><ele>1217.9</ele><time>2025-11-22T00:53:48.000Z</time></trkpt>
        <trkpt lat="28.019063" lon="105.614813"><ele>1217.9</ele><time>2025-11-22T00:53:49.000Z</time></trkpt>
        <trkpt lat="28.019061" lon="105.614802"><ele>1217.9</ele><time>2025-11-22T00:53:50.000Z</time></trkpt>
        <trkpt lat="28.019059" lon="105.61479"><ele>1217.9</ele><time>2025-11-22T00:53:51.000Z</time></trkpt>
        <trkpt lat="28.019058" lon="105.614777"><ele>1218.4</ele><time>2025-11-22T00:53:52.000Z</time></trkpt>
        <trkpt lat="28.019057" lon="105.614763"><ele>1218.4</ele><time>2025-11-22T00:53:53.000Z</time></trkpt>
        <trkpt lat="28.019057" lon="105.614748"><ele>1218.4</ele><time>2025-11-22T00:53:54.000Z</time></trkpt>
        <trkpt lat="28.019058" lon="105.614732"><ele>1218.4</ele><time>2025-11-22T00:53:55.000Z</time></trkpt>
        <trkpt lat="28.019058" lon="105.614716"><ele>1218.4</ele><time>2025-11-22T00:53:56.000Z</time></trkpt>
        <trkpt lat="28.019059" lon="105.6147"><ele>1218.8</ele><time>2025-11-22T00:53:57.000Z</time></trkpt>
        <trkpt lat="28.01906" lon="105.614686"><ele>1218.8</ele><time>2025-11-22T00:53:58.000Z</time></trkpt>
        <trkpt lat="28.019061" lon="105.614672"><ele>1218.8</ele><time>2025-11-22T00:53:59.000Z</time></trkpt>
        <trkpt lat="28.019063" lon="105.61466"><ele>1218.8</ele><time>2025-11-22T00:54:00.000Z</time></trkpt>
        <trkpt lat="28.019065" lon="105.614649"><ele>1218.8</ele><time>2025-11-22T00:54:01.000Z</time></trkpt>
        <trkpt lat="28.019068" lon="105.614637"><ele>1219.1</ele><time>2025-11-22T00:54:02.000Z</time></trkpt>
        <trkpt lat="28.019072" lon="105.614626"><ele>1219.1</ele><time>2025-11-22T00:54:03.000Z</time></trkpt>
        <trkpt lat="28.019075" lon="105.614614"><ele>1219.1</ele><time>2025-11-22T00:54:04.000Z</time></trkpt>
        <trkpt lat="28.019078" lon="105.614603"><ele>1219.1</ele><time>2025-11-22T00:54:05.000Z</time></trkpt>
        <trkpt lat="28.019081" lon="105.614592"><ele>1219.1</ele><time>2025-11-22T00:54:06.000Z</time></trkpt>
        <trkpt lat="28.019083" lon="105.61458"><ele>1219.6</ele><time>2025-11-22T00:54:07.000Z</time></trkpt>
        <trkpt lat="28.019085" lon="105.614569"><ele>1219.6</ele><time>2025-11-22T00:54:08.000Z</time></trkpt>
        <trkpt lat="28.019086" lon="105.614558"><ele>1219.6</ele><time>2025-11-22T00:54:09.000Z</time></trkpt>
        <trkpt lat="28.019087" lon="105.614546"><ele>1219.6</ele><time>2025-11-22T00:54:10.000Z</time></trkpt>
        <trkpt lat="28.019087" lon="105.614535"><ele>1219.6</ele><time>2025-11-22T00:54:11.000Z</time></trkpt>
        <trkpt lat="28.019088" lon="105.614524"><ele>1220.2</ele><time>2025-11-22T00:54:12.000Z</time></trkpt>
        <trkpt lat="28.019089" lon="105.614512"><ele>1220.2</ele><time>2025-11-22T00:54:13.000Z</time></trkpt>
        <trkpt lat="28.019089" lon="105.6145"><ele>1220.2</ele><time>2025-11-22T00:54:14.000Z</time></trkpt>
        <trkpt lat="28.019089" lon="105.614488"><ele>1220.2</ele><time>2025-11-22T00:54:15.000Z</time></trkpt>
        <trkpt lat="28.019089" lon="105.614476"><ele>1220.2</ele><time>2025-11-22T00:54:16.000Z</time></trkpt>
        <trkpt lat="28.01909" lon="105.614463"><ele>1221</ele><time>2025-11-22T00:54:17.000Z</time></trkpt>
        <trkpt lat="28.01909" lon="105.614451"><ele>1221</ele><time>2025-11-22T00:54:18.000Z</time></trkpt>
        <trkpt lat="28.019091" lon="105.614439"><ele>1221</ele><time>2025-11-22T00:54:19.000Z</time></trkpt>
        <trkpt lat="28.019091" lon="105.614428"><ele>1221</ele><time>2025-11-22T00:54:20.000Z</time></trkpt>
        <trkpt lat="28.019092" lon="105.614418"><ele>1221</ele><time>2025-11-22T00:54:21.000Z</time></trkpt>
        <trkpt lat="28.019093" lon="105.614408"><ele>1221.5</ele><time>2025-11-22T00:54:22.000Z</time></trkpt>
        <trkpt lat="28.019094" lon="105.614398"><ele>1221.5</ele><time>2025-11-22T00:54:23.000Z</time></trkpt>
        <trkpt lat="28.019096" lon="105.614387"><ele>1221.5</ele><time>2025-11-22T00:54:24.000Z</time></trkpt>
        <trkpt lat="28.019099" lon="105.614376"><ele>1221.5</ele><time>2025-11-22T00:54:25.000Z</time></trkpt>
        <trkpt lat="28.019101" lon="105.614365"><ele>1221.5</ele><time>2025-11-22T00:54:26.000Z</time></trkpt>
        <trkpt lat="28.019102" lon="105.614355"><ele>1222.1</ele><time>2025-11-22T00:54:27.000Z</time></trkpt>
        <trkpt lat="28.019103" lon="105.614345"><ele>1222.1</ele><time>2025-11-22T00:54:28.000Z</time></trkpt>
        <trkpt lat="28.019104" lon="105.614336"><ele>1222.1</ele><time>2025-11-22T00:54:29.000Z</time></trkpt>
        <trkpt lat="28.019104" lon="105.614329"><ele>1222.1</ele><time>2025-11-22T00:54:30.000Z</time></trkpt>
        <trkpt lat="28.019104" lon="105.614323"><ele>1222.1</ele><time>2025-11-22T00:54:31.000Z</time></trkpt>
        <trkpt lat="28.019102" lon="105.61432"><ele>1222.4</ele><time>2025-11-22T00:54:32.000Z</time></trkpt>
        <trkpt lat="28.019099" lon="105.614318"><ele>1222.4</ele><time>2025-11-22T00:54:33.000Z</time></trkpt>
        <trkpt lat="28.019095" lon="105.614319"><ele>1222.4</ele><time>2025-11-22T00:54:34.000Z</time></trkpt>
        <trkpt lat="28.01909" lon="105.614321"><ele>1222.4</ele><time>2025-11-22T00:54:35.000Z</time></trkpt>
        <trkpt lat="28.019084" lon="105.614323"><ele>1222.4</ele><time>2025-11-22T00:54:36.000Z</time></trkpt>
        <trkpt lat="28.019078" lon="105.614326"><ele>1222.6</ele><time>2025-11-22T00:54:37.000Z</time></trkpt>
        <trkpt lat="28.019072" lon="105.61433"><ele>1222.6</ele><time>2025-11-22T00:54:38.000Z</time></trkpt>
        <trkpt lat="28.019067" lon="105.614337"><ele>1222.6</ele><time>2025-11-22T00:54:39.000Z</time></trkpt>
        <trkpt lat="28.019062" lon="105.614343"><ele>1222.6</ele><time>2025-11-22T00:54:40.000Z</time></trkpt>
        <trkpt lat="28.019058" lon="105.614349"><ele>1222.6</ele><time>2025-11-22T00:54:41.000Z</time></trkpt>
        <trkpt lat="28.019056" lon="105.614357"><ele>1223.3</ele><time>2025-11-22T00:54:42.000Z</time></trkpt>
        <trkpt lat="28.019055" lon="105.614361"><ele>1223.3</ele><time>2025-11-22T00:54:43.000Z</time></trkpt>
        <trkpt lat="28.019054" lon="105.614363"><ele>1223.3</ele><time>2025-11-22T00:54:44.000Z</time></trkpt>
        <trkpt lat="28.019055" lon="105.614364"><ele>1223.3</ele><time>2025-11-22T00:54:45.000Z</time></trkpt>
        <trkpt lat="28.019056" lon="105.614365"><ele>1223.3</ele><time>2025-11-22T00:54:46.000Z</time></trkpt>
        <trkpt lat="28.019057" lon="105.614365"><ele>1223.8</ele><time>2025-11-22T00:54:47.000Z</time></trkpt>
        <trkpt lat="28.019058" lon="105.614366"><ele>1223.8</ele><time>2025-11-22T00:54:48.000Z</time></trkpt>
        <trkpt lat="28.019058" lon="105.614369"><ele>1223.8</ele><time>2025-11-22T00:54:49.000Z</time></trkpt>
        <trkpt lat="28.019059" lon="105.614372"><ele>1223.8</ele><time>2025-11-22T00:54:50.000Z</time></trkpt>
        <trkpt lat="28.019059" lon="105.614375"><ele>1223.8</ele><time>2025-11-22T00:54:51.000Z</time></trkpt>
        <trkpt lat="28.019059" lon="105.614377"><ele>1224.2</ele><time>2025-11-22T00:54:52.000Z</time></trkpt>
        <trkpt lat="28.01906" lon="105.614378"><ele>1224.2</ele><time>2025-11-22T00:54:53.000Z</time></trkpt>
        <trkpt lat="28.019061" lon="105.614378"><ele>1224.2</ele><time>2025-11-22T00:54:54.000Z</time></trkpt>
        <trkpt lat="28.019062" lon="105.614376"><ele>1224.2</ele><time>2025-11-22T00:54:55.000Z</time></trkpt>
        <trkpt lat="28.019063" lon="105.614375"><ele>1224.2</ele><time>2025-11-22T00:54:56.000Z</time></trkpt>
        <trkpt lat="28.019065" lon="105.614374"><ele>1224.2</ele><time>2025-11-22T00:54:57.000Z</time></trkpt>
        <trkpt lat="28.019066" lon="105.614375"><ele>1224.2</ele><time>2025-11-22T00:54:58.000Z</time></trkpt>
        <trkpt lat="28.019067" lon="105.614372"><ele>1224.2</ele><time>2025-11-22T00:54:59.000Z</time></trkpt>
      </trkseg>
  </trk>
</gpx>